<?xml version='1.0' encoding='UTF-8'?><gpx version="1.1" creator="JPX - https://github.com/jenetics/jpx" xmlns="http://www.topografix.com/GPX/1/1"><trk><trkseg><trkpt lat="45.0313251" lon="9.1721877"><ele>83.0</ele><time>2026-04-26T07:35:49.021Z</time></trkpt><trkpt lat="45.0313791" lon="9.1721331"><ele>83.0</ele><time>2026-04-26T07:35:51.02Z</time></trkpt><trkpt lat="45.0314605" lon="9.172112"><ele>83.0</ele><time>2026-04-26T07:35:58.02Z</time></trkpt><trkpt lat="45.031489" lon="9.1720032"><ele>83.0</ele><time>2026-04-26T07:36:03.021Z</time></trkpt><trkpt lat="45.0314369" lon="9.1718354"><ele>83.0</ele><time>2026-04-26T07:36:05.021Z</time></trkpt><trkpt lat="45.0313887" lon="9.1717299"><ele>83.0</ele><time>2026-04-26T07:36:06.02Z</time></trkpt><trkpt lat="45.03134" lon="9.1716245"><ele>83.0</ele><time>2026-04-26T07:36:07.02Z</time></trkpt><trkpt lat="45.0312941" lon="9.1715224"><ele>83.0</ele><time>2026-04-26T07:36:08.02Z</time></trkpt><trkpt lat="45.0312454" lon="9.1714256"><ele>83.0</ele><time>2026-04-26T07:36:09.02Z</time></trkpt><trkpt lat="45.0311899" lon="9.171328"><ele>83.0</ele><time>2026-04-26T07:36:10.02Z</time></trkpt><trkpt lat="45.0311392" lon="9.1712227"><ele>83.0</ele><time>2026-04-26T07:36:11.02Z</time></trkpt><trkpt lat="45.0310847" lon="9.1711047"><ele>83.0</ele><time>2026-04-26T07:36:12.021Z</time></trkpt><trkpt lat="45.0310216" lon="9.1709771"><ele>83.0</ele><time>2026-04-26T07:36:13.021Z</time></trkpt><trkpt lat="45.0309611" lon="9.1708509"><ele>83.0</ele><time>2026-04-26T07:36:14.021Z</time></trkpt><trkpt lat="45.0308977" lon="9.1707242"><ele>83.0</ele><time>2026-04-26T07:36:15.02Z</time></trkpt><trkpt lat="45.0308362" lon="9.1705936"><ele>83.0</ele><time>2026-04-26T07:36:16.021Z</time></trkpt><trkpt lat="45.0307751" lon="9.1704496"><ele>83.0</ele><time>2026-04-26T07:36:17.02Z</time></trkpt><trkpt lat="45.0307105" lon="9.1703034"><ele>83.25</ele><time>2026-04-26T07:36:18.02Z</time></trkpt><trkpt lat="45.0306399" lon="9.1701571"><ele>83.5</ele><time>2026-04-26T07:36:19.021Z</time></trkpt><trkpt lat="45.0305655" lon="9.1700136"><ele>83.75</ele><time>2026-04-26T07:36:20.021Z</time></trkpt><trkpt lat="45.0305027" lon="9.1698613"><ele>84.0</ele><time>2026-04-26T07:36:21.021Z</time></trkpt><trkpt lat="45.0304409" lon="9.169702"><ele>83.5</ele><time>2026-04-26T07:36:22.02Z</time></trkpt><trkpt lat="45.030378" lon="9.1695377"><ele>83.0</ele><time>2026-04-26T07:36:23.02Z</time></trkpt><trkpt lat="45.0303087" lon="9.1693678"><ele>82.5</ele><time>2026-04-26T07:36:24.021Z</time></trkpt><trkpt lat="45.0302349" lon="9.1692017"><ele>82.0</ele><time>2026-04-26T07:36:25.021Z</time></trkpt><trkpt lat="45.0301658" lon="9.169037"><ele>82.0</ele><time>2026-04-26T07:36:26.021Z</time></trkpt><trkpt lat="45.0301021" lon="9.1688715"><ele>82.0</ele><time>2026-04-26T07:36:27.021Z</time></trkpt><trkpt lat="45.0300383" lon="9.1687075"><ele>82.0</ele><time>2026-04-26T07:36:28.021Z</time></trkpt><trkpt lat="45.0299695" lon="9.1685462"><ele>82.0</ele><time>2026-04-26T07:36:29.021Z</time></trkpt><trkpt lat="45.0298957" lon="9.1683768"><ele>82.25</ele><time>2026-04-26T07:36:30.021Z</time></trkpt><trkpt lat="45.0298182" lon="9.1682042"><ele>82.5</ele><time>2026-04-26T07:36:31.02Z</time></trkpt><trkpt lat="45.0297413" lon="9.1680343"><ele>82.75</ele><time>2026-04-26T07:36:32.02Z</time></trkpt><trkpt lat="45.0296696" lon="9.1678695"><ele>83.0</ele><time>2026-04-26T07:36:33.02Z</time></trkpt><trkpt lat="45.0295943" lon="9.1677059"><ele>83.0</ele><time>2026-04-26T07:36:34.02Z</time></trkpt><trkpt lat="45.0295208" lon="9.1675438"><ele>83.0</ele><time>2026-04-26T07:36:35.02Z</time></trkpt><trkpt lat="45.029449" lon="9.167381"><ele>83.0</ele><time>2026-04-26T07:36:36.02Z</time></trkpt><trkpt lat="45.029371" lon="9.1672126"><ele>83.0</ele><time>2026-04-26T07:36:37.021Z</time></trkpt><trkpt lat="45.0292972" lon="9.1670352"><ele>83.0</ele><time>2026-04-26T07:36:38.02Z</time></trkpt><trkpt lat="45.0292224" lon="9.1668581"><ele>83.0</ele><time>2026-04-26T07:36:39.021Z</time></trkpt><trkpt lat="45.0291526" lon="9.1666837"><ele>83.0</ele><time>2026-04-26T07:36:40.02Z</time></trkpt><trkpt lat="45.0290813" lon="9.1665209"><ele>83.0</ele><time>2026-04-26T07:36:41.021Z</time></trkpt><trkpt lat="45.029001" lon="9.1663514"><ele>85.0</ele><time>2026-04-26T07:36:42.021Z</time></trkpt><trkpt lat="45.0289193" lon="9.1661675"><ele>87.0</ele><time>2026-04-26T07:36:43.021Z</time></trkpt><trkpt lat="45.0288386" lon="9.1659847"><ele>89.0</ele><time>2026-04-26T07:36:44.021Z</time></trkpt><trkpt lat="45.0287544" lon="9.1658038"><ele>88.0</ele><time>2026-04-26T07:36:45.02Z</time></trkpt><trkpt lat="45.0286706" lon="9.1656242"><ele>87.0</ele><time>2026-04-26T07:36:46.021Z</time></trkpt><trkpt lat="45.0285898" lon="9.1654462"><ele>86.0</ele><time>2026-04-26T07:36:47.02Z</time></trkpt><trkpt lat="45.0285107" lon="9.1652633"><ele>86.0</ele><time>2026-04-26T07:36:48.02Z</time></trkpt><trkpt lat="45.0284256" lon="9.1650872"><ele>86.0</ele><time>2026-04-26T07:36:49.021Z</time></trkpt><trkpt lat="45.0283417" lon="9.1649055"><ele>86.0</ele><time>2026-04-26T07:36:50.021Z</time></trkpt><trkpt lat="45.0282571" lon="9.1647208"><ele>86.25</ele><time>2026-04-26T07:36:51.021Z</time></trkpt><trkpt lat="45.0281797" lon="9.1645436"><ele>86.5</ele><time>2026-04-26T07:36:52.02Z</time></trkpt><trkpt lat="45.0281058" lon="9.1643742"><ele>86.75</ele><time>2026-04-26T07:36:53.02Z</time></trkpt><trkpt lat="45.0280326" lon="9.1642003"><ele>87.0</ele><time>2026-04-26T07:36:54.02Z</time></trkpt><trkpt lat="45.0279557" lon="9.1640252"><ele>87.5</ele><time>2026-04-26T07:36:55.021Z</time></trkpt><trkpt lat="45.0278827" lon="9.1638502"><ele>88.0</ele><time>2026-04-26T07:36:56.02Z</time></trkpt><trkpt lat="45.0278044" lon="9.1636834"><ele>88.5</ele><time>2026-04-26T07:36:57.02Z</time></trkpt><trkpt lat="45.0277315" lon="9.1635062"><ele>89.0</ele><time>2026-04-26T07:36:58.021Z</time></trkpt><trkpt lat="45.0276495" lon="9.1633276"><ele>88.66666666666667</ele><time>2026-04-26T07:36:59.021Z</time></trkpt><trkpt lat="45.0275642" lon="9.1631515"><ele>88.33333333333333</ele><time>2026-04-26T07:37:00.02Z</time></trkpt><trkpt lat="45.027484" lon="9.1629682"><ele>88.0</ele><time>2026-04-26T07:37:01.02Z</time></trkpt><trkpt lat="45.0274066" lon="9.1627815"><ele>88.0</ele><time>2026-04-26T07:37:02.021Z</time></trkpt><trkpt lat="45.0273365" lon="9.1625972"><ele>88.0</ele><time>2026-04-26T07:37:03.021Z</time></trkpt><trkpt lat="45.0272711" lon="9.1624226"><ele>88.0</ele><time>2026-04-26T07:37:04.02Z</time></trkpt><trkpt lat="45.0272086" lon="9.1622482"><ele>88.0</ele><time>2026-04-26T07:37:05.02Z</time></trkpt><trkpt lat="45.0271518" lon="9.1620711"><ele>87.5</ele><time>2026-04-26T07:37:06.02Z</time></trkpt><trkpt lat="45.0270941" lon="9.1618919"><ele>87.0</ele><time>2026-04-26T07:37:07.02Z</time></trkpt><trkpt lat="45.027038" lon="9.161712"><ele>86.5</ele><time>2026-04-26T07:37:08.021Z</time></trkpt><trkpt lat="45.0269898" lon="9.1615266"><ele>86.0</ele><time>2026-04-26T07:37:09.021Z</time></trkpt><trkpt lat="45.0269408" lon="9.1613508"><ele>85.75</ele><time>2026-04-26T07:37:10.021Z</time></trkpt><trkpt lat="45.0268875" lon="9.1611879"><ele>85.5</ele><time>2026-04-26T07:37:11.021Z</time></trkpt><trkpt lat="45.026838" lon="9.1610319"><ele>85.25</ele><time>2026-04-26T07:37:12.021Z</time></trkpt><trkpt lat="45.0267901" lon="9.1608848"><ele>85.0</ele><time>2026-04-26T07:37:13.02Z</time></trkpt><trkpt lat="45.026765" lon="9.1607602"><ele>84.83333333333333</ele><time>2026-04-26T07:37:14.02Z</time></trkpt><trkpt lat="45.0267426" lon="9.1606478"><ele>84.66666666666666</ele><time>2026-04-26T07:37:15.02Z</time></trkpt><trkpt lat="45.0267047" lon="9.1605193"><ele>84.5</ele><time>2026-04-26T07:37:16.021Z</time></trkpt><trkpt lat="45.0267027" lon="9.1603983"><ele>84.33333333333333</ele><time>2026-04-26T07:37:17.02Z</time></trkpt><trkpt lat="45.0267007" lon="9.1602748"><ele>84.16666666666667</ele><time>2026-04-26T07:37:18.02Z</time></trkpt><trkpt lat="45.0266836" lon="9.1601544"><ele>84.0</ele><time>2026-04-26T07:37:19.021Z</time></trkpt><trkpt lat="45.0266445" lon="9.1600401"><ele>85.0</ele><time>2026-04-26T07:37:20.021Z</time></trkpt><trkpt lat="45.0265928" lon="9.1599414"><ele>86.0</ele><time>2026-04-26T07:37:21.021Z</time></trkpt><trkpt lat="45.0265358" lon="9.1598349"><ele>87.0</ele><time>2026-04-26T07:37:22.02Z</time></trkpt><trkpt lat="45.0264867" lon="9.1597163"><ele>88.0</ele><time>2026-04-26T07:37:23.02Z</time></trkpt><trkpt lat="45.0264391" lon="9.1595801"><ele>89.0</ele><time>2026-04-26T07:37:24.02Z</time></trkpt><trkpt lat="45.026396" lon="9.1594371"><ele>89.0</ele><time>2026-04-26T07:37:25.02Z</time></trkpt><trkpt lat="45.0263555" lon="9.1592954"><ele>89.0</ele><time>2026-04-26T07:37:26.021Z</time></trkpt><trkpt lat="45.0263209" lon="9.1591521"><ele>89.0</ele><time>2026-04-26T07:37:27.021Z</time></trkpt><trkpt lat="45.0262812" lon="9.1590087"><ele>89.0</ele><time>2026-04-26T07:37:28.02Z</time></trkpt><trkpt lat="45.0262396" lon="9.1588686"><ele>89.0</ele><time>2026-04-26T07:37:29.02Z</time></trkpt><trkpt lat="45.0261988" lon="9.1587239"><ele>89.25</ele><time>2026-04-26T07:37:30.02Z</time></trkpt><trkpt lat="45.0261554" lon="9.1585701"><ele>89.5</ele><time>2026-04-26T07:37:31.02Z</time></trkpt><trkpt lat="45.0261027" lon="9.1584059"><ele>89.75</ele><time>2026-04-26T07:37:32.021Z</time></trkpt><trkpt lat="45.0260581" lon="9.158236"><ele>90.0</ele><time>2026-04-26T07:37:33.021Z</time></trkpt><trkpt lat="45.0260175" lon="9.1580703"><ele>90.25</ele><time>2026-04-26T07:37:34.02Z</time></trkpt><trkpt lat="45.0259872" lon="9.1579004"><ele>90.5</ele><time>2026-04-26T07:37:35.02Z</time></trkpt><trkpt lat="45.025946" lon="9.1577295"><ele>90.75</ele><time>2026-04-26T07:37:36.021Z</time></trkpt><trkpt lat="45.0259009" lon="9.1575652"><ele>91.0</ele><time>2026-04-26T07:37:37.021Z</time></trkpt><trkpt lat="45.025852" lon="9.1573949"><ele>91.75</ele><time>2026-04-26T07:37:38.02Z</time></trkpt><trkpt lat="45.0258007" lon="9.1572178"><ele>92.5</ele><time>2026-04-26T07:37:39.021Z</time></trkpt><trkpt lat="45.025744" lon="9.1570378"><ele>93.25</ele><time>2026-04-26T07:37:40.021Z</time></trkpt><trkpt lat="45.0256873" lon="9.1568584"><ele>94.0</ele><time>2026-04-26T07:37:41.021Z</time></trkpt><trkpt lat="45.025634" lon="9.156674"><ele>94.25</ele><time>2026-04-26T07:37:42.021Z</time></trkpt><trkpt lat="45.0255841" lon="9.1564871"><ele>94.5</ele><time>2026-04-26T07:37:43.021Z</time></trkpt><trkpt lat="45.0255371" lon="9.1563044"><ele>94.75</ele><time>2026-04-26T07:37:44.021Z</time></trkpt><trkpt lat="45.0254943" lon="9.1561334"><ele>95.0</ele><time>2026-04-26T07:37:45.02Z</time></trkpt><trkpt lat="45.0254489" lon="9.1559677"><ele>95.0</ele><time>2026-04-26T07:37:46.021Z</time></trkpt><trkpt lat="45.025404" lon="9.1558018"><ele>95.0</ele><time>2026-04-26T07:37:47.021Z</time></trkpt><trkpt lat="45.025354" lon="9.1556255"><ele>95.0</ele><time>2026-04-26T07:37:48.02Z</time></trkpt><trkpt lat="45.0253064" lon="9.1554521"><ele>95.0</ele><time>2026-04-26T07:37:49.021Z</time></trkpt><trkpt lat="45.0252569" lon="9.1552764"><ele>94.25</ele><time>2026-04-26T07:37:50.02Z</time></trkpt><trkpt lat="45.0252094" lon="9.1550983"><ele>93.5</ele><time>2026-04-26T07:37:51.021Z</time></trkpt><trkpt lat="45.0251576" lon="9.1549245"><ele>92.75</ele><time>2026-04-26T07:37:52.021Z</time></trkpt><trkpt lat="45.0251067" lon="9.1547483"><ele>92.0</ele><time>2026-04-26T07:37:53.021Z</time></trkpt><trkpt lat="45.0250511" lon="9.1545709"><ele>92.0</ele><time>2026-04-26T07:37:54.02Z</time></trkpt><trkpt lat="45.0249945" lon="9.1543885"><ele>92.0</ele><time>2026-04-26T07:37:55.021Z</time></trkpt><trkpt lat="45.0249387" lon="9.1542045"><ele>92.0</ele><time>2026-04-26T07:37:56.02Z</time></trkpt><trkpt lat="45.0248882" lon="9.154026"><ele>92.0</ele><time>2026-04-26T07:37:57.021Z</time></trkpt><trkpt lat="45.0248346" lon="9.1538401"><ele>91.5</ele><time>2026-04-26T07:37:58.02Z</time></trkpt><trkpt lat="45.0247923" lon="9.1536527"><ele>91.0</ele><time>2026-04-26T07:37:59.02Z</time></trkpt><trkpt lat="45.0247559" lon="9.1534897"><ele>90.5</ele><time>2026-04-26T07:38:00.02Z</time></trkpt><trkpt lat="45.0247112" lon="9.1533222"><ele>90.0</ele><time>2026-04-26T07:38:01.02Z</time></trkpt><trkpt lat="45.0246478" lon="9.153153"><ele>90.0</ele><time>2026-04-26T07:38:02.02Z</time></trkpt><trkpt lat="45.0245876" lon="9.1529746"><ele>90.0</ele><time>2026-04-26T07:38:03.021Z</time></trkpt><trkpt lat="45.0245409" lon="9.1527945"><ele>90.0</ele><time>2026-04-26T07:38:04.021Z</time></trkpt><trkpt lat="45.0244957" lon="9.1526155"><ele>90.0</ele><time>2026-04-26T07:38:05.02Z</time></trkpt><trkpt lat="45.0244448" lon="9.1524405"><ele>90.0</ele><time>2026-04-26T07:38:06.021Z</time></trkpt><trkpt lat="45.024397" lon="9.1522661"><ele>90.0</ele><time>2026-04-26T07:38:07.02Z</time></trkpt><trkpt lat="45.0243514" lon="9.152097"><ele>90.0</ele><time>2026-04-26T07:38:08.021Z</time></trkpt><trkpt lat="45.0243168" lon="9.1519248"><ele>90.0</ele><time>2026-04-26T07:38:09.02Z</time></trkpt><trkpt lat="45.0242789" lon="9.1517543"><ele>90.0</ele><time>2026-04-26T07:38:10.02Z</time></trkpt><trkpt lat="45.0242585" lon="9.1515941"><ele>90.0</ele><time>2026-04-26T07:38:11.02Z</time></trkpt><trkpt lat="45.0242309" lon="9.1514545"><ele>90.0</ele><time>2026-04-26T07:38:12.02Z</time></trkpt><trkpt lat="45.0241983" lon="9.1513218"><ele>90.0</ele><time>2026-04-26T07:38:13.02Z</time></trkpt><trkpt lat="45.0241575" lon="9.1512012"><ele>90.0</ele><time>2026-04-26T07:38:14.021Z</time></trkpt><trkpt lat="45.0241131" lon="9.1510907"><ele>90.0</ele><time>2026-04-26T07:38:15.02Z</time></trkpt><trkpt lat="45.0240809" lon="9.1509773"><ele>90.0</ele><time>2026-04-26T07:38:16.02Z</time></trkpt><trkpt lat="45.0240529" lon="9.1508669"><ele>90.0</ele><time>2026-04-26T07:38:17.02Z</time></trkpt><trkpt lat="45.0240229" lon="9.1507645"><ele>90.0</ele><time>2026-04-26T07:38:18.02Z</time></trkpt><trkpt lat="45.0239882" lon="9.1506648"><ele>90.0</ele><time>2026-04-26T07:38:19.021Z</time></trkpt><trkpt lat="45.0239584" lon="9.1505648"><ele>90.0</ele><time>2026-04-26T07:38:20.021Z</time></trkpt><trkpt lat="45.0239334" lon="9.1504605"><ele>90.0</ele><time>2026-04-26T07:38:21.02Z</time></trkpt><trkpt lat="45.023896" lon="9.1503518"><ele>90.0</ele><time>2026-04-26T07:38:22.02Z</time></trkpt><trkpt lat="45.0238576" lon="9.1502377"><ele>90.0</ele><time>2026-04-26T07:38:23.02Z</time></trkpt><trkpt lat="45.0238202" lon="9.1501156"><ele>90.0</ele><time>2026-04-26T07:38:24.02Z</time></trkpt><trkpt lat="45.0237746" lon="9.1499936"><ele>90.0</ele><time>2026-04-26T07:38:25.021Z</time></trkpt><trkpt lat="45.023735" lon="9.1498616"><ele>89.6</ele><time>2026-04-26T07:38:26.021Z</time></trkpt><trkpt lat="45.0236974" lon="9.1497195"><ele>89.2</ele><time>2026-04-26T07:38:27.021Z</time></trkpt><trkpt lat="45.0236586" lon="9.1495707"><ele>88.80000000000001</ele><time>2026-04-26T07:38:28.02Z</time></trkpt><trkpt lat="45.023621" lon="9.1494261"><ele>88.4</ele><time>2026-04-26T07:38:29.021Z</time></trkpt><trkpt lat="45.0235826" lon="9.1492818"><ele>88.0</ele><time>2026-04-26T07:38:30.02Z</time></trkpt><trkpt lat="45.0235414" lon="9.1491365"><ele>87.75</ele><time>2026-04-26T07:38:31.02Z</time></trkpt><trkpt lat="45.0234984" lon="9.148984"><ele>87.5</ele><time>2026-04-26T07:38:32.021Z</time></trkpt><trkpt lat="45.0234487" lon="9.1488172"><ele>87.25</ele><time>2026-04-26T07:38:33.021Z</time></trkpt><trkpt lat="45.0233911" lon="9.1486453"><ele>87.0</ele><time>2026-04-26T07:38:34.02Z</time></trkpt><trkpt lat="45.0233347" lon="9.1484634"><ele>87.0</ele><time>2026-04-26T07:38:35.02Z</time></trkpt><trkpt lat="45.0232836" lon="9.1482835"><ele>87.0</ele><time>2026-04-26T07:38:36.021Z</time></trkpt><trkpt lat="45.0232319" lon="9.1480948"><ele>87.0</ele><time>2026-04-26T07:38:37.02Z</time></trkpt><trkpt lat="45.0231798" lon="9.147903"><ele>87.0</ele><time>2026-04-26T07:38:38.021Z</time></trkpt><trkpt lat="45.0231266" lon="9.1477093"><ele>86.75</ele><time>2026-04-26T07:38:39.021Z</time></trkpt><trkpt lat="45.0230769" lon="9.1475261"><ele>86.5</ele><time>2026-04-26T07:38:40.021Z</time></trkpt><trkpt lat="45.0230319" lon="9.1473429"><ele>86.25</ele><time>2026-04-26T07:38:41.02Z</time></trkpt><trkpt lat="45.0229833" lon="9.1471624"><ele>86.0</ele><time>2026-04-26T07:38:42.021Z</time></trkpt><trkpt lat="45.0229321" lon="9.1469826"><ele>85.75</ele><time>2026-04-26T07:38:43.021Z</time></trkpt><trkpt lat="45.0228818" lon="9.1467978"><ele>85.5</ele><time>2026-04-26T07:38:44.02Z</time></trkpt><trkpt lat="45.022829" lon="9.1466063"><ele>85.25</ele><time>2026-04-26T07:38:45.02Z</time></trkpt><trkpt lat="45.0227706" lon="9.1464041"><ele>85.0</ele><time>2026-04-26T07:38:46.021Z</time></trkpt><trkpt lat="45.022712" lon="9.1462031"><ele>85.0</ele><time>2026-04-26T07:38:47.021Z</time></trkpt><trkpt lat="45.0226588" lon="9.1459994"><ele>85.0</ele><time>2026-04-26T07:38:48.02Z</time></trkpt><trkpt lat="45.0226055" lon="9.1457911"><ele>85.0</ele><time>2026-04-26T07:38:49.02Z</time></trkpt><trkpt lat="45.0225492" lon="9.1455783"><ele>85.0</ele><time>2026-04-26T07:38:50.021Z</time></trkpt><trkpt lat="45.0224923" lon="9.1453632"><ele>85.0</ele><time>2026-04-26T07:38:51.02Z</time></trkpt><trkpt lat="45.0224291" lon="9.1451438"><ele>85.0</ele><time>2026-04-26T07:38:52.02Z</time></trkpt><trkpt lat="45.0223639" lon="9.1449341"><ele>85.0</ele><time>2026-04-26T07:38:53.021Z</time></trkpt><trkpt lat="45.0222974" lon="9.1447299"><ele>85.0</ele><time>2026-04-26T07:38:54.02Z</time></trkpt><trkpt lat="45.022233" lon="9.1445185"><ele>85.0</ele><time>2026-04-26T07:38:55.02Z</time></trkpt><trkpt lat="45.0221672" lon="9.144304"><ele>85.0</ele><time>2026-04-26T07:38:56.02Z</time></trkpt><trkpt lat="45.0221094" lon="9.144085"><ele>85.0</ele><time>2026-04-26T07:38:57.021Z</time></trkpt><trkpt lat="45.0220486" lon="9.1438583"><ele>85.0</ele><time>2026-04-26T07:38:58.02Z</time></trkpt><trkpt lat="45.0219871" lon="9.1436286"><ele>85.33333333333333</ele><time>2026-04-26T07:38:59.021Z</time></trkpt><trkpt lat="45.0219242" lon="9.143402"><ele>85.66666666666667</ele><time>2026-04-26T07:39:00.02Z</time></trkpt><trkpt lat="45.0218625" lon="9.143174"><ele>86.0</ele><time>2026-04-26T07:39:01.021Z</time></trkpt><trkpt lat="45.0217998" lon="9.1429436"><ele>86.0</ele><time>2026-04-26T07:39:02.021Z</time></trkpt><trkpt lat="45.0217266" lon="9.1427147"><ele>86.0</ele><time>2026-04-26T07:39:03.02Z</time></trkpt><trkpt lat="45.0216616" lon="9.1424827"><ele>86.0</ele><time>2026-04-26T07:39:04.02Z</time></trkpt><trkpt lat="45.0216027" lon="9.1422545"><ele>85.0</ele><time>2026-04-26T07:39:05.021Z</time></trkpt><trkpt lat="45.0215482" lon="9.1420297"><ele>84.0</ele><time>2026-04-26T07:39:06.02Z</time></trkpt><trkpt lat="45.0214839" lon="9.1418055"><ele>83.0</ele><time>2026-04-26T07:39:07.02Z</time></trkpt><trkpt lat="45.0214176" lon="9.1415776"><ele>83.33333333333334</ele><time>2026-04-26T07:39:08.021Z</time></trkpt><trkpt lat="45.0213583" lon="9.1413452"><ele>83.66666666666667</ele><time>2026-04-26T07:39:09.021Z</time></trkpt><trkpt lat="45.0213029" lon="9.141119"><ele>84.0</ele><time>2026-04-26T07:39:10.021Z</time></trkpt><trkpt lat="45.02125" lon="9.1408915"><ele>84.0</ele><time>2026-04-26T07:39:11.021Z</time></trkpt><trkpt lat="45.021194" lon="9.1406561"><ele>84.0</ele><time>2026-04-26T07:39:12.021Z</time></trkpt><trkpt lat="45.0211387" lon="9.140427"><ele>84.0</ele><time>2026-04-26T07:39:13.021Z</time></trkpt><trkpt lat="45.0210821" lon="9.1401942"><ele>84.0</ele><time>2026-04-26T07:39:14.021Z</time></trkpt><trkpt lat="45.0210203" lon="9.1399607"><ele>84.0</ele><time>2026-04-26T07:39:15.021Z</time></trkpt><trkpt lat="45.0209529" lon="9.1397217"><ele>84.0</ele><time>2026-04-26T07:39:16.021Z</time></trkpt><trkpt lat="45.0208854" lon="9.139492"><ele>84.0</ele><time>2026-04-26T07:39:17.02Z</time></trkpt><trkpt lat="45.020823" lon="9.1392806"><ele>84.0</ele><time>2026-04-26T07:39:18.02Z</time></trkpt><trkpt lat="45.0207668" lon="9.1390952"><ele>84.0</ele><time>2026-04-26T07:39:19.021Z</time></trkpt><trkpt lat="45.0207145" lon="9.1389151"><ele>84.0</ele><time>2026-04-26T07:39:20.021Z</time></trkpt><trkpt lat="45.0206578" lon="9.1387289"><ele>84.5</ele><time>2026-04-26T07:39:21.02Z</time></trkpt><trkpt lat="45.0206006" lon="9.1385386"><ele>85.0</ele><time>2026-04-26T07:39:22.02Z</time></trkpt><trkpt lat="45.0205436" lon="9.1383455"><ele>85.5</ele><time>2026-04-26T07:39:23.021Z</time></trkpt><trkpt lat="45.0204868" lon="9.1381453"><ele>86.0</ele><time>2026-04-26T07:39:24.02Z</time></trkpt><trkpt lat="45.0204249" lon="9.137938"><ele>86.33333333333334</ele><time>2026-04-26T07:39:25.02Z</time></trkpt><trkpt lat="45.0203651" lon="9.1377216"><ele>86.66666666666667</ele><time>2026-04-26T07:39:26.021Z</time></trkpt><trkpt lat="45.0203059" lon="9.1375076"><ele>87.0</ele><time>2026-04-26T07:39:27.021Z</time></trkpt><trkpt lat="45.0202427" lon="9.137292"><ele>87.0</ele><time>2026-04-26T07:39:28.02Z</time></trkpt><trkpt lat="45.0201772" lon="9.1370738"><ele>87.0</ele><time>2026-04-26T07:39:29.021Z</time></trkpt><trkpt lat="45.0200877" lon="9.1368675"><ele>87.0</ele><time>2026-04-26T07:39:30.02Z</time></trkpt><trkpt lat="45.0199891" lon="9.1366566"><ele>87.0</ele><time>2026-04-26T07:39:31.021Z</time></trkpt><trkpt lat="45.0198961" lon="9.1364466"><ele>87.0</ele><time>2026-04-26T07:39:32.02Z</time></trkpt><trkpt lat="45.0198011" lon="9.1362333"><ele>87.0</ele><time>2026-04-26T07:39:33.021Z</time></trkpt><trkpt lat="45.0197043" lon="9.1360058"><ele>87.0</ele><time>2026-04-26T07:39:34.021Z</time></trkpt><trkpt lat="45.0196019" lon="9.1357901"><ele>87.0</ele><time>2026-04-26T07:39:35.021Z</time></trkpt><trkpt lat="45.0194718" lon="9.1355754"><ele>87.0</ele><time>2026-04-26T07:39:36.02Z</time></trkpt><trkpt lat="45.0193517" lon="9.1353805"><ele>87.0</ele><time>2026-04-26T07:39:37.021Z</time></trkpt><trkpt lat="45.0192227" lon="9.1351899"><ele>87.0</ele><time>2026-04-26T07:39:38.021Z</time></trkpt><trkpt lat="45.0191005" lon="9.1350083"><ele>87.0</ele><time>2026-04-26T07:39:39.021Z</time></trkpt><trkpt lat="45.018978" lon="9.1348239"><ele>87.0</ele><time>2026-04-26T07:39:40.02Z</time></trkpt><trkpt lat="45.0188625" lon="9.1346366"><ele>87.0</ele><time>2026-04-26T07:39:41.021Z</time></trkpt><trkpt lat="45.018768" lon="9.1344712"><ele>87.0</ele><time>2026-04-26T07:39:42.021Z</time></trkpt><trkpt lat="45.0186701" lon="9.1343103"><ele>87.0</ele><time>2026-04-26T07:39:43.021Z</time></trkpt><trkpt lat="45.0185686" lon="9.1341459"><ele>87.0</ele><time>2026-04-26T07:39:44.021Z</time></trkpt><trkpt lat="45.01846" lon="9.133973"><ele>87.0</ele><time>2026-04-26T07:39:45.021Z</time></trkpt><trkpt lat="45.0183521" lon="9.1338055"><ele>87.5</ele><time>2026-04-26T07:39:46.021Z</time></trkpt><trkpt lat="45.0182482" lon="9.1336481"><ele>88.0</ele><time>2026-04-26T07:39:47.021Z</time></trkpt><trkpt lat="45.0181533" lon="9.1334943"><ele>88.5</ele><time>2026-04-26T07:39:48.021Z</time></trkpt><trkpt lat="45.018072" lon="9.1333572"><ele>89.0</ele><time>2026-04-26T07:39:49.02Z</time></trkpt><trkpt lat="45.0179985" lon="9.1332267"><ele>88.83333333333334</ele><time>2026-04-26T07:39:50.02Z</time></trkpt><trkpt lat="45.01794" lon="9.1331153"><ele>88.66666666666667</ele><time>2026-04-26T07:39:51.021Z</time></trkpt><trkpt lat="45.0178828" lon="9.1330059"><ele>88.5</ele><time>2026-04-26T07:39:52.021Z</time></trkpt><trkpt lat="45.0178441" lon="9.1329066"><ele>88.33333333333333</ele><time>2026-04-26T07:39:53.021Z</time></trkpt><trkpt lat="45.0178165" lon="9.132813"><ele>88.16666666666666</ele><time>2026-04-26T07:39:54.02Z</time></trkpt><trkpt lat="45.0178024" lon="9.1326764"><ele>88.0</ele><time>2026-04-26T07:39:56.021Z</time></trkpt><trkpt lat="45.01782" lon="9.1325565"><ele>88.0</ele><time>2026-04-26T07:39:58.021Z</time></trkpt><trkpt lat="45.0178074" lon="9.132414"><ele>88.0</ele><time>2026-04-26T07:40:00.02Z</time></trkpt><trkpt lat="45.0177409" lon="9.1322809"><ele>88.0</ele><time>2026-04-26T07:40:02.021Z</time></trkpt><trkpt lat="45.0176042" lon="9.1322397"><ele>88.0</ele><time>2026-04-26T07:40:04.021Z</time></trkpt><trkpt lat="45.0175188" lon="9.1322293"><ele>88.0</ele><time>2026-04-26T07:40:05.021Z</time></trkpt><trkpt lat="45.0174288" lon="9.1321978"><ele>88.2</ele><time>2026-04-26T07:40:06.02Z</time></trkpt><trkpt lat="45.0173487" lon="9.1321373"><ele>88.4</ele><time>2026-04-26T07:40:07.021Z</time></trkpt><trkpt lat="45.0172704" lon="9.1320511"><ele>88.60000000000001</ele><time>2026-04-26T07:40:08.02Z</time></trkpt><trkpt lat="45.0171956" lon="9.1319521"><ele>88.80000000000001</ele><time>2026-04-26T07:40:09.02Z</time></trkpt><trkpt lat="45.017126" lon="9.1318553"><ele>89.0</ele><time>2026-04-26T07:40:10.021Z</time></trkpt><trkpt lat="45.0170638" lon="9.1317497"><ele>89.0</ele><time>2026-04-26T07:40:11.02Z</time></trkpt><trkpt lat="45.0170093" lon="9.1316466"><ele>89.0</ele><time>2026-04-26T07:40:12.02Z</time></trkpt><trkpt lat="45.0169524" lon="9.1315351"><ele>89.0</ele><time>2026-04-26T07:40:13.02Z</time></trkpt><trkpt lat="45.0168948" lon="9.131427"><ele>89.0</ele><time>2026-04-26T07:40:14.02Z</time></trkpt><trkpt lat="45.0168408" lon="9.1313353"><ele>89.0</ele><time>2026-04-26T07:40:15.02Z</time></trkpt><trkpt lat="45.0167923" lon="9.1312473"><ele>89.0</ele><time>2026-04-26T07:40:16.021Z</time></trkpt><trkpt lat="45.0167513" lon="9.1311626"><ele>89.0</ele><time>2026-04-26T07:40:17.02Z</time></trkpt><trkpt lat="45.0167144" lon="9.1310754"><ele>89.0</ele><time>2026-04-26T07:40:18.02Z</time></trkpt><trkpt lat="45.0166722" lon="9.1309893"><ele>89.0</ele><time>2026-04-26T07:40:19.02Z</time></trkpt><trkpt lat="45.0166294" lon="9.1309057"><ele>89.0</ele><time>2026-04-26T07:40:20.021Z</time></trkpt><trkpt lat="45.0165824" lon="9.1308096"><ele>89.0</ele><time>2026-04-26T07:40:21.02Z</time></trkpt><trkpt lat="45.0165409" lon="9.1307095"><ele>89.0</ele><time>2026-04-26T07:40:22.02Z</time></trkpt><trkpt lat="45.0165088" lon="9.1305961"><ele>89.0</ele><time>2026-04-26T07:40:23.021Z</time></trkpt><trkpt lat="45.0164883" lon="9.1304774"><ele>89.0</ele><time>2026-04-26T07:40:24.021Z</time></trkpt><trkpt lat="45.0164709" lon="9.1303655"><ele>89.0</ele><time>2026-04-26T07:40:25.02Z</time></trkpt><trkpt lat="45.0164569" lon="9.1302743"><ele>89.0</ele><time>2026-04-26T07:40:26.021Z</time></trkpt><trkpt lat="45.0164364" lon="9.1301889"><ele>89.0</ele><time>2026-04-26T07:40:27.021Z</time></trkpt><trkpt lat="45.0164119" lon="9.130106"><ele>89.0</ele><time>2026-04-26T07:40:28.02Z</time></trkpt><trkpt lat="45.0163839" lon="9.1299621"><ele>89.16666666666667</ele><time>2026-04-26T07:40:30.02Z</time></trkpt><trkpt lat="45.0163751" lon="9.1298728"><ele>89.33333333333334</ele><time>2026-04-26T07:40:33.021Z</time></trkpt><trkpt lat="45.0163376" lon="9.1297876"><ele>89.5</ele><time>2026-04-26T07:40:42.021Z</time></trkpt><trkpt lat="45.0163071" lon="9.1296786"><ele>89.66666666666667</ele><time>2026-04-26T07:40:45.02Z</time></trkpt><trkpt lat="45.0163" lon="9.1295685"><ele>89.83333333333333</ele><time>2026-04-26T07:40:48.02Z</time></trkpt><trkpt lat="45.0162563" lon="9.1294748"><ele>90.0</ele><time>2026-04-26T07:41:04.021Z</time></trkpt><trkpt lat="45.0162456" lon="9.129354"><ele>90.0</ele><time>2026-04-26T07:41:06.02Z</time></trkpt><trkpt lat="45.0162159" lon="9.1291957"><ele>90.0</ele><time>2026-04-26T07:41:08.02Z</time></trkpt><trkpt lat="45.016204" lon="9.1290984"><ele>90.0</ele><time>2026-04-26T07:41:09.02Z</time></trkpt><trkpt lat="45.0161938" lon="9.1289841"><ele>90.0</ele><time>2026-04-26T07:41:10.02Z</time></trkpt><trkpt lat="45.0161951" lon="9.1288699"><ele>90.0</ele><time>2026-04-26T07:41:11.021Z</time></trkpt><trkpt lat="45.0161976" lon="9.1287632"><ele>90.0</ele><time>2026-04-26T07:41:12.021Z</time></trkpt><trkpt lat="45.0161958" lon="9.1286725"><ele>90.2</ele><time>2026-04-26T07:41:13.021Z</time></trkpt><trkpt lat="45.0161761" lon="9.1285309"><ele>90.4</ele><time>2026-04-26T07:41:15.021Z</time></trkpt><trkpt lat="45.0161244" lon="9.1284663"><ele>90.6</ele><time>2026-04-26T07:41:17.02Z</time></trkpt><trkpt lat="45.0160359" lon="9.1284987"><ele>90.8</ele><time>2026-04-26T07:41:19.019Z</time></trkpt><trkpt lat="45.015923" lon="9.1285214"><ele>91.0</ele><time>2026-04-26T07:41:21.019Z</time></trkpt><trkpt lat="45.0158274" lon="9.1285049"><ele>91.19999999999999</ele><time>2026-04-26T07:41:23.019Z</time></trkpt><trkpt lat="45.0157327" lon="9.1284964"><ele>91.39999999999999</ele><time>2026-04-26T07:41:25.019Z</time></trkpt><trkpt lat="45.0156336" lon="9.128514"><ele>91.6</ele><time>2026-04-26T07:41:27.02Z</time></trkpt><trkpt lat="45.0155385" lon="9.128509"><ele>91.8</ele><time>2026-04-26T07:41:29.02Z</time></trkpt><trkpt lat="45.0154193" lon="9.1284604"><ele>92.0</ele><time>2026-04-26T07:41:31.02Z</time></trkpt><trkpt lat="45.0153499" lon="9.1284195"><ele>92.0</ele><time>2026-04-26T07:41:32.02Z</time></trkpt><trkpt lat="45.0152752" lon="9.1283761"><ele>92.0</ele><time>2026-04-26T07:41:33.019Z</time></trkpt><trkpt lat="45.0151996" lon="9.1283274"><ele>92.0</ele><time>2026-04-26T07:41:34.02Z</time></trkpt><trkpt lat="45.0151225" lon="9.1282779"><ele>92.0</ele><time>2026-04-26T07:41:35.02Z</time></trkpt><trkpt lat="45.0150463" lon="9.1282168"><ele>92.0</ele><time>2026-04-26T07:41:36.019Z</time></trkpt><trkpt lat="45.0149702" lon="9.1281499"><ele>92.0</ele><time>2026-04-26T07:41:37.019Z</time></trkpt><trkpt lat="45.0148945" lon="9.1280753"><ele>92.6</ele><time>2026-04-26T07:41:38.019Z</time></trkpt><trkpt lat="45.0148153" lon="9.1279991"><ele>93.19999999999999</ele><time>2026-04-26T07:41:39.02Z</time></trkpt><trkpt lat="45.0147266" lon="9.1279299"><ele>93.8</ele><time>2026-04-26T07:41:40.019Z</time></trkpt><trkpt lat="45.0146374" lon="9.1278669"><ele>94.4</ele><time>2026-04-26T07:41:41.02Z</time></trkpt><trkpt lat="45.0145432" lon="9.1278102"><ele>95.0</ele><time>2026-04-26T07:41:42.02Z</time></trkpt><trkpt lat="45.0144553" lon="9.1277568"><ele>95.0</ele><time>2026-04-26T07:41:43.019Z</time></trkpt><trkpt lat="45.0143695" lon="9.1277118"><ele>95.0</ele><time>2026-04-26T07:41:44.019Z</time></trkpt><trkpt lat="45.0142861" lon="9.1276932"><ele>95.0</ele><time>2026-04-26T07:41:45.02Z</time></trkpt><trkpt lat="45.0141869" lon="9.1276904"><ele>95.0</ele><time>2026-04-26T07:41:46.019Z</time></trkpt><trkpt lat="45.0140729" lon="9.1276876"><ele>95.0</ele><time>2026-04-26T07:41:47.02Z</time></trkpt><trkpt lat="45.0139448" lon="9.1276876"><ele>96.25</ele><time>2026-04-26T07:41:48.019Z</time></trkpt><trkpt lat="45.0138012" lon="9.1276842"><ele>97.5</ele><time>2026-04-26T07:41:49.019Z</time></trkpt><trkpt lat="45.01368" lon="9.127646"><ele>98.75</ele><time>2026-04-26T07:41:50.019Z</time></trkpt><trkpt lat="45.0135606" lon="9.1275764"><ele>100.0</ele><time>2026-04-26T07:41:51.02Z</time></trkpt><trkpt lat="45.013442" lon="9.1275155"><ele>100.0</ele><time>2026-04-26T07:41:52.02Z</time></trkpt><trkpt lat="45.0133347" lon="9.1274819"><ele>100.0</ele><time>2026-04-26T07:41:53.02Z</time></trkpt><trkpt lat="45.0132272" lon="9.1274757"><ele>100.0</ele><time>2026-04-26T07:41:54.02Z</time></trkpt><trkpt lat="45.013122" lon="9.1274756"><ele>100.0</ele><time>2026-04-26T07:41:55.02Z</time></trkpt><trkpt lat="45.0130073" lon="9.1274776"><ele>100.0</ele><time>2026-04-26T07:41:56.02Z</time></trkpt><trkpt lat="45.0128997" lon="9.1274635"><ele>101.5</ele><time>2026-04-26T07:41:57.02Z</time></trkpt><trkpt lat="45.0127891" lon="9.1274421"><ele>103.0</ele><time>2026-04-26T07:41:58.02Z</time></trkpt><trkpt lat="45.0126784" lon="9.1274427"><ele>104.5</ele><time>2026-04-26T07:41:59.019Z</time></trkpt><trkpt lat="45.012559" lon="9.1274532"><ele>106.0</ele><time>2026-04-26T07:42:00.019Z</time></trkpt><trkpt lat="45.012439" lon="9.127459"><ele>106.5</ele><time>2026-04-26T07:42:01.02Z</time></trkpt><trkpt lat="45.0123143" lon="9.1274667"><ele>107.0</ele><time>2026-04-26T07:42:02.02Z</time></trkpt><trkpt lat="45.0121866" lon="9.1274596"><ele>107.5</ele><time>2026-04-26T07:42:03.02Z</time></trkpt><trkpt lat="45.0120702" lon="9.1274512"><ele>108.0</ele><time>2026-04-26T07:42:04.019Z</time></trkpt><trkpt lat="45.0119475" lon="9.1274112"><ele>111.5</ele><time>2026-04-26T07:42:05.02Z</time></trkpt><trkpt lat="45.0118205" lon="9.127362"><ele>115.0</ele><time>2026-04-26T07:42:06.019Z</time></trkpt><trkpt lat="45.0116963" lon="9.1273274"><ele>118.5</ele><time>2026-04-26T07:42:07.02Z</time></trkpt><trkpt lat="45.011589" lon="9.1273178"><ele>122.0</ele><time>2026-04-26T07:42:08.019Z</time></trkpt><trkpt lat="45.0114826" lon="9.1273212"><ele>122.25</ele><time>2026-04-26T07:42:09.019Z</time></trkpt><trkpt lat="45.0113762" lon="9.1273378"><ele>122.5</ele><time>2026-04-26T07:42:10.02Z</time></trkpt><trkpt lat="45.011257" lon="9.1273574"><ele>122.75</ele><time>2026-04-26T07:42:11.019Z</time></trkpt><trkpt lat="45.0111355" lon="9.1273772"><ele>123.0</ele><time>2026-04-26T07:42:12.019Z</time></trkpt><trkpt lat="45.0110087" lon="9.1274032"><ele>120.75</ele><time>2026-04-26T07:42:13.02Z</time></trkpt><trkpt lat="45.0108774" lon="9.1274356"><ele>118.5</ele><time>2026-04-26T07:42:14.02Z</time></trkpt><trkpt lat="45.0107428" lon="9.1274706"><ele>116.25</ele><time>2026-04-26T07:42:15.02Z</time></trkpt><trkpt lat="45.0106096" lon="9.127502"><ele>114.0</ele><time>2026-04-26T07:42:16.02Z</time></trkpt><trkpt lat="45.0104745" lon="9.1275307"><ele>114.0</ele><time>2026-04-26T07:42:17.02Z</time></trkpt><trkpt lat="45.010334" lon="9.1275595"><ele>114.0</ele><time>2026-04-26T07:42:18.019Z</time></trkpt><trkpt lat="45.0102026" lon="9.1275922"><ele>114.0</ele><time>2026-04-26T07:42:19.02Z</time></trkpt><trkpt lat="45.0100692" lon="9.1276225"><ele>114.0</ele><time>2026-04-26T07:42:20.019Z</time></trkpt><trkpt lat="45.0099159" lon="9.1276509"><ele>114.75</ele><time>2026-04-26T07:42:21.02Z</time></trkpt><trkpt lat="45.0097701" lon="9.1276874"><ele>115.5</ele><time>2026-04-26T07:42:22.019Z</time></trkpt><trkpt lat="45.0096306" lon="9.12772"><ele>116.25</ele><time>2026-04-26T07:42:23.02Z</time></trkpt><trkpt lat="45.0094985" lon="9.1277552"><ele>117.0</ele><time>2026-04-26T07:42:24.02Z</time></trkpt><trkpt lat="45.0093669" lon="9.1277829"><ele>117.0</ele><time>2026-04-26T07:42:25.019Z</time></trkpt><trkpt lat="45.0092396" lon="9.1278315"><ele>117.0</ele><time>2026-04-26T07:42:26.02Z</time></trkpt><trkpt lat="45.009127" lon="9.1279086"><ele>117.0</ele><time>2026-04-26T07:42:27.02Z</time></trkpt><trkpt lat="45.0090295" lon="9.1280204"><ele>117.0</ele><time>2026-04-26T07:42:28.02Z</time></trkpt><trkpt lat="45.0089353" lon="9.1281954"><ele>117.0</ele><time>2026-04-26T07:42:29.019Z</time></trkpt><trkpt lat="45.0088523" lon="9.1283728"><ele>117.0</ele><time>2026-04-26T07:42:30.02Z</time></trkpt><trkpt lat="45.0087693" lon="9.1285315"><ele>117.0</ele><time>2026-04-26T07:42:31.019Z</time></trkpt><trkpt lat="45.0086808" lon="9.1286705"><ele>117.0</ele><time>2026-04-26T07:42:32.019Z</time></trkpt><trkpt lat="45.0085953" lon="9.128808"><ele>117.0</ele><time>2026-04-26T07:42:33.02Z</time></trkpt><trkpt lat="45.0085058" lon="9.1289313"><ele>117.0</ele><time>2026-04-26T07:42:34.02Z</time></trkpt><trkpt lat="45.0084202" lon="9.1290555"><ele>117.0</ele><time>2026-04-26T07:42:35.019Z</time></trkpt><trkpt lat="45.0083411" lon="9.129177"><ele>117.0</ele><time>2026-04-26T07:42:36.019Z</time></trkpt><trkpt lat="45.0082505" lon="9.1293036"><ele>119.25</ele><time>2026-04-26T07:42:37.019Z</time></trkpt><trkpt lat="45.0081553" lon="9.1294247"><ele>121.5</ele><time>2026-04-26T07:42:38.019Z</time></trkpt><trkpt lat="45.0080633" lon="9.1295501"><ele>123.75</ele><time>2026-04-26T07:42:39.019Z</time></trkpt><trkpt lat="45.0079758" lon="9.1296931"><ele>126.0</ele><time>2026-04-26T07:42:40.019Z</time></trkpt><trkpt lat="45.0078827" lon="9.1298348"><ele>122.75</ele><time>2026-04-26T07:42:41.02Z</time></trkpt><trkpt lat="45.0077985" lon="9.1299856"><ele>119.5</ele><time>2026-04-26T07:42:42.019Z</time></trkpt><trkpt lat="45.0077074" lon="9.1301315"><ele>116.25</ele><time>2026-04-26T07:42:43.02Z</time></trkpt><trkpt lat="45.0076145" lon="9.1302649"><ele>113.0</ele><time>2026-04-26T07:42:44.019Z</time></trkpt><trkpt lat="45.007529" lon="9.1303895"><ele>113.25</ele><time>2026-04-26T07:42:45.02Z</time></trkpt><trkpt lat="45.0074476" lon="9.1305175"><ele>113.5</ele><time>2026-04-26T07:42:46.02Z</time></trkpt><trkpt lat="45.007366" lon="9.1306366"><ele>113.75</ele><time>2026-04-26T07:42:47.02Z</time></trkpt><trkpt lat="45.0072871" lon="9.1307554"><ele>114.0</ele><time>2026-04-26T07:42:48.019Z</time></trkpt><trkpt lat="45.0071993" lon="9.1308728"><ele>114.0</ele><time>2026-04-26T07:42:49.019Z</time></trkpt><trkpt lat="45.0071168" lon="9.1309833"><ele>114.0</ele><time>2026-04-26T07:42:50.019Z</time></trkpt><trkpt lat="45.0070403" lon="9.1311008"><ele>114.0</ele><time>2026-04-26T07:42:51.019Z</time></trkpt><trkpt lat="45.0069611" lon="9.1312138"><ele>114.0</ele><time>2026-04-26T07:42:52.02Z</time></trkpt><trkpt lat="45.0068715" lon="9.1313294"><ele>114.0</ele><time>2026-04-26T07:42:53.02Z</time></trkpt><trkpt lat="45.0067867" lon="9.131446"><ele>114.0</ele><time>2026-04-26T07:42:54.02Z</time></trkpt><trkpt lat="45.0067016" lon="9.1315715"><ele>114.0</ele><time>2026-04-26T07:42:55.019Z</time></trkpt><trkpt lat="45.0066213" lon="9.13169"><ele>114.0</ele><time>2026-04-26T07:42:56.02Z</time></trkpt><trkpt lat="45.00654" lon="9.1318162"><ele>114.5</ele><time>2026-04-26T07:42:57.019Z</time></trkpt><trkpt lat="45.0064584" lon="9.1319516"><ele>115.0</ele><time>2026-04-26T07:42:58.02Z</time></trkpt><trkpt lat="45.0063814" lon="9.1320804"><ele>115.5</ele><time>2026-04-26T07:42:59.02Z</time></trkpt><trkpt lat="45.006305" lon="9.1322028"><ele>116.0</ele><time>2026-04-26T07:43:00.02Z</time></trkpt><trkpt lat="45.0062275" lon="9.1323274"><ele>114.5</ele><time>2026-04-26T07:43:01.019Z</time></trkpt><trkpt lat="45.0061482" lon="9.1324531"><ele>113.0</ele><time>2026-04-26T07:43:02.02Z</time></trkpt><trkpt lat="45.0060671" lon="9.1325691"><ele>111.5</ele><time>2026-04-26T07:43:03.019Z</time></trkpt><trkpt lat="45.0059806" lon="9.1326847"><ele>110.0</ele><time>2026-04-26T07:43:04.019Z</time></trkpt><trkpt lat="45.0058925" lon="9.132808"><ele>110.0</ele><time>2026-04-26T07:43:05.019Z</time></trkpt><trkpt lat="45.0058089" lon="9.1329256"><ele>110.0</ele><time>2026-04-26T07:43:06.02Z</time></trkpt><trkpt lat="45.0057266" lon="9.1330455"><ele>110.0</ele><time>2026-04-26T07:43:07.02Z</time></trkpt><trkpt lat="45.0056422" lon="9.133165"><ele>110.0</ele><time>2026-04-26T07:43:08.02Z</time></trkpt><trkpt lat="45.0055547" lon="9.1332817"><ele>110.0</ele><time>2026-04-26T07:43:09.019Z</time></trkpt><trkpt lat="45.0054673" lon="9.1334049"><ele>110.0</ele><time>2026-04-26T07:43:10.019Z</time></trkpt><trkpt lat="45.0053812" lon="9.1335302"><ele>110.0</ele><time>2026-04-26T07:43:11.02Z</time></trkpt><trkpt lat="45.0052892" lon="9.1336713"><ele>110.0</ele><time>2026-04-26T07:43:12.019Z</time></trkpt><trkpt lat="45.0051928" lon="9.1338232"><ele>110.0</ele><time>2026-04-26T07:43:13.019Z</time></trkpt><trkpt lat="45.0050919" lon="9.1339913"><ele>110.0</ele><time>2026-04-26T07:43:14.019Z</time></trkpt><trkpt lat="45.0049925" lon="9.1341619"><ele>110.0</ele><time>2026-04-26T07:43:15.019Z</time></trkpt><trkpt lat="45.0048919" lon="9.1343174"><ele>112.33333333333333</ele><time>2026-04-26T07:43:16.019Z</time></trkpt><trkpt lat="45.0047864" lon="9.134472"><ele>114.66666666666666</ele><time>2026-04-26T07:43:17.019Z</time></trkpt><trkpt lat="45.004685" lon="9.1346277"><ele>117.0</ele><time>2026-04-26T07:43:18.019Z</time></trkpt><trkpt lat="45.0045845" lon="9.1347837"><ele>117.75</ele><time>2026-04-26T07:43:19.02Z</time></trkpt><trkpt lat="45.0044782" lon="9.134927"><ele>118.5</ele><time>2026-04-26T07:43:20.02Z</time></trkpt><trkpt lat="45.0043762" lon="9.1350588"><ele>119.25</ele><time>2026-04-26T07:43:21.02Z</time></trkpt><trkpt lat="45.0042714" lon="9.1352007"><ele>120.0</ele><time>2026-04-26T07:43:22.019Z</time></trkpt><trkpt lat="45.0041572" lon="9.1353509"><ele>120.0</ele><time>2026-04-26T07:43:23.019Z</time></trkpt><trkpt lat="45.0040418" lon="9.135505"><ele>120.0</ele><time>2026-04-26T07:43:24.02Z</time></trkpt><trkpt lat="45.0039237" lon="9.1356434"><ele>120.0</ele><time>2026-04-26T07:43:25.019Z</time></trkpt><trkpt lat="45.0038082" lon="9.135767"><ele>120.0</ele><time>2026-04-26T07:43:26.019Z</time></trkpt><trkpt lat="45.003685" lon="9.1358819"><ele>120.0</ele><time>2026-04-26T07:43:27.02Z</time></trkpt><trkpt lat="45.0035635" lon="9.1359884"><ele>120.0</ele><time>2026-04-26T07:43:28.019Z</time></trkpt><trkpt lat="45.0034476" lon="9.1360937"><ele>120.0</ele><time>2026-04-26T07:43:29.02Z</time></trkpt><trkpt lat="45.0033225" lon="9.1361949"><ele>120.0</ele><time>2026-04-26T07:43:30.019Z</time></trkpt><trkpt lat="45.0031973" lon="9.1362961"><ele>120.0</ele><time>2026-04-26T07:43:31.019Z</time></trkpt><trkpt lat="45.0030733" lon="9.1363958"><ele>120.0</ele><time>2026-04-26T07:43:32.019Z</time></trkpt><trkpt lat="45.0029373" lon="9.1364894"><ele>120.0</ele><time>2026-04-26T07:43:33.019Z</time></trkpt><trkpt lat="45.0028007" lon="9.1365874"><ele>120.25</ele><time>2026-04-26T07:43:34.02Z</time></trkpt><trkpt lat="45.0026685" lon="9.1366763"><ele>120.5</ele><time>2026-04-26T07:43:35.019Z</time></trkpt><trkpt lat="45.0025538" lon="9.1367649"><ele>120.75</ele><time>2026-04-26T07:43:36.019Z</time></trkpt><trkpt lat="45.0024498" lon="9.1368535"><ele>121.0</ele><time>2026-04-26T07:43:37.019Z</time></trkpt><trkpt lat="45.0023448" lon="9.136929"><ele>121.0</ele><time>2026-04-26T07:43:38.02Z</time></trkpt><trkpt lat="45.0022456" lon="9.1370165"><ele>121.0</ele><time>2026-04-26T07:43:39.02Z</time></trkpt><trkpt lat="45.0021716" lon="9.1371404"><ele>121.0</ele><time>2026-04-26T07:43:40.02Z</time></trkpt><trkpt lat="45.0020967" lon="9.1372659"><ele>121.0</ele><time>2026-04-26T07:43:41.02Z</time></trkpt><trkpt lat="45.0020356" lon="9.1374248"><ele>119.25</ele><time>2026-04-26T07:43:42.02Z</time></trkpt><trkpt lat="45.0019837" lon="9.1376107"><ele>117.5</ele><time>2026-04-26T07:43:43.019Z</time></trkpt><trkpt lat="45.0019247" lon="9.1377989"><ele>115.75</ele><time>2026-04-26T07:43:44.019Z</time></trkpt><trkpt lat="45.0018569" lon="9.1379722"><ele>114.0</ele><time>2026-04-26T07:43:45.019Z</time></trkpt><trkpt lat="45.001765" lon="9.1381233"><ele>115.25</ele><time>2026-04-26T07:43:46.019Z</time></trkpt><trkpt lat="45.00166" lon="9.1382367"><ele>116.5</ele><time>2026-04-26T07:43:47.019Z</time></trkpt><trkpt lat="45.0015383" lon="9.1383067"><ele>117.75</ele><time>2026-04-26T07:43:48.019Z</time></trkpt><trkpt lat="45.0014083" lon="9.1383433"><ele>119.0</ele><time>2026-04-26T07:43:49.02Z</time></trkpt><trkpt lat="45.0012667" lon="9.1383483"><ele>119.0</ele><time>2026-04-26T07:43:50.019Z</time></trkpt><trkpt lat="45.001135" lon="9.138365"><ele>119.0</ele><time>2026-04-26T07:43:51.019Z</time></trkpt><trkpt lat="45.0010017" lon="9.1384"><ele>119.0</ele><time>2026-04-26T07:43:52.019Z</time></trkpt><trkpt lat="45.0008683" lon="9.1384533"><ele>119.0</ele><time>2026-04-26T07:43:53.02Z</time></trkpt><trkpt lat="45.0007383" lon="9.138525"><ele>119.5</ele><time>2026-04-26T07:43:54.02Z</time></trkpt><trkpt lat="45.0006067" lon="9.13861"><ele>120.0</ele><time>2026-04-26T07:43:55.02Z</time></trkpt><trkpt lat="45.0004733" lon="9.1386983"><ele>120.5</ele><time>2026-04-26T07:43:56.02Z</time></trkpt><trkpt lat="45.0003517" lon="9.1387967"><ele>121.0</ele><time>2026-04-26T07:43:57.019Z</time></trkpt><trkpt lat="45.0002183" lon="9.13891"><ele>121.0</ele><time>2026-04-26T07:43:58.019Z</time></trkpt><trkpt lat="45.0000883" lon="9.1390333"><ele>121.0</ele><time>2026-04-26T07:43:59.019Z</time></trkpt><trkpt lat="44.9999617" lon="9.1391383"><ele>121.0</ele><time>2026-04-26T07:44:00.019Z</time></trkpt><trkpt lat="44.9998217" lon="9.1392467"><ele>123.75</ele><time>2026-04-26T07:44:01.019Z</time></trkpt><trkpt lat="44.999695" lon="9.1393233"><ele>126.5</ele><time>2026-04-26T07:44:02.019Z</time></trkpt><trkpt lat="44.9995567" lon="9.1394083"><ele>129.25</ele><time>2026-04-26T07:44:03.02Z</time></trkpt><trkpt lat="44.9994233" lon="9.13949"><ele>132.0</ele><time>2026-04-26T07:44:04.02Z</time></trkpt><trkpt lat="44.9993" lon="9.1395833"><ele>132.0</ele><time>2026-04-26T07:44:05.02Z</time></trkpt><trkpt lat="44.9991867" lon="9.1396983"><ele>132.0</ele><time>2026-04-26T07:44:06.02Z</time></trkpt><trkpt lat="44.9990767" lon="9.1398233"><ele>132.0</ele><time>2026-04-26T07:44:07.019Z</time></trkpt><trkpt lat="44.9989717" lon="9.1399617"><ele>132.0</ele><time>2026-04-26T07:44:08.019Z</time></trkpt><trkpt lat="44.998865" lon="9.1401033"><ele>135.0</ele><time>2026-04-26T07:44:09.019Z</time></trkpt><trkpt lat="44.99875" lon="9.1402167"><ele>138.0</ele><time>2026-04-26T07:44:10.02Z</time></trkpt><trkpt lat="44.9986267" lon="9.1403267"><ele>141.0</ele><time>2026-04-26T07:44:11.019Z</time></trkpt><trkpt lat="44.9984983" lon="9.1404167"><ele>144.0</ele><time>2026-04-26T07:44:12.02Z</time></trkpt><trkpt lat="44.9983633" lon="9.140505"><ele>142.75</ele><time>2026-04-26T07:44:13.02Z</time></trkpt><trkpt lat="44.9982333" lon="9.140585"><ele>141.5</ele><time>2026-04-26T07:44:14.02Z</time></trkpt><trkpt lat="44.998105" lon="9.1406533"><ele>140.25</ele><time>2026-04-26T07:44:15.02Z</time></trkpt><trkpt lat="44.9979683" lon="9.140735"><ele>139.0</ele><time>2026-04-26T07:44:16.019Z</time></trkpt><trkpt lat="44.997825" lon="9.1408083"><ele>143.0</ele><time>2026-04-26T07:44:17.02Z</time></trkpt><trkpt lat="44.9976767" lon="9.1408983"><ele>147.0</ele><time>2026-04-26T07:44:18.02Z</time></trkpt><trkpt lat="44.9975167" lon="9.1409983"><ele>151.0</ele><time>2026-04-26T07:44:19.019Z</time></trkpt><trkpt lat="44.9973517" lon="9.1410917"><ele>151.66666666666669</ele><time>2026-04-26T07:44:20.02Z</time></trkpt><trkpt lat="44.9972033" lon="9.1411767"><ele>152.33333333333334</ele><time>2026-04-26T07:44:21.019Z</time></trkpt><trkpt lat="44.9970617" lon="9.1412717"><ele>153.0</ele><time>2026-04-26T07:44:22.02Z</time></trkpt><trkpt lat="44.996935" lon="9.1413483"><ele>153.0</ele><time>2026-04-26T07:44:23.02Z</time></trkpt><trkpt lat="44.9968167" lon="9.1414183"><ele>153.0</ele><time>2026-04-26T07:44:24.02Z</time></trkpt><trkpt lat="44.9967183" lon="9.141475"><ele>153.0</ele><time>2026-04-26T07:44:25.019Z</time></trkpt><trkpt lat="44.9966317" lon="9.14153"><ele>153.0</ele><time>2026-04-26T07:44:26.02Z</time></trkpt><trkpt lat="44.9965567" lon="9.1416217"><ele>153.0</ele><time>2026-04-26T07:44:27.02Z</time></trkpt><trkpt lat="44.9965033" lon="9.1417233"><ele>155.0</ele><time>2026-04-26T07:44:28.02Z</time></trkpt><trkpt lat="44.9964783" lon="9.1418517"><ele>157.0</ele><time>2026-04-26T07:44:29.019Z</time></trkpt><trkpt lat="44.9964567" lon="9.14197"><ele>159.0</ele><time>2026-04-26T07:44:30.019Z</time></trkpt><trkpt lat="44.9965" lon="9.14209"><ele>161.0</ele><time>2026-04-26T07:44:31.02Z</time></trkpt><trkpt lat="44.99659" lon="9.1421917"><ele>163.0</ele><time>2026-04-26T07:44:32.02Z</time></trkpt><trkpt lat="44.9967167" lon="9.1422367"><ele>163.0</ele><time>2026-04-26T07:44:33.019Z</time></trkpt><trkpt lat="44.996875" lon="9.14226"><ele>163.0</ele><time>2026-04-26T07:44:34.019Z</time></trkpt><trkpt lat="44.9970567" lon="9.14227"><ele>163.0</ele><time>2026-04-26T07:44:35.019Z</time></trkpt><trkpt lat="44.9972667" lon="9.14226"><ele>163.0</ele><time>2026-04-26T07:44:36.019Z</time></trkpt><trkpt lat="44.9974267" lon="9.1422567"><ele>163.0</ele><time>2026-04-26T07:44:37.019Z</time></trkpt><trkpt lat="44.9975933" lon="9.1422183"><ele>163.0</ele><time>2026-04-26T07:44:38.02Z</time></trkpt><trkpt lat="44.997765" lon="9.14213"><ele>164.33333333333334</ele><time>2026-04-26T07:44:39.019Z</time></trkpt><trkpt lat="44.997935" lon="9.1420467"><ele>165.66666666666666</ele><time>2026-04-26T07:44:40.019Z</time></trkpt><trkpt lat="44.998095" lon="9.142"><ele>167.0</ele><time>2026-04-26T07:44:41.02Z</time></trkpt><trkpt lat="44.9982417" lon="9.1419917"><ele>168.0</ele><time>2026-04-26T07:44:42.019Z</time></trkpt><trkpt lat="44.9983583" lon="9.1420133"><ele>169.0</ele><time>2026-04-26T07:44:43.02Z</time></trkpt><trkpt lat="44.9984567" lon="9.1420617"><ele>170.0</ele><time>2026-04-26T07:44:44.02Z</time></trkpt><trkpt lat="44.99854" lon="9.1421417"><ele>171.0</ele><time>2026-04-26T07:44:45.019Z</time></trkpt><trkpt lat="44.9985867" lon="9.14229"><ele>172.0</ele><time>2026-04-26T07:44:46.019Z</time></trkpt><trkpt lat="44.9986083" lon="9.1424917"><ele>172.5</ele><time>2026-04-26T07:44:47.02Z</time></trkpt><trkpt lat="44.9986433" lon="9.142685"><ele>173.0</ele><time>2026-04-26T07:44:48.019Z</time></trkpt><trkpt lat="44.9986467" lon="9.1429"><ele>173.5</ele><time>2026-04-26T07:44:49.02Z</time></trkpt><trkpt lat="44.9986533" lon="9.1430917"><ele>174.0</ele><time>2026-04-26T07:44:50.02Z</time></trkpt><trkpt lat="44.9986367" lon="9.143275"><ele>174.0</ele><time>2026-04-26T07:44:51.02Z</time></trkpt><trkpt lat="44.9986133" lon="9.1434433"><ele>174.0</ele><time>2026-04-26T07:44:52.019Z</time></trkpt><trkpt lat="44.998565" lon="9.1435967"><ele>174.0</ele><time>2026-04-26T07:44:53.019Z</time></trkpt><trkpt lat="44.998515" lon="9.1437183"><ele>174.0</ele><time>2026-04-26T07:44:54.02Z</time></trkpt><trkpt lat="44.998425" lon="9.1438283"><ele>176.75</ele><time>2026-04-26T07:44:55.019Z</time></trkpt><trkpt lat="44.998315" lon="9.1438933"><ele>179.5</ele><time>2026-04-26T07:44:56.02Z</time></trkpt><trkpt lat="44.998155" lon="9.143855"><ele>182.25</ele><time>2026-04-26T07:44:57.02Z</time></trkpt><trkpt lat="44.99801" lon="9.1438367"><ele>185.0</ele><time>2026-04-26T07:44:58.019Z</time></trkpt><trkpt lat="44.99786" lon="9.143845"><ele>185.0</ele><time>2026-04-26T07:44:59.02Z</time></trkpt><trkpt lat="44.99771" lon="9.1438683"><ele>185.0</ele><time>2026-04-26T07:45:00.019Z</time></trkpt><trkpt lat="44.99755" lon="9.14388"><ele>185.0</ele><time>2026-04-26T07:45:01.019Z</time></trkpt><trkpt lat="44.9974" lon="9.1438833"><ele>185.33333333333331</ele><time>2026-04-26T07:45:02.02Z</time></trkpt><trkpt lat="44.9972567" lon="9.1438867"><ele>185.66666666666666</ele><time>2026-04-26T07:45:03.019Z</time></trkpt><trkpt lat="44.9970967" lon="9.1439033"><ele>186.0</ele><time>2026-04-26T07:45:04.019Z</time></trkpt><trkpt lat="44.996945" lon="9.14395"><ele>186.0</ele><time>2026-04-26T07:45:05.019Z</time></trkpt><trkpt lat="44.9968" lon="9.1440333"><ele>186.0</ele><time>2026-04-26T07:45:06.019Z</time></trkpt><trkpt lat="44.9966583" lon="9.1441417"><ele>186.0</ele><time>2026-04-26T07:45:07.02Z</time></trkpt><trkpt lat="44.99652" lon="9.14427"><ele>190.33333333333331</ele><time>2026-04-26T07:45:08.019Z</time></trkpt><trkpt lat="44.9963717" lon="9.1443917"><ele>194.66666666666666</ele><time>2026-04-26T07:45:09.02Z</time></trkpt><trkpt lat="44.996245" lon="9.1445067"><ele>199.0</ele><time>2026-04-26T07:45:10.02Z</time></trkpt><trkpt lat="44.9961317" lon="9.14464"><ele>199.0</ele><time>2026-04-26T07:45:11.02Z</time></trkpt><trkpt lat="44.996035" lon="9.1447817"><ele>199.0</ele><time>2026-04-26T07:45:12.019Z</time></trkpt><trkpt lat="44.9959417" lon="9.1449517"><ele>199.0</ele><time>2026-04-26T07:45:13.02Z</time></trkpt><trkpt lat="44.9958667" lon="9.1451283"><ele>199.0</ele><time>2026-04-26T07:45:14.019Z</time></trkpt><trkpt lat="44.995805" lon="9.1453233"><ele>200.0</ele><time>2026-04-26T07:45:15.02Z</time></trkpt><trkpt lat="44.9957333" lon="9.145505"><ele>201.0</ele><time>2026-04-26T07:45:16.02Z</time></trkpt><trkpt lat="44.995645" lon="9.1456767"><ele>202.0</ele><time>2026-04-26T07:45:17.019Z</time></trkpt><trkpt lat="44.9955483" lon="9.1458017"><ele>203.0</ele><time>2026-04-26T07:45:18.019Z</time></trkpt><trkpt lat="44.99543" lon="9.14587"><ele>203.25</ele><time>2026-04-26T07:45:19.019Z</time></trkpt><trkpt lat="44.995305" lon="9.1459033"><ele>203.5</ele><time>2026-04-26T07:45:20.02Z</time></trkpt><trkpt lat="44.99518" lon="9.1458417"><ele>203.75</ele><time>2026-04-26T07:45:21.019Z</time></trkpt><trkpt lat="44.995065" lon="9.1457267"><ele>204.0</ele><time>2026-04-26T07:45:22.019Z</time></trkpt><trkpt lat="44.994975" lon="9.1456167"><ele>204.0</ele><time>2026-04-26T07:45:23.019Z</time></trkpt><trkpt lat="44.9948817" lon="9.145545"><ele>204.0</ele><time>2026-04-26T07:45:24.019Z</time></trkpt><trkpt lat="44.9947867" lon="9.14553"><ele>204.0</ele><time>2026-04-26T07:45:25.019Z</time></trkpt><trkpt lat="44.9947133" lon="9.14558"><ele>204.0</ele><time>2026-04-26T07:45:26.02Z</time></trkpt><trkpt lat="44.994655" lon="9.1456533"><ele>204.0</ele><time>2026-04-26T07:45:27.019Z</time></trkpt><trkpt lat="44.9946567" lon="9.1457817"><ele>206.75</ele><time>2026-04-26T07:45:28.02Z</time></trkpt><trkpt lat="44.9946817" lon="9.1459167"><ele>209.5</ele><time>2026-04-26T07:45:29.019Z</time></trkpt><trkpt lat="44.9947383" lon="9.146085"><ele>212.25</ele><time>2026-04-26T07:45:30.02Z</time></trkpt><trkpt lat="44.994855" lon="9.14627"><ele>215.0</ele><time>2026-04-26T07:45:31.019Z</time></trkpt><trkpt lat="44.9949583" lon="9.146445"><ele>215.33333333333334</ele><time>2026-04-26T07:45:32.02Z</time></trkpt><trkpt lat="44.9950733" lon="9.1466517"><ele>215.66666666666669</ele><time>2026-04-26T07:45:33.019Z</time></trkpt><trkpt lat="44.9951717" lon="9.146825"><ele>216.0</ele><time>2026-04-26T07:45:34.019Z</time></trkpt><trkpt lat="44.9952717" lon="9.1469533"><ele>216.0</ele><time>2026-04-26T07:45:35.019Z</time></trkpt><trkpt lat="44.9953683" lon="9.1470633"><ele>216.00000000000003</ele><time>2026-04-26T07:45:36.019Z</time></trkpt><trkpt lat="44.9954567" lon="9.1471483"><ele>216.00000000000003</ele><time>2026-04-26T07:45:37.02Z</time></trkpt><trkpt lat="44.9955117" lon="9.14723"><ele>216.0</ele><time>2026-04-26T07:45:38.02Z</time></trkpt><trkpt lat="44.9955683" lon="9.1473667"><ele>216.0</ele><time>2026-04-26T07:45:40.02Z</time></trkpt><trkpt lat="44.9955167" lon="9.147485"><ele>215.25</ele><time>2026-04-26T07:45:42.019Z</time></trkpt><trkpt lat="44.9954217" lon="9.147535"><ele>214.5</ele><time>2026-04-26T07:45:44.019Z</time></trkpt><trkpt lat="44.9952217" lon="9.147545"><ele>213.75</ele><time>2026-04-26T07:45:46.019Z</time></trkpt><trkpt lat="44.995135" lon="9.147575"><ele>213.0</ele><time>2026-04-26T07:45:47.02Z</time></trkpt><trkpt lat="44.995055" lon="9.1476383"><ele>218.0</ele><time>2026-04-26T07:45:48.019Z</time></trkpt><trkpt lat="44.9949983" lon="9.147765"><ele>223.0</ele><time>2026-04-26T07:45:49.019Z</time></trkpt><trkpt lat="44.9949517" lon="9.1479317"><ele>228.0</ele><time>2026-04-26T07:45:50.019Z</time></trkpt><trkpt lat="44.9948917" lon="9.1481083"><ele>233.0</ele><time>2026-04-26T07:45:51.019Z</time></trkpt><trkpt lat="44.9948217" lon="9.1482567"><ele>233.2</ele><time>2026-04-26T07:45:52.019Z</time></trkpt><trkpt lat="44.99476" lon="9.1483833"><ele>233.4</ele><time>2026-04-26T07:45:53.019Z</time></trkpt><trkpt lat="44.9947033" lon="9.14849"><ele>233.59999999999997</ele><time>2026-04-26T07:45:54.02Z</time></trkpt><trkpt lat="44.9946433" lon="9.1485767"><ele>233.79999999999998</ele><time>2026-04-26T07:45:55.019Z</time></trkpt><trkpt lat="44.9945767" lon="9.148635"><ele>234.0</ele><time>2026-04-26T07:45:56.02Z</time></trkpt><trkpt lat="44.9944933" lon="9.1486833"><ele>234.0</ele><time>2026-04-26T07:45:57.019Z</time></trkpt><trkpt lat="44.9943967" lon="9.1487333"><ele>234.0</ele><time>2026-04-26T07:45:58.019Z</time></trkpt><trkpt lat="44.9942917" lon="9.1488"><ele>234.0</ele><time>2026-04-26T07:45:59.019Z</time></trkpt><trkpt lat="44.99415" lon="9.1488883"><ele>234.0</ele><time>2026-04-26T07:46:00.019Z</time></trkpt><trkpt lat="44.9940183" lon="9.148995"><ele>235.75</ele><time>2026-04-26T07:46:01.019Z</time></trkpt><trkpt lat="44.9939133" lon="9.149105"><ele>237.5</ele><time>2026-04-26T07:46:02.019Z</time></trkpt><trkpt lat="44.9938033" lon="9.14921"><ele>239.25</ele><time>2026-04-26T07:46:03.019Z</time></trkpt><trkpt lat="44.9936933" lon="9.1493433"><ele>241.0</ele><time>2026-04-26T07:46:04.02Z</time></trkpt><trkpt lat="44.99359" lon="9.1494667"><ele>241.0</ele><time>2026-04-26T07:46:05.019Z</time></trkpt><trkpt lat="44.9935067" lon="9.1496133"><ele>241.0</ele><time>2026-04-26T07:46:06.02Z</time></trkpt><trkpt lat="44.9934267" lon="9.1497617"><ele>241.0</ele><time>2026-04-26T07:46:07.019Z</time></trkpt><trkpt lat="44.993355" lon="9.14993"><ele>241.0</ele><time>2026-04-26T07:46:08.019Z</time></trkpt><trkpt lat="44.9933033" lon="9.1501133"><ele>239.66666666666666</ele><time>2026-04-26T07:46:09.019Z</time></trkpt><trkpt lat="44.9932667" lon="9.1503117"><ele>238.33333333333331</ele><time>2026-04-26T07:46:10.02Z</time></trkpt><trkpt lat="44.9932383" lon="9.150525"><ele>237.0</ele><time>2026-04-26T07:46:11.02Z</time></trkpt><trkpt lat="44.993215" lon="9.1507633"><ele>240.33333333333331</ele><time>2026-04-26T07:46:12.019Z</time></trkpt><trkpt lat="44.99319" lon="9.1510017"><ele>243.66666666666666</ele><time>2026-04-26T07:46:13.02Z</time></trkpt><trkpt lat="44.9931583" lon="9.151245"><ele>247.0</ele><time>2026-04-26T07:46:14.02Z</time></trkpt><trkpt lat="44.993125" lon="9.1514783"><ele>248.25</ele><time>2026-04-26T07:46:15.02Z</time></trkpt><trkpt lat="44.9930817" lon="9.1516817"><ele>249.5</ele><time>2026-04-26T07:46:16.019Z</time></trkpt><trkpt lat="44.993025" lon="9.1518667"><ele>250.75</ele><time>2026-04-26T07:46:17.02Z</time></trkpt><trkpt lat="44.9929617" lon="9.152055"><ele>252.0</ele><time>2026-04-26T07:46:18.02Z</time></trkpt><trkpt lat="44.99287" lon="9.1522267"><ele>248.75</ele><time>2026-04-26T07:46:19.02Z</time></trkpt><trkpt lat="44.992775" lon="9.1524033"><ele>245.5</ele><time>2026-04-26T07:46:20.019Z</time></trkpt><trkpt lat="44.9926933" lon="9.1525633"><ele>242.25</ele><time>2026-04-26T07:46:21.02Z</time></trkpt><trkpt lat="44.992615" lon="9.1527333"><ele>239.0</ele><time>2026-04-26T07:46:22.019Z</time></trkpt><trkpt lat="44.992525" lon="9.1528783"><ele>238.5</ele><time>2026-04-26T07:46:23.02Z</time></trkpt><trkpt lat="44.9924283" lon="9.153015"><ele>238.0</ele><time>2026-04-26T07:46:24.02Z</time></trkpt><trkpt lat="44.9923283" lon="9.1531467"><ele>237.5</ele><time>2026-04-26T07:46:25.02Z</time></trkpt><trkpt lat="44.99223" lon="9.1532617"><ele>237.0</ele><time>2026-04-26T07:46:26.02Z</time></trkpt><trkpt lat="44.9921317" lon="9.1533917"><ele>238.5</ele><time>2026-04-26T07:46:27.019Z</time></trkpt><trkpt lat="44.9920183" lon="9.1535217"><ele>240.0</ele><time>2026-04-26T07:46:28.019Z</time></trkpt><trkpt lat="44.9919017" lon="9.1536633"><ele>241.5</ele><time>2026-04-26T07:46:29.02Z</time></trkpt><trkpt lat="44.9917917" lon="9.1537967"><ele>243.0</ele><time>2026-04-26T07:46:30.02Z</time></trkpt><trkpt lat="44.9916783" lon="9.153925"><ele>244.0</ele><time>2026-04-26T07:46:31.019Z</time></trkpt><trkpt lat="44.9915583" lon="9.15405"><ele>245.0</ele><time>2026-04-26T07:46:32.02Z</time></trkpt><trkpt lat="44.9914433" lon="9.1541767"><ele>246.0</ele><time>2026-04-26T07:46:33.019Z</time></trkpt><trkpt lat="44.9913333" lon="9.1543067"><ele>247.0</ele><time>2026-04-26T07:46:34.02Z</time></trkpt><trkpt lat="44.9912183" lon="9.1544267"><ele>247.0</ele><time>2026-04-26T07:46:35.02Z</time></trkpt><trkpt lat="44.991155" lon="9.1545933"><ele>247.0</ele><time>2026-04-26T07:46:36.02Z</time></trkpt><trkpt lat="44.99111" lon="9.1547867"><ele>247.0</ele><time>2026-04-26T07:46:37.019Z</time></trkpt><trkpt lat="44.991065" lon="9.1549733"><ele>247.0</ele><time>2026-04-26T07:46:38.019Z</time></trkpt><trkpt lat="44.9910317" lon="9.155155"><ele>249.0</ele><time>2026-04-26T07:46:39.019Z</time></trkpt><trkpt lat="44.9909983" lon="9.15534"><ele>251.0</ele><time>2026-04-26T07:46:40.019Z</time></trkpt><trkpt lat="44.99096" lon="9.1555267"><ele>253.0</ele><time>2026-04-26T07:46:41.019Z</time></trkpt><trkpt lat="44.9909217" lon="9.1557167"><ele>255.0</ele><time>2026-04-26T07:46:42.019Z</time></trkpt><trkpt lat="44.9908717" lon="9.1559117"><ele>254.75</ele><time>2026-04-26T07:46:43.019Z</time></trkpt><trkpt lat="44.99084" lon="9.1560933"><ele>254.5</ele><time>2026-04-26T07:46:44.02Z</time></trkpt><trkpt lat="44.9908183" lon="9.1562733"><ele>254.25</ele><time>2026-04-26T07:46:45.02Z</time></trkpt><trkpt lat="44.990795" lon="9.1564567"><ele>254.0</ele><time>2026-04-26T07:46:46.019Z</time></trkpt><trkpt lat="44.9907883" lon="9.15661"><ele>255.75</ele><time>2026-04-26T07:46:47.02Z</time></trkpt><trkpt lat="44.9907917" lon="9.1568017"><ele>257.5</ele><time>2026-04-26T07:46:48.02Z</time></trkpt><trkpt lat="44.9907917" lon="9.15701"><ele>259.25</ele><time>2026-04-26T07:46:49.019Z</time></trkpt><trkpt lat="44.99079" lon="9.1572033"><ele>261.0</ele><time>2026-04-26T07:46:50.02Z</time></trkpt><trkpt lat="44.9907767" lon="9.1574183"><ele>262.6666666666667</ele><time>2026-04-26T07:46:51.019Z</time></trkpt><trkpt lat="44.990745" lon="9.1576683"><ele>264.33333333333337</ele><time>2026-04-26T07:46:52.02Z</time></trkpt><trkpt lat="44.9906933" lon="9.1578833"><ele>266.0</ele><time>2026-04-26T07:46:53.019Z</time></trkpt><trkpt lat="44.9906417" lon="9.15807"><ele>267.25</ele><time>2026-04-26T07:46:54.019Z</time></trkpt><trkpt lat="44.990595" lon="9.1582633"><ele>268.5</ele><time>2026-04-26T07:46:55.02Z</time></trkpt><trkpt lat="44.99054" lon="9.1584417"><ele>269.75</ele><time>2026-04-26T07:46:56.019Z</time></trkpt><trkpt lat="44.9904867" lon="9.15862"><ele>271.0</ele><time>2026-04-26T07:46:57.019Z</time></trkpt><trkpt lat="44.9904283" lon="9.15879"><ele>271.0</ele><time>2026-04-26T07:46:58.019Z</time></trkpt><trkpt lat="44.9903633" lon="9.1589483"><ele>271.0</ele><time>2026-04-26T07:46:59.019Z</time></trkpt><trkpt lat="44.9902917" lon="9.1590833"><ele>271.0</ele><time>2026-04-26T07:47:00.02Z</time></trkpt><trkpt lat="44.9902067" lon="9.159165"><ele>271.0</ele><time>2026-04-26T07:47:01.02Z</time></trkpt><trkpt lat="44.9901017" lon="9.1592017"><ele>270.5</ele><time>2026-04-26T07:47:02.019Z</time></trkpt><trkpt lat="44.98996" lon="9.1592283"><ele>270.0</ele><time>2026-04-26T07:47:03.02Z</time></trkpt><trkpt lat="44.9898167" lon="9.1592683"><ele>269.5</ele><time>2026-04-26T07:47:04.019Z</time></trkpt><trkpt lat="44.98968" lon="9.159325"><ele>269.0</ele><time>2026-04-26T07:47:05.02Z</time></trkpt><trkpt lat="44.9895483" lon="9.1593983"><ele>269.0</ele><time>2026-04-26T07:47:06.019Z</time></trkpt><trkpt lat="44.9894167" lon="9.15945"><ele>269.0</ele><time>2026-04-26T07:47:07.019Z</time></trkpt><trkpt lat="44.989305" lon="9.1595"><ele>269.0</ele><time>2026-04-26T07:47:08.019Z</time></trkpt><trkpt lat="44.9892183" lon="9.1595767"><ele>269.0</ele><time>2026-04-26T07:47:09.019Z</time></trkpt><trkpt lat="44.989145" lon="9.15965"><ele>269.0</ele><time>2026-04-26T07:47:10.019Z</time></trkpt><trkpt lat="44.9890867" lon="9.1597317"><ele>269.75</ele><time>2026-04-26T07:47:11.019Z</time></trkpt><trkpt lat="44.9890583" lon="9.1598483"><ele>270.5</ele><time>2026-04-26T07:47:12.02Z</time></trkpt><trkpt lat="44.9891233" lon="9.1600583"><ele>271.25</ele><time>2026-04-26T07:47:13.02Z</time></trkpt><trkpt lat="44.9891683" lon="9.1602317"><ele>272.0</ele><time>2026-04-26T07:47:14.019Z</time></trkpt><trkpt lat="44.9892" lon="9.1604"><ele>273.5</ele><time>2026-04-26T07:47:15.02Z</time></trkpt><trkpt lat="44.98922" lon="9.16058"><ele>275.0</ele><time>2026-04-26T07:47:16.019Z</time></trkpt><trkpt lat="44.9892183" lon="9.1607567"><ele>276.5</ele><time>2026-04-26T07:47:17.019Z</time></trkpt><trkpt lat="44.9891917" lon="9.1609383"><ele>278.0</ele><time>2026-04-26T07:47:18.02Z</time></trkpt><trkpt lat="44.98915" lon="9.161115"><ele>278.0</ele><time>2026-04-26T07:47:19.019Z</time></trkpt><trkpt lat="44.9891" lon="9.1612917"><ele>278.0</ele><time>2026-04-26T07:47:20.02Z</time></trkpt><trkpt lat="44.98905" lon="9.161485"><ele>278.0</ele><time>2026-04-26T07:47:21.019Z</time></trkpt><trkpt lat="44.9889967" lon="9.1616867"><ele>278.0</ele><time>2026-04-26T07:47:22.02Z</time></trkpt><trkpt lat="44.9889383" lon="9.1618733"><ele>280.5</ele><time>2026-04-26T07:47:23.019Z</time></trkpt><trkpt lat="44.9888917" lon="9.1620733"><ele>283.0</ele><time>2026-04-26T07:47:24.02Z</time></trkpt><trkpt lat="44.9888367" lon="9.1622517"><ele>285.5</ele><time>2026-04-26T07:47:25.02Z</time></trkpt><trkpt lat="44.9887667" lon="9.1624067"><ele>288.0</ele><time>2026-04-26T07:47:26.02Z</time></trkpt><trkpt lat="44.9886633" lon="9.16253"><ele>287.25</ele><time>2026-04-26T07:47:27.02Z</time></trkpt><trkpt lat="44.9885683" lon="9.16267"><ele>286.5</ele><time>2026-04-26T07:47:28.02Z</time></trkpt><trkpt lat="44.9884683" lon="9.1628067"><ele>285.75</ele><time>2026-04-26T07:47:29.019Z</time></trkpt><trkpt lat="44.988355" lon="9.1629133"><ele>285.0</ele><time>2026-04-26T07:47:30.019Z</time></trkpt><trkpt lat="44.988235" lon="9.1630167"><ele>285.0</ele><time>2026-04-26T07:47:31.019Z</time></trkpt><trkpt lat="44.9881033" lon="9.163105"><ele>285.0</ele><time>2026-04-26T07:47:32.019Z</time></trkpt><trkpt lat="44.988" lon="9.16317"><ele>285.0</ele><time>2026-04-26T07:47:33.02Z</time></trkpt><trkpt lat="44.9879017" lon="9.16321"><ele>285.0</ele><time>2026-04-26T07:47:34.02Z</time></trkpt><trkpt lat="44.9877917" lon="9.1632267"><ele>285.0</ele><time>2026-04-26T07:47:35.02Z</time></trkpt><trkpt lat="44.9876833" lon="9.1631933"><ele>285.0</ele><time>2026-04-26T07:47:36.019Z</time></trkpt><trkpt lat="44.9875733" lon="9.1631117"><ele>285.0</ele><time>2026-04-26T07:47:37.019Z</time></trkpt><trkpt lat="44.98746" lon="9.1629717"><ele>285.0</ele><time>2026-04-26T07:47:38.019Z</time></trkpt><trkpt lat="44.9873617" lon="9.1628383"><ele>285.25</ele><time>2026-04-26T07:47:39.019Z</time></trkpt><trkpt lat="44.987255" lon="9.1626717"><ele>285.5</ele><time>2026-04-26T07:47:40.019Z</time></trkpt><trkpt lat="44.98718" lon="9.1625433"><ele>285.75</ele><time>2026-04-26T07:47:41.019Z</time></trkpt><trkpt lat="44.9871" lon="9.1624333"><ele>286.0</ele><time>2026-04-26T07:47:42.019Z</time></trkpt><trkpt lat="44.9870367" lon="9.1623633"><ele>286.0</ele><time>2026-04-26T07:47:43.019Z</time></trkpt><trkpt lat="44.986965" lon="9.162325"><ele>286.0</ele><time>2026-04-26T07:47:44.019Z</time></trkpt><trkpt lat="44.98687" lon="9.1623267"><ele>286.0</ele><time>2026-04-26T07:47:45.02Z</time></trkpt><trkpt lat="44.98676" lon="9.1624567"><ele>286.0</ele><time>2026-04-26T07:47:46.02Z</time></trkpt><trkpt lat="44.9866583" lon="9.1626167"><ele>288.0</ele><time>2026-04-26T07:47:47.02Z</time></trkpt><trkpt lat="44.9865633" lon="9.1627783"><ele>290.0</ele><time>2026-04-26T07:47:48.019Z</time></trkpt><trkpt lat="44.98645" lon="9.1629417"><ele>292.0</ele><time>2026-04-26T07:47:49.02Z</time></trkpt><trkpt lat="44.986345" lon="9.1631183"><ele>296.3333333333333</ele><time>2026-04-26T07:47:50.02Z</time></trkpt><trkpt lat="44.9862617" lon="9.163295"><ele>300.6666666666667</ele><time>2026-04-26T07:47:51.019Z</time></trkpt><trkpt lat="44.98621" lon="9.1635"><ele>305.0</ele><time>2026-04-26T07:47:52.02Z</time></trkpt><trkpt lat="44.9861733" lon="9.1637183"><ele>305.0</ele><time>2026-04-26T07:47:53.019Z</time></trkpt><trkpt lat="44.986135" lon="9.16394"><ele>305.0</ele><time>2026-04-26T07:47:54.02Z</time></trkpt><trkpt lat="44.9860883" lon="9.16415"><ele>305.0</ele><time>2026-04-26T07:47:55.02Z</time></trkpt><trkpt lat="44.9860233" lon="9.164335"><ele>307.33333333333337</ele><time>2026-04-26T07:47:56.019Z</time></trkpt><trkpt lat="44.9859183" lon="9.164505"><ele>309.6666666666667</ele><time>2026-04-26T07:47:57.02Z</time></trkpt><trkpt lat="44.9858117" lon="9.1646533"><ele>312.0</ele><time>2026-04-26T07:47:58.019Z</time></trkpt><trkpt lat="44.9857" lon="9.16479"><ele>310.0</ele><time>2026-04-26T07:47:59.02Z</time></trkpt><trkpt lat="44.98559" lon="9.16491"><ele>308.0</ele><time>2026-04-26T07:48:00.02Z</time></trkpt><trkpt lat="44.9854667" lon="9.1649933"><ele>306.0</ele><time>2026-04-26T07:48:01.02Z</time></trkpt><trkpt lat="44.9853517" lon="9.1650833"><ele>304.0</ele><time>2026-04-26T07:48:02.019Z</time></trkpt><trkpt lat="44.98523" lon="9.1651833"><ele>304.0</ele><time>2026-04-26T07:48:03.02Z</time></trkpt><trkpt lat="44.9851083" lon="9.1652933"><ele>304.0</ele><time>2026-04-26T07:48:04.02Z</time></trkpt><trkpt lat="44.984985" lon="9.1653933"><ele>304.0</ele><time>2026-04-26T07:48:05.02Z</time></trkpt><trkpt lat="44.9848567" lon="9.165505"><ele>304.0</ele><time>2026-04-26T07:48:06.019Z</time></trkpt><trkpt lat="44.98472" lon="9.1655867"><ele>304.66666666666663</ele><time>2026-04-26T07:48:07.019Z</time></trkpt><trkpt lat="44.984575" lon="9.165635"><ele>305.3333333333333</ele><time>2026-04-26T07:48:08.02Z</time></trkpt><trkpt lat="44.9844167" lon="9.16566"><ele>306.0</ele><time>2026-04-26T07:48:09.019Z</time></trkpt><trkpt lat="44.9842533" lon="9.1656967"><ele>305.75</ele><time>2026-04-26T07:48:10.02Z</time></trkpt><trkpt lat="44.9841217" lon="9.1657767"><ele>305.5</ele><time>2026-04-26T07:48:11.02Z</time></trkpt><trkpt lat="44.9839917" lon="9.1658633"><ele>305.25</ele><time>2026-04-26T07:48:12.019Z</time></trkpt><trkpt lat="44.98387" lon="9.1659717"><ele>305.0</ele><time>2026-04-26T07:48:13.02Z</time></trkpt><trkpt lat="44.983745" lon="9.16611"><ele>305.0</ele><time>2026-04-26T07:48:14.019Z</time></trkpt><trkpt lat="44.9836233" lon="9.16628"><ele>305.0</ele><time>2026-04-26T07:48:15.02Z</time></trkpt><trkpt lat="44.9835033" lon="9.166435"><ele>305.0</ele><time>2026-04-26T07:48:16.019Z</time></trkpt><trkpt lat="44.9833883" lon="9.1665933"><ele>298.0</ele><time>2026-04-26T07:48:17.019Z</time></trkpt><trkpt lat="44.9832767" lon="9.166775"><ele>291.0</ele><time>2026-04-26T07:48:18.019Z</time></trkpt><trkpt lat="44.98317" lon="9.1669183"><ele>284.0</ele><time>2026-04-26T07:48:19.019Z</time></trkpt><trkpt lat="44.9830667" lon="9.1670833"><ele>284.0</ele><time>2026-04-26T07:48:20.019Z</time></trkpt><trkpt lat="44.98299" lon="9.1672533"><ele>284.0</ele><time>2026-04-26T07:48:21.019Z</time></trkpt><trkpt lat="44.9829367" lon="9.1674483"><ele>284.0</ele><time>2026-04-26T07:48:22.019Z</time></trkpt><trkpt lat="44.9828917" lon="9.1676367"><ele>284.0</ele><time>2026-04-26T07:48:23.02Z</time></trkpt><trkpt lat="44.9828667" lon="9.1678267"><ele>281.0</ele><time>2026-04-26T07:48:24.019Z</time></trkpt><trkpt lat="44.9828233" lon="9.1679917"><ele>278.0</ele><time>2026-04-26T07:48:25.019Z</time></trkpt><trkpt lat="44.9827833" lon="9.168145"><ele>275.0</ele><time>2026-04-26T07:48:26.019Z</time></trkpt><trkpt lat="44.9827483" lon="9.1682817"><ele>272.0</ele><time>2026-04-26T07:48:27.02Z</time></trkpt><trkpt lat="44.9827167" lon="9.1684"><ele>269.0</ele><time>2026-04-26T07:48:28.02Z</time></trkpt><trkpt lat="44.9826833" lon="9.1685117"><ele>268.6666666666667</ele><time>2026-04-26T07:48:29.019Z</time></trkpt><trkpt lat="44.98266" lon="9.1686233"><ele>268.33333333333337</ele><time>2026-04-26T07:48:30.019Z</time></trkpt><trkpt lat="44.9826467" lon="9.168745"><ele>268.0</ele><time>2026-04-26T07:48:31.02Z</time></trkpt><trkpt lat="44.9826367" lon="9.1688583"><ele>267.6666666666667</ele><time>2026-04-26T07:48:32.02Z</time></trkpt><trkpt lat="44.9826417" lon="9.1689717"><ele>267.3333333333333</ele><time>2026-04-26T07:48:33.019Z</time></trkpt><trkpt lat="44.982645" lon="9.1690783"><ele>267.0</ele><time>2026-04-26T07:48:34.019Z</time></trkpt><trkpt lat="44.9826583" lon="9.1691783"><ele>267.0</ele><time>2026-04-26T07:48:35.019Z</time></trkpt><trkpt lat="44.9826717" lon="9.1692767"><ele>267.0</ele><time>2026-04-26T07:48:36.02Z</time></trkpt><trkpt lat="44.98269" lon="9.169385"><ele>267.0</ele><time>2026-04-26T07:48:37.019Z</time></trkpt><trkpt lat="44.9827017" lon="9.16949"><ele>267.0</ele><time>2026-04-26T07:48:38.019Z</time></trkpt><trkpt lat="44.982705" lon="9.169605"><ele>267.0</ele><time>2026-04-26T07:48:39.019Z</time></trkpt><trkpt lat="44.9826967" lon="9.169725"><ele>267.0</ele><time>2026-04-26T07:48:40.019Z</time></trkpt><trkpt lat="44.9826467" lon="9.1698567"><ele>266.4</ele><time>2026-04-26T07:48:41.02Z</time></trkpt><trkpt lat="44.9826283" lon="9.17"><ele>265.79999999999995</ele><time>2026-04-26T07:48:42.019Z</time></trkpt><trkpt lat="44.98258" lon="9.1701417"><ele>265.2</ele><time>2026-04-26T07:48:43.02Z</time></trkpt><trkpt lat="44.9825367" lon="9.170275"><ele>264.59999999999997</ele><time>2026-04-26T07:48:44.02Z</time></trkpt><trkpt lat="44.9824933" lon="9.1703983"><ele>264.0</ele><time>2026-04-26T07:48:45.019Z</time></trkpt><trkpt lat="44.9824483" lon="9.1705183"><ele>265.5</ele><time>2026-04-26T07:48:46.019Z</time></trkpt><trkpt lat="44.982405" lon="9.170635"><ele>267.0</ele><time>2026-04-26T07:48:47.019Z</time></trkpt><trkpt lat="44.9823667" lon="9.17075"><ele>268.5</ele><time>2026-04-26T07:48:48.019Z</time></trkpt><trkpt lat="44.98233" lon="9.1708667"><ele>270.0</ele><time>2026-04-26T07:48:49.019Z</time></trkpt><trkpt lat="44.9822933" lon="9.1709733"><ele>271.5</ele><time>2026-04-26T07:48:50.019Z</time></trkpt><trkpt lat="44.9822567" lon="9.171075"><ele>273.0</ele><time>2026-04-26T07:48:51.02Z</time></trkpt><trkpt lat="44.98221" lon="9.1711717"><ele>273.0</ele><time>2026-04-26T07:48:53.02Z</time></trkpt><trkpt lat="44.9821933" lon="9.17127"><ele>273.0</ele><time>2026-04-26T07:48:55.019Z</time></trkpt><trkpt lat="44.9821317" lon="9.1713167"><ele>273.0</ele><time>2026-04-26T07:51:19.018Z</time></trkpt><trkpt lat="44.9820683" lon="9.1714633"><ele>273.0</ele><time>2026-04-26T07:51:21.019Z</time></trkpt><trkpt lat="44.9820383" lon="9.1715683"><ele>273.0</ele><time>2026-04-26T07:51:22.019Z</time></trkpt><trkpt lat="44.982" lon="9.1716933"><ele>273.0</ele><time>2026-04-26T07:51:23.018Z</time></trkpt><trkpt lat="44.9819533" lon="9.17183"><ele>272.6</ele><time>2026-04-26T07:51:24.018Z</time></trkpt><trkpt lat="44.9819017" lon="9.171955"><ele>272.20000000000005</ele><time>2026-04-26T07:51:25.018Z</time></trkpt><trkpt lat="44.98185" lon="9.1720767"><ele>271.8</ele><time>2026-04-26T07:51:26.019Z</time></trkpt><trkpt lat="44.981805" lon="9.1721967"><ele>271.40000000000003</ele><time>2026-04-26T07:51:27.018Z</time></trkpt><trkpt lat="44.9817617" lon="9.1723083"><ele>271.0</ele><time>2026-04-26T07:51:28.019Z</time></trkpt><trkpt lat="44.9817233" lon="9.1724183"><ele>272.16666666666663</ele><time>2026-04-26T07:51:29.018Z</time></trkpt><trkpt lat="44.9816917" lon="9.17252"><ele>273.3333333333333</ele><time>2026-04-26T07:51:30.018Z</time></trkpt><trkpt lat="44.98166" lon="9.172605"><ele>274.5</ele><time>2026-04-26T07:51:31.018Z</time></trkpt><trkpt lat="44.9816267" lon="9.172715"><ele>275.6666666666667</ele><time>2026-04-26T07:51:32.019Z</time></trkpt><trkpt lat="44.9815833" lon="9.1728217"><ele>276.83333333333337</ele><time>2026-04-26T07:51:33.018Z</time></trkpt><trkpt lat="44.9815417" lon="9.1729317"><ele>278.0</ele><time>2026-04-26T07:51:34.018Z</time></trkpt><trkpt lat="44.9814917" lon="9.173055"><ele>278.8</ele><time>2026-04-26T07:51:35.019Z</time></trkpt><trkpt lat="44.98144" lon="9.1731817"><ele>279.6</ele><time>2026-04-26T07:51:36.019Z</time></trkpt><trkpt lat="44.9813867" lon="9.1733083"><ele>280.4</ele><time>2026-04-26T07:51:37.019Z</time></trkpt><trkpt lat="44.9813283" lon="9.1734283"><ele>281.2</ele><time>2026-04-26T07:51:38.019Z</time></trkpt><trkpt lat="44.98128" lon="9.1735767"><ele>282.0</ele><time>2026-04-26T07:51:39.018Z</time></trkpt><trkpt lat="44.9812283" lon="9.1737067"><ele>283.5</ele><time>2026-04-26T07:51:40.019Z</time></trkpt><trkpt lat="44.9811767" lon="9.1738467"><ele>285.0</ele><time>2026-04-26T07:51:41.018Z</time></trkpt><trkpt lat="44.9811183" lon="9.173985"><ele>286.5</ele><time>2026-04-26T07:51:42.018Z</time></trkpt><trkpt lat="44.9810483" lon="9.1741133"><ele>288.0</ele><time>2026-04-26T07:51:43.019Z</time></trkpt><trkpt lat="44.98098" lon="9.1742367"><ele>288.0</ele><time>2026-04-26T07:51:44.018Z</time></trkpt><trkpt lat="44.98092" lon="9.1743717"><ele>288.0</ele><time>2026-04-26T07:51:45.018Z</time></trkpt><trkpt lat="44.9808517" lon="9.1744933"><ele>288.0</ele><time>2026-04-26T07:51:46.019Z</time></trkpt><trkpt lat="44.9807883" lon="9.1745967"><ele>288.0</ele><time>2026-04-26T07:51:47.019Z</time></trkpt><trkpt lat="44.9807133" lon="9.17468"><ele>288.0</ele><time>2026-04-26T07:51:48.019Z</time></trkpt><trkpt lat="44.98064" lon="9.1747733"><ele>288.6</ele><time>2026-04-26T07:51:49.018Z</time></trkpt><trkpt lat="44.9805667" lon="9.1748683"><ele>289.20000000000005</ele><time>2026-04-26T07:51:50.018Z</time></trkpt><trkpt lat="44.98048" lon="9.174955"><ele>289.8</ele><time>2026-04-26T07:51:51.019Z</time></trkpt><trkpt lat="44.9803917" lon="9.1750317"><ele>290.40000000000003</ele><time>2026-04-26T07:51:52.018Z</time></trkpt><trkpt lat="44.9802967" lon="9.1751167"><ele>291.0</ele><time>2026-04-26T07:51:53.019Z</time></trkpt><trkpt lat="44.98021" lon="9.1752133"><ele>291.0</ele><time>2026-04-26T07:51:54.019Z</time></trkpt><trkpt lat="44.9801033" lon="9.1753017"><ele>291.0</ele><time>2026-04-26T07:51:55.019Z</time></trkpt><trkpt lat="44.9800067" lon="9.1753883"><ele>291.0</ele><time>2026-04-26T07:51:56.019Z</time></trkpt><trkpt lat="44.979905" lon="9.1754717"><ele>291.0</ele><time>2026-04-26T07:51:57.018Z</time></trkpt><trkpt lat="44.979815" lon="9.175565"><ele>290.8</ele><time>2026-04-26T07:51:58.018Z</time></trkpt><trkpt lat="44.9797333" lon="9.1756617"><ele>290.6</ele><time>2026-04-26T07:51:59.018Z</time></trkpt><trkpt lat="44.9796633" lon="9.1757667"><ele>290.4</ele><time>2026-04-26T07:52:00.019Z</time></trkpt><trkpt lat="44.9796283" lon="9.175915"><ele>290.2</ele><time>2026-04-26T07:52:01.019Z</time></trkpt><trkpt lat="44.9796083" lon="9.1760783"><ele>290.0</ele><time>2026-04-26T07:52:02.018Z</time></trkpt><trkpt lat="44.9795917" lon="9.1762517"><ele>294.0</ele><time>2026-04-26T07:52:03.019Z</time></trkpt><trkpt lat="44.9795833" lon="9.1764333"><ele>298.0</ele><time>2026-04-26T07:52:04.019Z</time></trkpt><trkpt lat="44.9795767" lon="9.1766117"><ele>302.0</ele><time>2026-04-26T07:52:05.018Z</time></trkpt><trkpt lat="44.9795667" lon="9.176765"><ele>306.0</ele><time>2026-04-26T07:52:06.019Z</time></trkpt><trkpt lat="44.9795683" lon="9.1769183"><ele>306.40000000000003</ele><time>2026-04-26T07:52:07.018Z</time></trkpt><trkpt lat="44.97957" lon="9.1770483"><ele>306.8</ele><time>2026-04-26T07:52:08.018Z</time></trkpt><trkpt lat="44.9796183" lon="9.17719"><ele>307.20000000000005</ele><time>2026-04-26T07:52:09.019Z</time></trkpt><trkpt lat="44.9796967" lon="9.1773233"><ele>307.6</ele><time>2026-04-26T07:52:10.019Z</time></trkpt><trkpt lat="44.979775" lon="9.1774533"><ele>308.0</ele><time>2026-04-26T07:52:11.018Z</time></trkpt><trkpt lat="44.979865" lon="9.17758"><ele>308.25</ele><time>2026-04-26T07:52:12.018Z</time></trkpt><trkpt lat="44.9799533" lon="9.177725"><ele>308.5</ele><time>2026-04-26T07:52:13.018Z</time></trkpt><trkpt lat="44.9800333" lon="9.1778767"><ele>308.75</ele><time>2026-04-26T07:52:14.019Z</time></trkpt><trkpt lat="44.9800917" lon="9.178025"><ele>309.0</ele><time>2026-04-26T07:52:15.018Z</time></trkpt><trkpt lat="44.9801283" lon="9.17819"><ele>307.0</ele><time>2026-04-26T07:52:16.018Z</time></trkpt><trkpt lat="44.9801417" lon="9.178365"><ele>305.0</ele><time>2026-04-26T07:52:17.018Z</time></trkpt><trkpt lat="44.9801433" lon="9.1785617"><ele>303.0</ele><time>2026-04-26T07:52:18.019Z</time></trkpt><trkpt lat="44.9801383" lon="9.1787717"><ele>301.0</ele><time>2026-04-26T07:52:19.018Z</time></trkpt><trkpt lat="44.9801167" lon="9.1789883"><ele>301.66666666666663</ele><time>2026-04-26T07:52:20.019Z</time></trkpt><trkpt lat="44.980085" lon="9.1791983"><ele>302.3333333333333</ele><time>2026-04-26T07:52:21.018Z</time></trkpt><trkpt lat="44.9800567" lon="9.1794267"><ele>303.0</ele><time>2026-04-26T07:52:22.018Z</time></trkpt><trkpt lat="44.9800183" lon="9.1796283"><ele>304.0</ele><time>2026-04-26T07:52:23.019Z</time></trkpt><trkpt lat="44.9799717" lon="9.1798133"><ele>305.0</ele><time>2026-04-26T07:52:24.018Z</time></trkpt><trkpt lat="44.979925" lon="9.1799817"><ele>306.0</ele><time>2026-04-26T07:52:25.018Z</time></trkpt><trkpt lat="44.9798883" lon="9.1801533"><ele>307.0</ele><time>2026-04-26T07:52:26.018Z</time></trkpt><trkpt lat="44.9798633" lon="9.18032"><ele>307.25</ele><time>2026-04-26T07:52:27.018Z</time></trkpt><trkpt lat="44.9798617" lon="9.1804883"><ele>307.5</ele><time>2026-04-26T07:52:28.018Z</time></trkpt><trkpt lat="44.9798933" lon="9.1806583"><ele>307.75</ele><time>2026-04-26T07:52:29.019Z</time></trkpt><trkpt lat="44.979935" lon="9.1808017"><ele>308.0</ele><time>2026-04-26T07:52:30.019Z</time></trkpt><trkpt lat="44.9799983" lon="9.1809333"><ele>305.25</ele><time>2026-04-26T07:52:31.019Z</time></trkpt><trkpt lat="44.9800883" lon="9.181075"><ele>302.5</ele><time>2026-04-26T07:52:32.019Z</time></trkpt><trkpt lat="44.98016" lon="9.1812317"><ele>299.75</ele><time>2026-04-26T07:52:33.019Z</time></trkpt><trkpt lat="44.98025" lon="9.181395"><ele>297.0</ele><time>2026-04-26T07:52:34.019Z</time></trkpt><trkpt lat="44.9803017" lon="9.1815683"><ele>295.75</ele><time>2026-04-26T07:52:35.019Z</time></trkpt><trkpt lat="44.9803517" lon="9.1817383"><ele>294.5</ele><time>2026-04-26T07:52:36.019Z</time></trkpt><trkpt lat="44.9803733" lon="9.1819167"><ele>293.25</ele><time>2026-04-26T07:52:37.018Z</time></trkpt><trkpt lat="44.98037" lon="9.1820967"><ele>292.0</ele><time>2026-04-26T07:52:38.018Z</time></trkpt><trkpt lat="44.9803483" lon="9.1822717"><ele>293.0</ele><time>2026-04-26T07:52:39.018Z</time></trkpt><trkpt lat="44.9803367" lon="9.1824417"><ele>294.0</ele><time>2026-04-26T07:52:40.018Z</time></trkpt><trkpt lat="44.9802983" lon="9.1826083"><ele>295.0</ele><time>2026-04-26T07:52:41.018Z</time></trkpt><trkpt lat="44.9802383" lon="9.18274"><ele>296.0</ele><time>2026-04-26T07:52:42.019Z</time></trkpt><trkpt lat="44.980165" lon="9.1828683"><ele>296.0</ele><time>2026-04-26T07:52:43.019Z</time></trkpt><trkpt lat="44.9800867" lon="9.1829767"><ele>296.0</ele><time>2026-04-26T07:52:44.019Z</time></trkpt><trkpt lat="44.9800167" lon="9.18309"><ele>296.0</ele><time>2026-04-26T07:52:45.018Z</time></trkpt><trkpt lat="44.97996" lon="9.1831983"><ele>296.0</ele><time>2026-04-26T07:52:46.019Z</time></trkpt><trkpt lat="44.97993" lon="9.1833117"><ele>296.0</ele><time>2026-04-26T07:52:47.018Z</time></trkpt><trkpt lat="44.979925" lon="9.18346"><ele>298.75</ele><time>2026-04-26T07:52:48.018Z</time></trkpt><trkpt lat="44.9799267" lon="9.1836283"><ele>301.5</ele><time>2026-04-26T07:52:49.018Z</time></trkpt><trkpt lat="44.9799033" lon="9.183765"><ele>304.25</ele><time>2026-04-26T07:52:50.018Z</time></trkpt><trkpt lat="44.9798767" lon="9.1839167"><ele>307.0</ele><time>2026-04-26T07:52:51.018Z</time></trkpt><trkpt lat="44.9798483" lon="9.1840917"><ele>307.0</ele><time>2026-04-26T07:52:52.019Z</time></trkpt><trkpt lat="44.9798233" lon="9.1842683"><ele>307.0</ele><time>2026-04-26T07:52:53.019Z</time></trkpt><trkpt lat="44.979805" lon="9.184445"><ele>307.0</ele><time>2026-04-26T07:52:54.018Z</time></trkpt><trkpt lat="44.97979" lon="9.1846383"><ele>307.0</ele><time>2026-04-26T07:52:55.019Z</time></trkpt><trkpt lat="44.9797783" lon="9.1848167"><ele>305.75</ele><time>2026-04-26T07:52:56.018Z</time></trkpt><trkpt lat="44.9797667" lon="9.1850033"><ele>304.5</ele><time>2026-04-26T07:52:57.019Z</time></trkpt><trkpt lat="44.9797433" lon="9.1851833"><ele>303.25</ele><time>2026-04-26T07:52:58.019Z</time></trkpt><trkpt lat="44.9797117" lon="9.1853467"><ele>302.0</ele><time>2026-04-26T07:52:59.018Z</time></trkpt><trkpt lat="44.97967" lon="9.1855117"><ele>301.5</ele><time>2026-04-26T07:53:00.019Z</time></trkpt><trkpt lat="44.9796217" lon="9.1856883"><ele>301.0</ele><time>2026-04-26T07:53:01.018Z</time></trkpt><trkpt lat="44.9795617" lon="9.185875"><ele>300.5</ele><time>2026-04-26T07:53:02.018Z</time></trkpt><trkpt lat="44.9794983" lon="9.1860783"><ele>300.0</ele><time>2026-04-26T07:53:03.018Z</time></trkpt><trkpt lat="44.9794533" lon="9.1862883"><ele>300.0</ele><time>2026-04-26T07:53:04.018Z</time></trkpt><trkpt lat="44.9794217" lon="9.1864983"><ele>300.0</ele><time>2026-04-26T07:53:05.019Z</time></trkpt><trkpt lat="44.9794033" lon="9.1867117"><ele>300.0</ele><time>2026-04-26T07:53:06.018Z</time></trkpt><trkpt lat="44.9793933" lon="9.1869233"><ele>299.25</ele><time>2026-04-26T07:53:07.019Z</time></trkpt><trkpt lat="44.9793867" lon="9.18713"><ele>298.5</ele><time>2026-04-26T07:53:08.018Z</time></trkpt><trkpt lat="44.9793767" lon="9.187325"><ele>297.75</ele><time>2026-04-26T07:53:09.019Z</time></trkpt><trkpt lat="44.97936" lon="9.1875067"><ele>297.0</ele><time>2026-04-26T07:53:10.018Z</time></trkpt><trkpt lat="44.97933" lon="9.1876783"><ele>297.0</ele><time>2026-04-26T07:53:11.018Z</time></trkpt><trkpt lat="44.9792933" lon="9.18785"><ele>297.0</ele><time>2026-04-26T07:53:12.018Z</time></trkpt><trkpt lat="44.9792517" lon="9.18803"><ele>297.0</ele><time>2026-04-26T07:53:13.018Z</time></trkpt><trkpt lat="44.9792" lon="9.1882133"><ele>297.0</ele><time>2026-04-26T07:53:14.019Z</time></trkpt><trkpt lat="44.97915" lon="9.1884"><ele>301.0</ele><time>2026-04-26T07:53:15.019Z</time></trkpt><trkpt lat="44.9790967" lon="9.18858"><ele>305.0</ele><time>2026-04-26T07:53:16.018Z</time></trkpt><trkpt lat="44.9790617" lon="9.18876"><ele>309.0</ele><time>2026-04-26T07:53:17.018Z</time></trkpt><trkpt lat="44.979045" lon="9.188935"><ele>313.0</ele><time>2026-04-26T07:53:18.018Z</time></trkpt><trkpt lat="44.9790683" lon="9.1891117"><ele>314.4</ele><time>2026-04-26T07:53:19.018Z</time></trkpt><trkpt lat="44.9791083" lon="9.1892833"><ele>315.8</ele><time>2026-04-26T07:53:20.018Z</time></trkpt><trkpt lat="44.9791517" lon="9.1894483"><ele>317.2</ele><time>2026-04-26T07:53:21.019Z</time></trkpt><trkpt lat="44.979205" lon="9.189575"><ele>318.6</ele><time>2026-04-26T07:53:22.019Z</time></trkpt><trkpt lat="44.9792383" lon="9.189675"><ele>320.0</ele><time>2026-04-26T07:53:23.019Z</time></trkpt><trkpt lat="44.97926" lon="9.1897817"><ele>317.8</ele><time>2026-04-26T07:53:24.019Z</time></trkpt><trkpt lat="44.9792733" lon="9.1899217"><ele>315.6</ele><time>2026-04-26T07:53:25.018Z</time></trkpt><trkpt lat="44.979275" lon="9.1900767"><ele>313.4</ele><time>2026-04-26T07:53:26.018Z</time></trkpt><trkpt lat="44.979275" lon="9.190235"><ele>311.2</ele><time>2026-04-26T07:53:27.018Z</time></trkpt><trkpt lat="44.9792583" lon="9.1904017"><ele>309.0</ele><time>2026-04-26T07:53:28.018Z</time></trkpt><trkpt lat="44.979205" lon="9.190585"><ele>313.5</ele><time>2026-04-26T07:53:29.018Z</time></trkpt><trkpt lat="44.97916" lon="9.1907767"><ele>318.0</ele><time>2026-04-26T07:53:30.019Z</time></trkpt><trkpt lat="44.9791183" lon="9.19096"><ele>322.5</ele><time>2026-04-26T07:53:31.019Z</time></trkpt><trkpt lat="44.97909" lon="9.1911283"><ele>327.0</ele><time>2026-04-26T07:53:32.018Z</time></trkpt><trkpt lat="44.9790633" lon="9.19128"><ele>327.0</ele><time>2026-04-26T07:53:33.018Z</time></trkpt><trkpt lat="44.9790483" lon="9.19144"><ele>327.0</ele><time>2026-04-26T07:53:34.018Z</time></trkpt><trkpt lat="44.9790533" lon="9.19161"><ele>327.0</ele><time>2026-04-26T07:53:35.019Z</time></trkpt><trkpt lat="44.97906" lon="9.191785"><ele>327.0</ele><time>2026-04-26T07:53:36.019Z</time></trkpt><trkpt lat="44.9790667" lon="9.19196"><ele>327.0</ele><time>2026-04-26T07:53:37.019Z</time></trkpt><trkpt lat="44.9790783" lon="9.1921383"><ele>327.0</ele><time>2026-04-26T07:53:38.018Z</time></trkpt><trkpt lat="44.9790833" lon="9.1923233"><ele>327.0</ele><time>2026-04-26T07:53:39.019Z</time></trkpt><trkpt lat="44.97908" lon="9.1925117"><ele>327.0</ele><time>2026-04-26T07:53:40.019Z</time></trkpt><trkpt lat="44.9790633" lon="9.192695"><ele>328.0</ele><time>2026-04-26T07:53:41.018Z</time></trkpt><trkpt lat="44.9790583" lon="9.1928717"><ele>329.0</ele><time>2026-04-26T07:53:42.018Z</time></trkpt><trkpt lat="44.97906" lon="9.1930367"><ele>330.0</ele><time>2026-04-26T07:53:43.019Z</time></trkpt><trkpt lat="44.97906" lon="9.1931883"><ele>331.0</ele><time>2026-04-26T07:53:44.018Z</time></trkpt><trkpt lat="44.97906" lon="9.1933217"><ele>332.0</ele><time>2026-04-26T07:53:45.019Z</time></trkpt><trkpt lat="44.97907" lon="9.1934667"><ele>332.40000000000003</ele><time>2026-04-26T07:53:46.018Z</time></trkpt><trkpt lat="44.9790683" lon="9.1936183"><ele>332.8</ele><time>2026-04-26T07:53:47.018Z</time></trkpt><trkpt lat="44.97907" lon="9.1937533"><ele>333.2</ele><time>2026-04-26T07:53:48.019Z</time></trkpt><trkpt lat="44.9790433" lon="9.19389"><ele>333.6</ele><time>2026-04-26T07:53:49.018Z</time></trkpt><trkpt lat="44.978995" lon="9.1940133"><ele>334.0</ele><time>2026-04-26T07:53:50.019Z</time></trkpt><trkpt lat="44.9789167" lon="9.1941217"><ele>334.79999999999995</ele><time>2026-04-26T07:53:51.019Z</time></trkpt><trkpt lat="44.9788183" lon="9.19421"><ele>335.59999999999997</ele><time>2026-04-26T07:53:52.019Z</time></trkpt><trkpt lat="44.9787233" lon="9.1942967"><ele>336.4</ele><time>2026-04-26T07:53:53.018Z</time></trkpt><trkpt lat="44.9786417" lon="9.1943917"><ele>337.2</ele><time>2026-04-26T07:53:54.019Z</time></trkpt><trkpt lat="44.97857" lon="9.1945067"><ele>338.0</ele><time>2026-04-26T07:53:55.018Z</time></trkpt><trkpt lat="44.97851" lon="9.19464"><ele>338.0</ele><time>2026-04-26T07:53:56.019Z</time></trkpt><trkpt lat="44.978475" lon="9.194785"><ele>338.0</ele><time>2026-04-26T07:53:57.019Z</time></trkpt><trkpt lat="44.978475" lon="9.1949633"><ele>338.0</ele><time>2026-04-26T07:53:58.018Z</time></trkpt><trkpt lat="44.978455" lon="9.1951567"><ele>338.0</ele><time>2026-04-26T07:53:59.019Z</time></trkpt><trkpt lat="44.9784667" lon="9.1953467"><ele>339.5</ele><time>2026-04-26T07:54:00.019Z</time></trkpt><trkpt lat="44.97848" lon="9.19554"><ele>341.0</ele><time>2026-04-26T07:54:01.019Z</time></trkpt><trkpt lat="44.9784883" lon="9.195735"><ele>342.5</ele><time>2026-04-26T07:54:02.019Z</time></trkpt><trkpt lat="44.978495" lon="9.1959433"><ele>344.0</ele><time>2026-04-26T07:54:03.018Z</time></trkpt><trkpt lat="44.9785033" lon="9.1961517"><ele>345.0</ele><time>2026-04-26T07:54:04.018Z</time></trkpt><trkpt lat="44.9785083" lon="9.1963433"><ele>346.0</ele><time>2026-04-26T07:54:05.019Z</time></trkpt><trkpt lat="44.9785267" lon="9.1965333"><ele>347.0</ele><time>2026-04-26T07:54:06.018Z</time></trkpt><trkpt lat="44.97855" lon="9.1967067"><ele>348.0</ele><time>2026-04-26T07:54:07.019Z</time></trkpt><trkpt lat="44.9785933" lon="9.1968633"><ele>348.0</ele><time>2026-04-26T07:54:08.018Z</time></trkpt><trkpt lat="44.9786533" lon="9.1969983"><ele>348.0</ele><time>2026-04-26T07:54:09.019Z</time></trkpt><trkpt lat="44.9786917" lon="9.1971217"><ele>348.0</ele><time>2026-04-26T07:54:10.019Z</time></trkpt><trkpt lat="44.9787267" lon="9.1972633"><ele>348.0</ele><time>2026-04-26T07:54:11.019Z</time></trkpt><trkpt lat="44.9787383" lon="9.1974233"><ele>348.0</ele><time>2026-04-26T07:54:12.019Z</time></trkpt><trkpt lat="44.978725" lon="9.19759"><ele>349.25</ele><time>2026-04-26T07:54:13.018Z</time></trkpt><trkpt lat="44.9786717" lon="9.1977367"><ele>350.5</ele><time>2026-04-26T07:54:14.019Z</time></trkpt><trkpt lat="44.9785767" lon="9.1978967"><ele>351.75</ele><time>2026-04-26T07:54:15.019Z</time></trkpt><trkpt lat="44.978495" lon="9.1980567"><ele>353.0</ele><time>2026-04-26T07:54:16.018Z</time></trkpt><trkpt lat="44.97843" lon="9.1982267"><ele>349.75</ele><time>2026-04-26T07:54:17.018Z</time></trkpt><trkpt lat="44.9783617" lon="9.1983867"><ele>346.5</ele><time>2026-04-26T07:54:18.018Z</time></trkpt><trkpt lat="44.97831" lon="9.1985583"><ele>343.25</ele><time>2026-04-26T07:54:19.019Z</time></trkpt><trkpt lat="44.978275" lon="9.19875"><ele>340.0</ele><time>2026-04-26T07:54:20.018Z</time></trkpt><trkpt lat="44.978255" lon="9.1989583"><ele>341.0</ele><time>2026-04-26T07:54:21.019Z</time></trkpt><trkpt lat="44.9782433" lon="9.1991733"><ele>342.0</ele><time>2026-04-26T07:54:22.019Z</time></trkpt><trkpt lat="44.978245" lon="9.1993867"><ele>343.0</ele><time>2026-04-26T07:54:23.018Z</time></trkpt><trkpt lat="44.9782533" lon="9.19958"><ele>344.0</ele><time>2026-04-26T07:54:24.018Z</time></trkpt><trkpt lat="44.9782783" lon="9.1997567"><ele>344.0</ele><time>2026-04-26T07:54:25.019Z</time></trkpt><trkpt lat="44.9783283" lon="9.1999317"><ele>344.0</ele><time>2026-04-26T07:54:26.018Z</time></trkpt><trkpt lat="44.978395" lon="9.2001017"><ele>344.0</ele><time>2026-04-26T07:54:27.019Z</time></trkpt><trkpt lat="44.9784583" lon="9.2002633"><ele>344.0</ele><time>2026-04-26T07:54:28.018Z</time></trkpt><trkpt lat="44.9785167" lon="9.200415"><ele>349.5</ele><time>2026-04-26T07:54:29.019Z</time></trkpt><trkpt lat="44.9785683" lon="9.2005583"><ele>355.0</ele><time>2026-04-26T07:54:30.019Z</time></trkpt><trkpt lat="44.9785933" lon="9.2007167"><ele>360.5</ele><time>2026-04-26T07:54:31.019Z</time></trkpt><trkpt lat="44.978595" lon="9.2008867"><ele>366.0</ele><time>2026-04-26T07:54:32.018Z</time></trkpt><trkpt lat="44.9785983" lon="9.20107"><ele>366.0</ele><time>2026-04-26T07:54:33.018Z</time></trkpt><trkpt lat="44.9786383" lon="9.2012317"><ele>366.0</ele><time>2026-04-26T07:54:34.019Z</time></trkpt><trkpt lat="44.97867" lon="9.2014217"><ele>366.0</ele><time>2026-04-26T07:54:35.018Z</time></trkpt><trkpt lat="44.978695" lon="9.2016183"><ele>366.0</ele><time>2026-04-26T07:54:36.018Z</time></trkpt><trkpt lat="44.9787117" lon="9.201825"><ele>366.5</ele><time>2026-04-26T07:54:37.018Z</time></trkpt><trkpt lat="44.9787" lon="9.20203"><ele>367.0</ele><time>2026-04-26T07:54:38.019Z</time></trkpt><trkpt lat="44.9786767" lon="9.20222"><ele>367.5</ele><time>2026-04-26T07:54:39.019Z</time></trkpt><trkpt lat="44.9786417" lon="9.2023917"><ele>368.0</ele><time>2026-04-26T07:54:40.019Z</time></trkpt><trkpt lat="44.9785983" lon="9.20254"><ele>369.4</ele><time>2026-04-26T07:54:41.018Z</time></trkpt><trkpt lat="44.9785633" lon="9.2026367"><ele>370.79999999999995</ele><time>2026-04-26T07:54:42.018Z</time></trkpt><trkpt lat="44.9784917" lon="9.2027017"><ele>372.2</ele><time>2026-04-26T07:54:43.018Z</time></trkpt><trkpt lat="44.9783983" lon="9.2027433"><ele>373.6</ele><time>2026-04-26T07:54:44.019Z</time></trkpt><trkpt lat="44.9782933" lon="9.2027433"><ele>375.0</ele><time>2026-04-26T07:54:45.019Z</time></trkpt><trkpt lat="44.9781917" lon="9.202765"><ele>374.4</ele><time>2026-04-26T07:54:46.019Z</time></trkpt><trkpt lat="44.9781" lon="9.2027917"><ele>373.8</ele><time>2026-04-26T07:54:47.019Z</time></trkpt><trkpt lat="44.9780117" lon="9.2028367"><ele>373.20000000000005</ele><time>2026-04-26T07:54:48.019Z</time></trkpt><trkpt lat="44.97796" lon="9.2029567"><ele>372.6</ele><time>2026-04-26T07:54:49.018Z</time></trkpt><trkpt lat="44.9779217" lon="9.203075"><ele>372.0</ele><time>2026-04-26T07:54:50.018Z</time></trkpt><trkpt lat="44.9778933" lon="9.2032017"><ele>372.0</ele><time>2026-04-26T07:54:51.019Z</time></trkpt><trkpt lat="44.9778667" lon="9.203345"><ele>372.0</ele><time>2026-04-26T07:54:52.018Z</time></trkpt><trkpt lat="44.97786" lon="9.20351"><ele>372.0</ele><time>2026-04-26T07:54:53.019Z</time></trkpt><trkpt lat="44.977875" lon="9.20369"><ele>372.0</ele><time>2026-04-26T07:54:54.018Z</time></trkpt><trkpt lat="44.977895" lon="9.2038733"><ele>371.75</ele><time>2026-04-26T07:54:55.018Z</time></trkpt><trkpt lat="44.9779283" lon="9.2040433"><ele>371.5</ele><time>2026-04-26T07:54:56.019Z</time></trkpt><trkpt lat="44.9779883" lon="9.2041983"><ele>371.25</ele><time>2026-04-26T07:54:57.018Z</time></trkpt><trkpt lat="44.9780717" lon="9.2043333"><ele>371.0</ele><time>2026-04-26T07:54:58.018Z</time></trkpt><trkpt lat="44.978175" lon="9.2044567"><ele>371.0</ele><time>2026-04-26T07:54:59.019Z</time></trkpt><trkpt lat="44.9782917" lon="9.20459"><ele>371.0</ele><time>2026-04-26T07:55:00.019Z</time></trkpt><trkpt lat="44.9784" lon="9.2047167"><ele>371.0</ele><time>2026-04-26T07:55:01.018Z</time></trkpt><trkpt lat="44.9784967" lon="9.2048333"><ele>371.0</ele><time>2026-04-26T07:55:02.018Z</time></trkpt><trkpt lat="44.978585" lon="9.2049417"><ele>372.8</ele><time>2026-04-26T07:55:03.018Z</time></trkpt><trkpt lat="44.9786717" lon="9.20504"><ele>374.6</ele><time>2026-04-26T07:55:04.018Z</time></trkpt><trkpt lat="44.978755" lon="9.205135"><ele>376.4</ele><time>2026-04-26T07:55:05.018Z</time></trkpt><trkpt lat="44.9788483" lon="9.2052067"><ele>378.2</ele><time>2026-04-26T07:55:06.018Z</time></trkpt><trkpt lat="44.9789417" lon="9.2052783"><ele>380.0</ele><time>2026-04-26T07:55:07.019Z</time></trkpt><trkpt lat="44.9790367" lon="9.2053467"><ele>380.0</ele><time>2026-04-26T07:55:08.018Z</time></trkpt><trkpt lat="44.9791317" lon="9.2054133"><ele>380.0</ele><time>2026-04-26T07:55:09.018Z</time></trkpt><trkpt lat="44.9792217" lon="9.2054833"><ele>380.0</ele><time>2026-04-26T07:55:10.019Z</time></trkpt><trkpt lat="44.979305" lon="9.205575"><ele>380.0</ele><time>2026-04-26T07:55:11.018Z</time></trkpt><trkpt lat="44.9793717" lon="9.2056783"><ele>380.0</ele><time>2026-04-26T07:55:12.019Z</time></trkpt><trkpt lat="44.9794233" lon="9.20578"><ele>381.8</ele><time>2026-04-26T07:55:13.018Z</time></trkpt><trkpt lat="44.9794617" lon="9.205895"><ele>383.6</ele><time>2026-04-26T07:55:14.019Z</time></trkpt><trkpt lat="44.9794817" lon="9.20601"><ele>385.4</ele><time>2026-04-26T07:55:15.018Z</time></trkpt><trkpt lat="44.9794967" lon="9.2061417"><ele>387.2</ele><time>2026-04-26T07:55:16.018Z</time></trkpt><trkpt lat="44.97951" lon="9.2062783"><ele>389.0</ele><time>2026-04-26T07:55:17.019Z</time></trkpt><trkpt lat="44.9795167" lon="9.2064167"><ele>389.0</ele><time>2026-04-26T07:55:18.019Z</time></trkpt><trkpt lat="44.9795217" lon="9.2065417"><ele>389.0</ele><time>2026-04-26T07:55:19.019Z</time></trkpt><trkpt lat="44.9795367" lon="9.206645"><ele>389.0</ele><time>2026-04-26T07:55:20.018Z</time></trkpt><trkpt lat="44.979545" lon="9.206805"><ele>389.0</ele><time>2026-04-26T07:55:22.019Z</time></trkpt><trkpt lat="44.979525" lon="9.2066667"><ele>389.0</ele><time>2026-04-26T07:55:30.018Z</time></trkpt><trkpt lat="44.9795267" lon="9.2064667"><ele>389.0</ele><time>2026-04-26T07:55:32.018Z</time></trkpt><trkpt lat="44.9795233" lon="9.2062917"><ele>389.0</ele><time>2026-04-26T07:55:33.019Z</time></trkpt><trkpt lat="44.9794517" lon="9.2060017"><ele>389.0</ele><time>2026-04-26T07:55:34.019Z</time></trkpt><trkpt lat="44.97939" lon="9.2058"><ele>391.66666666666663</ele><time>2026-04-26T07:55:35.018Z</time></trkpt><trkpt lat="44.9793067" lon="9.205625"><ele>394.33333333333337</ele><time>2026-04-26T07:55:36.019Z</time></trkpt><trkpt lat="44.979195" lon="9.2054233"><ele>397.0</ele><time>2026-04-26T07:55:37.018Z</time></trkpt><trkpt lat="44.9790783" lon="9.205265"><ele>391.33333333333337</ele><time>2026-04-26T07:55:38.019Z</time></trkpt><trkpt lat="44.9789433" lon="9.205125"><ele>385.6666666666667</ele><time>2026-04-26T07:55:39.018Z</time></trkpt><trkpt lat="44.978805" lon="9.204995"><ele>380.0</ele><time>2026-04-26T07:55:40.018Z</time></trkpt><trkpt lat="44.978675" lon="9.2048817"><ele>382.33333333333337</ele><time>2026-04-26T07:55:41.018Z</time></trkpt><trkpt lat="44.9785317" lon="9.2047483"><ele>384.6666666666667</ele><time>2026-04-26T07:55:42.018Z</time></trkpt><trkpt lat="44.9784" lon="9.204595"><ele>387.0</ele><time>2026-04-26T07:55:43.019Z</time></trkpt><trkpt lat="44.978275" lon="9.2044467"><ele>383.25</ele><time>2026-04-26T07:55:44.018Z</time></trkpt><trkpt lat="44.9781667" lon="9.2043233"><ele>379.5</ele><time>2026-04-26T07:55:45.018Z</time></trkpt><trkpt lat="44.9780767" lon="9.204215"><ele>375.75</ele><time>2026-04-26T07:55:46.018Z</time></trkpt><trkpt lat="44.9779883" lon="9.2040933"><ele>372.0</ele><time>2026-04-26T07:55:47.018Z</time></trkpt><trkpt lat="44.9779233" lon="9.203985"><ele>372.0</ele><time>2026-04-26T07:55:48.019Z</time></trkpt><trkpt lat="44.9778767" lon="9.203865"><ele>372.0</ele><time>2026-04-26T07:55:49.018Z</time></trkpt><trkpt lat="44.9778433" lon="9.2037533"><ele>372.0</ele><time>2026-04-26T07:55:50.019Z</time></trkpt><trkpt lat="44.9778233" lon="9.20364"><ele>372.0</ele><time>2026-04-26T07:55:51.019Z</time></trkpt><trkpt lat="44.977835" lon="9.2035067"><ele>372.0</ele><time>2026-04-26T07:55:52.018Z</time></trkpt><trkpt lat="44.9778467" lon="9.2033833"><ele>372.0</ele><time>2026-04-26T07:55:53.018Z</time></trkpt><trkpt lat="44.9778583" lon="9.2032367"><ele>370.0</ele><time>2026-04-26T07:55:54.018Z</time></trkpt><trkpt lat="44.9778783" lon="9.2030967"><ele>368.0</ele><time>2026-04-26T07:55:55.019Z</time></trkpt><trkpt lat="44.9778917" lon="9.202985"><ele>366.0</ele><time>2026-04-26T07:55:56.018Z</time></trkpt><trkpt lat="44.9779167" lon="9.2028767"><ele>364.0</ele><time>2026-04-26T07:55:57.019Z</time></trkpt><trkpt lat="44.9779433" lon="9.20278"><ele>362.0</ele><time>2026-04-26T07:55:58.018Z</time></trkpt><trkpt lat="44.9779767" lon="9.20264"><ele>360.0</ele><time>2026-04-26T07:56:00.019Z</time></trkpt><trkpt lat="44.9779667" lon="9.20247"><ele>360.0</ele><time>2026-04-26T07:56:02.018Z</time></trkpt><trkpt lat="44.97795" lon="9.2023817"><ele>360.0</ele><time>2026-04-26T07:56:03.019Z</time></trkpt><trkpt lat="44.9779267" lon="9.2022717"><ele>360.0</ele><time>2026-04-26T07:56:04.019Z</time></trkpt><trkpt lat="44.9778933" lon="9.20215"><ele>360.0</ele><time>2026-04-26T07:56:05.018Z</time></trkpt><trkpt lat="44.9778583" lon="9.2020183"><ele>360.0</ele><time>2026-04-26T07:56:06.018Z</time></trkpt><trkpt lat="44.9778233" lon="9.2019017"><ele>360.0</ele><time>2026-04-26T07:56:07.017Z</time></trkpt><trkpt lat="44.9777733" lon="9.2018033"><ele>357.8</ele><time>2026-04-26T07:56:08.018Z</time></trkpt><trkpt lat="44.97772" lon="9.201725"><ele>355.6</ele><time>2026-04-26T07:56:09.017Z</time></trkpt><trkpt lat="44.977655" lon="9.2016667"><ele>353.4</ele><time>2026-04-26T07:56:10.017Z</time></trkpt><trkpt lat="44.9775533" lon="9.201685"><ele>351.2</ele><time>2026-04-26T07:56:11.017Z</time></trkpt><trkpt lat="44.9774617" lon="9.2017083"><ele>349.0</ele><time>2026-04-26T07:56:12.018Z</time></trkpt><trkpt lat="44.97737" lon="9.2017733"><ele>348.0</ele><time>2026-04-26T07:56:13.018Z</time></trkpt><trkpt lat="44.9772867" lon="9.201885"><ele>347.0</ele><time>2026-04-26T07:56:14.017Z</time></trkpt><trkpt lat="44.977205" lon="9.2019217"><ele>346.0</ele><time>2026-04-26T07:56:15.018Z</time></trkpt><trkpt lat="44.9771267" lon="9.2019583"><ele>345.0</ele><time>2026-04-26T07:56:16.017Z</time></trkpt><trkpt lat="44.9770383" lon="9.2019783"><ele>344.0</ele><time>2026-04-26T07:56:17.016Z</time></trkpt><trkpt lat="44.9769667" lon="9.2019383"><ele>344.0</ele><time>2026-04-26T07:56:18.017Z</time></trkpt><trkpt lat="44.976885" lon="9.2018867"><ele>344.0</ele><time>2026-04-26T07:56:19.018Z</time></trkpt><trkpt lat="44.9768033" lon="9.2018467"><ele>344.0</ele><time>2026-04-26T07:56:20.018Z</time></trkpt><trkpt lat="44.9767217" lon="9.201825"><ele>344.0</ele><time>2026-04-26T07:56:21.018Z</time></trkpt><trkpt lat="44.9766317" lon="9.2018233"><ele>344.0</ele><time>2026-04-26T07:56:22.018Z</time></trkpt><trkpt lat="44.9765333" lon="9.2018317"><ele>344.0</ele><time>2026-04-26T07:56:23.018Z</time></trkpt><trkpt lat="44.9764367" lon="9.2018117"><ele>342.6</ele><time>2026-04-26T07:56:24.017Z</time></trkpt><trkpt lat="44.9763333" lon="9.201805"><ele>341.2</ele><time>2026-04-26T07:56:25.017Z</time></trkpt><trkpt lat="44.9762267" lon="9.2018033"><ele>339.8</ele><time>2026-04-26T07:56:26.018Z</time></trkpt><trkpt lat="44.9761333" lon="9.201805"><ele>338.40000000000003</ele><time>2026-04-26T07:56:27.017Z</time></trkpt><trkpt lat="44.97603" lon="9.2018133"><ele>337.0</ele><time>2026-04-26T07:56:28.017Z</time></trkpt><trkpt lat="44.9759367" lon="9.2018067"><ele>334.0</ele><time>2026-04-26T07:56:29.018Z</time></trkpt><trkpt lat="44.97584" lon="9.2017883"><ele>331.0</ele><time>2026-04-26T07:56:30.017Z</time></trkpt><trkpt lat="44.9757333" lon="9.2017633"><ele>328.0</ele><time>2026-04-26T07:56:31.017Z</time></trkpt><trkpt lat="44.9756117" lon="9.2017133"><ele>325.0</ele><time>2026-04-26T07:56:32.017Z</time></trkpt><trkpt lat="44.9754967" lon="9.2016767"><ele>325.0</ele><time>2026-04-26T07:56:33.018Z</time></trkpt><trkpt lat="44.97539" lon="9.2016"><ele>325.0</ele><time>2026-04-26T07:56:34.017Z</time></trkpt><trkpt lat="44.975295" lon="9.2015167"><ele>325.0</ele><time>2026-04-26T07:56:35.017Z</time></trkpt><trkpt lat="44.9751883" lon="9.2014017"><ele>325.0</ele><time>2026-04-26T07:56:36.017Z</time></trkpt><trkpt lat="44.97509" lon="9.2012967"><ele>319.75</ele><time>2026-04-26T07:56:37.018Z</time></trkpt><trkpt lat="44.9750017" lon="9.2011867"><ele>314.5</ele><time>2026-04-26T07:56:38.017Z</time></trkpt><trkpt lat="44.97492" lon="9.20107"><ele>309.25</ele><time>2026-04-26T07:56:39.018Z</time></trkpt><trkpt lat="44.9748483" lon="9.2009483"><ele>304.0</ele><time>2026-04-26T07:56:40.018Z</time></trkpt><trkpt lat="44.9747817" lon="9.20083"><ele>304.0</ele><time>2026-04-26T07:56:41.017Z</time></trkpt><trkpt lat="44.9747367" lon="9.2006933"><ele>304.0</ele><time>2026-04-26T07:56:42.018Z</time></trkpt><trkpt lat="44.9747" lon="9.2005633"><ele>304.0</ele><time>2026-04-26T07:56:43.017Z</time></trkpt><trkpt lat="44.9746717" lon="9.2004467"><ele>304.0</ele><time>2026-04-26T07:56:44.017Z</time></trkpt><trkpt lat="44.9746517" lon="9.2003367"><ele>304.0</ele><time>2026-04-26T07:56:45.017Z</time></trkpt><trkpt lat="44.9746567" lon="9.2002217"><ele>303.16666666666663</ele><time>2026-04-26T07:56:46.017Z</time></trkpt><trkpt lat="44.9746733" lon="9.2001133"><ele>302.3333333333333</ele><time>2026-04-26T07:56:47.018Z</time></trkpt><trkpt lat="44.97469" lon="9.2000083"><ele>301.5</ele><time>2026-04-26T07:56:48.017Z</time></trkpt><trkpt lat="44.9746933" lon="9.1998417"><ele>300.6666666666667</ele><time>2026-04-26T07:56:50.017Z</time></trkpt><trkpt lat="44.9746733" lon="9.199755"><ele>299.83333333333337</ele><time>2026-04-26T07:56:51.017Z</time></trkpt><trkpt lat="44.9746333" lon="9.1996317"><ele>299.0</ele><time>2026-04-26T07:56:52.017Z</time></trkpt><trkpt lat="44.9745867" lon="9.1994983"><ele>297.0</ele><time>2026-04-26T07:56:53.018Z</time></trkpt><trkpt lat="44.974525" lon="9.199355"><ele>295.0</ele><time>2026-04-26T07:56:54.017Z</time></trkpt><trkpt lat="44.974485" lon="9.19921"><ele>293.0</ele><time>2026-04-26T07:56:55.018Z</time></trkpt><trkpt lat="44.974445" lon="9.19907"><ele>291.0</ele><time>2026-04-26T07:56:56.017Z</time></trkpt><trkpt lat="44.9743883" lon="9.19893"><ele>289.6</ele><time>2026-04-26T07:56:57.017Z</time></trkpt><trkpt lat="44.9743267" lon="9.1988217"><ele>288.20000000000005</ele><time>2026-04-26T07:56:58.018Z</time></trkpt><trkpt lat="44.9742533" lon="9.19873"><ele>286.79999999999995</ele><time>2026-04-26T07:56:59.017Z</time></trkpt><trkpt lat="44.9741817" lon="9.1986467"><ele>285.4</ele><time>2026-04-26T07:57:00.018Z</time></trkpt><trkpt lat="44.9741033" lon="9.198575"><ele>284.0</ele><time>2026-04-26T07:57:01.017Z</time></trkpt><trkpt lat="44.9739917" lon="9.1985517"><ele>281.8</ele><time>2026-04-26T07:57:02.017Z</time></trkpt><trkpt lat="44.97388" lon="9.1985367"><ele>279.59999999999997</ele><time>2026-04-26T07:57:03.017Z</time></trkpt><trkpt lat="44.9737667" lon="9.19854"><ele>277.4</ele><time>2026-04-26T07:57:04.018Z</time></trkpt><trkpt lat="44.9736567" lon="9.198535"><ele>275.2</ele><time>2026-04-26T07:57:05.018Z</time></trkpt><trkpt lat="44.9735683" lon="9.198515"><ele>273.0</ele><time>2026-04-26T07:57:06.017Z</time></trkpt><trkpt lat="44.9734733" lon="9.1984917"><ele>273.0</ele><time>2026-04-26T07:57:07.018Z</time></trkpt><trkpt lat="44.9733733" lon="9.1984317"><ele>273.0</ele><time>2026-04-26T07:57:08.017Z</time></trkpt><trkpt lat="44.973285" lon="9.1983667"><ele>273.0</ele><time>2026-04-26T07:57:09.018Z</time></trkpt><trkpt lat="44.9731967" lon="9.198315"><ele>273.0</ele><time>2026-04-26T07:57:10.017Z</time></trkpt><trkpt lat="44.973105" lon="9.19826"><ele>273.0</ele><time>2026-04-26T07:57:11.017Z</time></trkpt><trkpt lat="44.973015" lon="9.198175"><ele>269.2</ele><time>2026-04-26T07:57:12.018Z</time></trkpt><trkpt lat="44.97293" lon="9.1980983"><ele>265.4</ele><time>2026-04-26T07:57:13.018Z</time></trkpt><trkpt lat="44.972845" lon="9.1979833"><ele>261.59999999999997</ele><time>2026-04-26T07:57:14.017Z</time></trkpt><trkpt lat="44.9727733" lon="9.1978783"><ele>257.8</ele><time>2026-04-26T07:57:15.017Z</time></trkpt><trkpt lat="44.9726933" lon="9.1977767"><ele>254.0</ele><time>2026-04-26T07:57:16.017Z</time></trkpt><trkpt lat="44.9726067" lon="9.1976817"><ele>254.00000000000003</ele><time>2026-04-26T07:57:17.017Z</time></trkpt><trkpt lat="44.972525" lon="9.197605"><ele>254.0</ele><time>2026-04-26T07:57:18.017Z</time></trkpt><trkpt lat="44.97246" lon="9.197565"><ele>254.0</ele><time>2026-04-26T07:57:19.017Z</time></trkpt><trkpt lat="44.9723767" lon="9.19751"><ele>254.0</ele><time>2026-04-26T07:57:20.018Z</time></trkpt><trkpt lat="44.9723083" lon="9.19745"><ele>254.00000000000003</ele><time>2026-04-26T07:57:21.018Z</time></trkpt><trkpt lat="44.9722417" lon="9.1973783"><ele>254.0</ele><time>2026-04-26T07:57:22.017Z</time></trkpt><trkpt lat="44.9721783" lon="9.1972583"><ele>250.2</ele><time>2026-04-26T07:57:23.018Z</time></trkpt><trkpt lat="44.9721033" lon="9.1971333"><ele>246.39999999999998</ele><time>2026-04-26T07:57:24.017Z</time></trkpt><trkpt lat="44.9720367" lon="9.1970267"><ele>242.6</ele><time>2026-04-26T07:57:25.018Z</time></trkpt><trkpt lat="44.9719633" lon="9.196925"><ele>238.8</ele><time>2026-04-26T07:57:26.017Z</time></trkpt><trkpt lat="44.9718983" lon="9.19682"><ele>235.0</ele><time>2026-04-26T07:57:27.018Z</time></trkpt><trkpt lat="44.9718317" lon="9.196715"><ele>234.99999999999997</ele><time>2026-04-26T07:57:28.017Z</time></trkpt><trkpt lat="44.971785" lon="9.1965967"><ele>235.0</ele><time>2026-04-26T07:57:29.017Z</time></trkpt><trkpt lat="44.97175" lon="9.1964767"><ele>235.0</ele><time>2026-04-26T07:57:30.018Z</time></trkpt><trkpt lat="44.9717267" lon="9.1963567"><ele>235.0</ele><time>2026-04-26T07:57:31.017Z</time></trkpt><trkpt lat="44.9716883" lon="9.196245"><ele>234.99999999999997</ele><time>2026-04-26T07:57:32.018Z</time></trkpt><trkpt lat="44.9716567" lon="9.1961483"><ele>235.0</ele><time>2026-04-26T07:57:33.017Z</time></trkpt><trkpt lat="44.97164" lon="9.19605"><ele>234.16666666666666</ele><time>2026-04-26T07:57:34.017Z</time></trkpt><trkpt lat="44.9716367" lon="9.1959583"><ele>233.33333333333331</ele><time>2026-04-26T07:57:35.017Z</time></trkpt><trkpt lat="44.9716517" lon="9.1958633"><ele>232.5</ele><time>2026-04-26T07:57:36.017Z</time></trkpt><trkpt lat="44.97166" lon="9.1957567"><ele>231.66666666666669</ele><time>2026-04-26T07:57:37.017Z</time></trkpt><trkpt lat="44.9716733" lon="9.1956367"><ele>230.83333333333334</ele><time>2026-04-26T07:57:38.017Z</time></trkpt><trkpt lat="44.9716817" lon="9.1955167"><ele>230.0</ele><time>2026-04-26T07:57:39.017Z</time></trkpt><trkpt lat="44.9716883" lon="9.1953917"><ele>229.0</ele><time>2026-04-26T07:57:40.017Z</time></trkpt><trkpt lat="44.9716917" lon="9.19525"><ele>228.0</ele><time>2026-04-26T07:57:41.018Z</time></trkpt><trkpt lat="44.9716883" lon="9.195095"><ele>227.0</ele><time>2026-04-26T07:57:42.017Z</time></trkpt><trkpt lat="44.9716817" lon="9.1949417"><ele>226.0</ele><time>2026-04-26T07:57:43.017Z</time></trkpt><trkpt lat="44.97168" lon="9.1948"><ele>225.0</ele><time>2026-04-26T07:57:44.018Z</time></trkpt><trkpt lat="44.9716767" lon="9.1946517"><ele>222.0</ele><time>2026-04-26T07:57:45.017Z</time></trkpt><trkpt lat="44.9716733" lon="9.1945017"><ele>219.0</ele><time>2026-04-26T07:57:46.017Z</time></trkpt><trkpt lat="44.97167" lon="9.1943433"><ele>216.0</ele><time>2026-04-26T07:57:47.017Z</time></trkpt><trkpt lat="44.97166" lon="9.1941883"><ele>213.0</ele><time>2026-04-26T07:57:48.017Z</time></trkpt><trkpt lat="44.97164" lon="9.1940233"><ele>210.0</ele><time>2026-04-26T07:57:49.017Z</time></trkpt><trkpt lat="44.9716083" lon="9.1938533"><ele>208.75</ele><time>2026-04-26T07:57:50.018Z</time></trkpt><trkpt lat="44.971575" lon="9.19367"><ele>207.5</ele><time>2026-04-26T07:57:51.017Z</time></trkpt><trkpt lat="44.971545" lon="9.193485"><ele>206.25</ele><time>2026-04-26T07:57:52.017Z</time></trkpt><trkpt lat="44.9715083" lon="9.1933083"><ele>205.0</ele><time>2026-04-26T07:57:53.018Z</time></trkpt><trkpt lat="44.971495" lon="9.193145"><ele>203.83333333333331</ele><time>2026-04-26T07:57:54.018Z</time></trkpt><trkpt lat="44.9714717" lon="9.1930033"><ele>202.66666666666666</ele><time>2026-04-26T07:57:55.017Z</time></trkpt><trkpt lat="44.9714617" lon="9.1928817"><ele>201.5</ele><time>2026-04-26T07:57:56.018Z</time></trkpt><trkpt lat="44.9714517" lon="9.19278"><ele>200.33333333333331</ele><time>2026-04-26T07:57:57.018Z</time></trkpt><trkpt lat="44.9714517" lon="9.192685"><ele>199.16666666666666</ele><time>2026-04-26T07:57:58.018Z</time></trkpt><trkpt lat="44.9714583" lon="9.19257"><ele>198.0</ele><time>2026-04-26T07:58:00.018Z</time></trkpt><trkpt lat="44.9714167" lon="9.1924733"><ele>198.0</ele><time>2026-04-26T07:58:03.018Z</time></trkpt><trkpt lat="44.9713117" lon="9.19239"><ele>198.0</ele><time>2026-04-26T07:58:05.018Z</time></trkpt><trkpt lat="44.9712217" lon="9.192345"><ele>198.0</ele><time>2026-04-26T07:58:06.017Z</time></trkpt><trkpt lat="44.9711383" lon="9.1923033"><ele>198.0</ele><time>2026-04-26T07:58:07.017Z</time></trkpt><trkpt lat="44.9710467" lon="9.1922867"><ele>198.0</ele><time>2026-04-26T07:58:08.018Z</time></trkpt><trkpt lat="44.9709467" lon="9.192285"><ele>196.75</ele><time>2026-04-26T07:58:09.017Z</time></trkpt><trkpt lat="44.97085" lon="9.1923033"><ele>195.5</ele><time>2026-04-26T07:58:10.018Z</time></trkpt><trkpt lat="44.9706967" lon="9.1924433"><ele>194.25</ele><time>2026-04-26T07:58:11.017Z</time></trkpt><trkpt lat="44.9705667" lon="9.1925717"><ele>193.0</ele><time>2026-04-26T07:58:12.018Z</time></trkpt><trkpt lat="44.9704183" lon="9.1928183"><ele>193.0</ele><time>2026-04-26T07:58:13.018Z</time></trkpt><trkpt lat="44.9703" lon="9.193075"><ele>193.0</ele><time>2026-04-26T07:58:14.018Z</time></trkpt><trkpt lat="44.9701883" lon="9.193305"><ele>193.0</ele><time>2026-04-26T07:58:15.018Z</time></trkpt><trkpt lat="44.9700967" lon="9.19355"><ele>192.66666666666666</ele><time>2026-04-26T07:58:16.017Z</time></trkpt><trkpt lat="44.9700067" lon="9.1937833"><ele>192.33333333333331</ele><time>2026-04-26T07:58:17.018Z</time></trkpt><trkpt lat="44.9699083" lon="9.1940083"><ele>192.0</ele><time>2026-04-26T07:58:18.018Z</time></trkpt><trkpt lat="44.9698083" lon="9.1942233"><ele>192.0</ele><time>2026-04-26T07:58:19.017Z</time></trkpt><trkpt lat="44.9697217" lon="9.1944417"><ele>192.0</ele><time>2026-04-26T07:58:20.018Z</time></trkpt><trkpt lat="44.9696383" lon="9.1946567"><ele>192.0</ele><time>2026-04-26T07:58:21.018Z</time></trkpt><trkpt lat="44.9695417" lon="9.1948483"><ele>194.0</ele><time>2026-04-26T07:58:22.017Z</time></trkpt><trkpt lat="44.9694267" lon="9.1950483"><ele>196.0</ele><time>2026-04-26T07:58:23.018Z</time></trkpt><trkpt lat="44.9693067" lon="9.1952633"><ele>198.0</ele><time>2026-04-26T07:58:24.017Z</time></trkpt><trkpt lat="44.9691717" lon="9.195475"><ele>196.0</ele><time>2026-04-26T07:58:25.017Z</time></trkpt><trkpt lat="44.9690517" lon="9.1956783"><ele>194.0</ele><time>2026-04-26T07:58:26.017Z</time></trkpt><trkpt lat="44.96895" lon="9.1958983"><ele>192.0</ele><time>2026-04-26T07:58:27.017Z</time></trkpt><trkpt lat="44.9688467" lon="9.196125"><ele>192.0</ele><time>2026-04-26T07:58:28.017Z</time></trkpt><trkpt lat="44.96875" lon="9.1963433"><ele>192.0</ele><time>2026-04-26T07:58:29.017Z</time></trkpt><trkpt lat="44.9686567" lon="9.1965483"><ele>192.0</ele><time>2026-04-26T07:58:30.017Z</time></trkpt><trkpt lat="44.9685533" lon="9.1967367"><ele>191.0</ele><time>2026-04-26T07:58:31.018Z</time></trkpt><trkpt lat="44.968435" lon="9.1968967"><ele>190.0</ele><time>2026-04-26T07:58:32.017Z</time></trkpt><trkpt lat="44.968295" lon="9.1970217"><ele>189.0</ele><time>2026-04-26T07:58:33.017Z</time></trkpt><trkpt lat="44.9681483" lon="9.19716"><ele>189.0</ele><time>2026-04-26T07:58:34.018Z</time></trkpt><trkpt lat="44.9680167" lon="9.197305"><ele>189.0</ele><time>2026-04-26T07:58:35.017Z</time></trkpt><trkpt lat="44.9679067" lon="9.19749"><ele>189.0</ele><time>2026-04-26T07:58:36.017Z</time></trkpt><trkpt lat="44.9678233" lon="9.1977033"><ele>190.33333333333331</ele><time>2026-04-26T07:58:37.017Z</time></trkpt><trkpt lat="44.9677733" lon="9.1979383"><ele>191.66666666666666</ele><time>2026-04-26T07:58:38.017Z</time></trkpt><trkpt lat="44.967745" lon="9.1981717"><ele>193.0</ele><time>2026-04-26T07:58:39.018Z</time></trkpt><trkpt lat="44.9677283" lon="9.1983967"><ele>194.25</ele><time>2026-04-26T07:58:40.017Z</time></trkpt><trkpt lat="44.9677083" lon="9.19861"><ele>195.5</ele><time>2026-04-26T07:58:41.018Z</time></trkpt><trkpt lat="44.9676967" lon="9.1988117"><ele>196.75</ele><time>2026-04-26T07:58:42.018Z</time></trkpt><trkpt lat="44.9676733" lon="9.198995"><ele>198.0</ele><time>2026-04-26T07:58:43.017Z</time></trkpt><trkpt lat="44.96766" lon="9.19917"><ele>198.75</ele><time>2026-04-26T07:58:44.017Z</time></trkpt><trkpt lat="44.9676583" lon="9.199335"><ele>199.5</ele><time>2026-04-26T07:58:45.018Z</time></trkpt><trkpt lat="44.9676667" lon="9.1995067"><ele>200.25</ele><time>2026-04-26T07:58:46.017Z</time></trkpt><trkpt lat="44.9676883" lon="9.1996733"><ele>201.0</ele><time>2026-04-26T07:58:47.017Z</time></trkpt><trkpt lat="44.96769" lon="9.1998217"><ele>201.75</ele><time>2026-04-26T07:58:48.017Z</time></trkpt><trkpt lat="44.9676683" lon="9.1999767"><ele>202.5</ele><time>2026-04-26T07:58:49.018Z</time></trkpt><trkpt lat="44.967625" lon="9.2001367"><ele>203.25</ele><time>2026-04-26T07:58:50.018Z</time></trkpt><trkpt lat="44.96757" lon="9.2002967"><ele>204.0</ele><time>2026-04-26T07:58:51.017Z</time></trkpt><trkpt lat="44.9675217" lon="9.2004817"><ele>202.0</ele><time>2026-04-26T07:58:52.018Z</time></trkpt><trkpt lat="44.9674883" lon="9.200685"><ele>200.0</ele><time>2026-04-26T07:58:53.018Z</time></trkpt><trkpt lat="44.9674617" lon="9.2009083"><ele>198.0</ele><time>2026-04-26T07:58:54.017Z</time></trkpt><trkpt lat="44.9674417" lon="9.20115"><ele>198.0</ele><time>2026-04-26T07:58:55.017Z</time></trkpt><trkpt lat="44.9674167" lon="9.20138"><ele>198.0</ele><time>2026-04-26T07:58:56.017Z</time></trkpt><trkpt lat="44.9673783" lon="9.2016"><ele>198.0</ele><time>2026-04-26T07:58:57.017Z</time></trkpt><trkpt lat="44.9673" lon="9.2018233"><ele>198.0</ele><time>2026-04-26T07:58:58.017Z</time></trkpt><trkpt lat="44.9672083" lon="9.2020383"><ele>198.0</ele><time>2026-04-26T07:58:59.018Z</time></trkpt><trkpt lat="44.9671" lon="9.20224"><ele>198.0</ele><time>2026-04-26T07:59:00.018Z</time></trkpt><trkpt lat="44.9669833" lon="9.2024383"><ele>198.0</ele><time>2026-04-26T07:59:01.018Z</time></trkpt><trkpt lat="44.9668667" lon="9.2026317"><ele>198.0</ele><time>2026-04-26T07:59:02.017Z</time></trkpt><trkpt lat="44.966745" lon="9.2028217"><ele>198.0</ele><time>2026-04-26T07:59:03.018Z</time></trkpt><trkpt lat="44.9666233" lon="9.203005"><ele>200.0</ele><time>2026-04-26T07:59:04.018Z</time></trkpt><trkpt lat="44.9665067" lon="9.2031833"><ele>202.0</ele><time>2026-04-26T07:59:05.017Z</time></trkpt><trkpt lat="44.966395" lon="9.2033533"><ele>204.0</ele><time>2026-04-26T07:59:06.017Z</time></trkpt><trkpt lat="44.9663033" lon="9.2035217"><ele>204.0</ele><time>2026-04-26T07:59:07.018Z</time></trkpt><trkpt lat="44.966215" lon="9.203665"><ele>204.0</ele><time>2026-04-26T07:59:08.017Z</time></trkpt><trkpt lat="44.9661267" lon="9.2037967"><ele>204.0</ele><time>2026-04-26T07:59:09.018Z</time></trkpt><trkpt lat="44.9660533" lon="9.20391"><ele>204.0</ele><time>2026-04-26T07:59:10.017Z</time></trkpt><trkpt lat="44.9659833" lon="9.2040133"><ele>203.66666666666666</ele><time>2026-04-26T07:59:11.017Z</time></trkpt><trkpt lat="44.96592" lon="9.2040983"><ele>203.33333333333331</ele><time>2026-04-26T07:59:12.018Z</time></trkpt><trkpt lat="44.9658667" lon="9.2041917"><ele>203.0</ele><time>2026-04-26T07:59:13.017Z</time></trkpt><trkpt lat="44.96582" lon="9.2042883"><ele>202.66666666666666</ele><time>2026-04-26T07:59:14.017Z</time></trkpt><trkpt lat="44.9657783" lon="9.20441"><ele>202.33333333333331</ele><time>2026-04-26T07:59:15.017Z</time></trkpt><trkpt lat="44.96575" lon="9.204535"><ele>202.0</ele><time>2026-04-26T07:59:16.018Z</time></trkpt><trkpt lat="44.9657467" lon="9.2046817"><ele>202.0</ele><time>2026-04-26T07:59:17.017Z</time></trkpt><trkpt lat="44.9657067" lon="9.2047867"><ele>202.0</ele><time>2026-04-26T07:59:18.018Z</time></trkpt><trkpt lat="44.96564" lon="9.2049133"><ele>202.0</ele><time>2026-04-26T07:59:19.017Z</time></trkpt><trkpt lat="44.9655633" lon="9.2050367"><ele>202.0</ele><time>2026-04-26T07:59:20.017Z</time></trkpt><trkpt lat="44.965485" lon="9.2051767"><ele>202.0</ele><time>2026-04-26T07:59:21.017Z</time></trkpt><trkpt lat="44.965395" lon="9.2053"><ele>203.0</ele><time>2026-04-26T07:59:22.017Z</time></trkpt><trkpt lat="44.9652967" lon="9.205405"><ele>204.0</ele><time>2026-04-26T07:59:23.018Z</time></trkpt><trkpt lat="44.9651867" lon="9.2055167"><ele>205.0</ele><time>2026-04-26T07:59:24.017Z</time></trkpt><trkpt lat="44.9650717" lon="9.2056367"><ele>206.0</ele><time>2026-04-26T07:59:25.018Z</time></trkpt><trkpt lat="44.96495" lon="9.2057567"><ele>207.0</ele><time>2026-04-26T07:59:26.018Z</time></trkpt><trkpt lat="44.964825" lon="9.2058767"><ele>208.0</ele><time>2026-04-26T07:59:27.017Z</time></trkpt><trkpt lat="44.9647017" lon="9.2059917"><ele>209.0</ele><time>2026-04-26T07:59:28.018Z</time></trkpt><trkpt lat="44.9645867" lon="9.206075"><ele>210.0</ele><time>2026-04-26T07:59:29.018Z</time></trkpt><trkpt lat="44.9644883" lon="9.2062083"><ele>210.0</ele><time>2026-04-26T07:59:30.017Z</time></trkpt><trkpt lat="44.96438" lon="9.2063383"><ele>210.0</ele><time>2026-04-26T07:59:31.017Z</time></trkpt><trkpt lat="44.9643033" lon="9.2064233"><ele>210.0</ele><time>2026-04-26T07:59:32.018Z</time></trkpt><trkpt lat="44.96424" lon="9.206535"><ele>210.0</ele><time>2026-04-26T07:59:33.017Z</time></trkpt><trkpt lat="44.9641867" lon="9.2066633"><ele>210.0</ele><time>2026-04-26T07:59:34.017Z</time></trkpt><trkpt lat="44.9641333" lon="9.206785"><ele>210.0</ele><time>2026-04-26T07:59:35.018Z</time></trkpt><trkpt lat="44.9640733" lon="9.2069183"><ele>210.0</ele><time>2026-04-26T07:59:36.018Z</time></trkpt><trkpt lat="44.964005" lon="9.2070483"><ele>210.0</ele><time>2026-04-26T07:59:37.018Z</time></trkpt><trkpt lat="44.9639183" lon="9.20717"><ele>210.0</ele><time>2026-04-26T07:59:38.017Z</time></trkpt><trkpt lat="44.96383" lon="9.2072883"><ele>212.0</ele><time>2026-04-26T07:59:39.018Z</time></trkpt><trkpt lat="44.96374" lon="9.2074117"><ele>214.0</ele><time>2026-04-26T07:59:40.018Z</time></trkpt><trkpt lat="44.9636433" lon="9.2075333"><ele>216.0</ele><time>2026-04-26T07:59:41.018Z</time></trkpt><trkpt lat="44.9635533" lon="9.20766"><ele>218.0</ele><time>2026-04-26T07:59:42.017Z</time></trkpt><trkpt lat="44.9634733" lon="9.2077783"><ele>218.0</ele><time>2026-04-26T07:59:43.017Z</time></trkpt><trkpt lat="44.9634017" lon="9.2079067"><ele>218.0</ele><time>2026-04-26T07:59:44.017Z</time></trkpt><trkpt lat="44.9633517" lon="9.2080417"><ele>218.0</ele><time>2026-04-26T07:59:45.017Z</time></trkpt><trkpt lat="44.9633067" lon="9.2081883"><ele>218.0</ele><time>2026-04-26T07:59:46.018Z</time></trkpt><trkpt lat="44.963285" lon="9.2083417"><ele>218.0</ele><time>2026-04-26T07:59:47.018Z</time></trkpt><trkpt lat="44.9632733" lon="9.20846"><ele>217.33333333333334</ele><time>2026-04-26T07:59:48.017Z</time></trkpt><trkpt lat="44.9632717" lon="9.2085617"><ele>216.66666666666669</ele><time>2026-04-26T07:59:49.017Z</time></trkpt><trkpt lat="44.96329" lon="9.2087017"><ele>216.0</ele><time>2026-04-26T07:59:51.017Z</time></trkpt><trkpt lat="44.9633117" lon="9.2088133"><ele>215.33333333333331</ele><time>2026-04-26T07:59:59.018Z</time></trkpt><trkpt lat="44.9632867" lon="9.2089483"><ele>214.66666666666666</ele><time>2026-04-26T08:00:01.018Z</time></trkpt><trkpt lat="44.9632417" lon="9.2090267"><ele>214.0</ele><time>2026-04-26T08:00:02.017Z</time></trkpt><trkpt lat="44.9631917" lon="9.2091"><ele>213.75</ele><time>2026-04-26T08:00:03.017Z</time></trkpt><trkpt lat="44.9631333" lon="9.20916"><ele>213.5</ele><time>2026-04-26T08:00:04.018Z</time></trkpt><trkpt lat="44.9630217" lon="9.20923"><ele>213.25</ele><time>2026-04-26T08:00:05.018Z</time></trkpt><trkpt lat="44.9628983" lon="9.209305"><ele>213.0</ele><time>2026-04-26T08:00:06.018Z</time></trkpt><trkpt lat="44.9627217" lon="9.2093783"><ele>213.0</ele><time>2026-04-26T08:00:07.018Z</time></trkpt><trkpt lat="44.9625633" lon="9.2094317"><ele>213.0</ele><time>2026-04-26T08:00:08.017Z</time></trkpt><trkpt lat="44.962405" lon="9.20949"><ele>213.0</ele><time>2026-04-26T08:00:09.017Z</time></trkpt><trkpt lat="44.9622433" lon="9.209535"><ele>212.33333333333331</ele><time>2026-04-26T08:00:10.017Z</time></trkpt><trkpt lat="44.962085" lon="9.2095833"><ele>211.66666666666666</ele><time>2026-04-26T08:00:11.018Z</time></trkpt><trkpt lat="44.9619417" lon="9.209635"><ele>211.0</ele><time>2026-04-26T08:00:12.017Z</time></trkpt><trkpt lat="44.9617967" lon="9.20969"><ele>210.0</ele><time>2026-04-26T08:00:13.017Z</time></trkpt><trkpt lat="44.961635" lon="9.209745"><ele>209.0</ele><time>2026-04-26T08:00:14.018Z</time></trkpt><trkpt lat="44.9614683" lon="9.2098"><ele>208.0</ele><time>2026-04-26T08:00:15.017Z</time></trkpt><trkpt lat="44.96132" lon="9.2098467"><ele>213.33333333333331</ele><time>2026-04-26T08:00:16.018Z</time></trkpt><trkpt lat="44.9611767" lon="9.2098883"><ele>218.66666666666669</ele><time>2026-04-26T08:00:17.017Z</time></trkpt><trkpt lat="44.9610217" lon="9.2099283"><ele>224.0</ele><time>2026-04-26T08:00:18.018Z</time></trkpt><trkpt lat="44.9608717" lon="9.2099583"><ele>222.0</ele><time>2026-04-26T08:00:19.017Z</time></trkpt><trkpt lat="44.96071" lon="9.2100317"><ele>220.0</ele><time>2026-04-26T08:00:20.017Z</time></trkpt><trkpt lat="44.9605517" lon="9.2100967"><ele>218.0</ele><time>2026-04-26T08:00:21.017Z</time></trkpt><trkpt lat="44.96039" lon="9.2101833"><ele>218.0</ele><time>2026-04-26T08:00:22.017Z</time></trkpt><trkpt lat="44.9602317" lon="9.2102783"><ele>218.0</ele><time>2026-04-26T08:00:23.018Z</time></trkpt><trkpt lat="44.960085" lon="9.2103667"><ele>218.0</ele><time>2026-04-26T08:00:24.018Z</time></trkpt><trkpt lat="44.9599383" lon="9.2104433"><ele>216.75</ele><time>2026-04-26T08:00:25.017Z</time></trkpt><trkpt lat="44.9598033" lon="9.21053"><ele>215.5</ele><time>2026-04-26T08:00:26.018Z</time></trkpt><trkpt lat="44.959675" lon="9.2106217"><ele>214.25</ele><time>2026-04-26T08:00:27.017Z</time></trkpt><trkpt lat="44.959555" lon="9.2107267"><ele>213.0</ele><time>2026-04-26T08:00:28.017Z</time></trkpt><trkpt lat="44.9594433" lon="9.21085"><ele>213.5</ele><time>2026-04-26T08:00:29.018Z</time></trkpt><trkpt lat="44.9593367" lon="9.210955"><ele>214.0</ele><time>2026-04-26T08:00:30.017Z</time></trkpt><trkpt lat="44.9592383" lon="9.2110617"><ele>214.5</ele><time>2026-04-26T08:00:31.017Z</time></trkpt><trkpt lat="44.9591217" lon="9.21114"><ele>215.0</ele><time>2026-04-26T08:00:32.018Z</time></trkpt><trkpt lat="44.9589833" lon="9.2112"><ele>215.0</ele><time>2026-04-26T08:00:33.017Z</time></trkpt><trkpt lat="44.95885" lon="9.2112667"><ele>215.0</ele><time>2026-04-26T08:00:34.017Z</time></trkpt><trkpt lat="44.9587233" lon="9.21135"><ele>215.0</ele><time>2026-04-26T08:00:35.018Z</time></trkpt><trkpt lat="44.958595" lon="9.2114867"><ele>215.0</ele><time>2026-04-26T08:00:36.018Z</time></trkpt><trkpt lat="44.9584917" lon="9.21168"><ele>214.0</ele><time>2026-04-26T08:00:37.018Z</time></trkpt><trkpt lat="44.95839" lon="9.21188"><ele>213.0</ele><time>2026-04-26T08:00:38.017Z</time></trkpt><trkpt lat="44.9582917" lon="9.2120683"><ele>212.0</ele><time>2026-04-26T08:00:39.017Z</time></trkpt><trkpt lat="44.9581917" lon="9.21227"><ele>215.0</ele><time>2026-04-26T08:00:40.017Z</time></trkpt><trkpt lat="44.95808" lon="9.2124683"><ele>218.0</ele><time>2026-04-26T08:00:41.017Z</time></trkpt><trkpt lat="44.9579667" lon="9.2126567"><ele>221.0</ele><time>2026-04-26T08:00:42.018Z</time></trkpt><trkpt lat="44.9578633" lon="9.21284"><ele>221.0</ele><time>2026-04-26T08:00:43.017Z</time></trkpt><trkpt lat="44.95777" lon="9.213015"><ele>221.0</ele><time>2026-04-26T08:00:44.017Z</time></trkpt><trkpt lat="44.9576783" lon="9.2131817"><ele>221.0</ele><time>2026-04-26T08:00:45.018Z</time></trkpt><trkpt lat="44.9575933" lon="9.2133267"><ele>221.0</ele><time>2026-04-26T08:00:46.017Z</time></trkpt><trkpt lat="44.9575217" lon="9.2134633"><ele>220.8</ele><time>2026-04-26T08:00:47.017Z</time></trkpt><trkpt lat="44.9574717" lon="9.2135817"><ele>220.60000000000002</ele><time>2026-04-26T08:00:48.017Z</time></trkpt><trkpt lat="44.9574417" lon="9.2137067"><ele>220.4</ele><time>2026-04-26T08:00:49.017Z</time></trkpt><trkpt lat="44.9574233" lon="9.21384"><ele>220.2</ele><time>2026-04-26T08:00:50.017Z</time></trkpt><trkpt lat="44.95742" lon="9.213965"><ele>220.0</ele><time>2026-04-26T08:00:51.017Z</time></trkpt><trkpt lat="44.95744" lon="9.214095"><ele>220.0</ele><time>2026-04-26T08:00:52.017Z</time></trkpt><trkpt lat="44.9574467" lon="9.2142233"><ele>220.0</ele><time>2026-04-26T08:00:53.017Z</time></trkpt><trkpt lat="44.9574333" lon="9.2143517"><ele>220.0</ele><time>2026-04-26T08:00:54.018Z</time></trkpt><trkpt lat="44.9573967" lon="9.2144817"><ele>220.0</ele><time>2026-04-26T08:00:55.017Z</time></trkpt><trkpt lat="44.9573633" lon="9.2145983"><ele>220.0</ele><time>2026-04-26T08:00:56.018Z</time></trkpt><trkpt lat="44.9573083" lon="9.214725"><ele>220.25</ele><time>2026-04-26T08:00:57.017Z</time></trkpt><trkpt lat="44.9572433" lon="9.21486"><ele>220.5</ele><time>2026-04-26T08:00:58.017Z</time></trkpt><trkpt lat="44.9571583" lon="9.2150017"><ele>220.75</ele><time>2026-04-26T08:00:59.017Z</time></trkpt><trkpt lat="44.9570233" lon="9.2151633"><ele>221.0</ele><time>2026-04-26T08:01:00.017Z</time></trkpt><trkpt lat="44.9568767" lon="9.2153383"><ele>221.0</ele><time>2026-04-26T08:01:01.018Z</time></trkpt><trkpt lat="44.9567483" lon="9.2155067"><ele>221.0</ele><time>2026-04-26T08:01:02.018Z</time></trkpt><trkpt lat="44.9566017" lon="9.2156817"><ele>221.0</ele><time>2026-04-26T08:01:03.017Z</time></trkpt><trkpt lat="44.9564733" lon="9.2158367"><ele>221.5</ele><time>2026-04-26T08:01:04.018Z</time></trkpt><trkpt lat="44.9563533" lon="9.2159917"><ele>222.0</ele><time>2026-04-26T08:01:05.017Z</time></trkpt><trkpt lat="44.9562417" lon="9.2161233"><ele>222.5</ele><time>2026-04-26T08:01:06.018Z</time></trkpt><trkpt lat="44.9561417" lon="9.2162433"><ele>223.0</ele><time>2026-04-26T08:01:07.017Z</time></trkpt><trkpt lat="44.9560467" lon="9.2163233"><ele>223.0</ele><time>2026-04-26T08:01:08.017Z</time></trkpt><trkpt lat="44.9559567" lon="9.2163967"><ele>223.0</ele><time>2026-04-26T08:01:09.017Z</time></trkpt><trkpt lat="44.9558517" lon="9.21644"><ele>223.0</ele><time>2026-04-26T08:01:10.017Z</time></trkpt><trkpt lat="44.9557467" lon="9.21646"><ele>223.0</ele><time>2026-04-26T08:01:11.018Z</time></trkpt><trkpt lat="44.955635" lon="9.216495"><ele>223.0</ele><time>2026-04-26T08:01:12.018Z</time></trkpt><trkpt lat="44.9555067" lon="9.2165633"><ele>223.0</ele><time>2026-04-26T08:01:13.017Z</time></trkpt><trkpt lat="44.9553833" lon="9.2166483"><ele>223.0</ele><time>2026-04-26T08:01:14.017Z</time></trkpt><trkpt lat="44.955255" lon="9.2167533"><ele>223.0</ele><time>2026-04-26T08:01:15.018Z</time></trkpt><trkpt lat="44.95514" lon="9.2168417"><ele>223.0</ele><time>2026-04-26T08:01:16.018Z</time></trkpt><trkpt lat="44.955025" lon="9.2169283"><ele>223.0</ele><time>2026-04-26T08:01:17.018Z</time></trkpt><trkpt lat="44.9549033" lon="9.21701"><ele>223.0</ele><time>2026-04-26T08:01:18.017Z</time></trkpt><trkpt lat="44.954765" lon="9.217065"><ele>223.0</ele><time>2026-04-26T08:01:19.017Z</time></trkpt><trkpt lat="44.9546317" lon="9.2171533"><ele>223.0</ele><time>2026-04-26T08:01:20.017Z</time></trkpt><trkpt lat="44.9545117" lon="9.2172483"><ele>224.0</ele><time>2026-04-26T08:01:21.018Z</time></trkpt><trkpt lat="44.9544" lon="9.2173567"><ele>225.0</ele><time>2026-04-26T08:01:22.017Z</time></trkpt><trkpt lat="44.9542783" lon="9.2175183"><ele>226.0</ele><time>2026-04-26T08:01:23.017Z</time></trkpt><trkpt lat="44.9542017" lon="9.2177067"><ele>226.0</ele><time>2026-04-26T08:01:24.018Z</time></trkpt><trkpt lat="44.9541467" lon="9.2179217"><ele>226.0</ele><time>2026-04-26T08:01:25.018Z</time></trkpt><trkpt lat="44.9540767" lon="9.2181067"><ele>226.0</ele><time>2026-04-26T08:01:26.017Z</time></trkpt><trkpt lat="44.9539967" lon="9.2182967"><ele>227.66666666666666</ele><time>2026-04-26T08:01:27.017Z</time></trkpt><trkpt lat="44.9539267" lon="9.218525"><ele>229.33333333333331</ele><time>2026-04-26T08:01:28.018Z</time></trkpt><trkpt lat="44.9538583" lon="9.2187383"><ele>231.0</ele><time>2026-04-26T08:01:29.017Z</time></trkpt><trkpt lat="44.953775" lon="9.2189583"><ele>232.66666666666669</ele><time>2026-04-26T08:01:30.017Z</time></trkpt><trkpt lat="44.9536833" lon="9.2191817"><ele>234.33333333333334</ele><time>2026-04-26T08:01:31.017Z</time></trkpt><trkpt lat="44.9535883" lon="9.21942"><ele>236.0</ele><time>2026-04-26T08:01:32.017Z</time></trkpt><trkpt lat="44.9534767" lon="9.2196517"><ele>233.66666666666669</ele><time>2026-04-26T08:01:33.018Z</time></trkpt><trkpt lat="44.9533733" lon="9.2198617"><ele>231.33333333333331</ele><time>2026-04-26T08:01:34.018Z</time></trkpt><trkpt lat="44.9533017" lon="9.22007"><ele>229.0</ele><time>2026-04-26T08:01:35.017Z</time></trkpt><trkpt lat="44.95321" lon="9.2202517"><ele>229.0</ele><time>2026-04-26T08:01:36.017Z</time></trkpt><trkpt lat="44.9531117" lon="9.22044"><ele>229.0</ele><time>2026-04-26T08:01:37.017Z</time></trkpt><trkpt lat="44.953005" lon="9.2206117"><ele>229.0</ele><time>2026-04-26T08:01:38.018Z</time></trkpt><trkpt lat="44.9529067" lon="9.2207717"><ele>231.75</ele><time>2026-04-26T08:01:39.018Z</time></trkpt><trkpt lat="44.95282" lon="9.220935"><ele>234.5</ele><time>2026-04-26T08:01:40.018Z</time></trkpt><trkpt lat="44.952735" lon="9.2211083"><ele>237.25</ele><time>2026-04-26T08:01:41.018Z</time></trkpt><trkpt lat="44.9526533" lon="9.221265"><ele>240.0</ele><time>2026-04-26T08:01:42.017Z</time></trkpt><trkpt lat="44.9525833" lon="9.2214333"><ele>237.75</ele><time>2026-04-26T08:01:43.017Z</time></trkpt><trkpt lat="44.95252" lon="9.2216017"><ele>235.5</ele><time>2026-04-26T08:01:44.017Z</time></trkpt><trkpt lat="44.9524667" lon="9.2217683"><ele>233.25</ele><time>2026-04-26T08:01:45.017Z</time></trkpt><trkpt lat="44.9524433" lon="9.221965"><ele>231.0</ele><time>2026-04-26T08:01:46.017Z</time></trkpt><trkpt lat="44.9524217" lon="9.2221533"><ele>232.0</ele><time>2026-04-26T08:01:47.017Z</time></trkpt><trkpt lat="44.95242" lon="9.2223467"><ele>233.0</ele><time>2026-04-26T08:01:48.017Z</time></trkpt><trkpt lat="44.9524017" lon="9.2225267"><ele>234.0</ele><time>2026-04-26T08:01:49.017Z</time></trkpt><trkpt lat="44.9523733" lon="9.222705"><ele>235.0</ele><time>2026-04-26T08:01:50.017Z</time></trkpt><trkpt lat="44.9523433" lon="9.2228567"><ele>235.0</ele><time>2026-04-26T08:01:51.017Z</time></trkpt><trkpt lat="44.9522967" lon="9.223"><ele>235.0</ele><time>2026-04-26T08:01:52.018Z</time></trkpt><trkpt lat="44.952225" lon="9.22312"><ele>235.0</ele><time>2026-04-26T08:01:53.018Z</time></trkpt><trkpt lat="44.9521267" lon="9.2232083"><ele>235.0</ele><time>2026-04-26T08:01:54.017Z</time></trkpt><trkpt lat="44.9520217" lon="9.2232917"><ele>235.5</ele><time>2026-04-26T08:01:55.018Z</time></trkpt><trkpt lat="44.9519017" lon="9.22337"><ele>236.0</ele><time>2026-04-26T08:01:56.018Z</time></trkpt><trkpt lat="44.9517883" lon="9.2234517"><ele>236.5</ele><time>2026-04-26T08:01:57.017Z</time></trkpt><trkpt lat="44.951675" lon="9.2235333"><ele>237.0</ele><time>2026-04-26T08:01:58.018Z</time></trkpt><trkpt lat="44.9515683" lon="9.2236117"><ele>236.0</ele><time>2026-04-26T08:01:59.017Z</time></trkpt><trkpt lat="44.95147" lon="9.2236983"><ele>235.0</ele><time>2026-04-26T08:02:00.017Z</time></trkpt><trkpt lat="44.9513817" lon="9.2237967"><ele>234.0</ele><time>2026-04-26T08:02:01.018Z</time></trkpt><trkpt lat="44.9513033" lon="9.2239033"><ele>233.0</ele><time>2026-04-26T08:02:02.017Z</time></trkpt><trkpt lat="44.9512317" lon="9.2240233"><ele>232.0</ele><time>2026-04-26T08:02:03.017Z</time></trkpt><trkpt lat="44.951165" lon="9.22414"><ele>232.0</ele><time>2026-04-26T08:02:04.017Z</time></trkpt><trkpt lat="44.951085" lon="9.2242617"><ele>232.0</ele><time>2026-04-26T08:02:05.018Z</time></trkpt><trkpt lat="44.9510117" lon="9.2243767"><ele>232.0</ele><time>2026-04-26T08:02:06.017Z</time></trkpt><trkpt lat="44.950935" lon="9.224505"><ele>232.0</ele><time>2026-04-26T08:02:07.017Z</time></trkpt><trkpt lat="44.9508633" lon="9.22462"><ele>231.6</ele><time>2026-04-26T08:02:08.017Z</time></trkpt><trkpt lat="44.9507867" lon="9.2247383"><ele>231.2</ele><time>2026-04-26T08:02:09.018Z</time></trkpt><trkpt lat="44.9507167" lon="9.2248517"><ele>230.8</ele><time>2026-04-26T08:02:10.018Z</time></trkpt><trkpt lat="44.95066" lon="9.224975"><ele>230.4</ele><time>2026-04-26T08:02:11.017Z</time></trkpt><trkpt lat="44.950595" lon="9.2250933"><ele>230.0</ele><time>2026-04-26T08:02:12.017Z</time></trkpt><trkpt lat="44.9505267" lon="9.2252117"><ele>231.25</ele><time>2026-04-26T08:02:13.017Z</time></trkpt><trkpt lat="44.9504517" lon="9.2253067"><ele>232.5</ele><time>2026-04-26T08:02:14.017Z</time></trkpt><trkpt lat="44.9503533" lon="9.2253867"><ele>233.75</ele><time>2026-04-26T08:02:15.017Z</time></trkpt><trkpt lat="44.950245" lon="9.2254367"><ele>235.0</ele><time>2026-04-26T08:02:16.018Z</time></trkpt><trkpt lat="44.9501133" lon="9.2254633"><ele>234.75</ele><time>2026-04-26T08:02:17.017Z</time></trkpt><trkpt lat="44.9499683" lon="9.2254717"><ele>234.5</ele><time>2026-04-26T08:02:18.017Z</time></trkpt><trkpt lat="44.9498317" lon="9.225475"><ele>234.25</ele><time>2026-04-26T08:02:19.018Z</time></trkpt><trkpt lat="44.9496883" lon="9.2254683"><ele>234.0</ele><time>2026-04-26T08:02:20.018Z</time></trkpt><trkpt lat="44.9495433" lon="9.2254767"><ele>234.0</ele><time>2026-04-26T08:02:21.018Z</time></trkpt><trkpt lat="44.9493933" lon="9.2254833"><ele>234.0</ele><time>2026-04-26T08:02:22.017Z</time></trkpt><trkpt lat="44.9492483" lon="9.2254867"><ele>234.0</ele><time>2026-04-26T08:02:23.018Z</time></trkpt><trkpt lat="44.9491067" lon="9.2255"><ele>234.0</ele><time>2026-04-26T08:02:24.017Z</time></trkpt><trkpt lat="44.9489833" lon="9.2255417"><ele>234.25</ele><time>2026-04-26T08:02:25.017Z</time></trkpt><trkpt lat="44.94885" lon="9.225575"><ele>234.5</ele><time>2026-04-26T08:02:26.017Z</time></trkpt><trkpt lat="44.9487367" lon="9.2256233"><ele>234.75</ele><time>2026-04-26T08:02:27.018Z</time></trkpt><trkpt lat="44.94863" lon="9.225685"><ele>235.0</ele><time>2026-04-26T08:02:28.017Z</time></trkpt><trkpt lat="44.9485417" lon="9.2257667"><ele>236.0</ele><time>2026-04-26T08:02:29.017Z</time></trkpt><trkpt lat="44.9484617" lon="9.2258783"><ele>237.0</ele><time>2026-04-26T08:02:30.018Z</time></trkpt><trkpt lat="44.948395" lon="9.2260183"><ele>238.0</ele><time>2026-04-26T08:02:31.017Z</time></trkpt><trkpt lat="44.9483233" lon="9.2261567"><ele>239.0</ele><time>2026-04-26T08:02:32.018Z</time></trkpt><trkpt lat="44.94824" lon="9.2262767"><ele>239.0</ele><time>2026-04-26T08:02:33.017Z</time></trkpt><trkpt lat="44.948125" lon="9.2263683"><ele>239.0</ele><time>2026-04-26T08:02:34.017Z</time></trkpt><trkpt lat="44.9480033" lon="9.2264133"><ele>239.0</ele><time>2026-04-26T08:02:35.017Z</time></trkpt><trkpt lat="44.947855" lon="9.226415"><ele>239.0</ele><time>2026-04-26T08:02:36.017Z</time></trkpt><trkpt lat="44.9476917" lon="9.226395"><ele>238.75</ele><time>2026-04-26T08:02:37.017Z</time></trkpt><trkpt lat="44.947535" lon="9.2263867"><ele>238.5</ele><time>2026-04-26T08:02:38.017Z</time></trkpt><trkpt lat="44.947395" lon="9.22636"><ele>238.25</ele><time>2026-04-26T08:02:39.018Z</time></trkpt><trkpt lat="44.9472633" lon="9.2263417"><ele>238.0</ele><time>2026-04-26T08:02:40.018Z</time></trkpt><trkpt lat="44.94713" lon="9.2263483"><ele>238.0</ele><time>2026-04-26T08:02:41.018Z</time></trkpt><trkpt lat="44.9470333" lon="9.2263683"><ele>238.0</ele><time>2026-04-26T08:02:42.017Z</time></trkpt><trkpt lat="44.9469517" lon="9.2264283"><ele>238.0</ele><time>2026-04-26T08:02:43.017Z</time></trkpt><trkpt lat="44.9468717" lon="9.2265117"><ele>238.0</ele><time>2026-04-26T08:02:44.017Z</time></trkpt><trkpt lat="44.9467817" lon="9.2265867"><ele>238.0</ele><time>2026-04-26T08:02:45.017Z</time></trkpt><trkpt lat="44.94667" lon="9.22661"><ele>241.25</ele><time>2026-04-26T08:02:46.018Z</time></trkpt><trkpt lat="44.9465417" lon="9.2266017"><ele>244.5</ele><time>2026-04-26T08:02:47.018Z</time></trkpt><trkpt lat="44.9464" lon="9.2265983"><ele>247.75</ele><time>2026-04-26T08:02:48.017Z</time></trkpt><trkpt lat="44.9462433" lon="9.22661"><ele>251.0</ele><time>2026-04-26T08:02:49.018Z</time></trkpt><trkpt lat="44.9460867" lon="9.2266383"><ele>251.0</ele><time>2026-04-26T08:02:50.018Z</time></trkpt><trkpt lat="44.9459333" lon="9.226665"><ele>251.0</ele><time>2026-04-26T08:02:51.018Z</time></trkpt><trkpt lat="44.9457817" lon="9.2266983"><ele>251.0</ele><time>2026-04-26T08:02:52.017Z</time></trkpt><trkpt lat="44.9456333" lon="9.226725"><ele>251.25</ele><time>2026-04-26T08:02:53.017Z</time></trkpt><trkpt lat="44.9454767" lon="9.22675"><ele>251.5</ele><time>2026-04-26T08:02:54.017Z</time></trkpt><trkpt lat="44.9453367" lon="9.226785"><ele>251.75</ele><time>2026-04-26T08:02:55.018Z</time></trkpt><trkpt lat="44.94522" lon="9.2268217"><ele>252.0</ele><time>2026-04-26T08:02:56.017Z</time></trkpt><trkpt lat="44.9450883" lon="9.2268533"><ele>251.5</ele><time>2026-04-26T08:02:57.017Z</time></trkpt><trkpt lat="44.9449683" lon="9.226875"><ele>251.0</ele><time>2026-04-26T08:02:58.018Z</time></trkpt><trkpt lat="44.9448383" lon="9.226885"><ele>250.5</ele><time>2026-04-26T08:02:59.017Z</time></trkpt><trkpt lat="44.944705" lon="9.2268983"><ele>250.0</ele><time>2026-04-26T08:03:00.017Z</time></trkpt><trkpt lat="44.9445683" lon="9.2269017"><ele>250.0</ele><time>2026-04-26T08:03:01.018Z</time></trkpt><trkpt lat="44.9444433" lon="9.2269217"><ele>250.0</ele><time>2026-04-26T08:03:02.017Z</time></trkpt><trkpt lat="44.9443183" lon="9.22693"><ele>250.0</ele><time>2026-04-26T08:03:03.017Z</time></trkpt><trkpt lat="44.9441983" lon="9.2269167"><ele>250.0</ele><time>2026-04-26T08:03:04.017Z</time></trkpt><trkpt lat="44.9440733" lon="9.2269183"><ele>249.75</ele><time>2026-04-26T08:03:05.018Z</time></trkpt><trkpt lat="44.9439417" lon="9.2269483"><ele>249.5</ele><time>2026-04-26T08:03:06.017Z</time></trkpt><trkpt lat="44.9438" lon="9.227"><ele>249.25</ele><time>2026-04-26T08:03:07.018Z</time></trkpt><trkpt lat="44.9436583" lon="9.2270833"><ele>249.0</ele><time>2026-04-26T08:03:08.018Z</time></trkpt><trkpt lat="44.9435167" lon="9.2271867"><ele>248.33333333333331</ele><time>2026-04-26T08:03:09.017Z</time></trkpt><trkpt lat="44.9433733" lon="9.2272983"><ele>247.66666666666666</ele><time>2026-04-26T08:03:10.018Z</time></trkpt><trkpt lat="44.9432333" lon="9.2274383"><ele>247.0</ele><time>2026-04-26T08:03:11.018Z</time></trkpt><trkpt lat="44.943075" lon="9.227585"><ele>250.33333333333331</ele><time>2026-04-26T08:03:12.018Z</time></trkpt><trkpt lat="44.9429333" lon="9.2277017"><ele>253.66666666666669</ele><time>2026-04-26T08:03:13.017Z</time></trkpt><trkpt lat="44.9428017" lon="9.2277967"><ele>257.0</ele><time>2026-04-26T08:03:14.018Z</time></trkpt><trkpt lat="44.9426767" lon="9.22789"><ele>257.0</ele><time>2026-04-26T08:03:15.018Z</time></trkpt><trkpt lat="44.9425483" lon="9.2279533"><ele>257.0</ele><time>2026-04-26T08:03:16.018Z</time></trkpt><trkpt lat="44.94241" lon="9.227975"><ele>257.0</ele><time>2026-04-26T08:03:17.018Z</time></trkpt><trkpt lat="44.9422633" lon="9.228015"><ele>257.0</ele><time>2026-04-26T08:03:18.017Z</time></trkpt><trkpt lat="44.9421117" lon="9.2280517"><ele>256.33333333333337</ele><time>2026-04-26T08:03:19.018Z</time></trkpt><trkpt lat="44.9419633" lon="9.228075"><ele>255.66666666666669</ele><time>2026-04-26T08:03:20.018Z</time></trkpt><trkpt lat="44.9418067" lon="9.2281"><ele>255.0</ele><time>2026-04-26T08:03:21.018Z</time></trkpt><trkpt lat="44.9416467" lon="9.2281217"><ele>255.0</ele><time>2026-04-26T08:03:22.017Z</time></trkpt><trkpt lat="44.9415067" lon="9.228135"><ele>255.0</ele><time>2026-04-26T08:03:23.017Z</time></trkpt><trkpt lat="44.9413817" lon="9.2281483"><ele>255.0</ele><time>2026-04-26T08:03:24.018Z</time></trkpt><trkpt lat="44.94127" lon="9.228155"><ele>255.0</ele><time>2026-04-26T08:03:25.017Z</time></trkpt><trkpt lat="44.9411667" lon="9.2281383"><ele>255.0</ele><time>2026-04-26T08:03:26.018Z</time></trkpt><trkpt lat="44.9410633" lon="9.2281317"><ele>255.0</ele><time>2026-04-26T08:03:27.018Z</time></trkpt><trkpt lat="44.9409633" lon="9.22812"><ele>255.0</ele><time>2026-04-26T08:03:28.018Z</time></trkpt><trkpt lat="44.9408567" lon="9.2281017"><ele>255.0</ele><time>2026-04-26T08:03:29.017Z</time></trkpt><trkpt lat="44.940745" lon="9.2280867"><ele>255.0</ele><time>2026-04-26T08:03:30.017Z</time></trkpt><trkpt lat="44.9406383" lon="9.22809"><ele>255.5</ele><time>2026-04-26T08:03:31.017Z</time></trkpt><trkpt lat="44.9405417" lon="9.228115"><ele>256.0</ele><time>2026-04-26T08:03:32.017Z</time></trkpt><trkpt lat="44.9404567" lon="9.2281367"><ele>256.5</ele><time>2026-04-26T08:03:33.017Z</time></trkpt><trkpt lat="44.9403967" lon="9.228165"><ele>257.0</ele><time>2026-04-26T08:03:34.017Z</time></trkpt><trkpt lat="44.9403417" lon="9.228225"><ele>257.5</ele><time>2026-04-26T08:03:35.018Z</time></trkpt><trkpt lat="44.940275" lon="9.2282967"><ele>258.0</ele><time>2026-04-26T08:03:36.018Z</time></trkpt><trkpt lat="44.9402317" lon="9.2283933"><ele>259.0</ele><time>2026-04-26T08:03:37.018Z</time></trkpt><trkpt lat="44.9401867" lon="9.2285167"><ele>260.0</ele><time>2026-04-26T08:03:38.018Z</time></trkpt><trkpt lat="44.9401317" lon="9.2286233"><ele>261.0</ele><time>2026-04-26T08:03:39.017Z</time></trkpt><trkpt lat="44.9400733" lon="9.2287117"><ele>262.0</ele><time>2026-04-26T08:03:40.017Z</time></trkpt><trkpt lat="44.9400183" lon="9.2287817"><ele>263.0</ele><time>2026-04-26T08:03:41.017Z</time></trkpt><trkpt lat="44.9399467" lon="9.2288017"><ele>264.0</ele><time>2026-04-26T08:03:42.017Z</time></trkpt><trkpt lat="44.939875" lon="9.2288033"><ele>264.0</ele><time>2026-04-26T08:03:43.017Z</time></trkpt><trkpt lat="44.9397817" lon="9.2287567"><ele>264.0</ele><time>2026-04-26T08:03:44.018Z</time></trkpt><trkpt lat="44.9396917" lon="9.22871"><ele>264.0</ele><time>2026-04-26T08:03:45.017Z</time></trkpt><trkpt lat="44.9396167" lon="9.2287017"><ele>264.0</ele><time>2026-04-26T08:03:46.016Z</time></trkpt><trkpt lat="44.9395383" lon="9.228715"><ele>264.0</ele><time>2026-04-26T08:03:47.016Z</time></trkpt><trkpt lat="44.9394467" lon="9.2287217"><ele>264.0</ele><time>2026-04-26T08:03:48.016Z</time></trkpt><trkpt lat="44.93936" lon="9.22872"><ele>264.0</ele><time>2026-04-26T08:03:49.016Z</time></trkpt><trkpt lat="44.9392617" lon="9.22873"><ele>264.0</ele><time>2026-04-26T08:03:50.017Z</time></trkpt><trkpt lat="44.93917" lon="9.2287467"><ele>264.0</ele><time>2026-04-26T08:03:51.017Z</time></trkpt><trkpt lat="44.9390817" lon="9.2287683"><ele>264.0</ele><time>2026-04-26T08:03:52.017Z</time></trkpt><trkpt lat="44.9389933" lon="9.2288067"><ele>264.0</ele><time>2026-04-26T08:03:53.017Z</time></trkpt><trkpt lat="44.9388983" lon="9.2288633"><ele>264.0</ele><time>2026-04-26T08:03:54.017Z</time></trkpt><trkpt lat="44.9387983" lon="9.2289417"><ele>264.0</ele><time>2026-04-26T08:03:55.017Z</time></trkpt><trkpt lat="44.938675" lon="9.228995"><ele>264.0</ele><time>2026-04-26T08:03:56.016Z</time></trkpt><trkpt lat="44.9385467" lon="9.229035"><ele>264.0</ele><time>2026-04-26T08:03:57.017Z</time></trkpt><trkpt lat="44.93841" lon="9.2290667"><ele>266.2</ele><time>2026-04-26T08:03:58.016Z</time></trkpt><trkpt lat="44.9383083" lon="9.2290817"><ele>268.4</ele><time>2026-04-26T08:03:59.016Z</time></trkpt><trkpt lat="44.9382117" lon="9.2290833"><ele>270.6</ele><time>2026-04-26T08:04:00.017Z</time></trkpt><trkpt lat="44.9381133" lon="9.2290633"><ele>272.8</ele><time>2026-04-26T08:04:01.016Z</time></trkpt><trkpt lat="44.93802" lon="9.2290517"><ele>275.0</ele><time>2026-04-26T08:04:02.017Z</time></trkpt><trkpt lat="44.937925" lon="9.2290633"><ele>275.0</ele><time>2026-04-26T08:04:03.017Z</time></trkpt><trkpt lat="44.9378217" lon="9.22909"><ele>275.0</ele><time>2026-04-26T08:04:04.016Z</time></trkpt><trkpt lat="44.9377183" lon="9.2291217"><ele>275.0</ele><time>2026-04-26T08:04:05.016Z</time></trkpt><trkpt lat="44.9376183" lon="9.2291433"><ele>275.0</ele><time>2026-04-26T08:04:06.017Z</time></trkpt><trkpt lat="44.9375033" lon="9.2291383"><ele>275.0</ele><time>2026-04-26T08:04:07.017Z</time></trkpt><trkpt lat="44.93739" lon="9.2291283"><ele>275.4</ele><time>2026-04-26T08:04:08.016Z</time></trkpt><trkpt lat="44.93728" lon="9.2291283"><ele>275.8</ele><time>2026-04-26T08:04:09.016Z</time></trkpt><trkpt lat="44.9371767" lon="9.2291583"><ele>276.2</ele><time>2026-04-26T08:04:10.016Z</time></trkpt><trkpt lat="44.9370733" lon="9.229205"><ele>276.6</ele><time>2026-04-26T08:04:11.016Z</time></trkpt><trkpt lat="44.93696" lon="9.2292717"><ele>277.0</ele><time>2026-04-26T08:04:12.017Z</time></trkpt><trkpt lat="44.9368517" lon="9.229325"><ele>277.0</ele><time>2026-04-26T08:04:13.016Z</time></trkpt><trkpt lat="44.936745" lon="9.2293633"><ele>277.0</ele><time>2026-04-26T08:04:14.017Z</time></trkpt><trkpt lat="44.9366417" lon="9.22939"><ele>277.0</ele><time>2026-04-26T08:04:15.016Z</time></trkpt><trkpt lat="44.936535" lon="9.2293617"><ele>277.0</ele><time>2026-04-26T08:04:16.016Z</time></trkpt><trkpt lat="44.9364233" lon="9.229345"><ele>277.0</ele><time>2026-04-26T08:04:17.017Z</time></trkpt><trkpt lat="44.9363183" lon="9.2293383"><ele>276.8</ele><time>2026-04-26T08:04:18.017Z</time></trkpt><trkpt lat="44.9362167" lon="9.2293417"><ele>276.6</ele><time>2026-04-26T08:04:19.017Z</time></trkpt><trkpt lat="44.9361183" lon="9.2293767"><ele>276.40000000000003</ele><time>2026-04-26T08:04:20.017Z</time></trkpt><trkpt lat="44.9360267" lon="9.2294167"><ele>276.2</ele><time>2026-04-26T08:04:21.016Z</time></trkpt><trkpt lat="44.9360017" lon="9.2295917"><ele>276.0</ele><time>2026-04-26T08:04:22.016Z</time></trkpt><trkpt lat="44.9359583" lon="9.2297517"><ele>276.5</ele><time>2026-04-26T08:04:23.017Z</time></trkpt><trkpt lat="44.9359133" lon="9.22989"><ele>277.0</ele><time>2026-04-26T08:04:24.017Z</time></trkpt><trkpt lat="44.9358467" lon="9.2300283"><ele>277.5</ele><time>2026-04-26T08:04:25.016Z</time></trkpt><trkpt lat="44.9357633" lon="9.2301533"><ele>278.0</ele><time>2026-04-26T08:04:26.016Z</time></trkpt><trkpt lat="44.9356433" lon="9.2302667"><ele>278.0</ele><time>2026-04-26T08:04:27.016Z</time></trkpt><trkpt lat="44.93552" lon="9.2303667"><ele>278.0</ele><time>2026-04-26T08:04:28.017Z</time></trkpt><trkpt lat="44.9353967" lon="9.23046"><ele>278.0</ele><time>2026-04-26T08:04:29.017Z</time></trkpt><trkpt lat="44.9353017" lon="9.2305733"><ele>278.0</ele><time>2026-04-26T08:04:30.016Z</time></trkpt><trkpt lat="44.9352483" lon="9.2307233"><ele>280.5</ele><time>2026-04-26T08:04:31.016Z</time></trkpt><trkpt lat="44.9352" lon="9.2308683"><ele>283.0</ele><time>2026-04-26T08:04:32.016Z</time></trkpt><trkpt lat="44.9351767" lon="9.2310567"><ele>285.5</ele><time>2026-04-26T08:04:33.017Z</time></trkpt><trkpt lat="44.9351417" lon="9.23124"><ele>288.0</ele><time>2026-04-26T08:04:34.017Z</time></trkpt><trkpt lat="44.935095" lon="9.23139"><ele>287.4</ele><time>2026-04-26T08:04:35.016Z</time></trkpt><trkpt lat="44.9350467" lon="9.2315217"><ele>286.8</ele><time>2026-04-26T08:04:36.016Z</time></trkpt><trkpt lat="44.934985" lon="9.2316217"><ele>286.2</ele><time>2026-04-26T08:04:37.017Z</time></trkpt><trkpt lat="44.9349217" lon="9.2317033"><ele>285.6</ele><time>2026-04-26T08:04:38.016Z</time></trkpt><trkpt lat="44.9348733" lon="9.23177"><ele>285.0</ele><time>2026-04-26T08:04:39.016Z</time></trkpt><trkpt lat="44.9347217" lon="9.2316867"><ele>285.0</ele><time>2026-04-26T08:04:41.016Z</time></trkpt><trkpt lat="44.93462" lon="9.2316133"><ele>285.0</ele><time>2026-04-26T08:04:42.016Z</time></trkpt><trkpt lat="44.9345" lon="9.231565"><ele>285.0</ele><time>2026-04-26T08:04:43.017Z</time></trkpt><trkpt lat="44.934375" lon="9.231555"><ele>285.0</ele><time>2026-04-26T08:04:44.016Z</time></trkpt><trkpt lat="44.9342517" lon="9.2315733"><ele>284.0</ele><time>2026-04-26T08:04:45.016Z</time></trkpt><trkpt lat="44.9341233" lon="9.2315917"><ele>283.0</ele><time>2026-04-26T08:04:46.016Z</time></trkpt><trkpt lat="44.9339983" lon="9.23163"><ele>282.0</ele><time>2026-04-26T08:04:47.017Z</time></trkpt><trkpt lat="44.93389" lon="9.2316633"><ele>281.0</ele><time>2026-04-26T08:04:48.017Z</time></trkpt><trkpt lat="44.9337967" lon="9.2316983"><ele>281.0</ele><time>2026-04-26T08:04:49.016Z</time></trkpt><trkpt lat="44.93372" lon="9.231745"><ele>281.0</ele><time>2026-04-26T08:04:50.017Z</time></trkpt><trkpt lat="44.933655" lon="9.2318133"><ele>281.0</ele><time>2026-04-26T08:04:51.017Z</time></trkpt><trkpt lat="44.9336067" lon="9.2318933"><ele>281.0</ele><time>2026-04-26T08:04:52.017Z</time></trkpt><trkpt lat="44.9335733" lon="9.231985"><ele>281.0</ele><time>2026-04-26T08:04:53.017Z</time></trkpt><trkpt lat="44.9335517" lon="9.2320733"><ele>281.0</ele><time>2026-04-26T08:04:54.016Z</time></trkpt><trkpt lat="44.9335517" lon="9.2322133"><ele>280.6666666666667</ele><time>2026-04-26T08:04:55.016Z</time></trkpt><trkpt lat="44.9335383" lon="9.23233"><ele>280.33333333333337</ele><time>2026-04-26T08:04:56.017Z</time></trkpt><trkpt lat="44.9335117" lon="9.2324417"><ele>280.0</ele><time>2026-04-26T08:04:57.017Z</time></trkpt><trkpt lat="44.93349" lon="9.2325283"><ele>279.6666666666667</ele><time>2026-04-26T08:04:58.016Z</time></trkpt><trkpt lat="44.9333883" lon="9.2325617"><ele>279.3333333333333</ele><time>2026-04-26T08:05:00.017Z</time></trkpt><trkpt lat="44.933315" lon="9.23253"><ele>279.0</ele><time>2026-04-26T08:05:01.017Z</time></trkpt><trkpt lat="44.9332433" lon="9.2324767"><ele>279.0</ele><time>2026-04-26T08:05:02.017Z</time></trkpt><trkpt lat="44.9331683" lon="9.2323917"><ele>279.0</ele><time>2026-04-26T08:05:03.017Z</time></trkpt><trkpt lat="44.9330933" lon="9.2322917"><ele>279.0</ele><time>2026-04-26T08:05:04.016Z</time></trkpt><trkpt lat="44.9330217" lon="9.2322067"><ele>279.0</ele><time>2026-04-26T08:05:05.016Z</time></trkpt><trkpt lat="44.932945" lon="9.2321317"><ele>279.0</ele><time>2026-04-26T08:05:06.017Z</time></trkpt><trkpt lat="44.9328583" lon="9.2320617"><ele>279.0</ele><time>2026-04-26T08:05:07.016Z</time></trkpt><trkpt lat="44.9327667" lon="9.23199"><ele>279.0</ele><time>2026-04-26T08:05:08.017Z</time></trkpt><trkpt lat="44.932675" lon="9.2319117"><ele>279.0</ele><time>2026-04-26T08:05:09.017Z</time></trkpt><trkpt lat="44.9325733" lon="9.2318067"><ele>279.0</ele><time>2026-04-26T08:05:10.017Z</time></trkpt><trkpt lat="44.9324883" lon="9.2317067"><ele>279.0</ele><time>2026-04-26T08:05:11.016Z</time></trkpt><trkpt lat="44.9324" lon="9.2316183"><ele>279.0</ele><time>2026-04-26T08:05:12.016Z</time></trkpt><trkpt lat="44.932305" lon="9.2315333"><ele>279.0</ele><time>2026-04-26T08:05:13.016Z</time></trkpt><trkpt lat="44.9322133" lon="9.2314633"><ele>279.0</ele><time>2026-04-26T08:05:14.016Z</time></trkpt><trkpt lat="44.9321183" lon="9.231435"><ele>279.0</ele><time>2026-04-26T08:05:15.017Z</time></trkpt><trkpt lat="44.9320167" lon="9.2314467"><ele>279.0</ele><time>2026-04-26T08:05:16.017Z</time></trkpt><trkpt lat="44.9319133" lon="9.2314617"><ele>279.0</ele><time>2026-04-26T08:05:17.017Z</time></trkpt><trkpt lat="44.9318067" lon="9.2315283"><ele>279.0</ele><time>2026-04-26T08:05:18.016Z</time></trkpt><trkpt lat="44.93171" lon="9.231605"><ele>279.0</ele><time>2026-04-26T08:05:19.016Z</time></trkpt><trkpt lat="44.9316033" lon="9.231715"><ele>279.0</ele><time>2026-04-26T08:05:20.017Z</time></trkpt><trkpt lat="44.9314883" lon="9.231805"><ele>279.25</ele><time>2026-04-26T08:05:21.017Z</time></trkpt><trkpt lat="44.9313583" lon="9.2318667"><ele>279.5</ele><time>2026-04-26T08:05:22.016Z</time></trkpt><trkpt lat="44.931235" lon="9.2319217"><ele>279.75</ele><time>2026-04-26T08:05:23.016Z</time></trkpt><trkpt lat="44.9311133" lon="9.2319817"><ele>280.0</ele><time>2026-04-26T08:05:24.016Z</time></trkpt><trkpt lat="44.93099" lon="9.2320567"><ele>280.0</ele><time>2026-04-26T08:05:25.017Z</time></trkpt><trkpt lat="44.9308683" lon="9.2321067"><ele>280.0</ele><time>2026-04-26T08:05:26.017Z</time></trkpt><trkpt lat="44.9307533" lon="9.232135"><ele>280.0</ele><time>2026-04-26T08:05:27.016Z</time></trkpt><trkpt lat="44.930635" lon="9.2321367"><ele>280.0</ele><time>2026-04-26T08:05:28.017Z</time></trkpt><trkpt lat="44.930545" lon="9.2321633"><ele>280.0</ele><time>2026-04-26T08:05:29.017Z</time></trkpt><trkpt lat="44.930455" lon="9.2322"><ele>280.0</ele><time>2026-04-26T08:05:30.016Z</time></trkpt><trkpt lat="44.9303617" lon="9.2322667"><ele>280.0</ele><time>2026-04-26T08:05:31.016Z</time></trkpt><trkpt lat="44.9303117" lon="9.2324017"><ele>280.0</ele><time>2026-04-26T08:05:32.017Z</time></trkpt><trkpt lat="44.9302333" lon="9.2325083"><ele>280.0</ele><time>2026-04-26T08:05:33.017Z</time></trkpt><trkpt lat="44.9301317" lon="9.23258"><ele>283.5</ele><time>2026-04-26T08:05:34.017Z</time></trkpt><trkpt lat="44.9300167" lon="9.2326333"><ele>287.0</ele><time>2026-04-26T08:05:35.016Z</time></trkpt><trkpt lat="44.9298783" lon="9.2326633"><ele>290.5</ele><time>2026-04-26T08:05:36.017Z</time></trkpt><trkpt lat="44.92974" lon="9.23269"><ele>294.0</ele><time>2026-04-26T08:05:37.016Z</time></trkpt><trkpt lat="44.9296033" lon="9.2327083"><ele>294.0</ele><time>2026-04-26T08:05:38.017Z</time></trkpt><trkpt lat="44.9294583" lon="9.232735"><ele>294.0</ele><time>2026-04-26T08:05:39.016Z</time></trkpt><trkpt lat="44.929335" lon="9.2327567"><ele>294.0</ele><time>2026-04-26T08:05:40.016Z</time></trkpt><trkpt lat="44.9292083" lon="9.232815"><ele>294.0</ele><time>2026-04-26T08:05:41.016Z</time></trkpt><trkpt lat="44.9290883" lon="9.232865"><ele>294.25</ele><time>2026-04-26T08:05:42.016Z</time></trkpt><trkpt lat="44.9289767" lon="9.2329367"><ele>294.5</ele><time>2026-04-26T08:05:43.017Z</time></trkpt><trkpt lat="44.92885" lon="9.233025"><ele>294.75</ele><time>2026-04-26T08:05:44.016Z</time></trkpt><trkpt lat="44.9287633" lon="9.2331317"><ele>295.0</ele><time>2026-04-26T08:05:45.017Z</time></trkpt><trkpt lat="44.9286583" lon="9.2332283"><ele>298.0</ele><time>2026-04-26T08:05:46.017Z</time></trkpt><trkpt lat="44.9285367" lon="9.2332983"><ele>301.0</ele><time>2026-04-26T08:05:47.016Z</time></trkpt><trkpt lat="44.92842" lon="9.2333383"><ele>304.0</ele><time>2026-04-26T08:05:48.017Z</time></trkpt><trkpt lat="44.928305" lon="9.2333583"><ele>307.0</ele><time>2026-04-26T08:05:49.016Z</time></trkpt><trkpt lat="44.9282067" lon="9.2333567"><ele>307.16666666666663</ele><time>2026-04-26T08:05:50.016Z</time></trkpt><trkpt lat="44.9281267" lon="9.233355"><ele>307.3333333333333</ele><time>2026-04-26T08:05:51.016Z</time></trkpt><trkpt lat="44.9280417" lon="9.2333733"><ele>307.5</ele><time>2026-04-26T08:05:52.017Z</time></trkpt><trkpt lat="44.92797" lon="9.2334067"><ele>307.6666666666667</ele><time>2026-04-26T08:05:53.017Z</time></trkpt><trkpt lat="44.9279383" lon="9.2335233"><ele>307.83333333333337</ele><time>2026-04-26T08:05:54.017Z</time></trkpt><trkpt lat="44.9279133" lon="9.2336283"><ele>308.0</ele><time>2026-04-26T08:05:55.017Z</time></trkpt><trkpt lat="44.9279133" lon="9.2337367"><ele>308.0</ele><time>2026-04-26T08:05:56.017Z</time></trkpt><trkpt lat="44.9279333" lon="9.23387"><ele>308.0</ele><time>2026-04-26T08:05:57.016Z</time></trkpt><trkpt lat="44.9279517" lon="9.2340067"><ele>308.0</ele><time>2026-04-26T08:05:58.017Z</time></trkpt><trkpt lat="44.9279567" lon="9.2341467"><ele>308.0</ele><time>2026-04-26T08:05:59.017Z</time></trkpt><trkpt lat="44.92793" lon="9.2342717"><ele>308.0</ele><time>2026-04-26T08:06:00.017Z</time></trkpt><trkpt lat="44.9278883" lon="9.2343833"><ele>309.8</ele><time>2026-04-26T08:06:01.017Z</time></trkpt><trkpt lat="44.927845" lon="9.23448"><ele>311.6</ele><time>2026-04-26T08:06:02.017Z</time></trkpt><trkpt lat="44.9278083" lon="9.2345683"><ele>313.4</ele><time>2026-04-26T08:06:03.017Z</time></trkpt><trkpt lat="44.927785" lon="9.234655"><ele>315.2</ele><time>2026-04-26T08:06:04.016Z</time></trkpt><trkpt lat="44.92786" lon="9.2347733"><ele>317.0</ele><time>2026-04-26T08:06:06.017Z</time></trkpt><trkpt lat="44.9279667" lon="9.2348783"><ele>319.5</ele><time>2026-04-26T08:06:08.016Z</time></trkpt><trkpt lat="44.9280567" lon="9.234915"><ele>322.0</ele><time>2026-04-26T08:06:09.016Z</time></trkpt><trkpt lat="44.9281683" lon="9.234945"><ele>324.5</ele><time>2026-04-26T08:06:10.016Z</time></trkpt><trkpt lat="44.928305" lon="9.2349867"><ele>327.0</ele><time>2026-04-26T08:06:11.017Z</time></trkpt><trkpt lat="44.9284667" lon="9.2350233"><ele>328.25</ele><time>2026-04-26T08:06:12.017Z</time></trkpt><trkpt lat="44.92862" lon="9.2350567"><ele>329.5</ele><time>2026-04-26T08:06:13.016Z</time></trkpt><trkpt lat="44.9287467" lon="9.2350617"><ele>330.75</ele><time>2026-04-26T08:06:14.016Z</time></trkpt><trkpt lat="44.9288783" lon="9.2350267"><ele>332.0</ele><time>2026-04-26T08:06:15.017Z</time></trkpt><trkpt lat="44.928995" lon="9.2349917"><ele>332.0</ele><time>2026-04-26T08:06:16.017Z</time></trkpt><trkpt lat="44.9290983" lon="9.2349583"><ele>332.0</ele><time>2026-04-26T08:06:17.016Z</time></trkpt><trkpt lat="44.9291817" lon="9.2349517"><ele>332.0</ele><time>2026-04-26T08:06:18.017Z</time></trkpt><trkpt lat="44.9292583" lon="9.2349583"><ele>332.0</ele><time>2026-04-26T08:06:19.016Z</time></trkpt><trkpt lat="44.9293417" lon="9.2349833"><ele>332.0</ele><time>2026-04-26T08:06:20.016Z</time></trkpt><trkpt lat="44.929435" lon="9.2350667"><ele>332.75</ele><time>2026-04-26T08:06:21.017Z</time></trkpt><trkpt lat="44.9295283" lon="9.2351633"><ele>333.5</ele><time>2026-04-26T08:06:22.017Z</time></trkpt><trkpt lat="44.9296167" lon="9.2353033"><ele>334.25</ele><time>2026-04-26T08:06:23.016Z</time></trkpt><trkpt lat="44.9297167" lon="9.2353967"><ele>335.0</ele><time>2026-04-26T08:06:24.016Z</time></trkpt><trkpt lat="44.9298417" lon="9.2354817"><ele>335.0</ele><time>2026-04-26T08:06:25.017Z</time></trkpt><trkpt lat="44.9299633" lon="9.235535"><ele>335.0</ele><time>2026-04-26T08:06:26.017Z</time></trkpt><trkpt lat="44.9300967" lon="9.23555"><ele>335.0</ele><time>2026-04-26T08:06:27.016Z</time></trkpt><trkpt lat="44.93022" lon="9.23555"><ele>335.0</ele><time>2026-04-26T08:06:28.017Z</time></trkpt><trkpt lat="44.9303317" lon="9.235545"><ele>334.6</ele><time>2026-04-26T08:06:29.016Z</time></trkpt><trkpt lat="44.930425" lon="9.235555"><ele>334.2</ele><time>2026-04-26T08:06:30.016Z</time></trkpt><trkpt lat="44.9304933" lon="9.2355767"><ele>333.79999999999995</ele><time>2026-04-26T08:06:31.016Z</time></trkpt><trkpt lat="44.9305917" lon="9.235635"><ele>333.4</ele><time>2026-04-26T08:06:33.017Z</time></trkpt><trkpt lat="44.9306267" lon="9.2357467"><ele>333.0</ele><time>2026-04-26T08:06:35.016Z</time></trkpt><trkpt lat="44.9305533" lon="9.2359633"><ele>334.59999999999997</ele><time>2026-04-26T08:06:37.017Z</time></trkpt><trkpt lat="44.9304917" lon="9.2360817"><ele>336.2</ele><time>2026-04-26T08:06:38.017Z</time></trkpt><trkpt lat="44.9304417" lon="9.2361867"><ele>337.8</ele><time>2026-04-26T08:06:39.016Z</time></trkpt><trkpt lat="44.9303833" lon="9.23631"><ele>339.4</ele><time>2026-04-26T08:06:40.017Z</time></trkpt><trkpt lat="44.9303167" lon="9.2363967"><ele>341.0</ele><time>2026-04-26T08:06:41.017Z</time></trkpt><trkpt lat="44.930275" lon="9.2364733"><ele>341.20000000000005</ele><time>2026-04-26T08:06:42.017Z</time></trkpt><trkpt lat="44.9301783" lon="9.2365733"><ele>341.40000000000003</ele><time>2026-04-26T08:06:44.017Z</time></trkpt><trkpt lat="44.9301067" lon="9.2366233"><ele>341.6</ele><time>2026-04-26T08:06:45.016Z</time></trkpt><trkpt lat="44.9299833" lon="9.236715"><ele>341.8</ele><time>2026-04-26T08:06:47.016Z</time></trkpt><trkpt lat="44.929915" lon="9.2367783"><ele>342.0</ele><time>2026-04-26T08:06:48.017Z</time></trkpt><trkpt lat="44.9298517" lon="9.2368467"><ele>344.0</ele><time>2026-04-26T08:06:49.016Z</time></trkpt><trkpt lat="44.929785" lon="9.236915"><ele>346.0</ele><time>2026-04-26T08:06:50.017Z</time></trkpt><trkpt lat="44.9297283" lon="9.2370033"><ele>348.0</ele><time>2026-04-26T08:06:51.016Z</time></trkpt><trkpt lat="44.9297017" lon="9.237105"><ele>350.0</ele><time>2026-04-26T08:06:52.016Z</time></trkpt><trkpt lat="44.9296917" lon="9.237215"><ele>352.0</ele><time>2026-04-26T08:06:53.016Z</time></trkpt><trkpt lat="44.9296883" lon="9.2373583"><ele>354.0</ele><time>2026-04-26T08:06:54.016Z</time></trkpt><trkpt lat="44.9296767" lon="9.2375133"><ele>354.0</ele><time>2026-04-26T08:06:55.017Z</time></trkpt><trkpt lat="44.929665" lon="9.237665"><ele>354.0</ele><time>2026-04-26T08:06:56.017Z</time></trkpt><trkpt lat="44.92962" lon="9.2378183"><ele>354.0</ele><time>2026-04-26T08:06:57.017Z</time></trkpt><trkpt lat="44.9295717" lon="9.237975"><ele>354.0</ele><time>2026-04-26T08:06:58.017Z</time></trkpt><trkpt lat="44.9295083" lon="9.23812"><ele>353.79999999999995</ele><time>2026-04-26T08:06:59.016Z</time></trkpt><trkpt lat="44.9294483" lon="9.2382467"><ele>353.59999999999997</ele><time>2026-04-26T08:07:00.016Z</time></trkpt><trkpt lat="44.9293933" lon="9.23836"><ele>353.4</ele><time>2026-04-26T08:07:01.016Z</time></trkpt><trkpt lat="44.929335" lon="9.2384767"><ele>353.2</ele><time>2026-04-26T08:07:02.016Z</time></trkpt><trkpt lat="44.92927" lon="9.2386217"><ele>353.0</ele><time>2026-04-26T08:07:03.016Z</time></trkpt><trkpt lat="44.929205" lon="9.2387567"><ele>356.2</ele><time>2026-04-26T08:07:04.016Z</time></trkpt><trkpt lat="44.9291483" lon="9.238875"><ele>359.4</ele><time>2026-04-26T08:07:05.016Z</time></trkpt><trkpt lat="44.9290867" lon="9.2390067"><ele>362.59999999999997</ele><time>2026-04-26T08:07:06.017Z</time></trkpt><trkpt lat="44.92903" lon="9.2391183"><ele>365.79999999999995</ele><time>2026-04-26T08:07:07.016Z</time></trkpt><trkpt lat="44.9289767" lon="9.2392067"><ele>369.0</ele><time>2026-04-26T08:07:08.017Z</time></trkpt><trkpt lat="44.9289167" lon="9.2392583"><ele>369.0</ele><time>2026-04-26T08:07:09.016Z</time></trkpt><trkpt lat="44.9288383" lon="9.2393"><ele>369.0</ele><time>2026-04-26T08:07:10.017Z</time></trkpt><trkpt lat="44.92877" lon="9.239295"><ele>369.0</ele><time>2026-04-26T08:07:11.016Z</time></trkpt><trkpt lat="44.9287" lon="9.239195"><ele>369.0</ele><time>2026-04-26T08:07:12.017Z</time></trkpt><trkpt lat="44.928645" lon="9.239115"><ele>369.0</ele><time>2026-04-26T08:07:13.017Z</time></trkpt><trkpt lat="44.9285983" lon="9.239025"><ele>369.0</ele><time>2026-04-26T08:07:14.017Z</time></trkpt><trkpt lat="44.9285633" lon="9.238925"><ele>369.0</ele><time>2026-04-26T08:07:15.016Z</time></trkpt><trkpt lat="44.9285467" lon="9.2388"><ele>369.0</ele><time>2026-04-26T08:07:16.017Z</time></trkpt><trkpt lat="44.9285567" lon="9.23864"><ele>369.0</ele><time>2026-04-26T08:07:17.017Z</time></trkpt><trkpt lat="44.9285833" lon="9.2384583"><ele>369.0</ele><time>2026-04-26T08:07:18.016Z</time></trkpt><trkpt lat="44.9285917" lon="9.2383"><ele>369.0</ele><time>2026-04-26T08:07:19.016Z</time></trkpt><trkpt lat="44.9285983" lon="9.2381633"><ele>369.0</ele><time>2026-04-26T08:07:20.016Z</time></trkpt><trkpt lat="44.928585" lon="9.238045"><ele>369.0</ele><time>2026-04-26T08:07:21.016Z</time></trkpt><trkpt lat="44.92856" lon="9.2379383"><ele>369.0</ele><time>2026-04-26T08:07:22.016Z</time></trkpt><trkpt lat="44.92852" lon="9.237845"><ele>369.0</ele><time>2026-04-26T08:07:23.017Z</time></trkpt><trkpt lat="44.92847" lon="9.2377433"><ele>369.0</ele><time>2026-04-26T08:07:24.017Z</time></trkpt><trkpt lat="44.92841" lon="9.2376667"><ele>369.0</ele><time>2026-04-26T08:07:25.016Z</time></trkpt><trkpt lat="44.92836" lon="9.2375917"><ele>370.2</ele><time>2026-04-26T08:07:26.016Z</time></trkpt><trkpt lat="44.92831" lon="9.2375233"><ele>371.4</ele><time>2026-04-26T08:07:27.016Z</time></trkpt><trkpt lat="44.9282933" lon="9.2376367"><ele>372.6</ele><time>2026-04-26T08:07:28.017Z</time></trkpt><trkpt lat="44.9282233" lon="9.2377433"><ele>373.8</ele><time>2026-04-26T08:07:30.017Z</time></trkpt><trkpt lat="44.9281433" lon="9.2379733"><ele>375.0</ele><time>2026-04-26T08:07:32.016Z</time></trkpt><trkpt lat="44.9280933" lon="9.238175"><ele>377.3333333333333</ele><time>2026-04-26T08:07:33.016Z</time></trkpt><trkpt lat="44.9280367" lon="9.2384867"><ele>379.66666666666663</ele><time>2026-04-26T08:07:34.016Z</time></trkpt><trkpt lat="44.9279967" lon="9.2387267"><ele>382.0</ele><time>2026-04-26T08:07:35.017Z</time></trkpt><trkpt lat="44.9279733" lon="9.23894"><ele>383.25</ele><time>2026-04-26T08:07:36.016Z</time></trkpt><trkpt lat="44.9279783" lon="9.2391433"><ele>384.5</ele><time>2026-04-26T08:07:37.017Z</time></trkpt><trkpt lat="44.9279883" lon="9.2393383"><ele>385.75</ele><time>2026-04-26T08:07:38.016Z</time></trkpt><trkpt lat="44.9279967" lon="9.239535"><ele>387.0</ele><time>2026-04-26T08:07:39.017Z</time></trkpt><trkpt lat="44.928015" lon="9.2397383"><ele>389.75</ele><time>2026-04-26T08:07:40.017Z</time></trkpt><trkpt lat="44.928045" lon="9.239935"><ele>392.5</ele><time>2026-04-26T08:07:41.017Z</time></trkpt><trkpt lat="44.9280833" lon="9.2401267"><ele>395.25</ele><time>2026-04-26T08:07:42.016Z</time></trkpt><trkpt lat="44.9281367" lon="9.2402983"><ele>398.0</ele><time>2026-04-26T08:07:43.016Z</time></trkpt><trkpt lat="44.92821" lon="9.240445"><ele>398.0</ele><time>2026-04-26T08:07:44.016Z</time></trkpt><trkpt lat="44.9282967" lon="9.2405783"><ele>398.0</ele><time>2026-04-26T08:07:45.016Z</time></trkpt><trkpt lat="44.9284033" lon="9.2406833"><ele>398.0</ele><time>2026-04-26T08:07:46.017Z</time></trkpt><trkpt lat="44.9285367" lon="9.24075"><ele>398.0</ele><time>2026-04-26T08:07:47.016Z</time></trkpt><trkpt lat="44.92866" lon="9.2408017"><ele>397.99999999999994</ele><time>2026-04-26T08:07:48.016Z</time></trkpt><trkpt lat="44.9287583" lon="9.2408533"><ele>398.0</ele><time>2026-04-26T08:07:49.016Z</time></trkpt><trkpt lat="44.928835" lon="9.2409083"><ele>398.0</ele><time>2026-04-26T08:07:50.016Z</time></trkpt><trkpt lat="44.9289" lon="9.2409683"><ele>398.0</ele><time>2026-04-26T08:07:51.017Z</time></trkpt><trkpt lat="44.9289633" lon="9.241025"><ele>397.99999999999994</ele><time>2026-04-26T08:07:52.017Z</time></trkpt><trkpt lat="44.929" lon="9.2411217"><ele>398.0</ele><time>2026-04-26T08:07:54.016Z</time></trkpt><trkpt lat="44.9289133" lon="9.2411717"><ele>398.0</ele><time>2026-04-26T08:07:55.016Z</time></trkpt><trkpt lat="44.92879" lon="9.2411967"><ele>398.0</ele><time>2026-04-26T08:07:56.017Z</time></trkpt><trkpt lat="44.928675" lon="9.241215"><ele>398.0</ele><time>2026-04-26T08:07:57.016Z</time></trkpt><trkpt lat="44.9286083" lon="9.2412583"><ele>398.0</ele><time>2026-04-26T08:07:58.017Z</time></trkpt><trkpt lat="44.92853" lon="9.2412883"><ele>398.0</ele><time>2026-04-26T08:07:59.017Z</time></trkpt><trkpt lat="44.928395" lon="9.2413017"><ele>402.3333333333333</ele><time>2026-04-26T08:08:00.016Z</time></trkpt><trkpt lat="44.9282717" lon="9.2413183"><ele>406.66666666666663</ele><time>2026-04-26T08:08:01.016Z</time></trkpt><trkpt lat="44.9281467" lon="9.2413267"><ele>411.0</ele><time>2026-04-26T08:08:02.017Z</time></trkpt><trkpt lat="44.9279183" lon="9.2412167"><ele>411.0</ele><time>2026-04-26T08:08:03.016Z</time></trkpt><trkpt lat="44.9277317" lon="9.2410833"><ele>411.0</ele><time>2026-04-26T08:08:04.017Z</time></trkpt><trkpt lat="44.927585" lon="9.2409617"><ele>411.0</ele><time>2026-04-26T08:08:05.016Z</time></trkpt><trkpt lat="44.92746" lon="9.24082"><ele>411.20000000000005</ele><time>2026-04-26T08:08:06.016Z</time></trkpt><trkpt lat="44.9273567" lon="9.2406933"><ele>411.40000000000003</ele><time>2026-04-26T08:08:07.016Z</time></trkpt><trkpt lat="44.927275" lon="9.2405833"><ele>411.6</ele><time>2026-04-26T08:08:08.016Z</time></trkpt><trkpt lat="44.9272033" lon="9.2405"><ele>411.8</ele><time>2026-04-26T08:08:09.017Z</time></trkpt><trkpt lat="44.92714" lon="9.2404283"><ele>412.0</ele><time>2026-04-26T08:08:10.017Z</time></trkpt><trkpt lat="44.92711" lon="9.2405767"><ele>414.0</ele><time>2026-04-26T08:08:12.017Z</time></trkpt><trkpt lat="44.9271" lon="9.240715"><ele>416.0</ele><time>2026-04-26T08:08:13.016Z</time></trkpt><trkpt lat="44.9271067" lon="9.24083"><ele>418.0</ele><time>2026-04-26T08:08:14.016Z</time></trkpt><trkpt lat="44.9271283" lon="9.2409467"><ele>420.0</ele><time>2026-04-26T08:08:15.017Z</time></trkpt><trkpt lat="44.92717" lon="9.2410867"><ele>422.0</ele><time>2026-04-26T08:08:16.017Z</time></trkpt><trkpt lat="44.9272217" lon="9.24122"><ele>422.0</ele><time>2026-04-26T08:08:17.016Z</time></trkpt><trkpt lat="44.9272933" lon="9.2413933"><ele>422.0</ele><time>2026-04-26T08:08:18.017Z</time></trkpt><trkpt lat="44.9273717" lon="9.2415667"><ele>422.0</ele><time>2026-04-26T08:08:19.016Z</time></trkpt><trkpt lat="44.9274417" lon="9.2417433"><ele>422.0</ele><time>2026-04-26T08:08:20.016Z</time></trkpt><trkpt lat="44.92751" lon="9.2419033"><ele>422.0</ele><time>2026-04-26T08:08:21.017Z</time></trkpt><trkpt lat="44.9275817" lon="9.2420533"><ele>422.0</ele><time>2026-04-26T08:08:22.017Z</time></trkpt><trkpt lat="44.9276483" lon="9.2421983"><ele>422.0</ele><time>2026-04-26T08:08:23.016Z</time></trkpt><trkpt lat="44.9277117" lon="9.2423283"><ele>422.0</ele><time>2026-04-26T08:08:24.017Z</time></trkpt><trkpt lat="44.92776" lon="9.2424467"><ele>421.99999999999994</ele><time>2026-04-26T08:08:25.017Z</time></trkpt><trkpt lat="44.927785" lon="9.24255"><ele>422.0</ele><time>2026-04-26T08:08:26.017Z</time></trkpt><trkpt lat="44.927785" lon="9.2426533"><ele>422.0</ele><time>2026-04-26T08:08:27.016Z</time></trkpt><trkpt lat="44.9277733" lon="9.242745"><ele>422.0</ele><time>2026-04-26T08:08:28.017Z</time></trkpt><trkpt lat="44.9277033" lon="9.2428117"><ele>421.99999999999994</ele><time>2026-04-26T08:08:29.017Z</time></trkpt><trkpt lat="44.9275967" lon="9.24286"><ele>422.0</ele><time>2026-04-26T08:08:30.016Z</time></trkpt><trkpt lat="44.9274617" lon="9.2428933"><ele>426.66666666666663</ele><time>2026-04-26T08:08:31.016Z</time></trkpt><trkpt lat="44.9272883" lon="9.242885"><ele>431.33333333333337</ele><time>2026-04-26T08:08:32.017Z</time></trkpt><trkpt lat="44.9271117" lon="9.2428467"><ele>436.0</ele><time>2026-04-26T08:08:33.017Z</time></trkpt><trkpt lat="44.9269817" lon="9.2428567"><ele>436.0</ele><time>2026-04-26T08:08:34.017Z</time></trkpt><trkpt lat="44.92684" lon="9.2428567"><ele>436.0</ele><time>2026-04-26T08:08:35.016Z</time></trkpt><trkpt lat="44.9267317" lon="9.2428817"><ele>436.0</ele><time>2026-04-26T08:08:36.017Z</time></trkpt><trkpt lat="44.9266017" lon="9.2429033"><ele>436.0</ele><time>2026-04-26T08:08:37.016Z</time></trkpt><trkpt lat="44.9264817" lon="9.2429883"><ele>438.20000000000005</ele><time>2026-04-26T08:08:38.017Z</time></trkpt><trkpt lat="44.9263833" lon="9.2430983"><ele>440.40000000000003</ele><time>2026-04-26T08:08:39.017Z</time></trkpt><trkpt lat="44.9263067" lon="9.2432167"><ele>442.6</ele><time>2026-04-26T08:08:40.016Z</time></trkpt><trkpt lat="44.926255" lon="9.24335"><ele>444.8</ele><time>2026-04-26T08:08:41.017Z</time></trkpt><trkpt lat="44.926205" lon="9.243425"><ele>447.0</ele><time>2026-04-26T08:08:42.016Z</time></trkpt><trkpt lat="44.92611" lon="9.2434717"><ele>447.0</ele><time>2026-04-26T08:08:44.016Z</time></trkpt><trkpt lat="44.926025" lon="9.2434017"><ele>447.0</ele><time>2026-04-26T08:08:46.016Z</time></trkpt><trkpt lat="44.9259917" lon="9.2433017"><ele>447.0</ele><time>2026-04-26T08:08:47.016Z</time></trkpt><trkpt lat="44.925965" lon="9.2432083"><ele>447.0</ele><time>2026-04-26T08:08:48.017Z</time></trkpt><trkpt lat="44.92595" lon="9.2431083"><ele>447.0</ele><time>2026-04-26T08:08:49.017Z</time></trkpt><trkpt lat="44.9259667" lon="9.24298"><ele>447.0</ele><time>2026-04-26T08:08:50.016Z</time></trkpt><trkpt lat="44.926025" lon="9.2428017"><ele>447.8</ele><time>2026-04-26T08:08:51.017Z</time></trkpt><trkpt lat="44.9260667" lon="9.2426617"><ele>448.6</ele><time>2026-04-26T08:08:52.016Z</time></trkpt><trkpt lat="44.9260917" lon="9.242555"><ele>449.40000000000003</ele><time>2026-04-26T08:08:53.017Z</time></trkpt><trkpt lat="44.9260333" lon="9.2424317"><ele>450.20000000000005</ele><time>2026-04-26T08:08:55.016Z</time></trkpt><trkpt lat="44.9259583" lon="9.242425"><ele>451.0</ele><time>2026-04-26T08:08:56.017Z</time></trkpt><trkpt lat="44.9258717" lon="9.2424367"><ele>455.0</ele><time>2026-04-26T08:08:57.017Z</time></trkpt><trkpt lat="44.9257567" lon="9.24248"><ele>459.0</ele><time>2026-04-26T08:08:58.016Z</time></trkpt><trkpt lat="44.9256483" lon="9.2425333"><ele>463.0</ele><time>2026-04-26T08:08:59.016Z</time></trkpt><trkpt lat="44.92553" lon="9.2426217"><ele>467.0</ele><time>2026-04-26T08:09:00.016Z</time></trkpt><trkpt lat="44.92542" lon="9.24272"><ele>467.0</ele><time>2026-04-26T08:09:01.016Z</time></trkpt><trkpt lat="44.925335" lon="9.2428267"><ele>467.00000000000006</ele><time>2026-04-26T08:09:02.016Z</time></trkpt><trkpt lat="44.9252933" lon="9.242965"><ele>467.00000000000006</ele><time>2026-04-26T08:09:03.016Z</time></trkpt><trkpt lat="44.9252583" lon="9.2431133"><ele>467.0</ele><time>2026-04-26T08:09:04.016Z</time></trkpt><trkpt lat="44.9252483" lon="9.2432717"><ele>467.0</ele><time>2026-04-26T08:09:05.017Z</time></trkpt><trkpt lat="44.9252233" lon="9.2434267"><ele>468.20000000000005</ele><time>2026-04-26T08:09:06.016Z</time></trkpt><trkpt lat="44.9251933" lon="9.243555"><ele>469.40000000000003</ele><time>2026-04-26T08:09:07.017Z</time></trkpt><trkpt lat="44.9251467" lon="9.243675"><ele>470.59999999999997</ele><time>2026-04-26T08:09:08.016Z</time></trkpt><trkpt lat="44.9250667" lon="9.243765"><ele>471.79999999999995</ele><time>2026-04-26T08:09:09.017Z</time></trkpt><trkpt lat="44.924955" lon="9.2438633"><ele>473.0</ele><time>2026-04-26T08:09:10.017Z</time></trkpt><trkpt lat="44.9248367" lon="9.243985"><ele>475.5</ele><time>2026-04-26T08:09:11.016Z</time></trkpt><trkpt lat="44.924715" lon="9.244125"><ele>478.0</ele><time>2026-04-26T08:09:12.016Z</time></trkpt><trkpt lat="44.9246183" lon="9.2442517"><ele>480.5</ele><time>2026-04-26T08:09:13.016Z</time></trkpt><trkpt lat="44.9245383" lon="9.2443833"><ele>483.0</ele><time>2026-04-26T08:09:14.016Z</time></trkpt><trkpt lat="44.9244567" lon="9.2445283"><ele>483.0</ele><time>2026-04-26T08:09:15.017Z</time></trkpt><trkpt lat="44.9243917" lon="9.24468"><ele>483.0</ele><time>2026-04-26T08:09:16.017Z</time></trkpt><trkpt lat="44.92439" lon="9.2449033"><ele>483.0</ele><time>2026-04-26T08:09:17.017Z</time></trkpt><trkpt lat="44.924385" lon="9.24513"><ele>483.0</ele><time>2026-04-26T08:09:18.017Z</time></trkpt><trkpt lat="44.9243767" lon="9.245345"><ele>483.0</ele><time>2026-04-26T08:09:19.017Z</time></trkpt><trkpt lat="44.9243683" lon="9.2455833"><ele>483.0</ele><time>2026-04-26T08:09:20.016Z</time></trkpt><trkpt lat="44.92434" lon="9.2457983"><ele>483.0</ele><time>2026-04-26T08:09:21.016Z</time></trkpt><trkpt lat="44.9243183" lon="9.2459983"><ele>483.4</ele><time>2026-04-26T08:09:22.017Z</time></trkpt><trkpt lat="44.9242967" lon="9.2461767"><ele>483.79999999999995</ele><time>2026-04-26T08:09:23.016Z</time></trkpt><trkpt lat="44.9242733" lon="9.246335"><ele>484.2</ele><time>2026-04-26T08:09:24.016Z</time></trkpt><trkpt lat="44.9242467" lon="9.24646"><ele>484.6</ele><time>2026-04-26T08:09:25.017Z</time></trkpt><trkpt lat="44.9242067" lon="9.2465883"><ele>485.0</ele><time>2026-04-26T08:09:26.016Z</time></trkpt><trkpt lat="44.9241517" lon="9.2466683"><ele>488.2</ele><time>2026-04-26T08:09:27.016Z</time></trkpt><trkpt lat="44.9240783" lon="9.2467533"><ele>491.4</ele><time>2026-04-26T08:09:28.016Z</time></trkpt><trkpt lat="44.923985" lon="9.2468367"><ele>494.6</ele><time>2026-04-26T08:09:29.017Z</time></trkpt><trkpt lat="44.9238883" lon="9.24693"><ele>497.8</ele><time>2026-04-26T08:09:30.017Z</time></trkpt><trkpt lat="44.9237917" lon="9.247045"><ele>501.0</ele><time>2026-04-26T08:09:31.016Z</time></trkpt><trkpt lat="44.9237017" lon="9.2471883"><ele>499.0</ele><time>2026-04-26T08:09:32.016Z</time></trkpt><trkpt lat="44.9236217" lon="9.24735"><ele>497.0</ele><time>2026-04-26T08:09:33.017Z</time></trkpt><trkpt lat="44.9235483" lon="9.2475333"><ele>495.0</ele><time>2026-04-26T08:09:34.017Z</time></trkpt><trkpt lat="44.9234933" lon="9.2477083"><ele>493.0</ele><time>2026-04-26T08:09:35.016Z</time></trkpt><trkpt lat="44.92344" lon="9.2478917"><ele>495.75</ele><time>2026-04-26T08:09:36.016Z</time></trkpt><trkpt lat="44.9233817" lon="9.2480783"><ele>498.5</ele><time>2026-04-26T08:09:37.017Z</time></trkpt><trkpt lat="44.92332" lon="9.24824"><ele>501.25</ele><time>2026-04-26T08:09:38.017Z</time></trkpt><trkpt lat="44.92325" lon="9.2484033"><ele>504.0</ele><time>2026-04-26T08:09:39.017Z</time></trkpt><trkpt lat="44.9231833" lon="9.2485817"><ele>504.75</ele><time>2026-04-26T08:09:40.016Z</time></trkpt><trkpt lat="44.92311" lon="9.2487617"><ele>505.5</ele><time>2026-04-26T08:09:41.016Z</time></trkpt><trkpt lat="44.9230367" lon="9.2489183"><ele>506.25</ele><time>2026-04-26T08:09:42.017Z</time></trkpt><trkpt lat="44.922965" lon="9.24907"><ele>507.0</ele><time>2026-04-26T08:09:43.017Z</time></trkpt><trkpt lat="44.9228933" lon="9.2492217"><ele>505.5</ele><time>2026-04-26T08:09:44.017Z</time></trkpt><trkpt lat="44.922815" lon="9.2493583"><ele>504.0</ele><time>2026-04-26T08:09:45.017Z</time></trkpt><trkpt lat="44.922745" lon="9.2495017"><ele>502.5</ele><time>2026-04-26T08:09:46.017Z</time></trkpt><trkpt lat="44.92267" lon="9.2496683"><ele>501.0</ele><time>2026-04-26T08:09:47.016Z</time></trkpt><trkpt lat="44.9225967" lon="9.2498283"><ele>502.0</ele><time>2026-04-26T08:09:48.016Z</time></trkpt><trkpt lat="44.92252" lon="9.249975"><ele>503.0</ele><time>2026-04-26T08:09:49.016Z</time></trkpt><trkpt lat="44.9224533" lon="9.25011"><ele>504.0</ele><time>2026-04-26T08:09:50.017Z</time></trkpt><trkpt lat="44.9223967" lon="9.2502083"><ele>505.0</ele><time>2026-04-26T08:09:51.016Z</time></trkpt><trkpt lat="44.9223267" lon="9.2503583"><ele>505.0</ele><time>2026-04-26T08:09:52.016Z</time></trkpt><trkpt lat="44.9222483" lon="9.250515"><ele>505.0</ele><time>2026-04-26T08:09:53.017Z</time></trkpt><trkpt lat="44.922185" lon="9.2506667"><ele>505.0</ele><time>2026-04-26T08:09:54.016Z</time></trkpt><trkpt lat="44.9221167" lon="9.2508267"><ele>505.0</ele><time>2026-04-26T08:09:55.016Z</time></trkpt><trkpt lat="44.9220433" lon="9.25097"><ele>506.25</ele><time>2026-04-26T08:09:56.016Z</time></trkpt><trkpt lat="44.921975" lon="9.2511117"><ele>507.5</ele><time>2026-04-26T08:09:57.016Z</time></trkpt><trkpt lat="44.921905" lon="9.251265"><ele>508.75</ele><time>2026-04-26T08:09:58.017Z</time></trkpt><trkpt lat="44.9218383" lon="9.2514317"><ele>510.0</ele><time>2026-04-26T08:09:59.016Z</time></trkpt><trkpt lat="44.921775" lon="9.2516083"><ele>510.0</ele><time>2026-04-26T08:10:00.016Z</time></trkpt><trkpt lat="44.9217267" lon="9.251785"><ele>510.0</ele><time>2026-04-26T08:10:01.016Z</time></trkpt><trkpt lat="44.92168" lon="9.2519483"><ele>510.0</ele><time>2026-04-26T08:10:02.016Z</time></trkpt><trkpt lat="44.9216367" lon="9.25209"><ele>510.0</ele><time>2026-04-26T08:10:03.016Z</time></trkpt><trkpt lat="44.9215883" lon="9.2522167"><ele>510.0</ele><time>2026-04-26T08:10:04.016Z</time></trkpt><trkpt lat="44.9215433" lon="9.252305"><ele>510.0</ele><time>2026-04-26T08:10:05.017Z</time></trkpt><trkpt lat="44.9214983" lon="9.2524233"><ele>510.0</ele><time>2026-04-26T08:10:07.016Z</time></trkpt><trkpt lat="44.921475" lon="9.25251"><ele>510.0</ele><time>2026-04-26T08:10:10.016Z</time></trkpt><trkpt lat="44.9214467" lon="9.25275"><ele>510.0</ele><time>2026-04-26T08:11:48.015Z</time></trkpt><trkpt lat="44.9214033" lon="9.2528967"><ele>510.0</ele><time>2026-04-26T08:11:49.015Z</time></trkpt><trkpt lat="44.9213583" lon="9.2530583"><ele>510.0</ele><time>2026-04-26T08:11:50.015Z</time></trkpt><trkpt lat="44.9213233" lon="9.2532283"><ele>510.0</ele><time>2026-04-26T08:11:51.016Z</time></trkpt><trkpt lat="44.9212867" lon="9.25338"><ele>510.0</ele><time>2026-04-26T08:11:52.015Z</time></trkpt><trkpt lat="44.92125" lon="9.2535433"><ele>510.0</ele><time>2026-04-26T08:11:53.015Z</time></trkpt><trkpt lat="44.921215" lon="9.2537167"><ele>510.0</ele><time>2026-04-26T08:11:54.016Z</time></trkpt><trkpt lat="44.9211817" lon="9.2538833"><ele>510.0</ele><time>2026-04-26T08:11:55.015Z</time></trkpt><trkpt lat="44.9211533" lon="9.2540567"><ele>510.0</ele><time>2026-04-26T08:11:56.016Z</time></trkpt><trkpt lat="44.9211283" lon="9.2542267"><ele>510.0</ele><time>2026-04-26T08:11:57.016Z</time></trkpt><trkpt lat="44.9210917" lon="9.254395"><ele>510.0</ele><time>2026-04-26T08:11:58.016Z</time></trkpt><trkpt lat="44.92103" lon="9.254545"><ele>510.0</ele><time>2026-04-26T08:11:59.015Z</time></trkpt><trkpt lat="44.9209733" lon="9.2547117"><ele>510.0</ele><time>2026-04-26T08:12:00.015Z</time></trkpt><trkpt lat="44.9209167" lon="9.2548833"><ele>511.75</ele><time>2026-04-26T08:12:01.015Z</time></trkpt><trkpt lat="44.92086" lon="9.2550583"><ele>513.5</ele><time>2026-04-26T08:12:02.016Z</time></trkpt><trkpt lat="44.920805" lon="9.2552267"><ele>515.25</ele><time>2026-04-26T08:12:03.015Z</time></trkpt><trkpt lat="44.9207483" lon="9.2553933"><ele>517.0</ele><time>2026-04-26T08:12:04.015Z</time></trkpt><trkpt lat="44.9206933" lon="9.2555733"><ele>516.5</ele><time>2026-04-26T08:12:05.015Z</time></trkpt><trkpt lat="44.9206383" lon="9.25575"><ele>516.0</ele><time>2026-04-26T08:12:06.016Z</time></trkpt><trkpt lat="44.920585" lon="9.255925"><ele>515.5</ele><time>2026-04-26T08:12:07.015Z</time></trkpt><trkpt lat="44.9205333" lon="9.2561083"><ele>515.0</ele><time>2026-04-26T08:12:08.015Z</time></trkpt><trkpt lat="44.9204783" lon="9.256285"><ele>515.0</ele><time>2026-04-26T08:12:09.015Z</time></trkpt><trkpt lat="44.9204217" lon="9.2564517"><ele>515.0</ele><time>2026-04-26T08:12:10.015Z</time></trkpt><trkpt lat="44.920335" lon="9.2566033"><ele>515.0</ele><time>2026-04-26T08:12:11.016Z</time></trkpt><trkpt lat="44.92024" lon="9.2567533"><ele>515.0</ele><time>2026-04-26T08:12:12.016Z</time></trkpt><trkpt lat="44.920135" lon="9.256875"><ele>518.25</ele><time>2026-04-26T08:12:13.016Z</time></trkpt><trkpt lat="44.9200133" lon="9.256985"><ele>521.5</ele><time>2026-04-26T08:12:14.015Z</time></trkpt><trkpt lat="44.919895" lon="9.257095"><ele>524.75</ele><time>2026-04-26T08:12:15.015Z</time></trkpt><trkpt lat="44.9197867" lon="9.2572183"><ele>528.0</ele><time>2026-04-26T08:12:16.016Z</time></trkpt><trkpt lat="44.9196917" lon="9.2573417"><ele>530.5</ele><time>2026-04-26T08:12:17.016Z</time></trkpt><trkpt lat="44.9196333" lon="9.2574633"><ele>533.0</ele><time>2026-04-26T08:12:18.016Z</time></trkpt><trkpt lat="44.91964" lon="9.2576383"><ele>535.5</ele><time>2026-04-26T08:12:19.015Z</time></trkpt><trkpt lat="44.919655" lon="9.2577967"><ele>538.0</ele><time>2026-04-26T08:12:20.015Z</time></trkpt><trkpt lat="44.91964" lon="9.257965"><ele>538.75</ele><time>2026-04-26T08:12:21.016Z</time></trkpt><trkpt lat="44.9195983" lon="9.2581217"><ele>539.5</ele><time>2026-04-26T08:12:22.015Z</time></trkpt><trkpt lat="44.9195433" lon="9.258275"><ele>540.25</ele><time>2026-04-26T08:12:23.015Z</time></trkpt><trkpt lat="44.91945" lon="9.258405"><ele>541.0</ele><time>2026-04-26T08:12:24.016Z</time></trkpt><trkpt lat="44.919345" lon="9.2585183"><ele>541.5</ele><time>2026-04-26T08:12:25.016Z</time></trkpt><trkpt lat="44.9192167" lon="9.25856"><ele>542.0</ele><time>2026-04-26T08:12:26.016Z</time></trkpt><trkpt lat="44.91909" lon="9.2586083"><ele>542.5</ele><time>2026-04-26T08:12:27.015Z</time></trkpt><trkpt lat="44.9190017" lon="9.2587033"><ele>543.0</ele><time>2026-04-26T08:12:28.015Z</time></trkpt><trkpt lat="44.9189367" lon="9.2588567"><ele>545.6666666666666</ele><time>2026-04-26T08:12:29.015Z</time></trkpt><trkpt lat="44.9188867" lon="9.25906"><ele>548.3333333333333</ele><time>2026-04-26T08:12:30.016Z</time></trkpt><trkpt lat="44.9188367" lon="9.2592533"><ele>551.0</ele><time>2026-04-26T08:12:31.015Z</time></trkpt><trkpt lat="44.918795" lon="9.2594683"><ele>551.0</ele><time>2026-04-26T08:12:32.016Z</time></trkpt><trkpt lat="44.9187567" lon="9.2596717"><ele>551.0</ele><time>2026-04-26T08:12:33.015Z</time></trkpt><trkpt lat="44.91871" lon="9.2598567"><ele>551.0</ele><time>2026-04-26T08:12:34.016Z</time></trkpt><trkpt lat="44.9186633" lon="9.2600233"><ele>551.0</ele><time>2026-04-26T08:12:35.015Z</time></trkpt><trkpt lat="44.9185733" lon="9.2601617"><ele>552.5</ele><time>2026-04-26T08:12:36.015Z</time></trkpt><trkpt lat="44.918465" lon="9.2603083"><ele>554.0</ele><time>2026-04-26T08:12:37.015Z</time></trkpt><trkpt lat="44.9183567" lon="9.2604217"><ele>555.5</ele><time>2026-04-26T08:12:38.015Z</time></trkpt><trkpt lat="44.918245" lon="9.2605233"><ele>557.0</ele><time>2026-04-26T08:12:39.016Z</time></trkpt><trkpt lat="44.9181083" lon="9.2606083"><ele>559.75</ele><time>2026-04-26T08:12:40.015Z</time></trkpt><trkpt lat="44.917985" lon="9.260665"><ele>562.5</ele><time>2026-04-26T08:12:41.016Z</time></trkpt><trkpt lat="44.9178783" lon="9.2607367"><ele>565.25</ele><time>2026-04-26T08:12:42.015Z</time></trkpt><trkpt lat="44.9177867" lon="9.2608167"><ele>568.0</ele><time>2026-04-26T08:12:43.015Z</time></trkpt><trkpt lat="44.917705" lon="9.2608967"><ele>568.0</ele><time>2026-04-26T08:12:44.016Z</time></trkpt><trkpt lat="44.9176367" lon="9.2609517"><ele>568.0</ele><time>2026-04-26T08:12:45.015Z</time></trkpt><trkpt lat="44.9175767" lon="9.2610183"><ele>568.0</ele><time>2026-04-26T08:12:46.016Z</time></trkpt><trkpt lat="44.917505" lon="9.2610983"><ele>568.0</ele><time>2026-04-26T08:12:47.015Z</time></trkpt><trkpt lat="44.9174317" lon="9.2611467"><ele>568.0</ele><time>2026-04-26T08:12:48.015Z</time></trkpt><trkpt lat="44.917335" lon="9.2611933"><ele>568.0</ele><time>2026-04-26T08:12:50.016Z</time></trkpt><trkpt lat="44.9172217" lon="9.2611383"><ele>568.1666666666667</ele><time>2026-04-26T08:12:52.016Z</time></trkpt><trkpt lat="44.917135" lon="9.2610917"><ele>568.3333333333334</ele><time>2026-04-26T08:12:53.015Z</time></trkpt><trkpt lat="44.917065" lon="9.2610667"><ele>568.5</ele><time>2026-04-26T08:12:54.015Z</time></trkpt><trkpt lat="44.9169883" lon="9.2610567"><ele>568.6666666666666</ele><time>2026-04-26T08:12:55.016Z</time></trkpt><trkpt lat="44.9168983" lon="9.261075"><ele>568.8333333333333</ele><time>2026-04-26T08:12:56.016Z</time></trkpt><trkpt lat="44.9167983" lon="9.2611333"><ele>569.0</ele><time>2026-04-26T08:12:57.015Z</time></trkpt><trkpt lat="44.9166883" lon="9.261225"><ele>569.0</ele><time>2026-04-26T08:12:58.015Z</time></trkpt><trkpt lat="44.9165783" lon="9.261315"><ele>569.0</ele><time>2026-04-26T08:12:59.016Z</time></trkpt><trkpt lat="44.916405" lon="9.2615017"><ele>569.0</ele><time>2026-04-26T08:13:00.015Z</time></trkpt><trkpt lat="44.9162733" lon="9.261645"><ele>571.0</ele><time>2026-04-26T08:13:01.015Z</time></trkpt><trkpt lat="44.916145" lon="9.2617883"><ele>573.0</ele><time>2026-04-26T08:13:02.015Z</time></trkpt><trkpt lat="44.9160283" lon="9.261925"><ele>575.0</ele><time>2026-04-26T08:13:03.016Z</time></trkpt><trkpt lat="44.9159117" lon="9.2620583"><ele>575.5</ele><time>2026-04-26T08:13:04.015Z</time></trkpt><trkpt lat="44.915805" lon="9.2621833"><ele>576.0</ele><time>2026-04-26T08:13:05.015Z</time></trkpt><trkpt lat="44.915695" lon="9.2623283"><ele>576.5</ele><time>2026-04-26T08:13:06.015Z</time></trkpt><trkpt lat="44.91558" lon="9.2624567"><ele>577.0</ele><time>2026-04-26T08:13:07.016Z</time></trkpt><trkpt lat="44.91545" lon="9.26259"><ele>579.6666666666667</ele><time>2026-04-26T08:13:08.016Z</time></trkpt><trkpt lat="44.9153317" lon="9.26276"><ele>582.3333333333334</ele><time>2026-04-26T08:13:09.015Z</time></trkpt><trkpt lat="44.9152117" lon="9.262895"><ele>585.0</ele><time>2026-04-26T08:13:10.015Z</time></trkpt><trkpt lat="44.9150967" lon="9.2630383"><ele>586.5</ele><time>2026-04-26T08:13:11.015Z</time></trkpt><trkpt lat="44.91498" lon="9.2631583"><ele>588.0</ele><time>2026-04-26T08:13:12.016Z</time></trkpt><trkpt lat="44.91488" lon="9.2632717"><ele>589.5</ele><time>2026-04-26T08:13:13.016Z</time></trkpt><trkpt lat="44.9147983" lon="9.2633567"><ele>591.0</ele><time>2026-04-26T08:13:14.015Z</time></trkpt><trkpt lat="44.9147017" lon="9.2634383"><ele>591.0</ele><time>2026-04-26T08:13:15.016Z</time></trkpt><trkpt lat="44.9146033" lon="9.263515"><ele>591.0</ele><time>2026-04-26T08:13:16.016Z</time></trkpt><trkpt lat="44.914505" lon="9.2635917"><ele>591.0</ele><time>2026-04-26T08:13:17.015Z</time></trkpt><trkpt lat="44.91441" lon="9.2636567"><ele>591.0</ele><time>2026-04-26T08:13:18.015Z</time></trkpt><trkpt lat="44.9143317" lon="9.2637067"><ele>591.0</ele><time>2026-04-26T08:13:19.015Z</time></trkpt><trkpt lat="44.9142383" lon="9.26376"><ele>591.2</ele><time>2026-04-26T08:13:21.015Z</time></trkpt><trkpt lat="44.9142333" lon="9.2639033"><ele>591.4000000000001</ele><time>2026-04-26T08:13:24.015Z</time></trkpt><trkpt lat="44.9142517" lon="9.26399"><ele>591.6</ele><time>2026-04-26T08:13:25.015Z</time></trkpt><trkpt lat="44.9142467" lon="9.2641167"><ele>591.8000000000001</ele><time>2026-04-26T08:13:27.016Z</time></trkpt><trkpt lat="44.9142117" lon="9.264235"><ele>592.0</ele><time>2026-04-26T08:13:29.016Z</time></trkpt><trkpt lat="44.9141083" lon="9.264405"><ele>592.0</ele><time>2026-04-26T08:13:31.016Z</time></trkpt><trkpt lat="44.91404" lon="9.2645033"><ele>592.0</ele><time>2026-04-26T08:13:32.015Z</time></trkpt><trkpt lat="44.9139433" lon="9.2645917"><ele>592.0</ele><time>2026-04-26T08:13:33.016Z</time></trkpt><trkpt lat="44.91384" lon="9.2646983"><ele>592.0</ele><time>2026-04-26T08:13:34.015Z</time></trkpt><trkpt lat="44.9137233" lon="9.264805"><ele>592.0</ele><time>2026-04-26T08:13:35.016Z</time></trkpt><trkpt lat="44.9135933" lon="9.264925"><ele>592.0</ele><time>2026-04-26T08:13:36.016Z</time></trkpt><trkpt lat="44.91349" lon="9.265075"><ele>592.0</ele><time>2026-04-26T08:13:37.015Z</time></trkpt><trkpt lat="44.9133833" lon="9.2652033"><ele>592.0</ele><time>2026-04-26T08:13:38.016Z</time></trkpt><trkpt lat="44.913265" lon="9.2653417"><ele>592.25</ele><time>2026-04-26T08:13:39.016Z</time></trkpt><trkpt lat="44.9131567" lon="9.2654967"><ele>592.5</ele><time>2026-04-26T08:13:40.015Z</time></trkpt><trkpt lat="44.91305" lon="9.2656417"><ele>592.75</ele><time>2026-04-26T08:13:41.015Z</time></trkpt><trkpt lat="44.912955" lon="9.2657783"><ele>593.0</ele><time>2026-04-26T08:13:42.016Z</time></trkpt><trkpt lat="44.9128683" lon="9.2659033"><ele>593.0</ele><time>2026-04-26T08:13:43.016Z</time></trkpt><trkpt lat="44.9127667" lon="9.26603"><ele>593.0</ele><time>2026-04-26T08:13:44.016Z</time></trkpt><trkpt lat="44.9126767" lon="9.2661433"><ele>593.0</ele><time>2026-04-26T08:13:45.015Z</time></trkpt><trkpt lat="44.9125883" lon="9.2662633"><ele>593.0</ele><time>2026-04-26T08:13:46.016Z</time></trkpt><trkpt lat="44.9125133" lon="9.2663667"><ele>593.4</ele><time>2026-04-26T08:13:47.015Z</time></trkpt><trkpt lat="44.9124517" lon="9.2664833"><ele>593.8</ele><time>2026-04-26T08:13:48.015Z</time></trkpt><trkpt lat="44.9123883" lon="9.2666"><ele>594.2</ele><time>2026-04-26T08:13:49.015Z</time></trkpt><trkpt lat="44.9123233" lon="9.2667183"><ele>594.6</ele><time>2026-04-26T08:13:50.015Z</time></trkpt><trkpt lat="44.9122717" lon="9.2668233"><ele>595.0</ele><time>2026-04-26T08:13:51.015Z</time></trkpt><trkpt lat="44.91222" lon="9.2669533"><ele>595.0</ele><time>2026-04-26T08:13:52.016Z</time></trkpt><trkpt lat="44.9121683" lon="9.2671033"><ele>595.0</ele><time>2026-04-26T08:13:53.015Z</time></trkpt><trkpt lat="44.91212" lon="9.2672717"><ele>595.0</ele><time>2026-04-26T08:13:54.015Z</time></trkpt><trkpt lat="44.9120817" lon="9.26744"><ele>595.0</ele><time>2026-04-26T08:13:55.016Z</time></trkpt><trkpt lat="44.9120483" lon="9.2676033"><ele>593.0</ele><time>2026-04-26T08:13:56.015Z</time></trkpt><trkpt lat="44.912045" lon="9.2677833"><ele>591.0</ele><time>2026-04-26T08:13:57.016Z</time></trkpt><trkpt lat="44.9120417" lon="9.26796"><ele>589.0</ele><time>2026-04-26T08:13:58.016Z</time></trkpt><trkpt lat="44.9120383" lon="9.2681467"><ele>587.0</ele><time>2026-04-26T08:13:59.015Z</time></trkpt><trkpt lat="44.9120383" lon="9.2683583"><ele>585.5</ele><time>2026-04-26T08:14:00.015Z</time></trkpt><trkpt lat="44.9120417" lon="9.2685583"><ele>584.0</ele><time>2026-04-26T08:14:01.016Z</time></trkpt><trkpt lat="44.9120383" lon="9.2687417"><ele>582.5</ele><time>2026-04-26T08:14:02.016Z</time></trkpt><trkpt lat="44.9120333" lon="9.2689067"><ele>581.0</ele><time>2026-04-26T08:14:03.016Z</time></trkpt><trkpt lat="44.9120183" lon="9.269075"><ele>580.5</ele><time>2026-04-26T08:14:04.015Z</time></trkpt><trkpt lat="44.9119983" lon="9.2692333"><ele>580.0</ele><time>2026-04-26T08:14:05.016Z</time></trkpt><trkpt lat="44.911975" lon="9.2693883"><ele>579.5</ele><time>2026-04-26T08:14:06.015Z</time></trkpt><trkpt lat="44.91195" lon="9.2695567"><ele>579.0</ele><time>2026-04-26T08:14:07.015Z</time></trkpt><trkpt lat="44.9119133" lon="9.26972"><ele>578.75</ele><time>2026-04-26T08:14:08.015Z</time></trkpt><trkpt lat="44.9118667" lon="9.269875"><ele>578.5</ele><time>2026-04-26T08:14:09.015Z</time></trkpt><trkpt lat="44.91182" lon="9.2700417"><ele>578.25</ele><time>2026-04-26T08:14:10.015Z</time></trkpt><trkpt lat="44.9117667" lon="9.2702117"><ele>578.0</ele><time>2026-04-26T08:14:11.015Z</time></trkpt><trkpt lat="44.9117167" lon="9.2703933"><ele>578.0</ele><time>2026-04-26T08:14:12.016Z</time></trkpt><trkpt lat="44.9116817" lon="9.2705733"><ele>578.0</ele><time>2026-04-26T08:14:13.015Z</time></trkpt><trkpt lat="44.91166" lon="9.270765"><ele>578.0</ele><time>2026-04-26T08:14:14.016Z</time></trkpt><trkpt lat="44.9116483" lon="9.2709533"><ele>578.0</ele><time>2026-04-26T08:14:15.015Z</time></trkpt><trkpt lat="44.9116433" lon="9.271135"><ele>575.5</ele><time>2026-04-26T08:14:16.015Z</time></trkpt><trkpt lat="44.9116317" lon="9.2713183"><ele>573.0</ele><time>2026-04-26T08:14:17.016Z</time></trkpt><trkpt lat="44.9116217" lon="9.2715017"><ele>570.5</ele><time>2026-04-26T08:14:18.016Z</time></trkpt><trkpt lat="44.91161" lon="9.2716783"><ele>568.0</ele><time>2026-04-26T08:14:19.015Z</time></trkpt><trkpt lat="44.9116" lon="9.271865"><ele>566.6</ele><time>2026-04-26T08:14:20.016Z</time></trkpt><trkpt lat="44.91159" lon="9.2720483"><ele>565.1999999999999</ele><time>2026-04-26T08:14:21.015Z</time></trkpt><trkpt lat="44.9115683" lon="9.2722117"><ele>563.8</ele><time>2026-04-26T08:14:22.016Z</time></trkpt><trkpt lat="44.911545" lon="9.2723483"><ele>562.4</ele><time>2026-04-26T08:14:23.015Z</time></trkpt><trkpt lat="44.9115133" lon="9.2724667"><ele>561.0</ele><time>2026-04-26T08:14:24.016Z</time></trkpt><trkpt lat="44.9114633" lon="9.27257"><ele>559.8333333333334</ele><time>2026-04-26T08:14:25.015Z</time></trkpt><trkpt lat="44.9113933" lon="9.2726233"><ele>558.6666666666666</ele><time>2026-04-26T08:14:26.016Z</time></trkpt><trkpt lat="44.911325" lon="9.2726517"><ele>557.5</ele><time>2026-04-26T08:14:27.015Z</time></trkpt><trkpt lat="44.9112283" lon="9.272585"><ele>556.3333333333333</ele><time>2026-04-26T08:14:28.015Z</time></trkpt><trkpt lat="44.9111433" lon="9.2725417"><ele>555.1666666666666</ele><time>2026-04-26T08:14:29.015Z</time></trkpt><trkpt lat="44.9110683" lon="9.2725117"><ele>554.0</ele><time>2026-04-26T08:14:30.016Z</time></trkpt><trkpt lat="44.91095" lon="9.2725267"><ele>554.0</ele><time>2026-04-26T08:14:32.016Z</time></trkpt><trkpt lat="44.9109567" lon="9.2726467"><ele>554.0</ele><time>2026-04-26T08:14:33.016Z</time></trkpt><trkpt lat="44.910965" lon="9.27284"><ele>554.0</ele><time>2026-04-26T08:14:35.016Z</time></trkpt><trkpt lat="44.9110067" lon="9.272975"><ele>554.0</ele><time>2026-04-26T08:14:36.015Z</time></trkpt><trkpt lat="44.9111033" lon="9.273095"><ele>552.0</ele><time>2026-04-26T08:14:37.016Z</time></trkpt><trkpt lat="44.9112467" lon="9.2731817"><ele>550.0</ele><time>2026-04-26T08:14:38.016Z</time></trkpt><trkpt lat="44.9114233" lon="9.2732267"><ele>548.0</ele><time>2026-04-26T08:14:39.015Z</time></trkpt><trkpt lat="44.9115367" lon="9.2732733"><ele>548.0</ele><time>2026-04-26T08:14:40.015Z</time></trkpt><trkpt lat="44.9116467" lon="9.2733083"><ele>548.0</ele><time>2026-04-26T08:14:41.016Z</time></trkpt><trkpt lat="44.9117417" lon="9.2733083"><ele>548.0</ele><time>2026-04-26T08:14:42.015Z</time></trkpt><trkpt lat="44.9118267" lon="9.2733017"><ele>548.0</ele><time>2026-04-26T08:14:43.015Z</time></trkpt><trkpt lat="44.91191" lon="9.273305"><ele>548.0</ele><time>2026-04-26T08:14:44.015Z</time></trkpt><trkpt lat="44.9119783" lon="9.27333"><ele>548.0</ele><time>2026-04-26T08:14:45.015Z</time></trkpt><trkpt lat="44.9120283" lon="9.2734783"><ele>545.5</ele><time>2026-04-26T08:14:47.015Z</time></trkpt><trkpt lat="44.9119633" lon="9.2736433"><ele>543.0</ele><time>2026-04-26T08:14:48.016Z</time></trkpt><trkpt lat="44.9119467" lon="9.2737783"><ele>540.5</ele><time>2026-04-26T08:14:49.015Z</time></trkpt><trkpt lat="44.9119017" lon="9.273935"><ele>538.0</ele><time>2026-04-26T08:14:50.015Z</time></trkpt><trkpt lat="44.91181" lon="9.2741417"><ele>538.5</ele><time>2026-04-26T08:14:51.015Z</time></trkpt><trkpt lat="44.9117483" lon="9.2743317"><ele>539.0</ele><time>2026-04-26T08:14:52.015Z</time></trkpt><trkpt lat="44.9117133" lon="9.2745167"><ele>539.5</ele><time>2026-04-26T08:14:53.016Z</time></trkpt><trkpt lat="44.9116933" lon="9.2746783"><ele>540.0</ele><time>2026-04-26T08:14:54.015Z</time></trkpt><trkpt lat="44.9116867" lon="9.2748217"><ele>539.0</ele><time>2026-04-26T08:14:55.016Z</time></trkpt><trkpt lat="44.9116917" lon="9.2749167"><ele>538.0</ele><time>2026-04-26T08:14:56.015Z</time></trkpt><trkpt lat="44.9116867" lon="9.275025"><ele>537.0</ele><time>2026-04-26T08:14:58.015Z</time></trkpt><trkpt lat="44.9116617" lon="9.2751233"><ele>536.0</ele><time>2026-04-26T08:15:01.015Z</time></trkpt><trkpt lat="44.9116417" lon="9.2752267"><ele>535.0</ele><time>2026-04-26T08:15:03.015Z</time></trkpt><trkpt lat="44.9116317" lon="9.2753333"><ele>534.0</ele><time>2026-04-26T08:15:05.016Z</time></trkpt><trkpt lat="44.9116033" lon="9.275485"><ele>534.0</ele><time>2026-04-26T08:15:07.016Z</time></trkpt><trkpt lat="44.9116017" lon="9.27558"><ele>534.0</ele><time>2026-04-26T08:15:08.015Z</time></trkpt><trkpt lat="44.911595" lon="9.2756767"><ele>534.0</ele><time>2026-04-26T08:15:09.016Z</time></trkpt><trkpt lat="44.9116033" lon="9.275845"><ele>534.0</ele><time>2026-04-26T08:15:11.015Z</time></trkpt><trkpt lat="44.91167" lon="9.2758633"><ele>534.0</ele><time>2026-04-26T08:15:14.016Z</time></trkpt><trkpt lat="44.9116417" lon="9.2757617"><ele>534.0</ele><time>2026-04-26T08:15:20.016Z</time></trkpt><trkpt lat="44.9116033" lon="9.2756833"><ele>534.0</ele><time>2026-04-26T08:15:22.016Z</time></trkpt><trkpt lat="44.911575" lon="9.2756017"><ele>534.0</ele><time>2026-04-26T08:15:23.015Z</time></trkpt><trkpt lat="44.91158" lon="9.275425"><ele>534.0</ele><time>2026-04-26T08:15:25.015Z</time></trkpt><trkpt lat="44.9115933" lon="9.2753117"><ele>534.0</ele><time>2026-04-26T08:15:26.016Z</time></trkpt><trkpt lat="44.9115983" lon="9.2752133"><ele>534.0</ele><time>2026-04-26T08:15:27.015Z</time></trkpt><trkpt lat="44.9116117" lon="9.2751133"><ele>534.0</ele><time>2026-04-26T08:15:28.016Z</time></trkpt><trkpt lat="44.9116133" lon="9.27502"><ele>534.0</ele><time>2026-04-26T08:15:29.015Z</time></trkpt><trkpt lat="44.9116033" lon="9.2749217"><ele>534.0</ele><time>2026-04-26T08:15:30.016Z</time></trkpt><trkpt lat="44.9115267" lon="9.2747867"><ele>534.0</ele><time>2026-04-26T08:15:32.015Z</time></trkpt><trkpt lat="44.911425" lon="9.2747417"><ele>534.0</ele><time>2026-04-26T08:15:33.016Z</time></trkpt><trkpt lat="44.9113133" lon="9.274695"><ele>534.0</ele><time>2026-04-26T08:15:34.016Z</time></trkpt><trkpt lat="44.9111767" lon="9.274655"><ele>534.25</ele><time>2026-04-26T08:15:35.016Z</time></trkpt><trkpt lat="44.91106" lon="9.2746083"><ele>534.5</ele><time>2026-04-26T08:15:36.015Z</time></trkpt><trkpt lat="44.9109317" lon="9.2745783"><ele>534.75</ele><time>2026-04-26T08:15:37.016Z</time></trkpt><trkpt lat="44.9108267" lon="9.2745383"><ele>535.0</ele><time>2026-04-26T08:15:38.016Z</time></trkpt><trkpt lat="44.9107317" lon="9.2745033"><ele>535.0</ele><time>2026-04-26T08:15:39.015Z</time></trkpt><trkpt lat="44.9106333" lon="9.274465"><ele>535.0</ele><time>2026-04-26T08:15:40.016Z</time></trkpt><trkpt lat="44.910525" lon="9.2744167"><ele>535.0</ele><time>2026-04-26T08:15:41.015Z</time></trkpt><trkpt lat="44.9103883" lon="9.2743583"><ele>535.0</ele><time>2026-04-26T08:15:42.016Z</time></trkpt><trkpt lat="44.910275" lon="9.2742767"><ele>535.0</ele><time>2026-04-26T08:15:43.015Z</time></trkpt><trkpt lat="44.9101433" lon="9.27421"><ele>535.0</ele><time>2026-04-26T08:15:44.015Z</time></trkpt><trkpt lat="44.9100133" lon="9.274125"><ele>535.0</ele><time>2026-04-26T08:15:45.016Z</time></trkpt><trkpt lat="44.9099017" lon="9.27404"><ele>535.0</ele><time>2026-04-26T08:15:46.016Z</time></trkpt><trkpt lat="44.90978" lon="9.2739367"><ele>533.75</ele><time>2026-04-26T08:15:47.015Z</time></trkpt><trkpt lat="44.9096533" lon="9.2738333"><ele>532.5</ele><time>2026-04-26T08:15:48.016Z</time></trkpt><trkpt lat="44.9095367" lon="9.27375"><ele>531.25</ele><time>2026-04-26T08:15:49.015Z</time></trkpt><trkpt lat="44.9094117" lon="9.2736617"><ele>530.0</ele><time>2026-04-26T08:15:50.015Z</time></trkpt><trkpt lat="44.9093033" lon="9.27358"><ele>528.0</ele><time>2026-04-26T08:15:51.016Z</time></trkpt><trkpt lat="44.9092117" lon="9.273505"><ele>526.0</ele><time>2026-04-26T08:15:52.016Z</time></trkpt><trkpt lat="44.9091317" lon="9.273445"><ele>524.0</ele><time>2026-04-26T08:15:53.015Z</time></trkpt><trkpt lat="44.9090517" lon="9.2733933"><ele>522.0</ele><time>2026-04-26T08:15:54.015Z</time></trkpt><trkpt lat="44.908975" lon="9.2733833"><ele>520.0</ele><time>2026-04-26T08:15:55.015Z</time></trkpt><trkpt lat="44.9088967" lon="9.27344"><ele>518.0</ele><time>2026-04-26T08:15:56.015Z</time></trkpt><trkpt lat="44.9088233" lon="9.27348"><ele>518.0</ele><time>2026-04-26T08:15:57.016Z</time></trkpt><trkpt lat="44.9087617" lon="9.2735333"><ele>518.0</ele><time>2026-04-26T08:15:58.016Z</time></trkpt><trkpt lat="44.9088083" lon="9.2737167"><ele>518.0</ele><time>2026-04-26T08:15:59.016Z</time></trkpt><trkpt lat="44.9088567" lon="9.2738767"><ele>518.0</ele><time>2026-04-26T08:16:00.016Z</time></trkpt><trkpt lat="44.908895" lon="9.274005"><ele>518.0</ele><time>2026-04-26T08:16:01.016Z</time></trkpt><trkpt lat="44.9089433" lon="9.2741167"><ele>519.0</ele><time>2026-04-26T08:16:02.016Z</time></trkpt><trkpt lat="44.9090333" lon="9.27424"><ele>520.0</ele><time>2026-04-26T08:16:03.015Z</time></trkpt><trkpt lat="44.9091117" lon="9.2743267"><ele>521.0</ele><time>2026-04-26T08:16:04.015Z</time></trkpt><trkpt lat="44.9091783" lon="9.2744233"><ele>522.0</ele><time>2026-04-26T08:16:05.016Z</time></trkpt><trkpt lat="44.9092383" lon="9.27452"><ele>523.0</ele><time>2026-04-26T08:16:06.016Z</time></trkpt><trkpt lat="44.9093033" lon="9.2746283"><ele>523.0</ele><time>2026-04-26T08:16:07.015Z</time></trkpt><trkpt lat="44.9093633" lon="9.2747367"><ele>523.0</ele><time>2026-04-26T08:16:08.015Z</time></trkpt><trkpt lat="44.9094283" lon="9.2748517"><ele>523.0</ele><time>2026-04-26T08:16:09.016Z</time></trkpt><trkpt lat="44.909485" lon="9.2749717"><ele>523.0</ele><time>2026-04-26T08:16:10.016Z</time></trkpt><trkpt lat="44.9095417" lon="9.2750933"><ele>523.0</ele><time>2026-04-26T08:16:11.015Z</time></trkpt><trkpt lat="44.9096" lon="9.2752167"><ele>521.3333333333334</ele><time>2026-04-26T08:16:12.016Z</time></trkpt><trkpt lat="44.9096567" lon="9.2753317"><ele>519.6666666666667</ele><time>2026-04-26T08:16:13.015Z</time></trkpt><trkpt lat="44.9096983" lon="9.2754417"><ele>518.0</ele><time>2026-04-26T08:16:14.016Z</time></trkpt><trkpt lat="44.9097267" lon="9.2755567"><ele>516.3333333333334</ele><time>2026-04-26T08:16:15.015Z</time></trkpt><trkpt lat="44.9097533" lon="9.27567"><ele>514.6666666666666</ele><time>2026-04-26T08:16:16.016Z</time></trkpt><trkpt lat="44.90976" lon="9.2757783"><ele>513.0</ele><time>2026-04-26T08:16:17.016Z</time></trkpt><trkpt lat="44.90974" lon="9.2758867"><ele>512.0</ele><time>2026-04-26T08:16:18.015Z</time></trkpt><trkpt lat="44.9097083" lon="9.2759833"><ele>510.99999999999994</ele><time>2026-04-26T08:16:19.015Z</time></trkpt><trkpt lat="44.9096633" lon="9.276065"><ele>509.99999999999994</ele><time>2026-04-26T08:16:20.016Z</time></trkpt><trkpt lat="44.9095683" lon="9.276125"><ele>509.0</ele><time>2026-04-26T08:16:22.015Z</time></trkpt><trkpt lat="44.9095017" lon="9.2761133"><ele>508.0</ele><time>2026-04-26T08:16:23.015Z</time></trkpt><trkpt lat="44.90934" lon="9.27605"><ele>504.5</ele><time>2026-04-26T08:16:25.016Z</time></trkpt><trkpt lat="44.9092" lon="9.2759317"><ele>501.0</ele><time>2026-04-26T08:16:26.015Z</time></trkpt><trkpt lat="44.9090917" lon="9.275875"><ele>497.5</ele><time>2026-04-26T08:16:27.016Z</time></trkpt><trkpt lat="44.908955" lon="9.275815"><ele>494.0</ele><time>2026-04-26T08:16:28.015Z</time></trkpt><trkpt lat="44.9088583" lon="9.2758017"><ele>494.0</ele><time>2026-04-26T08:16:29.015Z</time></trkpt><trkpt lat="44.908755" lon="9.2757867"><ele>494.0</ele><time>2026-04-26T08:16:30.016Z</time></trkpt><trkpt lat="44.9086517" lon="9.2757733"><ele>494.0</ele><time>2026-04-26T08:16:31.015Z</time></trkpt><trkpt lat="44.9085317" lon="9.2757267"><ele>494.0</ele><time>2026-04-26T08:16:32.016Z</time></trkpt><trkpt lat="44.9083" lon="9.2756917"><ele>495.5</ele><time>2026-04-26T08:16:34.016Z</time></trkpt><trkpt lat="44.9081517" lon="9.2756567"><ele>497.0</ele><time>2026-04-26T08:16:35.016Z</time></trkpt><trkpt lat="44.908045" lon="9.2756217"><ele>498.5</ele><time>2026-04-26T08:16:36.016Z</time></trkpt><trkpt lat="44.90794" lon="9.2756033"><ele>500.0</ele><time>2026-04-26T08:16:37.015Z</time></trkpt><trkpt lat="44.90782" lon="9.2756333"><ele>497.4</ele><time>2026-04-26T08:16:38.016Z</time></trkpt><trkpt lat="44.9077167" lon="9.2756817"><ele>494.8</ele><time>2026-04-26T08:16:39.015Z</time></trkpt><trkpt lat="44.90762" lon="9.2757133"><ele>492.20000000000005</ele><time>2026-04-26T08:16:40.015Z</time></trkpt><trkpt lat="44.9075267" lon="9.2757567"><ele>489.6</ele><time>2026-04-26T08:16:41.016Z</time></trkpt><trkpt lat="44.907435" lon="9.275825"><ele>487.0</ele><time>2026-04-26T08:16:42.016Z</time></trkpt><trkpt lat="44.90736" lon="9.2759317"><ele>487.0</ele><time>2026-04-26T08:16:43.016Z</time></trkpt><trkpt lat="44.9073033" lon="9.2760217"><ele>487.00000000000006</ele><time>2026-04-26T08:16:44.016Z</time></trkpt><trkpt lat="44.9072583" lon="9.27613"><ele>487.00000000000006</ele><time>2026-04-26T08:16:45.016Z</time></trkpt><trkpt lat="44.9072333" lon="9.2763167"><ele>487.0</ele><time>2026-04-26T08:16:46.016Z</time></trkpt><trkpt lat="44.9072317" lon="9.2765133"><ele>487.0</ele><time>2026-04-26T08:16:47.015Z</time></trkpt><trkpt lat="44.9072233" lon="9.276695"><ele>484.20000000000005</ele><time>2026-04-26T08:16:48.016Z</time></trkpt><trkpt lat="44.9072117" lon="9.2768533"><ele>481.40000000000003</ele><time>2026-04-26T08:16:49.016Z</time></trkpt><trkpt lat="44.907205" lon="9.2770033"><ele>478.59999999999997</ele><time>2026-04-26T08:16:50.016Z</time></trkpt><trkpt lat="44.9071833" lon="9.2771283"><ele>475.79999999999995</ele><time>2026-04-26T08:16:51.015Z</time></trkpt><trkpt lat="44.90715" lon="9.277235"><ele>473.0</ele><time>2026-04-26T08:16:52.015Z</time></trkpt><trkpt lat="44.9071033" lon="9.2773167"><ele>473.0</ele><time>2026-04-26T08:16:53.015Z</time></trkpt><trkpt lat="44.9069817" lon="9.27732"><ele>472.99999999999994</ele><time>2026-04-26T08:16:55.016Z</time></trkpt><trkpt lat="44.9069217" lon="9.27726"><ele>472.99999999999994</ele><time>2026-04-26T08:16:56.015Z</time></trkpt><trkpt lat="44.9068483" lon="9.2771667"><ele>473.0</ele><time>2026-04-26T08:16:57.015Z</time></trkpt><trkpt lat="44.906775" lon="9.2770317"><ele>473.0</ele><time>2026-04-26T08:16:58.015Z</time></trkpt><trkpt lat="44.906705" lon="9.2768967"><ele>472.2</ele><time>2026-04-26T08:16:59.015Z</time></trkpt><trkpt lat="44.906645" lon="9.2767433"><ele>471.4</ele><time>2026-04-26T08:17:00.016Z</time></trkpt><trkpt lat="44.9065917" lon="9.2765967"><ele>470.59999999999997</ele><time>2026-04-26T08:17:01.016Z</time></trkpt><trkpt lat="44.906535" lon="9.2764667"><ele>469.79999999999995</ele><time>2026-04-26T08:17:02.016Z</time></trkpt><trkpt lat="44.9064717" lon="9.2763617"><ele>469.0</ele><time>2026-04-26T08:17:03.015Z</time></trkpt><trkpt lat="44.9064" lon="9.2762633"><ele>470.83333333333337</ele><time>2026-04-26T08:17:04.015Z</time></trkpt><trkpt lat="44.9063367" lon="9.2761717"><ele>472.6666666666667</ele><time>2026-04-26T08:17:05.016Z</time></trkpt><trkpt lat="44.906265" lon="9.2761133"><ele>474.5</ele><time>2026-04-26T08:17:06.015Z</time></trkpt><trkpt lat="44.9062017" lon="9.27605"><ele>476.33333333333337</ele><time>2026-04-26T08:17:07.015Z</time></trkpt><trkpt lat="44.9061117" lon="9.2760433"><ele>478.1666666666667</ele><time>2026-04-26T08:17:08.016Z</time></trkpt><trkpt lat="44.9060233" lon="9.276075"><ele>480.0</ele><time>2026-04-26T08:17:09.016Z</time></trkpt><trkpt lat="44.905935" lon="9.2761483"><ele>477.4</ele><time>2026-04-26T08:17:10.015Z</time></trkpt><trkpt lat="44.9058667" lon="9.2762667"><ele>474.8</ele><time>2026-04-26T08:17:11.015Z</time></trkpt><trkpt lat="44.90581" lon="9.2764083"><ele>472.20000000000005</ele><time>2026-04-26T08:17:12.015Z</time></trkpt><trkpt lat="44.9057717" lon="9.2765533"><ele>469.6</ele><time>2026-04-26T08:17:13.016Z</time></trkpt><trkpt lat="44.9057617" lon="9.2766967"><ele>467.0</ele><time>2026-04-26T08:17:14.015Z</time></trkpt><trkpt lat="44.9057917" lon="9.2768667"><ele>465.5</ele><time>2026-04-26T08:17:15.015Z</time></trkpt><trkpt lat="44.905855" lon="9.2770917"><ele>464.0</ele><time>2026-04-26T08:17:16.015Z</time></trkpt><trkpt lat="44.9058867" lon="9.2772667"><ele>462.5</ele><time>2026-04-26T08:17:17.016Z</time></trkpt><trkpt lat="44.905905" lon="9.2774317"><ele>461.0</ele><time>2026-04-26T08:17:18.015Z</time></trkpt><trkpt lat="44.9059167" lon="9.2775767"><ele>460.99999999999994</ele><time>2026-04-26T08:17:19.015Z</time></trkpt><trkpt lat="44.90592" lon="9.2777083"><ele>461.0</ele><time>2026-04-26T08:17:20.014Z</time></trkpt><trkpt lat="44.9058917" lon="9.2778317"><ele>461.0</ele><time>2026-04-26T08:17:21.014Z</time></trkpt><trkpt lat="44.90584" lon="9.2779083"><ele>461.0</ele><time>2026-04-26T08:17:22.015Z</time></trkpt><trkpt lat="44.9057717" lon="9.2779533"><ele>460.99999999999994</ele><time>2026-04-26T08:17:23.015Z</time></trkpt><trkpt lat="44.90569" lon="9.27794"><ele>461.0</ele><time>2026-04-26T08:17:24.014Z</time></trkpt><trkpt lat="44.9056033" lon="9.2778717"><ele>457.75</ele><time>2026-04-26T08:17:25.014Z</time></trkpt><trkpt lat="44.905515" lon="9.2777333"><ele>454.5</ele><time>2026-04-26T08:17:26.015Z</time></trkpt><trkpt lat="44.90542" lon="9.2775983"><ele>451.25</ele><time>2026-04-26T08:17:27.015Z</time></trkpt><trkpt lat="44.90533" lon="9.277535"><ele>448.0</ele><time>2026-04-26T08:17:28.015Z</time></trkpt><trkpt lat="44.9052333" lon="9.277525"><ele>448.0</ele><time>2026-04-26T08:17:29.015Z</time></trkpt><trkpt lat="44.9051267" lon="9.27758"><ele>448.0</ele><time>2026-04-26T08:17:30.015Z</time></trkpt><trkpt lat="44.9050183" lon="9.27765"><ele>448.0</ele><time>2026-04-26T08:17:31.014Z</time></trkpt><trkpt lat="44.904905" lon="9.277715"><ele>448.0</ele><time>2026-04-26T08:17:32.015Z</time></trkpt><trkpt lat="44.9048" lon="9.2778017"><ele>445.25</ele><time>2026-04-26T08:17:33.015Z</time></trkpt><trkpt lat="44.90469" lon="9.2778867"><ele>442.5</ele><time>2026-04-26T08:17:34.015Z</time></trkpt><trkpt lat="44.9045783" lon="9.2779683"><ele>439.75</ele><time>2026-04-26T08:17:35.014Z</time></trkpt><trkpt lat="44.9044733" lon="9.27805"><ele>437.0</ele><time>2026-04-26T08:17:36.015Z</time></trkpt><trkpt lat="44.90435" lon="9.2781267"><ele>433.0</ele><time>2026-04-26T08:17:37.015Z</time></trkpt><trkpt lat="44.9042317" lon="9.278205"><ele>429.0</ele><time>2026-04-26T08:17:38.014Z</time></trkpt><trkpt lat="44.904115" lon="9.2782883"><ele>425.0</ele><time>2026-04-26T08:17:39.014Z</time></trkpt><trkpt lat="44.9039867" lon="9.2783367"><ele>421.0</ele><time>2026-04-26T08:17:40.014Z</time></trkpt><trkpt lat="44.9038983" lon="9.278375"><ele>421.0</ele><time>2026-04-26T08:17:41.015Z</time></trkpt><trkpt lat="44.9038167" lon="9.278405"><ele>421.0</ele><time>2026-04-26T08:17:42.015Z</time></trkpt><trkpt lat="44.9037283" lon="9.27842"><ele>421.0</ele><time>2026-04-26T08:17:43.015Z</time></trkpt><trkpt lat="44.9036333" lon="9.2784183"><ele>421.0</ele><time>2026-04-26T08:17:44.014Z</time></trkpt><trkpt lat="44.9035367" lon="9.27839"><ele>421.0</ele><time>2026-04-26T08:17:45.015Z</time></trkpt><trkpt lat="44.9034183" lon="9.2783667"><ele>419.6</ele><time>2026-04-26T08:17:46.015Z</time></trkpt><trkpt lat="44.903315" lon="9.278345"><ele>418.20000000000005</ele><time>2026-04-26T08:17:47.015Z</time></trkpt><trkpt lat="44.9032117" lon="9.2783533"><ele>416.79999999999995</ele><time>2026-04-26T08:17:48.014Z</time></trkpt><trkpt lat="44.9031083" lon="9.2783567"><ele>415.4</ele><time>2026-04-26T08:17:49.014Z</time></trkpt><trkpt lat="44.9030133" lon="9.2783867"><ele>414.0</ele><time>2026-04-26T08:17:50.015Z</time></trkpt><trkpt lat="44.9029233" lon="9.27844"><ele>414.0</ele><time>2026-04-26T08:17:51.015Z</time></trkpt><trkpt lat="44.9028267" lon="9.2785"><ele>414.0</ele><time>2026-04-26T08:17:52.014Z</time></trkpt><trkpt lat="44.9027333" lon="9.2785633"><ele>414.0</ele><time>2026-04-26T08:17:53.015Z</time></trkpt><trkpt lat="44.90266" lon="9.2786483"><ele>414.0</ele><time>2026-04-26T08:17:54.015Z</time></trkpt><trkpt lat="44.902605" lon="9.278765"><ele>414.0</ele><time>2026-04-26T08:17:55.015Z</time></trkpt><trkpt lat="44.9025617" lon="9.278905"><ele>410.75</ele><time>2026-04-26T08:17:56.015Z</time></trkpt><trkpt lat="44.9025233" lon="9.2790533"><ele>407.5</ele><time>2026-04-26T08:17:57.014Z</time></trkpt><trkpt lat="44.9024817" lon="9.27919"><ele>404.25</ele><time>2026-04-26T08:17:58.015Z</time></trkpt><trkpt lat="44.902445" lon="9.27935"><ele>401.0</ele><time>2026-04-26T08:17:59.015Z</time></trkpt><trkpt lat="44.9023983" lon="9.279535"><ele>401.0</ele><time>2026-04-26T08:18:00.015Z</time></trkpt><trkpt lat="44.90235" lon="9.2797033"><ele>401.0</ele><time>2026-04-26T08:18:01.015Z</time></trkpt><trkpt lat="44.9023083" lon="9.2798717"><ele>401.0</ele><time>2026-04-26T08:18:02.014Z</time></trkpt><trkpt lat="44.9022783" lon="9.28002"><ele>401.0</ele><time>2026-04-26T08:18:03.015Z</time></trkpt><trkpt lat="44.9022267" lon="9.2801633"><ele>399.4</ele><time>2026-04-26T08:18:04.014Z</time></trkpt><trkpt lat="44.9021617" lon="9.280295"><ele>397.8</ele><time>2026-04-26T08:18:05.014Z</time></trkpt><trkpt lat="44.9021067" lon="9.28041"><ele>396.2</ele><time>2026-04-26T08:18:06.015Z</time></trkpt><trkpt lat="44.9020483" lon="9.2805317"><ele>394.59999999999997</ele><time>2026-04-26T08:18:07.014Z</time></trkpt><trkpt lat="44.9019983" lon="9.2806633"><ele>393.0</ele><time>2026-04-26T08:18:08.014Z</time></trkpt><trkpt lat="44.9019467" lon="9.2807867"><ele>393.4</ele><time>2026-04-26T08:18:09.014Z</time></trkpt><trkpt lat="44.9018883" lon="9.2809067"><ele>393.79999999999995</ele><time>2026-04-26T08:18:10.014Z</time></trkpt><trkpt lat="44.901845" lon="9.2810333"><ele>394.2</ele><time>2026-04-26T08:18:11.015Z</time></trkpt><trkpt lat="44.9017967" lon="9.2811517"><ele>394.6</ele><time>2026-04-26T08:18:12.014Z</time></trkpt><trkpt lat="44.9017433" lon="9.2812617"><ele>395.0</ele><time>2026-04-26T08:18:13.014Z</time></trkpt><trkpt lat="44.901685" lon="9.2813533"><ele>393.6</ele><time>2026-04-26T08:18:14.014Z</time></trkpt><trkpt lat="44.9016217" lon="9.2814333"><ele>392.2</ele><time>2026-04-26T08:18:15.014Z</time></trkpt><trkpt lat="44.90155" lon="9.281505"><ele>390.79999999999995</ele><time>2026-04-26T08:18:16.014Z</time></trkpt><trkpt lat="44.9014667" lon="9.2815567"><ele>389.4</ele><time>2026-04-26T08:18:17.015Z</time></trkpt><trkpt lat="44.901375" lon="9.2816283"><ele>388.0</ele><time>2026-04-26T08:18:18.014Z</time></trkpt><trkpt lat="44.90128" lon="9.281685"><ele>388.00000000000006</ele><time>2026-04-26T08:18:19.015Z</time></trkpt><trkpt lat="44.9012" lon="9.281745"><ele>388.0</ele><time>2026-04-26T08:18:20.014Z</time></trkpt><trkpt lat="44.9011467" lon="9.28182"><ele>388.0</ele><time>2026-04-26T08:18:21.014Z</time></trkpt><trkpt lat="44.9010967" lon="9.281895"><ele>388.0</ele><time>2026-04-26T08:18:22.015Z</time></trkpt><trkpt lat="44.9010717" lon="9.2819917"><ele>388.00000000000006</ele><time>2026-04-26T08:18:23.014Z</time></trkpt><trkpt lat="44.901075" lon="9.282125"><ele>388.0</ele><time>2026-04-26T08:18:24.014Z</time></trkpt><trkpt lat="44.9010833" lon="9.2822667"><ele>386.2</ele><time>2026-04-26T08:18:25.014Z</time></trkpt><trkpt lat="44.90109" lon="9.2824033"><ele>384.4</ele><time>2026-04-26T08:18:26.014Z</time></trkpt><trkpt lat="44.9010917" lon="9.2825367"><ele>382.59999999999997</ele><time>2026-04-26T08:18:27.014Z</time></trkpt><trkpt lat="44.9010933" lon="9.2826583"><ele>380.79999999999995</ele><time>2026-04-26T08:18:28.014Z</time></trkpt><trkpt lat="44.9010817" lon="9.2827617"><ele>379.0</ele><time>2026-04-26T08:18:29.014Z</time></trkpt><trkpt lat="44.9010683" lon="9.2829167"><ele>379.0</ele><time>2026-04-26T08:18:31.014Z</time></trkpt><trkpt lat="44.90101" lon="9.2829767"><ele>379.0</ele><time>2026-04-26T08:18:33.014Z</time></trkpt><trkpt lat="44.9009383" lon="9.2829517"><ele>379.0</ele><time>2026-04-26T08:18:38.014Z</time></trkpt><trkpt lat="44.900855" lon="9.28286"><ele>379.0</ele><time>2026-04-26T08:18:40.014Z</time></trkpt><trkpt lat="44.9008" lon="9.2828033"><ele>379.0</ele><time>2026-04-26T08:18:41.015Z</time></trkpt><trkpt lat="44.9007367" lon="9.282735"><ele>379.0</ele><time>2026-04-26T08:18:42.014Z</time></trkpt><trkpt lat="44.900675" lon="9.282645"><ele>378.75</ele><time>2026-04-26T08:18:43.015Z</time></trkpt><trkpt lat="44.9006017" lon="9.2825417"><ele>378.5</ele><time>2026-04-26T08:18:44.015Z</time></trkpt><trkpt lat="44.900505" lon="9.2824"><ele>378.25</ele><time>2026-04-26T08:18:45.015Z</time></trkpt><trkpt lat="44.9003867" lon="9.2822833"><ele>378.0</ele><time>2026-04-26T08:18:46.015Z</time></trkpt><trkpt lat="44.90027" lon="9.2821817"><ele>376.79999999999995</ele><time>2026-04-26T08:18:47.015Z</time></trkpt><trkpt lat="44.90017" lon="9.2820817"><ele>375.6</ele><time>2026-04-26T08:18:48.015Z</time></trkpt><trkpt lat="44.9000883" lon="9.2819883"><ele>374.4</ele><time>2026-04-26T08:18:49.014Z</time></trkpt><trkpt lat="44.90002" lon="9.2819"><ele>373.20000000000005</ele><time>2026-04-26T08:18:50.014Z</time></trkpt><trkpt lat="44.899945" lon="9.2818167"><ele>372.0</ele><time>2026-04-26T08:18:51.015Z</time></trkpt><trkpt lat="44.89987" lon="9.281735"><ele>372.0</ele><time>2026-04-26T08:18:52.014Z</time></trkpt><trkpt lat="44.89981" lon="9.281635"><ele>372.0</ele><time>2026-04-26T08:18:53.015Z</time></trkpt><trkpt lat="44.8997417" lon="9.2815417"><ele>372.0</ele><time>2026-04-26T08:18:54.014Z</time></trkpt><trkpt lat="44.89967" lon="9.2814367"><ele>372.0</ele><time>2026-04-26T08:18:55.015Z</time></trkpt><trkpt lat="44.8996" lon="9.2813233"><ele>372.0</ele><time>2026-04-26T08:18:56.014Z</time></trkpt><trkpt lat="44.8995483" lon="9.281195"><ele>374.0</ele><time>2026-04-26T08:18:57.015Z</time></trkpt><trkpt lat="44.8995117" lon="9.281045"><ele>376.0</ele><time>2026-04-26T08:18:58.015Z</time></trkpt><trkpt lat="44.8994833" lon="9.28087"><ele>378.0</ele><time>2026-04-26T08:18:59.014Z</time></trkpt><trkpt lat="44.89946" lon="9.2806717"><ele>380.0</ele><time>2026-04-26T08:19:00.014Z</time></trkpt><trkpt lat="44.8994383" lon="9.2804683"><ele>380.25</ele><time>2026-04-26T08:19:01.015Z</time></trkpt><trkpt lat="44.8994367" lon="9.2802433"><ele>380.5</ele><time>2026-04-26T08:19:02.015Z</time></trkpt><trkpt lat="44.8994333" lon="9.2800333"><ele>380.75</ele><time>2026-04-26T08:19:03.015Z</time></trkpt><trkpt lat="44.899435" lon="9.2798383"><ele>381.0</ele><time>2026-04-26T08:19:04.014Z</time></trkpt><trkpt lat="44.8993733" lon="9.2796917"><ele>379.75</ele><time>2026-04-26T08:19:05.015Z</time></trkpt><trkpt lat="44.89928" lon="9.27956"><ele>378.5</ele><time>2026-04-26T08:19:06.014Z</time></trkpt><trkpt lat="44.899165" lon="9.2794383"><ele>377.25</ele><time>2026-04-26T08:19:07.015Z</time></trkpt><trkpt lat="44.8990467" lon="9.2793317"><ele>376.0</ele><time>2026-04-26T08:19:08.014Z</time></trkpt><trkpt lat="44.8989067" lon="9.279235"><ele>376.0</ele><time>2026-04-26T08:19:09.015Z</time></trkpt><trkpt lat="44.8987767" lon="9.27913"><ele>376.0</ele><time>2026-04-26T08:19:10.015Z</time></trkpt><trkpt lat="44.89866" lon="9.2790367"><ele>376.0</ele><time>2026-04-26T08:19:11.015Z</time></trkpt><trkpt lat="44.898565" lon="9.27896"><ele>376.0</ele><time>2026-04-26T08:19:12.015Z</time></trkpt><trkpt lat="44.8984533" lon="9.2789133"><ele>378.75</ele><time>2026-04-26T08:19:13.014Z</time></trkpt><trkpt lat="44.8983117" lon="9.2788917"><ele>381.5</ele><time>2026-04-26T08:19:14.015Z</time></trkpt><trkpt lat="44.8981667" lon="9.2788833"><ele>384.25</ele><time>2026-04-26T08:19:15.014Z</time></trkpt><trkpt lat="44.8980233" lon="9.278875"><ele>387.0</ele><time>2026-04-26T08:19:16.014Z</time></trkpt><trkpt lat="44.8978817" lon="9.2788733"><ele>387.0</ele><time>2026-04-26T08:19:17.015Z</time></trkpt><trkpt lat="44.8977433" lon="9.2788633"><ele>387.0</ele><time>2026-04-26T08:19:18.015Z</time></trkpt><trkpt lat="44.89761" lon="9.27885"><ele>387.0</ele><time>2026-04-26T08:19:19.014Z</time></trkpt><trkpt lat="44.8975" lon="9.2787983"><ele>387.0</ele><time>2026-04-26T08:19:20.015Z</time></trkpt><trkpt lat="44.89738" lon="9.2787433"><ele>385.8</ele><time>2026-04-26T08:19:21.015Z</time></trkpt><trkpt lat="44.89727" lon="9.2786917"><ele>384.6</ele><time>2026-04-26T08:19:22.015Z</time></trkpt><trkpt lat="44.8971633" lon="9.278635"><ele>383.40000000000003</ele><time>2026-04-26T08:19:23.014Z</time></trkpt><trkpt lat="44.8970567" lon="9.278575"><ele>382.20000000000005</ele><time>2026-04-26T08:19:24.014Z</time></trkpt><trkpt lat="44.89696" lon="9.2785217"><ele>381.0</ele><time>2026-04-26T08:19:25.015Z</time></trkpt><trkpt lat="44.8968783" lon="9.278465"><ele>381.0</ele><time>2026-04-26T08:19:26.014Z</time></trkpt><trkpt lat="44.8968" lon="9.27841"><ele>381.0</ele><time>2026-04-26T08:19:27.014Z</time></trkpt><trkpt lat="44.896705" lon="9.2783633"><ele>381.0</ele><time>2026-04-26T08:19:28.015Z</time></trkpt><trkpt lat="44.8966183" lon="9.2782833"><ele>381.0</ele><time>2026-04-26T08:19:29.015Z</time></trkpt><trkpt lat="44.89652" lon="9.2781817"><ele>381.0</ele><time>2026-04-26T08:19:30.014Z</time></trkpt><trkpt lat="44.8964167" lon="9.2780917"><ele>380.75</ele><time>2026-04-26T08:19:31.014Z</time></trkpt><trkpt lat="44.8963133" lon="9.277985"><ele>380.5</ele><time>2026-04-26T08:19:32.015Z</time></trkpt><trkpt lat="44.8962033" lon="9.2778983"><ele>380.25</ele><time>2026-04-26T08:19:33.014Z</time></trkpt><trkpt lat="44.896095" lon="9.2778183"><ele>380.0</ele><time>2026-04-26T08:19:34.014Z</time></trkpt><trkpt lat="44.8959817" lon="9.2777333"><ele>377.75</ele><time>2026-04-26T08:19:35.014Z</time></trkpt><trkpt lat="44.8958583" lon="9.2776717"><ele>375.5</ele><time>2026-04-26T08:19:36.015Z</time></trkpt><trkpt lat="44.895735" lon="9.2775783"><ele>373.25</ele><time>2026-04-26T08:19:37.015Z</time></trkpt><trkpt lat="44.89562" lon="9.2775"><ele>371.0</ele><time>2026-04-26T08:19:38.014Z</time></trkpt><trkpt lat="44.89552" lon="9.27743"><ele>371.0</ele><time>2026-04-26T08:19:39.015Z</time></trkpt><trkpt lat="44.8954317" lon="9.2773333"><ele>371.0</ele><time>2026-04-26T08:19:40.015Z</time></trkpt><trkpt lat="44.895395" lon="9.2771783"><ele>371.0</ele><time>2026-04-26T08:19:41.014Z</time></trkpt><trkpt lat="44.8953867" lon="9.2770233"><ele>371.0</ele><time>2026-04-26T08:19:42.015Z</time></trkpt><trkpt lat="44.8954133" lon="9.2768333"><ele>372.75</ele><time>2026-04-26T08:19:43.014Z</time></trkpt><trkpt lat="44.8954067" lon="9.2766633"><ele>374.5</ele><time>2026-04-26T08:19:44.014Z</time></trkpt><trkpt lat="44.895395" lon="9.276475"><ele>376.25</ele><time>2026-04-26T08:19:45.014Z</time></trkpt><trkpt lat="44.8953833" lon="9.2762867"><ele>378.0</ele><time>2026-04-26T08:19:46.015Z</time></trkpt><trkpt lat="44.8953767" lon="9.2760917"><ele>379.25</ele><time>2026-04-26T08:19:47.014Z</time></trkpt><trkpt lat="44.89534" lon="9.2759133"><ele>380.5</ele><time>2026-04-26T08:19:48.015Z</time></trkpt><trkpt lat="44.8952933" lon="9.2757683"><ele>381.75</ele><time>2026-04-26T08:19:49.014Z</time></trkpt><trkpt lat="44.8952233" lon="9.2756483"><ele>383.0</ele><time>2026-04-26T08:19:50.014Z</time></trkpt><trkpt lat="44.8951267" lon="9.2755367"><ele>386.0</ele><time>2026-04-26T08:19:51.014Z</time></trkpt><trkpt lat="44.8950067" lon="9.2754267"><ele>389.0</ele><time>2026-04-26T08:19:52.014Z</time></trkpt><trkpt lat="44.8948867" lon="9.2753167"><ele>392.0</ele><time>2026-04-26T08:19:53.014Z</time></trkpt><trkpt lat="44.8947367" lon="9.2752317"><ele>395.0</ele><time>2026-04-26T08:19:54.014Z</time></trkpt><trkpt lat="44.8945883" lon="9.27514"><ele>395.0</ele><time>2026-04-26T08:19:55.014Z</time></trkpt><trkpt lat="44.8944367" lon="9.27505"><ele>395.0</ele><time>2026-04-26T08:19:56.014Z</time></trkpt><trkpt lat="44.89428" lon="9.2749817"><ele>395.0</ele><time>2026-04-26T08:19:57.014Z</time></trkpt><trkpt lat="44.8941117" lon="9.2749567"><ele>390.3333333333333</ele><time>2026-04-26T08:19:58.014Z</time></trkpt><trkpt lat="44.8939433" lon="9.27492"><ele>385.66666666666663</ele><time>2026-04-26T08:19:59.014Z</time></trkpt><trkpt lat="44.8937983" lon="9.27486"><ele>381.0</ele><time>2026-04-26T08:20:00.015Z</time></trkpt><trkpt lat="44.8936183" lon="9.2748233"><ele>378.75</ele><time>2026-04-26T08:20:01.015Z</time></trkpt><trkpt lat="44.8934717" lon="9.27473"><ele>376.5</ele><time>2026-04-26T08:20:02.014Z</time></trkpt><trkpt lat="44.8933667" lon="9.2746"><ele>374.25</ele><time>2026-04-26T08:20:03.014Z</time></trkpt><trkpt lat="44.893295" lon="9.274435"><ele>372.0</ele><time>2026-04-26T08:20:04.015Z</time></trkpt><trkpt lat="44.8932417" lon="9.2742317"><ele>372.0</ele><time>2026-04-26T08:20:05.014Z</time></trkpt><trkpt lat="44.893165" lon="9.2740433"><ele>372.0</ele><time>2026-04-26T08:20:06.014Z</time></trkpt><trkpt lat="44.893085" lon="9.2738317"><ele>372.0</ele><time>2026-04-26T08:20:07.015Z</time></trkpt><trkpt lat="44.8929967" lon="9.2736483"><ele>374.6666666666667</ele><time>2026-04-26T08:20:08.015Z</time></trkpt><trkpt lat="44.8929183" lon="9.2734533"><ele>377.33333333333337</ele><time>2026-04-26T08:20:09.015Z</time></trkpt><trkpt lat="44.8928233" lon="9.2732633"><ele>380.0</ele><time>2026-04-26T08:20:10.015Z</time></trkpt><trkpt lat="44.8927283" lon="9.2730767"><ele>377.5</ele><time>2026-04-26T08:20:11.014Z</time></trkpt><trkpt lat="44.8926517" lon="9.2728967"><ele>375.0</ele><time>2026-04-26T08:20:12.014Z</time></trkpt><trkpt lat="44.892605" lon="9.27272"><ele>372.5</ele><time>2026-04-26T08:20:13.014Z</time></trkpt><trkpt lat="44.892585" lon="9.2725433"><ele>370.0</ele><time>2026-04-26T08:20:14.015Z</time></trkpt><trkpt lat="44.89261" lon="9.2723633"><ele>375.25</ele><time>2026-04-26T08:20:15.014Z</time></trkpt><trkpt lat="44.8926583" lon="9.272195"><ele>380.5</ele><time>2026-04-26T08:20:16.015Z</time></trkpt><trkpt lat="44.8927017" lon="9.27201"><ele>385.75</ele><time>2026-04-26T08:20:17.014Z</time></trkpt><trkpt lat="44.892715" lon="9.2718333"><ele>391.0</ele><time>2026-04-26T08:20:18.014Z</time></trkpt><trkpt lat="44.89267" lon="9.2716933"><ele>391.0</ele><time>2026-04-26T08:20:19.015Z</time></trkpt><trkpt lat="44.8926117" lon="9.2715533"><ele>391.0</ele><time>2026-04-26T08:20:20.014Z</time></trkpt><trkpt lat="44.8925333" lon="9.2714233"><ele>391.0</ele><time>2026-04-26T08:20:21.015Z</time></trkpt><trkpt lat="44.8924333" lon="9.271305"><ele>391.0</ele><time>2026-04-26T08:20:22.015Z</time></trkpt><trkpt lat="44.892345" lon="9.2711717"><ele>390.5</ele><time>2026-04-26T08:20:23.014Z</time></trkpt><trkpt lat="44.8922633" lon="9.2710233"><ele>390.0</ele><time>2026-04-26T08:20:24.014Z</time></trkpt><trkpt lat="44.8921933" lon="9.27084"><ele>389.5</ele><time>2026-04-26T08:20:25.014Z</time></trkpt><trkpt lat="44.89215" lon="9.270635"><ele>389.0</ele><time>2026-04-26T08:20:26.015Z</time></trkpt><trkpt lat="44.8921183" lon="9.2704183"><ele>389.0</ele><time>2026-04-26T08:20:27.014Z</time></trkpt><trkpt lat="44.8920683" lon="9.27024"><ele>389.0</ele><time>2026-04-26T08:20:28.014Z</time></trkpt><trkpt lat="44.8919983" lon="9.270095"><ele>389.0</ele><time>2026-04-26T08:20:29.014Z</time></trkpt><trkpt lat="44.8918933" lon="9.26999"><ele>389.0</ele><time>2026-04-26T08:20:30.014Z</time></trkpt><trkpt lat="44.8917467" lon="9.269925"><ele>387.0</ele><time>2026-04-26T08:20:31.015Z</time></trkpt><trkpt lat="44.8916417" lon="9.2698617"><ele>385.0</ele><time>2026-04-26T08:20:32.015Z</time></trkpt><trkpt lat="44.891565" lon="9.2697717"><ele>383.0</ele><time>2026-04-26T08:20:33.015Z</time></trkpt><trkpt lat="44.891485" lon="9.2696583"><ele>381.0</ele><time>2026-04-26T08:20:34.015Z</time></trkpt><trkpt lat="44.8914117" lon="9.2695167"><ele>381.0</ele><time>2026-04-26T08:20:35.014Z</time></trkpt><trkpt lat="44.8913367" lon="9.2693683"><ele>381.0</ele><time>2026-04-26T08:20:36.014Z</time></trkpt><trkpt lat="44.8912583" lon="9.2692283"><ele>381.0</ele><time>2026-04-26T08:20:37.015Z</time></trkpt><trkpt lat="44.8911683" lon="9.2691017"><ele>381.0</ele><time>2026-04-26T08:20:38.014Z</time></trkpt><trkpt lat="44.891075" lon="9.2689783"><ele>379.75</ele><time>2026-04-26T08:20:39.014Z</time></trkpt><trkpt lat="44.89098" lon="9.268865"><ele>378.5</ele><time>2026-04-26T08:20:40.014Z</time></trkpt><trkpt lat="44.89086" lon="9.2687767"><ele>377.25</ele><time>2026-04-26T08:20:41.014Z</time></trkpt><trkpt lat="44.8907833" lon="9.26866"><ele>376.0</ele><time>2026-04-26T08:20:42.015Z</time></trkpt><trkpt lat="44.8907267" lon="9.26852"><ele>376.0</ele><time>2026-04-26T08:20:43.015Z</time></trkpt><trkpt lat="44.8906817" lon="9.268355"><ele>376.0</ele><time>2026-04-26T08:20:44.014Z</time></trkpt><trkpt lat="44.8906517" lon="9.2682"><ele>376.0</ele><time>2026-04-26T08:20:45.014Z</time></trkpt><trkpt lat="44.89063" lon="9.2680267"><ele>376.0</ele><time>2026-04-26T08:20:46.015Z</time></trkpt><trkpt lat="44.89061" lon="9.267855"><ele>376.0</ele><time>2026-04-26T08:20:47.015Z</time></trkpt><trkpt lat="44.8905883" lon="9.26767"><ele>376.0</ele><time>2026-04-26T08:20:48.014Z</time></trkpt><trkpt lat="44.8905683" lon="9.2674917"><ele>376.0</ele><time>2026-04-26T08:20:49.014Z</time></trkpt><trkpt lat="44.89055" lon="9.26731"><ele>376.0</ele><time>2026-04-26T08:20:50.014Z</time></trkpt><trkpt lat="44.8905283" lon="9.26712"><ele>376.0</ele><time>2026-04-26T08:20:51.015Z</time></trkpt><trkpt lat="44.8905033" lon="9.2669217"><ele>376.0</ele><time>2026-04-26T08:20:52.015Z</time></trkpt><trkpt lat="44.8904783" lon="9.2667283"><ele>376.0</ele><time>2026-04-26T08:20:53.014Z</time></trkpt><trkpt lat="44.8904533" lon="9.26653"><ele>376.0</ele><time>2026-04-26T08:20:54.015Z</time></trkpt><trkpt lat="44.8904267" lon="9.2663283"><ele>377.25</ele><time>2026-04-26T08:20:55.014Z</time></trkpt><trkpt lat="44.890405" lon="9.266135"><ele>378.5</ele><time>2026-04-26T08:20:56.014Z</time></trkpt><trkpt lat="44.89039" lon="9.2659617"><ele>379.75</ele><time>2026-04-26T08:20:57.014Z</time></trkpt><trkpt lat="44.89037" lon="9.2658033"><ele>381.0</ele><time>2026-04-26T08:20:58.015Z</time></trkpt><trkpt lat="44.8903433" lon="9.26566"><ele>381.1666666666667</ele><time>2026-04-26T08:20:59.015Z</time></trkpt><trkpt lat="44.8903083" lon="9.26555"><ele>381.3333333333333</ele><time>2026-04-26T08:21:00.015Z</time></trkpt><trkpt lat="44.8902767" lon="9.2654583"><ele>381.5</ele><time>2026-04-26T08:21:01.014Z</time></trkpt><trkpt lat="44.890225" lon="9.2654033"><ele>381.66666666666663</ele><time>2026-04-26T08:21:02.014Z</time></trkpt><trkpt lat="44.8901067" lon="9.2654367"><ele>381.8333333333333</ele><time>2026-04-26T08:21:04.014Z</time></trkpt><trkpt lat="44.8900383" lon="9.2655183"><ele>382.0</ele><time>2026-04-26T08:21:05.015Z</time></trkpt><trkpt lat="44.8899567" lon="9.2656083"><ele>380.20000000000005</ele><time>2026-04-26T08:21:06.015Z</time></trkpt><trkpt lat="44.8898833" lon="9.2656833"><ele>378.4</ele><time>2026-04-26T08:21:07.014Z</time></trkpt><trkpt lat="44.8898067" lon="9.2657633"><ele>376.6</ele><time>2026-04-26T08:21:08.015Z</time></trkpt><trkpt lat="44.889745" lon="9.2658533"><ele>374.79999999999995</ele><time>2026-04-26T08:21:09.015Z</time></trkpt><trkpt lat="44.8896983" lon="9.2659717"><ele>373.0</ele><time>2026-04-26T08:21:10.015Z</time></trkpt><trkpt lat="44.8896733" lon="9.2661033"><ele>373.0</ele><time>2026-04-26T08:21:11.014Z</time></trkpt><trkpt lat="44.88964" lon="9.2662417"><ele>373.0</ele><time>2026-04-26T08:21:12.015Z</time></trkpt><trkpt lat="44.88957" lon="9.2663833"><ele>373.0</ele><time>2026-04-26T08:21:13.015Z</time></trkpt><trkpt lat="44.8894967" lon="9.2664933"><ele>373.0</ele><time>2026-04-26T08:21:14.014Z</time></trkpt><trkpt lat="44.8894183" lon="9.2665867"><ele>373.0</ele><time>2026-04-26T08:21:15.015Z</time></trkpt><trkpt lat="44.8893333" lon="9.266655"><ele>373.0</ele><time>2026-04-26T08:21:16.014Z</time></trkpt><trkpt lat="44.8892433" lon="9.2666733"><ele>373.0</ele><time>2026-04-26T08:21:17.014Z</time></trkpt><trkpt lat="44.88913" lon="9.2666217"><ele>373.0</ele><time>2026-04-26T08:21:18.014Z</time></trkpt><trkpt lat="44.8889933" lon="9.2665183"><ele>373.0</ele><time>2026-04-26T08:21:19.015Z</time></trkpt><trkpt lat="44.8888483" lon="9.2663983"><ele>373.66666666666663</ele><time>2026-04-26T08:21:20.015Z</time></trkpt><trkpt lat="44.8887083" lon="9.2662783"><ele>374.3333333333333</ele><time>2026-04-26T08:21:21.015Z</time></trkpt><trkpt lat="44.8885667" lon="9.26617"><ele>375.0</ele><time>2026-04-26T08:21:22.014Z</time></trkpt><trkpt lat="44.8884" lon="9.2660583"><ele>375.0</ele><time>2026-04-26T08:21:23.014Z</time></trkpt><trkpt lat="44.8882467" lon="9.2659333"><ele>375.0</ele><time>2026-04-26T08:21:24.014Z</time></trkpt><trkpt lat="44.8881267" lon="9.2657917"><ele>375.0</ele><time>2026-04-26T08:21:25.014Z</time></trkpt><trkpt lat="44.8879817" lon="9.2656567"><ele>377.6666666666667</ele><time>2026-04-26T08:21:26.014Z</time></trkpt><trkpt lat="44.8878283" lon="9.2655317"><ele>380.33333333333337</ele><time>2026-04-26T08:21:27.014Z</time></trkpt><trkpt lat="44.88767" lon="9.2654333"><ele>383.0</ele><time>2026-04-26T08:21:28.015Z</time></trkpt><trkpt lat="44.8875117" lon="9.2653433"><ele>383.0</ele><time>2026-04-26T08:21:29.014Z</time></trkpt><trkpt lat="44.8873517" lon="9.2652567"><ele>383.0</ele><time>2026-04-26T08:21:30.014Z</time></trkpt><trkpt lat="44.8871667" lon="9.2651533"><ele>383.0</ele><time>2026-04-26T08:21:31.014Z</time></trkpt><trkpt lat="44.886985" lon="9.26506"><ele>383.0</ele><time>2026-04-26T08:21:32.014Z</time></trkpt><trkpt lat="44.8868033" lon="9.264985"><ele>383.0</ele><time>2026-04-26T08:21:33.014Z</time></trkpt><trkpt lat="44.88662" lon="9.264925"><ele>383.0</ele><time>2026-04-26T08:21:34.015Z</time></trkpt><trkpt lat="44.8864233" lon="9.2648817"><ele>384.33333333333337</ele><time>2026-04-26T08:21:35.014Z</time></trkpt><trkpt lat="44.88622" lon="9.2648417"><ele>385.6666666666667</ele><time>2026-04-26T08:21:36.015Z</time></trkpt><trkpt lat="44.88603" lon="9.2647967"><ele>387.0</ele><time>2026-04-26T08:21:37.014Z</time></trkpt><trkpt lat="44.8858417" lon="9.264765"><ele>387.0</ele><time>2026-04-26T08:21:38.014Z</time></trkpt><trkpt lat="44.88567" lon="9.264735"><ele>387.0</ele><time>2026-04-26T08:21:39.015Z</time></trkpt><trkpt lat="44.8854667" lon="9.2647233"><ele>387.0</ele><time>2026-04-26T08:21:40.014Z</time></trkpt><trkpt lat="44.8852767" lon="9.2646933"><ele>385.6666666666667</ele><time>2026-04-26T08:21:41.014Z</time></trkpt><trkpt lat="44.8850883" lon="9.26467"><ele>384.33333333333337</ele><time>2026-04-26T08:21:42.015Z</time></trkpt><trkpt lat="44.8849017" lon="9.2646467"><ele>383.0</ele><time>2026-04-26T08:21:43.015Z</time></trkpt><trkpt lat="44.8847167" lon="9.2646267"><ele>383.0</ele><time>2026-04-26T08:21:44.014Z</time></trkpt><trkpt lat="44.8845367" lon="9.2646117"><ele>383.0</ele><time>2026-04-26T08:21:45.015Z</time></trkpt><trkpt lat="44.884345" lon="9.26459"><ele>383.0</ele><time>2026-04-26T08:21:46.014Z</time></trkpt><trkpt lat="44.884165" lon="9.2645767"><ele>382.0</ele><time>2026-04-26T08:21:47.014Z</time></trkpt><trkpt lat="44.8839567" lon="9.26456"><ele>381.0</ele><time>2026-04-26T08:21:48.015Z</time></trkpt><trkpt lat="44.883765" lon="9.2645567"><ele>380.0</ele><time>2026-04-26T08:21:49.014Z</time></trkpt><trkpt lat="44.8835817" lon="9.2645583"><ele>381.0</ele><time>2026-04-26T08:21:50.015Z</time></trkpt><trkpt lat="44.8834233" lon="9.2645583"><ele>382.0</ele><time>2026-04-26T08:21:51.015Z</time></trkpt><trkpt lat="44.88324" lon="9.26459"><ele>383.0</ele><time>2026-04-26T08:21:52.014Z</time></trkpt><trkpt lat="44.8830783" lon="9.2646183"><ele>383.0</ele><time>2026-04-26T08:21:53.014Z</time></trkpt><trkpt lat="44.8829067" lon="9.26466"><ele>383.0</ele><time>2026-04-26T08:21:54.014Z</time></trkpt><trkpt lat="44.88274" lon="9.264695"><ele>383.0</ele><time>2026-04-26T08:21:55.015Z</time></trkpt><trkpt lat="44.8825783" lon="9.26473"><ele>383.6666666666667</ele><time>2026-04-26T08:21:56.014Z</time></trkpt><trkpt lat="44.882405" lon="9.2647733"><ele>384.33333333333337</ele><time>2026-04-26T08:21:57.014Z</time></trkpt><trkpt lat="44.882245" lon="9.2648083"><ele>385.0</ele><time>2026-04-26T08:21:58.014Z</time></trkpt><trkpt lat="44.8820517" lon="9.2648417"><ele>384.33333333333337</ele><time>2026-04-26T08:21:59.015Z</time></trkpt><trkpt lat="44.881885" lon="9.2648933"><ele>383.6666666666667</ele><time>2026-04-26T08:22:00.015Z</time></trkpt><trkpt lat="44.8817233" lon="9.2649183"><ele>383.0</ele><time>2026-04-26T08:22:01.015Z</time></trkpt><trkpt lat="44.8815583" lon="9.2649433"><ele>383.0</ele><time>2026-04-26T08:22:02.015Z</time></trkpt><trkpt lat="44.881395" lon="9.2649683"><ele>383.0</ele><time>2026-04-26T08:22:03.014Z</time></trkpt><trkpt lat="44.8812033" lon="9.2649783"><ele>383.0</ele><time>2026-04-26T08:22:04.014Z</time></trkpt><trkpt lat="44.8810283" lon="9.26498"><ele>384.33333333333337</ele><time>2026-04-26T08:22:05.014Z</time></trkpt><trkpt lat="44.8808617" lon="9.264985"><ele>385.6666666666667</ele><time>2026-04-26T08:22:06.015Z</time></trkpt><trkpt lat="44.8807" lon="9.26499"><ele>387.0</ele><time>2026-04-26T08:22:07.015Z</time></trkpt><trkpt lat="44.8805583" lon="9.2649967"><ele>387.0</ele><time>2026-04-26T08:22:08.014Z</time></trkpt><trkpt lat="44.880425" lon="9.2650183"><ele>387.0</ele><time>2026-04-26T08:22:09.014Z</time></trkpt><trkpt lat="44.8803067" lon="9.2650817"><ele>387.0</ele><time>2026-04-26T08:22:10.014Z</time></trkpt><trkpt lat="44.8801983" lon="9.2651717"><ele>387.0</ele><time>2026-04-26T08:22:11.014Z</time></trkpt><trkpt lat="44.8801183" lon="9.2653067"><ele>387.25</ele><time>2026-04-26T08:22:12.015Z</time></trkpt><trkpt lat="44.8800617" lon="9.2654783"><ele>387.5</ele><time>2026-04-26T08:22:13.014Z</time></trkpt><trkpt lat="44.8800483" lon="9.2657033"><ele>387.75</ele><time>2026-04-26T08:22:14.015Z</time></trkpt><trkpt lat="44.8800033" lon="9.2659067"><ele>388.0</ele><time>2026-04-26T08:22:15.015Z</time></trkpt><trkpt lat="44.8799567" lon="9.2660967"><ele>387.25</ele><time>2026-04-26T08:22:16.014Z</time></trkpt><trkpt lat="44.8798933" lon="9.2662717"><ele>386.5</ele><time>2026-04-26T08:22:17.015Z</time></trkpt><trkpt lat="44.87981" lon="9.2664333"><ele>385.75</ele><time>2026-04-26T08:22:18.014Z</time></trkpt><trkpt lat="44.8797017" lon="9.2666017"><ele>385.0</ele><time>2026-04-26T08:22:19.014Z</time></trkpt><trkpt lat="44.8796017" lon="9.26675"><ele>384.6666666666667</ele><time>2026-04-26T08:22:20.015Z</time></trkpt><trkpt lat="44.8795033" lon="9.2669"><ele>384.33333333333337</ele><time>2026-04-26T08:22:21.015Z</time></trkpt><trkpt lat="44.8794067" lon="9.2670567"><ele>384.0</ele><time>2026-04-26T08:22:22.014Z</time></trkpt><trkpt lat="44.879295" lon="9.2672233"><ele>385.33333333333337</ele><time>2026-04-26T08:22:23.014Z</time></trkpt><trkpt lat="44.87918" lon="9.2674067"><ele>386.6666666666667</ele><time>2026-04-26T08:22:24.015Z</time></trkpt><trkpt lat="44.8790633" lon="9.267555"><ele>388.0</ele><time>2026-04-26T08:22:25.014Z</time></trkpt><trkpt lat="44.878965" lon="9.2676967"><ele>388.0</ele><time>2026-04-26T08:22:26.014Z</time></trkpt><trkpt lat="44.878875" lon="9.2678567"><ele>388.0</ele><time>2026-04-26T08:22:27.015Z</time></trkpt><trkpt lat="44.8788" lon="9.26802"><ele>388.0</ele><time>2026-04-26T08:22:28.014Z</time></trkpt><trkpt lat="44.8786917" lon="9.2681533"><ele>388.0</ele><time>2026-04-26T08:22:29.014Z</time></trkpt><trkpt lat="44.8785833" lon="9.2682633"><ele>387.6666666666667</ele><time>2026-04-26T08:22:30.014Z</time></trkpt><trkpt lat="44.8784617" lon="9.26834"><ele>387.33333333333337</ele><time>2026-04-26T08:22:31.015Z</time></trkpt><trkpt lat="44.8782967" lon="9.268345"><ele>387.0</ele><time>2026-04-26T08:22:32.015Z</time></trkpt><trkpt lat="44.8781367" lon="9.2683633"><ele>388.66666666666663</ele><time>2026-04-26T08:22:33.015Z</time></trkpt><trkpt lat="44.87795" lon="9.2683717"><ele>390.3333333333333</ele><time>2026-04-26T08:22:34.015Z</time></trkpt><trkpt lat="44.8777667" lon="9.2684083"><ele>392.0</ele><time>2026-04-26T08:22:35.014Z</time></trkpt><trkpt lat="44.8775883" lon="9.2684833"><ele>394.3333333333333</ele><time>2026-04-26T08:22:36.014Z</time></trkpt><trkpt lat="44.8774217" lon="9.2685733"><ele>396.66666666666663</ele><time>2026-04-26T08:22:37.014Z</time></trkpt><trkpt lat="44.877275" lon="9.2687083"><ele>399.0</ele><time>2026-04-26T08:22:38.015Z</time></trkpt><trkpt lat="44.8771017" lon="9.2688617"><ele>397.66666666666663</ele><time>2026-04-26T08:22:39.014Z</time></trkpt><trkpt lat="44.8769767" lon="9.269025"><ele>396.3333333333333</ele><time>2026-04-26T08:22:40.014Z</time></trkpt><trkpt lat="44.87686" lon="9.2691933"><ele>395.0</ele><time>2026-04-26T08:22:41.014Z</time></trkpt><trkpt lat="44.8767483" lon="9.2693583"><ele>397.66666666666663</ele><time>2026-04-26T08:22:42.014Z</time></trkpt><trkpt lat="44.8766567" lon="9.2695383"><ele>400.33333333333337</ele><time>2026-04-26T08:22:43.015Z</time></trkpt><trkpt lat="44.8765483" lon="9.2697483"><ele>403.0</ele><time>2026-04-26T08:22:44.014Z</time></trkpt><trkpt lat="44.8764117" lon="9.269885"><ele>403.0</ele><time>2026-04-26T08:22:45.014Z</time></trkpt><trkpt lat="44.87627" lon="9.26998"><ele>403.0</ele><time>2026-04-26T08:22:46.014Z</time></trkpt><trkpt lat="44.8761117" lon="9.2700617"><ele>403.0</ele><time>2026-04-26T08:22:47.014Z</time></trkpt><trkpt lat="44.87597" lon="9.2701317"><ele>405.6666666666667</ele><time>2026-04-26T08:22:48.014Z</time></trkpt><trkpt lat="44.8758333" lon="9.2702533"><ele>408.33333333333337</ele><time>2026-04-26T08:22:49.014Z</time></trkpt><trkpt lat="44.8756917" lon="9.27038"><ele>411.0</ele><time>2026-04-26T08:22:50.014Z</time></trkpt><trkpt lat="44.875565" lon="9.2705367"><ele>409.66666666666663</ele><time>2026-04-26T08:22:51.015Z</time></trkpt><trkpt lat="44.8754533" lon="9.2707017"><ele>408.3333333333333</ele><time>2026-04-26T08:22:52.015Z</time></trkpt><trkpt lat="44.8753533" lon="9.270875"><ele>407.0</ele><time>2026-04-26T08:22:53.015Z</time></trkpt><trkpt lat="44.875265" lon="9.2710483"><ele>407.0</ele><time>2026-04-26T08:22:54.014Z</time></trkpt><trkpt lat="44.875145" lon="9.271185"><ele>407.0</ele><time>2026-04-26T08:22:55.015Z</time></trkpt><trkpt lat="44.875005" lon="9.271285"><ele>407.0</ele><time>2026-04-26T08:22:56.014Z</time></trkpt><trkpt lat="44.8748683" lon="9.2713833"><ele>409.75</ele><time>2026-04-26T08:22:57.015Z</time></trkpt><trkpt lat="44.8747483" lon="9.2715083"><ele>412.5</ele><time>2026-04-26T08:22:58.014Z</time></trkpt><trkpt lat="44.874675" lon="9.2716733"><ele>415.25</ele><time>2026-04-26T08:22:59.014Z</time></trkpt><trkpt lat="44.8746417" lon="9.271875"><ele>418.0</ele><time>2026-04-26T08:23:00.015Z</time></trkpt><trkpt lat="44.8746317" lon="9.2720617"><ele>418.0</ele><time>2026-04-26T08:23:01.014Z</time></trkpt><trkpt lat="44.87462" lon="9.27224"><ele>418.0</ele><time>2026-04-26T08:23:02.014Z</time></trkpt><trkpt lat="44.8745883" lon="9.2723967"><ele>418.0</ele><time>2026-04-26T08:23:03.014Z</time></trkpt><trkpt lat="44.874485" lon="9.2725233"><ele>418.0</ele><time>2026-04-26T08:23:04.015Z</time></trkpt><trkpt lat="44.874325" lon="9.27261"><ele>422.6666666666667</ele><time>2026-04-26T08:23:05.015Z</time></trkpt><trkpt lat="44.874135" lon="9.27268"><ele>427.33333333333337</ele><time>2026-04-26T08:23:06.015Z</time></trkpt><trkpt lat="44.8739633" lon="9.2727433"><ele>432.0</ele><time>2026-04-26T08:23:07.015Z</time></trkpt><trkpt lat="44.87381" lon="9.27281"><ele>432.0</ele><time>2026-04-26T08:23:08.015Z</time></trkpt><trkpt lat="44.8736467" lon="9.2728483"><ele>432.0</ele><time>2026-04-26T08:23:09.015Z</time></trkpt><trkpt lat="44.8734483" lon="9.2728317"><ele>432.0</ele><time>2026-04-26T08:23:10.015Z</time></trkpt><trkpt lat="44.8732933" lon="9.2728117"><ele>431.0</ele><time>2026-04-26T08:23:11.015Z</time></trkpt><trkpt lat="44.87312" lon="9.2729017"><ele>430.0</ele><time>2026-04-26T08:23:12.015Z</time></trkpt><trkpt lat="44.872945" lon="9.2729983"><ele>429.0</ele><time>2026-04-26T08:23:13.014Z</time></trkpt><trkpt lat="44.8727783" lon="9.273175"><ele>429.0</ele><time>2026-04-26T08:23:14.013Z</time></trkpt><trkpt lat="44.8726383" lon="9.2733583"><ele>429.0</ele><time>2026-04-26T08:23:15.014Z</time></trkpt><trkpt lat="44.8725217" lon="9.2735083"><ele>429.0</ele><time>2026-04-26T08:23:16.013Z</time></trkpt><trkpt lat="44.8723933" lon="9.2736583"><ele>431.75</ele><time>2026-04-26T08:23:17.013Z</time></trkpt><trkpt lat="44.8722883" lon="9.2737967"><ele>434.5</ele><time>2026-04-26T08:23:18.014Z</time></trkpt><trkpt lat="44.8722083" lon="9.2739733"><ele>437.25</ele><time>2026-04-26T08:23:19.014Z</time></trkpt><trkpt lat="44.8721483" lon="9.2741733"><ele>440.0</ele><time>2026-04-26T08:23:20.013Z</time></trkpt><trkpt lat="44.8720917" lon="9.27437"><ele>440.0</ele><time>2026-04-26T08:23:21.013Z</time></trkpt><trkpt lat="44.8720317" lon="9.2745567"><ele>440.0</ele><time>2026-04-26T08:23:22.013Z</time></trkpt><trkpt lat="44.8719767" lon="9.2747317"><ele>440.0</ele><time>2026-04-26T08:23:23.013Z</time></trkpt><trkpt lat="44.8719133" lon="9.27489"><ele>440.0</ele><time>2026-04-26T08:23:24.014Z</time></trkpt><trkpt lat="44.871815" lon="9.27504"><ele>444.3333333333333</ele><time>2026-04-26T08:23:25.014Z</time></trkpt><trkpt lat="44.8716967" lon="9.2752083"><ele>448.66666666666663</ele><time>2026-04-26T08:23:26.014Z</time></trkpt><trkpt lat="44.871555" lon="9.2753517"><ele>453.0</ele><time>2026-04-26T08:23:27.013Z</time></trkpt><trkpt lat="44.8714167" lon="9.2755033"><ele>450.33333333333337</ele><time>2026-04-26T08:23:28.014Z</time></trkpt><trkpt lat="44.8712717" lon="9.2756367"><ele>447.6666666666667</ele><time>2026-04-26T08:23:29.013Z</time></trkpt><trkpt lat="44.871115" lon="9.275795"><ele>445.0</ele><time>2026-04-26T08:23:30.013Z</time></trkpt><trkpt lat="44.8709683" lon="9.27596"><ele>449.0</ele><time>2026-04-26T08:23:31.013Z</time></trkpt><trkpt lat="44.87083" lon="9.2761333"><ele>453.0</ele><time>2026-04-26T08:23:32.014Z</time></trkpt><trkpt lat="44.8707533" lon="9.2763283"><ele>457.0</ele><time>2026-04-26T08:23:33.013Z</time></trkpt><trkpt lat="44.8707083" lon="9.2765633"><ele>457.0</ele><time>2026-04-26T08:23:34.013Z</time></trkpt><trkpt lat="44.8706983" lon="9.2768017"><ele>457.0</ele><time>2026-04-26T08:23:35.014Z</time></trkpt><trkpt lat="44.8706983" lon="9.2770417"><ele>457.0</ele><time>2026-04-26T08:23:36.014Z</time></trkpt><trkpt lat="44.8706983" lon="9.2772383"><ele>457.0</ele><time>2026-04-26T08:23:37.013Z</time></trkpt><trkpt lat="44.8706883" lon="9.277435"><ele>457.0</ele><time>2026-04-26T08:23:38.013Z</time></trkpt><trkpt lat="44.8706633" lon="9.277645"><ele>457.0</ele><time>2026-04-26T08:23:39.013Z</time></trkpt><trkpt lat="44.8706467" lon="9.2778467"><ele>457.0</ele><time>2026-04-26T08:23:40.013Z</time></trkpt><trkpt lat="44.8706167" lon="9.2780083"><ele>456.8</ele><time>2026-04-26T08:23:41.013Z</time></trkpt><trkpt lat="44.87058" lon="9.27812"><ele>456.6</ele><time>2026-04-26T08:23:42.013Z</time></trkpt><trkpt lat="44.8705233" lon="9.2781967"><ele>456.40000000000003</ele><time>2026-04-26T08:23:43.013Z</time></trkpt><trkpt lat="44.8704517" lon="9.2782683"><ele>456.20000000000005</ele><time>2026-04-26T08:23:44.014Z</time></trkpt><trkpt lat="44.8703717" lon="9.2783433"><ele>456.0</ele><time>2026-04-26T08:23:45.014Z</time></trkpt><trkpt lat="44.8702883" lon="9.2784583"><ele>456.0</ele><time>2026-04-26T08:23:46.013Z</time></trkpt><trkpt lat="44.8702133" lon="9.2785883"><ele>456.0</ele><time>2026-04-26T08:23:47.014Z</time></trkpt><trkpt lat="44.8701567" lon="9.278725"><ele>456.0</ele><time>2026-04-26T08:23:48.013Z</time></trkpt><trkpt lat="44.8701183" lon="9.2788717"><ele>456.0</ele><time>2026-04-26T08:23:49.014Z</time></trkpt><trkpt lat="44.87012" lon="9.2790633"><ele>455.5</ele><time>2026-04-26T08:23:50.013Z</time></trkpt><trkpt lat="44.87012" lon="9.2792517"><ele>455.0</ele><time>2026-04-26T08:23:51.013Z</time></trkpt><trkpt lat="44.870125" lon="9.2794583"><ele>454.5</ele><time>2026-04-26T08:23:52.014Z</time></trkpt><trkpt lat="44.8701183" lon="9.2796633"><ele>454.0</ele><time>2026-04-26T08:23:53.014Z</time></trkpt><trkpt lat="44.8700783" lon="9.2798317"><ele>456.75</ele><time>2026-04-26T08:23:54.014Z</time></trkpt><trkpt lat="44.870015" lon="9.27996"><ele>459.5</ele><time>2026-04-26T08:23:55.014Z</time></trkpt><trkpt lat="44.8699317" lon="9.2800667"><ele>462.25</ele><time>2026-04-26T08:23:56.014Z</time></trkpt><trkpt lat="44.8698283" lon="9.28016"><ele>465.0</ele><time>2026-04-26T08:23:57.013Z</time></trkpt><trkpt lat="44.8697083" lon="9.2802733"><ele>465.0</ele><time>2026-04-26T08:23:58.013Z</time></trkpt><trkpt lat="44.86959" lon="9.28042"><ele>465.0</ele><time>2026-04-26T08:23:59.014Z</time></trkpt><trkpt lat="44.8694817" lon="9.28057"><ele>465.0</ele><time>2026-04-26T08:24:00.014Z</time></trkpt><trkpt lat="44.86937" lon="9.28075"><ele>468.66666666666663</ele><time>2026-04-26T08:24:01.014Z</time></trkpt><trkpt lat="44.8692733" lon="9.2809483"><ele>472.3333333333333</ele><time>2026-04-26T08:24:02.014Z</time></trkpt><trkpt lat="44.8691767" lon="9.281165"><ele>476.0</ele><time>2026-04-26T08:24:03.014Z</time></trkpt><trkpt lat="44.8690683" lon="9.2813867"><ele>474.0</ele><time>2026-04-26T08:24:04.014Z</time></trkpt><trkpt lat="44.8689717" lon="9.2816083"><ele>472.0</ele><time>2026-04-26T08:24:05.014Z</time></trkpt><trkpt lat="44.8688983" lon="9.2818617"><ele>470.0</ele><time>2026-04-26T08:24:06.013Z</time></trkpt><trkpt lat="44.86884" lon="9.2820883"><ele>468.66666666666663</ele><time>2026-04-26T08:24:07.014Z</time></trkpt><trkpt lat="44.8688017" lon="9.2823617"><ele>467.33333333333337</ele><time>2026-04-26T08:24:08.014Z</time></trkpt><trkpt lat="44.86876" lon="9.2826417"><ele>466.0</ele><time>2026-04-26T08:24:09.013Z</time></trkpt><trkpt lat="44.8687283" lon="9.2829517"><ele>465.6666666666667</ele><time>2026-04-26T08:24:10.013Z</time></trkpt><trkpt lat="44.8687017" lon="9.2832083"><ele>465.33333333333337</ele><time>2026-04-26T08:24:11.013Z</time></trkpt><trkpt lat="44.8686733" lon="9.28343"><ele>465.0</ele><time>2026-04-26T08:24:12.014Z</time></trkpt><trkpt lat="44.8686783" lon="9.2836533"><ele>465.0</ele><time>2026-04-26T08:24:13.014Z</time></trkpt><trkpt lat="44.86869" lon="9.2838267"><ele>465.0</ele><time>2026-04-26T08:24:14.013Z</time></trkpt><trkpt lat="44.8687267" lon="9.2839933"><ele>465.0</ele><time>2026-04-26T08:24:15.014Z</time></trkpt><trkpt lat="44.8687733" lon="9.2841367"><ele>465.0</ele><time>2026-04-26T08:24:16.013Z</time></trkpt><trkpt lat="44.8688417" lon="9.2842933"><ele>466.2</ele><time>2026-04-26T08:24:17.014Z</time></trkpt><trkpt lat="44.8688983" lon="9.28443"><ele>467.4</ele><time>2026-04-26T08:24:18.013Z</time></trkpt><trkpt lat="44.8689433" lon="9.284615"><ele>468.6</ele><time>2026-04-26T08:24:20.014Z</time></trkpt><trkpt lat="44.8689767" lon="9.2847167"><ele>469.8</ele><time>2026-04-26T08:24:21.014Z</time></trkpt><trkpt lat="44.8690067" lon="9.284825"><ele>471.0</ele><time>2026-04-26T08:24:22.014Z</time></trkpt><trkpt lat="44.869015" lon="9.2849617"><ele>471.6</ele><time>2026-04-26T08:24:23.014Z</time></trkpt><trkpt lat="44.8690033" lon="9.2850933"><ele>472.20000000000005</ele><time>2026-04-26T08:24:24.013Z</time></trkpt><trkpt lat="44.868965" lon="9.2852133"><ele>472.79999999999995</ele><time>2026-04-26T08:24:25.014Z</time></trkpt><trkpt lat="44.8688983" lon="9.2853283"><ele>473.4</ele><time>2026-04-26T08:24:26.013Z</time></trkpt><trkpt lat="44.8687967" lon="9.2854367"><ele>474.0</ele><time>2026-04-26T08:24:27.013Z</time></trkpt><trkpt lat="44.8686567" lon="9.285535"><ele>471.25</ele><time>2026-04-26T08:24:28.013Z</time></trkpt><trkpt lat="44.8685567" lon="9.2856117"><ele>468.5</ele><time>2026-04-26T08:24:29.013Z</time></trkpt><trkpt lat="44.8684733" lon="9.2857183"><ele>465.75</ele><time>2026-04-26T08:24:30.013Z</time></trkpt><trkpt lat="44.8684083" lon="9.28586"><ele>463.0</ele><time>2026-04-26T08:24:31.014Z</time></trkpt><trkpt lat="44.8683467" lon="9.2860083"><ele>469.0</ele><time>2026-04-26T08:24:32.014Z</time></trkpt><trkpt lat="44.8682883" lon="9.28616"><ele>475.0</ele><time>2026-04-26T08:24:33.014Z</time></trkpt><trkpt lat="44.86824" lon="9.2863217"><ele>481.0</ele><time>2026-04-26T08:24:34.013Z</time></trkpt><trkpt lat="44.8681833" lon="9.2864567"><ele>487.0</ele><time>2026-04-26T08:24:35.014Z</time></trkpt><trkpt lat="44.868125" lon="9.28659"><ele>487.0</ele><time>2026-04-26T08:24:36.014Z</time></trkpt><trkpt lat="44.8680717" lon="9.2867233"><ele>487.00000000000006</ele><time>2026-04-26T08:24:37.013Z</time></trkpt><trkpt lat="44.8680367" lon="9.28687"><ele>487.00000000000006</ele><time>2026-04-26T08:24:38.014Z</time></trkpt><trkpt lat="44.8680017" lon="9.287005"><ele>487.0</ele><time>2026-04-26T08:24:39.013Z</time></trkpt><trkpt lat="44.86796" lon="9.28713"><ele>487.0</ele><time>2026-04-26T08:24:40.013Z</time></trkpt><trkpt lat="44.8679517" lon="9.2872317"><ele>487.0</ele><time>2026-04-26T08:24:41.013Z</time></trkpt><trkpt lat="44.8680267" lon="9.2873217"><ele>487.00000000000006</ele><time>2026-04-26T08:24:42.013Z</time></trkpt><trkpt lat="44.868135" lon="9.287365"><ele>487.00000000000006</ele><time>2026-04-26T08:24:43.014Z</time></trkpt><trkpt lat="44.868195" lon="9.28746"><ele>487.0</ele><time>2026-04-26T08:24:44.013Z</time></trkpt><trkpt lat="44.8682483" lon="9.2875783"><ele>487.0</ele><time>2026-04-26T08:24:45.014Z</time></trkpt><trkpt lat="44.8683033" lon="9.287685"><ele>487.0</ele><time>2026-04-26T08:24:46.013Z</time></trkpt><trkpt lat="44.86835" lon="9.2877767"><ele>487.00000000000006</ele><time>2026-04-26T08:24:47.013Z</time></trkpt><trkpt lat="44.8683683" lon="9.2879217"><ele>487.00000000000006</ele><time>2026-04-26T08:24:48.013Z</time></trkpt><trkpt lat="44.8683683" lon="9.288045"><ele>487.0</ele><time>2026-04-26T08:24:49.014Z</time></trkpt><trkpt lat="44.868325" lon="9.2881517"><ele>487.0</ele><time>2026-04-26T08:24:50.014Z</time></trkpt><trkpt lat="44.8682567" lon="9.28826"><ele>484.25</ele><time>2026-04-26T08:24:51.014Z</time></trkpt><trkpt lat="44.868135" lon="9.2883417"><ele>481.5</ele><time>2026-04-26T08:24:52.013Z</time></trkpt><trkpt lat="44.867995" lon="9.2883817"><ele>478.75</ele><time>2026-04-26T08:24:53.014Z</time></trkpt><trkpt lat="44.8678517" lon="9.2884283"><ele>476.0</ele><time>2026-04-26T08:24:54.014Z</time></trkpt><trkpt lat="44.86767" lon="9.2884283"><ele>482.0</ele><time>2026-04-26T08:24:55.014Z</time></trkpt><trkpt lat="44.867475" lon="9.2884033"><ele>488.0</ele><time>2026-04-26T08:24:56.013Z</time></trkpt><trkpt lat="44.8672933" lon="9.2883967"><ele>494.0</ele><time>2026-04-26T08:24:57.013Z</time></trkpt><trkpt lat="44.8670733" lon="9.2883767"><ele>494.0</ele><time>2026-04-26T08:24:58.013Z</time></trkpt><trkpt lat="44.8669333" lon="9.2884667"><ele>494.0</ele><time>2026-04-26T08:24:59.014Z</time></trkpt><trkpt lat="44.866805" lon="9.2885967"><ele>494.0</ele><time>2026-04-26T08:25:00.014Z</time></trkpt><trkpt lat="44.8666933" lon="9.2887683"><ele>493.0</ele><time>2026-04-26T08:25:01.013Z</time></trkpt><trkpt lat="44.8665867" lon="9.2889833"><ele>492.0</ele><time>2026-04-26T08:25:02.014Z</time></trkpt><trkpt lat="44.8664617" lon="9.2892117"><ele>491.0</ele><time>2026-04-26T08:25:03.014Z</time></trkpt><trkpt lat="44.8663383" lon="9.289405"><ele>491.0</ele><time>2026-04-26T08:25:04.014Z</time></trkpt><trkpt lat="44.8662" lon="9.2895683"><ele>491.0</ele><time>2026-04-26T08:25:05.014Z</time></trkpt><trkpt lat="44.8660483" lon="9.2896817"><ele>491.0</ele><time>2026-04-26T08:25:06.013Z</time></trkpt><trkpt lat="44.8659067" lon="9.2898483"><ele>490.3333333333333</ele><time>2026-04-26T08:25:07.013Z</time></trkpt><trkpt lat="44.8657717" lon="9.2899833"><ele>489.66666666666663</ele><time>2026-04-26T08:25:08.014Z</time></trkpt><trkpt lat="44.8656267" lon="9.2900983"><ele>489.0</ele><time>2026-04-26T08:25:09.013Z</time></trkpt><trkpt lat="44.8654917" lon="9.2902"><ele>489.0</ele><time>2026-04-26T08:25:10.013Z</time></trkpt><trkpt lat="44.8653717" lon="9.2902717"><ele>489.0</ele><time>2026-04-26T08:25:11.013Z</time></trkpt><trkpt lat="44.8653033" lon="9.2903417"><ele>489.0</ele><time>2026-04-26T08:25:12.014Z</time></trkpt><trkpt lat="44.8652683" lon="9.29045"><ele>489.0</ele><time>2026-04-26T08:25:13.014Z</time></trkpt><trkpt lat="44.86529" lon="9.2906017"><ele>489.0</ele><time>2026-04-26T08:25:14.014Z</time></trkpt><trkpt lat="44.8653033" lon="9.2907183"><ele>487.5</ele><time>2026-04-26T08:25:15.013Z</time></trkpt><trkpt lat="44.8653617" lon="9.290835"><ele>486.0</ele><time>2026-04-26T08:25:16.014Z</time></trkpt><trkpt lat="44.8654367" lon="9.290945"><ele>484.5</ele><time>2026-04-26T08:25:17.014Z</time></trkpt><trkpt lat="44.8655367" lon="9.29106"><ele>483.0</ele><time>2026-04-26T08:25:18.013Z</time></trkpt><trkpt lat="44.8656383" lon="9.2912317"><ele>482.0</ele><time>2026-04-26T08:25:19.014Z</time></trkpt><trkpt lat="44.8657067" lon="9.2914317"><ele>481.0</ele><time>2026-04-26T08:25:20.014Z</time></trkpt><trkpt lat="44.86576" lon="9.29162"><ele>480.0</ele><time>2026-04-26T08:25:21.013Z</time></trkpt><trkpt lat="44.8658033" lon="9.2917867"><ele>479.0</ele><time>2026-04-26T08:25:22.013Z</time></trkpt><trkpt lat="44.8658233" lon="9.2919367"><ele>478.99999999999994</ele><time>2026-04-26T08:25:23.014Z</time></trkpt><trkpt lat="44.86581" lon="9.2920583"><ele>479.0</ele><time>2026-04-26T08:25:24.013Z</time></trkpt><trkpt lat="44.86578" lon="9.292165"><ele>479.0</ele><time>2026-04-26T08:25:25.013Z</time></trkpt><trkpt lat="44.8657367" lon="9.2922367"><ele>479.0</ele><time>2026-04-26T08:25:26.013Z</time></trkpt><trkpt lat="44.8656667" lon="9.2922767"><ele>478.99999999999994</ele><time>2026-04-26T08:25:27.014Z</time></trkpt><trkpt lat="44.865555" lon="9.2922583"><ele>479.0</ele><time>2026-04-26T08:25:28.014Z</time></trkpt><trkpt lat="44.8653917" lon="9.2921967"><ele>479.0</ele><time>2026-04-26T08:25:29.013Z</time></trkpt><trkpt lat="44.86519" lon="9.2920783"><ele>479.0</ele><time>2026-04-26T08:25:30.014Z</time></trkpt><trkpt lat="44.8650267" lon="9.2920083"><ele>479.0</ele><time>2026-04-26T08:25:31.013Z</time></trkpt><trkpt lat="44.864905" lon="9.2919667"><ele>479.25</ele><time>2026-04-26T08:25:32.013Z</time></trkpt><trkpt lat="44.8647767" lon="9.29192"><ele>479.5</ele><time>2026-04-26T08:25:33.013Z</time></trkpt><trkpt lat="44.86465" lon="9.2919233"><ele>479.75</ele><time>2026-04-26T08:25:34.013Z</time></trkpt><trkpt lat="44.864525" lon="9.29196"><ele>480.0</ele><time>2026-04-26T08:25:35.014Z</time></trkpt><trkpt lat="44.8644767" lon="9.2921267"><ele>477.75</ele><time>2026-04-26T08:25:36.014Z</time></trkpt><trkpt lat="44.864445" lon="9.29227"><ele>475.5</ele><time>2026-04-26T08:25:37.013Z</time></trkpt><trkpt lat="44.8644333" lon="9.292445"><ele>473.25</ele><time>2026-04-26T08:25:38.014Z</time></trkpt><trkpt lat="44.86445" lon="9.2926467"><ele>471.0</ele><time>2026-04-26T08:25:39.013Z</time></trkpt><trkpt lat="44.8644833" lon="9.29288"><ele>470.33333333333337</ele><time>2026-04-26T08:25:40.013Z</time></trkpt><trkpt lat="44.8645167" lon="9.293125"><ele>469.6666666666667</ele><time>2026-04-26T08:25:41.014Z</time></trkpt><trkpt lat="44.8645617" lon="9.2933817"><ele>469.0</ele><time>2026-04-26T08:25:42.014Z</time></trkpt><trkpt lat="44.8645983" lon="9.2936167"><ele>469.0</ele><time>2026-04-26T08:25:43.014Z</time></trkpt><trkpt lat="44.8646217" lon="9.2938633"><ele>469.0</ele><time>2026-04-26T08:25:44.014Z</time></trkpt><trkpt lat="44.864635" lon="9.2940917"><ele>469.0</ele><time>2026-04-26T08:25:45.014Z</time></trkpt><trkpt lat="44.8645633" lon="9.294295"><ele>469.6666666666667</ele><time>2026-04-26T08:25:46.014Z</time></trkpt><trkpt lat="44.8645183" lon="9.294495"><ele>470.33333333333337</ele><time>2026-04-26T08:25:47.014Z</time></trkpt><trkpt lat="44.8645017" lon="9.2947167"><ele>471.0</ele><time>2026-04-26T08:25:48.014Z</time></trkpt><trkpt lat="44.8644983" lon="9.2949183"><ele>471.0</ele><time>2026-04-26T08:25:49.013Z</time></trkpt><trkpt lat="44.8644933" lon="9.2951033"><ele>471.0</ele><time>2026-04-26T08:25:50.013Z</time></trkpt><trkpt lat="44.864485" lon="9.2952733"><ele>471.0</ele><time>2026-04-26T08:25:51.013Z</time></trkpt><trkpt lat="44.8644717" lon="9.2954017"><ele>471.0</ele><time>2026-04-26T08:25:52.013Z</time></trkpt><trkpt lat="44.86441" lon="9.295545"><ele>469.75</ele><time>2026-04-26T08:25:53.014Z</time></trkpt><trkpt lat="44.864335" lon="9.2956683"><ele>468.5</ele><time>2026-04-26T08:25:54.014Z</time></trkpt><trkpt lat="44.8642417" lon="9.29579"><ele>467.25</ele><time>2026-04-26T08:25:55.014Z</time></trkpt><trkpt lat="44.86415" lon="9.2959267"><ele>466.0</ele><time>2026-04-26T08:25:56.013Z</time></trkpt><trkpt lat="44.8640917" lon="9.2961117"><ele>473.6666666666667</ele><time>2026-04-26T08:25:57.014Z</time></trkpt><trkpt lat="44.8640183" lon="9.2963"><ele>481.33333333333337</ele><time>2026-04-26T08:25:58.014Z</time></trkpt><trkpt lat="44.863955" lon="9.2965183"><ele>489.0</ele><time>2026-04-26T08:25:59.014Z</time></trkpt><trkpt lat="44.8638967" lon="9.29675"><ele>489.0</ele><time>2026-04-26T08:26:00.013Z</time></trkpt><trkpt lat="44.8638117" lon="9.2969867"><ele>489.0</ele><time>2026-04-26T08:26:01.014Z</time></trkpt><trkpt lat="44.86374" lon="9.2972367"><ele>489.0</ele><time>2026-04-26T08:26:02.013Z</time></trkpt><trkpt lat="44.863675" lon="9.2975083"><ele>488.0</ele><time>2026-04-26T08:26:03.013Z</time></trkpt><trkpt lat="44.86362" lon="9.2977783"><ele>487.0</ele><time>2026-04-26T08:26:04.013Z</time></trkpt><trkpt lat="44.8635817" lon="9.2980517"><ele>486.0</ele><time>2026-04-26T08:26:05.014Z</time></trkpt><trkpt lat="44.8635583" lon="9.2983467"><ele>485.66666666666663</ele><time>2026-04-26T08:26:06.013Z</time></trkpt><trkpt lat="44.8635533" lon="9.2986317"><ele>485.3333333333333</ele><time>2026-04-26T08:26:07.013Z</time></trkpt><trkpt lat="44.863565" lon="9.2988983"><ele>485.0</ele><time>2026-04-26T08:26:08.013Z</time></trkpt><trkpt lat="44.863585" lon="9.2991467"><ele>487.3333333333333</ele><time>2026-04-26T08:26:09.013Z</time></trkpt><trkpt lat="44.863605" lon="9.29938"><ele>489.66666666666663</ele><time>2026-04-26T08:26:10.013Z</time></trkpt><trkpt lat="44.86363" lon="9.2995783"><ele>492.0</ele><time>2026-04-26T08:26:11.013Z</time></trkpt><trkpt lat="44.8636267" lon="9.2997917"><ele>492.0</ele><time>2026-04-26T08:26:12.014Z</time></trkpt><trkpt lat="44.863625" lon="9.3"><ele>492.0</ele><time>2026-04-26T08:26:13.014Z</time></trkpt><trkpt lat="44.8636083" lon="9.30021"><ele>492.0</ele><time>2026-04-26T08:26:14.013Z</time></trkpt><trkpt lat="44.8635833" lon="9.30042"><ele>492.0</ele><time>2026-04-26T08:26:15.014Z</time></trkpt><trkpt lat="44.8635017" lon="9.3006517"><ele>492.0</ele><time>2026-04-26T08:26:16.013Z</time></trkpt><trkpt lat="44.863455" lon="9.3008733"><ele>492.0</ele><time>2026-04-26T08:26:17.014Z</time></trkpt><trkpt lat="44.86341" lon="9.3010617"><ele>492.0</ele><time>2026-04-26T08:26:18.014Z</time></trkpt><trkpt lat="44.8633533" lon="9.3012533"><ele>496.25</ele><time>2026-04-26T08:26:19.014Z</time></trkpt><trkpt lat="44.8632833" lon="9.3014183"><ele>500.5</ele><time>2026-04-26T08:26:20.014Z</time></trkpt><trkpt lat="44.8632033" lon="9.3015783"><ele>504.75</ele><time>2026-04-26T08:26:21.014Z</time></trkpt><trkpt lat="44.863085" lon="9.3017283"><ele>509.0</ele><time>2026-04-26T08:26:22.014Z</time></trkpt><trkpt lat="44.8629467" lon="9.30193"><ele>509.0</ele><time>2026-04-26T08:26:23.013Z</time></trkpt><trkpt lat="44.862865" lon="9.302135"><ele>509.0</ele><time>2026-04-26T08:26:24.014Z</time></trkpt><trkpt lat="44.8628017" lon="9.3023633"><ele>509.0</ele><time>2026-04-26T08:26:25.013Z</time></trkpt><trkpt lat="44.8627767" lon="9.3025817"><ele>508.0</ele><time>2026-04-26T08:26:26.014Z</time></trkpt><trkpt lat="44.8627383" lon="9.3027967"><ele>507.0</ele><time>2026-04-26T08:26:27.013Z</time></trkpt><trkpt lat="44.86272" lon="9.3030167"><ele>506.0</ele><time>2026-04-26T08:26:28.014Z</time></trkpt><trkpt lat="44.862735" lon="9.30327"><ele>506.0</ele><time>2026-04-26T08:26:29.013Z</time></trkpt><trkpt lat="44.862745" lon="9.3035183"><ele>506.0</ele><time>2026-04-26T08:26:30.013Z</time></trkpt><trkpt lat="44.8627517" lon="9.3037633"><ele>506.0</ele><time>2026-04-26T08:26:31.013Z</time></trkpt><trkpt lat="44.8627567" lon="9.3040083"><ele>506.0</ele><time>2026-04-26T08:26:32.013Z</time></trkpt><trkpt lat="44.862755" lon="9.3042517"><ele>506.0</ele><time>2026-04-26T08:26:33.014Z</time></trkpt><trkpt lat="44.8627617" lon="9.3044817"><ele>506.0</ele><time>2026-04-26T08:26:34.014Z</time></trkpt><trkpt lat="44.86274" lon="9.3047233"><ele>505.66666666666663</ele><time>2026-04-26T08:26:35.014Z</time></trkpt><trkpt lat="44.86269" lon="9.3049717"><ele>505.33333333333337</ele><time>2026-04-26T08:26:36.013Z</time></trkpt><trkpt lat="44.8626433" lon="9.3052033"><ele>505.0</ele><time>2026-04-26T08:26:37.013Z</time></trkpt><trkpt lat="44.862595" lon="9.3054133"><ele>510.0</ele><time>2026-04-26T08:26:38.014Z</time></trkpt><trkpt lat="44.8625083" lon="9.3055983"><ele>515.0</ele><time>2026-04-26T08:26:39.014Z</time></trkpt><trkpt lat="44.8624467" lon="9.305785"><ele>520.0</ele><time>2026-04-26T08:26:40.013Z</time></trkpt><trkpt lat="44.8624133" lon="9.3059717"><ele>525.0</ele><time>2026-04-26T08:26:41.014Z</time></trkpt><trkpt lat="44.8624133" lon="9.3061567"><ele>525.0</ele><time>2026-04-26T08:26:42.013Z</time></trkpt><trkpt lat="44.8624217" lon="9.3063483"><ele>525.0</ele><time>2026-04-26T08:26:43.014Z</time></trkpt><trkpt lat="44.8624233" lon="9.30654"><ele>525.0</ele><time>2026-04-26T08:26:44.014Z</time></trkpt><trkpt lat="44.8624483" lon="9.306705"><ele>525.0</ele><time>2026-04-26T08:26:45.014Z</time></trkpt><trkpt lat="44.8625" lon="9.3068417"><ele>525.8</ele><time>2026-04-26T08:26:46.013Z</time></trkpt><trkpt lat="44.8625283" lon="9.30699"><ele>526.6</ele><time>2026-04-26T08:26:47.014Z</time></trkpt><trkpt lat="44.8625367" lon="9.3071417"><ele>527.4</ele><time>2026-04-26T08:26:48.013Z</time></trkpt><trkpt lat="44.862545" lon="9.3072967"><ele>528.2</ele><time>2026-04-26T08:26:49.013Z</time></trkpt><trkpt lat="44.8625833" lon="9.3074583"><ele>529.0</ele><time>2026-04-26T08:26:50.014Z</time></trkpt><trkpt lat="44.862635" lon="9.307625"><ele>523.75</ele><time>2026-04-26T08:26:51.014Z</time></trkpt><trkpt lat="44.8627317" lon="9.30779"><ele>518.5</ele><time>2026-04-26T08:26:52.013Z</time></trkpt><trkpt lat="44.86282" lon="9.3079483"><ele>513.25</ele><time>2026-04-26T08:26:53.013Z</time></trkpt><trkpt lat="44.862905" lon="9.3081033"><ele>508.0</ele><time>2026-04-26T08:26:54.013Z</time></trkpt><trkpt lat="44.8629883" lon="9.3082633"><ele>508.0</ele><time>2026-04-26T08:26:55.013Z</time></trkpt><trkpt lat="44.863025" lon="9.3084017"><ele>507.99999999999994</ele><time>2026-04-26T08:26:56.014Z</time></trkpt><trkpt lat="44.86301" lon="9.3085167"><ele>507.99999999999994</ele><time>2026-04-26T08:26:57.013Z</time></trkpt><trkpt lat="44.8629767" lon="9.30867"><ele>508.0</ele><time>2026-04-26T08:26:58.013Z</time></trkpt><trkpt lat="44.8629233" lon="9.308795"><ele>508.0</ele><time>2026-04-26T08:26:59.013Z</time></trkpt><trkpt lat="44.862835" lon="9.3089033"><ele>505.33333333333337</ele><time>2026-04-26T08:27:00.014Z</time></trkpt><trkpt lat="44.8627283" lon="9.3090367"><ele>502.66666666666663</ele><time>2026-04-26T08:27:01.014Z</time></trkpt><trkpt lat="44.8626217" lon="9.3092383"><ele>500.0</ele><time>2026-04-26T08:27:02.014Z</time></trkpt><trkpt lat="44.8625383" lon="9.3094517"><ele>506.66666666666663</ele><time>2026-04-26T08:27:03.014Z</time></trkpt><trkpt lat="44.8624667" lon="9.3096783"><ele>513.3333333333334</ele><time>2026-04-26T08:27:04.013Z</time></trkpt><trkpt lat="44.8623867" lon="9.3099217"><ele>520.0</ele><time>2026-04-26T08:27:05.013Z</time></trkpt><trkpt lat="44.86234" lon="9.3101333"><ele>520.0</ele><time>2026-04-26T08:27:06.014Z</time></trkpt><trkpt lat="44.8622817" lon="9.3103367"><ele>520.0</ele><time>2026-04-26T08:27:07.013Z</time></trkpt><trkpt lat="44.862245" lon="9.3105317"><ele>520.0</ele><time>2026-04-26T08:27:08.014Z</time></trkpt><trkpt lat="44.862215" lon="9.3107267"><ele>520.0</ele><time>2026-04-26T08:27:09.013Z</time></trkpt><trkpt lat="44.8622733" lon="9.310935"><ele>519.0</ele><time>2026-04-26T08:27:10.013Z</time></trkpt><trkpt lat="44.8623033" lon="9.311125"><ele>518.0</ele><time>2026-04-26T08:27:11.013Z</time></trkpt><trkpt lat="44.862315" lon="9.3113133"><ele>517.0</ele><time>2026-04-26T08:27:12.013Z</time></trkpt><trkpt lat="44.862305" lon="9.3115017"><ele>516.0</ele><time>2026-04-26T08:27:13.013Z</time></trkpt><trkpt lat="44.8622767" lon="9.3116983"><ele>516.0</ele><time>2026-04-26T08:27:14.013Z</time></trkpt><trkpt lat="44.8622367" lon="9.31189"><ele>516.0</ele><time>2026-04-26T08:27:15.013Z</time></trkpt><trkpt lat="44.8621767" lon="9.31211"><ele>516.0</ele><time>2026-04-26T08:27:16.013Z</time></trkpt><trkpt lat="44.8621033" lon="9.3123517"><ele>514.0</ele><time>2026-04-26T08:27:17.014Z</time></trkpt><trkpt lat="44.8620383" lon="9.3125933"><ele>512.0</ele><time>2026-04-26T08:27:18.014Z</time></trkpt><trkpt lat="44.86197" lon="9.312825"><ele>510.0</ele><time>2026-04-26T08:27:19.013Z</time></trkpt><trkpt lat="44.8619067" lon="9.3130483"><ele>509.75</ele><time>2026-04-26T08:27:20.013Z</time></trkpt><trkpt lat="44.8618517" lon="9.3132467"><ele>509.5</ele><time>2026-04-26T08:27:21.013Z</time></trkpt><trkpt lat="44.8618" lon="9.3134383"><ele>509.25</ele><time>2026-04-26T08:27:22.013Z</time></trkpt><trkpt lat="44.8617417" lon="9.31363"><ele>509.0</ele><time>2026-04-26T08:27:23.013Z</time></trkpt><trkpt lat="44.8616567" lon="9.3138267"><ele>512.0</ele><time>2026-04-26T08:27:24.013Z</time></trkpt><trkpt lat="44.8615217" lon="9.31393"><ele>515.0</ele><time>2026-04-26T08:27:25.014Z</time></trkpt><trkpt lat="44.8613733" lon="9.3139883"><ele>518.0</ele><time>2026-04-26T08:27:26.014Z</time></trkpt><trkpt lat="44.861225" lon="9.31405"><ele>518.0</ele><time>2026-04-26T08:27:27.014Z</time></trkpt><trkpt lat="44.8610733" lon="9.3141283"><ele>518.0</ele><time>2026-04-26T08:27:28.013Z</time></trkpt><trkpt lat="44.8609117" lon="9.3142367"><ele>518.0</ele><time>2026-04-26T08:27:29.013Z</time></trkpt><trkpt lat="44.8607583" lon="9.31437"><ele>519.0</ele><time>2026-04-26T08:27:30.013Z</time></trkpt><trkpt lat="44.86063" lon="9.31452"><ele>520.0</ele><time>2026-04-26T08:27:31.013Z</time></trkpt><trkpt lat="44.860525" lon="9.31466"><ele>521.0</ele><time>2026-04-26T08:27:32.013Z</time></trkpt><trkpt lat="44.8604267" lon="9.3148"><ele>521.0</ele><time>2026-04-26T08:27:33.013Z</time></trkpt><trkpt lat="44.860275" lon="9.3149217"><ele>521.0</ele><time>2026-04-26T08:27:34.014Z</time></trkpt><trkpt lat="44.8601433" lon="9.3150283"><ele>521.0</ele><time>2026-04-26T08:27:35.013Z</time></trkpt><trkpt lat="44.8600117" lon="9.315125"><ele>522.25</ele><time>2026-04-26T08:27:36.013Z</time></trkpt><trkpt lat="44.8598783" lon="9.315195"><ele>523.5</ele><time>2026-04-26T08:27:37.014Z</time></trkpt><trkpt lat="44.8597333" lon="9.3152267"><ele>524.75</ele><time>2026-04-26T08:27:38.014Z</time></trkpt><trkpt lat="44.8596" lon="9.3152667"><ele>526.0</ele><time>2026-04-26T08:27:39.014Z</time></trkpt><trkpt lat="44.8594567" lon="9.3153117"><ele>526.0</ele><time>2026-04-26T08:27:40.013Z</time></trkpt><trkpt lat="44.85934" lon="9.315395"><ele>526.0</ele><time>2026-04-26T08:27:41.014Z</time></trkpt><trkpt lat="44.859245" lon="9.3155033"><ele>526.0</ele><time>2026-04-26T08:27:42.014Z</time></trkpt><trkpt lat="44.8592467" lon="9.3157083"><ele>526.0</ele><time>2026-04-26T08:27:43.013Z</time></trkpt><trkpt lat="44.8592617" lon="9.315875"><ele>525.0</ele><time>2026-04-26T08:27:44.014Z</time></trkpt><trkpt lat="44.8593017" lon="9.316035"><ele>524.0</ele><time>2026-04-26T08:27:45.013Z</time></trkpt><trkpt lat="44.859405" lon="9.3161767"><ele>523.0</ele><time>2026-04-26T08:27:46.014Z</time></trkpt><trkpt lat="44.859505" lon="9.3163083"><ele>522.0</ele><time>2026-04-26T08:27:47.014Z</time></trkpt><trkpt lat="44.8596067" lon="9.316435"><ele>522.0</ele><time>2026-04-26T08:27:48.014Z</time></trkpt><trkpt lat="44.8597067" lon="9.3165617"><ele>522.0</ele><time>2026-04-26T08:27:49.013Z</time></trkpt><trkpt lat="44.859795" lon="9.3166917"><ele>522.0</ele><time>2026-04-26T08:27:50.013Z</time></trkpt><trkpt lat="44.8598483" lon="9.3167867"><ele>522.0</ele><time>2026-04-26T08:27:51.013Z</time></trkpt><trkpt lat="44.8598083" lon="9.31691"><ele>522.0</ele><time>2026-04-26T08:27:52.014Z</time></trkpt><trkpt lat="44.8597267" lon="9.3170383"><ele>522.0</ele><time>2026-04-26T08:27:53.014Z</time></trkpt><trkpt lat="44.8596183" lon="9.3171967"><ele>522.0</ele><time>2026-04-26T08:27:54.014Z</time></trkpt><trkpt lat="44.85953" lon="9.3173717"><ele>522.0</ele><time>2026-04-26T08:27:55.013Z</time></trkpt><trkpt lat="44.85942" lon="9.3175717"><ele>521.6666666666666</ele><time>2026-04-26T08:27:56.014Z</time></trkpt><trkpt lat="44.8593217" lon="9.31778"><ele>521.3333333333333</ele><time>2026-04-26T08:27:57.014Z</time></trkpt><trkpt lat="44.8591933" lon="9.3180017"><ele>521.0</ele><time>2026-04-26T08:27:58.013Z</time></trkpt><trkpt lat="44.8590817" lon="9.3182783"><ele>523.0</ele><time>2026-04-26T08:27:59.013Z</time></trkpt><trkpt lat="44.8589833" lon="9.3186183"><ele>525.0</ele><time>2026-04-26T08:28:00.014Z</time></trkpt><trkpt lat="44.8588783" lon="9.3189517"><ele>525.0</ele><time>2026-04-26T08:28:01.013Z</time></trkpt><trkpt lat="44.858735" lon="9.319255"><ele>525.0</ele><time>2026-04-26T08:28:02.014Z</time></trkpt><trkpt lat="44.85861" lon="9.31953"><ele>522.3333333333334</ele><time>2026-04-26T08:28:03.014Z</time></trkpt><trkpt lat="44.8584933" lon="9.31979"><ele>519.6666666666667</ele><time>2026-04-26T08:28:04.013Z</time></trkpt><trkpt lat="44.85839" lon="9.3200667"><ele>517.0</ele><time>2026-04-26T08:28:05.014Z</time></trkpt><trkpt lat="44.8582783" lon="9.3203683"><ele>528.0</ele><time>2026-04-26T08:28:06.014Z</time></trkpt><trkpt lat="44.8582017" lon="9.320685"><ele>539.0</ele><time>2026-04-26T08:28:07.014Z</time></trkpt><trkpt lat="44.85813" lon="9.32099"><ele>539.0</ele><time>2026-04-26T08:28:08.014Z</time></trkpt><trkpt lat="44.858055" lon="9.3212733"><ele>539.0</ele><time>2026-04-26T08:28:09.014Z</time></trkpt><trkpt lat="44.8579833" lon="9.3215333"><ele>539.0</ele><time>2026-04-26T08:28:10.014Z</time></trkpt><trkpt lat="44.857935" lon="9.321785"><ele>536.6666666666666</ele><time>2026-04-26T08:28:11.014Z</time></trkpt><trkpt lat="44.857875" lon="9.3220133"><ele>534.3333333333334</ele><time>2026-04-26T08:28:12.014Z</time></trkpt><trkpt lat="44.85779" lon="9.3222417"><ele>532.0</ele><time>2026-04-26T08:28:13.014Z</time></trkpt><trkpt lat="44.857685" lon="9.3224767"><ele>535.0</ele><time>2026-04-26T08:28:14.013Z</time></trkpt><trkpt lat="44.8575767" lon="9.3227483"><ele>538.0</ele><time>2026-04-26T08:28:15.014Z</time></trkpt><trkpt lat="44.857445" lon="9.3229933"><ele>541.0</ele><time>2026-04-26T08:28:16.013Z</time></trkpt><trkpt lat="44.857325" lon="9.32324"><ele>541.0</ele><time>2026-04-26T08:28:17.014Z</time></trkpt><trkpt lat="44.857215" lon="9.3234867"><ele>541.0</ele><time>2026-04-26T08:28:18.013Z</time></trkpt><trkpt lat="44.8571083" lon="9.3237133"><ele>541.0</ele><time>2026-04-26T08:28:19.013Z</time></trkpt><trkpt lat="44.8570117" lon="9.323925"><ele>539.3333333333334</ele><time>2026-04-26T08:28:20.014Z</time></trkpt><trkpt lat="44.8569233" lon="9.324105"><ele>537.6666666666666</ele><time>2026-04-26T08:28:21.014Z</time></trkpt><trkpt lat="44.8568167" lon="9.3242683"><ele>536.0</ele><time>2026-04-26T08:28:22.013Z</time></trkpt><trkpt lat="44.8566983" lon="9.3244167"><ele>539.3333333333333</ele><time>2026-04-26T08:28:23.014Z</time></trkpt><trkpt lat="44.8565933" lon="9.3245917"><ele>542.6666666666666</ele><time>2026-04-26T08:28:24.013Z</time></trkpt><trkpt lat="44.8564983" lon="9.3248017"><ele>546.0</ele><time>2026-04-26T08:28:25.014Z</time></trkpt><trkpt lat="44.8563917" lon="9.3250483"><ele>546.0</ele><time>2026-04-26T08:28:26.013Z</time></trkpt><trkpt lat="44.85632" lon="9.3253117"><ele>546.0</ele><time>2026-04-26T08:28:27.014Z</time></trkpt><trkpt lat="44.85626" lon="9.3255383"><ele>546.0</ele><time>2026-04-26T08:28:28.014Z</time></trkpt><trkpt lat="44.85618" lon="9.32573"><ele>542.6666666666666</ele><time>2026-04-26T08:28:29.014Z</time></trkpt><trkpt lat="44.8560933" lon="9.3259017"><ele>539.3333333333333</ele><time>2026-04-26T08:28:30.013Z</time></trkpt><trkpt lat="44.8559783" lon="9.326075"><ele>536.0</ele><time>2026-04-26T08:28:31.014Z</time></trkpt><trkpt lat="44.8558383" lon="9.3262367"><ele>538.3333333333333</ele><time>2026-04-26T08:28:32.014Z</time></trkpt><trkpt lat="44.8556917" lon="9.326395"><ele>540.6666666666666</ele><time>2026-04-26T08:28:33.014Z</time></trkpt><trkpt lat="44.8555283" lon="9.3265483"><ele>543.0</ele><time>2026-04-26T08:28:34.013Z</time></trkpt><trkpt lat="44.85535" lon="9.3266933"><ele>543.0</ele><time>2026-04-26T08:28:35.014Z</time></trkpt><trkpt lat="44.8551533" lon="9.3268033"><ele>543.0</ele><time>2026-04-26T08:28:36.014Z</time></trkpt><trkpt lat="44.8549417" lon="9.3268817"><ele>543.0</ele><time>2026-04-26T08:28:37.014Z</time></trkpt><trkpt lat="44.8547217" lon="9.326975"><ele>547.6666666666666</ele><time>2026-04-26T08:28:38.013Z</time></trkpt><trkpt lat="44.8545583" lon="9.3270633"><ele>552.3333333333333</ele><time>2026-04-26T08:28:39.013Z</time></trkpt><trkpt lat="44.854415" lon="9.3272217"><ele>557.0</ele><time>2026-04-26T08:28:40.014Z</time></trkpt><trkpt lat="44.8542783" lon="9.3274217"><ele>557.3333333333333</ele><time>2026-04-26T08:28:41.014Z</time></trkpt><trkpt lat="44.854145" lon="9.32764"><ele>557.6666666666666</ele><time>2026-04-26T08:28:42.013Z</time></trkpt><trkpt lat="44.8540183" lon="9.3278483"><ele>558.0</ele><time>2026-04-26T08:28:43.013Z</time></trkpt><trkpt lat="44.8539" lon="9.3280317"><ele>554.0</ele><time>2026-04-26T08:28:44.014Z</time></trkpt><trkpt lat="44.8537933" lon="9.3282117"><ele>550.0</ele><time>2026-04-26T08:28:45.013Z</time></trkpt><trkpt lat="44.853705" lon="9.3283617"><ele>546.0</ele><time>2026-04-26T08:28:46.014Z</time></trkpt><trkpt lat="44.853585" lon="9.32852"><ele>546.0</ele><time>2026-04-26T08:28:47.014Z</time></trkpt><trkpt lat="44.85346" lon="9.3286367"><ele>546.0</ele><time>2026-04-26T08:28:48.014Z</time></trkpt><trkpt lat="44.8533283" lon="9.3287583"><ele>546.0</ele><time>2026-04-26T08:28:49.014Z</time></trkpt><trkpt lat="44.853195" lon="9.328875"><ele>547.6666666666666</ele><time>2026-04-26T08:28:50.013Z</time></trkpt><trkpt lat="44.85305" lon="9.3289733"><ele>549.3333333333333</ele><time>2026-04-26T08:28:51.013Z</time></trkpt><trkpt lat="44.85287" lon="9.3290483"><ele>551.0</ele><time>2026-04-26T08:28:52.013Z</time></trkpt><trkpt lat="44.8526867" lon="9.3291017"><ele>553.0</ele><time>2026-04-26T08:28:53.013Z</time></trkpt><trkpt lat="44.8525133" lon="9.3291417"><ele>555.0</ele><time>2026-04-26T08:28:54.014Z</time></trkpt><trkpt lat="44.85235" lon="9.3291567"><ele>557.0</ele><time>2026-04-26T08:28:55.014Z</time></trkpt><trkpt lat="44.8522067" lon="9.3291717"><ele>557.0</ele><time>2026-04-26T08:28:56.014Z</time></trkpt><trkpt lat="44.8520717" lon="9.32924"><ele>557.0</ele><time>2026-04-26T08:28:57.013Z</time></trkpt><trkpt lat="44.8519533" lon="9.3293483"><ele>557.0</ele><time>2026-04-26T08:28:58.013Z</time></trkpt><trkpt lat="44.85188" lon="9.3295133"><ele>557.0</ele><time>2026-04-26T08:28:59.013Z</time></trkpt><trkpt lat="44.8518383" lon="9.3297267"><ele>558.25</ele><time>2026-04-26T08:29:00.013Z</time></trkpt><trkpt lat="44.85181" lon="9.3299383"><ele>559.5</ele><time>2026-04-26T08:29:01.013Z</time></trkpt><trkpt lat="44.851795" lon="9.33012"><ele>560.75</ele><time>2026-04-26T08:29:02.013Z</time></trkpt><trkpt lat="44.8517683" lon="9.3302767"><ele>562.0</ele><time>2026-04-26T08:29:03.014Z</time></trkpt><trkpt lat="44.851715" lon="9.3304233"><ele>562.0</ele><time>2026-04-26T08:29:04.014Z</time></trkpt><trkpt lat="44.8516483" lon="9.330535"><ele>562.0</ele><time>2026-04-26T08:29:05.013Z</time></trkpt><trkpt lat="44.8515633" lon="9.330625"><ele>562.0</ele><time>2026-04-26T08:29:06.014Z</time></trkpt><trkpt lat="44.85146" lon="9.33069"><ele>562.0</ele><time>2026-04-26T08:29:07.014Z</time></trkpt><trkpt lat="44.8513367" lon="9.3307317"><ele>561.6666666666667</ele><time>2026-04-26T08:29:08.013Z</time></trkpt><trkpt lat="44.8511933" lon="9.3307517"><ele>561.3333333333334</ele><time>2026-04-26T08:29:09.013Z</time></trkpt><trkpt lat="44.8510233" lon="9.33077"><ele>561.0</ele><time>2026-04-26T08:29:10.013Z</time></trkpt><trkpt lat="44.8508317" lon="9.330795"><ele>561.0</ele><time>2026-04-26T08:29:11.013Z</time></trkpt><trkpt lat="44.85065" lon="9.3308367"><ele>561.0</ele><time>2026-04-26T08:29:12.014Z</time></trkpt><trkpt lat="44.8504633" lon="9.3308717"><ele>561.0</ele><time>2026-04-26T08:29:13.013Z</time></trkpt><trkpt lat="44.8502817" lon="9.3309233"><ele>562.3333333333334</ele><time>2026-04-26T08:29:14.014Z</time></trkpt><trkpt lat="44.8501083" lon="9.3309817"><ele>563.6666666666667</ele><time>2026-04-26T08:29:15.013Z</time></trkpt><trkpt lat="44.849895" lon="9.330995"><ele>565.0</ele><time>2026-04-26T08:29:16.013Z</time></trkpt><trkpt lat="44.8497167" lon="9.3310633"><ele>565.0</ele><time>2026-04-26T08:29:17.013Z</time></trkpt><trkpt lat="44.8495183" lon="9.3311317"><ele>565.0</ele><time>2026-04-26T08:29:18.013Z</time></trkpt><trkpt lat="44.8493233" lon="9.331225"><ele>565.0</ele><time>2026-04-26T08:29:19.013Z</time></trkpt><trkpt lat="44.849125" lon="9.3313133"><ele>564.0</ele><time>2026-04-26T08:29:20.014Z</time></trkpt><trkpt lat="44.848945" lon="9.3314033"><ele>563.0</ele><time>2026-04-26T08:29:21.014Z</time></trkpt><trkpt lat="44.84878" lon="9.3314933"><ele>562.0</ele><time>2026-04-26T08:29:22.014Z</time></trkpt><trkpt lat="44.848635" lon="9.3315867"><ele>562.0</ele><time>2026-04-26T08:29:23.013Z</time></trkpt><trkpt lat="44.8485033" lon="9.33169"><ele>562.0</ele><time>2026-04-26T08:29:24.013Z</time></trkpt><trkpt lat="44.8483667" lon="9.3317783"><ele>562.0</ele><time>2026-04-26T08:29:25.013Z</time></trkpt><trkpt lat="44.8482267" lon="9.331835"><ele>562.0</ele><time>2026-04-26T08:29:26.013Z</time></trkpt><trkpt lat="44.848085" lon="9.3318617"><ele>562.0</ele><time>2026-04-26T08:29:27.013Z</time></trkpt><trkpt lat="44.8479367" lon="9.3318567"><ele>562.0</ele><time>2026-04-26T08:29:28.014Z</time></trkpt><trkpt lat="44.847775" lon="9.3318333"><ele>562.0</ele><time>2026-04-26T08:29:29.013Z</time></trkpt><trkpt lat="44.8476017" lon="9.3317717"><ele>562.6666666666667</ele><time>2026-04-26T08:29:30.014Z</time></trkpt><trkpt lat="44.8474267" lon="9.3316833"><ele>563.3333333333334</ele><time>2026-04-26T08:29:31.014Z</time></trkpt><trkpt lat="44.84726" lon="9.3315917"><ele>564.0</ele><time>2026-04-26T08:29:32.013Z</time></trkpt><trkpt lat="44.84711" lon="9.3314867"><ele>565.3333333333334</ele><time>2026-04-26T08:29:33.014Z</time></trkpt><trkpt lat="44.8469667" lon="9.3313783"><ele>566.6666666666667</ele><time>2026-04-26T08:29:34.014Z</time></trkpt><trkpt lat="44.8468433" lon="9.3312767"><ele>568.0</ele><time>2026-04-26T08:29:35.014Z</time></trkpt><trkpt lat="44.8467067" lon="9.33121"><ele>568.0</ele><time>2026-04-26T08:29:36.013Z</time></trkpt><trkpt lat="44.8465517" lon="9.33117"><ele>568.0</ele><time>2026-04-26T08:29:37.014Z</time></trkpt><trkpt lat="44.84638" lon="9.3311567"><ele>568.0</ele><time>2026-04-26T08:29:38.013Z</time></trkpt><trkpt lat="44.8462" lon="9.3311617"><ele>568.0</ele><time>2026-04-26T08:29:39.013Z</time></trkpt><trkpt lat="44.8460117" lon="9.3311617"><ele>568.0</ele><time>2026-04-26T08:29:40.013Z</time></trkpt><trkpt lat="44.845815" lon="9.331145"><ele>568.0</ele><time>2026-04-26T08:29:41.014Z</time></trkpt><trkpt lat="44.8456283" lon="9.3311383"><ele>569.0</ele><time>2026-04-26T08:29:42.014Z</time></trkpt><trkpt lat="44.8454417" lon="9.3311767"><ele>570.0</ele><time>2026-04-26T08:29:43.013Z</time></trkpt><trkpt lat="44.8452833" lon="9.331255"><ele>571.0</ele><time>2026-04-26T08:29:44.013Z</time></trkpt><trkpt lat="44.8451333" lon="9.331345"><ele>570.3333333333334</ele><time>2026-04-26T08:29:45.013Z</time></trkpt><trkpt lat="44.8449683" lon="9.331475"><ele>569.6666666666666</ele><time>2026-04-26T08:29:46.013Z</time></trkpt><trkpt lat="44.8447833" lon="9.3315567"><ele>569.0</ele><time>2026-04-26T08:29:47.014Z</time></trkpt><trkpt lat="44.8445833" lon="9.3316"><ele>569.0</ele><time>2026-04-26T08:29:48.013Z</time></trkpt><trkpt lat="44.844355" lon="9.3316267"><ele>569.0</ele><time>2026-04-26T08:29:49.014Z</time></trkpt><trkpt lat="44.8441283" lon="9.331645"><ele>570.6666666666666</ele><time>2026-04-26T08:29:50.013Z</time></trkpt><trkpt lat="44.8439167" lon="9.3316933"><ele>572.3333333333334</ele><time>2026-04-26T08:29:51.014Z</time></trkpt><trkpt lat="44.8437033" lon="9.3317233"><ele>574.0</ele><time>2026-04-26T08:29:52.014Z</time></trkpt><trkpt lat="44.843495" lon="9.3317517"><ele>574.6666666666667</ele><time>2026-04-26T08:29:53.014Z</time></trkpt><trkpt lat="44.8433317" lon="9.3317267"><ele>575.3333333333334</ele><time>2026-04-26T08:29:54.014Z</time></trkpt><trkpt lat="44.8431583" lon="9.3316833"><ele>576.0</ele><time>2026-04-26T08:29:55.013Z</time></trkpt><trkpt lat="44.8429733" lon="9.33163"><ele>576.0</ele><time>2026-04-26T08:29:56.013Z</time></trkpt><trkpt lat="44.8428" lon="9.3315667"><ele>576.0</ele><time>2026-04-26T08:29:57.013Z</time></trkpt><trkpt lat="44.8426233" lon="9.33151"><ele>576.0</ele><time>2026-04-26T08:29:58.013Z</time></trkpt><trkpt lat="44.8424467" lon="9.3314717"><ele>576.3333333333334</ele><time>2026-04-26T08:29:59.013Z</time></trkpt><trkpt lat="44.8422717" lon="9.33145"><ele>576.6666666666667</ele><time>2026-04-26T08:30:00.013Z</time></trkpt><trkpt lat="44.84209" lon="9.3314683"><ele>577.0</ele><time>2026-04-26T08:30:01.014Z</time></trkpt><trkpt lat="44.84192" lon="9.331535"><ele>578.6666666666667</ele><time>2026-04-26T08:30:02.013Z</time></trkpt><trkpt lat="44.8417767" lon="9.3316383"><ele>580.3333333333334</ele><time>2026-04-26T08:30:03.014Z</time></trkpt><trkpt lat="44.8416483" lon="9.33176"><ele>582.0</ele><time>2026-04-26T08:30:04.013Z</time></trkpt><trkpt lat="44.8415283" lon="9.331885"><ele>582.0</ele><time>2026-04-26T08:30:05.013Z</time></trkpt><trkpt lat="44.841435" lon="9.3320267"><ele>582.0</ele><time>2026-04-26T08:30:06.013Z</time></trkpt><trkpt lat="44.8413417" lon="9.33212"><ele>582.0</ele><time>2026-04-26T08:30:07.013Z</time></trkpt><trkpt lat="44.8412217" lon="9.3321583"><ele>582.0</ele><time>2026-04-26T08:30:08.014Z</time></trkpt><trkpt lat="44.8411133" lon="9.3321667"><ele>582.0</ele><time>2026-04-26T08:30:09.014Z</time></trkpt><trkpt lat="44.8410117" lon="9.3321467"><ele>582.0</ele><time>2026-04-26T08:30:10.013Z</time></trkpt><trkpt lat="44.8409267" lon="9.332025"><ele>582.0</ele><time>2026-04-26T08:30:11.013Z</time></trkpt><trkpt lat="44.8408183" lon="9.3318383"><ele>582.0</ele><time>2026-04-26T08:30:12.013Z</time></trkpt><trkpt lat="44.8407283" lon="9.3316833"><ele>583.3333333333334</ele><time>2026-04-26T08:30:13.012Z</time></trkpt><trkpt lat="44.84062" lon="9.3315067"><ele>584.6666666666667</ele><time>2026-04-26T08:30:14.013Z</time></trkpt><trkpt lat="44.840515" lon="9.33133"><ele>586.0</ele><time>2026-04-26T08:30:15.012Z</time></trkpt><trkpt lat="44.8404233" lon="9.3311767"><ele>586.25</ele><time>2026-04-26T08:30:16.012Z</time></trkpt><trkpt lat="44.8403233" lon="9.33103"><ele>586.5</ele><time>2026-04-26T08:30:17.013Z</time></trkpt><trkpt lat="44.84025" lon="9.3308983"><ele>586.75</ele><time>2026-04-26T08:30:18.012Z</time></trkpt><trkpt lat="44.840175" lon="9.330775"><ele>587.0</ele><time>2026-04-26T08:30:19.012Z</time></trkpt><trkpt lat="44.8401" lon="9.3306567"><ele>587.0</ele><time>2026-04-26T08:30:20.013Z</time></trkpt><trkpt lat="44.8400283" lon="9.3305583"><ele>587.0</ele><time>2026-04-26T08:30:21.013Z</time></trkpt><trkpt lat="44.83995" lon="9.3304867"><ele>587.0</ele><time>2026-04-26T08:30:22.013Z</time></trkpt><trkpt lat="44.839855" lon="9.3304733"><ele>587.0</ele><time>2026-04-26T08:30:23.012Z</time></trkpt><trkpt lat="44.8397417" lon="9.3305017"><ele>587.0</ele><time>2026-04-26T08:30:24.013Z</time></trkpt><trkpt lat="44.8396117" lon="9.3305583"><ele>587.0</ele><time>2026-04-26T08:30:25.013Z</time></trkpt><trkpt lat="44.839475" lon="9.3306033"><ele>587.0</ele><time>2026-04-26T08:30:26.013Z</time></trkpt><trkpt lat="44.8393333" lon="9.3306633"><ele>587.0</ele><time>2026-04-26T08:30:27.012Z</time></trkpt><trkpt lat="44.8391917" lon="9.3307417"><ele>587.0</ele><time>2026-04-26T08:30:28.013Z</time></trkpt><trkpt lat="44.839065" lon="9.3308033"><ele>587.0</ele><time>2026-04-26T08:30:29.012Z</time></trkpt><trkpt lat="44.838925" lon="9.3308583"><ele>587.0</ele><time>2026-04-26T08:30:30.012Z</time></trkpt><trkpt lat="44.8388167" lon="9.3308733"><ele>587.0</ele><time>2026-04-26T08:30:31.012Z</time></trkpt><trkpt lat="44.8386933" lon="9.330845"><ele>587.0</ele><time>2026-04-26T08:30:32.013Z</time></trkpt><trkpt lat="44.838575" lon="9.3308083"><ele>589.0</ele><time>2026-04-26T08:30:33.013Z</time></trkpt><trkpt lat="44.838425" lon="9.3307333"><ele>591.0</ele><time>2026-04-26T08:30:34.012Z</time></trkpt><trkpt lat="44.8382617" lon="9.3306333"><ele>593.0</ele><time>2026-04-26T08:30:35.012Z</time></trkpt><trkpt lat="44.8380883" lon="9.3305417"><ele>596.6666666666666</ele><time>2026-04-26T08:30:36.012Z</time></trkpt><trkpt lat="44.8379367" lon="9.3304517"><ele>600.3333333333334</ele><time>2026-04-26T08:30:37.013Z</time></trkpt><trkpt lat="44.8377733" lon="9.33036"><ele>604.0</ele><time>2026-04-26T08:30:38.013Z</time></trkpt><trkpt lat="44.8376217" lon="9.3302783"><ele>604.0</ele><time>2026-04-26T08:30:39.013Z</time></trkpt><trkpt lat="44.8375167" lon="9.3301767"><ele>604.0</ele><time>2026-04-26T08:30:40.012Z</time></trkpt><trkpt lat="44.83743" lon="9.3300917"><ele>604.0</ele><time>2026-04-26T08:30:41.012Z</time></trkpt><trkpt lat="44.8373667" lon="9.329935"><ele>604.0</ele><time>2026-04-26T08:30:42.013Z</time></trkpt><trkpt lat="44.8372817" lon="9.329775"><ele>607.25</ele><time>2026-04-26T08:30:43.013Z</time></trkpt><trkpt lat="44.83721" lon="9.3295983"><ele>610.5</ele><time>2026-04-26T08:30:44.012Z</time></trkpt><trkpt lat="44.837175" lon="9.32941"><ele>613.75</ele><time>2026-04-26T08:30:45.012Z</time></trkpt><trkpt lat="44.8371417" lon="9.32924"><ele>617.0</ele><time>2026-04-26T08:30:46.012Z</time></trkpt><trkpt lat="44.8371233" lon="9.3290683"><ele>617.0</ele><time>2026-04-26T08:30:47.012Z</time></trkpt><trkpt lat="44.8371017" lon="9.328915"><ele>617.0</ele><time>2026-04-26T08:30:48.012Z</time></trkpt><trkpt lat="44.8370783" lon="9.3287683"><ele>617.0</ele><time>2026-04-26T08:30:49.012Z</time></trkpt><trkpt lat="44.8370567" lon="9.3286383"><ele>617.0</ele><time>2026-04-26T08:30:50.013Z</time></trkpt><trkpt lat="44.8370217" lon="9.3285117"><ele>617.0</ele><time>2026-04-26T08:30:51.012Z</time></trkpt><trkpt lat="44.8370067" lon="9.328375"><ele>617.4</ele><time>2026-04-26T08:30:52.013Z</time></trkpt><trkpt lat="44.8369867" lon="9.3282483"><ele>617.8000000000001</ele><time>2026-04-26T08:30:53.012Z</time></trkpt><trkpt lat="44.8369583" lon="9.328115"><ele>618.2</ele><time>2026-04-26T08:30:54.012Z</time></trkpt><trkpt lat="44.8369133" lon="9.3279767"><ele>618.6</ele><time>2026-04-26T08:30:55.012Z</time></trkpt><trkpt lat="44.8368717" lon="9.3278267"><ele>619.0</ele><time>2026-04-26T08:30:56.012Z</time></trkpt><trkpt lat="44.83684" lon="9.3276567"><ele>618.75</ele><time>2026-04-26T08:30:57.012Z</time></trkpt><trkpt lat="44.8367933" lon="9.3275017"><ele>618.5</ele><time>2026-04-26T08:30:58.013Z</time></trkpt><trkpt lat="44.8367383" lon="9.32734"><ele>618.25</ele><time>2026-04-26T08:30:59.012Z</time></trkpt><trkpt lat="44.836685" lon="9.3271533"><ele>618.0</ele><time>2026-04-26T08:31:00.012Z</time></trkpt><trkpt lat="44.8366367" lon="9.326955"><ele>618.0</ele><time>2026-04-26T08:31:01.013Z</time></trkpt><trkpt lat="44.8366033" lon="9.32675"><ele>618.0</ele><time>2026-04-26T08:31:02.013Z</time></trkpt><trkpt lat="44.8365483" lon="9.3265617"><ele>618.0</ele><time>2026-04-26T08:31:03.013Z</time></trkpt><trkpt lat="44.83649" lon="9.32638"><ele>618.0</ele><time>2026-04-26T08:31:04.012Z</time></trkpt><trkpt lat="44.836435" lon="9.3262067"><ele>620.5</ele><time>2026-04-26T08:31:05.012Z</time></trkpt><trkpt lat="44.8363767" lon="9.3260333"><ele>623.0</ele><time>2026-04-26T08:31:06.013Z</time></trkpt><trkpt lat="44.8363217" lon="9.3258717"><ele>625.5</ele><time>2026-04-26T08:31:07.012Z</time></trkpt><trkpt lat="44.836245" lon="9.3257083"><ele>628.0</ele><time>2026-04-26T08:31:08.013Z</time></trkpt><trkpt lat="44.8361683" lon="9.3255667"><ele>627.0</ele><time>2026-04-26T08:31:09.013Z</time></trkpt><trkpt lat="44.8360867" lon="9.3254233"><ele>626.0</ele><time>2026-04-26T08:31:10.012Z</time></trkpt><trkpt lat="44.83599" lon="9.3252833"><ele>625.0</ele><time>2026-04-26T08:31:11.012Z</time></trkpt><trkpt lat="44.835895" lon="9.3251433"><ele>624.0</ele><time>2026-04-26T08:31:12.012Z</time></trkpt><trkpt lat="44.835795" lon="9.325005"><ele>624.0</ele><time>2026-04-26T08:31:13.012Z</time></trkpt><trkpt lat="44.8356883" lon="9.3248667"><ele>624.0</ele><time>2026-04-26T08:31:14.012Z</time></trkpt><trkpt lat="44.83558" lon="9.3247333"><ele>624.0</ele><time>2026-04-26T08:31:15.012Z</time></trkpt><trkpt lat="44.8354767" lon="9.3245817"><ele>624.0</ele><time>2026-04-26T08:31:16.013Z</time></trkpt><trkpt lat="44.835365" lon="9.32444"><ele>626.25</ele><time>2026-04-26T08:31:17.013Z</time></trkpt><trkpt lat="44.8352583" lon="9.3243033"><ele>628.5</ele><time>2026-04-26T08:31:18.013Z</time></trkpt><trkpt lat="44.8351533" lon="9.3241617"><ele>630.75</ele><time>2026-04-26T08:31:19.012Z</time></trkpt><trkpt lat="44.8350517" lon="9.3240383"><ele>633.0</ele><time>2026-04-26T08:31:20.013Z</time></trkpt><trkpt lat="44.8349583" lon="9.3239217"><ele>635.75</ele><time>2026-04-26T08:31:21.013Z</time></trkpt><trkpt lat="44.8348583" lon="9.3237983"><ele>638.5</ele><time>2026-04-26T08:31:22.013Z</time></trkpt><trkpt lat="44.83476" lon="9.323675"><ele>641.25</ele><time>2026-04-26T08:31:23.012Z</time></trkpt><trkpt lat="44.8346467" lon="9.323535"><ele>644.0</ele><time>2026-04-26T08:31:24.013Z</time></trkpt><trkpt lat="44.8345317" lon="9.32339"><ele>644.0</ele><time>2026-04-26T08:31:25.013Z</time></trkpt><trkpt lat="44.8344083" lon="9.3232267"><ele>644.0</ele><time>2026-04-26T08:31:26.012Z</time></trkpt><trkpt lat="44.8342967" lon="9.323055"><ele>644.0</ele><time>2026-04-26T08:31:27.012Z</time></trkpt><trkpt lat="44.83419" lon="9.3228783"><ele>644.6666666666666</ele><time>2026-04-26T08:31:28.013Z</time></trkpt><trkpt lat="44.8340933" lon="9.322685"><ele>645.3333333333334</ele><time>2026-04-26T08:31:29.012Z</time></trkpt><trkpt lat="44.8340283" lon="9.3225017"><ele>646.0</ele><time>2026-04-26T08:31:30.012Z</time></trkpt><trkpt lat="44.83395" lon="9.32232"><ele>648.0</ele><time>2026-04-26T08:31:31.013Z</time></trkpt><trkpt lat="44.83386" lon="9.3221617"><ele>650.0</ele><time>2026-04-26T08:31:32.012Z</time></trkpt><trkpt lat="44.8337667" lon="9.32201"><ele>652.0</ele><time>2026-04-26T08:31:33.012Z</time></trkpt><trkpt lat="44.8336733" lon="9.3218933"><ele>654.0</ele><time>2026-04-26T08:31:34.013Z</time></trkpt><trkpt lat="44.83358" lon="9.3217917"><ele>654.0</ele><time>2026-04-26T08:31:35.013Z</time></trkpt><trkpt lat="44.8334817" lon="9.3217333"><ele>654.0</ele><time>2026-04-26T08:31:36.012Z</time></trkpt><trkpt lat="44.8333767" lon="9.3217967"><ele>654.0</ele><time>2026-04-26T08:31:37.012Z</time></trkpt><trkpt lat="44.8333183" lon="9.3219167"><ele>654.0</ele><time>2026-04-26T08:31:38.013Z</time></trkpt><trkpt lat="44.8332883" lon="9.3220733"><ele>654.0</ele><time>2026-04-26T08:31:39.012Z</time></trkpt><trkpt lat="44.8332733" lon="9.3222517"><ele>654.3333333333334</ele><time>2026-04-26T08:31:40.012Z</time></trkpt><trkpt lat="44.8332867" lon="9.3224667"><ele>654.6666666666667</ele><time>2026-04-26T08:31:41.013Z</time></trkpt><trkpt lat="44.83332" lon="9.3226883"><ele>655.0</ele><time>2026-04-26T08:31:42.013Z</time></trkpt><trkpt lat="44.83337" lon="9.3229067"><ele>657.6666666666667</ele><time>2026-04-26T08:31:43.012Z</time></trkpt><trkpt lat="44.8334283" lon="9.3231233"><ele>660.3333333333334</ele><time>2026-04-26T08:31:44.012Z</time></trkpt><trkpt lat="44.8334717" lon="9.3233417"><ele>663.0</ele><time>2026-04-26T08:31:45.012Z</time></trkpt><trkpt lat="44.8335233" lon="9.323555"><ele>655.6666666666666</ele><time>2026-04-26T08:31:46.013Z</time></trkpt><trkpt lat="44.8335833" lon="9.3237767"><ele>648.3333333333333</ele><time>2026-04-26T08:31:47.012Z</time></trkpt><trkpt lat="44.833625" lon="9.3239967"><ele>641.0</ele><time>2026-04-26T08:31:48.012Z</time></trkpt><trkpt lat="44.8336783" lon="9.3242383"><ele>641.0</ele><time>2026-04-26T08:31:49.012Z</time></trkpt><trkpt lat="44.8337283" lon="9.3244617"><ele>641.0</ele><time>2026-04-26T08:31:50.012Z</time></trkpt><trkpt lat="44.8337483" lon="9.32467"><ele>641.0</ele><time>2026-04-26T08:31:51.013Z</time></trkpt><trkpt lat="44.83376" lon="9.32486"><ele>644.6666666666666</ele><time>2026-04-26T08:31:52.012Z</time></trkpt><trkpt lat="44.8337733" lon="9.3250617"><ele>648.3333333333334</ele><time>2026-04-26T08:31:53.013Z</time></trkpt><trkpt lat="44.8338283" lon="9.3252633"><ele>652.0</ele><time>2026-04-26T08:31:54.013Z</time></trkpt><trkpt lat="44.8338983" lon="9.3254683"><ele>655.0</ele><time>2026-04-26T08:31:55.013Z</time></trkpt><trkpt lat="44.83396" lon="9.3256717"><ele>658.0</ele><time>2026-04-26T08:31:56.012Z</time></trkpt><trkpt lat="44.8340333" lon="9.3258583"><ele>661.0</ele><time>2026-04-26T08:31:57.012Z</time></trkpt><trkpt lat="44.834105" lon="9.3260183"><ele>664.0</ele><time>2026-04-26T08:31:58.012Z</time></trkpt><trkpt lat="44.8341667" lon="9.32617"><ele>664.0</ele><time>2026-04-26T08:31:59.012Z</time></trkpt><trkpt lat="44.8341917" lon="9.32635"><ele>664.0</ele><time>2026-04-26T08:32:00.013Z</time></trkpt><trkpt lat="44.8342283" lon="9.32652"><ele>664.0</ele><time>2026-04-26T08:32:01.012Z</time></trkpt><trkpt lat="44.8342767" lon="9.3266833"><ele>664.0</ele><time>2026-04-26T08:32:02.012Z</time></trkpt><trkpt lat="44.8342933" lon="9.3268233"><ele>664.2</ele><time>2026-04-26T08:32:03.012Z</time></trkpt><trkpt lat="44.8343317" lon="9.3269517"><ele>664.4000000000001</ele><time>2026-04-26T08:32:04.013Z</time></trkpt><trkpt lat="44.8343417" lon="9.3270533"><ele>664.6</ele><time>2026-04-26T08:32:06.012Z</time></trkpt><trkpt lat="44.8342367" lon="9.3270917"><ele>664.8</ele><time>2026-04-26T08:32:08.012Z</time></trkpt><trkpt lat="44.83414" lon="9.327115"><ele>665.0</ele><time>2026-04-26T08:32:09.012Z</time></trkpt><trkpt lat="44.8339583" lon="9.32704"><ele>665.0</ele><time>2026-04-26T08:32:10.013Z</time></trkpt><trkpt lat="44.8338067" lon="9.3269467"><ele>665.0</ele><time>2026-04-26T08:32:11.012Z</time></trkpt><trkpt lat="44.8336683" lon="9.326835"><ele>665.0</ele><time>2026-04-26T08:32:12.012Z</time></trkpt><trkpt lat="44.83354" lon="9.3267483"><ele>665.3333333333333</ele><time>2026-04-26T08:32:13.013Z</time></trkpt><trkpt lat="44.8334133" lon="9.32662"><ele>665.6666666666666</ele><time>2026-04-26T08:32:14.012Z</time></trkpt><trkpt lat="44.83329" lon="9.326475"><ele>666.0</ele><time>2026-04-26T08:32:15.013Z</time></trkpt><trkpt lat="44.8331567" lon="9.3263633"><ele>670.3333333333334</ele><time>2026-04-26T08:32:16.013Z</time></trkpt><trkpt lat="44.8330233" lon="9.326245"><ele>674.6666666666667</ele><time>2026-04-26T08:32:17.013Z</time></trkpt><trkpt lat="44.8328717" lon="9.3261783"><ele>679.0</ele><time>2026-04-26T08:32:18.013Z</time></trkpt><trkpt lat="44.83264" lon="9.32618"><ele>682.3333333333334</ele><time>2026-04-26T08:32:19.013Z</time></trkpt><trkpt lat="44.8324317" lon="9.3261817"><ele>685.6666666666666</ele><time>2026-04-26T08:32:20.012Z</time></trkpt><trkpt lat="44.83224" lon="9.326225"><ele>689.0</ele><time>2026-04-26T08:32:21.013Z</time></trkpt><trkpt lat="44.8320567" lon="9.3262467"><ele>689.0</ele><time>2026-04-26T08:32:22.013Z</time></trkpt><trkpt lat="44.8318883" lon="9.32626"><ele>689.0</ele><time>2026-04-26T08:32:23.013Z</time></trkpt><trkpt lat="44.8317217" lon="9.32629"><ele>689.0</ele><time>2026-04-26T08:32:24.012Z</time></trkpt><trkpt lat="44.83156" lon="9.3262767"><ele>689.3333333333333</ele><time>2026-04-26T08:32:25.012Z</time></trkpt><trkpt lat="44.8313917" lon="9.3262117"><ele>689.6666666666666</ele><time>2026-04-26T08:32:26.013Z</time></trkpt><trkpt lat="44.8312267" lon="9.326155"><ele>690.0</ele><time>2026-04-26T08:32:27.012Z</time></trkpt><trkpt lat="44.831055" lon="9.3260817"><ele>689.0</ele><time>2026-04-26T08:32:28.012Z</time></trkpt><trkpt lat="44.8308917" lon="9.3260283"><ele>688.0</ele><time>2026-04-26T08:32:29.012Z</time></trkpt><trkpt lat="44.830745" lon="9.3259983"><ele>687.0</ele><time>2026-04-26T08:32:30.012Z</time></trkpt><trkpt lat="44.8305983" lon="9.32599"><ele>687.0</ele><time>2026-04-26T08:32:31.012Z</time></trkpt><trkpt lat="44.83044" lon="9.3259833"><ele>687.0</ele><time>2026-04-26T08:32:32.013Z</time></trkpt><trkpt lat="44.8302733" lon="9.3259717"><ele>687.0</ele><time>2026-04-26T08:32:33.012Z</time></trkpt><trkpt lat="44.830115" lon="9.3259883"><ele>691.0</ele><time>2026-04-26T08:32:34.013Z</time></trkpt><trkpt lat="44.829955" lon="9.32603"><ele>695.0</ele><time>2026-04-26T08:32:35.012Z</time></trkpt><trkpt lat="44.8298017" lon="9.32609"><ele>699.0</ele><time>2026-04-26T08:32:36.013Z</time></trkpt><trkpt lat="44.8296517" lon="9.3261783"><ele>699.0</ele><time>2026-04-26T08:32:37.012Z</time></trkpt><trkpt lat="44.829515" lon="9.326275"><ele>699.0</ele><time>2026-04-26T08:32:38.012Z</time></trkpt><trkpt lat="44.8293967" lon="9.3263917"><ele>699.0</ele><time>2026-04-26T08:32:39.013Z</time></trkpt><trkpt lat="44.8293783" lon="9.32657"><ele>699.0</ele><time>2026-04-26T08:32:40.013Z</time></trkpt><trkpt lat="44.8293017" lon="9.3266617"><ele>696.5</ele><time>2026-04-26T08:32:41.013Z</time></trkpt><trkpt lat="44.8292267" lon="9.3267617"><ele>694.0</ele><time>2026-04-26T08:32:42.012Z</time></trkpt><trkpt lat="44.8291733" lon="9.3268117"><ele>691.5</ele><time>2026-04-26T08:32:43.013Z</time></trkpt><trkpt lat="44.8290283" lon="9.3266833"><ele>689.0</ele><time>2026-04-26T08:32:45.013Z</time></trkpt><trkpt lat="44.8289417" lon="9.32653"><ele>700.3333333333333</ele><time>2026-04-26T08:32:46.012Z</time></trkpt><trkpt lat="44.8288583" lon="9.32637"><ele>711.6666666666666</ele><time>2026-04-26T08:32:47.013Z</time></trkpt><trkpt lat="44.8287383" lon="9.3261883"><ele>723.0</ele><time>2026-04-26T08:32:48.012Z</time></trkpt><trkpt lat="44.82861" lon="9.3260533"><ele>715.0</ele><time>2026-04-26T08:32:49.012Z</time></trkpt><trkpt lat="44.8284683" lon="9.3259283"><ele>707.0</ele><time>2026-04-26T08:32:50.012Z</time></trkpt><trkpt lat="44.8283217" lon="9.3257883"><ele>699.0</ele><time>2026-04-26T08:32:51.012Z</time></trkpt><trkpt lat="44.8281783" lon="9.3256467"><ele>707.0</ele><time>2026-04-26T08:32:52.013Z</time></trkpt><trkpt lat="44.82804" lon="9.32552"><ele>715.0</ele><time>2026-04-26T08:32:53.012Z</time></trkpt><trkpt lat="44.8279267" lon="9.325405"><ele>723.0</ele><time>2026-04-26T08:32:54.013Z</time></trkpt><trkpt lat="44.8278133" lon="9.3252933"><ele>731.0</ele><time>2026-04-26T08:32:55.012Z</time></trkpt><trkpt lat="44.8277033" lon="9.3251933"><ele>729.0</ele><time>2026-04-26T08:32:56.012Z</time></trkpt><trkpt lat="44.82759" lon="9.3250583"><ele>727.0</ele><time>2026-04-26T08:32:57.012Z</time></trkpt><trkpt lat="44.82748" lon="9.324905"><ele>725.0</ele><time>2026-04-26T08:32:58.013Z</time></trkpt><trkpt lat="44.8273717" lon="9.3247233"><ele>725.0</ele><time>2026-04-26T08:32:59.012Z</time></trkpt><trkpt lat="44.8272667" lon="9.32452"><ele>725.0</ele><time>2026-04-26T08:33:00.013Z</time></trkpt><trkpt lat="44.82717" lon="9.3243117"><ele>725.0</ele><time>2026-04-26T08:33:01.013Z</time></trkpt><trkpt lat="44.8270667" lon="9.3241117"><ele>725.0</ele><time>2026-04-26T08:33:02.012Z</time></trkpt><trkpt lat="44.8269567" lon="9.3239367"><ele>725.0</ele><time>2026-04-26T08:33:03.013Z</time></trkpt><trkpt lat="44.8268217" lon="9.323785"><ele>725.0</ele><time>2026-04-26T08:33:04.013Z</time></trkpt><trkpt lat="44.8266717" lon="9.3236533"><ele>725.0</ele><time>2026-04-26T08:33:05.013Z</time></trkpt><trkpt lat="44.8265233" lon="9.3235183"><ele>725.0</ele><time>2026-04-26T08:33:06.012Z</time></trkpt><trkpt lat="44.8263733" lon="9.3233933"><ele>725.0</ele><time>2026-04-26T08:33:07.012Z</time></trkpt><trkpt lat="44.8262383" lon="9.3232783"><ele>725.0</ele><time>2026-04-26T08:33:08.013Z</time></trkpt><trkpt lat="44.8261267" lon="9.3231617"><ele>725.0</ele><time>2026-04-26T08:33:09.012Z</time></trkpt><trkpt lat="44.82605" lon="9.3230217"><ele>725.0</ele><time>2026-04-26T08:33:10.012Z</time></trkpt><trkpt lat="44.8259817" lon="9.3228983"><ele>725.0</ele><time>2026-04-26T08:33:11.012Z</time></trkpt><trkpt lat="44.8259017" lon="9.322795"><ele>726.8</ele><time>2026-04-26T08:33:12.012Z</time></trkpt><trkpt lat="44.8258533" lon="9.3227067"><ele>728.6</ele><time>2026-04-26T08:33:13.012Z</time></trkpt><trkpt lat="44.82575" lon="9.322655"><ele>730.4000000000001</ele><time>2026-04-26T08:33:14.012Z</time></trkpt><trkpt lat="44.8256317" lon="9.322625"><ele>732.2</ele><time>2026-04-26T08:33:15.013Z</time></trkpt><trkpt lat="44.8255983" lon="9.3227533"><ele>734.0</ele><time>2026-04-26T08:33:16.013Z</time></trkpt><trkpt lat="44.825585" lon="9.3229567"><ele>725.5</ele><time>2026-04-26T08:33:17.013Z</time></trkpt><trkpt lat="44.8256517" lon="9.3233517"><ele>717.0</ele><time>2026-04-26T08:33:18.013Z</time></trkpt><trkpt lat="44.8256833" lon="9.3236733"><ele>715.3333333333334</ele><time>2026-04-26T08:33:19.012Z</time></trkpt><trkpt lat="44.8257167" lon="9.3239833"><ele>713.6666666666667</ele><time>2026-04-26T08:33:20.013Z</time></trkpt><trkpt lat="44.8257233" lon="9.3242617"><ele>712.0</ele><time>2026-04-26T08:33:21.012Z</time></trkpt><trkpt lat="44.8257267" lon="9.32452"><ele>711.3333333333334</ele><time>2026-04-26T08:33:22.013Z</time></trkpt><trkpt lat="44.8257367" lon="9.3247567"><ele>710.6666666666666</ele><time>2026-04-26T08:33:23.013Z</time></trkpt><trkpt lat="44.8257283" lon="9.324975"><ele>710.0</ele><time>2026-04-26T08:33:24.012Z</time></trkpt><trkpt lat="44.8256967" lon="9.325175"><ele>710.0</ele><time>2026-04-26T08:33:25.012Z</time></trkpt><trkpt lat="44.8256533" lon="9.3253417"><ele>710.0</ele><time>2026-04-26T08:33:26.012Z</time></trkpt><trkpt lat="44.8255783" lon="9.325445"><ele>710.0</ele><time>2026-04-26T08:33:27.013Z</time></trkpt><trkpt lat="44.825485" lon="9.3254783"><ele>710.0</ele><time>2026-04-26T08:33:28.012Z</time></trkpt><trkpt lat="44.8253667" lon="9.3254483"><ele>710.0</ele><time>2026-04-26T08:33:29.012Z</time></trkpt><trkpt lat="44.825245" lon="9.3253733"><ele>716.0</ele><time>2026-04-26T08:33:30.013Z</time></trkpt><trkpt lat="44.8250933" lon="9.325305"><ele>722.0</ele><time>2026-04-26T08:33:31.012Z</time></trkpt><trkpt lat="44.8249383" lon="9.325255"><ele>728.0</ele><time>2026-04-26T08:33:32.012Z</time></trkpt><trkpt lat="44.8247783" lon="9.3252233"><ele>728.0</ele><time>2026-04-26T08:33:33.013Z</time></trkpt><trkpt lat="44.8246183" lon="9.32521"><ele>728.0</ele><time>2026-04-26T08:33:34.013Z</time></trkpt><trkpt lat="44.8244783" lon="9.32522"><ele>728.0</ele><time>2026-04-26T08:33:35.012Z</time></trkpt><trkpt lat="44.82433" lon="9.325245"><ele>734.3333333333333</ele><time>2026-04-26T08:33:36.012Z</time></trkpt><trkpt lat="44.8241633" lon="9.3252733"><ele>740.6666666666666</ele><time>2026-04-26T08:33:37.012Z</time></trkpt><trkpt lat="44.8240217" lon="9.3253117"><ele>747.0</ele><time>2026-04-26T08:33:38.013Z</time></trkpt><trkpt lat="44.8238683" lon="9.325355"><ele>747.0</ele><time>2026-04-26T08:33:39.013Z</time></trkpt><trkpt lat="44.8236983" lon="9.3254"><ele>747.0</ele><time>2026-04-26T08:33:40.013Z</time></trkpt><trkpt lat="44.8235433" lon="9.3254333"><ele>747.0</ele><time>2026-04-26T08:33:41.013Z</time></trkpt><trkpt lat="44.823385" lon="9.3254283"><ele>749.75</ele><time>2026-04-26T08:33:42.013Z</time></trkpt><trkpt lat="44.82323" lon="9.3254467"><ele>752.5</ele><time>2026-04-26T08:33:43.012Z</time></trkpt><trkpt lat="44.82308" lon="9.32547"><ele>755.25</ele><time>2026-04-26T08:33:44.012Z</time></trkpt><trkpt lat="44.8229467" lon="9.3255033"><ele>758.0</ele><time>2026-04-26T08:33:45.013Z</time></trkpt><trkpt lat="44.8228267" lon="9.3255317"><ele>758.0</ele><time>2026-04-26T08:33:46.013Z</time></trkpt><trkpt lat="44.8227017" lon="9.3255483"><ele>758.0</ele><time>2026-04-26T08:33:47.013Z</time></trkpt><trkpt lat="44.8225933" lon="9.3255417"><ele>758.0</ele><time>2026-04-26T08:33:48.013Z</time></trkpt><trkpt lat="44.8224733" lon="9.3255083"><ele>758.0</ele><time>2026-04-26T08:33:49.013Z</time></trkpt><trkpt lat="44.82234" lon="9.325445"><ele>759.75</ele><time>2026-04-26T08:33:50.012Z</time></trkpt><trkpt lat="44.8222683" lon="9.32524"><ele>761.5</ele><time>2026-04-26T08:33:51.013Z</time></trkpt><trkpt lat="44.822165" lon="9.325165"><ele>763.25</ele><time>2026-04-26T08:33:52.013Z</time></trkpt><trkpt lat="44.82206" lon="9.3251167"><ele>765.0</ele><time>2026-04-26T08:33:53.012Z</time></trkpt><trkpt lat="44.8219417" lon="9.3250883"><ele>765.0</ele><time>2026-04-26T08:33:54.012Z</time></trkpt><trkpt lat="44.82183" lon="9.325075"><ele>765.0</ele><time>2026-04-26T08:33:55.013Z</time></trkpt><trkpt lat="44.8217283" lon="9.3250933"><ele>765.0</ele><time>2026-04-26T08:33:56.013Z</time></trkpt><trkpt lat="44.8216217" lon="9.32509"><ele>765.0</ele><time>2026-04-26T08:33:57.012Z</time></trkpt><trkpt lat="44.82154" lon="9.325135"><ele>765.0</ele><time>2026-04-26T08:33:58.012Z</time></trkpt><trkpt lat="44.8214217" lon="9.3251183"><ele>764.0</ele><time>2026-04-26T08:33:59.012Z</time></trkpt><trkpt lat="44.8212983" lon="9.32514"><ele>763.0</ele><time>2026-04-26T08:34:00.012Z</time></trkpt><trkpt lat="44.8211633" lon="9.3251767"><ele>762.0</ele><time>2026-04-26T08:34:01.013Z</time></trkpt><trkpt lat="44.8210367" lon="9.325235"><ele>761.0</ele><time>2026-04-26T08:34:02.012Z</time></trkpt><trkpt lat="44.8209183" lon="9.32534"><ele>758.5</ele><time>2026-04-26T08:34:03.013Z</time></trkpt><trkpt lat="44.8207967" lon="9.3254367"><ele>756.0</ele><time>2026-04-26T08:34:04.013Z</time></trkpt><trkpt lat="44.8206867" lon="9.325545"><ele>753.5</ele><time>2026-04-26T08:34:05.013Z</time></trkpt><trkpt lat="44.8205733" lon="9.32564"><ele>751.0</ele><time>2026-04-26T08:34:06.013Z</time></trkpt><trkpt lat="44.8204983" lon="9.32583"><ele>751.0</ele><time>2026-04-26T08:34:07.013Z</time></trkpt><trkpt lat="44.8204183" lon="9.3258883"><ele>751.0</ele><time>2026-04-26T08:34:08.012Z</time></trkpt><trkpt lat="44.8203217" lon="9.3260083"><ele>751.0</ele><time>2026-04-26T08:34:09.013Z</time></trkpt><trkpt lat="44.8202133" lon="9.3261417"><ele>751.0</ele><time>2026-04-26T08:34:10.013Z</time></trkpt><trkpt lat="44.82009" lon="9.326215"><ele>754.0</ele><time>2026-04-26T08:34:11.013Z</time></trkpt><trkpt lat="44.8199933" lon="9.3262867"><ele>757.0</ele><time>2026-04-26T08:34:12.012Z</time></trkpt><trkpt lat="44.8198833" lon="9.3263267"><ele>760.0</ele><time>2026-04-26T08:34:13.012Z</time></trkpt><trkpt lat="44.8197783" lon="9.3263867"><ele>763.0</ele><time>2026-04-26T08:34:14.013Z</time></trkpt><trkpt lat="44.819685" lon="9.3265"><ele>763.0</ele><time>2026-04-26T08:34:15.012Z</time></trkpt><trkpt lat="44.819595" lon="9.3265883"><ele>763.0</ele><time>2026-04-26T08:34:16.012Z</time></trkpt><trkpt lat="44.8194933" lon="9.32661"><ele>763.0</ele><time>2026-04-26T08:34:17.012Z</time></trkpt><trkpt lat="44.81937" lon="9.3266117"><ele>763.0</ele><time>2026-04-26T08:34:18.013Z</time></trkpt><trkpt lat="44.819265" lon="9.3266033"><ele>763.0</ele><time>2026-04-26T08:34:19.012Z</time></trkpt><trkpt lat="44.819165" lon="9.3265833"><ele>764.75</ele><time>2026-04-26T08:34:20.012Z</time></trkpt><trkpt lat="44.819045" lon="9.3265433"><ele>766.5</ele><time>2026-04-26T08:34:21.013Z</time></trkpt><trkpt lat="44.8189267" lon="9.32651"><ele>768.25</ele><time>2026-04-26T08:34:22.012Z</time></trkpt><trkpt lat="44.8188133" lon="9.3264983"><ele>770.0</ele><time>2026-04-26T08:34:23.012Z</time></trkpt><trkpt lat="44.8187217" lon="9.326485"><ele>770.0000000000001</ele><time>2026-04-26T08:34:24.012Z</time></trkpt><trkpt lat="44.81865" lon="9.3264467"><ele>770.0</ele><time>2026-04-26T08:34:25.012Z</time></trkpt><trkpt lat="44.81859" lon="9.3263917"><ele>770.0</ele><time>2026-04-26T08:34:26.013Z</time></trkpt><trkpt lat="44.8185217" lon="9.32633"><ele>770.0</ele><time>2026-04-26T08:34:27.012Z</time></trkpt><trkpt lat="44.81847" lon="9.3262633"><ele>770.0000000000001</ele><time>2026-04-26T08:34:28.012Z</time></trkpt><trkpt lat="44.8184067" lon="9.3261283"><ele>770.0</ele><time>2026-04-26T08:34:30.013Z</time></trkpt><trkpt lat="44.8183517" lon="9.3259733"><ele>772.75</ele><time>2026-04-26T08:34:32.012Z</time></trkpt><trkpt lat="44.8183767" lon="9.3258767"><ele>775.5</ele><time>2026-04-26T08:34:33.013Z</time></trkpt><trkpt lat="44.8184733" lon="9.3257483"><ele>778.25</ele><time>2026-04-26T08:34:34.013Z</time></trkpt><trkpt lat="44.8185767" lon="9.3256217"><ele>781.0</ele><time>2026-04-26T08:34:35.013Z</time></trkpt><trkpt lat="44.8188" lon="9.3254083"><ele>788.5</ele><time>2026-04-26T08:34:36.013Z</time></trkpt><trkpt lat="44.8189933" lon="9.325245"><ele>796.0</ele><time>2026-04-26T08:34:37.013Z</time></trkpt><trkpt lat="44.8192867" lon="9.3250833"><ele>793.0</ele><time>2026-04-26T08:34:38.012Z</time></trkpt><trkpt lat="44.8195117" lon="9.3249767"><ele>790.0</ele><time>2026-04-26T08:34:39.012Z</time></trkpt><trkpt lat="44.8197" lon="9.32489"><ele>787.0</ele><time>2026-04-26T08:34:40.012Z</time></trkpt><trkpt lat="44.8199917" lon="9.3247867"><ele>794.0</ele><time>2026-04-26T08:34:41.012Z</time></trkpt><trkpt lat="44.8201767" lon="9.3246833"><ele>801.0</ele><time>2026-04-26T08:34:42.013Z</time></trkpt><trkpt lat="44.820335" lon="9.32456"><ele>808.0</ele><time>2026-04-26T08:34:43.013Z</time></trkpt><trkpt lat="44.8204767" lon="9.3244867"><ele>808.0</ele><time>2026-04-26T08:34:44.012Z</time></trkpt><trkpt lat="44.8206017" lon="9.3244133"><ele>808.0</ele><time>2026-04-26T08:34:45.012Z</time></trkpt><trkpt lat="44.8207333" lon="9.3243467"><ele>808.0</ele><time>2026-04-26T08:34:46.013Z</time></trkpt><trkpt lat="44.820845" lon="9.32425"><ele>808.0</ele><time>2026-04-26T08:34:47.013Z</time></trkpt><trkpt lat="44.8209683" lon="9.3241567"><ele>811.0</ele><time>2026-04-26T08:34:48.012Z</time></trkpt><trkpt lat="44.8211133" lon="9.3240633"><ele>814.0</ele><time>2026-04-26T08:34:49.013Z</time></trkpt><trkpt lat="44.8212567" lon="9.323945"><ele>817.0</ele><time>2026-04-26T08:34:50.012Z</time></trkpt><trkpt lat="44.8213867" lon="9.3238033"><ele>817.0</ele><time>2026-04-26T08:34:51.013Z</time></trkpt><trkpt lat="44.8215067" lon="9.3236483"><ele>817.0</ele><time>2026-04-26T08:34:52.012Z</time></trkpt><trkpt lat="44.8216483" lon="9.3235133"><ele>817.0</ele><time>2026-04-26T08:34:53.012Z</time></trkpt><trkpt lat="44.821775" lon="9.3233983"><ele>816.3333333333333</ele><time>2026-04-26T08:34:54.013Z</time></trkpt><trkpt lat="44.8219217" lon="9.3233317"><ele>815.6666666666667</ele><time>2026-04-26T08:34:55.013Z</time></trkpt><trkpt lat="44.822085" lon="9.3233167"><ele>815.0</ele><time>2026-04-26T08:34:56.012Z</time></trkpt><trkpt lat="44.8222217" lon="9.32329"><ele>815.0</ele><time>2026-04-26T08:34:57.013Z</time></trkpt><trkpt lat="44.822365" lon="9.3232633"><ele>815.0</ele><time>2026-04-26T08:34:58.012Z</time></trkpt><trkpt lat="44.8224983" lon="9.3232167"><ele>815.0</ele><time>2026-04-26T08:34:59.012Z</time></trkpt><trkpt lat="44.8226217" lon="9.3232867"><ele>815.0</ele><time>2026-04-26T08:35:00.013Z</time></trkpt><trkpt lat="44.822715" lon="9.32338"><ele>814.0</ele><time>2026-04-26T08:35:01.013Z</time></trkpt><trkpt lat="44.8227817" lon="9.32348"><ele>813.0</ele><time>2026-04-26T08:35:02.012Z</time></trkpt><trkpt lat="44.82286" lon="9.323575"><ele>812.0</ele><time>2026-04-26T08:35:03.012Z</time></trkpt><trkpt lat="44.82295" lon="9.3236383"><ele>811.0</ele><time>2026-04-26T08:35:04.012Z</time></trkpt><trkpt lat="44.8230433" lon="9.3236733"><ele>810.0</ele><time>2026-04-26T08:35:05.012Z</time></trkpt><trkpt lat="44.8231483" lon="9.3237317"><ele>810.0</ele><time>2026-04-26T08:35:06.012Z</time></trkpt><trkpt lat="44.82326" lon="9.3237317"><ele>810.0</ele><time>2026-04-26T08:35:07.012Z</time></trkpt><trkpt lat="44.8233667" lon="9.3237217"><ele>810.0</ele><time>2026-04-26T08:35:08.012Z</time></trkpt><trkpt lat="44.8233767" lon="9.3236233"><ele>810.0</ele><time>2026-04-26T08:35:09.013Z</time></trkpt><trkpt lat="44.8233767" lon="9.323525"><ele>810.0</ele><time>2026-04-26T08:35:10.012Z</time></trkpt><trkpt lat="44.8234317" lon="9.323455"><ele>810.0</ele><time>2026-04-26T08:35:12.013Z</time></trkpt><trkpt lat="44.823415" lon="9.3232917"><ele>810.0</ele><time>2026-04-26T08:35:15.013Z</time></trkpt><trkpt lat="44.8233033" lon="9.3231683"><ele>810.0</ele><time>2026-04-26T08:35:17.013Z</time></trkpt><trkpt lat="44.8230983" lon="9.3232033"><ele>810.0</ele><time>2026-04-26T08:35:18.013Z</time></trkpt><trkpt lat="44.8229367" lon="9.3231033"><ele>807.6666666666667</ele><time>2026-04-26T08:35:19.012Z</time></trkpt><trkpt lat="44.8227283" lon="9.322985"><ele>805.3333333333334</ele><time>2026-04-26T08:35:20.012Z</time></trkpt><trkpt lat="44.8225283" lon="9.3229583"><ele>803.0</ele><time>2026-04-26T08:35:21.013Z</time></trkpt><trkpt lat="44.822065" lon="9.3229833"><ele>814.0</ele><time>2026-04-26T08:35:22.012Z</time></trkpt><trkpt lat="44.8218433" lon="9.322995"><ele>825.0</ele><time>2026-04-26T08:35:23.013Z</time></trkpt><trkpt lat="44.8215117" lon="9.3229767"><ele>822.3333333333333</ele><time>2026-04-26T08:35:24.012Z</time></trkpt><trkpt lat="44.8212733" lon="9.3230433"><ele>819.6666666666666</ele><time>2026-04-26T08:35:25.013Z</time></trkpt><trkpt lat="44.8210983" lon="9.3230767"><ele>817.0</ele><time>2026-04-26T08:35:26.013Z</time></trkpt><trkpt lat="44.82093" lon="9.3231417"><ele>824.6666666666666</ele><time>2026-04-26T08:35:27.012Z</time></trkpt><trkpt lat="44.8207683" lon="9.323195"><ele>832.3333333333333</ele><time>2026-04-26T08:35:28.013Z</time></trkpt><trkpt lat="44.8205933" lon="9.3232233"><ele>840.0</ele><time>2026-04-26T08:35:29.012Z</time></trkpt><trkpt lat="44.820435" lon="9.323295"><ele>840.0</ele><time>2026-04-26T08:35:30.013Z</time></trkpt><trkpt lat="44.8202883" lon="9.3233583"><ele>840.0</ele><time>2026-04-26T08:35:31.013Z</time></trkpt><trkpt lat="44.8201417" lon="9.3233733"><ele>840.0</ele><time>2026-04-26T08:35:32.013Z</time></trkpt><trkpt lat="44.82" lon="9.323365"><ele>840.0</ele><time>2026-04-26T08:35:33.012Z</time></trkpt><trkpt lat="44.81985" lon="9.3233667"><ele>841.25</ele><time>2026-04-26T08:35:34.012Z</time></trkpt><trkpt lat="44.8197117" lon="9.323325"><ele>842.5</ele><time>2026-04-26T08:35:35.013Z</time></trkpt><trkpt lat="44.8195733" lon="9.3232567"><ele>843.75</ele><time>2026-04-26T08:35:36.012Z</time></trkpt><trkpt lat="44.8194417" lon="9.3232017"><ele>845.0</ele><time>2026-04-26T08:35:37.012Z</time></trkpt><trkpt lat="44.8192933" lon="9.3231583"><ele>845.0</ele><time>2026-04-26T08:35:38.013Z</time></trkpt><trkpt lat="44.8191183" lon="9.3231417"><ele>845.0</ele><time>2026-04-26T08:35:39.012Z</time></trkpt><trkpt lat="44.81894" lon="9.32315"><ele>845.0</ele><time>2026-04-26T08:35:40.013Z</time></trkpt><trkpt lat="44.8187617" lon="9.3232033"><ele>845.0</ele><time>2026-04-26T08:35:41.012Z</time></trkpt><trkpt lat="44.818575" lon="9.3232717"><ele>845.0</ele><time>2026-04-26T08:35:42.012Z</time></trkpt><trkpt lat="44.8183817" lon="9.3233733"><ele>845.0</ele><time>2026-04-26T08:35:43.013Z</time></trkpt><trkpt lat="44.8181767" lon="9.3235133"><ele>850.3333333333334</ele><time>2026-04-26T08:35:44.013Z</time></trkpt><trkpt lat="44.8179733" lon="9.32366"><ele>855.6666666666667</ele><time>2026-04-26T08:35:45.013Z</time></trkpt><trkpt lat="44.8177917" lon="9.3237967"><ele>861.0</ele><time>2026-04-26T08:35:46.012Z</time></trkpt><trkpt lat="44.8176133" lon="9.323925"><ele>862.0</ele><time>2026-04-26T08:35:47.013Z</time></trkpt><trkpt lat="44.81742" lon="9.3240967"><ele>863.0</ele><time>2026-04-26T08:35:48.012Z</time></trkpt><trkpt lat="44.8172783" lon="9.32426"><ele>864.0</ele><time>2026-04-26T08:35:49.013Z</time></trkpt><trkpt lat="44.8172133" lon="9.3244933"><ele>864.0</ele><time>2026-04-26T08:35:50.013Z</time></trkpt><trkpt lat="44.8170833" lon="9.32466"><ele>864.0</ele><time>2026-04-26T08:35:51.012Z</time></trkpt><trkpt lat="44.8169817" lon="9.3248383"><ele>864.0</ele><time>2026-04-26T08:35:52.013Z</time></trkpt><trkpt lat="44.8168433" lon="9.3249717"><ele>864.6666666666667</ele><time>2026-04-26T08:35:53.012Z</time></trkpt><trkpt lat="44.8167017" lon="9.3250867"><ele>865.3333333333334</ele><time>2026-04-26T08:35:54.012Z</time></trkpt><trkpt lat="44.8165667" lon="9.3251667"><ele>866.0</ele><time>2026-04-26T08:35:55.013Z</time></trkpt><trkpt lat="44.8164267" lon="9.3252367"><ele>866.0</ele><time>2026-04-26T08:35:56.012Z</time></trkpt><trkpt lat="44.816285" lon="9.3253017"><ele>866.0</ele><time>2026-04-26T08:35:57.013Z</time></trkpt><trkpt lat="44.8161667" lon="9.325335"><ele>866.0</ele><time>2026-04-26T08:35:58.013Z</time></trkpt><trkpt lat="44.81604" lon="9.32538"><ele>866.0</ele><time>2026-04-26T08:35:59.012Z</time></trkpt><trkpt lat="44.8159283" lon="9.32535"><ele>867.5</ele><time>2026-04-26T08:36:00.013Z</time></trkpt><trkpt lat="44.8158767" lon="9.3252717"><ele>869.0</ele><time>2026-04-26T08:36:01.013Z</time></trkpt><trkpt lat="44.8157733" lon="9.3252017"><ele>870.5</ele><time>2026-04-26T08:36:02.012Z</time></trkpt><trkpt lat="44.8156617" lon="9.325105"><ele>872.0</ele><time>2026-04-26T08:36:03.013Z</time></trkpt><trkpt lat="44.8155333" lon="9.324955"><ele>872.0</ele><time>2026-04-26T08:36:04.012Z</time></trkpt><trkpt lat="44.81541" lon="9.3248467"><ele>872.0</ele><time>2026-04-26T08:36:05.012Z</time></trkpt><trkpt lat="44.8152833" lon="9.3247117"><ele>872.0</ele><time>2026-04-26T08:36:06.012Z</time></trkpt><trkpt lat="44.81515" lon="9.3245767"><ele>879.0</ele><time>2026-04-26T08:36:07.012Z</time></trkpt><trkpt lat="44.81501" lon="9.3244683"><ele>886.0</ele><time>2026-04-26T08:36:08.012Z</time></trkpt><trkpt lat="44.8148633" lon="9.3243867"><ele>893.0</ele><time>2026-04-26T08:36:09.012Z</time></trkpt><trkpt lat="44.8147117" lon="9.3243017"><ele>893.0</ele><time>2026-04-26T08:36:10.013Z</time></trkpt><trkpt lat="44.8145817" lon="9.3242583"><ele>893.0</ele><time>2026-04-26T08:36:11.012Z</time></trkpt><trkpt lat="44.814435" lon="9.3242317"><ele>893.0</ele><time>2026-04-26T08:36:12.012Z</time></trkpt><trkpt lat="44.8142817" lon="9.3242483"><ele>893.0</ele><time>2026-04-26T08:36:13.013Z</time></trkpt><trkpt lat="44.8141283" lon="9.3242617"><ele>895.3333333333334</ele><time>2026-04-26T08:36:14.012Z</time></trkpt><trkpt lat="44.8139883" lon="9.3243333"><ele>897.6666666666667</ele><time>2026-04-26T08:36:15.012Z</time></trkpt><trkpt lat="44.813855" lon="9.324465"><ele>900.0</ele><time>2026-04-26T08:36:16.013Z</time></trkpt><trkpt lat="44.8137167" lon="9.3245417"><ele>900.0</ele><time>2026-04-26T08:36:17.013Z</time></trkpt><trkpt lat="44.8135883" lon="9.324635"><ele>900.0</ele><time>2026-04-26T08:36:18.013Z</time></trkpt><trkpt lat="44.8134483" lon="9.3246983"><ele>900.0</ele><time>2026-04-26T08:36:19.013Z</time></trkpt><trkpt lat="44.81333" lon="9.3247883"><ele>900.0</ele><time>2026-04-26T08:36:20.013Z</time></trkpt><trkpt lat="44.8132167" lon="9.32486"><ele>897.75</ele><time>2026-04-26T08:36:21.013Z</time></trkpt><trkpt lat="44.8130933" lon="9.32493"><ele>895.5</ele><time>2026-04-26T08:36:22.013Z</time></trkpt><trkpt lat="44.8129767" lon="9.32499"><ele>893.25</ele><time>2026-04-26T08:36:23.012Z</time></trkpt><trkpt lat="44.8128717" lon="9.3250683"><ele>891.0</ele><time>2026-04-26T08:36:24.013Z</time></trkpt><trkpt lat="44.8127933" lon="9.325165"><ele>891.0</ele><time>2026-04-26T08:36:25.013Z</time></trkpt><trkpt lat="44.8127117" lon="9.3252567"><ele>890.9999999999999</ele><time>2026-04-26T08:36:26.013Z</time></trkpt><trkpt lat="44.812635" lon="9.325345"><ele>890.9999999999999</ele><time>2026-04-26T08:36:27.012Z</time></trkpt><trkpt lat="44.8125433" lon="9.3254083"><ele>891.0</ele><time>2026-04-26T08:36:28.013Z</time></trkpt><trkpt lat="44.8124167" lon="9.3254483"><ele>891.0</ele><time>2026-04-26T08:36:29.013Z</time></trkpt><trkpt lat="44.8123033" lon="9.32547"><ele>891.0</ele><time>2026-04-26T08:36:30.012Z</time></trkpt><trkpt lat="44.8122017" lon="9.3255183"><ele>890.9999999999999</ele><time>2026-04-26T08:36:31.012Z</time></trkpt><trkpt lat="44.8121" lon="9.3255733"><ele>890.9999999999999</ele><time>2026-04-26T08:36:32.013Z</time></trkpt><trkpt lat="44.8119983" lon="9.325615"><ele>891.0</ele><time>2026-04-26T08:36:33.013Z</time></trkpt><trkpt lat="44.811905" lon="9.3256267"><ele>891.0</ele><time>2026-04-26T08:36:34.012Z</time></trkpt><trkpt lat="44.81181" lon="9.3255617"><ele>894.1999999999999</ele><time>2026-04-26T08:36:36.013Z</time></trkpt><trkpt lat="44.811775" lon="9.3254783"><ele>897.3999999999999</ele><time>2026-04-26T08:36:38.013Z</time></trkpt><trkpt lat="44.81188" lon="9.3253367"><ele>900.6</ele><time>2026-04-26T08:36:40.013Z</time></trkpt><trkpt lat="44.8119667" lon="9.3252283"><ele>903.8</ele><time>2026-04-26T08:36:41.013Z</time></trkpt><trkpt lat="44.8120433" lon="9.325115"><ele>907.0</ele><time>2026-04-26T08:36:42.012Z</time></trkpt><trkpt lat="44.8121367" lon="9.3249817"><ele>907.0</ele><time>2026-04-26T08:36:43.012Z</time></trkpt><trkpt lat="44.8122233" lon="9.3248633"><ele>907.0</ele><time>2026-04-26T08:36:44.013Z</time></trkpt><trkpt lat="44.8123217" lon="9.324755"><ele>907.0</ele><time>2026-04-26T08:36:45.013Z</time></trkpt><trkpt lat="44.81244" lon="9.324645"><ele>907.0</ele><time>2026-04-26T08:36:46.012Z</time></trkpt><trkpt lat="44.812545" lon="9.3245567"><ele>907.6</ele><time>2026-04-26T08:36:47.012Z</time></trkpt><trkpt lat="44.8126583" lon="9.3244667"><ele>908.2</ele><time>2026-04-26T08:36:48.012Z</time></trkpt><trkpt lat="44.8127517" lon="9.32439"><ele>908.8</ele><time>2026-04-26T08:36:49.012Z</time></trkpt><trkpt lat="44.8128183" lon="9.3243267"><ele>909.4</ele><time>2026-04-26T08:36:50.012Z</time></trkpt><trkpt lat="44.8128883" lon="9.3242483"><ele>910.0</ele><time>2026-04-26T08:36:51.013Z</time></trkpt><trkpt lat="44.8129817" lon="9.324175"><ele>910.0</ele><time>2026-04-26T08:36:53.012Z</time></trkpt><trkpt lat="44.8128467" lon="9.32432"><ele>910.0</ele><time>2026-04-26T08:36:56.012Z</time></trkpt><trkpt lat="44.81273" lon="9.3244"><ele>910.0</ele><time>2026-04-26T08:36:57.013Z</time></trkpt><trkpt lat="44.8126283" lon="9.32445"><ele>910.0</ele><time>2026-04-26T08:36:58.013Z</time></trkpt><trkpt lat="44.8124867" lon="9.3245033"><ele>920.0</ele><time>2026-04-26T08:36:59.012Z</time></trkpt><trkpt lat="44.812295" lon="9.3245517"><ele>930.0</ele><time>2026-04-26T08:37:00.012Z</time></trkpt><trkpt lat="44.8120333" lon="9.324455"><ele>930.0</ele><time>2026-04-26T08:37:01.012Z</time></trkpt><trkpt lat="44.8118667" lon="9.3244567"><ele>930.0</ele><time>2026-04-26T08:37:02.012Z</time></trkpt><trkpt lat="44.8117117" lon="9.3244733"><ele>930.0</ele><time>2026-04-26T08:37:03.013Z</time></trkpt><trkpt lat="44.8115233" lon="9.3244867"><ele>933.3333333333333</ele><time>2026-04-26T08:37:04.013Z</time></trkpt><trkpt lat="44.8113533" lon="9.3244767"><ele>936.6666666666666</ele><time>2026-04-26T08:37:05.013Z</time></trkpt><trkpt lat="44.811195" lon="9.32445"><ele>940.0</ele><time>2026-04-26T08:37:06.012Z</time></trkpt><trkpt lat="44.8110067" lon="9.3243267"><ele>940.5</ele><time>2026-04-26T08:37:07.012Z</time></trkpt><trkpt lat="44.8107883" lon="9.3242617"><ele>941.0</ele><time>2026-04-26T08:37:08.012Z</time></trkpt><trkpt lat="44.8105683" lon="9.3241367"><ele>941.0</ele><time>2026-04-26T08:37:09.012Z</time></trkpt><trkpt lat="44.8104083" lon="9.3240433"><ele>941.0</ele><time>2026-04-26T08:37:10.013Z</time></trkpt><trkpt lat="44.8102467" lon="9.3239667"><ele>941.0</ele><time>2026-04-26T08:37:11.013Z</time></trkpt><trkpt lat="44.8100917" lon="9.3239083"><ele>941.0</ele><time>2026-04-26T08:37:12.013Z</time></trkpt><trkpt lat="44.8099417" lon="9.3238783"><ele>941.0</ele><time>2026-04-26T08:37:13.013Z</time></trkpt><trkpt lat="44.8097917" lon="9.32388"><ele>941.0</ele><time>2026-04-26T08:37:14.013Z</time></trkpt><trkpt lat="44.8096633" lon="9.3239033"><ele>941.0</ele><time>2026-04-26T08:37:15.012Z</time></trkpt><trkpt lat="44.80952" lon="9.3239317"><ele>941.0</ele><time>2026-04-26T08:37:16.013Z</time></trkpt><trkpt lat="44.8093667" lon="9.32394"><ele>941.0</ele><time>2026-04-26T08:37:17.013Z</time></trkpt><trkpt lat="44.80923" lon="9.3239317"><ele>941.0</ele><time>2026-04-26T08:37:18.013Z</time></trkpt><trkpt lat="44.8091033" lon="9.3239183"><ele>941.0</ele><time>2026-04-26T08:37:19.013Z</time></trkpt><trkpt lat="44.808985" lon="9.323885"><ele>944.1999999999999</ele><time>2026-04-26T08:37:20.012Z</time></trkpt><trkpt lat="44.8088717" lon="9.3238367"><ele>947.3999999999999</ele><time>2026-04-26T08:37:21.013Z</time></trkpt><trkpt lat="44.8087767" lon="9.3237617"><ele>950.6</ele><time>2026-04-26T08:37:22.013Z</time></trkpt><trkpt lat="44.8086783" lon="9.3237017"><ele>953.8</ele><time>2026-04-26T08:37:23.012Z</time></trkpt><trkpt lat="44.808595" lon="9.3236333"><ele>957.0</ele><time>2026-04-26T08:37:24.012Z</time></trkpt><trkpt lat="44.8085217" lon="9.3235767"><ele>956.4000000000001</ele><time>2026-04-26T08:37:25.013Z</time></trkpt><trkpt lat="44.8084467" lon="9.3235283"><ele>955.8000000000001</ele><time>2026-04-26T08:37:26.013Z</time></trkpt><trkpt lat="44.80836" lon="9.323505"><ele>955.2</ele><time>2026-04-26T08:37:27.012Z</time></trkpt><trkpt lat="44.8082767" lon="9.32349"><ele>954.6</ele><time>2026-04-26T08:37:28.012Z</time></trkpt><trkpt lat="44.8082" lon="9.323475"><ele>954.0</ele><time>2026-04-26T08:37:29.013Z</time></trkpt><trkpt lat="44.808075" lon="9.32344"><ele>954.0</ele><time>2026-04-26T08:37:31.012Z</time></trkpt><trkpt lat="44.8079867" lon="9.3234367"><ele>954.0000000000001</ele><time>2026-04-26T08:37:32.013Z</time></trkpt><trkpt lat="44.8078883" lon="9.3234233"><ele>954.0000000000001</ele><time>2026-04-26T08:37:33.013Z</time></trkpt><trkpt lat="44.8077817" lon="9.3234017"><ele>954.0</ele><time>2026-04-26T08:37:34.013Z</time></trkpt><trkpt lat="44.8076583" lon="9.32339"><ele>954.0</ele><time>2026-04-26T08:37:35.012Z</time></trkpt><trkpt lat="44.8075517" lon="9.3233517"><ele>954.4000000000001</ele><time>2026-04-26T08:37:36.012Z</time></trkpt><trkpt lat="44.80745" lon="9.32331"><ele>954.8000000000001</ele><time>2026-04-26T08:37:37.013Z</time></trkpt><trkpt lat="44.8073633" lon="9.323265"><ele>955.1999999999999</ele><time>2026-04-26T08:37:38.012Z</time></trkpt><trkpt lat="44.807275" lon="9.3232183"><ele>955.5999999999999</ele><time>2026-04-26T08:37:39.013Z</time></trkpt><trkpt lat="44.8071867" lon="9.3231683"><ele>956.0</ele><time>2026-04-26T08:37:40.013Z</time></trkpt><trkpt lat="44.807075" lon="9.3231533"><ele>956.0</ele><time>2026-04-26T08:37:41.013Z</time></trkpt><trkpt lat="44.8069783" lon="9.32313"><ele>955.9999999999999</ele><time>2026-04-26T08:37:42.013Z</time></trkpt><trkpt lat="44.806875" lon="9.32311"><ele>955.9999999999999</ele><time>2026-04-26T08:37:43.013Z</time></trkpt><trkpt lat="44.80677" lon="9.3231067"><ele>956.0</ele><time>2026-04-26T08:37:44.012Z</time></trkpt><trkpt lat="44.806675" lon="9.323115"><ele>956.0</ele><time>2026-04-26T08:37:45.012Z</time></trkpt><trkpt lat="44.806595" lon="9.3231417"><ele>956.1999999999999</ele><time>2026-04-26T08:37:46.012Z</time></trkpt><trkpt lat="44.8065183" lon="9.3232083"><ele>956.3999999999999</ele><time>2026-04-26T08:37:47.012Z</time></trkpt><trkpt lat="44.8064367" lon="9.323265"><ele>956.6</ele><time>2026-04-26T08:37:48.013Z</time></trkpt><trkpt lat="44.8063833" lon="9.32335"><ele>956.8</ele><time>2026-04-26T08:37:49.012Z</time></trkpt><trkpt lat="44.8063317" lon="9.32345"><ele>957.0</ele><time>2026-04-26T08:37:50.012Z</time></trkpt><trkpt lat="44.8062967" lon="9.3235933"><ele>957.0</ele><time>2026-04-26T08:37:51.013Z</time></trkpt><trkpt lat="44.8062633" lon="9.3237567"><ele>957.0</ele><time>2026-04-26T08:37:52.012Z</time></trkpt><trkpt lat="44.80623" lon="9.3239067"><ele>957.0</ele><time>2026-04-26T08:37:53.012Z</time></trkpt><trkpt lat="44.8061867" lon="9.3240433"><ele>957.0</ele><time>2026-04-26T08:37:54.012Z</time></trkpt><trkpt lat="44.8061433" lon="9.324185"><ele>957.0</ele><time>2026-04-26T08:37:55.012Z</time></trkpt><trkpt lat="44.8060883" lon="9.3243267"><ele>956.8</ele><time>2026-04-26T08:37:56.012Z</time></trkpt><trkpt lat="44.8060317" lon="9.3244483"><ele>956.6</ele><time>2026-04-26T08:37:57.013Z</time></trkpt><trkpt lat="44.8059683" lon="9.3245517"><ele>956.3999999999999</ele><time>2026-04-26T08:37:58.013Z</time></trkpt><trkpt lat="44.8059033" lon="9.324615"><ele>956.1999999999999</ele><time>2026-04-26T08:37:59.012Z</time></trkpt><trkpt lat="44.80582" lon="9.3246067"><ele>956.0</ele><time>2026-04-26T08:38:00.012Z</time></trkpt><trkpt lat="44.805715" lon="9.32447"><ele>956.0</ele><time>2026-04-26T08:38:01.012Z</time></trkpt><trkpt lat="44.8056267" lon="9.3244083"><ele>955.9999999999999</ele><time>2026-04-26T08:38:02.012Z</time></trkpt><trkpt lat="44.8055383" lon="9.3243617"><ele>955.9999999999999</ele><time>2026-04-26T08:38:03.012Z</time></trkpt><trkpt lat="44.805455" lon="9.3243517"><ele>956.0</ele><time>2026-04-26T08:38:04.012Z</time></trkpt><trkpt lat="44.8053817" lon="9.324415"><ele>956.0</ele><time>2026-04-26T08:38:05.013Z</time></trkpt><trkpt lat="44.8053283" lon="9.3245367"><ele>956.0</ele><time>2026-04-26T08:38:06.012Z</time></trkpt><trkpt lat="44.8052783" lon="9.3247117"><ele>956.0</ele><time>2026-04-26T08:38:07.012Z</time></trkpt><trkpt lat="44.8052467" lon="9.3248983"><ele>956.0</ele><time>2026-04-26T08:38:08.013Z</time></trkpt><trkpt lat="44.805215" lon="9.325065"><ele>956.0</ele><time>2026-04-26T08:38:09.012Z</time></trkpt><trkpt lat="44.805165" lon="9.3251933"><ele>955.5999999999999</ele><time>2026-04-26T08:38:10.012Z</time></trkpt><trkpt lat="44.80512" lon="9.325315"><ele>955.1999999999999</ele><time>2026-04-26T08:38:11.013Z</time></trkpt><trkpt lat="44.8050833" lon="9.32544"><ele>954.8000000000001</ele><time>2026-04-26T08:38:12.013Z</time></trkpt><trkpt lat="44.8050267" lon="9.325555"><ele>954.4000000000001</ele><time>2026-04-26T08:38:13.013Z</time></trkpt><trkpt lat="44.8049617" lon="9.3256567"><ele>954.0</ele><time>2026-04-26T08:38:14.013Z</time></trkpt><trkpt lat="44.8048917" lon="9.325795"><ele>954.0</ele><time>2026-04-26T08:38:15.013Z</time></trkpt><trkpt lat="44.8048083" lon="9.3258983"><ele>954.0</ele><time>2026-04-26T08:38:16.012Z</time></trkpt><trkpt lat="44.8047033" lon="9.3260117"><ele>954.0</ele><time>2026-04-26T08:38:17.012Z</time></trkpt><trkpt lat="44.8046067" lon="9.3261367"><ele>954.0</ele><time>2026-04-26T08:38:18.012Z</time></trkpt><trkpt lat="44.8045033" lon="9.3262533"><ele>954.0</ele><time>2026-04-26T08:38:19.013Z</time></trkpt><trkpt lat="44.8044117" lon="9.32637"><ele>954.0</ele><time>2026-04-26T08:38:20.012Z</time></trkpt><trkpt lat="44.804325" lon="9.3264833"><ele>954.0</ele><time>2026-04-26T08:38:21.011Z</time></trkpt><trkpt lat="44.8042133" lon="9.3266317"><ele>954.0</ele><time>2026-04-26T08:38:22.011Z</time></trkpt><trkpt lat="44.8041933" lon="9.3268433"><ele>957.25</ele><time>2026-04-26T08:38:23.012Z</time></trkpt><trkpt lat="44.8041267" lon="9.3269967"><ele>960.5</ele><time>2026-04-26T08:38:24.012Z</time></trkpt><trkpt lat="44.8040567" lon="9.3271633"><ele>963.75</ele><time>2026-04-26T08:38:25.012Z</time></trkpt><trkpt lat="44.8040017" lon="9.3273317"><ele>967.0</ele><time>2026-04-26T08:38:26.012Z</time></trkpt><trkpt lat="44.803945" lon="9.3275267"><ele>966.6666666666666</ele><time>2026-04-26T08:38:27.011Z</time></trkpt><trkpt lat="44.8038933" lon="9.3277317"><ele>966.3333333333333</ele><time>2026-04-26T08:38:28.012Z</time></trkpt><trkpt lat="44.80386" lon="9.3279467"><ele>966.0</ele><time>2026-04-26T08:38:29.011Z</time></trkpt><trkpt lat="44.8038233" lon="9.3281733"><ele>966.0</ele><time>2026-04-26T08:38:30.011Z</time></trkpt><trkpt lat="44.8038333" lon="9.3284117"><ele>966.0</ele><time>2026-04-26T08:38:31.012Z</time></trkpt><trkpt lat="44.8038783" lon="9.32868"><ele>966.0</ele><time>2026-04-26T08:38:32.011Z</time></trkpt><trkpt lat="44.803975" lon="9.3289617"><ele>965.3333333333333</ele><time>2026-04-26T08:38:33.011Z</time></trkpt><trkpt lat="44.80408" lon="9.32926"><ele>964.6666666666666</ele><time>2026-04-26T08:38:34.012Z</time></trkpt><trkpt lat="44.8041483" lon="9.3295233"><ele>964.0</ele><time>2026-04-26T08:38:35.011Z</time></trkpt><trkpt lat="44.8042233" lon="9.3297583"><ele>967.0</ele><time>2026-04-26T08:38:36.011Z</time></trkpt><trkpt lat="44.80429" lon="9.3299983"><ele>970.0</ele><time>2026-04-26T08:38:37.011Z</time></trkpt><trkpt lat="44.8043383" lon="9.3302167"><ele>973.0</ele><time>2026-04-26T08:38:38.011Z</time></trkpt><trkpt lat="44.8044067" lon="9.330445"><ele>968.0</ele><time>2026-04-26T08:38:39.012Z</time></trkpt><trkpt lat="44.8045867" lon="9.330645"><ele>963.0</ele><time>2026-04-26T08:38:40.012Z</time></trkpt><trkpt lat="44.80472" lon="9.3308317"><ele>958.0</ele><time>2026-04-26T08:38:41.012Z</time></trkpt><trkpt lat="44.8048433" lon="9.3309683"><ele>958.0</ele><time>2026-04-26T08:38:42.011Z</time></trkpt><trkpt lat="44.8049517" lon="9.3311"><ele>958.0</ele><time>2026-04-26T08:38:43.012Z</time></trkpt><trkpt lat="44.8050817" lon="9.3311683"><ele>958.0</ele><time>2026-04-26T08:38:44.012Z</time></trkpt><trkpt lat="44.8052117" lon="9.33124"><ele>958.0</ele><time>2026-04-26T08:38:45.011Z</time></trkpt><trkpt lat="44.80533" lon="9.3312617"><ele>955.0</ele><time>2026-04-26T08:38:46.011Z</time></trkpt><trkpt lat="44.80544" lon="9.3313033"><ele>952.0</ele><time>2026-04-26T08:38:47.011Z</time></trkpt><trkpt lat="44.8055583" lon="9.331355"><ele>949.0</ele><time>2026-04-26T08:38:48.011Z</time></trkpt><trkpt lat="44.8056067" lon="9.3315233"><ele>946.0</ele><time>2026-04-26T08:38:49.011Z</time></trkpt><trkpt lat="44.8056867" lon="9.331675"><ele>946.0</ele><time>2026-04-26T08:38:50.012Z</time></trkpt><trkpt lat="44.8057383" lon="9.3318433"><ele>946.0</ele><time>2026-04-26T08:38:51.012Z</time></trkpt><trkpt lat="44.805725" lon="9.3320617"><ele>946.0</ele><time>2026-04-26T08:38:52.011Z</time></trkpt><trkpt lat="44.8056967" lon="9.3322617"><ele>946.0</ele><time>2026-04-26T08:38:53.011Z</time></trkpt><trkpt lat="44.8056433" lon="9.33246"><ele>946.5</ele><time>2026-04-26T08:38:54.011Z</time></trkpt><trkpt lat="44.8055333" lon="9.3326667"><ele>947.0</ele><time>2026-04-26T08:38:55.011Z</time></trkpt><trkpt lat="44.8054533" lon="9.332845"><ele>947.5</ele><time>2026-04-26T08:38:56.012Z</time></trkpt><trkpt lat="44.8054167" lon="9.3329733"><ele>948.0</ele><time>2026-04-26T08:38:57.012Z</time></trkpt><trkpt lat="44.80537" lon="9.3331267"><ele>948.5</ele><time>2026-04-26T08:38:58.012Z</time></trkpt><trkpt lat="44.8053833" lon="9.333275"><ele>949.0</ele><time>2026-04-26T08:38:59.011Z</time></trkpt><trkpt lat="44.8054533" lon="9.33339"><ele>949.5</ele><time>2026-04-26T08:39:00.012Z</time></trkpt><trkpt lat="44.805635" lon="9.333485"><ele>950.0</ele><time>2026-04-26T08:39:01.011Z</time></trkpt><trkpt lat="44.8057517" lon="9.3336"><ele>950.0</ele><time>2026-04-26T08:39:02.011Z</time></trkpt><trkpt lat="44.8059067" lon="9.3336933"><ele>950.0</ele><time>2026-04-26T08:39:03.012Z</time></trkpt><trkpt lat="44.806015" lon="9.3337917"><ele>950.0</ele><time>2026-04-26T08:39:04.011Z</time></trkpt><trkpt lat="44.8061167" lon="9.333905"><ele>950.0</ele><time>2026-04-26T08:39:05.012Z</time></trkpt><trkpt lat="44.806205" lon="9.3340367"><ele>949.5</ele><time>2026-04-26T08:39:06.011Z</time></trkpt><trkpt lat="44.80628" lon="9.3341783"><ele>949.0</ele><time>2026-04-26T08:39:07.011Z</time></trkpt><trkpt lat="44.8063783" lon="9.3343"><ele>948.5</ele><time>2026-04-26T08:39:08.012Z</time></trkpt><trkpt lat="44.80645" lon="9.3344367"><ele>948.0</ele><time>2026-04-26T08:39:09.011Z</time></trkpt><trkpt lat="44.806525" lon="9.3345733"><ele>948.0</ele><time>2026-04-26T08:39:10.011Z</time></trkpt><trkpt lat="44.80661" lon="9.3346917"><ele>948.0</ele><time>2026-04-26T08:39:11.012Z</time></trkpt><trkpt lat="44.8067017" lon="9.3347933"><ele>948.0</ele><time>2026-04-26T08:39:12.011Z</time></trkpt><trkpt lat="44.8067683" lon="9.334905"><ele>948.0</ele><time>2026-04-26T08:39:13.011Z</time></trkpt><trkpt lat="44.806825" lon="9.335015"><ele>948.0</ele><time>2026-04-26T08:39:14.011Z</time></trkpt><trkpt lat="44.80687" lon="9.3351267"><ele>948.0</ele><time>2026-04-26T08:39:15.012Z</time></trkpt><trkpt lat="44.8069033" lon="9.3352517"><ele>948.0</ele><time>2026-04-26T08:39:16.012Z</time></trkpt><trkpt lat="44.8068983" lon="9.3353917"><ele>948.0</ele><time>2026-04-26T08:39:17.012Z</time></trkpt><trkpt lat="44.8068667" lon="9.3355667"><ele>948.0</ele><time>2026-04-26T08:39:18.011Z</time></trkpt><trkpt lat="44.8068517" lon="9.33574"><ele>948.0</ele><time>2026-04-26T08:39:19.012Z</time></trkpt><trkpt lat="44.8067967" lon="9.3359417"><ele>952.0</ele><time>2026-04-26T08:39:20.012Z</time></trkpt><trkpt lat="44.8067317" lon="9.3361483"><ele>956.0</ele><time>2026-04-26T08:39:21.012Z</time></trkpt><trkpt lat="44.8066533" lon="9.33635"><ele>960.0</ele><time>2026-04-26T08:39:22.011Z</time></trkpt><trkpt lat="44.8066117" lon="9.3365517"><ele>960.0</ele><time>2026-04-26T08:39:23.011Z</time></trkpt><trkpt lat="44.80656" lon="9.3367783"><ele>960.0</ele><time>2026-04-26T08:39:24.011Z</time></trkpt><trkpt lat="44.8065367" lon="9.33697"><ele>960.0</ele><time>2026-04-26T08:39:25.012Z</time></trkpt><trkpt lat="44.8065433" lon="9.3371483"><ele>960.0</ele><time>2026-04-26T08:39:26.012Z</time></trkpt><trkpt lat="44.8065817" lon="9.3373217"><ele>962.25</ele><time>2026-04-26T08:39:27.012Z</time></trkpt><trkpt lat="44.8067033" lon="9.33744"><ele>964.5</ele><time>2026-04-26T08:39:28.011Z</time></trkpt><trkpt lat="44.806755" lon="9.3375817"><ele>966.75</ele><time>2026-04-26T08:39:29.011Z</time></trkpt><trkpt lat="44.8068117" lon="9.3377"><ele>969.0</ele><time>2026-04-26T08:39:30.011Z</time></trkpt><trkpt lat="44.8068733" lon="9.3377983"><ele>969.0</ele><time>2026-04-26T08:39:31.012Z</time></trkpt><trkpt lat="44.8069617" lon="9.3378683"><ele>969.0000000000001</ele><time>2026-04-26T08:39:32.012Z</time></trkpt><trkpt lat="44.8070583" lon="9.33791"><ele>969.0000000000001</ele><time>2026-04-26T08:39:33.011Z</time></trkpt><trkpt lat="44.8071333" lon="9.33798"><ele>969.0</ele><time>2026-04-26T08:39:34.011Z</time></trkpt><trkpt lat="44.8072417" lon="9.33802"><ele>969.0</ele><time>2026-04-26T08:39:35.011Z</time></trkpt><trkpt lat="44.8073783" lon="9.33804"><ele>968.0</ele><time>2026-04-26T08:39:36.011Z</time></trkpt><trkpt lat="44.807485" lon="9.3381217"><ele>967.0</ele><time>2026-04-26T08:39:37.011Z</time></trkpt><trkpt lat="44.807555" lon="9.3382217"><ele>966.0</ele><time>2026-04-26T08:39:38.012Z</time></trkpt><trkpt lat="44.807635" lon="9.3383333"><ele>965.0</ele><time>2026-04-26T08:39:39.012Z</time></trkpt><trkpt lat="44.8077067" lon="9.3385317"><ele>965.0</ele><time>2026-04-26T08:39:40.012Z</time></trkpt><trkpt lat="44.8077817" lon="9.338675"><ele>965.0</ele><time>2026-04-26T08:39:41.011Z</time></trkpt><trkpt lat="44.8078417" lon="9.3388233"><ele>965.0</ele><time>2026-04-26T08:39:42.011Z</time></trkpt><trkpt lat="44.8079033" lon="9.3389917"><ele>965.0</ele><time>2026-04-26T08:39:43.011Z</time></trkpt><trkpt lat="44.808015" lon="9.3391383"><ele>966.4</ele><time>2026-04-26T08:39:44.012Z</time></trkpt><trkpt lat="44.8080833" lon="9.3392967"><ele>967.8</ele><time>2026-04-26T08:39:45.011Z</time></trkpt><trkpt lat="44.808115" lon="9.33944"><ele>969.2</ele><time>2026-04-26T08:39:46.012Z</time></trkpt><trkpt lat="44.80813" lon="9.3395683"><ele>970.6</ele><time>2026-04-26T08:39:47.011Z</time></trkpt><trkpt lat="44.8081217" lon="9.3396833"><ele>972.0</ele><time>2026-04-26T08:39:48.012Z</time></trkpt><trkpt lat="44.8080867" lon="9.339765"><ele>972.0</ele><time>2026-04-26T08:39:49.011Z</time></trkpt><trkpt lat="44.807935" lon="9.3397017"><ele>972.0</ele><time>2026-04-26T08:39:50.011Z</time></trkpt><trkpt lat="44.8078717" lon="9.3397183"><ele>972.0</ele><time>2026-04-26T08:39:51.011Z</time></trkpt><trkpt lat="44.8077967" lon="9.33968"><ele>972.0</ele><time>2026-04-26T08:39:52.011Z</time></trkpt><trkpt lat="44.8076617" lon="9.339445"><ele>975.25</ele><time>2026-04-26T08:39:53.011Z</time></trkpt><trkpt lat="44.807565" lon="9.3392833"><ele>978.5</ele><time>2026-04-26T08:39:54.012Z</time></trkpt><trkpt lat="44.8074667" lon="9.33916"><ele>981.75</ele><time>2026-04-26T08:39:55.011Z</time></trkpt><trkpt lat="44.8073767" lon="9.3390383"><ele>985.0</ele><time>2026-04-26T08:39:56.012Z</time></trkpt><trkpt lat="44.8072717" lon="9.338945"><ele>985.0</ele><time>2026-04-26T08:39:57.012Z</time></trkpt><trkpt lat="44.8071683" lon="9.3388967"><ele>985.0</ele><time>2026-04-26T08:39:58.012Z</time></trkpt><trkpt lat="44.80703" lon="9.3389633"><ele>985.0</ele><time>2026-04-26T08:39:59.011Z</time></trkpt><trkpt lat="44.8069133" lon="9.33899"><ele>985.0</ele><time>2026-04-26T08:40:00.012Z</time></trkpt><trkpt lat="44.806795" lon="9.339065"><ele>986.0</ele><time>2026-04-26T08:40:01.011Z</time></trkpt><trkpt lat="44.806685" lon="9.3391533"><ele>987.0</ele><time>2026-04-26T08:40:02.011Z</time></trkpt><trkpt lat="44.8065717" lon="9.3393167"><ele>988.0</ele><time>2026-04-26T08:40:03.011Z</time></trkpt><trkpt lat="44.8065483" lon="9.3394567"><ele>989.0</ele><time>2026-04-26T08:40:04.012Z</time></trkpt><trkpt lat="44.8065533" lon="9.3396033"><ele>989.0000000000001</ele><time>2026-04-26T08:40:05.011Z</time></trkpt><trkpt lat="44.8065183" lon="9.3397083"><ele>989.0</ele><time>2026-04-26T08:40:06.011Z</time></trkpt><trkpt lat="44.806515" lon="9.3398267"><ele>989.0</ele><time>2026-04-26T08:40:07.012Z</time></trkpt><trkpt lat="44.806545" lon="9.3399267"><ele>989.0</ele><time>2026-04-26T08:40:08.011Z</time></trkpt><trkpt lat="44.80657" lon="9.3400167"><ele>989.0000000000001</ele><time>2026-04-26T08:40:09.012Z</time></trkpt><trkpt lat="44.8066033" lon="9.3401133"><ele>989.0</ele><time>2026-04-26T08:40:10.012Z</time></trkpt><trkpt lat="44.8066383" lon="9.3402083"><ele>991.5</ele><time>2026-04-26T08:40:11.012Z</time></trkpt><trkpt lat="44.80676" lon="9.3403233"><ele>994.0</ele><time>2026-04-26T08:40:12.011Z</time></trkpt><trkpt lat="44.8068467" lon="9.3404383"><ele>996.5</ele><time>2026-04-26T08:40:13.012Z</time></trkpt><trkpt lat="44.8069417" lon="9.3405483"><ele>999.0</ele><time>2026-04-26T08:40:14.011Z</time></trkpt><trkpt lat="44.8070917" lon="9.3406383"><ele>1001.2</ele><time>2026-04-26T08:40:15.012Z</time></trkpt><trkpt lat="44.8071517" lon="9.3407433"><ele>1003.4000000000001</ele><time>2026-04-26T08:40:16.011Z</time></trkpt><trkpt lat="44.8072567" lon="9.3408517"><ele>1005.6</ele><time>2026-04-26T08:40:17.012Z</time></trkpt><trkpt lat="44.8073217" lon="9.3409683"><ele>1007.8</ele><time>2026-04-26T08:40:18.011Z</time></trkpt><trkpt lat="44.8073717" lon="9.3410933"><ele>1010.0</ele><time>2026-04-26T08:40:19.011Z</time></trkpt><trkpt lat="44.807455" lon="9.3412267"><ele>1010.0</ele><time>2026-04-26T08:40:20.011Z</time></trkpt><trkpt lat="44.8075583" lon="9.3413617"><ele>1010.0</ele><time>2026-04-26T08:40:21.011Z</time></trkpt><trkpt lat="44.8075983" lon="9.34152"><ele>1010.0</ele><time>2026-04-26T08:40:22.011Z</time></trkpt><trkpt lat="44.807655" lon="9.3416517"><ele>1010.0</ele><time>2026-04-26T08:40:23.012Z</time></trkpt><trkpt lat="44.8076783" lon="9.3417883"><ele>1010.8</ele><time>2026-04-26T08:40:24.012Z</time></trkpt><trkpt lat="44.8076883" lon="9.34189"><ele>1011.6</ele><time>2026-04-26T08:40:25.011Z</time></trkpt><trkpt lat="44.8076433" lon="9.3420083"><ele>1012.4000000000001</ele><time>2026-04-26T08:40:26.012Z</time></trkpt><trkpt lat="44.8076433" lon="9.3420983"><ele>1013.2</ele><time>2026-04-26T08:40:27.012Z</time></trkpt><trkpt lat="44.8075933" lon="9.3422417"><ele>1014.0</ele><time>2026-04-26T08:40:29.012Z</time></trkpt><trkpt lat="44.8074783" lon="9.342315"><ele>1016.25</ele><time>2026-04-26T08:40:30.011Z</time></trkpt><trkpt lat="44.8074" lon="9.34236"><ele>1018.5</ele><time>2026-04-26T08:40:31.012Z</time></trkpt><trkpt lat="44.8072867" lon="9.34238"><ele>1020.75</ele><time>2026-04-26T08:40:32.012Z</time></trkpt><trkpt lat="44.8071633" lon="9.34237"><ele>1023.0</ele><time>2026-04-26T08:40:33.012Z</time></trkpt><trkpt lat="44.807005" lon="9.3423483"><ele>1023.0</ele><time>2026-04-26T08:40:34.011Z</time></trkpt><trkpt lat="44.80691" lon="9.3423483"><ele>1023.0</ele><time>2026-04-26T08:40:35.011Z</time></trkpt><trkpt lat="44.806835" lon="9.34233"><ele>1023.0</ele><time>2026-04-26T08:40:36.011Z</time></trkpt><trkpt lat="44.8067367" lon="9.342295"><ele>1023.0</ele><time>2026-04-26T08:40:37.011Z</time></trkpt><trkpt lat="44.8065767" lon="9.3423067"><ele>1023.0</ele><time>2026-04-26T08:40:38.011Z</time></trkpt><trkpt lat="44.80646" lon="9.3423217"><ele>1022.8333333333334</ele><time>2026-04-26T08:40:39.011Z</time></trkpt><trkpt lat="44.8063683" lon="9.3422583"><ele>1022.6666666666667</ele><time>2026-04-26T08:40:40.011Z</time></trkpt><trkpt lat="44.806305" lon="9.342185"><ele>1022.5</ele><time>2026-04-26T08:40:41.012Z</time></trkpt><trkpt lat="44.8062333" lon="9.34209"><ele>1022.3333333333334</ele><time>2026-04-26T08:40:42.012Z</time></trkpt><trkpt lat="44.8061617" lon="9.3420183"><ele>1022.1666666666667</ele><time>2026-04-26T08:40:43.012Z</time></trkpt><trkpt lat="44.8061" lon="9.341975"><ele>1022.0</ele><time>2026-04-26T08:40:44.011Z</time></trkpt><trkpt lat="44.8060033" lon="9.34192"><ele>1026.25</ele><time>2026-04-26T08:40:45.011Z</time></trkpt><trkpt lat="44.8058817" lon="9.3418783"><ele>1030.5</ele><time>2026-04-26T08:40:46.012Z</time></trkpt><trkpt lat="44.80576" lon="9.34183"><ele>1034.75</ele><time>2026-04-26T08:40:47.011Z</time></trkpt><trkpt lat="44.805655" lon="9.3417933"><ele>1039.0</ele><time>2026-04-26T08:40:48.012Z</time></trkpt><trkpt lat="44.80556" lon="9.34176"><ele>1039.0</ele><time>2026-04-26T08:40:49.011Z</time></trkpt><trkpt lat="44.805475" lon="9.3417067"><ele>1039.0</ele><time>2026-04-26T08:40:50.012Z</time></trkpt><trkpt lat="44.8053783" lon="9.3417083"><ele>1039.0</ele><time>2026-04-26T08:40:51.011Z</time></trkpt><trkpt lat="44.805285" lon="9.34174"><ele>1039.0</ele><time>2026-04-26T08:40:52.011Z</time></trkpt><trkpt lat="44.8051933" lon="9.3417867"><ele>1039.0</ele><time>2026-04-26T08:40:53.012Z</time></trkpt><trkpt lat="44.8051167" lon="9.3418333"><ele>1038.0</ele><time>2026-04-26T08:40:54.012Z</time></trkpt><trkpt lat="44.804985" lon="9.3418983"><ele>1037.0</ele><time>2026-04-26T08:40:56.011Z</time></trkpt><trkpt lat="44.8048817" lon="9.341935"><ele>1036.0</ele><time>2026-04-26T08:40:57.011Z</time></trkpt><trkpt lat="44.8047783" lon="9.3419333"><ele>1035.0</ele><time>2026-04-26T08:40:58.012Z</time></trkpt><trkpt lat="44.8046933" lon="9.3419217"><ele>1034.0</ele><time>2026-04-26T08:40:59.012Z</time></trkpt><trkpt lat="44.804595" lon="9.3418817"><ele>1034.0</ele><time>2026-04-26T08:41:00.012Z</time></trkpt><trkpt lat="44.804505" lon="9.3418333"><ele>1034.0</ele><time>2026-04-26T08:41:01.012Z</time></trkpt><trkpt lat="44.804445" lon="9.3417783"><ele>1034.0</ele><time>2026-04-26T08:41:02.011Z</time></trkpt><trkpt lat="44.8043767" lon="9.34164"><ele>1034.0</ele><time>2026-04-26T08:41:04.012Z</time></trkpt><trkpt lat="44.804355" lon="9.3414717"><ele>1034.0</ele><time>2026-04-26T08:41:06.011Z</time></trkpt><trkpt lat="44.8042933" lon="9.3413867"><ele>1034.0</ele><time>2026-04-26T08:41:08.012Z</time></trkpt><trkpt lat="44.8042267" lon="9.3415317"><ele>1034.0</ele><time>2026-04-26T08:41:11.011Z</time></trkpt><trkpt lat="44.8042067" lon="9.3416233"><ele>1034.0</ele><time>2026-04-26T08:41:12.012Z</time></trkpt><trkpt lat="44.8042033" lon="9.3417267"><ele>1034.0</ele><time>2026-04-26T08:41:13.012Z</time></trkpt><trkpt lat="44.80423" lon="9.3418883"><ele>1034.0</ele><time>2026-04-26T08:41:14.012Z</time></trkpt><trkpt lat="44.80433" lon="9.3421517"><ele>1031.6666666666667</ele><time>2026-04-26T08:41:16.012Z</time></trkpt><trkpt lat="44.8044317" lon="9.3423217"><ele>1029.3333333333333</ele><time>2026-04-26T08:41:17.011Z</time></trkpt><trkpt lat="44.8045367" lon="9.3425067"><ele>1027.0</ele><time>2026-04-26T08:41:18.011Z</time></trkpt><trkpt lat="44.8046217" lon="9.3426817"><ele>1027.0</ele><time>2026-04-26T08:41:19.012Z</time></trkpt><trkpt lat="44.80465" lon="9.3428567"><ele>1027.0</ele><time>2026-04-26T08:41:20.012Z</time></trkpt><trkpt lat="44.8046617" lon="9.3430083"><ele>1027.0</ele><time>2026-04-26T08:41:21.011Z</time></trkpt><trkpt lat="44.8046717" lon="9.3431583"><ele>1027.0</ele><time>2026-04-26T08:41:22.011Z</time></trkpt><trkpt lat="44.8045433" lon="9.3433267"><ele>1026.75</ele><time>2026-04-26T08:41:23.011Z</time></trkpt><trkpt lat="44.8044333" lon="9.3434483"><ele>1026.5</ele><time>2026-04-26T08:41:24.011Z</time></trkpt><trkpt lat="44.8043033" lon="9.343575"><ele>1026.25</ele><time>2026-04-26T08:41:25.011Z</time></trkpt><trkpt lat="44.8041733" lon="9.34367"><ele>1026.0</ele><time>2026-04-26T08:41:26.011Z</time></trkpt><trkpt lat="44.8040217" lon="9.3437817"><ele>1021.0</ele><time>2026-04-26T08:41:27.012Z</time></trkpt><trkpt lat="44.8039283" lon="9.3439067"><ele>1016.0</ele><time>2026-04-26T08:41:28.012Z</time></trkpt><trkpt lat="44.8038567" lon="9.344055"><ele>1011.0</ele><time>2026-04-26T08:41:29.011Z</time></trkpt><trkpt lat="44.8037817" lon="9.3442"><ele>1006.0</ele><time>2026-04-26T08:41:30.012Z</time></trkpt><trkpt lat="44.80372" lon="9.3443267"><ele>1006.0</ele><time>2026-04-26T08:41:31.011Z</time></trkpt><trkpt lat="44.80367" lon="9.3444433"><ele>1005.9999999999999</ele><time>2026-04-26T08:41:32.012Z</time></trkpt><trkpt lat="44.8036367" lon="9.34454"><ele>1005.9999999999999</ele><time>2026-04-26T08:41:33.011Z</time></trkpt><trkpt lat="44.8036767" lon="9.34469"><ele>1006.0</ele><time>2026-04-26T08:41:35.011Z</time></trkpt><trkpt lat="44.80379" lon="9.344765"><ele>1006.0</ele><time>2026-04-26T08:41:36.012Z</time></trkpt><trkpt lat="44.8039017" lon="9.3448133"><ele>1004.0</ele><time>2026-04-26T08:41:37.012Z</time></trkpt><trkpt lat="44.8040117" lon="9.344875"><ele>1002.0</ele><time>2026-04-26T08:41:38.012Z</time></trkpt><trkpt lat="44.80408" lon="9.344965"><ele>1000.0</ele><time>2026-04-26T08:41:39.011Z</time></trkpt><trkpt lat="44.8041483" lon="9.3451017"><ele>998.0</ele><time>2026-04-26T08:41:40.011Z</time></trkpt><trkpt lat="44.8042017" lon="9.345255"><ele>998.0</ele><time>2026-04-26T08:41:41.012Z</time></trkpt><trkpt lat="44.8042233" lon="9.3454233"><ele>998.0</ele><time>2026-04-26T08:41:42.012Z</time></trkpt><trkpt lat="44.80424" lon="9.3456117"><ele>998.0</ele><time>2026-04-26T08:41:43.012Z</time></trkpt><trkpt lat="44.8042683" lon="9.3458083"><ele>998.0</ele><time>2026-04-26T08:41:44.011Z</time></trkpt><trkpt lat="44.804315" lon="9.34601"><ele>995.0</ele><time>2026-04-26T08:41:45.011Z</time></trkpt><trkpt lat="44.8043783" lon="9.346155"><ele>992.0</ele><time>2026-04-26T08:41:46.011Z</time></trkpt><trkpt lat="44.80446" lon="9.34629"><ele>989.0</ele><time>2026-04-26T08:41:47.012Z</time></trkpt><trkpt lat="44.8045583" lon="9.346415"><ele>986.0</ele><time>2026-04-26T08:41:48.011Z</time></trkpt><trkpt lat="44.804675" lon="9.3465433"><ele>986.0</ele><time>2026-04-26T08:41:49.012Z</time></trkpt><trkpt lat="44.804785" lon="9.3466633"><ele>986.0</ele><time>2026-04-26T08:41:50.012Z</time></trkpt><trkpt lat="44.8049167" lon="9.3467633"><ele>986.0</ele><time>2026-04-26T08:41:51.011Z</time></trkpt><trkpt lat="44.8050483" lon="9.3468417"><ele>986.0</ele><time>2026-04-26T08:41:52.012Z</time></trkpt><trkpt lat="44.805185" lon="9.346905"><ele>991.0</ele><time>2026-04-26T08:41:53.011Z</time></trkpt><trkpt lat="44.8053333" lon="9.346955"><ele>996.0</ele><time>2026-04-26T08:41:54.011Z</time></trkpt><trkpt lat="44.8054967" lon="9.3469967"><ele>1001.0</ele><time>2026-04-26T08:41:55.012Z</time></trkpt><trkpt lat="44.8056533" lon="9.347035"><ele>1001.0</ele><time>2026-04-26T08:41:56.011Z</time></trkpt><trkpt lat="44.80579" lon="9.3470883"><ele>1001.0</ele><time>2026-04-26T08:41:57.012Z</time></trkpt><trkpt lat="44.8059267" lon="9.3471483"><ele>1001.0</ele><time>2026-04-26T08:41:58.011Z</time></trkpt><trkpt lat="44.80607" lon="9.3472417"><ele>1001.0</ele><time>2026-04-26T08:41:59.012Z</time></trkpt><trkpt lat="44.806215" lon="9.3473567"><ele>996.6666666666667</ele><time>2026-04-26T08:42:00.011Z</time></trkpt><trkpt lat="44.8063667" lon="9.3475"><ele>992.3333333333333</ele><time>2026-04-26T08:42:01.011Z</time></trkpt><trkpt lat="44.80651" lon="9.347635"><ele>988.0</ele><time>2026-04-26T08:42:02.011Z</time></trkpt><trkpt lat="44.8066333" lon="9.3477717"><ele>988.0</ele><time>2026-04-26T08:42:03.011Z</time></trkpt><trkpt lat="44.806745" lon="9.3479117"><ele>988.0</ele><time>2026-04-26T08:42:04.012Z</time></trkpt><trkpt lat="44.8068333" lon="9.34807"><ele>988.0</ele><time>2026-04-26T08:42:05.011Z</time></trkpt><trkpt lat="44.8069233" lon="9.3482067"><ele>988.0</ele><time>2026-04-26T08:42:06.011Z</time></trkpt><trkpt lat="44.806995" lon="9.3483683"><ele>992.0</ele><time>2026-04-26T08:42:07.012Z</time></trkpt><trkpt lat="44.8070367" lon="9.348565"><ele>996.0</ele><time>2026-04-26T08:42:08.011Z</time></trkpt><trkpt lat="44.8070483" lon="9.3487867"><ele>1000.0</ele><time>2026-04-26T08:42:09.011Z</time></trkpt><trkpt lat="44.80702" lon="9.3490483"><ele>1000.0</ele><time>2026-04-26T08:42:10.012Z</time></trkpt><trkpt lat="44.806875" lon="9.3494"><ele>1000.0</ele><time>2026-04-26T08:42:11.011Z</time></trkpt><trkpt lat="44.8067983" lon="9.3496683"><ele>992.25</ele><time>2026-04-26T08:42:12.011Z</time></trkpt><trkpt lat="44.80675" lon="9.3498617"><ele>984.5</ele><time>2026-04-26T08:42:13.011Z</time></trkpt><trkpt lat="44.8066833" lon="9.3500467"><ele>976.75</ele><time>2026-04-26T08:42:14.011Z</time></trkpt><trkpt lat="44.8066167" lon="9.3501633"><ele>969.0</ele><time>2026-04-26T08:42:15.012Z</time></trkpt><trkpt lat="44.8065233" lon="9.35027"><ele>969.0</ele><time>2026-04-26T08:42:16.011Z</time></trkpt><trkpt lat="44.8064067" lon="9.350355"><ele>969.0</ele><time>2026-04-26T08:42:17.012Z</time></trkpt><trkpt lat="44.80626" lon="9.3503933"><ele>969.0</ele><time>2026-04-26T08:42:18.011Z</time></trkpt><trkpt lat="44.8061217" lon="9.3504533"><ele>969.0</ele><time>2026-04-26T08:42:19.011Z</time></trkpt><trkpt lat="44.806045" lon="9.3505633"><ele>965.0</ele><time>2026-04-26T08:42:20.012Z</time></trkpt><trkpt lat="44.8059633" lon="9.3506733"><ele>961.0</ele><time>2026-04-26T08:42:21.011Z</time></trkpt><trkpt lat="44.8058983" lon="9.3508067"><ele>957.0</ele><time>2026-04-26T08:42:22.012Z</time></trkpt><trkpt lat="44.8058467" lon="9.3509667"><ele>953.0</ele><time>2026-04-26T08:42:23.011Z</time></trkpt><trkpt lat="44.8058017" lon="9.3511917"><ele>954.25</ele><time>2026-04-26T08:42:24.011Z</time></trkpt><trkpt lat="44.8057517" lon="9.3513933"><ele>955.5</ele><time>2026-04-26T08:42:25.011Z</time></trkpt><trkpt lat="44.8056933" lon="9.35155"><ele>956.75</ele><time>2026-04-26T08:42:26.012Z</time></trkpt><trkpt lat="44.8056433" lon="9.3517017"><ele>958.0</ele><time>2026-04-26T08:42:27.011Z</time></trkpt><trkpt lat="44.8055917" lon="9.351845"><ele>957.9999999999999</ele><time>2026-04-26T08:42:28.012Z</time></trkpt><trkpt lat="44.8055683" lon="9.351955"><ele>958.0</ele><time>2026-04-26T08:42:29.011Z</time></trkpt><trkpt lat="44.8055433" lon="9.3520633"><ele>958.0</ele><time>2026-04-26T08:42:30.012Z</time></trkpt><trkpt lat="44.8055433" lon="9.352165"><ele>958.0</ele><time>2026-04-26T08:42:32.012Z</time></trkpt><trkpt lat="44.8056" lon="9.3520367"><ele>957.9999999999999</ele><time>2026-04-26T08:42:33.011Z</time></trkpt><trkpt lat="44.8055983" lon="9.3519267"><ele>958.0</ele><time>2026-04-26T08:42:37.012Z</time></trkpt><trkpt lat="44.80556" lon="9.3517717"><ele>957.9999999999999</ele><time>2026-04-26T08:44:53.011Z</time></trkpt><trkpt lat="44.8056383" lon="9.3517333"><ele>958.0</ele><time>2026-04-26T08:49:14.012Z</time></trkpt><trkpt lat="44.80572" lon="9.3517583"><ele>958.0</ele><time>2026-04-26T08:49:17.011Z</time></trkpt><trkpt lat="44.8057183" lon="9.3518817"><ele>958.0</ele><time>2026-04-26T08:49:19.011Z</time></trkpt><trkpt lat="44.805715" lon="9.3519817"><ele>957.9999999999999</ele><time>2026-04-26T08:49:20.012Z</time></trkpt><trkpt lat="44.8057217" lon="9.3520933"><ele>958.0</ele><time>2026-04-26T08:49:21.011Z</time></trkpt><trkpt lat="44.8057333" lon="9.3522117"><ele>957.4</ele><time>2026-04-26T08:49:22.011Z</time></trkpt><trkpt lat="44.8057317" lon="9.3523533"><ele>956.8</ele><time>2026-04-26T08:49:23.012Z</time></trkpt><trkpt lat="44.8057483" lon="9.3525167"><ele>956.2</ele><time>2026-04-26T08:49:24.011Z</time></trkpt><trkpt lat="44.80575" lon="9.3526633"><ele>955.6</ele><time>2026-04-26T08:49:25.011Z</time></trkpt><trkpt lat="44.8057717" lon="9.3528067"><ele>955.0</ele><time>2026-04-26T08:49:26.012Z</time></trkpt><trkpt lat="44.80576" lon="9.3529683"><ele>953.75</ele><time>2026-04-26T08:49:27.011Z</time></trkpt><trkpt lat="44.8057583" lon="9.353105"><ele>952.5</ele><time>2026-04-26T08:49:28.011Z</time></trkpt><trkpt lat="44.805715" lon="9.3532567"><ele>951.25</ele><time>2026-04-26T08:49:29.012Z</time></trkpt><trkpt lat="44.805665" lon="9.3534017"><ele>950.0</ele><time>2026-04-26T08:49:30.012Z</time></trkpt><trkpt lat="44.805585" lon="9.3535683"><ele>950.0</ele><time>2026-04-26T08:49:31.011Z</time></trkpt><trkpt lat="44.8055267" lon="9.3537217"><ele>950.0</ele><time>2026-04-26T08:49:32.011Z</time></trkpt><trkpt lat="44.8054233" lon="9.353915"><ele>950.0</ele><time>2026-04-26T08:49:33.012Z</time></trkpt><trkpt lat="44.8052317" lon="9.3541567"><ele>948.0</ele><time>2026-04-26T08:49:34.012Z</time></trkpt><trkpt lat="44.8050717" lon="9.354355"><ele>946.0</ele><time>2026-04-26T08:49:35.011Z</time></trkpt><trkpt lat="44.804945" lon="9.35454"><ele>944.0</ele><time>2026-04-26T08:49:36.011Z</time></trkpt><trkpt lat="44.80482" lon="9.35472"><ele>944.0</ele><time>2026-04-26T08:49:37.012Z</time></trkpt><trkpt lat="44.8047233" lon="9.3548617"><ele>944.0</ele><time>2026-04-26T08:49:38.011Z</time></trkpt><trkpt lat="44.8046183" lon="9.3550267"><ele>944.0</ele><time>2026-04-26T08:49:39.012Z</time></trkpt><trkpt lat="44.8045433" lon="9.3551783"><ele>944.0</ele><time>2026-04-26T08:49:40.011Z</time></trkpt><trkpt lat="44.80454" lon="9.3553267"><ele>944.0</ele><time>2026-04-26T08:49:41.012Z</time></trkpt><trkpt lat="44.8045317" lon="9.3554717"><ele>944.0</ele><time>2026-04-26T08:49:42.012Z</time></trkpt><trkpt lat="44.8045067" lon="9.3556583"><ele>944.0</ele><time>2026-04-26T08:49:43.011Z</time></trkpt><trkpt lat="44.8044783" lon="9.355865"><ele>944.0</ele><time>2026-04-26T08:49:44.012Z</time></trkpt><trkpt lat="44.8044517" lon="9.3560183"><ele>945.2</ele><time>2026-04-26T08:49:45.011Z</time></trkpt><trkpt lat="44.8044367" lon="9.3561983"><ele>946.4000000000001</ele><time>2026-04-26T08:49:46.012Z</time></trkpt><trkpt lat="44.8043733" lon="9.35631"><ele>947.6</ele><time>2026-04-26T08:49:47.011Z</time></trkpt><trkpt lat="44.804325" lon="9.3564333"><ele>948.8</ele><time>2026-04-26T08:49:48.011Z</time></trkpt><trkpt lat="44.8042617" lon="9.3565333"><ele>950.0</ele><time>2026-04-26T08:49:49.012Z</time></trkpt><trkpt lat="44.8041683" lon="9.3566233"><ele>945.4</ele><time>2026-04-26T08:49:50.011Z</time></trkpt><trkpt lat="44.8040917" lon="9.35672"><ele>940.8</ele><time>2026-04-26T08:49:51.012Z</time></trkpt><trkpt lat="44.8040283" lon="9.3568417"><ele>936.2</ele><time>2026-04-26T08:49:52.011Z</time></trkpt><trkpt lat="44.80398" lon="9.3569733"><ele>931.6</ele><time>2026-04-26T08:49:53.011Z</time></trkpt><trkpt lat="44.8039817" lon="9.3571333"><ele>927.0</ele><time>2026-04-26T08:49:54.012Z</time></trkpt><trkpt lat="44.80399" lon="9.3572983"><ele>926.75</ele><time>2026-04-26T08:49:55.011Z</time></trkpt><trkpt lat="44.8039533" lon="9.3574633"><ele>926.5</ele><time>2026-04-26T08:49:56.012Z</time></trkpt><trkpt lat="44.8039133" lon="9.3576633"><ele>926.25</ele><time>2026-04-26T08:49:57.012Z</time></trkpt><trkpt lat="44.8038367" lon="9.3578583"><ele>926.0</ele><time>2026-04-26T08:49:58.012Z</time></trkpt><trkpt lat="44.8037583" lon="9.3580433"><ele>926.6666666666667</ele><time>2026-04-26T08:49:59.011Z</time></trkpt><trkpt lat="44.8036533" lon="9.3582283"><ele>927.3333333333333</ele><time>2026-04-26T08:50:00.012Z</time></trkpt><trkpt lat="44.803535" lon="9.358395"><ele>928.0</ele><time>2026-04-26T08:50:01.012Z</time></trkpt><trkpt lat="44.8034783" lon="9.3585383"><ele>926.0</ele><time>2026-04-26T08:50:02.012Z</time></trkpt><trkpt lat="44.80341" lon="9.3586933"><ele>924.0</ele><time>2026-04-26T08:50:03.012Z</time></trkpt><trkpt lat="44.8033633" lon="9.3588267"><ele>922.0</ele><time>2026-04-26T08:50:04.012Z</time></trkpt><trkpt lat="44.8032933" lon="9.3589267"><ele>920.0</ele><time>2026-04-26T08:50:05.012Z</time></trkpt><trkpt lat="44.8032067" lon="9.3589667"><ele>918.0</ele><time>2026-04-26T08:50:06.012Z</time></trkpt><trkpt lat="44.8031067" lon="9.35895"><ele>918.0</ele><time>2026-04-26T08:50:07.011Z</time></trkpt><trkpt lat="44.8029983" lon="9.3589"><ele>918.0</ele><time>2026-04-26T08:50:08.011Z</time></trkpt><trkpt lat="44.8028667" lon="9.3588333"><ele>918.0</ele><time>2026-04-26T08:50:09.011Z</time></trkpt><trkpt lat="44.8027317" lon="9.3587917"><ele>918.0</ele><time>2026-04-26T08:50:10.012Z</time></trkpt><trkpt lat="44.8025717" lon="9.3587517"><ele>909.6666666666667</ele><time>2026-04-26T08:50:11.012Z</time></trkpt><trkpt lat="44.802405" lon="9.3587333"><ele>901.3333333333334</ele><time>2026-04-26T08:50:12.011Z</time></trkpt><trkpt lat="44.80223" lon="9.3587083"><ele>893.0</ele><time>2026-04-26T08:50:13.012Z</time></trkpt><trkpt lat="44.8020617" lon="9.3586967"><ele>893.0</ele><time>2026-04-26T08:50:14.012Z</time></trkpt><trkpt lat="44.801905" lon="9.3587117"><ele>893.0</ele><time>2026-04-26T08:50:15.011Z</time></trkpt><trkpt lat="44.801745" lon="9.358735"><ele>893.0</ele><time>2026-04-26T08:50:16.011Z</time></trkpt><trkpt lat="44.8016" lon="9.3587767"><ele>893.6666666666667</ele><time>2026-04-26T08:50:17.012Z</time></trkpt><trkpt lat="44.8014483" lon="9.3588617"><ele>894.3333333333333</ele><time>2026-04-26T08:50:18.011Z</time></trkpt><trkpt lat="44.8013217" lon="9.358975"><ele>895.0</ele><time>2026-04-26T08:50:19.011Z</time></trkpt><trkpt lat="44.8011833" lon="9.35904"><ele>895.0</ele><time>2026-04-26T08:50:20.012Z</time></trkpt><trkpt lat="44.80107" lon="9.3591667"><ele>895.0</ele><time>2026-04-26T08:50:21.011Z</time></trkpt><trkpt lat="44.80095" lon="9.3592733"><ele>895.0</ele><time>2026-04-26T08:50:22.011Z</time></trkpt><trkpt lat="44.8008733" lon="9.35937"><ele>895.0</ele><time>2026-04-26T08:50:23.011Z</time></trkpt><trkpt lat="44.8007617" lon="9.359455"><ele>893.25</ele><time>2026-04-26T08:50:24.012Z</time></trkpt><trkpt lat="44.80065" lon="9.3595317"><ele>891.5</ele><time>2026-04-26T08:50:25.011Z</time></trkpt><trkpt lat="44.800535" lon="9.3595867"><ele>889.75</ele><time>2026-04-26T08:50:26.012Z</time></trkpt><trkpt lat="44.800415" lon="9.35962"><ele>888.0</ele><time>2026-04-26T08:50:27.011Z</time></trkpt><trkpt lat="44.800295" lon="9.3596567"><ele>888.0</ele><time>2026-04-26T08:50:28.011Z</time></trkpt><trkpt lat="44.8001783" lon="9.359655"><ele>888.0</ele><time>2026-04-26T08:50:29.012Z</time></trkpt><trkpt lat="44.8000533" lon="9.3596567"><ele>888.0</ele><time>2026-04-26T08:50:30.011Z</time></trkpt><trkpt lat="44.7999333" lon="9.3597"><ele>888.0</ele><time>2026-04-26T08:50:31.012Z</time></trkpt><trkpt lat="44.7998133" lon="9.3597083"><ele>886.0</ele><time>2026-04-26T08:50:32.012Z</time></trkpt><trkpt lat="44.799725" lon="9.3597017"><ele>884.0</ele><time>2026-04-26T08:50:33.012Z</time></trkpt><trkpt lat="44.7996217" lon="9.3596967"><ele>882.0</ele><time>2026-04-26T08:50:34.012Z</time></trkpt><trkpt lat="44.7995267" lon="9.3596617"><ele>880.0</ele><time>2026-04-26T08:50:35.012Z</time></trkpt><trkpt lat="44.7994283" lon="9.3594933"><ele>878.0</ele><time>2026-04-26T08:50:36.011Z</time></trkpt><trkpt lat="44.7993183" lon="9.3594717"><ele>873.8</ele><time>2026-04-26T08:50:37.011Z</time></trkpt><trkpt lat="44.7992117" lon="9.3594167"><ele>869.5999999999999</ele><time>2026-04-26T08:50:38.011Z</time></trkpt><trkpt lat="44.7991117" lon="9.359385"><ele>865.4000000000001</ele><time>2026-04-26T08:50:39.012Z</time></trkpt><trkpt lat="44.7990383" lon="9.3593483"><ele>861.2</ele><time>2026-04-26T08:50:40.011Z</time></trkpt><trkpt lat="44.7990533" lon="9.3594683"><ele>857.0</ele><time>2026-04-26T08:50:43.012Z</time></trkpt><trkpt lat="44.7989733" lon="9.35951"><ele>857.0</ele><time>2026-04-26T08:50:44.011Z</time></trkpt><trkpt lat="44.7988967" lon="9.3595567"><ele>857.0</ele><time>2026-04-26T08:50:45.012Z</time></trkpt><trkpt lat="44.7988267" lon="9.3596417"><ele>857.0</ele><time>2026-04-26T08:50:46.011Z</time></trkpt><trkpt lat="44.7988417" lon="9.3598333"><ele>857.0</ele><time>2026-04-26T08:50:47.011Z</time></trkpt><trkpt lat="44.7988483" lon="9.3600183"><ele>857.0</ele><time>2026-04-26T08:50:48.012Z</time></trkpt><trkpt lat="44.7987933" lon="9.3601217"><ele>856.3333333333334</ele><time>2026-04-26T08:50:49.011Z</time></trkpt><trkpt lat="44.7987267" lon="9.36029"><ele>855.6666666666667</ele><time>2026-04-26T08:50:50.012Z</time></trkpt><trkpt lat="44.7987283" lon="9.3605583"><ele>855.0</ele><time>2026-04-26T08:50:51.011Z</time></trkpt><trkpt lat="44.7987067" lon="9.3608033"><ele>856.5</ele><time>2026-04-26T08:50:52.011Z</time></trkpt><trkpt lat="44.7986717" lon="9.3609917"><ele>858.0</ele><time>2026-04-26T08:50:53.011Z</time></trkpt><trkpt lat="44.7986733" lon="9.3612033"><ele>859.5</ele><time>2026-04-26T08:50:54.012Z</time></trkpt><trkpt lat="44.7986717" lon="9.36139"><ele>861.0</ele><time>2026-04-26T08:50:55.012Z</time></trkpt><trkpt lat="44.7986833" lon="9.3615633"><ele>861.0</ele><time>2026-04-26T08:50:56.011Z</time></trkpt><trkpt lat="44.79871" lon="9.361735"><ele>861.0</ele><time>2026-04-26T08:50:57.012Z</time></trkpt><trkpt lat="44.79872" lon="9.3619017"><ele>861.0</ele><time>2026-04-26T08:50:58.011Z</time></trkpt><trkpt lat="44.7987217" lon="9.3620533"><ele>861.0</ele><time>2026-04-26T08:50:59.011Z</time></trkpt><trkpt lat="44.7987217" lon="9.3622"><ele>861.4</ele><time>2026-04-26T08:51:00.012Z</time></trkpt><trkpt lat="44.7986583" lon="9.362255"><ele>861.8</ele><time>2026-04-26T08:51:01.012Z</time></trkpt><trkpt lat="44.798585" lon="9.3623083"><ele>862.1999999999999</ele><time>2026-04-26T08:51:02.011Z</time></trkpt><trkpt lat="44.7984783" lon="9.3623483"><ele>862.5999999999999</ele><time>2026-04-26T08:51:03.012Z</time></trkpt><trkpt lat="44.7983633" lon="9.3624017"><ele>863.0</ele><time>2026-04-26T08:51:04.011Z</time></trkpt><trkpt lat="44.7982367" lon="9.3624667"><ele>857.0</ele><time>2026-04-26T08:51:05.011Z</time></trkpt><trkpt lat="44.7981267" lon="9.3625733"><ele>851.0</ele><time>2026-04-26T08:51:06.011Z</time></trkpt><trkpt lat="44.7980067" lon="9.362715"><ele>845.0</ele><time>2026-04-26T08:51:07.011Z</time></trkpt><trkpt lat="44.7978983" lon="9.3628167"><ele>839.0</ele><time>2026-04-26T08:51:08.011Z</time></trkpt><trkpt lat="44.79783" lon="9.362965"><ele>840.75</ele><time>2026-04-26T08:51:09.011Z</time></trkpt><trkpt lat="44.79776" lon="9.3631117"><ele>842.5</ele><time>2026-04-26T08:51:10.012Z</time></trkpt><trkpt lat="44.7976933" lon="9.36325"><ele>844.25</ele><time>2026-04-26T08:51:11.012Z</time></trkpt><trkpt lat="44.7976433" lon="9.3633967"><ele>846.0</ele><time>2026-04-26T08:51:12.011Z</time></trkpt><trkpt lat="44.797595" lon="9.363525"><ele>842.4</ele><time>2026-04-26T08:51:13.011Z</time></trkpt><trkpt lat="44.79754" lon="9.36365"><ele>838.8</ele><time>2026-04-26T08:51:14.012Z</time></trkpt><trkpt lat="44.7974733" lon="9.3637533"><ele>835.1999999999999</ele><time>2026-04-26T08:51:15.012Z</time></trkpt><trkpt lat="44.79741" lon="9.3638517"><ele>831.5999999999999</ele><time>2026-04-26T08:51:16.012Z</time></trkpt><trkpt lat="44.797355" lon="9.3639417"><ele>828.0</ele><time>2026-04-26T08:51:17.012Z</time></trkpt><trkpt lat="44.79731" lon="9.3640133"><ele>828.0</ele><time>2026-04-26T08:51:18.011Z</time></trkpt><trkpt lat="44.7972517" lon="9.36407"><ele>828.0</ele><time>2026-04-26T08:51:20.012Z</time></trkpt><trkpt lat="44.79715" lon="9.3642533"><ele>828.0</ele><time>2026-04-26T08:52:23.011Z</time></trkpt><trkpt lat="44.7970817" lon="9.364375"><ele>828.0</ele><time>2026-04-26T08:52:24.011Z</time></trkpt><trkpt lat="44.7970167" lon="9.3645167"><ele>828.0</ele><time>2026-04-26T08:52:25.011Z</time></trkpt><trkpt lat="44.7969683" lon="9.3646617"><ele>828.0</ele><time>2026-04-26T08:52:26.012Z</time></trkpt><trkpt lat="44.796925" lon="9.36484"><ele>828.0</ele><time>2026-04-26T08:52:27.011Z</time></trkpt><trkpt lat="44.7968917" lon="9.3650483"><ele>828.0</ele><time>2026-04-26T08:52:28.011Z</time></trkpt><trkpt lat="44.79688" lon="9.3652683"><ele>827.75</ele><time>2026-04-26T08:52:29.011Z</time></trkpt><trkpt lat="44.79688" lon="9.3654567"><ele>827.5</ele><time>2026-04-26T08:52:30.011Z</time></trkpt><trkpt lat="44.7968583" lon="9.36561"><ele>827.25</ele><time>2026-04-26T08:52:31.011Z</time></trkpt><trkpt lat="44.79679" lon="9.365825"><ele>827.0</ele><time>2026-04-26T08:52:32.011Z</time></trkpt><trkpt lat="44.796705" lon="9.36603"><ele>818.3333333333334</ele><time>2026-04-26T08:52:33.012Z</time></trkpt><trkpt lat="44.7965983" lon="9.36623"><ele>809.6666666666667</ele><time>2026-04-26T08:52:34.011Z</time></trkpt><trkpt lat="44.7964783" lon="9.3664367"><ele>801.0</ele><time>2026-04-26T08:52:35.012Z</time></trkpt><trkpt lat="44.79632" lon="9.3666033"><ele>801.0</ele><time>2026-04-26T08:52:36.011Z</time></trkpt><trkpt lat="44.7961833" lon="9.366775"><ele>801.0</ele><time>2026-04-26T08:52:37.011Z</time></trkpt><trkpt lat="44.7960583" lon="9.3669417"><ele>801.0</ele><time>2026-04-26T08:52:38.012Z</time></trkpt><trkpt lat="44.7959133" lon="9.3670983"><ele>798.5</ele><time>2026-04-26T08:52:39.011Z</time></trkpt><trkpt lat="44.79579" lon="9.3672433"><ele>796.0</ele><time>2026-04-26T08:52:40.011Z</time></trkpt><trkpt lat="44.79568" lon="9.3673767"><ele>793.5</ele><time>2026-04-26T08:52:41.011Z</time></trkpt><trkpt lat="44.795585" lon="9.3675"><ele>791.0</ele><time>2026-04-26T08:52:42.012Z</time></trkpt><trkpt lat="44.7954867" lon="9.3676283"><ele>791.0</ele><time>2026-04-26T08:52:43.012Z</time></trkpt><trkpt lat="44.7953967" lon="9.3677717"><ele>791.0</ele><time>2026-04-26T08:52:44.011Z</time></trkpt><trkpt lat="44.79532" lon="9.3679583"><ele>791.0</ele><time>2026-04-26T08:52:45.011Z</time></trkpt><trkpt lat="44.7952717" lon="9.36814"><ele>791.0</ele><time>2026-04-26T08:52:46.011Z</time></trkpt><trkpt lat="44.7952517" lon="9.3683333"><ele>791.25</ele><time>2026-04-26T08:52:47.012Z</time></trkpt><trkpt lat="44.7952667" lon="9.3685333"><ele>791.5</ele><time>2026-04-26T08:52:48.011Z</time></trkpt><trkpt lat="44.7952917" lon="9.368715"><ele>791.75</ele><time>2026-04-26T08:52:49.012Z</time></trkpt><trkpt lat="44.79535" lon="9.368915"><ele>792.0</ele><time>2026-04-26T08:52:50.011Z</time></trkpt><trkpt lat="44.7954" lon="9.3690967"><ele>793.6</ele><time>2026-04-26T08:52:51.011Z</time></trkpt><trkpt lat="44.795435" lon="9.3692517"><ele>795.2</ele><time>2026-04-26T08:52:52.012Z</time></trkpt><trkpt lat="44.7954667" lon="9.369415"><ele>796.8</ele><time>2026-04-26T08:52:53.011Z</time></trkpt><trkpt lat="44.7954617" lon="9.36956"><ele>798.4</ele><time>2026-04-26T08:52:54.011Z</time></trkpt><trkpt lat="44.79544" lon="9.3697117"><ele>800.0</ele><time>2026-04-26T08:52:55.012Z</time></trkpt><trkpt lat="44.7954033" lon="9.3698567"><ele>800.75</ele><time>2026-04-26T08:52:56.011Z</time></trkpt><trkpt lat="44.795335" lon="9.3699667"><ele>801.5</ele><time>2026-04-26T08:52:57.012Z</time></trkpt><trkpt lat="44.7952383" lon="9.3700483"><ele>802.25</ele><time>2026-04-26T08:52:58.011Z</time></trkpt><trkpt lat="44.79511" lon="9.3700983"><ele>803.0</ele><time>2026-04-26T08:52:59.012Z</time></trkpt><trkpt lat="44.7949633" lon="9.3701517"><ele>793.3333333333334</ele><time>2026-04-26T08:53:00.011Z</time></trkpt><trkpt lat="44.7948117" lon="9.3702117"><ele>783.6666666666667</ele><time>2026-04-26T08:53:01.011Z</time></trkpt><trkpt lat="44.7946517" lon="9.3702567"><ele>774.0</ele><time>2026-04-26T08:53:02.011Z</time></trkpt><trkpt lat="44.7945" lon="9.37031"><ele>774.0</ele><time>2026-04-26T08:53:03.011Z</time></trkpt><trkpt lat="44.79436" lon="9.3703717"><ele>774.0</ele><time>2026-04-26T08:53:04.012Z</time></trkpt><trkpt lat="44.7942217" lon="9.3704317"><ele>774.0</ele><time>2026-04-26T08:53:05.011Z</time></trkpt><trkpt lat="44.7940683" lon="9.3704883"><ele>769.0</ele><time>2026-04-26T08:53:06.011Z</time></trkpt><trkpt lat="44.7939483" lon="9.3705683"><ele>764.0</ele><time>2026-04-26T08:53:07.012Z</time></trkpt><trkpt lat="44.7938367" lon="9.370635"><ele>759.0</ele><time>2026-04-26T08:53:08.011Z</time></trkpt><trkpt lat="44.7937433" lon="9.3706967"><ele>754.0</ele><time>2026-04-26T08:53:09.012Z</time></trkpt><trkpt lat="44.7936517" lon="9.3707467"><ele>754.0</ele><time>2026-04-26T08:53:10.012Z</time></trkpt><trkpt lat="44.79355" lon="9.37078"><ele>754.0</ele><time>2026-04-26T08:53:11.011Z</time></trkpt><trkpt lat="44.7934483" lon="9.3707617"><ele>754.0</ele><time>2026-04-26T08:53:12.011Z</time></trkpt><trkpt lat="44.7933967" lon="9.370645"><ele>754.0</ele><time>2026-04-26T08:53:13.012Z</time></trkpt><trkpt lat="44.7933683" lon="9.3705"><ele>754.0</ele><time>2026-04-26T08:53:14.011Z</time></trkpt><trkpt lat="44.7933567" lon="9.37035"><ele>753.5</ele><time>2026-04-26T08:53:15.011Z</time></trkpt><trkpt lat="44.793315" lon="9.3702483"><ele>753.0</ele><time>2026-04-26T08:53:16.012Z</time></trkpt><trkpt lat="44.7933583" lon="9.3700067"><ele>752.5</ele><time>2026-04-26T08:53:17.011Z</time></trkpt><trkpt lat="44.7933833" lon="9.3698033"><ele>752.0</ele><time>2026-04-26T08:53:18.011Z</time></trkpt><trkpt lat="44.7934167" lon="9.369565"><ele>751.3333333333333</ele><time>2026-04-26T08:53:19.011Z</time></trkpt><trkpt lat="44.793425" lon="9.3693383"><ele>750.6666666666666</ele><time>2026-04-26T08:53:20.011Z</time></trkpt><trkpt lat="44.7934367" lon="9.3690983"><ele>750.0</ele><time>2026-04-26T08:53:21.012Z</time></trkpt><trkpt lat="44.7934367" lon="9.3688817"><ele>749.0</ele><time>2026-04-26T08:53:22.011Z</time></trkpt><trkpt lat="44.79344" lon="9.3686633"><ele>748.0</ele><time>2026-04-26T08:53:23.011Z</time></trkpt><trkpt lat="44.7934417" lon="9.3684533"><ele>747.0</ele><time>2026-04-26T08:53:24.011Z</time></trkpt><trkpt lat="44.79345" lon="9.3682433"><ele>747.0</ele><time>2026-04-26T08:53:25.011Z</time></trkpt><trkpt lat="44.7934633" lon="9.3680317"><ele>747.0</ele><time>2026-04-26T08:53:26.011Z</time></trkpt><trkpt lat="44.7934733" lon="9.367825"><ele>747.0</ele><time>2026-04-26T08:53:27.011Z</time></trkpt><trkpt lat="44.7934917" lon="9.3676167"><ele>747.0</ele><time>2026-04-26T08:53:28.011Z</time></trkpt><trkpt lat="44.793515" lon="9.36741"><ele>749.0</ele><time>2026-04-26T08:53:29.011Z</time></trkpt><trkpt lat="44.7935583" lon="9.367225"><ele>751.0</ele><time>2026-04-26T08:53:30.012Z</time></trkpt><trkpt lat="44.793605" lon="9.3670317"><ele>753.0</ele><time>2026-04-26T08:53:31.012Z</time></trkpt><trkpt lat="44.7936533" lon="9.3668417"><ele>755.0</ele><time>2026-04-26T08:53:32.011Z</time></trkpt><trkpt lat="44.7936967" lon="9.366655"><ele>755.0</ele><time>2026-04-26T08:53:33.012Z</time></trkpt><trkpt lat="44.793725" lon="9.3664767"><ele>755.0</ele><time>2026-04-26T08:53:34.012Z</time></trkpt><trkpt lat="44.7937433" lon="9.3663"><ele>755.0</ele><time>2026-04-26T08:53:35.011Z</time></trkpt><trkpt lat="44.7937733" lon="9.3661333"><ele>755.0</ele><time>2026-04-26T08:53:36.011Z</time></trkpt><trkpt lat="44.7938267" lon="9.36598"><ele>753.5</ele><time>2026-04-26T08:53:37.011Z</time></trkpt><trkpt lat="44.7938967" lon="9.3658383"><ele>752.0</ele><time>2026-04-26T08:53:38.012Z</time></trkpt><trkpt lat="44.793965" lon="9.3656883"><ele>750.5</ele><time>2026-04-26T08:53:39.012Z</time></trkpt><trkpt lat="44.7940317" lon="9.3655367"><ele>749.0</ele><time>2026-04-26T08:53:40.011Z</time></trkpt><trkpt lat="44.7941067" lon="9.3653967"><ele>745.5</ele><time>2026-04-26T08:53:41.011Z</time></trkpt><trkpt lat="44.79416" lon="9.365225"><ele>742.0</ele><time>2026-04-26T08:53:42.011Z</time></trkpt><trkpt lat="44.794195" lon="9.3650367"><ele>738.5</ele><time>2026-04-26T08:53:43.012Z</time></trkpt><trkpt lat="44.7942183" lon="9.3648467"><ele>735.0</ele><time>2026-04-26T08:53:44.012Z</time></trkpt><trkpt lat="44.7942383" lon="9.3646617"><ele>733.5</ele><time>2026-04-26T08:53:45.012Z</time></trkpt><trkpt lat="44.7942383" lon="9.3644633"><ele>732.0</ele><time>2026-04-26T08:53:46.011Z</time></trkpt><trkpt lat="44.7942333" lon="9.3642767"><ele>730.5</ele><time>2026-04-26T08:53:47.011Z</time></trkpt><trkpt lat="44.7942183" lon="9.3640733"><ele>729.0</ele><time>2026-04-26T08:53:48.012Z</time></trkpt><trkpt lat="44.7941817" lon="9.3639"><ele>729.25</ele><time>2026-04-26T08:53:49.012Z</time></trkpt><trkpt lat="44.7941433" lon="9.363715"><ele>729.5</ele><time>2026-04-26T08:53:50.012Z</time></trkpt><trkpt lat="44.7941017" lon="9.3635267"><ele>729.75</ele><time>2026-04-26T08:53:51.012Z</time></trkpt><trkpt lat="44.7940533" lon="9.3633083"><ele>730.0</ele><time>2026-04-26T08:53:52.011Z</time></trkpt><trkpt lat="44.7940017" lon="9.36309"><ele>730.5</ele><time>2026-04-26T08:53:53.012Z</time></trkpt><trkpt lat="44.79395" lon="9.3628917"><ele>731.0</ele><time>2026-04-26T08:53:54.011Z</time></trkpt><trkpt lat="44.7939" lon="9.3626983"><ele>731.5</ele><time>2026-04-26T08:53:55.011Z</time></trkpt><trkpt lat="44.7938483" lon="9.362505"><ele>732.0</ele><time>2026-04-26T08:53:56.012Z</time></trkpt><trkpt lat="44.7938" lon="9.3623117"><ele>732.3333333333334</ele><time>2026-04-26T08:53:57.011Z</time></trkpt><trkpt lat="44.79374" lon="9.362105"><ele>732.6666666666667</ele><time>2026-04-26T08:53:58.011Z</time></trkpt><trkpt lat="44.7936783" lon="9.3618767"><ele>733.0</ele><time>2026-04-26T08:53:59.011Z</time></trkpt><trkpt lat="44.7936333" lon="9.3616917"><ele>733.0</ele><time>2026-04-26T08:54:00.012Z</time></trkpt><trkpt lat="44.7935917" lon="9.3614983"><ele>733.0</ele><time>2026-04-26T08:54:01.012Z</time></trkpt><trkpt lat="44.7935567" lon="9.3613133"><ele>733.0</ele><time>2026-04-26T08:54:02.011Z</time></trkpt><trkpt lat="44.793525" lon="9.3611367"><ele>733.0</ele><time>2026-04-26T08:54:03.011Z</time></trkpt><trkpt lat="44.793495" lon="9.3609717"><ele>731.5999999999999</ele><time>2026-04-26T08:54:04.011Z</time></trkpt><trkpt lat="44.7934583" lon="9.3608167"><ele>730.1999999999999</ele><time>2026-04-26T08:54:05.012Z</time></trkpt><trkpt lat="44.7934117" lon="9.360685"><ele>728.8</ele><time>2026-04-26T08:54:06.012Z</time></trkpt><trkpt lat="44.7933417" lon="9.36057"><ele>727.4</ele><time>2026-04-26T08:54:07.012Z</time></trkpt><trkpt lat="44.79326" lon="9.36049"><ele>726.0</ele><time>2026-04-26T08:54:08.011Z</time></trkpt><trkpt lat="44.793145" lon="9.36048"><ele>724.6666666666666</ele><time>2026-04-26T08:54:09.012Z</time></trkpt><trkpt lat="44.7930283" lon="9.3605483"><ele>723.3333333333333</ele><time>2026-04-26T08:54:10.011Z</time></trkpt><trkpt lat="44.7928967" lon="9.36068"><ele>722.0</ele><time>2026-04-26T08:54:11.011Z</time></trkpt><trkpt lat="44.792775" lon="9.3608667"><ele>722.0</ele><time>2026-04-26T08:54:12.012Z</time></trkpt><trkpt lat="44.7927017" lon="9.361025"><ele>722.0</ele><time>2026-04-26T08:54:13.012Z</time></trkpt><trkpt lat="44.7926183" lon="9.361195"><ele>722.0</ele><time>2026-04-26T08:54:14.011Z</time></trkpt><trkpt lat="44.7925033" lon="9.361335"><ele>722.0</ele><time>2026-04-26T08:54:15.012Z</time></trkpt><trkpt lat="44.7924017" lon="9.3614617"><ele>719.75</ele><time>2026-04-26T08:54:16.012Z</time></trkpt><trkpt lat="44.79231" lon="9.361575"><ele>717.5</ele><time>2026-04-26T08:54:17.012Z</time></trkpt><trkpt lat="44.7922067" lon="9.3616617"><ele>715.25</ele><time>2026-04-26T08:54:18.011Z</time></trkpt><trkpt lat="44.7921017" lon="9.3617267"><ele>713.0</ele><time>2026-04-26T08:54:19.011Z</time></trkpt><trkpt lat="44.791985" lon="9.361745"><ele>713.0</ele><time>2026-04-26T08:54:20.012Z</time></trkpt><trkpt lat="44.7918783" lon="9.36175"><ele>713.0</ele><time>2026-04-26T08:54:21.012Z</time></trkpt><trkpt lat="44.7917517" lon="9.36165"><ele>713.0</ele><time>2026-04-26T08:54:22.012Z</time></trkpt><trkpt lat="44.7916217" lon="9.36151"><ele>713.0</ele><time>2026-04-26T08:54:23.011Z</time></trkpt><trkpt lat="44.79151" lon="9.3613683"><ele>712.0</ele><time>2026-04-26T08:54:24.011Z</time></trkpt><trkpt lat="44.7914167" lon="9.3612317"><ele>711.0</ele><time>2026-04-26T08:54:25.012Z</time></trkpt><trkpt lat="44.7913233" lon="9.3610883"><ele>710.0</ele><time>2026-04-26T08:54:26.012Z</time></trkpt><trkpt lat="44.791235" lon="9.3609267"><ele>709.0</ele><time>2026-04-26T08:54:27.012Z</time></trkpt><trkpt lat="44.7911583" lon="9.360725"><ele>709.0</ele><time>2026-04-26T08:54:28.011Z</time></trkpt><trkpt lat="44.7910783" lon="9.3605383"><ele>709.0</ele><time>2026-04-26T08:54:29.011Z</time></trkpt><trkpt lat="44.7910083" lon="9.3603467"><ele>709.0</ele><time>2026-04-26T08:54:30.011Z</time></trkpt><trkpt lat="44.7909567" lon="9.3601567"><ele>706.75</ele><time>2026-04-26T08:54:31.011Z</time></trkpt><trkpt lat="44.7909" lon="9.3599633"><ele>704.5</ele><time>2026-04-26T08:54:32.012Z</time></trkpt><trkpt lat="44.7908333" lon="9.3597917"><ele>702.25</ele><time>2026-04-26T08:54:33.011Z</time></trkpt><trkpt lat="44.7907483" lon="9.3596317"><ele>700.0</ele><time>2026-04-26T08:54:34.011Z</time></trkpt><trkpt lat="44.7906517" lon="9.3594867"><ele>700.0</ele><time>2026-04-26T08:54:35.012Z</time></trkpt><trkpt lat="44.790565" lon="9.3593617"><ele>700.0</ele><time>2026-04-26T08:54:36.012Z</time></trkpt><trkpt lat="44.790475" lon="9.3592383"><ele>700.0</ele><time>2026-04-26T08:54:37.011Z</time></trkpt><trkpt lat="44.7903783" lon="9.3590883"><ele>700.0</ele><time>2026-04-26T08:54:38.01Z</time></trkpt><trkpt lat="44.7902767" lon="9.3589333"><ele>696.3333333333334</ele><time>2026-04-26T08:54:39.01Z</time></trkpt><trkpt lat="44.7901733" lon="9.3587767"><ele>692.6666666666666</ele><time>2026-04-26T08:54:40.011Z</time></trkpt><trkpt lat="44.7900583" lon="9.35863"><ele>689.0</ele><time>2026-04-26T08:54:41.01Z</time></trkpt><trkpt lat="44.78993" lon="9.3584933"><ele>689.0</ele><time>2026-04-26T08:54:42.01Z</time></trkpt><trkpt lat="44.7898017" lon="9.3583833"><ele>689.0</ele><time>2026-04-26T08:54:43.011Z</time></trkpt><trkpt lat="44.7896667" lon="9.3583017"><ele>689.0</ele><time>2026-04-26T08:54:44.01Z</time></trkpt><trkpt lat="44.7895383" lon="9.3582417"><ele>689.0</ele><time>2026-04-26T08:54:45.01Z</time></trkpt><trkpt lat="44.7894117" lon="9.3582083"><ele>686.25</ele><time>2026-04-26T08:54:46.011Z</time></trkpt><trkpt lat="44.78927" lon="9.3582317"><ele>683.5</ele><time>2026-04-26T08:54:47.011Z</time></trkpt><trkpt lat="44.7891333" lon="9.3583017"><ele>680.75</ele><time>2026-04-26T08:54:48.011Z</time></trkpt><trkpt lat="44.789" lon="9.3583733"><ele>678.0</ele><time>2026-04-26T08:54:49.01Z</time></trkpt><trkpt lat="44.78886" lon="9.3584483"><ele>678.0</ele><time>2026-04-26T08:54:50.011Z</time></trkpt><trkpt lat="44.7887217" lon="9.3585283"><ele>678.0</ele><time>2026-04-26T08:54:51.01Z</time></trkpt><trkpt lat="44.7885967" lon="9.358585"><ele>678.0</ele><time>2026-04-26T08:54:52.011Z</time></trkpt><trkpt lat="44.7884733" lon="9.358635"><ele>678.0</ele><time>2026-04-26T08:54:53.01Z</time></trkpt><trkpt lat="44.7883483" lon="9.35865"><ele>676.25</ele><time>2026-04-26T08:54:54.01Z</time></trkpt><trkpt lat="44.7882083" lon="9.3586283"><ele>674.5</ele><time>2026-04-26T08:54:55.01Z</time></trkpt><trkpt lat="44.7881033" lon="9.3585867"><ele>672.75</ele><time>2026-04-26T08:54:56.01Z</time></trkpt><trkpt lat="44.7880033" lon="9.3585533"><ele>671.0</ele><time>2026-04-26T08:54:57.01Z</time></trkpt><trkpt lat="44.7879067" lon="9.3584883"><ele>671.0</ele><time>2026-04-26T08:54:58.01Z</time></trkpt><trkpt lat="44.7878217" lon="9.3583767"><ele>671.0</ele><time>2026-04-26T08:54:59.01Z</time></trkpt><trkpt lat="44.7877483" lon="9.3582167"><ele>671.0</ele><time>2026-04-26T08:55:00.01Z</time></trkpt><trkpt lat="44.7877083" lon="9.358025"><ele>671.0</ele><time>2026-04-26T08:55:01.01Z</time></trkpt><trkpt lat="44.78765" lon="9.3578567"><ele>667.25</ele><time>2026-04-26T08:55:02.011Z</time></trkpt><trkpt lat="44.7876183" lon="9.3576767"><ele>663.5</ele><time>2026-04-26T08:55:03.011Z</time></trkpt><trkpt lat="44.7875983" lon="9.3574817"><ele>659.75</ele><time>2026-04-26T08:55:04.011Z</time></trkpt><trkpt lat="44.7876" lon="9.35729"><ele>656.0</ele><time>2026-04-26T08:55:05.011Z</time></trkpt><trkpt lat="44.7876033" lon="9.3570983"><ele>655.0</ele><time>2026-04-26T08:55:06.011Z</time></trkpt><trkpt lat="44.787605" lon="9.356895"><ele>654.0</ele><time>2026-04-26T08:55:07.01Z</time></trkpt><trkpt lat="44.7875917" lon="9.3566733"><ele>653.0</ele><time>2026-04-26T08:55:08.01Z</time></trkpt><trkpt lat="44.7875733" lon="9.3564633"><ele>653.0</ele><time>2026-04-26T08:55:09.011Z</time></trkpt><trkpt lat="44.7875533" lon="9.356265"><ele>653.0</ele><time>2026-04-26T08:55:10.011Z</time></trkpt><trkpt lat="44.7875333" lon="9.35607"><ele>653.0</ele><time>2026-04-26T08:55:11.011Z</time></trkpt><trkpt lat="44.78752" lon="9.355875"><ele>653.0</ele><time>2026-04-26T08:55:12.01Z</time></trkpt><trkpt lat="44.7875033" lon="9.35569"><ele>653.0</ele><time>2026-04-26T08:55:13.01Z</time></trkpt><trkpt lat="44.7874783" lon="9.3555383"><ele>653.0</ele><time>2026-04-26T08:55:14.011Z</time></trkpt><trkpt lat="44.78744" lon="9.355415"><ele>653.0</ele><time>2026-04-26T08:55:15.011Z</time></trkpt><trkpt lat="44.78734" lon="9.3553483"><ele>653.0</ele><time>2026-04-26T08:55:16.01Z</time></trkpt><trkpt lat="44.7872283" lon="9.355335"><ele>653.0</ele><time>2026-04-26T08:55:17.011Z</time></trkpt><trkpt lat="44.7870983" lon="9.3553617"><ele>653.5</ele><time>2026-04-26T08:55:18.011Z</time></trkpt><trkpt lat="44.7869433" lon="9.355425"><ele>654.0</ele><time>2026-04-26T08:55:19.01Z</time></trkpt><trkpt lat="44.786805" lon="9.3555067"><ele>654.5</ele><time>2026-04-26T08:55:20.01Z</time></trkpt><trkpt lat="44.7867" lon="9.35556"><ele>655.0</ele><time>2026-04-26T08:55:21.011Z</time></trkpt><trkpt lat="44.7865667" lon="9.355635"><ele>651.25</ele><time>2026-04-26T08:55:22.011Z</time></trkpt><trkpt lat="44.7864333" lon="9.3556933"><ele>647.5</ele><time>2026-04-26T08:55:23.01Z</time></trkpt><trkpt lat="44.7863" lon="9.3557567"><ele>643.75</ele><time>2026-04-26T08:55:24.011Z</time></trkpt><trkpt lat="44.7861783" lon="9.355815"><ele>640.0</ele><time>2026-04-26T08:55:25.01Z</time></trkpt><trkpt lat="44.78606" lon="9.3558733"><ele>638.5</ele><time>2026-04-26T08:55:26.011Z</time></trkpt><trkpt lat="44.7859367" lon="9.3559567"><ele>637.0</ele><time>2026-04-26T08:55:27.01Z</time></trkpt><trkpt lat="44.7858333" lon="9.3560517"><ele>635.5</ele><time>2026-04-26T08:55:28.011Z</time></trkpt><trkpt lat="44.78575" lon="9.3561717"><ele>634.0</ele><time>2026-04-26T08:55:29.01Z</time></trkpt><trkpt lat="44.78567" lon="9.3563133"><ele>633.0</ele><time>2026-04-26T08:55:30.011Z</time></trkpt><trkpt lat="44.785595" lon="9.3564483"><ele>632.0</ele><time>2026-04-26T08:55:31.01Z</time></trkpt><trkpt lat="44.78552" lon="9.3565917"><ele>631.0</ele><time>2026-04-26T08:55:32.011Z</time></trkpt><trkpt lat="44.7854267" lon="9.3567217"><ele>630.0</ele><time>2026-04-26T08:55:33.01Z</time></trkpt><trkpt lat="44.7853367" lon="9.356835"><ele>630.0</ele><time>2026-04-26T08:55:34.01Z</time></trkpt><trkpt lat="44.785225" lon="9.3569117"><ele>630.0</ele><time>2026-04-26T08:55:35.01Z</time></trkpt><trkpt lat="44.7851233" lon="9.3569783"><ele>630.0</ele><time>2026-04-26T08:55:36.011Z</time></trkpt><trkpt lat="44.7850233" lon="9.357035"><ele>630.0</ele><time>2026-04-26T08:55:37.01Z</time></trkpt><trkpt lat="44.7849217" lon="9.35708"><ele>628.6</ele><time>2026-04-26T08:55:38.011Z</time></trkpt><trkpt lat="44.7848217" lon="9.3571033"><ele>627.2</ele><time>2026-04-26T08:55:39.01Z</time></trkpt><trkpt lat="44.78472" lon="9.357085"><ele>625.8</ele><time>2026-04-26T08:55:40.01Z</time></trkpt><trkpt lat="44.784635" lon="9.35704"><ele>624.4</ele><time>2026-04-26T08:55:41.01Z</time></trkpt><trkpt lat="44.7845667" lon="9.356905"><ele>623.0</ele><time>2026-04-26T08:55:42.01Z</time></trkpt><trkpt lat="44.784505" lon="9.3567767"><ele>623.0</ele><time>2026-04-26T08:55:43.01Z</time></trkpt><trkpt lat="44.78443" lon="9.3566633"><ele>623.0</ele><time>2026-04-26T08:55:44.011Z</time></trkpt><trkpt lat="44.7843383" lon="9.35657"><ele>623.0</ele><time>2026-04-26T08:55:45.01Z</time></trkpt><trkpt lat="44.7842333" lon="9.3565"><ele>623.0</ele><time>2026-04-26T08:55:46.01Z</time></trkpt><trkpt lat="44.7841233" lon="9.3564917"><ele>623.0</ele><time>2026-04-26T08:55:47.011Z</time></trkpt><trkpt lat="44.7840017" lon="9.3565017"><ele>622.0</ele><time>2026-04-26T08:55:48.011Z</time></trkpt><trkpt lat="44.7838583" lon="9.3565183"><ele>621.0</ele><time>2026-04-26T08:55:49.01Z</time></trkpt><trkpt lat="44.7837167" lon="9.356535"><ele>620.0</ele><time>2026-04-26T08:55:50.01Z</time></trkpt><trkpt lat="44.7835767" lon="9.356545"><ele>619.0</ele><time>2026-04-26T08:55:51.011Z</time></trkpt><trkpt lat="44.78344" lon="9.3565567"><ele>617.5</ele><time>2026-04-26T08:55:52.01Z</time></trkpt><trkpt lat="44.7833117" lon="9.3565417"><ele>616.0</ele><time>2026-04-26T08:55:53.01Z</time></trkpt><trkpt lat="44.7832067" lon="9.3564633"><ele>614.5</ele><time>2026-04-26T08:55:54.01Z</time></trkpt><trkpt lat="44.7831" lon="9.3563933"><ele>613.0</ele><time>2026-04-26T08:55:55.01Z</time></trkpt><trkpt lat="44.7830017" lon="9.356335"><ele>612.1999999999999</ele><time>2026-04-26T08:55:56.01Z</time></trkpt><trkpt lat="44.7829017" lon="9.3562933"><ele>611.4</ele><time>2026-04-26T08:55:57.011Z</time></trkpt><trkpt lat="44.7828183" lon="9.3562783"><ele>610.5999999999999</ele><time>2026-04-26T08:55:58.011Z</time></trkpt><trkpt lat="44.7827467" lon="9.35633"><ele>609.8</ele><time>2026-04-26T08:55:59.011Z</time></trkpt><trkpt lat="44.782675" lon="9.356415"><ele>609.0</ele><time>2026-04-26T08:56:00.011Z</time></trkpt><trkpt lat="44.7826167" lon="9.35652"><ele>610.0</ele><time>2026-04-26T08:56:01.01Z</time></trkpt><trkpt lat="44.78261" lon="9.3566517"><ele>611.0</ele><time>2026-04-26T08:56:02.01Z</time></trkpt><trkpt lat="44.78261" lon="9.3568083"><ele>612.0</ele><time>2026-04-26T08:56:03.011Z</time></trkpt><trkpt lat="44.7827117" lon="9.3569817"><ele>613.0</ele><time>2026-04-26T08:56:04.01Z</time></trkpt><trkpt lat="44.78281" lon="9.3571417"><ele>611.25</ele><time>2026-04-26T08:56:05.01Z</time></trkpt><trkpt lat="44.7828933" lon="9.357285"><ele>609.5</ele><time>2026-04-26T08:56:06.01Z</time></trkpt><trkpt lat="44.7829717" lon="9.3574117"><ele>607.75</ele><time>2026-04-26T08:56:07.01Z</time></trkpt><trkpt lat="44.7830517" lon="9.3575267"><ele>606.0</ele><time>2026-04-26T08:56:08.011Z</time></trkpt><trkpt lat="44.78311" lon="9.3576217"><ele>606.0</ele><time>2026-04-26T08:56:09.011Z</time></trkpt><trkpt lat="44.783115" lon="9.3577483"><ele>606.0</ele><time>2026-04-26T08:56:10.011Z</time></trkpt><trkpt lat="44.7830767" lon="9.3578583"><ele>606.0</ele><time>2026-04-26T08:56:11.011Z</time></trkpt><trkpt lat="44.78303" lon="9.3579667"><ele>606.0</ele><time>2026-04-26T08:56:12.011Z</time></trkpt><trkpt lat="44.7829383" lon="9.3580567"><ele>606.0</ele><time>2026-04-26T08:56:13.01Z</time></trkpt><trkpt lat="44.7828717" lon="9.3581217"><ele>604.2</ele><time>2026-04-26T08:56:14.01Z</time></trkpt><trkpt lat="44.782795" lon="9.3582067"><ele>602.4000000000001</ele><time>2026-04-26T08:56:15.011Z</time></trkpt><trkpt lat="44.7827117" lon="9.3583017"><ele>600.6</ele><time>2026-04-26T08:56:16.011Z</time></trkpt><trkpt lat="44.782635" lon="9.3583917"><ele>598.8000000000001</ele><time>2026-04-26T08:56:17.011Z</time></trkpt><trkpt lat="44.782565" lon="9.35849"><ele>597.0</ele><time>2026-04-26T08:56:18.01Z</time></trkpt><trkpt lat="44.782505" lon="9.358595"><ele>595.0</ele><time>2026-04-26T08:56:19.011Z</time></trkpt><trkpt lat="44.78246" lon="9.3587183"><ele>593.0</ele><time>2026-04-26T08:56:20.011Z</time></trkpt><trkpt lat="44.7824833" lon="9.3588517"><ele>591.0</ele><time>2026-04-26T08:56:21.01Z</time></trkpt><trkpt lat="44.78249" lon="9.3589867"><ele>589.0</ele><time>2026-04-26T08:56:22.01Z</time></trkpt><trkpt lat="44.7826433" lon="9.3591283"><ele>589.5</ele><time>2026-04-26T08:56:23.011Z</time></trkpt><trkpt lat="44.782705" lon="9.3592733"><ele>590.0</ele><time>2026-04-26T08:56:24.01Z</time></trkpt><trkpt lat="44.782755" lon="9.3594133"><ele>590.5</ele><time>2026-04-26T08:56:25.01Z</time></trkpt><trkpt lat="44.78283" lon="9.3595517"><ele>591.0</ele><time>2026-04-26T08:56:26.01Z</time></trkpt><trkpt lat="44.7828883" lon="9.3596817"><ele>589.2</ele><time>2026-04-26T08:56:27.01Z</time></trkpt><trkpt lat="44.78292" lon="9.359805"><ele>587.4000000000001</ele><time>2026-04-26T08:56:28.011Z</time></trkpt><trkpt lat="44.7829333" lon="9.35992"><ele>585.6</ele><time>2026-04-26T08:56:29.01Z</time></trkpt><trkpt lat="44.782905" lon="9.36003"><ele>583.8000000000001</ele><time>2026-04-26T08:56:30.011Z</time></trkpt><trkpt lat="44.7827917" lon="9.3600983"><ele>582.0</ele><time>2026-04-26T08:56:31.01Z</time></trkpt><trkpt lat="44.7827033" lon="9.3601417"><ele>580.5</ele><time>2026-04-26T08:56:32.01Z</time></trkpt><trkpt lat="44.7826017" lon="9.3601517"><ele>579.0</ele><time>2026-04-26T08:56:33.01Z</time></trkpt><trkpt lat="44.7825133" lon="9.36015"><ele>577.5</ele><time>2026-04-26T08:56:34.01Z</time></trkpt><trkpt lat="44.7823367" lon="9.36003"><ele>576.0</ele><time>2026-04-26T08:56:35.01Z</time></trkpt><trkpt lat="44.7821867" lon="9.3599583"><ele>576.0</ele><time>2026-04-26T08:56:36.011Z</time></trkpt><trkpt lat="44.7819967" lon="9.35984"><ele>576.0</ele><time>2026-04-26T08:56:37.01Z</time></trkpt><trkpt lat="44.781835" lon="9.3597533"><ele>576.0</ele><time>2026-04-26T08:56:38.011Z</time></trkpt><trkpt lat="44.7816683" lon="9.359685"><ele>574.6666666666666</ele><time>2026-04-26T08:56:39.01Z</time></trkpt><trkpt lat="44.7815033" lon="9.35961"><ele>573.3333333333333</ele><time>2026-04-26T08:56:40.01Z</time></trkpt><trkpt lat="44.7813417" lon="9.3595083"><ele>572.0</ele><time>2026-04-26T08:56:41.01Z</time></trkpt><trkpt lat="44.7812033" lon="9.359385"><ele>572.0</ele><time>2026-04-26T08:56:42.011Z</time></trkpt><trkpt lat="44.7810867" lon="9.3592267"><ele>572.0</ele><time>2026-04-26T08:56:43.01Z</time></trkpt><trkpt lat="44.7809617" lon="9.3590567"><ele>572.0</ele><time>2026-04-26T08:56:44.011Z</time></trkpt><trkpt lat="44.7808333" lon="9.3589217"><ele>571.0</ele><time>2026-04-26T08:56:45.011Z</time></trkpt><trkpt lat="44.780695" lon="9.3588317"><ele>570.0</ele><time>2026-04-26T08:56:46.01Z</time></trkpt><trkpt lat="44.780555" lon="9.3587517"><ele>569.0</ele><time>2026-04-26T08:56:47.01Z</time></trkpt><trkpt lat="44.7803983" lon="9.358675"><ele>569.0</ele><time>2026-04-26T08:56:48.01Z</time></trkpt><trkpt lat="44.7802667" lon="9.3585967"><ele>569.0</ele><time>2026-04-26T08:56:49.01Z</time></trkpt><trkpt lat="44.78015" lon="9.358485"><ele>569.0</ele><time>2026-04-26T08:56:50.01Z</time></trkpt><trkpt lat="44.78006" lon="9.3583317"><ele>569.0</ele><time>2026-04-26T08:56:51.01Z</time></trkpt><trkpt lat="44.7799867" lon="9.3581317"><ele>565.3333333333333</ele><time>2026-04-26T08:56:52.01Z</time></trkpt><trkpt lat="44.779905" lon="9.3579233"><ele>561.6666666666666</ele><time>2026-04-26T08:56:53.011Z</time></trkpt><trkpt lat="44.77984" lon="9.3577217"><ele>558.0</ele><time>2026-04-26T08:56:54.01Z</time></trkpt><trkpt lat="44.7797417" lon="9.3575183"><ele>558.0</ele><time>2026-04-26T08:56:55.01Z</time></trkpt><trkpt lat="44.7796467" lon="9.357345"><ele>558.0</ele><time>2026-04-26T08:56:56.011Z</time></trkpt><trkpt lat="44.77953" lon="9.3572"><ele>558.0</ele><time>2026-04-26T08:56:57.011Z</time></trkpt><trkpt lat="44.77939" lon="9.357065"><ele>556.0</ele><time>2026-04-26T08:56:58.01Z</time></trkpt><trkpt lat="44.7792267" lon="9.35697"><ele>554.0</ele><time>2026-04-26T08:56:59.011Z</time></trkpt><trkpt lat="44.7790317" lon="9.3569217"><ele>552.0</ele><time>2026-04-26T08:57:00.011Z</time></trkpt><trkpt lat="44.77884" lon="9.3568817"><ele>552.0</ele><time>2026-04-26T08:57:01.011Z</time></trkpt><trkpt lat="44.77865" lon="9.3568517"><ele>552.0</ele><time>2026-04-26T08:57:02.01Z</time></trkpt><trkpt lat="44.7784517" lon="9.3568183"><ele>552.0</ele><time>2026-04-26T08:57:03.01Z</time></trkpt><trkpt lat="44.7782717" lon="9.3567733"><ele>549.0</ele><time>2026-04-26T08:57:04.01Z</time></trkpt><trkpt lat="44.7781017" lon="9.3567267"><ele>546.0</ele><time>2026-04-26T08:57:05.01Z</time></trkpt><trkpt lat="44.7779417" lon="9.3567233"><ele>543.0</ele><time>2026-04-26T08:57:06.011Z</time></trkpt><trkpt lat="44.777815" lon="9.3567333"><ele>543.0</ele><time>2026-04-26T08:57:07.01Z</time></trkpt><trkpt lat="44.7776867" lon="9.3567117"><ele>543.0</ele><time>2026-04-26T08:57:08.01Z</time></trkpt><trkpt lat="44.7775667" lon="9.3566467"><ele>543.0</ele><time>2026-04-26T08:57:09.01Z</time></trkpt><trkpt lat="44.77746" lon="9.3564633"><ele>543.0</ele><time>2026-04-26T08:57:10.01Z</time></trkpt><trkpt lat="44.77739" lon="9.3562667"><ele>541.75</ele><time>2026-04-26T08:57:11.011Z</time></trkpt><trkpt lat="44.7773017" lon="9.3560983"><ele>540.5</ele><time>2026-04-26T08:57:12.01Z</time></trkpt><trkpt lat="44.77721" lon="9.3559367"><ele>539.25</ele><time>2026-04-26T08:57:13.011Z</time></trkpt><trkpt lat="44.77712" lon="9.3557783"><ele>538.0</ele><time>2026-04-26T08:57:14.011Z</time></trkpt><trkpt lat="44.7770067" lon="9.3556433"><ele>538.0</ele><time>2026-04-26T08:57:15.01Z</time></trkpt><trkpt lat="44.7768783" lon="9.355565"><ele>538.0</ele><time>2026-04-26T08:57:16.01Z</time></trkpt><trkpt lat="44.776745" lon="9.3554933"><ele>538.0</ele><time>2026-04-26T08:57:17.011Z</time></trkpt><trkpt lat="44.77661" lon="9.3554517"><ele>538.0</ele><time>2026-04-26T08:57:18.01Z</time></trkpt><trkpt lat="44.7764667" lon="9.3554333"><ele>533.3333333333334</ele><time>2026-04-26T08:57:19.011Z</time></trkpt><trkpt lat="44.7762333" lon="9.355555"><ele>528.6666666666666</ele><time>2026-04-26T08:57:20.011Z</time></trkpt><trkpt lat="44.7760417" lon="9.3555733"><ele>524.0</ele><time>2026-04-26T08:57:21.01Z</time></trkpt><trkpt lat="44.775865" lon="9.3555567"><ele>521.3333333333333</ele><time>2026-04-26T08:57:22.01Z</time></trkpt><trkpt lat="44.7756967" lon="9.3555217"><ele>518.6666666666666</ele><time>2026-04-26T08:57:23.011Z</time></trkpt><trkpt lat="44.7755367" lon="9.3554783"><ele>516.0</ele><time>2026-04-26T08:57:24.01Z</time></trkpt><trkpt lat="44.7753983" lon="9.3554317"><ele>516.0</ele><time>2026-04-26T08:57:25.01Z</time></trkpt><trkpt lat="44.7752933" lon="9.3553733"><ele>516.0</ele><time>2026-04-26T08:57:26.011Z</time></trkpt><trkpt lat="44.7752333" lon="9.3553233"><ele>516.0</ele><time>2026-04-26T08:57:27.01Z</time></trkpt><trkpt lat="44.7751917" lon="9.3552183"><ele>516.0</ele><time>2026-04-26T08:57:28.01Z</time></trkpt><trkpt lat="44.775195" lon="9.3550833"><ele>516.0</ele><time>2026-04-26T08:57:29.011Z</time></trkpt><trkpt lat="44.7752033" lon="9.35491"><ele>513.2</ele><time>2026-04-26T08:57:30.01Z</time></trkpt><trkpt lat="44.77518" lon="9.3547583"><ele>510.40000000000003</ele><time>2026-04-26T08:57:31.01Z</time></trkpt><trkpt lat="44.775135" lon="9.3546533"><ele>507.6</ele><time>2026-04-26T08:57:32.011Z</time></trkpt><trkpt lat="44.77505" lon="9.35461"><ele>504.8</ele><time>2026-04-26T08:57:33.01Z</time></trkpt><trkpt lat="44.77496" lon="9.354565"><ele>502.0</ele><time>2026-04-26T08:57:34.011Z</time></trkpt><trkpt lat="44.774855" lon="9.354585"><ele>502.0</ele><time>2026-04-26T08:57:35.01Z</time></trkpt><trkpt lat="44.7747633" lon="9.3546567"><ele>502.00000000000006</ele><time>2026-04-26T08:57:36.011Z</time></trkpt><trkpt lat="44.7746833" lon="9.35476"><ele>502.00000000000006</ele><time>2026-04-26T08:57:37.011Z</time></trkpt><trkpt lat="44.7746583" lon="9.354915"><ele>502.0</ele><time>2026-04-26T08:57:38.011Z</time></trkpt><trkpt lat="44.7746267" lon="9.3550533"><ele>502.0</ele><time>2026-04-26T08:57:39.011Z</time></trkpt><trkpt lat="44.774755" lon="9.3553533"><ele>501.0</ele><time>2026-04-26T08:57:40.011Z</time></trkpt><trkpt lat="44.774825" lon="9.35561"><ele>500.0</ele><time>2026-04-26T08:57:41.01Z</time></trkpt><trkpt lat="44.774905" lon="9.3558817"><ele>499.0</ele><time>2026-04-26T08:57:42.01Z</time></trkpt><trkpt lat="44.7749617" lon="9.3561533"><ele>497.6666666666667</ele><time>2026-04-26T08:57:43.01Z</time></trkpt><trkpt lat="44.7750167" lon="9.3564117"><ele>496.33333333333337</ele><time>2026-04-26T08:57:44.01Z</time></trkpt><trkpt lat="44.7750783" lon="9.3566617"><ele>495.0</ele><time>2026-04-26T08:57:45.011Z</time></trkpt><trkpt lat="44.7751467" lon="9.3568733"><ele>496.66666666666663</ele><time>2026-04-26T08:57:46.01Z</time></trkpt><trkpt lat="44.7752" lon="9.3570833"><ele>498.3333333333333</ele><time>2026-04-26T08:57:47.01Z</time></trkpt><trkpt lat="44.77525" lon="9.3572967"><ele>500.0</ele><time>2026-04-26T08:57:48.011Z</time></trkpt><trkpt lat="44.7752783" lon="9.357495"><ele>500.0</ele><time>2026-04-26T08:57:49.01Z</time></trkpt><trkpt lat="44.7752767" lon="9.3576817"><ele>500.0</ele><time>2026-04-26T08:57:50.01Z</time></trkpt><trkpt lat="44.7752733" lon="9.3578867"><ele>500.0</ele><time>2026-04-26T08:57:51.011Z</time></trkpt><trkpt lat="44.7752733" lon="9.3580783"><ele>500.0</ele><time>2026-04-26T08:57:52.01Z</time></trkpt><trkpt lat="44.7752933" lon="9.358235"><ele>498.25</ele><time>2026-04-26T08:57:53.01Z</time></trkpt><trkpt lat="44.7753417" lon="9.35837"><ele>496.5</ele><time>2026-04-26T08:57:54.011Z</time></trkpt><trkpt lat="44.7754317" lon="9.3584867"><ele>494.75</ele><time>2026-04-26T08:57:55.011Z</time></trkpt><trkpt lat="44.77556" lon="9.3585883"><ele>493.0</ele><time>2026-04-26T08:57:56.011Z</time></trkpt><trkpt lat="44.77568" lon="9.3587017"><ele>493.0</ele><time>2026-04-26T08:57:57.011Z</time></trkpt><trkpt lat="44.775805" lon="9.3588567"><ele>493.0</ele><time>2026-04-26T08:57:58.011Z</time></trkpt><trkpt lat="44.7759383" lon="9.3590083"><ele>493.0</ele><time>2026-04-26T08:57:59.011Z</time></trkpt><trkpt lat="44.7760367" lon="9.3592017"><ele>493.0</ele><time>2026-04-26T08:58:00.01Z</time></trkpt><trkpt lat="44.7761533" lon="9.3593683"><ele>493.0</ele><time>2026-04-26T08:58:01.011Z</time></trkpt><trkpt lat="44.776245" lon="9.359545"><ele>493.0</ele><time>2026-04-26T08:58:02.01Z</time></trkpt><trkpt lat="44.77634" lon="9.35972"><ele>491.33333333333337</ele><time>2026-04-26T08:58:03.011Z</time></trkpt><trkpt lat="44.776445" lon="9.359875"><ele>489.66666666666663</ele><time>2026-04-26T08:58:04.01Z</time></trkpt><trkpt lat="44.776575" lon="9.36"><ele>488.0</ele><time>2026-04-26T08:58:05.011Z</time></trkpt><trkpt lat="44.7767083" lon="9.3601"><ele>488.0</ele><time>2026-04-26T08:58:06.011Z</time></trkpt><trkpt lat="44.7768367" lon="9.360185"><ele>488.0</ele><time>2026-04-26T08:58:07.011Z</time></trkpt><trkpt lat="44.7769383" lon="9.3602767"><ele>488.0</ele><time>2026-04-26T08:58:08.01Z</time></trkpt><trkpt lat="44.7770267" lon="9.3603683"><ele>488.0</ele><time>2026-04-26T08:58:09.011Z</time></trkpt><trkpt lat="44.7770983" lon="9.3604667"><ele>490.0</ele><time>2026-04-26T08:58:10.011Z</time></trkpt><trkpt lat="44.7771267" lon="9.3605867"><ele>492.0</ele><time>2026-04-26T08:58:11.01Z</time></trkpt><trkpt lat="44.77713" lon="9.3607233"><ele>494.0</ele><time>2026-04-26T08:58:12.011Z</time></trkpt><trkpt lat="44.7770833" lon="9.3608767"><ele>496.0</ele><time>2026-04-26T08:58:13.01Z</time></trkpt><trkpt lat="44.7769883" lon="9.3610667"><ele>492.0</ele><time>2026-04-26T08:58:14.011Z</time></trkpt><trkpt lat="44.776835" lon="9.361255"><ele>488.0</ele><time>2026-04-26T08:58:15.011Z</time></trkpt><trkpt lat="44.7767083" lon="9.3614083"><ele>484.0</ele><time>2026-04-26T08:58:16.01Z</time></trkpt><trkpt lat="44.7765967" lon="9.361565"><ele>482.5</ele><time>2026-04-26T08:58:17.01Z</time></trkpt><trkpt lat="44.7765683" lon="9.3617283"><ele>481.0</ele><time>2026-04-26T08:58:18.01Z</time></trkpt><trkpt lat="44.776595" lon="9.3619133"><ele>479.5</ele><time>2026-04-26T08:58:19.011Z</time></trkpt><trkpt lat="44.7766583" lon="9.3620833"><ele>478.0</ele><time>2026-04-26T08:58:20.01Z</time></trkpt><trkpt lat="44.7767283" lon="9.36224"><ele>476.5</ele><time>2026-04-26T08:58:21.01Z</time></trkpt><trkpt lat="44.7768283" lon="9.3623933"><ele>475.0</ele><time>2026-04-26T08:58:22.011Z</time></trkpt><trkpt lat="44.7769117" lon="9.36253"><ele>473.5</ele><time>2026-04-26T08:58:23.01Z</time></trkpt><trkpt lat="44.7769567" lon="9.3626683"><ele>472.0</ele><time>2026-04-26T08:58:24.01Z</time></trkpt><trkpt lat="44.77699" lon="9.3628333"><ele>477.6666666666667</ele><time>2026-04-26T08:58:25.011Z</time></trkpt><trkpt lat="44.7769517" lon="9.3630367"><ele>483.33333333333337</ele><time>2026-04-26T08:58:26.01Z</time></trkpt><trkpt lat="44.7769017" lon="9.3632533"><ele>489.0</ele><time>2026-04-26T08:58:27.01Z</time></trkpt><trkpt lat="44.77688" lon="9.3634767"><ele>489.0</ele><time>2026-04-26T08:58:28.011Z</time></trkpt><trkpt lat="44.7768533" lon="9.363695"><ele>489.0</ele><time>2026-04-26T08:58:29.01Z</time></trkpt><trkpt lat="44.77682" lon="9.3639017"><ele>489.0</ele><time>2026-04-26T08:58:30.01Z</time></trkpt><trkpt lat="44.77676" lon="9.3641033"><ele>482.0</ele><time>2026-04-26T08:58:31.01Z</time></trkpt><trkpt lat="44.7766817" lon="9.3642917"><ele>475.0</ele><time>2026-04-26T08:58:32.01Z</time></trkpt><trkpt lat="44.7765717" lon="9.36448"><ele>468.0</ele><time>2026-04-26T08:58:33.011Z</time></trkpt><trkpt lat="44.77647" lon="9.3646533"><ele>468.66666666666663</ele><time>2026-04-26T08:58:34.011Z</time></trkpt><trkpt lat="44.7763433" lon="9.36483"><ele>469.3333333333333</ele><time>2026-04-26T08:58:35.01Z</time></trkpt><trkpt lat="44.7762333" lon="9.36503"><ele>470.0</ele><time>2026-04-26T08:58:36.01Z</time></trkpt><trkpt lat="44.776135" lon="9.3652133"><ele>470.0</ele><time>2026-04-26T08:58:37.01Z</time></trkpt><trkpt lat="44.7760383" lon="9.3653683"><ele>470.0</ele><time>2026-04-26T08:58:38.01Z</time></trkpt><trkpt lat="44.7759483" lon="9.3655267"><ele>470.0</ele><time>2026-04-26T08:58:39.011Z</time></trkpt><trkpt lat="44.77588" lon="9.3656367"><ele>470.0</ele><time>2026-04-26T08:58:40.011Z</time></trkpt><trkpt lat="44.7758" lon="9.3656917"><ele>466.25</ele><time>2026-04-26T08:58:41.01Z</time></trkpt><trkpt lat="44.775715" lon="9.36574"><ele>462.5</ele><time>2026-04-26T08:58:42.01Z</time></trkpt><trkpt lat="44.7756267" lon="9.3657067"><ele>458.75</ele><time>2026-04-26T08:58:43.011Z</time></trkpt><trkpt lat="44.7755883" lon="9.3654883"><ele>455.0</ele><time>2026-04-26T08:58:44.011Z</time></trkpt><trkpt lat="44.775545" lon="9.3652633"><ele>455.0</ele><time>2026-04-26T08:58:45.01Z</time></trkpt><trkpt lat="44.7755133" lon="9.3650817"><ele>455.0</ele><time>2026-04-26T08:58:46.01Z</time></trkpt><trkpt lat="44.7754417" lon="9.3649317"><ele>455.0</ele><time>2026-04-26T08:58:47.01Z</time></trkpt><trkpt lat="44.775325" lon="9.36481"><ele>455.0</ele><time>2026-04-26T08:58:48.01Z</time></trkpt><trkpt lat="44.7751817" lon="9.3646917"><ele>452.0</ele><time>2026-04-26T08:58:49.01Z</time></trkpt><trkpt lat="44.775055" lon="9.3645833"><ele>449.0</ele><time>2026-04-26T08:58:50.011Z</time></trkpt><trkpt lat="44.7749417" lon="9.36443"><ele>446.0</ele><time>2026-04-26T08:58:51.01Z</time></trkpt><trkpt lat="44.7748383" lon="9.36427"><ele>446.0</ele><time>2026-04-26T08:58:52.011Z</time></trkpt><trkpt lat="44.774765" lon="9.3640967"><ele>446.0</ele><time>2026-04-26T08:58:53.01Z</time></trkpt><trkpt lat="44.7746867" lon="9.3639333"><ele>446.0</ele><time>2026-04-26T08:58:54.01Z</time></trkpt><trkpt lat="44.7745983" lon="9.3637933"><ele>446.0</ele><time>2026-04-26T08:58:55.01Z</time></trkpt><trkpt lat="44.7744933" lon="9.3636817"><ele>446.75</ele><time>2026-04-26T08:58:56.01Z</time></trkpt><trkpt lat="44.774375" lon="9.363595"><ele>447.5</ele><time>2026-04-26T08:58:57.01Z</time></trkpt><trkpt lat="44.7742467" lon="9.3635167"><ele>448.25</ele><time>2026-04-26T08:58:58.01Z</time></trkpt><trkpt lat="44.7741183" lon="9.3634367"><ele>449.0</ele><time>2026-04-26T08:58:59.01Z</time></trkpt><trkpt lat="44.7739767" lon="9.36338"><ele>445.66666666666663</ele><time>2026-04-26T08:59:00.01Z</time></trkpt><trkpt lat="44.7738417" lon="9.36337"><ele>442.33333333333337</ele><time>2026-04-26T08:59:01.01Z</time></trkpt><trkpt lat="44.77369" lon="9.363355"><ele>439.0</ele><time>2026-04-26T08:59:02.01Z</time></trkpt><trkpt lat="44.773535" lon="9.3634317"><ele>435.75</ele><time>2026-04-26T08:59:03.01Z</time></trkpt><trkpt lat="44.7734117" lon="9.3634683"><ele>432.5</ele><time>2026-04-26T08:59:04.011Z</time></trkpt><trkpt lat="44.7733017" lon="9.3635617"><ele>429.25</ele><time>2026-04-26T08:59:05.011Z</time></trkpt><trkpt lat="44.7731883" lon="9.36365"><ele>426.0</ele><time>2026-04-26T08:59:06.01Z</time></trkpt><trkpt lat="44.773085" lon="9.36373"><ele>426.0</ele><time>2026-04-26T08:59:07.011Z</time></trkpt><trkpt lat="44.7729967" lon="9.3638283"><ele>426.0</ele><time>2026-04-26T08:59:08.01Z</time></trkpt><trkpt lat="44.7729317" lon="9.3639633"><ele>426.0</ele><time>2026-04-26T08:59:09.011Z</time></trkpt><trkpt lat="44.7728717" lon="9.3640817"><ele>426.0</ele><time>2026-04-26T08:59:10.01Z</time></trkpt><trkpt lat="44.772875" lon="9.36426"><ele>426.33333333333337</ele><time>2026-04-26T08:59:11.011Z</time></trkpt><trkpt lat="44.772905" lon="9.3644317"><ele>426.6666666666667</ele><time>2026-04-26T08:59:12.011Z</time></trkpt><trkpt lat="44.7729767" lon="9.3646483"><ele>427.0</ele><time>2026-04-26T08:59:13.011Z</time></trkpt><trkpt lat="44.773035" lon="9.364855"><ele>426.5</ele><time>2026-04-26T08:59:14.01Z</time></trkpt><trkpt lat="44.773055" lon="9.365025"><ele>426.0</ele><time>2026-04-26T08:59:15.011Z</time></trkpt><trkpt lat="44.77305" lon="9.3652217"><ele>425.5</ele><time>2026-04-26T08:59:16.011Z</time></trkpt><trkpt lat="44.7729717" lon="9.365395"><ele>425.0</ele><time>2026-04-26T08:59:18.01Z</time></trkpt><trkpt lat="44.7729183" lon="9.36551"><ele>424.2</ele><time>2026-04-26T08:59:19.011Z</time></trkpt><trkpt lat="44.7728567" lon="9.3656133"><ele>423.4</ele><time>2026-04-26T08:59:20.01Z</time></trkpt><trkpt lat="44.7727917" lon="9.3657217"><ele>422.6</ele><time>2026-04-26T08:59:21.011Z</time></trkpt><trkpt lat="44.7727383" lon="9.36584"><ele>421.8</ele><time>2026-04-26T08:59:22.01Z</time></trkpt><trkpt lat="44.7726917" lon="9.3659767"><ele>421.0</ele><time>2026-04-26T08:59:23.01Z</time></trkpt><trkpt lat="44.7726517" lon="9.366115"><ele>419.0</ele><time>2026-04-26T08:59:24.011Z</time></trkpt><trkpt lat="44.7726367" lon="9.3662683"><ele>417.0</ele><time>2026-04-26T08:59:25.011Z</time></trkpt><trkpt lat="44.7726317" lon="9.3664233"><ele>415.0</ele><time>2026-04-26T08:59:26.011Z</time></trkpt><trkpt lat="44.7726333" lon="9.3665633"><ele>413.0</ele><time>2026-04-26T08:59:27.011Z</time></trkpt><trkpt lat="44.77265" lon="9.3667017"><ele>411.0</ele><time>2026-04-26T08:59:28.011Z</time></trkpt><trkpt lat="44.77267" lon="9.3668317"><ele>411.0</ele><time>2026-04-26T08:59:29.01Z</time></trkpt><trkpt lat="44.77271" lon="9.3669267"><ele>411.0</ele><time>2026-04-26T08:59:30.011Z</time></trkpt><trkpt lat="44.772765" lon="9.3669967"><ele>411.0</ele><time>2026-04-26T08:59:31.011Z</time></trkpt><trkpt lat="44.7728317" lon="9.3670717"><ele>411.0</ele><time>2026-04-26T08:59:32.011Z</time></trkpt><trkpt lat="44.7729183" lon="9.367145"><ele>411.0</ele><time>2026-04-26T08:59:33.011Z</time></trkpt><trkpt lat="44.7730117" lon="9.3672167"><ele>411.0</ele><time>2026-04-26T08:59:34.01Z</time></trkpt><trkpt lat="44.7730817" lon="9.3672867"><ele>411.0</ele><time>2026-04-26T08:59:35.011Z</time></trkpt><trkpt lat="44.7731417" lon="9.3673767"><ele>411.0</ele><time>2026-04-26T08:59:36.01Z</time></trkpt><trkpt lat="44.7731917" lon="9.3674717"><ele>411.0</ele><time>2026-04-26T08:59:37.011Z</time></trkpt><trkpt lat="44.773225" lon="9.3675767"><ele>411.0</ele><time>2026-04-26T08:59:38.01Z</time></trkpt><trkpt lat="44.7732383" lon="9.367695"><ele>411.0</ele><time>2026-04-26T08:59:39.01Z</time></trkpt><trkpt lat="44.773245" lon="9.3677917"><ele>411.0</ele><time>2026-04-26T08:59:40.011Z</time></trkpt><trkpt lat="44.7732383" lon="9.3678833"><ele>411.0</ele><time>2026-04-26T08:59:41.01Z</time></trkpt><trkpt lat="44.773215" lon="9.3679833"><ele>411.0</ele><time>2026-04-26T08:59:42.01Z</time></trkpt><trkpt lat="44.77312" lon="9.3681467"><ele>411.0</ele><time>2026-04-26T08:59:43.011Z</time></trkpt><trkpt lat="44.7730367" lon="9.368295"><ele>411.0</ele><time>2026-04-26T08:59:44.011Z</time></trkpt><trkpt lat="44.7728817" lon="9.368455"><ele>413.0</ele><time>2026-04-26T08:59:45.01Z</time></trkpt><trkpt lat="44.7727467" lon="9.3686117"><ele>415.0</ele><time>2026-04-26T08:59:46.01Z</time></trkpt><trkpt lat="44.77261" lon="9.3687583"><ele>417.0</ele><time>2026-04-26T08:59:47.01Z</time></trkpt><trkpt lat="44.7725183" lon="9.3689017"><ele>409.33333333333337</ele><time>2026-04-26T08:59:48.01Z</time></trkpt><trkpt lat="44.77246" lon="9.3690917"><ele>401.6666666666667</ele><time>2026-04-26T08:59:49.01Z</time></trkpt><trkpt lat="44.7724217" lon="9.3693"><ele>394.0</ele><time>2026-04-26T08:59:50.011Z</time></trkpt><trkpt lat="44.7724083" lon="9.3695267"><ele>392.6666666666667</ele><time>2026-04-26T08:59:51.011Z</time></trkpt><trkpt lat="44.7724183" lon="9.36978"><ele>391.33333333333337</ele><time>2026-04-26T08:59:52.011Z</time></trkpt><trkpt lat="44.7724317" lon="9.37003"><ele>390.0</ele><time>2026-04-26T08:59:53.01Z</time></trkpt><trkpt lat="44.7724267" lon="9.3702567"><ele>390.0</ele><time>2026-04-26T08:59:54.011Z</time></trkpt><trkpt lat="44.7724333" lon="9.37046"><ele>390.0</ele><time>2026-04-26T08:59:55.01Z</time></trkpt><trkpt lat="44.77245" lon="9.3706483"><ele>390.0</ele><time>2026-04-26T08:59:56.011Z</time></trkpt><trkpt lat="44.7724833" lon="9.3708317"><ele>390.0</ele><time>2026-04-26T08:59:57.011Z</time></trkpt><trkpt lat="44.7725783" lon="9.3710033"><ele>391.25</ele><time>2026-04-26T08:59:58.01Z</time></trkpt><trkpt lat="44.7726433" lon="9.3711883"><ele>392.5</ele><time>2026-04-26T08:59:59.011Z</time></trkpt><trkpt lat="44.772675" lon="9.3713833"><ele>393.75</ele><time>2026-04-26T09:00:00.01Z</time></trkpt><trkpt lat="44.7726967" lon="9.37159"><ele>395.0</ele><time>2026-04-26T09:00:01.01Z</time></trkpt><trkpt lat="44.7727233" lon="9.3718083"><ele>395.0</ele><time>2026-04-26T09:00:02.011Z</time></trkpt><trkpt lat="44.7727467" lon="9.3720283"><ele>395.0</ele><time>2026-04-26T09:00:03.011Z</time></trkpt><trkpt lat="44.77278" lon="9.3722167"><ele>395.0</ele><time>2026-04-26T09:00:04.011Z</time></trkpt><trkpt lat="44.7728" lon="9.3724117"><ele>395.0</ele><time>2026-04-26T09:00:05.011Z</time></trkpt><trkpt lat="44.77279" lon="9.37262"><ele>393.66666666666663</ele><time>2026-04-26T09:00:06.011Z</time></trkpt><trkpt lat="44.772745" lon="9.3728217"><ele>392.33333333333337</ele><time>2026-04-26T09:00:07.01Z</time></trkpt><trkpt lat="44.7727" lon="9.3730333"><ele>391.0</ele><time>2026-04-26T09:00:08.01Z</time></trkpt><trkpt lat="44.77262" lon="9.37323"><ele>384.0</ele><time>2026-04-26T09:00:09.01Z</time></trkpt><trkpt lat="44.7725233" lon="9.37343"><ele>377.0</ele><time>2026-04-26T09:00:10.01Z</time></trkpt><trkpt lat="44.77244" lon="9.3736167"><ele>370.0</ele><time>2026-04-26T09:00:11.011Z</time></trkpt><trkpt lat="44.772365" lon="9.3737883"><ele>370.75</ele><time>2026-04-26T09:00:12.011Z</time></trkpt><trkpt lat="44.7722683" lon="9.3739267"><ele>371.5</ele><time>2026-04-26T09:00:13.01Z</time></trkpt><trkpt lat="44.7721767" lon="9.37403"><ele>372.25</ele><time>2026-04-26T09:00:14.011Z</time></trkpt><trkpt lat="44.7720767" lon="9.3741267"><ele>373.0</ele><time>2026-04-26T09:00:15.011Z</time></trkpt><trkpt lat="44.7719733" lon="9.3742033"><ele>368.66666666666663</ele><time>2026-04-26T09:00:16.011Z</time></trkpt><trkpt lat="44.771805" lon="9.374175"><ele>364.3333333333333</ele><time>2026-04-26T09:00:17.01Z</time></trkpt><trkpt lat="44.7716433" lon="9.3741583"><ele>360.0</ele><time>2026-04-26T09:00:18.011Z</time></trkpt><trkpt lat="44.77152" lon="9.3741767"><ele>360.0</ele><time>2026-04-26T09:00:19.01Z</time></trkpt><trkpt lat="44.7714133" lon="9.37424"><ele>360.0</ele><time>2026-04-26T09:00:20.011Z</time></trkpt><trkpt lat="44.771325" lon="9.3743383"><ele>360.0</ele><time>2026-04-26T09:00:21.01Z</time></trkpt><trkpt lat="44.7712467" lon="9.37445"><ele>360.0</ele><time>2026-04-26T09:00:22.011Z</time></trkpt><trkpt lat="44.7711783" lon="9.37458"><ele>360.2</ele><time>2026-04-26T09:00:23.01Z</time></trkpt><trkpt lat="44.7711367" lon="9.3747367"><ele>360.4</ele><time>2026-04-26T09:00:24.011Z</time></trkpt><trkpt lat="44.77109" lon="9.3748633"><ele>360.6</ele><time>2026-04-26T09:00:25.01Z</time></trkpt><trkpt lat="44.7710117" lon="9.37497"><ele>360.8</ele><time>2026-04-26T09:00:26.011Z</time></trkpt><trkpt lat="44.7709283" lon="9.3750617"><ele>361.0</ele><time>2026-04-26T09:00:27.011Z</time></trkpt><trkpt lat="44.7708483" lon="9.375115"><ele>359.0</ele><time>2026-04-26T09:00:28.011Z</time></trkpt><trkpt lat="44.770725" lon="9.375135"><ele>357.0</ele><time>2026-04-26T09:00:29.01Z</time></trkpt><trkpt lat="44.77058" lon="9.3751167"><ele>355.0</ele><time>2026-04-26T09:00:30.011Z</time></trkpt><trkpt lat="44.770445" lon="9.37509"><ele>353.0</ele><time>2026-04-26T09:00:31.011Z</time></trkpt><trkpt lat="44.7703233" lon="9.375095"><ele>353.0</ele><time>2026-04-26T09:00:32.01Z</time></trkpt><trkpt lat="44.7702033" lon="9.375105"><ele>353.0</ele><time>2026-04-26T09:00:33.011Z</time></trkpt><trkpt lat="44.7701033" lon="9.3751717"><ele>353.0</ele><time>2026-04-26T09:00:34.011Z</time></trkpt><trkpt lat="44.7700367" lon="9.3752767"><ele>353.0</ele><time>2026-04-26T09:00:35.01Z</time></trkpt><trkpt lat="44.7699683" lon="9.3754017"><ele>353.0</ele><time>2026-04-26T09:00:36.011Z</time></trkpt><trkpt lat="44.7698933" lon="9.3755917"><ele>351.5</ele><time>2026-04-26T09:00:37.01Z</time></trkpt><trkpt lat="44.7697933" lon="9.3757417"><ele>350.0</ele><time>2026-04-26T09:00:38.01Z</time></trkpt><trkpt lat="44.7697" lon="9.375915"><ele>348.5</ele><time>2026-04-26T09:00:39.011Z</time></trkpt><trkpt lat="44.7696283" lon="9.3760717"><ele>347.0</ele><time>2026-04-26T09:00:40.01Z</time></trkpt><trkpt lat="44.7695717" lon="9.3762483"><ele>347.25</ele><time>2026-04-26T09:00:41.011Z</time></trkpt><trkpt lat="44.7695367" lon="9.3764217"><ele>347.5</ele><time>2026-04-26T09:00:42.011Z</time></trkpt><trkpt lat="44.7695117" lon="9.3765983"><ele>347.75</ele><time>2026-04-26T09:00:43.01Z</time></trkpt><trkpt lat="44.7694783" lon="9.37676"><ele>348.0</ele><time>2026-04-26T09:00:44.011Z</time></trkpt><trkpt lat="44.7694083" lon="9.3768733"><ele>345.5</ele><time>2026-04-26T09:00:45.011Z</time></trkpt><trkpt lat="44.76932" lon="9.37698"><ele>343.0</ele><time>2026-04-26T09:00:46.011Z</time></trkpt><trkpt lat="44.7692233" lon="9.37707"><ele>340.5</ele><time>2026-04-26T09:00:47.01Z</time></trkpt><trkpt lat="44.76912" lon="9.37715"><ele>338.0</ele><time>2026-04-26T09:00:48.011Z</time></trkpt><trkpt lat="44.7690167" lon="9.3772583"><ele>338.0</ele><time>2026-04-26T09:00:49.01Z</time></trkpt><trkpt lat="44.7689067" lon="9.3773733"><ele>338.0</ele><time>2026-04-26T09:00:50.011Z</time></trkpt><trkpt lat="44.768815" lon="9.3774933"><ele>338.0</ele><time>2026-04-26T09:00:51.01Z</time></trkpt><trkpt lat="44.7687367" lon="9.37763"><ele>338.0</ele><time>2026-04-26T09:00:52.01Z</time></trkpt><trkpt lat="44.7686733" lon="9.3777883"><ele>338.0</ele><time>2026-04-26T09:00:53.01Z</time></trkpt><trkpt lat="44.768635" lon="9.3779817"><ele>338.0</ele><time>2026-04-26T09:00:54.01Z</time></trkpt><trkpt lat="44.7686083" lon="9.3781583"><ele>338.0</ele><time>2026-04-26T09:00:55.011Z</time></trkpt><trkpt lat="44.7685583" lon="9.3783217"><ele>338.0</ele><time>2026-04-26T09:00:56.01Z</time></trkpt><trkpt lat="44.7684667" lon="9.3784733"><ele>334.0</ele><time>2026-04-26T09:00:57.01Z</time></trkpt><trkpt lat="44.7683583" lon="9.3785817"><ele>330.0</ele><time>2026-04-26T09:00:58.01Z</time></trkpt><trkpt lat="44.7682717" lon="9.378705"><ele>326.0</ele><time>2026-04-26T09:00:59.01Z</time></trkpt><trkpt lat="44.76821" lon="9.3788317"><ele>322.0</ele><time>2026-04-26T09:01:00.011Z</time></trkpt><trkpt lat="44.7681567" lon="9.3789583"><ele>321.75</ele><time>2026-04-26T09:01:01.011Z</time></trkpt><trkpt lat="44.7681617" lon="9.3791233"><ele>321.5</ele><time>2026-04-26T09:01:02.01Z</time></trkpt><trkpt lat="44.7681883" lon="9.3792833"><ele>321.25</ele><time>2026-04-26T09:01:03.011Z</time></trkpt><trkpt lat="44.7682283" lon="9.379445"><ele>321.0</ele><time>2026-04-26T09:01:04.011Z</time></trkpt><trkpt lat="44.7683083" lon="9.3796167"><ele>320.0</ele><time>2026-04-26T09:01:05.01Z</time></trkpt><trkpt lat="44.7683783" lon="9.3797817"><ele>319.0</ele><time>2026-04-26T09:01:06.011Z</time></trkpt><trkpt lat="44.76843" lon="9.37994"><ele>318.0</ele><time>2026-04-26T09:01:07.011Z</time></trkpt><trkpt lat="44.76848" lon="9.380085"><ele>317.0</ele><time>2026-04-26T09:01:08.01Z</time></trkpt><trkpt lat="44.7685133" lon="9.3802317"><ele>318.0</ele><time>2026-04-26T09:01:09.01Z</time></trkpt><trkpt lat="44.768545" lon="9.3803733"><ele>319.0</ele><time>2026-04-26T09:01:10.01Z</time></trkpt><trkpt lat="44.768565" lon="9.3805233"><ele>320.0</ele><time>2026-04-26T09:01:11.01Z</time></trkpt><trkpt lat="44.7685767" lon="9.3806583"><ele>321.0</ele><time>2026-04-26T09:01:12.011Z</time></trkpt><trkpt lat="44.7685683" lon="9.380805"><ele>322.0</ele><time>2026-04-26T09:01:13.01Z</time></trkpt><trkpt lat="44.7685767" lon="9.3809467"><ele>322.0</ele><time>2026-04-26T09:01:14.01Z</time></trkpt><trkpt lat="44.7685867" lon="9.3811"><ele>322.0</ele><time>2026-04-26T09:01:15.011Z</time></trkpt><trkpt lat="44.7685917" lon="9.3812533"><ele>322.0</ele><time>2026-04-26T09:01:16.01Z</time></trkpt><trkpt lat="44.7686017" lon="9.381415"><ele>322.0</ele><time>2026-04-26T09:01:17.01Z</time></trkpt><trkpt lat="44.7686183" lon="9.38159"><ele>319.75</ele><time>2026-04-26T09:01:18.01Z</time></trkpt><trkpt lat="44.76863" lon="9.3817633"><ele>317.5</ele><time>2026-04-26T09:01:19.01Z</time></trkpt><trkpt lat="44.76866" lon="9.3819267"><ele>315.25</ele><time>2026-04-26T09:01:20.011Z</time></trkpt><trkpt lat="44.7686983" lon="9.382085"><ele>313.0</ele><time>2026-04-26T09:01:21.01Z</time></trkpt><trkpt lat="44.7687517" lon="9.382235"><ele>312.0</ele><time>2026-04-26T09:01:22.011Z</time></trkpt><trkpt lat="44.7688117" lon="9.3823783"><ele>311.0</ele><time>2026-04-26T09:01:23.011Z</time></trkpt><trkpt lat="44.7688767" lon="9.38251"><ele>310.0</ele><time>2026-04-26T09:01:24.01Z</time></trkpt><trkpt lat="44.7689367" lon="9.38264"><ele>309.0</ele><time>2026-04-26T09:01:25.011Z</time></trkpt><trkpt lat="44.7689967" lon="9.382765"><ele>308.0</ele><time>2026-04-26T09:01:26.011Z</time></trkpt><trkpt lat="44.7690483" lon="9.3828983"><ele>307.0</ele><time>2026-04-26T09:01:27.01Z</time></trkpt><trkpt lat="44.7691083" lon="9.383025"><ele>306.0</ele><time>2026-04-26T09:01:28.01Z</time></trkpt><trkpt lat="44.76917" lon="9.383145"><ele>305.0</ele><time>2026-04-26T09:01:29.011Z</time></trkpt><trkpt lat="44.7692333" lon="9.3832733"><ele>304.0</ele><time>2026-04-26T09:01:30.01Z</time></trkpt><trkpt lat="44.7692933" lon="9.383405"><ele>303.0</ele><time>2026-04-26T09:01:31.01Z</time></trkpt><trkpt lat="44.7693533" lon="9.38354"><ele>302.2</ele><time>2026-04-26T09:01:32.011Z</time></trkpt><trkpt lat="44.76942" lon="9.3836683"><ele>301.4</ele><time>2026-04-26T09:01:33.01Z</time></trkpt><trkpt lat="44.7694867" lon="9.3837917"><ele>300.59999999999997</ele><time>2026-04-26T09:01:34.011Z</time></trkpt><trkpt lat="44.7695533" lon="9.3839117"><ele>299.8</ele><time>2026-04-26T09:01:35.011Z</time></trkpt><trkpt lat="44.7696183" lon="9.38403"><ele>299.0</ele><time>2026-04-26T09:01:36.011Z</time></trkpt><trkpt lat="44.7696767" lon="9.3841583"><ele>299.0</ele><time>2026-04-26T09:01:37.01Z</time></trkpt><trkpt lat="44.7697383" lon="9.384285"><ele>299.0</ele><time>2026-04-26T09:01:38.011Z</time></trkpt><trkpt lat="44.7697967" lon="9.384415"><ele>299.0</ele><time>2026-04-26T09:01:39.01Z</time></trkpt><trkpt lat="44.76985" lon="9.38453"><ele>299.0</ele><time>2026-04-26T09:01:40.01Z</time></trkpt><trkpt lat="44.7699067" lon="9.3846583"><ele>299.0</ele><time>2026-04-26T09:01:41.011Z</time></trkpt><trkpt lat="44.7699767" lon="9.38478"><ele>297.0</ele><time>2026-04-26T09:01:42.01Z</time></trkpt><trkpt lat="44.7700433" lon="9.38492"><ele>295.0</ele><time>2026-04-26T09:01:43.011Z</time></trkpt><trkpt lat="44.77009" lon="9.3850683"><ele>293.0</ele><time>2026-04-26T09:01:44.011Z</time></trkpt><trkpt lat="44.7701133" lon="9.3852183"><ele>291.0</ele><time>2026-04-26T09:01:45.011Z</time></trkpt><trkpt lat="44.7701533" lon="9.38533"><ele>289.0</ele><time>2026-04-26T09:01:46.01Z</time></trkpt><trkpt lat="44.770145" lon="9.3854617"><ele>288.16666666666663</ele><time>2026-04-26T09:01:47.011Z</time></trkpt><trkpt lat="44.77011" lon="9.3856033"><ele>287.3333333333333</ele><time>2026-04-26T09:01:48.011Z</time></trkpt><trkpt lat="44.7701033" lon="9.3857233"><ele>286.5</ele><time>2026-04-26T09:01:49.01Z</time></trkpt><trkpt lat="44.7701017" lon="9.38583"><ele>285.6666666666667</ele><time>2026-04-26T09:01:50.011Z</time></trkpt><trkpt lat="44.7701033" lon="9.38593"><ele>284.83333333333337</ele><time>2026-04-26T09:01:51.011Z</time></trkpt><trkpt lat="44.7701033" lon="9.38602"><ele>284.0</ele><time>2026-04-26T09:01:52.01Z</time></trkpt><trkpt lat="44.7701167" lon="9.3861317"><ele>284.0</ele><time>2026-04-26T09:01:54.01Z</time></trkpt><trkpt lat="44.77017" lon="9.3862267"><ele>284.0</ele><time>2026-04-26T09:01:56.01Z</time></trkpt><trkpt lat="44.770225" lon="9.3863033"><ele>284.0</ele><time>2026-04-26T09:01:58.01Z</time></trkpt><trkpt lat="44.7703033" lon="9.3863483"><ele>284.0</ele><time>2026-04-26T09:02:00.011Z</time></trkpt><trkpt lat="44.7703767" lon="9.3863417"><ele>284.0</ele><time>2026-04-26T09:02:01.01Z</time></trkpt><trkpt lat="44.7704767" lon="9.3863183"><ele>284.0</ele><time>2026-04-26T09:02:02.01Z</time></trkpt><trkpt lat="44.7705917" lon="9.3863083"><ele>284.0</ele><time>2026-04-26T09:02:03.01Z</time></trkpt><trkpt lat="44.7706817" lon="9.3862817"><ele>284.0</ele><time>2026-04-26T09:02:04.01Z</time></trkpt><trkpt lat="44.7707533" lon="9.3862833"><ele>284.0</ele><time>2026-04-26T09:02:05.011Z</time></trkpt><trkpt lat="44.7708167" lon="9.386275"><ele>284.0</ele><time>2026-04-26T09:02:06.01Z</time></trkpt><trkpt lat="44.770895" lon="9.38629"><ele>284.0</ele><time>2026-04-26T09:02:08.011Z</time></trkpt><trkpt lat="44.77097" lon="9.3862933"><ele>284.0</ele><time>2026-04-26T09:02:10.011Z</time></trkpt><trkpt lat="44.771035" lon="9.3862733"><ele>284.0</ele><time>2026-04-26T09:02:11.011Z</time></trkpt><trkpt lat="44.7711117" lon="9.38628"><ele>283.0</ele><time>2026-04-26T09:02:12.011Z</time></trkpt><trkpt lat="44.7711833" lon="9.3862733"><ele>282.0</ele><time>2026-04-26T09:02:13.011Z</time></trkpt><trkpt lat="44.7712717" lon="9.3862917"><ele>281.0</ele><time>2026-04-26T09:02:14.01Z</time></trkpt><trkpt lat="44.7714317" lon="9.3863133"><ele>280.0</ele><time>2026-04-26T09:02:15.011Z</time></trkpt><trkpt lat="44.7715533" lon="9.3863217"><ele>279.0</ele><time>2026-04-26T09:02:16.011Z</time></trkpt><trkpt lat="44.7716233" lon="9.38634"><ele>278.0</ele><time>2026-04-26T09:02:17.01Z</time></trkpt><trkpt lat="44.771695" lon="9.38635"><ele>277.0</ele><time>2026-04-26T09:02:18.011Z</time></trkpt><trkpt lat="44.77178" lon="9.386375"><ele>276.0</ele><time>2026-04-26T09:02:19.01Z</time></trkpt><trkpt lat="44.77185" lon="9.38639"><ele>275.0</ele><time>2026-04-26T09:02:20.01Z</time></trkpt><trkpt lat="44.7719267" lon="9.3864033"><ele>274.0</ele><time>2026-04-26T09:02:21.01Z</time></trkpt><trkpt lat="44.7720083" lon="9.3864167"><ele>273.0</ele><time>2026-04-26T09:02:22.011Z</time></trkpt><trkpt lat="44.7721367" lon="9.3864433"><ele>272.6666666666667</ele><time>2026-04-26T09:02:23.01Z</time></trkpt><trkpt lat="44.7722383" lon="9.3864767"><ele>272.3333333333333</ele><time>2026-04-26T09:02:24.011Z</time></trkpt><trkpt lat="44.772335" lon="9.3865083"><ele>272.0</ele><time>2026-04-26T09:02:25.011Z</time></trkpt><trkpt lat="44.7724017" lon="9.3865317"><ele>271.66666666666663</ele><time>2026-04-26T09:02:26.01Z</time></trkpt><trkpt lat="44.772475" lon="9.386555"><ele>271.3333333333333</ele><time>2026-04-26T09:02:27.01Z</time></trkpt><trkpt lat="44.7725517" lon="9.3865833"><ele>271.0</ele><time>2026-04-26T09:02:28.01Z</time></trkpt><trkpt lat="44.772625" lon="9.386595"><ele>270.2</ele><time>2026-04-26T09:02:29.011Z</time></trkpt><trkpt lat="44.7727133" lon="9.38661"><ele>269.40000000000003</ele><time>2026-04-26T09:02:30.011Z</time></trkpt><trkpt lat="44.7727867" lon="9.3866183"><ele>268.6</ele><time>2026-04-26T09:02:31.01Z</time></trkpt><trkpt lat="44.7729033" lon="9.3866467"><ele>267.8</ele><time>2026-04-26T09:02:33.01Z</time></trkpt><trkpt lat="44.772965" lon="9.3866717"><ele>267.0</ele><time>2026-04-26T09:02:34.011Z</time></trkpt><trkpt lat="44.773075" lon="9.3867133"><ele>267.0</ele><time>2026-04-26T09:02:36.01Z</time></trkpt><trkpt lat="44.7731833" lon="9.3867483"><ele>267.0</ele><time>2026-04-26T09:02:38.01Z</time></trkpt><trkpt lat="44.7732467" lon="9.38677"><ele>267.0</ele><time>2026-04-26T09:02:39.01Z</time></trkpt><trkpt lat="44.7733133" lon="9.3867983"><ele>267.0</ele><time>2026-04-26T09:02:40.011Z</time></trkpt><trkpt lat="44.7734217" lon="9.38684"><ele>267.0</ele><time>2026-04-26T09:02:41.01Z</time></trkpt><trkpt lat="44.773535" lon="9.38687"><ele>266.0</ele><time>2026-04-26T09:02:42.011Z</time></trkpt><trkpt lat="44.7736417" lon="9.3868733"><ele>265.0</ele><time>2026-04-26T09:02:43.009Z</time></trkpt><trkpt lat="44.7738083" lon="9.38688"><ele>264.0</ele><time>2026-04-26T09:02:44.01Z</time></trkpt><trkpt lat="44.7739283" lon="9.386905"><ele>263.0</ele><time>2026-04-26T09:02:45.009Z</time></trkpt><trkpt lat="44.77405" lon="9.3869017"><ele>263.0</ele><time>2026-04-26T09:02:46.009Z</time></trkpt><trkpt lat="44.7741733" lon="9.3869083"><ele>263.0</ele><time>2026-04-26T09:02:47.009Z</time></trkpt><trkpt lat="44.7743017" lon="9.3869183"><ele>263.0</ele><time>2026-04-26T09:02:48.009Z</time></trkpt><trkpt lat="44.7744417" lon="9.3869733"><ele>263.0</ele><time>2026-04-26T09:02:49.009Z</time></trkpt><trkpt lat="44.7745617" lon="9.38703"><ele>264.25</ele><time>2026-04-26T09:02:50.009Z</time></trkpt><trkpt lat="44.7746717" lon="9.3870867"><ele>265.5</ele><time>2026-04-26T09:02:51.009Z</time></trkpt><trkpt lat="44.774785" lon="9.3871583"><ele>266.75</ele><time>2026-04-26T09:02:52.009Z</time></trkpt><trkpt lat="44.774895" lon="9.3872633"><ele>268.0</ele><time>2026-04-26T09:02:53.009Z</time></trkpt><trkpt lat="44.7749883" lon="9.3873833"><ele>268.0</ele><time>2026-04-26T09:02:54.009Z</time></trkpt><trkpt lat="44.775065" lon="9.3875267"><ele>268.0</ele><time>2026-04-26T09:02:55.009Z</time></trkpt><trkpt lat="44.775135" lon="9.3876933"><ele>268.0</ele><time>2026-04-26T09:02:56.009Z</time></trkpt><trkpt lat="44.7751983" lon="9.3878983"><ele>268.0</ele><time>2026-04-26T09:02:57.009Z</time></trkpt><trkpt lat="44.7752533" lon="9.38815"><ele>270.66666666666663</ele><time>2026-04-26T09:02:58.009Z</time></trkpt><trkpt lat="44.7753017" lon="9.3883783"><ele>273.3333333333333</ele><time>2026-04-26T09:02:59.009Z</time></trkpt><trkpt lat="44.7753517" lon="9.3886083"><ele>276.0</ele><time>2026-04-26T09:03:00.009Z</time></trkpt><trkpt lat="44.7753967" lon="9.3888183"><ele>273.6666666666667</ele><time>2026-04-26T09:03:01.009Z</time></trkpt><trkpt lat="44.775445" lon="9.38901"><ele>271.33333333333337</ele><time>2026-04-26T09:03:02.009Z</time></trkpt><trkpt lat="44.7755283" lon="9.3891917"><ele>269.0</ele><time>2026-04-26T09:03:03.01Z</time></trkpt><trkpt lat="44.7756583" lon="9.3893733"><ele>269.0</ele><time>2026-04-26T09:03:04.009Z</time></trkpt><trkpt lat="44.7757883" lon="9.3895417"><ele>269.0</ele><time>2026-04-26T09:03:05.009Z</time></trkpt><trkpt lat="44.7759083" lon="9.3896867"><ele>269.0</ele><time>2026-04-26T09:03:06.01Z</time></trkpt><trkpt lat="44.7760383" lon="9.3898717"><ele>269.25</ele><time>2026-04-26T09:03:07.009Z</time></trkpt><trkpt lat="44.7761583" lon="9.3900067"><ele>269.5</ele><time>2026-04-26T09:03:08.009Z</time></trkpt><trkpt lat="44.7762817" lon="9.39011"><ele>269.75</ele><time>2026-04-26T09:03:09.01Z</time></trkpt><trkpt lat="44.7763917" lon="9.3901667"><ele>270.0</ele><time>2026-04-26T09:03:10.009Z</time></trkpt><trkpt lat="44.7765183" lon="9.3902383"><ele>270.0</ele><time>2026-04-26T09:03:11.009Z</time></trkpt><trkpt lat="44.7766317" lon="9.390275"><ele>270.0</ele><time>2026-04-26T09:03:12.01Z</time></trkpt><trkpt lat="44.7767283" lon="9.39029"><ele>270.0</ele><time>2026-04-26T09:03:13.009Z</time></trkpt><trkpt lat="44.776735" lon="9.3904167"><ele>270.0</ele><time>2026-04-26T09:03:15.01Z</time></trkpt><trkpt lat="44.7766733" lon="9.3905233"><ele>270.0</ele><time>2026-04-26T09:03:17.009Z</time></trkpt><trkpt lat="44.77661" lon="9.390545"><ele>270.0</ele><time>2026-04-26T09:03:18.01Z</time></trkpt><trkpt lat="44.7765367" lon="9.3905317"><ele>270.0</ele><time>2026-04-26T09:03:19.009Z</time></trkpt><trkpt lat="44.7764333" lon="9.3904533"><ele>270.0</ele><time>2026-04-26T09:03:20.01Z</time></trkpt><trkpt lat="44.7763267" lon="9.3903667"><ele>270.0</ele><time>2026-04-26T09:03:21.01Z</time></trkpt><trkpt lat="44.7762" lon="9.3902383"><ele>270.0</ele><time>2026-04-26T09:03:22.01Z</time></trkpt><trkpt lat="44.7760783" lon="9.3901283"><ele>270.0</ele><time>2026-04-26T09:03:23.009Z</time></trkpt><trkpt lat="44.77592" lon="9.3899883"><ele>270.0</ele><time>2026-04-26T09:03:24.009Z</time></trkpt><trkpt lat="44.7757267" lon="9.3898683"><ele>269.6666666666667</ele><time>2026-04-26T09:03:25.009Z</time></trkpt><trkpt lat="44.77555" lon="9.389745"><ele>269.33333333333337</ele><time>2026-04-26T09:03:26.01Z</time></trkpt><trkpt lat="44.7753817" lon="9.389645"><ele>269.0</ele><time>2026-04-26T09:03:27.01Z</time></trkpt><trkpt lat="44.775205" lon="9.38956"><ele>264.33333333333337</ele><time>2026-04-26T09:03:28.01Z</time></trkpt><trkpt lat="44.775025" lon="9.3895017"><ele>259.6666666666667</ele><time>2026-04-26T09:03:29.01Z</time></trkpt><trkpt lat="44.774845" lon="9.38943"><ele>255.0</ele><time>2026-04-26T09:03:30.009Z</time></trkpt><trkpt lat="44.77466" lon="9.3893967"><ele>255.0</ele><time>2026-04-26T09:03:31.01Z</time></trkpt><trkpt lat="44.77448" lon="9.3893783"><ele>255.0</ele><time>2026-04-26T09:03:32.01Z</time></trkpt><trkpt lat="44.7742833" lon="9.3893933"><ele>255.0</ele><time>2026-04-26T09:03:33.009Z</time></trkpt><trkpt lat="44.7740967" lon="9.3894133"><ele>255.0</ele><time>2026-04-26T09:03:34.01Z</time></trkpt><trkpt lat="44.77392" lon="9.3894117"><ele>255.0</ele><time>2026-04-26T09:03:35.01Z</time></trkpt><trkpt lat="44.7737533" lon="9.3894083"><ele>255.0</ele><time>2026-04-26T09:03:36.01Z</time></trkpt><trkpt lat="44.7735783" lon="9.389425"><ele>256.6666666666667</ele><time>2026-04-26T09:03:37.01Z</time></trkpt><trkpt lat="44.7734017" lon="9.3894533"><ele>258.33333333333337</ele><time>2026-04-26T09:03:38.01Z</time></trkpt><trkpt lat="44.7732167" lon="9.389445"><ele>260.0</ele><time>2026-04-26T09:03:39.009Z</time></trkpt><trkpt lat="44.7730533" lon="9.38943"><ele>260.0</ele><time>2026-04-26T09:03:40.01Z</time></trkpt><trkpt lat="44.772885" lon="9.3894033"><ele>260.0</ele><time>2026-04-26T09:03:41.009Z</time></trkpt><trkpt lat="44.772715" lon="9.38937"><ele>260.0</ele><time>2026-04-26T09:03:42.009Z</time></trkpt><trkpt lat="44.772545" lon="9.3893267"><ele>259.6666666666667</ele><time>2026-04-26T09:03:43.01Z</time></trkpt><trkpt lat="44.7723817" lon="9.3892683"><ele>259.3333333333333</ele><time>2026-04-26T09:03:44.009Z</time></trkpt><trkpt lat="44.7722167" lon="9.3892017"><ele>259.0</ele><time>2026-04-26T09:03:45.01Z</time></trkpt><trkpt lat="44.7720433" lon="9.3891383"><ele>259.0</ele><time>2026-04-26T09:03:46.009Z</time></trkpt><trkpt lat="44.7718833" lon="9.38906"><ele>259.0</ele><time>2026-04-26T09:03:47.009Z</time></trkpt><trkpt lat="44.7717083" lon="9.388985"><ele>259.0</ele><time>2026-04-26T09:03:48.009Z</time></trkpt><trkpt lat="44.7715467" lon="9.3889117"><ele>260.66666666666663</ele><time>2026-04-26T09:03:49.01Z</time></trkpt><trkpt lat="44.771375" lon="9.3888383"><ele>262.3333333333333</ele><time>2026-04-26T09:03:50.01Z</time></trkpt><trkpt lat="44.7712067" lon="9.3887617"><ele>264.0</ele><time>2026-04-26T09:03:51.01Z</time></trkpt><trkpt lat="44.7710367" lon="9.3886967"><ele>263.3333333333333</ele><time>2026-04-26T09:03:52.01Z</time></trkpt><trkpt lat="44.7708767" lon="9.3886483"><ele>262.66666666666663</ele><time>2026-04-26T09:03:53.01Z</time></trkpt><trkpt lat="44.7707233" lon="9.388605"><ele>262.0</ele><time>2026-04-26T09:03:54.009Z</time></trkpt><trkpt lat="44.770575" lon="9.3885683"><ele>262.0</ele><time>2026-04-26T09:03:55.009Z</time></trkpt><trkpt lat="44.7704333" lon="9.3885233"><ele>262.0</ele><time>2026-04-26T09:03:56.01Z</time></trkpt><trkpt lat="44.7702867" lon="9.3884717"><ele>262.0</ele><time>2026-04-26T09:03:57.01Z</time></trkpt><trkpt lat="44.7701383" lon="9.388435"><ele>262.0</ele><time>2026-04-26T09:03:58.009Z</time></trkpt><trkpt lat="44.7699733" lon="9.3884217"><ele>261.25</ele><time>2026-04-26T09:03:59.01Z</time></trkpt><trkpt lat="44.7698333" lon="9.3884033"><ele>260.5</ele><time>2026-04-26T09:04:00.01Z</time></trkpt><trkpt lat="44.7696917" lon="9.3883983"><ele>259.75</ele><time>2026-04-26T09:04:01.009Z</time></trkpt><trkpt lat="44.76954" lon="9.388395"><ele>259.0</ele><time>2026-04-26T09:04:02.009Z</time></trkpt><trkpt lat="44.76939" lon="9.3884067"><ele>260.25</ele><time>2026-04-26T09:04:03.009Z</time></trkpt><trkpt lat="44.76925" lon="9.3884267"><ele>261.5</ele><time>2026-04-26T09:04:04.01Z</time></trkpt><trkpt lat="44.7691217" lon="9.3884283"><ele>262.75</ele><time>2026-04-26T09:04:05.009Z</time></trkpt><trkpt lat="44.7690017" lon="9.3884433"><ele>264.0</ele><time>2026-04-26T09:04:06.01Z</time></trkpt><trkpt lat="44.768895" lon="9.38846"><ele>264.0</ele><time>2026-04-26T09:04:07.009Z</time></trkpt><trkpt lat="44.7687933" lon="9.3884883"><ele>264.0</ele><time>2026-04-26T09:04:08.009Z</time></trkpt><trkpt lat="44.7687" lon="9.3885283"><ele>264.0</ele><time>2026-04-26T09:04:09.009Z</time></trkpt><trkpt lat="44.7686083" lon="9.3885567"><ele>264.0</ele><time>2026-04-26T09:04:10.01Z</time></trkpt><trkpt lat="44.768515" lon="9.3885867"><ele>264.0</ele><time>2026-04-26T09:04:11.01Z</time></trkpt><trkpt lat="44.76843" lon="9.3886183"><ele>263.6666666666667</ele><time>2026-04-26T09:04:12.01Z</time></trkpt><trkpt lat="44.7683483" lon="9.3886433"><ele>263.3333333333333</ele><time>2026-04-26T09:04:13.009Z</time></trkpt><trkpt lat="44.7682783" lon="9.3886683"><ele>263.0</ele><time>2026-04-26T09:04:14.009Z</time></trkpt><trkpt lat="44.768215" lon="9.3886867"><ele>262.66666666666663</ele><time>2026-04-26T09:04:15.009Z</time></trkpt><trkpt lat="44.76811" lon="9.388715"><ele>262.3333333333333</ele><time>2026-04-26T09:04:17.01Z</time></trkpt><trkpt lat="44.7680217" lon="9.3887467"><ele>262.0</ele><time>2026-04-26T09:04:19.009Z</time></trkpt><trkpt lat="44.76794" lon="9.3887683"><ele>262.0</ele><time>2026-04-26T09:04:21.009Z</time></trkpt><trkpt lat="44.76785" lon="9.3887883"><ele>262.0</ele><time>2026-04-26T09:04:23.009Z</time></trkpt><trkpt lat="44.767715" lon="9.3887933"><ele>262.0</ele><time>2026-04-26T09:07:30.01Z</time></trkpt><trkpt lat="44.7676083" lon="9.38884"><ele>262.0</ele><time>2026-04-26T09:07:32.009Z</time></trkpt><trkpt lat="44.7675283" lon="9.3888683"><ele>262.0</ele><time>2026-04-26T09:07:33.01Z</time></trkpt><trkpt lat="44.7674417" lon="9.3889017"><ele>261.4</ele><time>2026-04-26T09:07:34.009Z</time></trkpt><trkpt lat="44.7673533" lon="9.3889333"><ele>260.79999999999995</ele><time>2026-04-26T09:07:35.01Z</time></trkpt><trkpt lat="44.7672667" lon="9.3889683"><ele>260.2</ele><time>2026-04-26T09:07:36.01Z</time></trkpt><trkpt lat="44.76717" lon="9.3889967"><ele>259.59999999999997</ele><time>2026-04-26T09:07:37.009Z</time></trkpt><trkpt lat="44.7670667" lon="9.3890267"><ele>259.0</ele><time>2026-04-26T09:07:38.01Z</time></trkpt><trkpt lat="44.7669717" lon="9.389055"><ele>259.0</ele><time>2026-04-26T09:07:39.009Z</time></trkpt><trkpt lat="44.7668667" lon="9.3890917"><ele>259.0</ele><time>2026-04-26T09:07:40.009Z</time></trkpt><trkpt lat="44.766755" lon="9.389125"><ele>259.0</ele><time>2026-04-26T09:07:41.01Z</time></trkpt><trkpt lat="44.7666467" lon="9.3891567"><ele>259.0</ele><time>2026-04-26T09:07:42.009Z</time></trkpt><trkpt lat="44.7665317" lon="9.389185"><ele>259.0</ele><time>2026-04-26T09:07:43.01Z</time></trkpt><trkpt lat="44.7664167" lon="9.38919"><ele>259.0</ele><time>2026-04-26T09:07:44.009Z</time></trkpt><trkpt lat="44.7663017" lon="9.3891983"><ele>259.0</ele><time>2026-04-26T09:07:45.009Z</time></trkpt><trkpt lat="44.7661883" lon="9.3891967"><ele>259.0</ele><time>2026-04-26T09:07:46.01Z</time></trkpt><trkpt lat="44.76607" lon="9.3891683"><ele>258.5</ele><time>2026-04-26T09:07:47.01Z</time></trkpt><trkpt lat="44.76594" lon="9.38911"><ele>258.0</ele><time>2026-04-26T09:07:48.009Z</time></trkpt><trkpt lat="44.7658067" lon="9.38901"><ele>257.5</ele><time>2026-04-26T09:07:49.009Z</time></trkpt><trkpt lat="44.76568" lon="9.3889067"><ele>257.0</ele><time>2026-04-26T09:07:50.009Z</time></trkpt><trkpt lat="44.76557" lon="9.3888067"><ele>258.0</ele><time>2026-04-26T09:07:51.009Z</time></trkpt><trkpt lat="44.7654583" lon="9.3886833"><ele>259.0</ele><time>2026-04-26T09:07:52.009Z</time></trkpt><trkpt lat="44.7653717" lon="9.3885517"><ele>260.0</ele><time>2026-04-26T09:07:53.01Z</time></trkpt><trkpt lat="44.7652883" lon="9.38841"><ele>261.0</ele><time>2026-04-26T09:07:54.009Z</time></trkpt><trkpt lat="44.765205" lon="9.38825"><ele>259.6666666666667</ele><time>2026-04-26T09:07:55.01Z</time></trkpt><trkpt lat="44.76512" lon="9.3880833"><ele>258.33333333333337</ele><time>2026-04-26T09:07:56.01Z</time></trkpt><trkpt lat="44.7650367" lon="9.3879083"><ele>257.0</ele><time>2026-04-26T09:07:57.009Z</time></trkpt><trkpt lat="44.7649467" lon="9.3877217"><ele>257.0</ele><time>2026-04-26T09:07:58.009Z</time></trkpt><trkpt lat="44.7648583" lon="9.3875483"><ele>257.0</ele><time>2026-04-26T09:07:59.009Z</time></trkpt><trkpt lat="44.7647667" lon="9.38735"><ele>257.0</ele><time>2026-04-26T09:08:00.009Z</time></trkpt><trkpt lat="44.7646867" lon="9.3871667"><ele>259.0</ele><time>2026-04-26T09:08:01.009Z</time></trkpt><trkpt lat="44.7645967" lon="9.3869833"><ele>261.0</ele><time>2026-04-26T09:08:02.009Z</time></trkpt><trkpt lat="44.7645117" lon="9.3868"><ele>263.0</ele><time>2026-04-26T09:08:03.01Z</time></trkpt><trkpt lat="44.7644267" lon="9.3866117"><ele>264.0</ele><time>2026-04-26T09:08:04.009Z</time></trkpt><trkpt lat="44.76434" lon="9.3864067"><ele>265.0</ele><time>2026-04-26T09:08:05.009Z</time></trkpt><trkpt lat="44.7642533" lon="9.386205"><ele>266.0</ele><time>2026-04-26T09:08:06.009Z</time></trkpt><trkpt lat="44.7641567" lon="9.3859983"><ele>266.0</ele><time>2026-04-26T09:08:07.009Z</time></trkpt><trkpt lat="44.7640617" lon="9.3858033"><ele>266.0</ele><time>2026-04-26T09:08:08.009Z</time></trkpt><trkpt lat="44.7639783" lon="9.3856133"><ele>266.0</ele><time>2026-04-26T09:08:09.01Z</time></trkpt><trkpt lat="44.7638833" lon="9.3854417"><ele>271.0</ele><time>2026-04-26T09:08:10.01Z</time></trkpt><trkpt lat="44.763785" lon="9.3852567"><ele>276.0</ele><time>2026-04-26T09:08:11.01Z</time></trkpt><trkpt lat="44.7636883" lon="9.38506"><ele>281.0</ele><time>2026-04-26T09:08:12.01Z</time></trkpt><trkpt lat="44.7636" lon="9.3848367"><ele>276.6666666666667</ele><time>2026-04-26T09:08:13.01Z</time></trkpt><trkpt lat="44.7635033" lon="9.384605"><ele>272.3333333333333</ele><time>2026-04-26T09:08:14.009Z</time></trkpt><trkpt lat="44.76341" lon="9.38438"><ele>268.0</ele><time>2026-04-26T09:08:15.01Z</time></trkpt><trkpt lat="44.7633" lon="9.38418"><ele>268.0</ele><time>2026-04-26T09:08:16.01Z</time></trkpt><trkpt lat="44.76318" lon="9.3839683"><ele>268.0</ele><time>2026-04-26T09:08:17.01Z</time></trkpt><trkpt lat="44.76306" lon="9.383775"><ele>268.0</ele><time>2026-04-26T09:08:18.009Z</time></trkpt><trkpt lat="44.762915" lon="9.38358"><ele>266.3333333333333</ele><time>2026-04-26T09:08:19.01Z</time></trkpt><trkpt lat="44.76275" lon="9.383395"><ele>264.6666666666667</ele><time>2026-04-26T09:08:20.009Z</time></trkpt><trkpt lat="44.7625717" lon="9.3832433"><ele>263.0</ele><time>2026-04-26T09:08:21.009Z</time></trkpt><trkpt lat="44.7623633" lon="9.3830933"><ele>263.0</ele><time>2026-04-26T09:08:22.01Z</time></trkpt><trkpt lat="44.76216" lon="9.38296"><ele>263.0</ele><time>2026-04-26T09:08:23.01Z</time></trkpt><trkpt lat="44.76196" lon="9.3828267"><ele>263.0</ele><time>2026-04-26T09:08:24.009Z</time></trkpt><trkpt lat="44.7617883" lon="9.3826983"><ele>263.0</ele><time>2026-04-26T09:08:25.01Z</time></trkpt><trkpt lat="44.7615967" lon="9.382575"><ele>263.0</ele><time>2026-04-26T09:08:26.009Z</time></trkpt><trkpt lat="44.7614" lon="9.3824617"><ele>263.0</ele><time>2026-04-26T09:08:27.01Z</time></trkpt><trkpt lat="44.7611983" lon="9.3823517"><ele>262.0</ele><time>2026-04-26T09:08:28.01Z</time></trkpt><trkpt lat="44.7610033" lon="9.38222"><ele>261.0</ele><time>2026-04-26T09:08:29.009Z</time></trkpt><trkpt lat="44.7608" lon="9.3821017"><ele>260.0</ele><time>2026-04-26T09:08:30.01Z</time></trkpt><trkpt lat="44.7606217" lon="9.38197"><ele>262.0</ele><time>2026-04-26T09:08:31.01Z</time></trkpt><trkpt lat="44.7604283" lon="9.3818467"><ele>264.0</ele><time>2026-04-26T09:08:32.01Z</time></trkpt><trkpt lat="44.76024" lon="9.381755"><ele>266.0</ele><time>2026-04-26T09:08:33.01Z</time></trkpt><trkpt lat="44.7600367" lon="9.38166"><ele>266.0</ele><time>2026-04-26T09:08:34.009Z</time></trkpt><trkpt lat="44.75982" lon="9.381615"><ele>266.0</ele><time>2026-04-26T09:08:35.01Z</time></trkpt><trkpt lat="44.759635" lon="9.3816033"><ele>266.0</ele><time>2026-04-26T09:08:36.009Z</time></trkpt><trkpt lat="44.7594133" lon="9.381615"><ele>266.0</ele><time>2026-04-26T09:08:37.01Z</time></trkpt><trkpt lat="44.7591917" lon="9.3816517"><ele>266.0</ele><time>2026-04-26T09:08:38.01Z</time></trkpt><trkpt lat="44.758995" lon="9.38169"><ele>266.0</ele><time>2026-04-26T09:08:39.009Z</time></trkpt><trkpt lat="44.7587967" lon="9.38172"><ele>266.0</ele><time>2026-04-26T09:08:40.009Z</time></trkpt><trkpt lat="44.75859" lon="9.3817717"><ele>266.0</ele><time>2026-04-26T09:08:41.01Z</time></trkpt><trkpt lat="44.758405" lon="9.3818183"><ele>266.0</ele><time>2026-04-26T09:08:42.009Z</time></trkpt><trkpt lat="44.75821" lon="9.381865"><ele>266.33333333333337</ele><time>2026-04-26T09:08:43.01Z</time></trkpt><trkpt lat="44.7580183" lon="9.381905"><ele>266.6666666666667</ele><time>2026-04-26T09:08:44.01Z</time></trkpt><trkpt lat="44.7578267" lon="9.381935"><ele>267.0</ele><time>2026-04-26T09:08:45.009Z</time></trkpt><trkpt lat="44.7576217" lon="9.3819683"><ele>267.6666666666667</ele><time>2026-04-26T09:08:46.01Z</time></trkpt><trkpt lat="44.7574117" lon="9.382"><ele>268.33333333333337</ele><time>2026-04-26T09:08:47.01Z</time></trkpt><trkpt lat="44.7572067" lon="9.3820367"><ele>269.0</ele><time>2026-04-26T09:08:48.009Z</time></trkpt><trkpt lat="44.7569983" lon="9.3820517"><ele>269.6666666666667</ele><time>2026-04-26T09:08:49.01Z</time></trkpt><trkpt lat="44.7567967" lon="9.382075"><ele>270.3333333333333</ele><time>2026-04-26T09:08:50.01Z</time></trkpt><trkpt lat="44.7565867" lon="9.3820617"><ele>271.0</ele><time>2026-04-26T09:08:51.009Z</time></trkpt><trkpt lat="44.756375" lon="9.38202"><ele>271.0</ele><time>2026-04-26T09:08:52.009Z</time></trkpt><trkpt lat="44.7561467" lon="9.38196"><ele>271.0</ele><time>2026-04-26T09:08:53.01Z</time></trkpt><trkpt lat="44.7559583" lon="9.3818083"><ele>271.0</ele><time>2026-04-26T09:08:54.009Z</time></trkpt><trkpt lat="44.7557783" lon="9.3816467"><ele>270.66666666666663</ele><time>2026-04-26T09:08:55.01Z</time></trkpt><trkpt lat="44.7556" lon="9.3814617"><ele>270.3333333333333</ele><time>2026-04-26T09:08:56.009Z</time></trkpt><trkpt lat="44.7554333" lon="9.3812667"><ele>270.0</ele><time>2026-04-26T09:08:57.009Z</time></trkpt><trkpt lat="44.75527" lon="9.3810983"><ele>270.3333333333333</ele><time>2026-04-26T09:08:58.009Z</time></trkpt><trkpt lat="44.7550933" lon="9.3809383"><ele>270.66666666666663</ele><time>2026-04-26T09:08:59.009Z</time></trkpt><trkpt lat="44.754915" lon="9.3807717"><ele>271.0</ele><time>2026-04-26T09:09:00.008Z</time></trkpt><trkpt lat="44.7547317" lon="9.3806233"><ele>271.0</ele><time>2026-04-26T09:09:01.009Z</time></trkpt><trkpt lat="44.754555" lon="9.38046"><ele>271.0</ele><time>2026-04-26T09:09:02.009Z</time></trkpt><trkpt lat="44.7543683" lon="9.38031"><ele>271.0</ele><time>2026-04-26T09:09:03.008Z</time></trkpt><trkpt lat="44.754195" lon="9.38018"><ele>271.0</ele><time>2026-04-26T09:09:04.008Z</time></trkpt><trkpt lat="44.7540367" lon="9.380045"><ele>271.0</ele><time>2026-04-26T09:09:05.009Z</time></trkpt><trkpt lat="44.7538233" lon="9.379955"><ele>271.0</ele><time>2026-04-26T09:09:06.008Z</time></trkpt><trkpt lat="44.753635" lon="9.379895"><ele>268.66666666666663</ele><time>2026-04-26T09:09:07.008Z</time></trkpt><trkpt lat="44.7534267" lon="9.3798517"><ele>266.3333333333333</ele><time>2026-04-26T09:09:08.008Z</time></trkpt><trkpt lat="44.7532267" lon="9.37985"><ele>264.0</ele><time>2026-04-26T09:09:09.008Z</time></trkpt><trkpt lat="44.75301" lon="9.379835"><ele>264.0</ele><time>2026-04-26T09:09:10.008Z</time></trkpt><trkpt lat="44.7527733" lon="9.37982"><ele>264.0</ele><time>2026-04-26T09:09:11.008Z</time></trkpt><trkpt lat="44.7525333" lon="9.3798067"><ele>263.0</ele><time>2026-04-26T09:09:12.008Z</time></trkpt><trkpt lat="44.7522883" lon="9.3797883"><ele>262.0</ele><time>2026-04-26T09:09:13.008Z</time></trkpt><trkpt lat="44.752045" lon="9.3797667"><ele>263.5</ele><time>2026-04-26T09:09:14.008Z</time></trkpt><trkpt lat="44.7518017" lon="9.3797367"><ele>265.0</ele><time>2026-04-26T09:09:15.008Z</time></trkpt><trkpt lat="44.7515517" lon="9.3797067"><ele>265.0</ele><time>2026-04-26T09:09:16.009Z</time></trkpt><trkpt lat="44.7513083" lon="9.379685"><ele>265.0</ele><time>2026-04-26T09:09:17.008Z</time></trkpt><trkpt lat="44.7510567" lon="9.3796667"><ele>266.0</ele><time>2026-04-26T09:09:18.008Z</time></trkpt><trkpt lat="44.7507967" lon="9.379655"><ele>267.0</ele><time>2026-04-26T09:09:19.008Z</time></trkpt><trkpt lat="44.75055" lon="9.37964"><ele>267.0</ele><time>2026-04-26T09:09:20.008Z</time></trkpt><trkpt lat="44.7503117" lon="9.3796317"><ele>267.0</ele><time>2026-04-26T09:09:21.008Z</time></trkpt><trkpt lat="44.7500783" lon="9.37967"><ele>268.5</ele><time>2026-04-26T09:09:22.009Z</time></trkpt><trkpt lat="44.7498367" lon="9.3797483"><ele>270.0</ele><time>2026-04-26T09:09:23.009Z</time></trkpt><trkpt lat="44.749615" lon="9.379875"><ele>270.0</ele><time>2026-04-26T09:09:24.008Z</time></trkpt><trkpt lat="44.7494083" lon="9.380045"><ele>270.0</ele><time>2026-04-26T09:09:25.009Z</time></trkpt><trkpt lat="44.749215" lon="9.3802467"><ele>273.0</ele><time>2026-04-26T09:09:26.009Z</time></trkpt><trkpt lat="44.749045" lon="9.3805"><ele>276.0</ele><time>2026-04-26T09:09:27.009Z</time></trkpt><trkpt lat="44.748905" lon="9.3807567"><ele>279.0</ele><time>2026-04-26T09:09:28.008Z</time></trkpt><trkpt lat="44.748785" lon="9.3810183"><ele>282.0</ele><time>2026-04-26T09:09:29.009Z</time></trkpt><trkpt lat="44.7487" lon="9.3813067"><ele>285.0</ele><time>2026-04-26T09:09:30.008Z</time></trkpt><trkpt lat="44.7486467" lon="9.3816183"><ele>289.6666666666667</ele><time>2026-04-26T09:09:31.009Z</time></trkpt><trkpt lat="44.7486033" lon="9.3819267"><ele>294.33333333333337</ele><time>2026-04-26T09:09:32.008Z</time></trkpt><trkpt lat="44.748585" lon="9.38224"><ele>299.0</ele><time>2026-04-26T09:09:33.009Z</time></trkpt><trkpt lat="44.7486033" lon="9.38256"><ele>302.5</ele><time>2026-04-26T09:09:34.008Z</time></trkpt><trkpt lat="44.7487667" lon="9.3828867"><ele>306.0</ele><time>2026-04-26T09:09:35.008Z</time></trkpt><trkpt lat="44.7488317" lon="9.3831983"><ele>306.5</ele><time>2026-04-26T09:09:36.009Z</time></trkpt><trkpt lat="44.74892" lon="9.3835167"><ele>307.0</ele><time>2026-04-26T09:09:37.009Z</time></trkpt><trkpt lat="44.748965" lon="9.3838533"><ele>309.5</ele><time>2026-04-26T09:09:38.008Z</time></trkpt><trkpt lat="44.7489783" lon="9.384195"><ele>312.0</ele><time>2026-04-26T09:09:39.008Z</time></trkpt><trkpt lat="44.7489817" lon="9.384515"><ele>311.0</ele><time>2026-04-26T09:09:40.008Z</time></trkpt><trkpt lat="44.748975" lon="9.3848267"><ele>310.0</ele><time>2026-04-26T09:09:41.008Z</time></trkpt><trkpt lat="44.7489633" lon="9.385135"><ele>309.0</ele><time>2026-04-26T09:09:42.008Z</time></trkpt><trkpt lat="44.748955" lon="9.3854583"><ele>313.0</ele><time>2026-04-26T09:09:43.009Z</time></trkpt><trkpt lat="44.7489417" lon="9.385795"><ele>317.0</ele><time>2026-04-26T09:09:44.008Z</time></trkpt><trkpt lat="44.7489233" lon="9.3861067"><ele>321.6666666666667</ele><time>2026-04-26T09:09:45.008Z</time></trkpt><trkpt lat="44.748905" lon="9.38642"><ele>326.3333333333333</ele><time>2026-04-26T09:09:46.008Z</time></trkpt><trkpt lat="44.74887" lon="9.3867233"><ele>331.0</ele><time>2026-04-26T09:09:47.008Z</time></trkpt><trkpt lat="44.7488183" lon="9.3870233"><ele>339.0</ele><time>2026-04-26T09:09:48.009Z</time></trkpt><trkpt lat="44.7487633" lon="9.3873383"><ele>347.0</ele><time>2026-04-26T09:09:49.008Z</time></trkpt><trkpt lat="44.748675" lon="9.387625"><ele>347.0</ele><time>2026-04-26T09:09:50.009Z</time></trkpt><trkpt lat="44.748575" lon="9.3878883"><ele>347.0</ele><time>2026-04-26T09:09:51.009Z</time></trkpt><trkpt lat="44.7484667" lon="9.3881467"><ele>347.0</ele><time>2026-04-26T09:09:52.008Z</time></trkpt><trkpt lat="44.7483167" lon="9.3884067"><ele>343.6666666666667</ele><time>2026-04-26T09:09:53.009Z</time></trkpt><trkpt lat="44.7481883" lon="9.3886533"><ele>340.3333333333333</ele><time>2026-04-26T09:09:54.008Z</time></trkpt><trkpt lat="44.74807" lon="9.3889333"><ele>337.0</ele><time>2026-04-26T09:09:55.008Z</time></trkpt><trkpt lat="44.7479467" lon="9.3891883"><ele>337.0</ele><time>2026-04-26T09:09:56.008Z</time></trkpt><trkpt lat="44.747805" lon="9.3894067"><ele>337.0</ele><time>2026-04-26T09:09:57.008Z</time></trkpt><trkpt lat="44.7476583" lon="9.3896133"><ele>337.0</ele><time>2026-04-26T09:09:58.009Z</time></trkpt><trkpt lat="44.747485" lon="9.3897867"><ele>332.66666666666663</ele><time>2026-04-26T09:09:59.008Z</time></trkpt><trkpt lat="44.7473317" lon="9.3899167"><ele>328.3333333333333</ele><time>2026-04-26T09:10:00.009Z</time></trkpt><trkpt lat="44.747165" lon="9.3900267"><ele>324.0</ele><time>2026-04-26T09:10:01.009Z</time></trkpt><trkpt lat="44.746975" lon="9.3901317"><ele>318.0</ele><time>2026-04-26T09:10:02.008Z</time></trkpt><trkpt lat="44.7467833" lon="9.3902233"><ele>312.0</ele><time>2026-04-26T09:10:03.009Z</time></trkpt><trkpt lat="44.7465733" lon="9.39024"><ele>306.0</ele><time>2026-04-26T09:10:04.008Z</time></trkpt><trkpt lat="44.746365" lon="9.3902383"><ele>306.0</ele><time>2026-04-26T09:10:05.009Z</time></trkpt><trkpt lat="44.7461533" lon="9.3902"><ele>306.0</ele><time>2026-04-26T09:10:06.009Z</time></trkpt><trkpt lat="44.745945" lon="9.3901117"><ele>306.0</ele><time>2026-04-26T09:10:07.009Z</time></trkpt><trkpt lat="44.7457433" lon="9.3899783"><ele>308.6666666666667</ele><time>2026-04-26T09:10:08.009Z</time></trkpt><trkpt lat="44.7455433" lon="9.3898333"><ele>311.33333333333337</ele><time>2026-04-26T09:10:09.009Z</time></trkpt><trkpt lat="44.74535" lon="9.3896867"><ele>314.0</ele><time>2026-04-26T09:10:10.008Z</time></trkpt><trkpt lat="44.7451633" lon="9.3895233"><ele>314.0</ele><time>2026-04-26T09:10:11.008Z</time></trkpt><trkpt lat="44.74497" lon="9.3893567"><ele>314.0</ele><time>2026-04-26T09:10:12.009Z</time></trkpt><trkpt lat="44.74478" lon="9.38923"><ele>314.0</ele><time>2026-04-26T09:10:13.008Z</time></trkpt><trkpt lat="44.7445767" lon="9.3891083"><ele>319.33333333333337</ele><time>2026-04-26T09:10:14.009Z</time></trkpt><trkpt lat="44.7443783" lon="9.38904"><ele>324.6666666666667</ele><time>2026-04-26T09:10:15.008Z</time></trkpt><trkpt lat="44.7441817" lon="9.3889967"><ele>330.0</ele><time>2026-04-26T09:10:16.009Z</time></trkpt><trkpt lat="44.743975" lon="9.3889817"><ele>330.0</ele><time>2026-04-26T09:10:17.009Z</time></trkpt><trkpt lat="44.74377" lon="9.388985"><ele>330.0</ele><time>2026-04-26T09:10:18.009Z</time></trkpt><trkpt lat="44.74356" lon="9.3889967"><ele>330.0</ele><time>2026-04-26T09:10:19.009Z</time></trkpt><trkpt lat="44.74338" lon="9.38898"><ele>334.25</ele><time>2026-04-26T09:10:20.008Z</time></trkpt><trkpt lat="44.743225" lon="9.3889383"><ele>338.5</ele><time>2026-04-26T09:10:21.008Z</time></trkpt><trkpt lat="44.7431133" lon="9.3889017"><ele>342.75</ele><time>2026-04-26T09:10:22.009Z</time></trkpt><trkpt lat="44.743005" lon="9.3888367"><ele>347.0</ele><time>2026-04-26T09:10:23.009Z</time></trkpt><trkpt lat="44.7429067" lon="9.3887633"><ele>343.5</ele><time>2026-04-26T09:10:24.008Z</time></trkpt><trkpt lat="44.7427817" lon="9.3886833"><ele>340.0</ele><time>2026-04-26T09:10:25.008Z</time></trkpt><trkpt lat="44.7426367" lon="9.3886083"><ele>336.5</ele><time>2026-04-26T09:10:26.009Z</time></trkpt><trkpt lat="44.7425" lon="9.388525"><ele>333.0</ele><time>2026-04-26T09:10:27.009Z</time></trkpt><trkpt lat="44.7423683" lon="9.3884533"><ele>333.0</ele><time>2026-04-26T09:10:28.009Z</time></trkpt><trkpt lat="44.7422383" lon="9.38838"><ele>333.0</ele><time>2026-04-26T09:10:29.009Z</time></trkpt><trkpt lat="44.7421017" lon="9.38831"><ele>333.0</ele><time>2026-04-26T09:10:30.008Z</time></trkpt><trkpt lat="44.7419633" lon="9.38824"><ele>333.0</ele><time>2026-04-26T09:10:31.009Z</time></trkpt><trkpt lat="44.7418267" lon="9.3881617"><ele>322.0</ele><time>2026-04-26T09:10:32.009Z</time></trkpt><trkpt lat="44.74169" lon="9.3880833"><ele>311.0</ele><time>2026-04-26T09:10:33.009Z</time></trkpt><trkpt lat="44.7395533" lon="9.387095"><ele>315.25</ele><time>2026-04-26T09:10:46.016Z</time></trkpt><trkpt lat="44.739365" lon="9.387065"><ele>319.5</ele><time>2026-04-26T09:10:47.016Z</time></trkpt><trkpt lat="44.739305" lon="9.3871033"><ele>323.75</ele><time>2026-04-26T09:10:48.017Z</time></trkpt><trkpt lat="44.7392267" lon="9.3871667"><ele>328.0</ele><time>2026-04-26T09:10:49.016Z</time></trkpt><trkpt lat="44.7390767" lon="9.3872417"><ele>328.0</ele><time>2026-04-26T09:10:50.016Z</time></trkpt><trkpt lat="44.739075" lon="9.387345"><ele>328.0</ele><time>2026-04-26T09:10:51.017Z</time></trkpt><trkpt lat="44.7389117" lon="9.3874417"><ele>328.0</ele><time>2026-04-26T09:10:52.016Z</time></trkpt><trkpt lat="44.7387433" lon="9.3875433"><ele>328.0</ele><time>2026-04-26T09:10:53.017Z</time></trkpt><trkpt lat="44.7385767" lon="9.3876767"><ele>327.3333333333333</ele><time>2026-04-26T09:10:54.016Z</time></trkpt><trkpt lat="44.7384233" lon="9.3878567"><ele>326.6666666666667</ele><time>2026-04-26T09:10:55.016Z</time></trkpt><trkpt lat="44.738275" lon="9.3880683"><ele>326.0</ele><time>2026-04-26T09:10:56.016Z</time></trkpt><trkpt lat="44.7381333" lon="9.38827"><ele>326.0</ele><time>2026-04-26T09:10:57.017Z</time></trkpt><trkpt lat="44.737995" lon="9.3885"><ele>326.0</ele><time>2026-04-26T09:10:58.016Z</time></trkpt><trkpt lat="44.7378417" lon="9.3887083"><ele>326.0</ele><time>2026-04-26T09:10:59.017Z</time></trkpt><trkpt lat="44.73768" lon="9.3889133"><ele>328.33333333333337</ele><time>2026-04-26T09:11:00.017Z</time></trkpt><trkpt lat="44.7375417" lon="9.389115"><ele>330.6666666666667</ele><time>2026-04-26T09:11:01.017Z</time></trkpt><trkpt lat="44.7374067" lon="9.3892683"><ele>333.0</ele><time>2026-04-26T09:11:02.017Z</time></trkpt><trkpt lat="44.7372533" lon="9.3894217"><ele>333.0</ele><time>2026-04-26T09:11:03.017Z</time></trkpt><trkpt lat="44.7370917" lon="9.3895033"><ele>333.0</ele><time>2026-04-26T09:11:04.016Z</time></trkpt><trkpt lat="44.7369117" lon="9.389625"><ele>333.0</ele><time>2026-04-26T09:11:05.017Z</time></trkpt><trkpt lat="44.7367217" lon="9.3896933"><ele>343.3333333333333</ele><time>2026-04-26T09:11:06.016Z</time></trkpt><trkpt lat="44.7365167" lon="9.389735"><ele>353.66666666666663</ele><time>2026-04-26T09:11:07.017Z</time></trkpt><trkpt lat="44.7363117" lon="9.389745"><ele>364.0</ele><time>2026-04-26T09:11:08.017Z</time></trkpt><trkpt lat="44.736115" lon="9.38975"><ele>362.66666666666663</ele><time>2026-04-26T09:11:09.016Z</time></trkpt><trkpt lat="44.735905" lon="9.38974"><ele>361.3333333333333</ele><time>2026-04-26T09:11:10.016Z</time></trkpt><trkpt lat="44.7357117" lon="9.3897267"><ele>360.0</ele><time>2026-04-26T09:11:11.017Z</time></trkpt><trkpt lat="44.7355233" lon="9.389715"><ele>360.0</ele><time>2026-04-26T09:11:12.016Z</time></trkpt><trkpt lat="44.73534" lon="9.389685"><ele>360.0</ele><time>2026-04-26T09:11:13.016Z</time></trkpt><trkpt lat="44.7351483" lon="9.3896417"><ele>360.0</ele><time>2026-04-26T09:11:14.016Z</time></trkpt><trkpt lat="44.7349667" lon="9.38959"><ele>350.0</ele><time>2026-04-26T09:11:15.017Z</time></trkpt><trkpt lat="44.7348033" lon="9.389525"><ele>340.0</ele><time>2026-04-26T09:11:16.017Z</time></trkpt><trkpt lat="44.7346567" lon="9.38945"><ele>330.0</ele><time>2026-04-26T09:11:17.016Z</time></trkpt><trkpt lat="44.7345267" lon="9.3893267"><ele>335.0</ele><time>2026-04-26T09:11:18.017Z</time></trkpt><trkpt lat="44.7343717" lon="9.3892383"><ele>340.0</ele><time>2026-04-26T09:11:19.016Z</time></trkpt><trkpt lat="44.73424" lon="9.3891533"><ele>345.0</ele><time>2026-04-26T09:11:20.016Z</time></trkpt><trkpt lat="44.734085" lon="9.3891183"><ele>345.0</ele><time>2026-04-26T09:11:21.017Z</time></trkpt><trkpt lat="44.7339233" lon="9.3890867"><ele>345.0</ele><time>2026-04-26T09:11:22.017Z</time></trkpt><trkpt lat="44.7337633" lon="9.3890917"><ele>345.0</ele><time>2026-04-26T09:11:23.016Z</time></trkpt><trkpt lat="44.733605" lon="9.3891067"><ele>346.0</ele><time>2026-04-26T09:11:24.017Z</time></trkpt><trkpt lat="44.7334483" lon="9.3891133"><ele>347.0</ele><time>2026-04-26T09:11:25.016Z</time></trkpt><trkpt lat="44.7332883" lon="9.3891033"><ele>348.0</ele><time>2026-04-26T09:11:26.017Z</time></trkpt><trkpt lat="44.7331333" lon="9.389075"><ele>348.0</ele><time>2026-04-26T09:11:27.016Z</time></trkpt><trkpt lat="44.73297" lon="9.3890467"><ele>348.0</ele><time>2026-04-26T09:11:28.016Z</time></trkpt><trkpt lat="44.7328167" lon="9.3890417"><ele>348.0</ele><time>2026-04-26T09:11:29.017Z</time></trkpt><trkpt lat="44.7326733" lon="9.3890433"><ele>353.25</ele><time>2026-04-26T09:11:30.017Z</time></trkpt><trkpt lat="44.73255" lon="9.3890133"><ele>358.5</ele><time>2026-04-26T09:11:31.017Z</time></trkpt><trkpt lat="44.732455" lon="9.3889617"><ele>363.75</ele><time>2026-04-26T09:11:32.016Z</time></trkpt><trkpt lat="44.7323567" lon="9.3888467"><ele>369.0</ele><time>2026-04-26T09:11:33.017Z</time></trkpt><trkpt lat="44.7322567" lon="9.3887267"><ele>362.0</ele><time>2026-04-26T09:11:34.017Z</time></trkpt><trkpt lat="44.7321333" lon="9.3886233"><ele>355.0</ele><time>2026-04-26T09:11:35.016Z</time></trkpt><trkpt lat="44.7320067" lon="9.388525"><ele>348.0</ele><time>2026-04-26T09:11:36.016Z</time></trkpt><trkpt lat="44.73187" lon="9.3884433"><ele>341.0</ele><time>2026-04-26T09:11:37.016Z</time></trkpt><trkpt lat="44.7317233" lon="9.3884033"><ele>341.0</ele><time>2026-04-26T09:11:38.016Z</time></trkpt><trkpt lat="44.7315583" lon="9.388405"><ele>341.0</ele><time>2026-04-26T09:11:39.017Z</time></trkpt><trkpt lat="44.7314283" lon="9.3884133"><ele>341.0</ele><time>2026-04-26T09:11:40.017Z</time></trkpt><trkpt lat="44.7312883" lon="9.3884167"><ele>341.0</ele><time>2026-04-26T09:11:41.016Z</time></trkpt><trkpt lat="44.7311933" lon="9.388445"><ele>341.0</ele><time>2026-04-26T09:11:42.017Z</time></trkpt><trkpt lat="44.7311033" lon="9.3884083"><ele>341.0</ele><time>2026-04-26T09:11:43.016Z</time></trkpt><trkpt lat="44.731015" lon="9.38835"><ele>341.0</ele><time>2026-04-26T09:11:44.016Z</time></trkpt><trkpt lat="44.7309283" lon="9.3882633"><ele>341.0</ele><time>2026-04-26T09:11:45.016Z</time></trkpt><trkpt lat="44.7308317" lon="9.3881817"><ele>341.0</ele><time>2026-04-26T09:11:46.016Z</time></trkpt><trkpt lat="44.7307167" lon="9.3881333"><ele>339.75</ele><time>2026-04-26T09:11:47.016Z</time></trkpt><trkpt lat="44.7305883" lon="9.388105"><ele>338.5</ele><time>2026-04-26T09:11:48.016Z</time></trkpt><trkpt lat="44.73045" lon="9.38806"><ele>337.25</ele><time>2026-04-26T09:11:49.016Z</time></trkpt><trkpt lat="44.73031" lon="9.3880167"><ele>336.0</ele><time>2026-04-26T09:11:50.016Z</time></trkpt><trkpt lat="44.7301733" lon="9.3879367"><ele>336.0</ele><time>2026-04-26T09:11:51.016Z</time></trkpt><trkpt lat="44.730045" lon="9.38783"><ele>336.0</ele><time>2026-04-26T09:11:52.016Z</time></trkpt><trkpt lat="44.7299283" lon="9.3877417"><ele>336.0</ele><time>2026-04-26T09:11:53.016Z</time></trkpt><trkpt lat="44.7298283" lon="9.387665"><ele>336.0</ele><time>2026-04-26T09:11:54.017Z</time></trkpt><trkpt lat="44.7297383" lon="9.3875867"><ele>336.0</ele><time>2026-04-26T09:11:55.017Z</time></trkpt><trkpt lat="44.7296483" lon="9.3874783"><ele>336.0</ele><time>2026-04-26T09:11:56.016Z</time></trkpt><trkpt lat="44.7295517" lon="9.3873617"><ele>336.0</ele><time>2026-04-26T09:11:57.017Z</time></trkpt><trkpt lat="44.7294633" lon="9.387305"><ele>336.0</ele><time>2026-04-26T09:11:58.017Z</time></trkpt><trkpt lat="44.7293617" lon="9.387275"><ele>336.0</ele><time>2026-04-26T09:11:59.016Z</time></trkpt><trkpt lat="44.7292517" lon="9.3872817"><ele>332.8</ele><time>2026-04-26T09:12:00.016Z</time></trkpt><trkpt lat="44.72915" lon="9.387265"><ele>329.6</ele><time>2026-04-26T09:12:01.017Z</time></trkpt><trkpt lat="44.7290433" lon="9.387245"><ele>326.4</ele><time>2026-04-26T09:12:02.016Z</time></trkpt><trkpt lat="44.7289383" lon="9.3872233"><ele>323.2</ele><time>2026-04-26T09:12:03.016Z</time></trkpt><trkpt lat="44.72883" lon="9.3871817"><ele>320.0</ele><time>2026-04-26T09:12:04.017Z</time></trkpt><trkpt lat="44.72874" lon="9.3871017"><ele>320.0</ele><time>2026-04-26T09:12:05.016Z</time></trkpt><trkpt lat="44.7286867" lon="9.3869967"><ele>320.0</ele><time>2026-04-26T09:12:06.016Z</time></trkpt><trkpt lat="44.7286433" lon="9.3868617"><ele>320.0</ele><time>2026-04-26T09:12:07.017Z</time></trkpt><trkpt lat="44.7286067" lon="9.3867283"><ele>320.0</ele><time>2026-04-26T09:12:08.017Z</time></trkpt><trkpt lat="44.7285483" lon="9.386655"><ele>320.0</ele><time>2026-04-26T09:12:09.017Z</time></trkpt><trkpt lat="44.728425" lon="9.3866317"><ele>330.0</ele><time>2026-04-26T09:12:10.016Z</time></trkpt><trkpt lat="44.72828" lon="9.3866317"><ele>340.0</ele><time>2026-04-26T09:12:11.016Z</time></trkpt><trkpt lat="44.7281417" lon="9.38659"><ele>350.0</ele><time>2026-04-26T09:12:12.017Z</time></trkpt><trkpt lat="44.7280067" lon="9.38653"><ele>360.0</ele><time>2026-04-26T09:12:13.017Z</time></trkpt><trkpt lat="44.727865" lon="9.3864683"><ele>351.0</ele><time>2026-04-26T09:12:14.016Z</time></trkpt><trkpt lat="44.727715" lon="9.3863867"><ele>342.0</ele><time>2026-04-26T09:12:15.016Z</time></trkpt><trkpt lat="44.7275767" lon="9.3862817"><ele>333.0</ele><time>2026-04-26T09:12:16.016Z</time></trkpt><trkpt lat="44.7274333" lon="9.3861633"><ele>333.0</ele><time>2026-04-26T09:12:17.016Z</time></trkpt><trkpt lat="44.7272917" lon="9.3860417"><ele>333.0</ele><time>2026-04-26T09:12:18.016Z</time></trkpt><trkpt lat="44.72716" lon="9.38593"><ele>333.0</ele><time>2026-04-26T09:12:19.017Z</time></trkpt><trkpt lat="44.72703" lon="9.3858183"><ele>333.0</ele><time>2026-04-26T09:12:20.016Z</time></trkpt><trkpt lat="44.726925" lon="9.3857"><ele>333.0</ele><time>2026-04-26T09:12:21.016Z</time></trkpt><trkpt lat="44.726815" lon="9.385575"><ele>333.0</ele><time>2026-04-26T09:12:22.017Z</time></trkpt><trkpt lat="44.7267017" lon="9.385475"><ele>333.0</ele><time>2026-04-26T09:12:23.016Z</time></trkpt><trkpt lat="44.72659" lon="9.3854167"><ele>329.79999999999995</ele><time>2026-04-26T09:12:24.017Z</time></trkpt><trkpt lat="44.7264867" lon="9.385365"><ele>326.59999999999997</ele><time>2026-04-26T09:12:25.016Z</time></trkpt><trkpt lat="44.7263917" lon="9.3853"><ele>323.4</ele><time>2026-04-26T09:12:26.017Z</time></trkpt><trkpt lat="44.7263" lon="9.385245"><ele>320.2</ele><time>2026-04-26T09:12:27.017Z</time></trkpt><trkpt lat="44.7262117" lon="9.3852033"><ele>317.0</ele><time>2026-04-26T09:12:28.016Z</time></trkpt><trkpt lat="44.726135" lon="9.3852133"><ele>318.0</ele><time>2026-04-26T09:12:29.017Z</time></trkpt><trkpt lat="44.726045" lon="9.38523"><ele>319.0</ele><time>2026-04-26T09:12:30.017Z</time></trkpt><trkpt lat="44.7260183" lon="9.385425"><ele>320.0</ele><time>2026-04-26T09:12:32.016Z</time></trkpt><trkpt lat="44.7260533" lon="9.3856283"><ele>321.0</ele><time>2026-04-26T09:12:33.016Z</time></trkpt><trkpt lat="44.7262133" lon="9.3859867"><ele>333.0</ele><time>2026-04-26T09:12:34.016Z</time></trkpt><trkpt lat="44.7263033" lon="9.38625"><ele>345.0</ele><time>2026-04-26T09:12:35.017Z</time></trkpt><trkpt lat="44.7263667" lon="9.3864583"><ele>357.0</ele><time>2026-04-26T09:12:36.016Z</time></trkpt><trkpt lat="44.7264167" lon="9.3866667"><ele>361.75</ele><time>2026-04-26T09:12:37.017Z</time></trkpt><trkpt lat="44.726425" lon="9.3868317"><ele>366.5</ele><time>2026-04-26T09:12:38.017Z</time></trkpt><trkpt lat="44.72641" lon="9.38705"><ele>371.25</ele><time>2026-04-26T09:12:39.016Z</time></trkpt><trkpt lat="44.7263633" lon="9.3872533"><ele>376.0</ele><time>2026-04-26T09:12:40.016Z</time></trkpt><trkpt lat="44.7263067" lon="9.3874583"><ele>373.66666666666663</ele><time>2026-04-26T09:12:41.016Z</time></trkpt><trkpt lat="44.7262167" lon="9.387685"><ele>371.3333333333333</ele><time>2026-04-26T09:12:42.016Z</time></trkpt><trkpt lat="44.7261167" lon="9.387885"><ele>369.0</ele><time>2026-04-26T09:12:43.016Z</time></trkpt><trkpt lat="44.7259933" lon="9.3880633"><ele>369.0</ele><time>2026-04-26T09:12:44.016Z</time></trkpt><trkpt lat="44.7258717" lon="9.38822"><ele>369.0</ele><time>2026-04-26T09:12:45.016Z</time></trkpt><trkpt lat="44.72577" lon="9.3883833"><ele>369.0</ele><time>2026-04-26T09:12:46.017Z</time></trkpt><trkpt lat="44.725645" lon="9.3885233"><ele>369.0</ele><time>2026-04-26T09:12:47.016Z</time></trkpt><trkpt lat="44.72551" lon="9.3886367"><ele>369.0</ele><time>2026-04-26T09:12:48.017Z</time></trkpt><trkpt lat="44.7253783" lon="9.3887333"><ele>369.0</ele><time>2026-04-26T09:12:49.017Z</time></trkpt><trkpt lat="44.725245" lon="9.38883"><ele>366.0</ele><time>2026-04-26T09:12:50.016Z</time></trkpt><trkpt lat="44.7251217" lon="9.3889133"><ele>363.0</ele><time>2026-04-26T09:12:51.017Z</time></trkpt><trkpt lat="44.7249983" lon="9.389015"><ele>360.0</ele><time>2026-04-26T09:12:52.017Z</time></trkpt><trkpt lat="44.724885" lon="9.389135"><ele>357.0</ele><time>2026-04-26T09:12:53.016Z</time></trkpt><trkpt lat="44.72482" lon="9.38931"><ele>357.0</ele><time>2026-04-26T09:12:54.017Z</time></trkpt><trkpt lat="44.724765" lon="9.3894933"><ele>357.0</ele><time>2026-04-26T09:12:55.017Z</time></trkpt><trkpt lat="44.7247033" lon="9.3896483"><ele>357.0</ele><time>2026-04-26T09:12:56.016Z</time></trkpt><trkpt lat="44.7246633" lon="9.3898467"><ele>357.0</ele><time>2026-04-26T09:12:57.016Z</time></trkpt><trkpt lat="44.7246833" lon="9.39009"><ele>357.5</ele><time>2026-04-26T09:12:58.017Z</time></trkpt><trkpt lat="44.72472" lon="9.3902583"><ele>358.0</ele><time>2026-04-26T09:12:59.016Z</time></trkpt><trkpt lat="44.72482" lon="9.390385"><ele>358.5</ele><time>2026-04-26T09:13:00.016Z</time></trkpt><trkpt lat="44.7248917" lon="9.3905083"><ele>359.0</ele><time>2026-04-26T09:13:01.017Z</time></trkpt><trkpt lat="44.724915" lon="9.39065"><ele>359.75</ele><time>2026-04-26T09:13:02.017Z</time></trkpt><trkpt lat="44.7249017" lon="9.3908133"><ele>360.5</ele><time>2026-04-26T09:13:03.016Z</time></trkpt><trkpt lat="44.724855" lon="9.391"><ele>361.25</ele><time>2026-04-26T09:13:04.017Z</time></trkpt><trkpt lat="44.72479" lon="9.3912"><ele>362.0</ele><time>2026-04-26T09:13:05.017Z</time></trkpt><trkpt lat="44.724725" lon="9.3914017"><ele>362.0</ele><time>2026-04-26T09:13:06.017Z</time></trkpt><trkpt lat="44.72467" lon="9.3916033"><ele>362.0</ele><time>2026-04-26T09:13:07.016Z</time></trkpt><trkpt lat="44.7246083" lon="9.39178"><ele>362.0</ele><time>2026-04-26T09:13:08.016Z</time></trkpt><trkpt lat="44.7245533" lon="9.3919683"><ele>362.0</ele><time>2026-04-26T09:13:09.016Z</time></trkpt><trkpt lat="44.7245133" lon="9.392165"><ele>366.25</ele><time>2026-04-26T09:13:10.016Z</time></trkpt><trkpt lat="44.7244283" lon="9.39231"><ele>370.5</ele><time>2026-04-26T09:13:11.016Z</time></trkpt><trkpt lat="44.7243383" lon="9.39246"><ele>374.75</ele><time>2026-04-26T09:13:12.017Z</time></trkpt><trkpt lat="44.72421" lon="9.3926"><ele>379.0</ele><time>2026-04-26T09:13:13.016Z</time></trkpt><trkpt lat="44.7240867" lon="9.3927467"><ele>375.75</ele><time>2026-04-26T09:13:14.017Z</time></trkpt><trkpt lat="44.7239967" lon="9.3929167"><ele>372.5</ele><time>2026-04-26T09:13:15.016Z</time></trkpt><trkpt lat="44.7239183" lon="9.3930983"><ele>369.25</ele><time>2026-04-26T09:13:16.016Z</time></trkpt><trkpt lat="44.7238433" lon="9.3932583"><ele>366.0</ele><time>2026-04-26T09:13:17.017Z</time></trkpt><trkpt lat="44.7237567" lon="9.393425"><ele>366.0</ele><time>2026-04-26T09:13:18.017Z</time></trkpt><trkpt lat="44.7236267" lon="9.3935567"><ele>366.0</ele><time>2026-04-26T09:13:19.016Z</time></trkpt><trkpt lat="44.723525" lon="9.3937033"><ele>366.0</ele><time>2026-04-26T09:13:20.017Z</time></trkpt><trkpt lat="44.7233983" lon="9.3938467"><ele>366.6666666666667</ele><time>2026-04-26T09:13:21.017Z</time></trkpt><trkpt lat="44.7232317" lon="9.3939483"><ele>367.33333333333337</ele><time>2026-04-26T09:13:22.016Z</time></trkpt><trkpt lat="44.723055" lon="9.39403"><ele>368.0</ele><time>2026-04-26T09:13:23.017Z</time></trkpt><trkpt lat="44.72289" lon="9.394085"><ele>368.0</ele><time>2026-04-26T09:13:24.016Z</time></trkpt><trkpt lat="44.7227483" lon="9.3941367"><ele>368.0</ele><time>2026-04-26T09:13:25.017Z</time></trkpt><trkpt lat="44.722635" lon="9.3942183"><ele>368.0</ele><time>2026-04-26T09:13:26.016Z</time></trkpt><trkpt lat="44.72255" lon="9.3943267"><ele>368.0</ele><time>2026-04-26T09:13:27.016Z</time></trkpt><trkpt lat="44.722475" lon="9.3944233"><ele>363.33333333333337</ele><time>2026-04-26T09:13:28.016Z</time></trkpt><trkpt lat="44.7223717" lon="9.39451"><ele>358.6666666666667</ele><time>2026-04-26T09:13:29.016Z</time></trkpt><trkpt lat="44.7223017" lon="9.3945833"><ele>354.0</ele><time>2026-04-26T09:13:30.017Z</time></trkpt><trkpt lat="44.7222233" lon="9.3945833"><ele>349.3333333333333</ele><time>2026-04-26T09:13:32.016Z</time></trkpt><trkpt lat="44.7221583" lon="9.3945733"><ele>344.66666666666663</ele><time>2026-04-26T09:13:33.016Z</time></trkpt><trkpt lat="44.7221117" lon="9.3944717"><ele>340.0</ele><time>2026-04-26T09:13:34.016Z</time></trkpt><trkpt lat="44.7220533" lon="9.3943883"><ele>340.0</ele><time>2026-04-26T09:13:35.017Z</time></trkpt><trkpt lat="44.7219983" lon="9.3942917"><ele>340.0</ele><time>2026-04-26T09:13:36.016Z</time></trkpt><trkpt lat="44.72187" lon="9.3941933"><ele>340.0</ele><time>2026-04-26T09:13:37.017Z</time></trkpt><trkpt lat="44.7217417" lon="9.3940317"><ele>340.0</ele><time>2026-04-26T09:13:38.016Z</time></trkpt><trkpt lat="44.72163" lon="9.3939633"><ele>339.4</ele><time>2026-04-26T09:13:39.016Z</time></trkpt><trkpt lat="44.7215217" lon="9.3939283"><ele>338.8</ele><time>2026-04-26T09:13:40.017Z</time></trkpt><trkpt lat="44.7214067" lon="9.3939167"><ele>338.20000000000005</ele><time>2026-04-26T09:13:41.017Z</time></trkpt><trkpt lat="44.7213033" lon="9.3939533"><ele>337.6</ele><time>2026-04-26T09:13:42.016Z</time></trkpt><trkpt lat="44.7212817" lon="9.394085"><ele>337.0</ele><time>2026-04-26T09:13:43.017Z</time></trkpt><trkpt lat="44.7212033" lon="9.3942383"><ele>337.0</ele><time>2026-04-26T09:13:44.016Z</time></trkpt><trkpt lat="44.7211517" lon="9.3944417"><ele>337.0</ele><time>2026-04-26T09:13:45.017Z</time></trkpt><trkpt lat="44.7210867" lon="9.394615"><ele>337.0</ele><time>2026-04-26T09:13:46.016Z</time></trkpt><trkpt lat="44.7210033" lon="9.39477"><ele>337.0</ele><time>2026-04-26T09:13:47.017Z</time></trkpt><trkpt lat="44.7209117" lon="9.3948767"><ele>340.0</ele><time>2026-04-26T09:13:48.016Z</time></trkpt><trkpt lat="44.7208167" lon="9.3949433"><ele>343.0</ele><time>2026-04-26T09:13:49.017Z</time></trkpt><trkpt lat="44.7206967" lon="9.3949983"><ele>346.0</ele><time>2026-04-26T09:13:50.017Z</time></trkpt><trkpt lat="44.7205817" lon="9.3950217"><ele>349.0</ele><time>2026-04-26T09:13:51.016Z</time></trkpt><trkpt lat="44.7204817" lon="9.3949983"><ele>349.0</ele><time>2026-04-26T09:13:52.017Z</time></trkpt><trkpt lat="44.7204033" lon="9.3949633"><ele>349.0</ele><time>2026-04-26T09:13:53.017Z</time></trkpt><trkpt lat="44.7203217" lon="9.3948633"><ele>349.0</ele><time>2026-04-26T09:13:54.016Z</time></trkpt><trkpt lat="44.7202717" lon="9.394725"><ele>349.0</ele><time>2026-04-26T09:13:55.016Z</time></trkpt><trkpt lat="44.7202683" lon="9.3945667"><ele>349.0</ele><time>2026-04-26T09:13:56.017Z</time></trkpt><trkpt lat="44.7202667" lon="9.39442"><ele>341.0</ele><time>2026-04-26T09:13:57.016Z</time></trkpt><trkpt lat="44.7203317" lon="9.3941783"><ele>333.0</ele><time>2026-04-26T09:13:58.016Z</time></trkpt><trkpt lat="44.7204983" lon="9.3940183"><ele>325.0</ele><time>2026-04-26T09:13:59.017Z</time></trkpt><trkpt lat="44.7205767" lon="9.39387"><ele>325.5</ele><time>2026-04-26T09:14:00.017Z</time></trkpt><trkpt lat="44.72066" lon="9.3937017"><ele>326.0</ele><time>2026-04-26T09:14:01.016Z</time></trkpt><trkpt lat="44.7207117" lon="9.393535"><ele>326.5</ele><time>2026-04-26T09:14:02.016Z</time></trkpt><trkpt lat="44.7207583" lon="9.3933667"><ele>327.0</ele><time>2026-04-26T09:14:03.016Z</time></trkpt><trkpt lat="44.72083" lon="9.3931717"><ele>325.75</ele><time>2026-04-26T09:14:04.016Z</time></trkpt><trkpt lat="44.7208517" lon="9.392985"><ele>324.5</ele><time>2026-04-26T09:14:05.016Z</time></trkpt><trkpt lat="44.7207917" lon="9.39284"><ele>323.25</ele><time>2026-04-26T09:14:06.016Z</time></trkpt><trkpt lat="44.72074" lon="9.39268"><ele>322.0</ele><time>2026-04-26T09:14:07.017Z</time></trkpt><trkpt lat="44.7206667" lon="9.3924867"><ele>322.0</ele><time>2026-04-26T09:14:08.016Z</time></trkpt><trkpt lat="44.7205817" lon="9.3922783"><ele>322.0</ele><time>2026-04-26T09:14:09.017Z</time></trkpt><trkpt lat="44.720525" lon="9.3920533"><ele>322.0</ele><time>2026-04-26T09:14:10.017Z</time></trkpt><trkpt lat="44.7204533" lon="9.3918317"><ele>317.66666666666663</ele><time>2026-04-26T09:14:11.016Z</time></trkpt><trkpt lat="44.72039" lon="9.391595"><ele>313.3333333333333</ele><time>2026-04-26T09:14:12.017Z</time></trkpt><trkpt lat="44.7203383" lon="9.39136"><ele>309.0</ele><time>2026-04-26T09:14:13.016Z</time></trkpt><trkpt lat="44.7202967" lon="9.3911117"><ele>307.0</ele><time>2026-04-26T09:14:14.017Z</time></trkpt><trkpt lat="44.72026" lon="9.39088"><ele>305.0</ele><time>2026-04-26T09:14:15.016Z</time></trkpt><trkpt lat="44.7202333" lon="9.3906733"><ele>303.0</ele><time>2026-04-26T09:14:16.016Z</time></trkpt><trkpt lat="44.7202067" lon="9.3904817"><ele>307.0</ele><time>2026-04-26T09:14:17.016Z</time></trkpt><trkpt lat="44.7201833" lon="9.3902933"><ele>311.0</ele><time>2026-04-26T09:14:18.016Z</time></trkpt><trkpt lat="44.7201483" lon="9.390125"><ele>315.0</ele><time>2026-04-26T09:14:19.016Z</time></trkpt><trkpt lat="44.7200183" lon="9.3900483"><ele>319.0</ele><time>2026-04-26T09:14:20.017Z</time></trkpt><trkpt lat="44.71988" lon="9.3899783"><ele>319.0</ele><time>2026-04-26T09:14:21.016Z</time></trkpt><trkpt lat="44.719745" lon="9.3899217"><ele>319.0</ele><time>2026-04-26T09:14:22.017Z</time></trkpt><trkpt lat="44.7195917" lon="9.3898767"><ele>319.0</ele><time>2026-04-26T09:14:23.017Z</time></trkpt><trkpt lat="44.7194233" lon="9.3898717"><ele>320.0</ele><time>2026-04-26T09:14:24.017Z</time></trkpt><trkpt lat="44.7192633" lon="9.389905"><ele>321.0</ele><time>2026-04-26T09:14:25.017Z</time></trkpt><trkpt lat="44.7191333" lon="9.38996"><ele>322.0</ele><time>2026-04-26T09:14:26.016Z</time></trkpt><trkpt lat="44.71901" lon="9.3900317"><ele>323.0</ele><time>2026-04-26T09:14:27.017Z</time></trkpt><trkpt lat="44.7188933" lon="9.3901133"><ele>323.0</ele><time>2026-04-26T09:14:28.017Z</time></trkpt><trkpt lat="44.7187517" lon="9.3901767"><ele>323.0</ele><time>2026-04-26T09:14:29.017Z</time></trkpt><trkpt lat="44.7186067" lon="9.3902133"><ele>323.0</ele><time>2026-04-26T09:14:30.016Z</time></trkpt><trkpt lat="44.71846" lon="9.3902133"><ele>323.0</ele><time>2026-04-26T09:14:31.017Z</time></trkpt><trkpt lat="44.7183083" lon="9.3901933"><ele>323.6666666666667</ele><time>2026-04-26T09:14:32.017Z</time></trkpt><trkpt lat="44.71814" lon="9.39017"><ele>324.3333333333333</ele><time>2026-04-26T09:14:33.016Z</time></trkpt><trkpt lat="44.71798" lon="9.3901283"><ele>325.0</ele><time>2026-04-26T09:14:34.017Z</time></trkpt><trkpt lat="44.7178167" lon="9.3901083"><ele>327.3333333333333</ele><time>2026-04-26T09:14:35.017Z</time></trkpt><trkpt lat="44.71766" lon="9.39008"><ele>329.6666666666667</ele><time>2026-04-26T09:14:36.016Z</time></trkpt><trkpt lat="44.71749" lon="9.3900583"><ele>332.0</ele><time>2026-04-26T09:14:37.017Z</time></trkpt><trkpt lat="44.71731" lon="9.3900017"><ele>332.0</ele><time>2026-04-26T09:14:38.016Z</time></trkpt><trkpt lat="44.7171333" lon="9.3899217"><ele>332.0</ele><time>2026-04-26T09:14:39.016Z</time></trkpt><trkpt lat="44.7169667" lon="9.38986"><ele>332.0</ele><time>2026-04-26T09:14:40.017Z</time></trkpt><trkpt lat="44.7167983" lon="9.38978"><ele>325.33333333333337</ele><time>2026-04-26T09:14:41.017Z</time></trkpt><trkpt lat="44.716645" lon="9.389665"><ele>318.6666666666667</ele><time>2026-04-26T09:14:42.016Z</time></trkpt><trkpt lat="44.71649" lon="9.38954"><ele>312.0</ele><time>2026-04-26T09:14:43.016Z</time></trkpt><trkpt lat="44.7163533" lon="9.38942"><ele>312.0</ele><time>2026-04-26T09:14:44.016Z</time></trkpt><trkpt lat="44.7162333" lon="9.3893017"><ele>312.0</ele><time>2026-04-26T09:14:45.016Z</time></trkpt><trkpt lat="44.7161267" lon="9.38919"><ele>312.0</ele><time>2026-04-26T09:14:46.016Z</time></trkpt><trkpt lat="44.716025" lon="9.38906"><ele>312.0</ele><time>2026-04-26T09:14:47.016Z</time></trkpt><trkpt lat="44.7159267" lon="9.3889317"><ele>315.0</ele><time>2026-04-26T09:14:48.017Z</time></trkpt><trkpt lat="44.71585" lon="9.3887867"><ele>318.0</ele><time>2026-04-26T09:14:49.016Z</time></trkpt><trkpt lat="44.7157733" lon="9.388625"><ele>321.0</ele><time>2026-04-26T09:14:50.017Z</time></trkpt><trkpt lat="44.7157083" lon="9.38845"><ele>324.0</ele><time>2026-04-26T09:14:51.016Z</time></trkpt><trkpt lat="44.71564" lon="9.388265"><ele>324.0</ele><time>2026-04-26T09:14:52.017Z</time></trkpt><trkpt lat="44.7155733" lon="9.3880567"><ele>324.0</ele><time>2026-04-26T09:14:53.017Z</time></trkpt><trkpt lat="44.7155067" lon="9.3879033"><ele>324.0</ele><time>2026-04-26T09:14:54.016Z</time></trkpt><trkpt lat="44.7154017" lon="9.3876733"><ele>324.5</ele><time>2026-04-26T09:14:55.016Z</time></trkpt><trkpt lat="44.715305" lon="9.3875233"><ele>325.0</ele><time>2026-04-26T09:14:56.016Z</time></trkpt><trkpt lat="44.71522" lon="9.3873667"><ele>325.5</ele><time>2026-04-26T09:14:57.017Z</time></trkpt><trkpt lat="44.7151317" lon="9.38725"><ele>326.0</ele><time>2026-04-26T09:14:58.017Z</time></trkpt><trkpt lat="44.7150617" lon="9.3870617"><ele>326.0</ele><time>2026-04-26T09:14:59.016Z</time></trkpt><trkpt lat="44.7149767" lon="9.3868717"><ele>326.0</ele><time>2026-04-26T09:15:00.016Z</time></trkpt><trkpt lat="44.7149333" lon="9.3866817"><ele>326.0</ele><time>2026-04-26T09:15:01.015Z</time></trkpt><trkpt lat="44.7148717" lon="9.386475"><ele>322.33333333333337</ele><time>2026-04-26T09:15:02.016Z</time></trkpt><trkpt lat="44.7148133" lon="9.3862417"><ele>318.6666666666667</ele><time>2026-04-26T09:15:03.016Z</time></trkpt><trkpt lat="44.7147433" lon="9.386005"><ele>315.0</ele><time>2026-04-26T09:15:04.015Z</time></trkpt><trkpt lat="44.7146633" lon="9.385795"><ele>315.0</ele><time>2026-04-26T09:15:05.015Z</time></trkpt><trkpt lat="44.7146167" lon="9.3855933"><ele>315.0</ele><time>2026-04-26T09:15:06.015Z</time></trkpt><trkpt lat="44.7145433" lon="9.3853883"><ele>315.0</ele><time>2026-04-26T09:15:07.016Z</time></trkpt><trkpt lat="44.7144867" lon="9.385185"><ele>312.6666666666667</ele><time>2026-04-26T09:15:08.016Z</time></trkpt><trkpt lat="44.7144667" lon="9.3849833"><ele>310.33333333333337</ele><time>2026-04-26T09:15:09.016Z</time></trkpt><trkpt lat="44.7144317" lon="9.3847717"><ele>308.0</ele><time>2026-04-26T09:15:10.015Z</time></trkpt><trkpt lat="44.7144117" lon="9.3845583"><ele>308.0</ele><time>2026-04-26T09:15:11.016Z</time></trkpt><trkpt lat="44.7144167" lon="9.3843483"><ele>308.0</ele><time>2026-04-26T09:15:12.016Z</time></trkpt><trkpt lat="44.7144317" lon="9.3841367"><ele>308.0</ele><time>2026-04-26T09:15:13.015Z</time></trkpt><trkpt lat="44.7144883" lon="9.3839583"><ele>308.0</ele><time>2026-04-26T09:15:14.016Z</time></trkpt><trkpt lat="44.7145117" lon="9.383785"><ele>309.0</ele><time>2026-04-26T09:15:15.015Z</time></trkpt><trkpt lat="44.714535" lon="9.3836233"><ele>310.0</ele><time>2026-04-26T09:15:16.016Z</time></trkpt><trkpt lat="44.71452" lon="9.3834483"><ele>311.0</ele><time>2026-04-26T09:15:17.015Z</time></trkpt><trkpt lat="44.7144883" lon="9.3832867"><ele>312.0</ele><time>2026-04-26T09:15:18.016Z</time></trkpt><trkpt lat="44.71444" lon="9.3831217"><ele>313.25</ele><time>2026-04-26T09:15:19.015Z</time></trkpt><trkpt lat="44.714365" lon="9.382965"><ele>314.5</ele><time>2026-04-26T09:15:20.016Z</time></trkpt><trkpt lat="44.714265" lon="9.3828283"><ele>315.75</ele><time>2026-04-26T09:15:21.016Z</time></trkpt><trkpt lat="44.714165" lon="9.3827083"><ele>317.0</ele><time>2026-04-26T09:15:22.016Z</time></trkpt><trkpt lat="44.7140733" lon="9.3825983"><ele>317.0</ele><time>2026-04-26T09:15:23.015Z</time></trkpt><trkpt lat="44.7140067" lon="9.3824833"><ele>317.0</ele><time>2026-04-26T09:15:24.015Z</time></trkpt><trkpt lat="44.7139483" lon="9.3823517"><ele>317.0</ele><time>2026-04-26T09:15:25.015Z</time></trkpt><trkpt lat="44.7139067" lon="9.3821817"><ele>317.0</ele><time>2026-04-26T09:15:26.016Z</time></trkpt><trkpt lat="44.7138867" lon="9.3820067"><ele>316.25</ele><time>2026-04-26T09:15:27.015Z</time></trkpt><trkpt lat="44.71387" lon="9.3818283"><ele>315.5</ele><time>2026-04-26T09:15:28.015Z</time></trkpt><trkpt lat="44.7138533" lon="9.3816533"><ele>314.75</ele><time>2026-04-26T09:15:29.016Z</time></trkpt><trkpt lat="44.7138433" lon="9.38149"><ele>314.0</ele><time>2026-04-26T09:15:30.016Z</time></trkpt><trkpt lat="44.7138233" lon="9.381315"><ele>314.0</ele><time>2026-04-26T09:15:31.015Z</time></trkpt><trkpt lat="44.7138017" lon="9.3811567"><ele>314.0</ele><time>2026-04-26T09:15:32.016Z</time></trkpt><trkpt lat="44.7137667" lon="9.3810017"><ele>314.0</ele><time>2026-04-26T09:15:33.015Z</time></trkpt><trkpt lat="44.7137217" lon="9.3808617"><ele>314.0</ele><time>2026-04-26T09:15:34.016Z</time></trkpt><trkpt lat="44.713665" lon="9.3807467"><ele>314.0</ele><time>2026-04-26T09:15:35.015Z</time></trkpt><trkpt lat="44.71359" lon="9.3806483"><ele>315.0</ele><time>2026-04-26T09:15:36.016Z</time></trkpt><trkpt lat="44.71352" lon="9.3805617"><ele>316.0</ele><time>2026-04-26T09:15:37.015Z</time></trkpt><trkpt lat="44.7134417" lon="9.38047"><ele>317.0</ele><time>2026-04-26T09:15:38.016Z</time></trkpt><trkpt lat="44.713375" lon="9.3803783"><ele>318.0</ele><time>2026-04-26T09:15:39.016Z</time></trkpt><trkpt lat="44.7132983" lon="9.3803033"><ele>319.0</ele><time>2026-04-26T09:15:40.016Z</time></trkpt><trkpt lat="44.7132267" lon="9.380215"><ele>319.0</ele><time>2026-04-26T09:15:41.016Z</time></trkpt><trkpt lat="44.7131383" lon="9.3801683"><ele>319.0</ele><time>2026-04-26T09:15:42.016Z</time></trkpt><trkpt lat="44.7130583" lon="9.380135"><ele>319.0</ele><time>2026-04-26T09:15:43.016Z</time></trkpt><trkpt lat="44.71297" lon="9.3801183"><ele>319.0</ele><time>2026-04-26T09:15:44.015Z</time></trkpt><trkpt lat="44.7128767" lon="9.38014"><ele>319.0</ele><time>2026-04-26T09:15:45.015Z</time></trkpt><trkpt lat="44.7127783" lon="9.3801783"><ele>319.5</ele><time>2026-04-26T09:15:46.015Z</time></trkpt><trkpt lat="44.712695" lon="9.380235"><ele>320.0</ele><time>2026-04-26T09:15:47.015Z</time></trkpt><trkpt lat="44.71261" lon="9.3802817"><ele>320.5</ele><time>2026-04-26T09:15:48.015Z</time></trkpt><trkpt lat="44.712535" lon="9.3803067"><ele>321.0</ele><time>2026-04-26T09:15:49.016Z</time></trkpt><trkpt lat="44.7124683" lon="9.380325"><ele>321.5</ele><time>2026-04-26T09:15:50.016Z</time></trkpt><trkpt lat="44.7123817" lon="9.3804017"><ele>322.0</ele><time>2026-04-26T09:15:52.016Z</time></trkpt><trkpt lat="44.7123017" lon="9.3804967"><ele>322.8</ele><time>2026-04-26T09:15:54.016Z</time></trkpt><trkpt lat="44.71224" lon="9.3806483"><ele>323.6</ele><time>2026-04-26T09:15:56.016Z</time></trkpt><trkpt lat="44.7122217" lon="9.3807633"><ele>324.40000000000003</ele><time>2026-04-26T09:15:57.015Z</time></trkpt><trkpt lat="44.712205" lon="9.38088"><ele>325.20000000000005</ele><time>2026-04-26T09:15:58.016Z</time></trkpt><trkpt lat="44.7122283" lon="9.38105"><ele>326.0</ele><time>2026-04-26T09:15:59.016Z</time></trkpt><trkpt lat="44.712255" lon="9.3812267"><ele>327.4</ele><time>2026-04-26T09:16:00.016Z</time></trkpt><trkpt lat="44.7122433" lon="9.3813783"><ele>328.8</ele><time>2026-04-26T09:16:01.016Z</time></trkpt><trkpt lat="44.7122367" lon="9.38154"><ele>330.2</ele><time>2026-04-26T09:16:02.015Z</time></trkpt><trkpt lat="44.7122133" lon="9.3816917"><ele>331.59999999999997</ele><time>2026-04-26T09:16:03.016Z</time></trkpt><trkpt lat="44.71219" lon="9.381835"><ele>333.0</ele><time>2026-04-26T09:16:04.015Z</time></trkpt><trkpt lat="44.7121717" lon="9.3819617"><ele>333.0</ele><time>2026-04-26T09:16:05.016Z</time></trkpt><trkpt lat="44.7121383" lon="9.3820817"><ele>333.0</ele><time>2026-04-26T09:16:06.016Z</time></trkpt><trkpt lat="44.7121017" lon="9.3821633"><ele>333.0</ele><time>2026-04-26T09:16:07.015Z</time></trkpt><trkpt lat="44.7120633" lon="9.3822617"><ele>333.0</ele><time>2026-04-26T09:16:09.015Z</time></trkpt><trkpt lat="44.7121483" lon="9.38217"><ele>333.0</ele><time>2026-04-26T09:16:15.015Z</time></trkpt><trkpt lat="44.7121717" lon="9.3820417"><ele>333.0</ele><time>2026-04-26T09:16:16.016Z</time></trkpt><trkpt lat="44.7122183" lon="9.3818867"><ele>333.0</ele><time>2026-04-26T09:16:17.015Z</time></trkpt><trkpt lat="44.7122567" lon="9.381705"><ele>333.0</ele><time>2026-04-26T09:16:18.015Z</time></trkpt><trkpt lat="44.7122767" lon="9.3815183"><ele>333.0</ele><time>2026-04-26T09:16:19.015Z</time></trkpt><trkpt lat="44.7122867" lon="9.3813467"><ele>333.0</ele><time>2026-04-26T09:16:20.016Z</time></trkpt><trkpt lat="44.712255" lon="9.381155"><ele>331.59999999999997</ele><time>2026-04-26T09:16:21.015Z</time></trkpt><trkpt lat="44.71224" lon="9.38098"><ele>330.2</ele><time>2026-04-26T09:16:22.016Z</time></trkpt><trkpt lat="44.71225" lon="9.3808317"><ele>328.8</ele><time>2026-04-26T09:16:23.016Z</time></trkpt><trkpt lat="44.7122633" lon="9.38069"><ele>327.4</ele><time>2026-04-26T09:16:24.015Z</time></trkpt><trkpt lat="44.7122617" lon="9.38055"><ele>326.0</ele><time>2026-04-26T09:16:25.015Z</time></trkpt><trkpt lat="44.7122667" lon="9.38042"><ele>325.20000000000005</ele><time>2026-04-26T09:16:26.015Z</time></trkpt><trkpt lat="44.7122583" lon="9.3803117"><ele>324.40000000000003</ele><time>2026-04-26T09:16:27.016Z</time></trkpt><trkpt lat="44.7123267" lon="9.3801983"><ele>323.6</ele><time>2026-04-26T09:16:29.015Z</time></trkpt><trkpt lat="44.7124533" lon="9.38018"><ele>322.8</ele><time>2026-04-26T09:16:31.016Z</time></trkpt><trkpt lat="44.7125183" lon="9.3801717"><ele>322.0</ele><time>2026-04-26T09:16:32.016Z</time></trkpt><trkpt lat="44.7126017" lon="9.3802017"><ele>322.0</ele><time>2026-04-26T09:16:33.016Z</time></trkpt><trkpt lat="44.7126817" lon="9.3802267"><ele>322.0</ele><time>2026-04-26T09:16:35.015Z</time></trkpt><trkpt lat="44.7127667" lon="9.3802033"><ele>322.0</ele><time>2026-04-26T09:16:49.015Z</time></trkpt><trkpt lat="44.7126733" lon="9.3802883"><ele>322.0</ele><time>2026-04-26T09:16:52.016Z</time></trkpt><trkpt lat="44.71261" lon="9.3803817"><ele>322.0</ele><time>2026-04-26T09:16:54.016Z</time></trkpt><trkpt lat="44.71253" lon="9.3804583"><ele>322.0</ele><time>2026-04-26T09:16:57.016Z</time></trkpt><trkpt lat="44.71246" lon="9.38051"><ele>322.0</ele><time>2026-04-26T09:17:00.016Z</time></trkpt><trkpt lat="44.7123217" lon="9.3804767"><ele>322.0</ele><time>2026-04-26T09:17:59.016Z</time></trkpt><trkpt lat="44.712265" lon="9.380615"><ele>322.0</ele><time>2026-04-26T09:18:01.016Z</time></trkpt><trkpt lat="44.71223" lon="9.38069"><ele>322.0</ele><time>2026-04-26T09:18:02.016Z</time></trkpt><trkpt lat="44.7122033" lon="9.3808083"><ele>322.8</ele><time>2026-04-26T09:18:03.015Z</time></trkpt><trkpt lat="44.71217" lon="9.380935"><ele>323.6</ele><time>2026-04-26T09:18:04.015Z</time></trkpt><trkpt lat="44.7121433" lon="9.3810983"><ele>324.40000000000003</ele><time>2026-04-26T09:18:05.015Z</time></trkpt><trkpt lat="44.7121267" lon="9.381245"><ele>325.20000000000005</ele><time>2026-04-26T09:18:06.015Z</time></trkpt><trkpt lat="44.7121033" lon="9.38139"><ele>326.0</ele><time>2026-04-26T09:18:07.015Z</time></trkpt><trkpt lat="44.7120833" lon="9.3815417"><ele>327.75</ele><time>2026-04-26T09:18:08.016Z</time></trkpt><trkpt lat="44.7120633" lon="9.38169"><ele>329.5</ele><time>2026-04-26T09:18:09.015Z</time></trkpt><trkpt lat="44.7120683" lon="9.3818617"><ele>331.25</ele><time>2026-04-26T09:18:10.015Z</time></trkpt><trkpt lat="44.7120733" lon="9.3820283"><ele>333.0</ele><time>2026-04-26T09:18:11.016Z</time></trkpt><trkpt lat="44.7120617" lon="9.3821917"><ele>333.79999999999995</ele><time>2026-04-26T09:18:12.016Z</time></trkpt><trkpt lat="44.7120517" lon="9.3823467"><ele>334.6</ele><time>2026-04-26T09:18:13.016Z</time></trkpt><trkpt lat="44.7120283" lon="9.3824733"><ele>335.4</ele><time>2026-04-26T09:18:14.015Z</time></trkpt><trkpt lat="44.7120267" lon="9.3826033"><ele>336.20000000000005</ele><time>2026-04-26T09:18:15.015Z</time></trkpt><trkpt lat="44.71206" lon="9.3827217"><ele>337.0</ele><time>2026-04-26T09:18:16.016Z</time></trkpt><trkpt lat="44.7120933" lon="9.3828383"><ele>337.0</ele><time>2026-04-26T09:18:17.015Z</time></trkpt><trkpt lat="44.7121467" lon="9.3829517"><ele>337.0</ele><time>2026-04-26T09:18:18.015Z</time></trkpt><trkpt lat="44.7121833" lon="9.3830667"><ele>337.0</ele><time>2026-04-26T09:18:19.016Z</time></trkpt><trkpt lat="44.71222" lon="9.3831717"><ele>337.0</ele><time>2026-04-26T09:18:20.015Z</time></trkpt><trkpt lat="44.7122417" lon="9.3832933"><ele>337.0</ele><time>2026-04-26T09:18:21.016Z</time></trkpt><trkpt lat="44.71225" lon="9.3834217"><ele>338.40000000000003</ele><time>2026-04-26T09:18:22.015Z</time></trkpt><trkpt lat="44.7122983" lon="9.38354"><ele>339.8</ele><time>2026-04-26T09:18:23.015Z</time></trkpt><trkpt lat="44.712315" lon="9.3836967"><ele>341.2</ele><time>2026-04-26T09:18:24.016Z</time></trkpt><trkpt lat="44.7123217" lon="9.38387"><ele>342.6</ele><time>2026-04-26T09:18:25.015Z</time></trkpt><trkpt lat="44.7123117" lon="9.384025"><ele>344.0</ele><time>2026-04-26T09:18:26.015Z</time></trkpt><trkpt lat="44.712295" lon="9.3841683"><ele>346.0</ele><time>2026-04-26T09:18:27.015Z</time></trkpt><trkpt lat="44.712275" lon="9.3843167"><ele>348.0</ele><time>2026-04-26T09:18:28.016Z</time></trkpt><trkpt lat="44.7122417" lon="9.3844667"><ele>350.0</ele><time>2026-04-26T09:18:29.015Z</time></trkpt><trkpt lat="44.712195" lon="9.3846133"><ele>352.0</ele><time>2026-04-26T09:18:30.015Z</time></trkpt><trkpt lat="44.71206" lon="9.38471"><ele>352.0</ele><time>2026-04-26T09:18:31.016Z</time></trkpt><trkpt lat="44.7119133" lon="9.3847883"><ele>352.0</ele><time>2026-04-26T09:18:32.015Z</time></trkpt><trkpt lat="44.7117667" lon="9.384875"><ele>352.0</ele><time>2026-04-26T09:18:33.015Z</time></trkpt><trkpt lat="44.7116267" lon="9.384975"><ele>352.0</ele><time>2026-04-26T09:18:34.015Z</time></trkpt><trkpt lat="44.711505" lon="9.3850667"><ele>352.0</ele><time>2026-04-26T09:18:35.015Z</time></trkpt><trkpt lat="44.71137" lon="9.3851467"><ele>352.0</ele><time>2026-04-26T09:18:36.015Z</time></trkpt><trkpt lat="44.7112483" lon="9.3852117"><ele>352.0</ele><time>2026-04-26T09:18:37.015Z</time></trkpt><trkpt lat="44.7110783" lon="9.3851867"><ele>353.0</ele><time>2026-04-26T09:18:38.016Z</time></trkpt><trkpt lat="44.7109467" lon="9.3851867"><ele>354.0</ele><time>2026-04-26T09:18:39.016Z</time></trkpt><trkpt lat="44.710805" lon="9.385215"><ele>355.0</ele><time>2026-04-26T09:18:40.016Z</time></trkpt><trkpt lat="44.71068" lon="9.3852533"><ele>356.0</ele><time>2026-04-26T09:18:41.016Z</time></trkpt><trkpt lat="44.71056" lon="9.3853167"><ele>356.0</ele><time>2026-04-26T09:18:42.016Z</time></trkpt><trkpt lat="44.7104467" lon="9.385375"><ele>356.0</ele><time>2026-04-26T09:18:43.015Z</time></trkpt><trkpt lat="44.7103317" lon="9.38541"><ele>356.0</ele><time>2026-04-26T09:18:44.015Z</time></trkpt><trkpt lat="44.7102333" lon="9.38542"><ele>356.0</ele><time>2026-04-26T09:18:45.015Z</time></trkpt><trkpt lat="44.7101217" lon="9.3854267"><ele>356.0</ele><time>2026-04-26T09:18:46.016Z</time></trkpt><trkpt lat="44.710005" lon="9.38542"><ele>356.25</ele><time>2026-04-26T09:18:47.016Z</time></trkpt><trkpt lat="44.7098883" lon="9.3854433"><ele>356.5</ele><time>2026-04-26T09:18:48.015Z</time></trkpt><trkpt lat="44.7097817" lon="9.3855133"><ele>356.75</ele><time>2026-04-26T09:18:49.015Z</time></trkpt><trkpt lat="44.7096767" lon="9.385595"><ele>357.0</ele><time>2026-04-26T09:18:50.016Z</time></trkpt><trkpt lat="44.709585" lon="9.38576"><ele>358.5</ele><time>2026-04-26T09:18:51.015Z</time></trkpt><trkpt lat="44.709495" lon="9.3859033"><ele>360.0</ele><time>2026-04-26T09:18:52.015Z</time></trkpt><trkpt lat="44.7094117" lon="9.3860417"><ele>361.5</ele><time>2026-04-26T09:18:53.015Z</time></trkpt><trkpt lat="44.709335" lon="9.38614"><ele>363.0</ele><time>2026-04-26T09:18:54.016Z</time></trkpt><trkpt lat="44.7092633" lon="9.3862217"><ele>364.1666666666667</ele><time>2026-04-26T09:18:55.015Z</time></trkpt><trkpt lat="44.709195" lon="9.386275"><ele>365.3333333333333</ele><time>2026-04-26T09:18:56.015Z</time></trkpt><trkpt lat="44.70913" lon="9.38632"><ele>366.5</ele><time>2026-04-26T09:18:57.015Z</time></trkpt><trkpt lat="44.7090267" lon="9.386325"><ele>367.66666666666663</ele><time>2026-04-26T09:18:59.015Z</time></trkpt><trkpt lat="44.70897" lon="9.3862"><ele>368.8333333333333</ele><time>2026-04-26T09:19:01.015Z</time></trkpt><trkpt lat="44.7089733" lon="9.386085"><ele>370.0</ele><time>2026-04-26T09:19:02.016Z</time></trkpt><trkpt lat="44.70895" lon="9.385985"><ele>370.0</ele><time>2026-04-26T09:19:03.016Z</time></trkpt><trkpt lat="44.7089367" lon="9.3858767"><ele>370.0</ele><time>2026-04-26T09:19:04.016Z</time></trkpt><trkpt lat="44.7089467" lon="9.38577"><ele>370.0</ele><time>2026-04-26T09:19:05.015Z</time></trkpt><trkpt lat="44.7088833" lon="9.3856617"><ele>370.0</ele><time>2026-04-26T09:19:07.016Z</time></trkpt><trkpt lat="44.70877" lon="9.385725"><ele>370.0</ele><time>2026-04-26T09:19:09.015Z</time></trkpt><trkpt lat="44.7086533" lon="9.3856917"><ele>371.0</ele><time>2026-04-26T09:19:11.016Z</time></trkpt><trkpt lat="44.708575" lon="9.3855833"><ele>372.0</ele><time>2026-04-26T09:19:13.015Z</time></trkpt><trkpt lat="44.7085083" lon="9.3854883"><ele>373.0</ele><time>2026-04-26T09:19:14.015Z</time></trkpt><trkpt lat="44.7084383" lon="9.3854217"><ele>374.0</ele><time>2026-04-26T09:19:15.015Z</time></trkpt><trkpt lat="44.7083317" lon="9.38538"><ele>375.0</ele><time>2026-04-26T09:19:17.016Z</time></trkpt><trkpt lat="44.708275" lon="9.3854317"><ele>375.0</ele><time>2026-04-26T09:19:18.016Z</time></trkpt><trkpt lat="44.7081617" lon="9.3854733"><ele>375.0</ele><time>2026-04-26T09:19:20.015Z</time></trkpt><trkpt lat="44.7081083" lon="9.385545"><ele>375.0</ele><time>2026-04-26T09:19:22.016Z</time></trkpt><trkpt lat="44.7081267" lon="9.385645"><ele>375.0</ele><time>2026-04-26T09:19:23.016Z</time></trkpt><trkpt lat="44.7081417" lon="9.3857383"><ele>375.0</ele><time>2026-04-26T09:19:24.016Z</time></trkpt><trkpt lat="44.70818" lon="9.38587"><ele>375.0</ele><time>2026-04-26T09:19:25.016Z</time></trkpt><trkpt lat="44.7082033" lon="9.3859883"><ele>377.4</ele><time>2026-04-26T09:19:26.016Z</time></trkpt><trkpt lat="44.70823" lon="9.38614"><ele>379.8</ele><time>2026-04-26T09:19:27.015Z</time></trkpt><trkpt lat="44.7082433" lon="9.38626"><ele>382.20000000000005</ele><time>2026-04-26T09:19:28.016Z</time></trkpt><trkpt lat="44.7082833" lon="9.38638"><ele>384.6</ele><time>2026-04-26T09:19:29.016Z</time></trkpt><trkpt lat="44.70833" lon="9.38647"><ele>387.0</ele><time>2026-04-26T09:19:30.015Z</time></trkpt><trkpt lat="44.7083833" lon="9.3865667"><ele>387.0</ele><time>2026-04-26T09:19:31.016Z</time></trkpt><trkpt lat="44.708325" lon="9.3864883"><ele>387.0</ele><time>2026-04-26T09:19:33.015Z</time></trkpt><trkpt lat="44.7082933" lon="9.3864033"><ele>387.0</ele><time>2026-04-26T09:19:34.016Z</time></trkpt><trkpt lat="44.7082367" lon="9.3862983"><ele>387.0</ele><time>2026-04-26T09:19:35.015Z</time></trkpt><trkpt lat="44.7081633" lon="9.38616"><ele>387.0</ele><time>2026-04-26T09:19:36.015Z</time></trkpt><trkpt lat="44.7080233" lon="9.3859933"><ele>387.0</ele><time>2026-04-26T09:19:37.016Z</time></trkpt><trkpt lat="44.707885" lon="9.3858033"><ele>387.0</ele><time>2026-04-26T09:19:38.015Z</time></trkpt><trkpt lat="44.7077617" lon="9.3856067"><ele>387.0</ele><time>2026-04-26T09:19:39.015Z</time></trkpt><trkpt lat="44.7076583" lon="9.385435"><ele>389.5</ele><time>2026-04-26T09:19:40.015Z</time></trkpt><trkpt lat="44.7075883" lon="9.385285"><ele>392.0</ele><time>2026-04-26T09:19:41.015Z</time></trkpt><trkpt lat="44.707515" lon="9.3851517"><ele>394.5</ele><time>2026-04-26T09:19:42.015Z</time></trkpt><trkpt lat="44.7074167" lon="9.3849767"><ele>397.0</ele><time>2026-04-26T09:19:43.016Z</time></trkpt><trkpt lat="44.7073233" lon="9.384865"><ele>397.0</ele><time>2026-04-26T09:19:44.015Z</time></trkpt><trkpt lat="44.7072267" lon="9.3848017"><ele>397.0</ele><time>2026-04-26T09:19:45.016Z</time></trkpt><trkpt lat="44.7071117" lon="9.3848133"><ele>397.0</ele><time>2026-04-26T09:19:46.016Z</time></trkpt><trkpt lat="44.7069933" lon="9.3848767"><ele>397.0</ele><time>2026-04-26T09:19:47.015Z</time></trkpt><trkpt lat="44.7068717" lon="9.3849567"><ele>397.25</ele><time>2026-04-26T09:19:48.015Z</time></trkpt><trkpt lat="44.70674" lon="9.38506"><ele>397.5</ele><time>2026-04-26T09:19:49.016Z</time></trkpt><trkpt lat="44.7066317" lon="9.385185"><ele>397.75</ele><time>2026-04-26T09:19:50.015Z</time></trkpt><trkpt lat="44.7065667" lon="9.3852983"><ele>398.0</ele><time>2026-04-26T09:19:51.016Z</time></trkpt><trkpt lat="44.706515" lon="9.3854183"><ele>401.59999999999997</ele><time>2026-04-26T09:19:52.015Z</time></trkpt><trkpt lat="44.7064933" lon="9.3855567"><ele>405.2</ele><time>2026-04-26T09:19:53.016Z</time></trkpt><trkpt lat="44.7064583" lon="9.38568"><ele>408.8</ele><time>2026-04-26T09:19:54.016Z</time></trkpt><trkpt lat="44.70643" lon="9.3858217"><ele>412.4</ele><time>2026-04-26T09:19:55.016Z</time></trkpt><trkpt lat="44.7063817" lon="9.385925"><ele>416.0</ele><time>2026-04-26T09:19:56.016Z</time></trkpt><trkpt lat="44.70631" lon="9.385985"><ele>416.0</ele><time>2026-04-26T09:19:57.016Z</time></trkpt><trkpt lat="44.7062267" lon="9.38602"><ele>416.0</ele><time>2026-04-26T09:19:58.016Z</time></trkpt><trkpt lat="44.70613" lon="9.386"><ele>416.0</ele><time>2026-04-26T09:19:59.015Z</time></trkpt><trkpt lat="44.7060167" lon="9.3859417"><ele>416.0</ele><time>2026-04-26T09:20:00.016Z</time></trkpt><trkpt lat="44.7058833" lon="9.3858217"><ele>414.25</ele><time>2026-04-26T09:20:01.015Z</time></trkpt><trkpt lat="44.7057533" lon="9.3857017"><ele>412.5</ele><time>2026-04-26T09:20:02.016Z</time></trkpt><trkpt lat="44.7056533" lon="9.3856217"><ele>410.75</ele><time>2026-04-26T09:20:03.015Z</time></trkpt><trkpt lat="44.7055483" lon="9.385615"><ele>409.0</ele><time>2026-04-26T09:20:04.015Z</time></trkpt><trkpt lat="44.70543" lon="9.3855717"><ele>409.0</ele><time>2026-04-26T09:20:05.015Z</time></trkpt><trkpt lat="44.7053183" lon="9.385575"><ele>409.0</ele><time>2026-04-26T09:20:06.016Z</time></trkpt><trkpt lat="44.705195" lon="9.385625"><ele>409.0</ele><time>2026-04-26T09:20:07.016Z</time></trkpt><trkpt lat="44.7050833" lon="9.3857017"><ele>409.0</ele><time>2026-04-26T09:20:08.016Z</time></trkpt><trkpt lat="44.7050167" lon="9.3858283"><ele>410.25</ele><time>2026-04-26T09:20:09.016Z</time></trkpt><trkpt lat="44.70498" lon="9.3859783"><ele>411.5</ele><time>2026-04-26T09:20:10.015Z</time></trkpt><trkpt lat="44.704965" lon="9.386155"><ele>412.75</ele><time>2026-04-26T09:20:11.015Z</time></trkpt><trkpt lat="44.70498" lon="9.3863283"><ele>414.0</ele><time>2026-04-26T09:20:12.015Z</time></trkpt><trkpt lat="44.7049733" lon="9.3864533"><ele>417.33333333333337</ele><time>2026-04-26T09:20:13.015Z</time></trkpt><trkpt lat="44.7051117" lon="9.3865967"><ele>420.6666666666667</ele><time>2026-04-26T09:20:14.016Z</time></trkpt><trkpt lat="44.7052567" lon="9.3866833"><ele>424.0</ele><time>2026-04-26T09:20:15.015Z</time></trkpt><trkpt lat="44.7053967" lon="9.3866933"><ele>424.0</ele><time>2026-04-26T09:20:16.016Z</time></trkpt><trkpt lat="44.7055167" lon="9.3866583"><ele>424.0</ele><time>2026-04-26T09:20:17.016Z</time></trkpt><trkpt lat="44.7056267" lon="9.3866333"><ele>424.0</ele><time>2026-04-26T09:20:18.015Z</time></trkpt><trkpt lat="44.7057233" lon="9.3866517"><ele>424.0</ele><time>2026-04-26T09:20:19.015Z</time></trkpt><trkpt lat="44.7058" lon="9.3867033"><ele>424.0</ele><time>2026-04-26T09:20:20.016Z</time></trkpt><trkpt lat="44.7058667" lon="9.3868383"><ele>424.0</ele><time>2026-04-26T09:20:23.016Z</time></trkpt><trkpt lat="44.7059017" lon="9.38696"><ele>424.0</ele><time>2026-04-26T09:20:25.016Z</time></trkpt><trkpt lat="44.70576" lon="9.387035"><ele>424.0</ele><time>2026-04-26T09:20:27.015Z</time></trkpt><trkpt lat="44.7055967" lon="9.3870833"><ele>424.0</ele><time>2026-04-26T09:20:28.015Z</time></trkpt><trkpt lat="44.70548" lon="9.38714"><ele>426.0</ele><time>2026-04-26T09:20:29.015Z</time></trkpt><trkpt lat="44.70539" lon="9.3871983"><ele>428.0</ele><time>2026-04-26T09:20:30.015Z</time></trkpt><trkpt lat="44.705285" lon="9.387245"><ele>430.0</ele><time>2026-04-26T09:20:31.015Z</time></trkpt><trkpt lat="44.7050583" lon="9.3872617"><ele>432.0</ele><time>2026-04-26T09:20:32.016Z</time></trkpt><trkpt lat="44.7048783" lon="9.3872683"><ele>432.0</ele><time>2026-04-26T09:20:33.016Z</time></trkpt><trkpt lat="44.70475" lon="9.3872867"><ele>432.0</ele><time>2026-04-26T09:20:34.015Z</time></trkpt><trkpt lat="44.7046067" lon="9.3872867"><ele>432.0</ele><time>2026-04-26T09:20:35.016Z</time></trkpt><trkpt lat="44.7044583" lon="9.3872467"><ele>432.0</ele><time>2026-04-26T09:20:36.015Z</time></trkpt><trkpt lat="44.704325" lon="9.38722"><ele>432.0</ele><time>2026-04-26T09:20:37.016Z</time></trkpt><trkpt lat="44.704205" lon="9.3871883"><ele>432.00000000000006</ele><time>2026-04-26T09:20:38.016Z</time></trkpt><trkpt lat="44.7041033" lon="9.3871583"><ele>432.00000000000006</ele><time>2026-04-26T09:20:39.015Z</time></trkpt><trkpt lat="44.70402" lon="9.3871367"><ele>432.0</ele><time>2026-04-26T09:20:40.016Z</time></trkpt><trkpt lat="44.7039133" lon="9.38718"><ele>432.0</ele><time>2026-04-26T09:20:42.016Z</time></trkpt><trkpt lat="44.70386" lon="9.3872383"><ele>432.0</ele><time>2026-04-26T09:20:43.016Z</time></trkpt><trkpt lat="44.7038133" lon="9.387325"><ele>432.00000000000006</ele><time>2026-04-26T09:20:44.016Z</time></trkpt><trkpt lat="44.7037667" lon="9.38744"><ele>432.00000000000006</ele><time>2026-04-26T09:20:45.016Z</time></trkpt><trkpt lat="44.70372" lon="9.3875883"><ele>432.0</ele><time>2026-04-26T09:20:46.016Z</time></trkpt><trkpt lat="44.703675" lon="9.3877617"><ele>432.0</ele><time>2026-04-26T09:20:47.015Z</time></trkpt><trkpt lat="44.7036183" lon="9.3879383"><ele>433.75</ele><time>2026-04-26T09:20:48.016Z</time></trkpt><trkpt lat="44.703555" lon="9.38812"><ele>435.5</ele><time>2026-04-26T09:20:49.015Z</time></trkpt><trkpt lat="44.70349" lon="9.38831"><ele>437.25</ele><time>2026-04-26T09:20:50.015Z</time></trkpt><trkpt lat="44.7034283" lon="9.3885"><ele>439.0</ele><time>2026-04-26T09:20:51.015Z</time></trkpt><trkpt lat="44.703365" lon="9.3886783"><ele>439.0</ele><time>2026-04-26T09:20:52.015Z</time></trkpt><trkpt lat="44.7033067" lon="9.3888383"><ele>439.0</ele><time>2026-04-26T09:20:53.016Z</time></trkpt><trkpt lat="44.7032317" lon="9.388945"><ele>439.0</ele><time>2026-04-26T09:20:54.015Z</time></trkpt><trkpt lat="44.7031633" lon="9.3890383"><ele>439.0</ele><time>2026-04-26T09:20:55.016Z</time></trkpt><trkpt lat="44.7031117" lon="9.3891467"><ele>439.0</ele><time>2026-04-26T09:20:56.016Z</time></trkpt><trkpt lat="44.703105" lon="9.38924"><ele>440.79999999999995</ele><time>2026-04-26T09:20:57.015Z</time></trkpt><trkpt lat="44.7031217" lon="9.3893267"><ele>442.59999999999997</ele><time>2026-04-26T09:20:58.015Z</time></trkpt><trkpt lat="44.7032267" lon="9.3894233"><ele>444.4</ele><time>2026-04-26T09:21:00.016Z</time></trkpt><trkpt lat="44.7033133" lon="9.3894633"><ele>446.2</ele><time>2026-04-26T09:21:01.016Z</time></trkpt><trkpt lat="44.7034283" lon="9.38949"><ele>448.0</ele><time>2026-04-26T09:21:02.016Z</time></trkpt><trkpt lat="44.7035483" lon="9.38954"><ele>447.5</ele><time>2026-04-26T09:21:03.016Z</time></trkpt><trkpt lat="44.7036683" lon="9.3896083"><ele>447.0</ele><time>2026-04-26T09:21:04.016Z</time></trkpt><trkpt lat="44.703785" lon="9.38968"><ele>446.5</ele><time>2026-04-26T09:21:05.016Z</time></trkpt><trkpt lat="44.7039" lon="9.3897217"><ele>446.0</ele><time>2026-04-26T09:21:06.016Z</time></trkpt><trkpt lat="44.70402" lon="9.389755"><ele>452.25</ele><time>2026-04-26T09:21:07.016Z</time></trkpt><trkpt lat="44.7041467" lon="9.3897583"><ele>458.5</ele><time>2026-04-26T09:21:08.016Z</time></trkpt><trkpt lat="44.7042817" lon="9.3897333"><ele>464.75</ele><time>2026-04-26T09:21:09.016Z</time></trkpt><trkpt lat="44.7044067" lon="9.389735"><ele>471.0</ele><time>2026-04-26T09:21:10.016Z</time></trkpt><trkpt lat="44.7045283" lon="9.38972"><ele>471.0</ele><time>2026-04-26T09:21:11.015Z</time></trkpt><trkpt lat="44.7046583" lon="9.3897433"><ele>471.0</ele><time>2026-04-26T09:21:12.016Z</time></trkpt><trkpt lat="44.70478" lon="9.3898017"><ele>471.0</ele><time>2026-04-26T09:21:13.016Z</time></trkpt><trkpt lat="44.7049" lon="9.3898717"><ele>471.0</ele><time>2026-04-26T09:21:14.015Z</time></trkpt><trkpt lat="44.7050333" lon="9.3899367"><ele>471.0</ele><time>2026-04-26T09:21:15.015Z</time></trkpt><trkpt lat="44.7051633" lon="9.390005"><ele>471.0</ele><time>2026-04-26T09:21:16.016Z</time></trkpt><trkpt lat="44.705295" lon="9.3900683"><ele>471.0</ele><time>2026-04-26T09:21:17.015Z</time></trkpt><trkpt lat="44.7054267" lon="9.3900867"><ele>471.0</ele><time>2026-04-26T09:21:18.015Z</time></trkpt><trkpt lat="44.705535" lon="9.3900967"><ele>472.5</ele><time>2026-04-26T09:21:19.014Z</time></trkpt><trkpt lat="44.7056533" lon="9.3900733"><ele>474.0</ele><time>2026-04-26T09:21:20.014Z</time></trkpt><trkpt lat="44.70577" lon="9.3899967"><ele>475.5</ele><time>2026-04-26T09:21:21.015Z</time></trkpt><trkpt lat="44.70586" lon="9.3898633"><ele>477.0</ele><time>2026-04-26T09:21:22.014Z</time></trkpt><trkpt lat="44.7059533" lon="9.3897117"><ele>474.5</ele><time>2026-04-26T09:21:23.014Z</time></trkpt><trkpt lat="44.70603" lon="9.3895417"><ele>472.0</ele><time>2026-04-26T09:21:24.014Z</time></trkpt><trkpt lat="44.706115" lon="9.3894183"><ele>469.5</ele><time>2026-04-26T09:21:25.014Z</time></trkpt><trkpt lat="44.7062" lon="9.3893217"><ele>467.0</ele><time>2026-04-26T09:21:26.014Z</time></trkpt><trkpt lat="44.7062817" lon="9.3892617"><ele>467.0</ele><time>2026-04-26T09:21:27.014Z</time></trkpt><trkpt lat="44.7063483" lon="9.3892533"><ele>467.00000000000006</ele><time>2026-04-26T09:21:28.015Z</time></trkpt><trkpt lat="44.7064217" lon="9.3893033"><ele>467.00000000000006</ele><time>2026-04-26T09:21:29.014Z</time></trkpt><trkpt lat="44.7064917" lon="9.38942"><ele>467.0</ele><time>2026-04-26T09:21:30.015Z</time></trkpt><trkpt lat="44.7065833" lon="9.3895483"><ele>467.0</ele><time>2026-04-26T09:21:31.014Z</time></trkpt><trkpt lat="44.7066867" lon="9.389695"><ele>469.0</ele><time>2026-04-26T09:21:32.015Z</time></trkpt><trkpt lat="44.7067883" lon="9.3898483"><ele>471.0</ele><time>2026-04-26T09:21:33.014Z</time></trkpt><trkpt lat="44.7068833" lon="9.3900233"><ele>473.0</ele><time>2026-04-26T09:21:34.014Z</time></trkpt><trkpt lat="44.70697" lon="9.3901717"><ele>475.0</ele><time>2026-04-26T09:21:35.015Z</time></trkpt><trkpt lat="44.7070467" lon="9.3903183"><ele>475.0</ele><time>2026-04-26T09:21:36.014Z</time></trkpt><trkpt lat="44.707115" lon="9.3904583"><ele>475.0</ele><time>2026-04-26T09:21:37.014Z</time></trkpt><trkpt lat="44.7071733" lon="9.39058"><ele>475.0</ele><time>2026-04-26T09:21:38.015Z</time></trkpt><trkpt lat="44.70722" lon="9.3906917"><ele>475.0</ele><time>2026-04-26T09:21:39.015Z</time></trkpt><trkpt lat="44.707265" lon="9.3908167"><ele>475.0</ele><time>2026-04-26T09:21:40.015Z</time></trkpt><trkpt lat="44.7072583" lon="9.3909217"><ele>474.25</ele><time>2026-04-26T09:21:41.014Z</time></trkpt><trkpt lat="44.7072333" lon="9.3910383"><ele>473.5</ele><time>2026-04-26T09:21:42.015Z</time></trkpt><trkpt lat="44.7071617" lon="9.391165"><ele>472.75</ele><time>2026-04-26T09:21:43.014Z</time></trkpt><trkpt lat="44.7070767" lon="9.391305"><ele>472.0</ele><time>2026-04-26T09:21:44.015Z</time></trkpt><trkpt lat="44.7069533" lon="9.3914233"><ele>476.0</ele><time>2026-04-26T09:21:45.014Z</time></trkpt><trkpt lat="44.7067917" lon="9.3915233"><ele>480.0</ele><time>2026-04-26T09:21:46.015Z</time></trkpt><trkpt lat="44.7066133" lon="9.3916133"><ele>484.0</ele><time>2026-04-26T09:21:47.014Z</time></trkpt><trkpt lat="44.706455" lon="9.391705"><ele>484.0</ele><time>2026-04-26T09:21:48.014Z</time></trkpt><trkpt lat="44.70631" lon="9.3918"><ele>484.0</ele><time>2026-04-26T09:21:49.014Z</time></trkpt><trkpt lat="44.70617" lon="9.3918917"><ele>484.0</ele><time>2026-04-26T09:21:50.015Z</time></trkpt><trkpt lat="44.706035" lon="9.3919917"><ele>488.0</ele><time>2026-04-26T09:21:51.014Z</time></trkpt><trkpt lat="44.7059033" lon="9.3920883"><ele>492.0</ele><time>2026-04-26T09:21:52.015Z</time></trkpt><trkpt lat="44.7057917" lon="9.3922133"><ele>496.0</ele><time>2026-04-26T09:21:53.015Z</time></trkpt><trkpt lat="44.7056917" lon="9.3923533"><ele>500.0</ele><time>2026-04-26T09:21:54.014Z</time></trkpt><trkpt lat="44.7056033" lon="9.3925083"><ele>500.0</ele><time>2026-04-26T09:21:55.014Z</time></trkpt><trkpt lat="44.705525" lon="9.3926717"><ele>500.0</ele><time>2026-04-26T09:21:56.015Z</time></trkpt><trkpt lat="44.7054467" lon="9.3928317"><ele>500.0</ele><time>2026-04-26T09:21:57.015Z</time></trkpt><trkpt lat="44.7053667" lon="9.3929867"><ele>500.0</ele><time>2026-04-26T09:21:58.015Z</time></trkpt><trkpt lat="44.7052867" lon="9.3931383"><ele>506.5</ele><time>2026-04-26T09:21:59.014Z</time></trkpt><trkpt lat="44.705205" lon="9.39331"><ele>513.0</ele><time>2026-04-26T09:22:00.015Z</time></trkpt><trkpt lat="44.70512" lon="9.3934867"><ele>519.5</ele><time>2026-04-26T09:22:01.014Z</time></trkpt><trkpt lat="44.7050267" lon="9.39365"><ele>526.0</ele><time>2026-04-26T09:22:02.014Z</time></trkpt><trkpt lat="44.704945" lon="9.3938083"><ele>521.75</ele><time>2026-04-26T09:22:03.014Z</time></trkpt><trkpt lat="44.7048717" lon="9.3939567"><ele>517.5</ele><time>2026-04-26T09:22:04.015Z</time></trkpt><trkpt lat="44.704785" lon="9.3940833"><ele>513.25</ele><time>2026-04-26T09:22:05.014Z</time></trkpt><trkpt lat="44.70472" lon="9.3942017"><ele>509.0</ele><time>2026-04-26T09:22:06.015Z</time></trkpt><trkpt lat="44.7046283" lon="9.3942933"><ele>509.0</ele><time>2026-04-26T09:22:07.015Z</time></trkpt><trkpt lat="44.7044833" lon="9.3943533"><ele>509.0</ele><time>2026-04-26T09:22:08.015Z</time></trkpt><trkpt lat="44.7043267" lon="9.3944133"><ele>509.0</ele><time>2026-04-26T09:22:09.015Z</time></trkpt><trkpt lat="44.7041867" lon="9.3944967"><ele>510.0</ele><time>2026-04-26T09:22:10.014Z</time></trkpt><trkpt lat="44.704035" lon="9.3945817"><ele>511.0</ele><time>2026-04-26T09:22:11.015Z</time></trkpt><trkpt lat="44.703885" lon="9.3946617"><ele>512.0</ele><time>2026-04-26T09:22:12.014Z</time></trkpt><trkpt lat="44.703745" lon="9.3947333"><ele>512.0</ele><time>2026-04-26T09:22:13.014Z</time></trkpt><trkpt lat="44.7036083" lon="9.3947917"><ele>512.0</ele><time>2026-04-26T09:22:14.014Z</time></trkpt><trkpt lat="44.7034667" lon="9.3948483"><ele>512.0</ele><time>2026-04-26T09:22:15.015Z</time></trkpt><trkpt lat="44.7033" lon="9.394895"><ele>518.6666666666666</ele><time>2026-04-26T09:22:16.014Z</time></trkpt><trkpt lat="44.7031533" lon="9.3949667"><ele>525.3333333333334</ele><time>2026-04-26T09:22:17.014Z</time></trkpt><trkpt lat="44.7030133" lon="9.3950633"><ele>532.0</ele><time>2026-04-26T09:22:18.015Z</time></trkpt><trkpt lat="44.702895" lon="9.39519"><ele>532.0</ele><time>2026-04-26T09:22:19.015Z</time></trkpt><trkpt lat="44.7027683" lon="9.3952967"><ele>532.0</ele><time>2026-04-26T09:22:20.015Z</time></trkpt><trkpt lat="44.702635" lon="9.39539"><ele>532.0</ele><time>2026-04-26T09:22:21.015Z</time></trkpt><trkpt lat="44.702485" lon="9.3954633"><ele>535.0</ele><time>2026-04-26T09:22:22.014Z</time></trkpt><trkpt lat="44.7023283" lon="9.3955083"><ele>538.0</ele><time>2026-04-26T09:22:23.015Z</time></trkpt><trkpt lat="44.70217" lon="9.3955633"><ele>541.0</ele><time>2026-04-26T09:22:24.014Z</time></trkpt><trkpt lat="44.70202" lon="9.395615"><ele>544.0</ele><time>2026-04-26T09:22:25.014Z</time></trkpt><trkpt lat="44.701895" lon="9.3956967"><ele>547.0</ele><time>2026-04-26T09:22:26.015Z</time></trkpt><trkpt lat="44.7017683" lon="9.3957767"><ele>550.0</ele><time>2026-04-26T09:22:27.014Z</time></trkpt><trkpt lat="44.70164" lon="9.3959"><ele>553.0</ele><time>2026-04-26T09:22:28.014Z</time></trkpt><trkpt lat="44.701525" lon="9.39604"><ele>553.0</ele><time>2026-04-26T09:22:29.015Z</time></trkpt><trkpt lat="44.7014283" lon="9.396205"><ele>553.0</ele><time>2026-04-26T09:22:30.014Z</time></trkpt><trkpt lat="44.701325" lon="9.3963583"><ele>553.0</ele><time>2026-04-26T09:22:31.014Z</time></trkpt><trkpt lat="44.7012067" lon="9.39649"><ele>554.75</ele><time>2026-04-26T09:22:32.014Z</time></trkpt><trkpt lat="44.70109" lon="9.39662"><ele>556.5</ele><time>2026-04-26T09:22:33.015Z</time></trkpt><trkpt lat="44.7009683" lon="9.3967317"><ele>558.25</ele><time>2026-04-26T09:22:34.014Z</time></trkpt><trkpt lat="44.7008467" lon="9.3968283"><ele>560.0</ele><time>2026-04-26T09:22:35.015Z</time></trkpt><trkpt lat="44.7007317" lon="9.3969083"><ele>560.0</ele><time>2026-04-26T09:22:36.014Z</time></trkpt><trkpt lat="44.7006233" lon="9.3969717"><ele>560.0</ele><time>2026-04-26T09:22:37.014Z</time></trkpt><trkpt lat="44.7005183" lon="9.3970367"><ele>560.0</ele><time>2026-04-26T09:22:38.014Z</time></trkpt><trkpt lat="44.7004217" lon="9.3970733"><ele>560.0</ele><time>2026-04-26T09:22:39.014Z</time></trkpt><trkpt lat="44.7003233" lon="9.397095"><ele>560.0</ele><time>2026-04-26T09:22:40.014Z</time></trkpt><trkpt lat="44.70025" lon="9.3970767"><ele>560.0</ele><time>2026-04-26T09:22:41.014Z</time></trkpt><trkpt lat="44.7001717" lon="9.3970783"><ele>560.0</ele><time>2026-04-26T09:22:42.014Z</time></trkpt><trkpt lat="44.7001267" lon="9.39699"><ele>560.0</ele><time>2026-04-26T09:22:43.014Z</time></trkpt><trkpt lat="44.70012" lon="9.396855"><ele>560.0</ele><time>2026-04-26T09:22:44.015Z</time></trkpt><trkpt lat="44.70014" lon="9.3967383"><ele>560.0</ele><time>2026-04-26T09:22:45.015Z</time></trkpt><trkpt lat="44.700325" lon="9.396555"><ele>560.0</ele><time>2026-04-26T09:22:46.015Z</time></trkpt><trkpt lat="44.70042" lon="9.3964517"><ele>560.0</ele><time>2026-04-26T09:22:47.014Z</time></trkpt><trkpt lat="44.700545" lon="9.396355"><ele>560.0</ele><time>2026-04-26T09:22:48.014Z</time></trkpt><trkpt lat="44.7006617" lon="9.3962567"><ele>560.0</ele><time>2026-04-26T09:22:49.014Z</time></trkpt><trkpt lat="44.7007883" lon="9.396125"><ele>557.6666666666666</ele><time>2026-04-26T09:22:50.014Z</time></trkpt><trkpt lat="44.70092" lon="9.3959417"><ele>555.3333333333334</ele><time>2026-04-26T09:22:51.015Z</time></trkpt><trkpt lat="44.70106" lon="9.3957433"><ele>553.0</ele><time>2026-04-26T09:22:52.014Z</time></trkpt><trkpt lat="44.7011817" lon="9.3955517"><ele>560.6666666666667</ele><time>2026-04-26T09:22:53.014Z</time></trkpt><trkpt lat="44.7012833" lon="9.3953783"><ele>568.3333333333334</ele><time>2026-04-26T09:22:54.014Z</time></trkpt><trkpt lat="44.701385" lon="9.3952083"><ele>576.0</ele><time>2026-04-26T09:22:55.015Z</time></trkpt><trkpt lat="44.7015017" lon="9.395055"><ele>576.0</ele><time>2026-04-26T09:22:56.015Z</time></trkpt><trkpt lat="44.701615" lon="9.3949333"><ele>576.0</ele><time>2026-04-26T09:22:57.015Z</time></trkpt><trkpt lat="44.7017383" lon="9.3948267"><ele>576.0</ele><time>2026-04-26T09:22:58.014Z</time></trkpt><trkpt lat="44.701875" lon="9.39472"><ele>576.0</ele><time>2026-04-26T09:22:59.014Z</time></trkpt><trkpt lat="44.70203" lon="9.394625"><ele>576.0</ele><time>2026-04-26T09:23:00.014Z</time></trkpt><trkpt lat="44.7021683" lon="9.3945233"><ele>576.0</ele><time>2026-04-26T09:23:01.014Z</time></trkpt><trkpt lat="44.70228" lon="9.39442"><ele>576.0</ele><time>2026-04-26T09:23:02.015Z</time></trkpt><trkpt lat="44.7023933" lon="9.394325"><ele>576.0</ele><time>2026-04-26T09:23:03.014Z</time></trkpt><trkpt lat="44.70246" lon="9.3942167"><ele>576.0</ele><time>2026-04-26T09:23:04.015Z</time></trkpt><trkpt lat="44.7025067" lon="9.3941133"><ele>576.0</ele><time>2026-04-26T09:23:05.015Z</time></trkpt><trkpt lat="44.7025067" lon="9.394005"><ele>576.0</ele><time>2026-04-26T09:23:06.014Z</time></trkpt><trkpt lat="44.7024667" lon="9.3938983"><ele>576.0</ele><time>2026-04-26T09:23:07.015Z</time></trkpt><trkpt lat="44.702385" lon="9.3938483"><ele>576.0</ele><time>2026-04-26T09:23:08.014Z</time></trkpt><trkpt lat="44.702265" lon="9.393865"><ele>576.0</ele><time>2026-04-26T09:23:09.015Z</time></trkpt><trkpt lat="44.70214" lon="9.3939133"><ele>576.0</ele><time>2026-04-26T09:23:10.015Z</time></trkpt><trkpt lat="44.7019917" lon="9.394005"><ele>576.0</ele><time>2026-04-26T09:23:11.014Z</time></trkpt><trkpt lat="44.70184" lon="9.3941217"><ele>578.3333333333334</ele><time>2026-04-26T09:23:12.015Z</time></trkpt><trkpt lat="44.701665" lon="9.3942717"><ele>580.6666666666667</ele><time>2026-04-26T09:23:13.014Z</time></trkpt><trkpt lat="44.7015183" lon="9.3943867"><ele>583.0</ele><time>2026-04-26T09:23:14.014Z</time></trkpt><trkpt lat="44.7013583" lon="9.3944483"><ele>583.0</ele><time>2026-04-26T09:23:15.014Z</time></trkpt><trkpt lat="44.7011833" lon="9.39452"><ele>583.0</ele><time>2026-04-26T09:23:16.014Z</time></trkpt><trkpt lat="44.7010183" lon="9.3945983"><ele>583.0</ele><time>2026-04-26T09:23:17.014Z</time></trkpt><trkpt lat="44.7008467" lon="9.3946933"><ele>587.3333333333334</ele><time>2026-04-26T09:23:18.014Z</time></trkpt><trkpt lat="44.700685" lon="9.3947917"><ele>591.6666666666666</ele><time>2026-04-26T09:23:19.014Z</time></trkpt><trkpt lat="44.7005267" lon="9.3948917"><ele>596.0</ele><time>2026-04-26T09:23:20.014Z</time></trkpt><trkpt lat="44.700375" lon="9.3949717"><ele>602.3333333333333</ele><time>2026-04-26T09:23:21.014Z</time></trkpt><trkpt lat="44.70022" lon="9.3950217"><ele>608.6666666666666</ele><time>2026-04-26T09:23:22.014Z</time></trkpt><trkpt lat="44.7000683" lon="9.3949783"><ele>615.0</ele><time>2026-04-26T09:23:23.015Z</time></trkpt><trkpt lat="44.6999433" lon="9.39487"><ele>610.6666666666666</ele><time>2026-04-26T09:23:24.014Z</time></trkpt><trkpt lat="44.6998733" lon="9.394585"><ele>606.3333333333333</ele><time>2026-04-26T09:23:25.015Z</time></trkpt><trkpt lat="44.69977" lon="9.3943717"><ele>602.0</ele><time>2026-04-26T09:23:26.014Z</time></trkpt><trkpt lat="44.69967" lon="9.3941067"><ele>602.0</ele><time>2026-04-26T09:23:27.014Z</time></trkpt><trkpt lat="44.6995683" lon="9.39388"><ele>602.0</ele><time>2026-04-26T09:23:28.015Z</time></trkpt><trkpt lat="44.6994517" lon="9.3936433"><ele>602.0</ele><time>2026-04-26T09:23:29.015Z</time></trkpt><trkpt lat="44.69936" lon="9.39344"><ele>607.75</ele><time>2026-04-26T09:23:30.014Z</time></trkpt><trkpt lat="44.6992667" lon="9.3932633"><ele>613.5</ele><time>2026-04-26T09:23:31.015Z</time></trkpt><trkpt lat="44.6992067" lon="9.3931083"><ele>619.25</ele><time>2026-04-26T09:23:32.014Z</time></trkpt><trkpt lat="44.6991833" lon="9.3929583"><ele>625.0</ele><time>2026-04-26T09:23:33.014Z</time></trkpt><trkpt lat="44.6991967" lon="9.3928167"><ele>625.0</ele><time>2026-04-26T09:23:34.014Z</time></trkpt><trkpt lat="44.6992467" lon="9.39264"><ele>625.0</ele><time>2026-04-26T09:23:35.015Z</time></trkpt><trkpt lat="44.6993183" lon="9.392465"><ele>625.0</ele><time>2026-04-26T09:23:36.014Z</time></trkpt><trkpt lat="44.6994" lon="9.3922983"><ele>625.0</ele><time>2026-04-26T09:23:37.015Z</time></trkpt><trkpt lat="44.699455" lon="9.3921433"><ele>622.75</ele><time>2026-04-26T09:23:38.015Z</time></trkpt><trkpt lat="44.699485" lon="9.3919983"><ele>620.5</ele><time>2026-04-26T09:23:39.014Z</time></trkpt><trkpt lat="44.6994967" lon="9.3918517"><ele>618.25</ele><time>2026-04-26T09:23:40.015Z</time></trkpt><trkpt lat="44.6994517" lon="9.3917033"><ele>616.0</ele><time>2026-04-26T09:23:41.015Z</time></trkpt><trkpt lat="44.6993433" lon="9.3915817"><ele>616.0</ele><time>2026-04-26T09:23:42.014Z</time></trkpt><trkpt lat="44.6992283" lon="9.39153"><ele>616.0</ele><time>2026-04-26T09:23:43.015Z</time></trkpt><trkpt lat="44.6990917" lon="9.3915467"><ele>616.0</ele><time>2026-04-26T09:23:44.014Z</time></trkpt><trkpt lat="44.6989817" lon="9.3916417"><ele>616.0</ele><time>2026-04-26T09:23:45.014Z</time></trkpt><trkpt lat="44.6988767" lon="9.3918017"><ele>616.0</ele><time>2026-04-26T09:23:46.014Z</time></trkpt><trkpt lat="44.6987883" lon="9.3920233"><ele>616.0</ele><time>2026-04-26T09:23:47.015Z</time></trkpt><trkpt lat="44.6987283" lon="9.39222"><ele>616.0</ele><time>2026-04-26T09:23:48.014Z</time></trkpt><trkpt lat="44.6986483" lon="9.3923767"><ele>621.75</ele><time>2026-04-26T09:23:49.014Z</time></trkpt><trkpt lat="44.6985483" lon="9.3925133"><ele>627.5</ele><time>2026-04-26T09:23:50.015Z</time></trkpt><trkpt lat="44.6984383" lon="9.3926217"><ele>633.25</ele><time>2026-04-26T09:23:51.014Z</time></trkpt><trkpt lat="44.698325" lon="9.3927083"><ele>639.0</ele><time>2026-04-26T09:23:52.014Z</time></trkpt><trkpt lat="44.6981817" lon="9.3927467"><ele>639.0</ele><time>2026-04-26T09:23:53.015Z</time></trkpt><trkpt lat="44.6980217" lon="9.3927483"><ele>639.0</ele><time>2026-04-26T09:23:54.015Z</time></trkpt><trkpt lat="44.69784" lon="9.3927183"><ele>639.0</ele><time>2026-04-26T09:23:55.015Z</time></trkpt><trkpt lat="44.6976433" lon="9.39273"><ele>640.6666666666666</ele><time>2026-04-26T09:23:56.014Z</time></trkpt><trkpt lat="44.69747" lon="9.3927383"><ele>642.3333333333333</ele><time>2026-04-26T09:23:57.014Z</time></trkpt><trkpt lat="44.697305" lon="9.3927867"><ele>644.0</ele><time>2026-04-26T09:23:58.014Z</time></trkpt><trkpt lat="44.6971617" lon="9.3927783"><ele>644.0</ele><time>2026-04-26T09:23:59.015Z</time></trkpt><trkpt lat="44.697015" lon="9.39272"><ele>644.0</ele><time>2026-04-26T09:24:00.014Z</time></trkpt><trkpt lat="44.696865" lon="9.39266"><ele>644.0</ele><time>2026-04-26T09:24:01.015Z</time></trkpt><trkpt lat="44.6967317" lon="9.392605"><ele>644.0</ele><time>2026-04-26T09:24:02.014Z</time></trkpt><trkpt lat="44.696595" lon="9.3925633"><ele>644.8000000000001</ele><time>2026-04-26T09:24:03.015Z</time></trkpt><trkpt lat="44.6964833" lon="9.3925183"><ele>645.6</ele><time>2026-04-26T09:24:04.014Z</time></trkpt><trkpt lat="44.6963933" lon="9.3924517"><ele>646.4</ele><time>2026-04-26T09:24:05.014Z</time></trkpt><trkpt lat="44.696325" lon="9.3923467"><ele>647.2</ele><time>2026-04-26T09:24:06.015Z</time></trkpt><trkpt lat="44.6962733" lon="9.3922"><ele>648.0</ele><time>2026-04-26T09:24:07.015Z</time></trkpt><trkpt lat="44.69624" lon="9.39202"><ele>648.0</ele><time>2026-04-26T09:24:08.014Z</time></trkpt><trkpt lat="44.6962067" lon="9.3918217"><ele>648.0</ele><time>2026-04-26T09:24:09.014Z</time></trkpt><trkpt lat="44.6961667" lon="9.3916083"><ele>648.0</ele><time>2026-04-26T09:24:10.015Z</time></trkpt><trkpt lat="44.6961333" lon="9.3914133"><ele>648.0</ele><time>2026-04-26T09:24:11.014Z</time></trkpt><trkpt lat="44.6961233" lon="9.391235"><ele>647.25</ele><time>2026-04-26T09:24:12.015Z</time></trkpt><trkpt lat="44.6961467" lon="9.39107"><ele>646.5</ele><time>2026-04-26T09:24:13.014Z</time></trkpt><trkpt lat="44.6962" lon="9.3908983"><ele>645.75</ele><time>2026-04-26T09:24:14.015Z</time></trkpt><trkpt lat="44.696275" lon="9.39075"><ele>645.0</ele><time>2026-04-26T09:24:15.014Z</time></trkpt><trkpt lat="44.696345" lon="9.390605"><ele>645.4</ele><time>2026-04-26T09:24:16.014Z</time></trkpt><trkpt lat="44.69638" lon="9.3904617"><ele>645.8</ele><time>2026-04-26T09:24:17.014Z</time></trkpt><trkpt lat="44.6963967" lon="9.3903167"><ele>646.2</ele><time>2026-04-26T09:24:18.014Z</time></trkpt><trkpt lat="44.69639" lon="9.390195"><ele>646.6</ele><time>2026-04-26T09:24:19.015Z</time></trkpt><trkpt lat="44.696335" lon="9.3901"><ele>647.0</ele><time>2026-04-26T09:24:20.014Z</time></trkpt><trkpt lat="44.6962133" lon="9.39012"><ele>647.0</ele><time>2026-04-26T09:24:21.014Z</time></trkpt><trkpt lat="44.696135" lon="9.3901117"><ele>647.0</ele><time>2026-04-26T09:24:22.014Z</time></trkpt><trkpt lat="44.6960667" lon="9.39012"><ele>647.0</ele><time>2026-04-26T09:24:23.014Z</time></trkpt><trkpt lat="44.696005" lon="9.39017"><ele>647.0</ele><time>2026-04-26T09:24:24.014Z</time></trkpt><trkpt lat="44.695935" lon="9.3902567"><ele>647.0</ele><time>2026-04-26T09:24:25.014Z</time></trkpt><trkpt lat="44.6958567" lon="9.3903667"><ele>647.0</ele><time>2026-04-26T09:24:26.014Z</time></trkpt><trkpt lat="44.6958" lon="9.3904783"><ele>652.0</ele><time>2026-04-26T09:24:27.015Z</time></trkpt><trkpt lat="44.6957233" lon="9.39063"><ele>657.0</ele><time>2026-04-26T09:24:28.014Z</time></trkpt><trkpt lat="44.695635" lon="9.3907767"><ele>662.0</ele><time>2026-04-26T09:24:29.014Z</time></trkpt><trkpt lat="44.6955383" lon="9.3909067"><ele>667.0</ele><time>2026-04-26T09:24:30.014Z</time></trkpt><trkpt lat="44.6954283" lon="9.3910467"><ele>667.0</ele><time>2026-04-26T09:24:31.014Z</time></trkpt><trkpt lat="44.6953183" lon="9.39117"><ele>667.0</ele><time>2026-04-26T09:24:32.014Z</time></trkpt><trkpt lat="44.6952067" lon="9.3913083"><ele>667.0</ele><time>2026-04-26T09:24:33.015Z</time></trkpt><trkpt lat="44.69513" lon="9.39146"><ele>667.0</ele><time>2026-04-26T09:24:34.015Z</time></trkpt><trkpt lat="44.6950183" lon="9.3916117"><ele>669.6666666666667</ele><time>2026-04-26T09:24:35.014Z</time></trkpt><trkpt lat="44.6949267" lon="9.3917833"><ele>672.3333333333334</ele><time>2026-04-26T09:24:36.015Z</time></trkpt><trkpt lat="44.6948733" lon="9.3919917"><ele>675.0</ele><time>2026-04-26T09:24:37.014Z</time></trkpt><trkpt lat="44.6948317" lon="9.3922"><ele>676.25</ele><time>2026-04-26T09:24:38.014Z</time></trkpt><trkpt lat="44.6947783" lon="9.3923883"><ele>677.5</ele><time>2026-04-26T09:24:39.014Z</time></trkpt><trkpt lat="44.6946983" lon="9.39255"><ele>678.75</ele><time>2026-04-26T09:24:40.015Z</time></trkpt><trkpt lat="44.6945633" lon="9.3926717"><ele>680.0</ele><time>2026-04-26T09:24:41.015Z</time></trkpt><trkpt lat="44.6944133" lon="9.392765"><ele>680.0</ele><time>2026-04-26T09:24:42.015Z</time></trkpt><trkpt lat="44.6942533" lon="9.3928067"><ele>680.0</ele><time>2026-04-26T09:24:43.014Z</time></trkpt><trkpt lat="44.694125" lon="9.39281"><ele>680.0</ele><time>2026-04-26T09:24:44.014Z</time></trkpt><trkpt lat="44.6940233" lon="9.3927433"><ele>680.0</ele><time>2026-04-26T09:24:45.015Z</time></trkpt><trkpt lat="44.6938967" lon="9.3926833"><ele>680.0</ele><time>2026-04-26T09:24:46.015Z</time></trkpt><trkpt lat="44.69378" lon="9.3925983"><ele>680.0</ele><time>2026-04-26T09:24:47.014Z</time></trkpt><trkpt lat="44.6936667" lon="9.39257"><ele>680.0</ele><time>2026-04-26T09:24:48.015Z</time></trkpt><trkpt lat="44.693545" lon="9.3925933"><ele>680.0</ele><time>2026-04-26T09:24:49.014Z</time></trkpt><trkpt lat="44.6934283" lon="9.392635"><ele>681.0</ele><time>2026-04-26T09:24:50.014Z</time></trkpt><trkpt lat="44.6933067" lon="9.3926917"><ele>682.0</ele><time>2026-04-26T09:24:51.014Z</time></trkpt><trkpt lat="44.693205" lon="9.39273"><ele>683.0</ele><time>2026-04-26T09:24:52.015Z</time></trkpt><trkpt lat="44.6930817" lon="9.3927083"><ele>684.0</ele><time>2026-04-26T09:24:53.014Z</time></trkpt><trkpt lat="44.6929567" lon="9.3926583"><ele>684.0</ele><time>2026-04-26T09:24:54.015Z</time></trkpt><trkpt lat="44.6928333" lon="9.392615"><ele>684.0</ele><time>2026-04-26T09:24:55.015Z</time></trkpt><trkpt lat="44.6927233" lon="9.3925717"><ele>684.0</ele><time>2026-04-26T09:24:56.015Z</time></trkpt><trkpt lat="44.69261" lon="9.3925533"><ele>684.0</ele><time>2026-04-26T09:24:57.015Z</time></trkpt><trkpt lat="44.6924967" lon="9.392575"><ele>685.75</ele><time>2026-04-26T09:24:58.015Z</time></trkpt><trkpt lat="44.6923983" lon="9.3926133"><ele>687.5</ele><time>2026-04-26T09:24:59.014Z</time></trkpt><trkpt lat="44.692255" lon="9.3926367"><ele>689.25</ele><time>2026-04-26T09:25:00.015Z</time></trkpt><trkpt lat="44.692115" lon="9.39266"><ele>691.0</ele><time>2026-04-26T09:25:01.014Z</time></trkpt><trkpt lat="44.6919817" lon="9.392665"><ele>692.5999999999999</ele><time>2026-04-26T09:25:02.014Z</time></trkpt><trkpt lat="44.6918567" lon="9.3926517"><ele>694.2</ele><time>2026-04-26T09:25:03.015Z</time></trkpt><trkpt lat="44.6917767" lon="9.3926283"><ele>695.8</ele><time>2026-04-26T09:25:04.015Z</time></trkpt><trkpt lat="44.69168" lon="9.3925667"><ele>697.4000000000001</ele><time>2026-04-26T09:25:05.015Z</time></trkpt><trkpt lat="44.6915583" lon="9.392505"><ele>699.0</ele><time>2026-04-26T09:25:06.014Z</time></trkpt><trkpt lat="44.69145" lon="9.3924183"><ele>699.0</ele><time>2026-04-26T09:25:07.014Z</time></trkpt><trkpt lat="44.6913467" lon="9.3923433"><ele>699.0</ele><time>2026-04-26T09:25:08.014Z</time></trkpt><trkpt lat="44.691255" lon="9.3922067"><ele>699.0</ele><time>2026-04-26T09:25:09.015Z</time></trkpt><trkpt lat="44.6911583" lon="9.392055"><ele>699.0</ele><time>2026-04-26T09:25:10.015Z</time></trkpt><trkpt lat="44.6910583" lon="9.3919"><ele>701.0</ele><time>2026-04-26T09:25:11.014Z</time></trkpt><trkpt lat="44.6909583" lon="9.3917617"><ele>703.0</ele><time>2026-04-26T09:25:12.015Z</time></trkpt><trkpt lat="44.6908483" lon="9.3916417"><ele>705.0</ele><time>2026-04-26T09:25:13.015Z</time></trkpt><trkpt lat="44.69074" lon="9.39152"><ele>707.0</ele><time>2026-04-26T09:25:14.014Z</time></trkpt><trkpt lat="44.690625" lon="9.3914"><ele>708.75</ele><time>2026-04-26T09:25:15.014Z</time></trkpt><trkpt lat="44.6905017" lon="9.3912967"><ele>710.5</ele><time>2026-04-26T09:25:16.015Z</time></trkpt><trkpt lat="44.69037" lon="9.3912167"><ele>712.25</ele><time>2026-04-26T09:25:17.015Z</time></trkpt><trkpt lat="44.69024" lon="9.3911883"><ele>714.0</ele><time>2026-04-26T09:25:18.014Z</time></trkpt><trkpt lat="44.690105" lon="9.39118"><ele>714.0</ele><time>2026-04-26T09:25:19.015Z</time></trkpt><trkpt lat="44.6899933" lon="9.3911217"><ele>714.0</ele><time>2026-04-26T09:25:20.015Z</time></trkpt><trkpt lat="44.6898933" lon="9.39104"><ele>714.0</ele><time>2026-04-26T09:25:21.014Z</time></trkpt><trkpt lat="44.689815" lon="9.3909067"><ele>714.0</ele><time>2026-04-26T09:25:22.014Z</time></trkpt><trkpt lat="44.6897583" lon="9.3907533"><ele>714.0</ele><time>2026-04-26T09:25:23.014Z</time></trkpt><trkpt lat="44.6897483" lon="9.39056"><ele>714.0</ele><time>2026-04-26T09:25:24.014Z</time></trkpt><trkpt lat="44.6897767" lon="9.3903433"><ele>714.0</ele><time>2026-04-26T09:25:25.014Z</time></trkpt><trkpt lat="44.6897983" lon="9.3901133"><ele>713.3333333333334</ele><time>2026-04-26T09:25:26.015Z</time></trkpt><trkpt lat="44.6897833" lon="9.3898967"><ele>712.6666666666667</ele><time>2026-04-26T09:25:27.014Z</time></trkpt><trkpt lat="44.689735" lon="9.3896683"><ele>712.0</ele><time>2026-04-26T09:25:28.014Z</time></trkpt><trkpt lat="44.68968" lon="9.3894617"><ele>712.0</ele><time>2026-04-26T09:25:29.014Z</time></trkpt><trkpt lat="44.68963" lon="9.3892483"><ele>712.0</ele><time>2026-04-26T09:25:30.014Z</time></trkpt><trkpt lat="44.6895783" lon="9.3890533"><ele>712.0</ele><time>2026-04-26T09:25:31.014Z</time></trkpt><trkpt lat="44.6894867" lon="9.3889017"><ele>712.0</ele><time>2026-04-26T09:25:32.015Z</time></trkpt><trkpt lat="44.68937" lon="9.3887933"><ele>712.0</ele><time>2026-04-26T09:25:33.015Z</time></trkpt><trkpt lat="44.6892333" lon="9.38874"><ele>712.0</ele><time>2026-04-26T09:25:34.015Z</time></trkpt><trkpt lat="44.6890817" lon="9.38873"><ele>712.0</ele><time>2026-04-26T09:25:35.015Z</time></trkpt><trkpt lat="44.6889017" lon="9.3887567"><ele>712.0</ele><time>2026-04-26T09:25:36.014Z</time></trkpt><trkpt lat="44.6887183" lon="9.3887833"><ele>712.0</ele><time>2026-04-26T09:25:37.015Z</time></trkpt><trkpt lat="44.6885417" lon="9.388825"><ele>712.0</ele><time>2026-04-26T09:25:38.015Z</time></trkpt><trkpt lat="44.688365" lon="9.38889"><ele>719.3333333333334</ele><time>2026-04-26T09:25:39.015Z</time></trkpt><trkpt lat="44.6881967" lon="9.38895"><ele>726.6666666666666</ele><time>2026-04-26T09:25:40.015Z</time></trkpt><trkpt lat="44.6880333" lon="9.3890183"><ele>734.0</ele><time>2026-04-26T09:25:41.014Z</time></trkpt><trkpt lat="44.6878517" lon="9.3891083"><ele>733.0</ele><time>2026-04-26T09:25:42.015Z</time></trkpt><trkpt lat="44.6876683" lon="9.3891833"><ele>732.0</ele><time>2026-04-26T09:25:43.014Z</time></trkpt><trkpt lat="44.6874933" lon="9.3892333"><ele>731.0</ele><time>2026-04-26T09:25:44.015Z</time></trkpt><trkpt lat="44.6873233" lon="9.3892733"><ele>731.0</ele><time>2026-04-26T09:25:45.014Z</time></trkpt><trkpt lat="44.6871633" lon="9.3893117"><ele>731.0</ele><time>2026-04-26T09:25:46.014Z</time></trkpt><trkpt lat="44.6870017" lon="9.3893117"><ele>731.0</ele><time>2026-04-26T09:25:47.014Z</time></trkpt><trkpt lat="44.6868483" lon="9.3892733"><ele>736.0</ele><time>2026-04-26T09:25:48.015Z</time></trkpt><trkpt lat="44.6867183" lon="9.3891917"><ele>741.0</ele><time>2026-04-26T09:25:49.015Z</time></trkpt><trkpt lat="44.6866183" lon="9.3890133"><ele>746.0</ele><time>2026-04-26T09:25:50.015Z</time></trkpt><trkpt lat="44.6864867" lon="9.3888633"><ele>748.0</ele><time>2026-04-26T09:25:51.014Z</time></trkpt><trkpt lat="44.6863583" lon="9.3887567"><ele>750.0</ele><time>2026-04-26T09:25:52.014Z</time></trkpt><trkpt lat="44.686225" lon="9.388635"><ele>752.0</ele><time>2026-04-26T09:25:53.015Z</time></trkpt><trkpt lat="44.6860883" lon="9.3885117"><ele>752.0</ele><time>2026-04-26T09:25:54.015Z</time></trkpt><trkpt lat="44.68595" lon="9.3883833"><ele>752.0</ele><time>2026-04-26T09:25:55.015Z</time></trkpt><trkpt lat="44.6858083" lon="9.3882717"><ele>752.0</ele><time>2026-04-26T09:25:56.015Z</time></trkpt><trkpt lat="44.6856583" lon="9.38817"><ele>752.0</ele><time>2026-04-26T09:25:57.015Z</time></trkpt><trkpt lat="44.685505" lon="9.3881067"><ele>752.0</ele><time>2026-04-26T09:25:58.014Z</time></trkpt><trkpt lat="44.6853333" lon="9.38808"><ele>752.0</ele><time>2026-04-26T09:25:59.014Z</time></trkpt><trkpt lat="44.6851633" lon="9.3880717"><ele>753.0</ele><time>2026-04-26T09:26:00.014Z</time></trkpt><trkpt lat="44.6849817" lon="9.3881217"><ele>754.0</ele><time>2026-04-26T09:26:01.014Z</time></trkpt><trkpt lat="44.6848067" lon="9.3882083"><ele>755.0</ele><time>2026-04-26T09:26:02.014Z</time></trkpt><trkpt lat="44.6846583" lon="9.3883967"><ele>755.0</ele><time>2026-04-26T09:26:03.014Z</time></trkpt><trkpt lat="44.6845183" lon="9.3885333"><ele>755.0</ele><time>2026-04-26T09:26:04.015Z</time></trkpt><trkpt lat="44.6843917" lon="9.388645"><ele>755.0</ele><time>2026-04-26T09:26:05.015Z</time></trkpt><trkpt lat="44.684255" lon="9.388665"><ele>752.6666666666666</ele><time>2026-04-26T09:26:06.015Z</time></trkpt><trkpt lat="44.68412" lon="9.3887167"><ele>750.3333333333334</ele><time>2026-04-26T09:26:07.014Z</time></trkpt><trkpt lat="44.6839517" lon="9.3886667"><ele>748.0</ele><time>2026-04-26T09:26:08.014Z</time></trkpt><trkpt lat="44.68379" lon="9.3886517"><ele>748.0</ele><time>2026-04-26T09:26:09.015Z</time></trkpt><trkpt lat="44.6836483" lon="9.3886833"><ele>748.0</ele><time>2026-04-26T09:26:10.014Z</time></trkpt><trkpt lat="44.683495" lon="9.3887667"><ele>748.0</ele><time>2026-04-26T09:26:11.015Z</time></trkpt><trkpt lat="44.6833667" lon="9.3888683"><ele>751.3333333333334</ele><time>2026-04-26T09:26:12.014Z</time></trkpt><trkpt lat="44.6832617" lon="9.3890767"><ele>754.6666666666666</ele><time>2026-04-26T09:26:13.015Z</time></trkpt><trkpt lat="44.683205" lon="9.3892983"><ele>758.0</ele><time>2026-04-26T09:26:14.014Z</time></trkpt><trkpt lat="44.683155" lon="9.3894783"><ele>762.5</ele><time>2026-04-26T09:26:15.014Z</time></trkpt><trkpt lat="44.6832317" lon="9.3898033"><ele>767.0</ele><time>2026-04-26T09:26:16.014Z</time></trkpt><trkpt lat="44.683275" lon="9.3900983"><ele>767.0</ele><time>2026-04-26T09:26:17.015Z</time></trkpt><trkpt lat="44.6832833" lon="9.3903767"><ele>767.0</ele><time>2026-04-26T09:26:18.014Z</time></trkpt><trkpt lat="44.6832667" lon="9.3906483"><ele>767.0</ele><time>2026-04-26T09:26:19.014Z</time></trkpt><trkpt lat="44.6832267" lon="9.390885"><ele>769.6666666666666</ele><time>2026-04-26T09:26:20.014Z</time></trkpt><trkpt lat="44.683125" lon="9.3911083"><ele>772.3333333333333</ele><time>2026-04-26T09:26:21.015Z</time></trkpt><trkpt lat="44.6830033" lon="9.3913317"><ele>775.0</ele><time>2026-04-26T09:26:22.015Z</time></trkpt><trkpt lat="44.6828783" lon="9.3915383"><ele>774.0</ele><time>2026-04-26T09:26:23.015Z</time></trkpt><trkpt lat="44.68272" lon="9.3917083"><ele>773.0</ele><time>2026-04-26T09:26:24.015Z</time></trkpt><trkpt lat="44.6825633" lon="9.3918833"><ele>772.0</ele><time>2026-04-26T09:26:25.015Z</time></trkpt><trkpt lat="44.6824283" lon="9.3920533"><ele>777.3333333333333</ele><time>2026-04-26T09:26:26.015Z</time></trkpt><trkpt lat="44.682295" lon="9.3922417"><ele>782.6666666666667</ele><time>2026-04-26T09:26:27.014Z</time></trkpt><trkpt lat="44.6821483" lon="9.3924267"><ele>788.0</ele><time>2026-04-26T09:26:28.014Z</time></trkpt><trkpt lat="44.6819917" lon="9.3926017"><ele>789.3333333333334</ele><time>2026-04-26T09:26:29.014Z</time></trkpt><trkpt lat="44.6818183" lon="9.392755"><ele>790.6666666666667</ele><time>2026-04-26T09:26:30.014Z</time></trkpt><trkpt lat="44.681665" lon="9.392925"><ele>792.0</ele><time>2026-04-26T09:26:31.015Z</time></trkpt><trkpt lat="44.6814783" lon="9.39302"><ele>792.0</ele><time>2026-04-26T09:26:32.015Z</time></trkpt><trkpt lat="44.681315" lon="9.39315"><ele>792.0</ele><time>2026-04-26T09:26:33.014Z</time></trkpt><trkpt lat="44.6811883" lon="9.393285"><ele>792.0</ele><time>2026-04-26T09:26:34.014Z</time></trkpt><trkpt lat="44.6810683" lon="9.3934317"><ele>790.6666666666667</ele><time>2026-04-26T09:26:35.015Z</time></trkpt><trkpt lat="44.6809783" lon="9.3936083"><ele>789.3333333333334</ele><time>2026-04-26T09:26:36.015Z</time></trkpt><trkpt lat="44.6809533" lon="9.3938517"><ele>788.0</ele><time>2026-04-26T09:26:37.014Z</time></trkpt><trkpt lat="44.680935" lon="9.394075"><ele>788.0</ele><time>2026-04-26T09:26:38.014Z</time></trkpt><trkpt lat="44.6809067" lon="9.3942983"><ele>788.0</ele><time>2026-04-26T09:26:39.015Z</time></trkpt><trkpt lat="44.6808383" lon="9.39451"><ele>788.0</ele><time>2026-04-26T09:26:40.014Z</time></trkpt><trkpt lat="44.6807233" lon="9.39467"><ele>792.0</ele><time>2026-04-26T09:26:41.014Z</time></trkpt><trkpt lat="44.6806117" lon="9.3948517"><ele>796.0</ele><time>2026-04-26T09:26:42.015Z</time></trkpt><trkpt lat="44.6805017" lon="9.3950567"><ele>800.0</ele><time>2026-04-26T09:26:43.014Z</time></trkpt><trkpt lat="44.6803983" lon="9.3952833"><ele>804.6666666666667</ele><time>2026-04-26T09:26:44.014Z</time></trkpt><trkpt lat="44.68031" lon="9.3955317"><ele>809.3333333333333</ele><time>2026-04-26T09:26:45.015Z</time></trkpt><trkpt lat="44.6802233" lon="9.39578"><ele>814.0</ele><time>2026-04-26T09:26:46.014Z</time></trkpt><trkpt lat="44.68014" lon="9.396045"><ele>805.6666666666666</ele><time>2026-04-26T09:26:47.015Z</time></trkpt><trkpt lat="44.680075" lon="9.396305"><ele>797.3333333333333</ele><time>2026-04-26T09:26:48.014Z</time></trkpt><trkpt lat="44.6800167" lon="9.3965533"><ele>789.0</ele><time>2026-04-26T09:26:49.015Z</time></trkpt><trkpt lat="44.6800017" lon="9.3968467"><ele>789.0</ele><time>2026-04-26T09:26:50.015Z</time></trkpt><trkpt lat="44.680005" lon="9.3971283"><ele>789.0</ele><time>2026-04-26T09:26:51.014Z</time></trkpt><trkpt lat="44.680015" lon="9.3974"><ele>789.0</ele><time>2026-04-26T09:26:52.015Z</time></trkpt><trkpt lat="44.6800117" lon="9.397665"><ele>790.3333333333333</ele><time>2026-04-26T09:26:53.014Z</time></trkpt><trkpt lat="44.6800117" lon="9.3979333"><ele>791.6666666666666</ele><time>2026-04-26T09:26:54.014Z</time></trkpt><trkpt lat="44.6799983" lon="9.3982017"><ele>793.0</ele><time>2026-04-26T09:26:55.014Z</time></trkpt><trkpt lat="44.6799467" lon="9.3984867"><ele>796.6666666666666</ele><time>2026-04-26T09:26:56.014Z</time></trkpt><trkpt lat="44.6798483" lon="9.398745"><ele>800.3333333333333</ele><time>2026-04-26T09:26:57.014Z</time></trkpt><trkpt lat="44.67972" lon="9.39898"><ele>804.0</ele><time>2026-04-26T09:26:58.015Z</time></trkpt><trkpt lat="44.6795833" lon="9.3991833"><ele>802.6666666666667</ele><time>2026-04-26T09:26:59.015Z</time></trkpt><trkpt lat="44.6794517" lon="9.3993667"><ele>801.3333333333334</ele><time>2026-04-26T09:27:00.014Z</time></trkpt><trkpt lat="44.6793283" lon="9.3995283"><ele>800.0</ele><time>2026-04-26T09:27:01.015Z</time></trkpt><trkpt lat="44.679205" lon="9.399675"><ele>804.5</ele><time>2026-04-26T09:27:02.014Z</time></trkpt><trkpt lat="44.6790817" lon="9.3997583"><ele>809.0</ele><time>2026-04-26T09:27:03.014Z</time></trkpt><trkpt lat="44.678955" lon="9.39983"><ele>813.5</ele><time>2026-04-26T09:27:04.014Z</time></trkpt><trkpt lat="44.6788283" lon="9.3998933"><ele>818.0</ele><time>2026-04-26T09:27:05.014Z</time></trkpt><trkpt lat="44.67869" lon="9.3998333"><ele>821.3333333333334</ele><time>2026-04-26T09:27:06.015Z</time></trkpt><trkpt lat="44.6785567" lon="9.39973"><ele>824.6666666666667</ele><time>2026-04-26T09:27:07.015Z</time></trkpt><trkpt lat="44.678395" lon="9.3995483"><ele>828.0</ele><time>2026-04-26T09:27:08.014Z</time></trkpt><trkpt lat="44.67823" lon="9.3993667"><ele>819.6666666666667</ele><time>2026-04-26T09:27:09.015Z</time></trkpt><trkpt lat="44.6780867" lon="9.3991967"><ele>811.3333333333334</ele><time>2026-04-26T09:27:10.014Z</time></trkpt><trkpt lat="44.67796" lon="9.3990367"><ele>803.0</ele><time>2026-04-26T09:27:11.015Z</time></trkpt><trkpt lat="44.67783" lon="9.3989283"><ele>800.75</ele><time>2026-04-26T09:27:12.014Z</time></trkpt><trkpt lat="44.6777017" lon="9.3989417"><ele>798.5</ele><time>2026-04-26T09:27:13.015Z</time></trkpt><trkpt lat="44.6775933" lon="9.3990133"><ele>796.25</ele><time>2026-04-26T09:27:14.015Z</time></trkpt><trkpt lat="44.6774667" lon="9.3991367"><ele>794.0</ele><time>2026-04-26T09:27:15.014Z</time></trkpt><trkpt lat="44.67738" lon="9.3993517"><ele>794.0</ele><time>2026-04-26T09:27:16.015Z</time></trkpt><trkpt lat="44.6773733" lon="9.39958"><ele>794.0</ele><time>2026-04-26T09:27:17.015Z</time></trkpt><trkpt lat="44.6773333" lon="9.3998133"><ele>794.0</ele><time>2026-04-26T09:27:18.015Z</time></trkpt><trkpt lat="44.6772867" lon="9.40003"><ele>800.3333333333334</ele><time>2026-04-26T09:27:19.014Z</time></trkpt><trkpt lat="44.6772217" lon="9.4002533"><ele>806.6666666666667</ele><time>2026-04-26T09:27:20.014Z</time></trkpt><trkpt lat="44.6771433" lon="9.4004833"><ele>813.0</ele><time>2026-04-26T09:27:21.014Z</time></trkpt><trkpt lat="44.6770833" lon="9.4006917"><ele>817.3333333333333</ele><time>2026-04-26T09:27:22.015Z</time></trkpt><trkpt lat="44.676995" lon="9.4008567"><ele>821.6666666666666</ele><time>2026-04-26T09:27:23.015Z</time></trkpt><trkpt lat="44.6769033" lon="9.4010283"><ele>826.0</ele><time>2026-04-26T09:27:24.014Z</time></trkpt><trkpt lat="44.6767867" lon="9.40118"><ele>824.3333333333333</ele><time>2026-04-26T09:27:25.014Z</time></trkpt><trkpt lat="44.676645" lon="9.4013167"><ele>822.6666666666667</ele><time>2026-04-26T09:27:26.014Z</time></trkpt><trkpt lat="44.6764933" lon="9.4014217"><ele>821.0</ele><time>2026-04-26T09:27:27.014Z</time></trkpt><trkpt lat="44.6763417" lon="9.4015183"><ele>821.0</ele><time>2026-04-26T09:27:28.014Z</time></trkpt><trkpt lat="44.6761767" lon="9.401605"><ele>821.0</ele><time>2026-04-26T09:27:29.014Z</time></trkpt><trkpt lat="44.6760083" lon="9.4016867"><ele>821.0</ele><time>2026-04-26T09:27:30.014Z</time></trkpt><trkpt lat="44.6758517" lon="9.40177"><ele>816.6666666666667</ele><time>2026-04-26T09:27:31.014Z</time></trkpt><trkpt lat="44.675695" lon="9.4018433"><ele>812.3333333333333</ele><time>2026-04-26T09:27:32.014Z</time></trkpt><trkpt lat="44.67556" lon="9.4019217"><ele>808.0</ele><time>2026-04-26T09:27:33.014Z</time></trkpt><trkpt lat="44.6754333" lon="9.4020033"><ele>808.0</ele><time>2026-04-26T09:27:34.013Z</time></trkpt><trkpt lat="44.6753417" lon="9.4021133"><ele>808.0</ele><time>2026-04-26T09:27:35.013Z</time></trkpt><trkpt lat="44.6753083" lon="9.4022917"><ele>808.0</ele><time>2026-04-26T09:27:36.014Z</time></trkpt><trkpt lat="44.67531" lon="9.4024833"><ele>808.0</ele><time>2026-04-26T09:27:37.014Z</time></trkpt><trkpt lat="44.675345" lon="9.4026733"><ele>812.0</ele><time>2026-04-26T09:27:38.013Z</time></trkpt><trkpt lat="44.6754233" lon="9.40284"><ele>816.0</ele><time>2026-04-26T09:27:39.014Z</time></trkpt><trkpt lat="44.6754933" lon="9.402995"><ele>820.0</ele><time>2026-04-26T09:27:40.014Z</time></trkpt><trkpt lat="44.6755467" lon="9.403145"><ele>824.0</ele><time>2026-04-26T09:27:41.014Z</time></trkpt><trkpt lat="44.6755617" lon="9.4032917"><ele>824.5</ele><time>2026-04-26T09:27:42.013Z</time></trkpt><trkpt lat="44.6755333" lon="9.403465"><ele>825.0</ele><time>2026-04-26T09:27:43.013Z</time></trkpt><trkpt lat="44.675445" lon="9.40361"><ele>825.5</ele><time>2026-04-26T09:27:44.014Z</time></trkpt><trkpt lat="44.6753333" lon="9.40373"><ele>826.0</ele><time>2026-04-26T09:27:45.014Z</time></trkpt><trkpt lat="44.67523" lon="9.4038333"><ele>826.3333333333333</ele><time>2026-04-26T09:27:46.014Z</time></trkpt><trkpt lat="44.6750867" lon="9.4039083"><ele>826.6666666666667</ele><time>2026-04-26T09:27:47.014Z</time></trkpt><trkpt lat="44.6749367" lon="9.4040167"><ele>827.0</ele><time>2026-04-26T09:27:48.014Z</time></trkpt><trkpt lat="44.6747833" lon="9.404135"><ele>827.0</ele><time>2026-04-26T09:27:49.013Z</time></trkpt><trkpt lat="44.67462" lon="9.404265"><ele>827.0</ele><time>2026-04-26T09:27:50.014Z</time></trkpt><trkpt lat="44.6744567" lon="9.40438"><ele>827.0</ele><time>2026-04-26T09:27:51.014Z</time></trkpt><trkpt lat="44.6742967" lon="9.404485"><ele>822.0</ele><time>2026-04-26T09:27:52.013Z</time></trkpt><trkpt lat="44.6740933" lon="9.404515"><ele>817.0</ele><time>2026-04-26T09:27:53.014Z</time></trkpt><trkpt lat="44.6738567" lon="9.4044783"><ele>812.0</ele><time>2026-04-26T09:27:54.013Z</time></trkpt><trkpt lat="44.6736267" lon="9.404445"><ele>810.0</ele><time>2026-04-26T09:27:55.013Z</time></trkpt><trkpt lat="44.6734067" lon="9.4044683"><ele>808.0</ele><time>2026-04-26T09:27:56.014Z</time></trkpt><trkpt lat="44.6731933" lon="9.404495"><ele>806.0</ele><time>2026-04-26T09:27:57.014Z</time></trkpt><trkpt lat="44.67301" lon="9.4045433"><ele>806.0</ele><time>2026-04-26T09:27:58.014Z</time></trkpt><trkpt lat="44.6728367" lon="9.404615"><ele>806.0</ele><time>2026-04-26T09:27:59.014Z</time></trkpt><trkpt lat="44.6726767" lon="9.4046883"><ele>806.0</ele><time>2026-04-26T09:28:00.013Z</time></trkpt><trkpt lat="44.6725267" lon="9.404755"><ele>809.0</ele><time>2026-04-26T09:28:01.014Z</time></trkpt><trkpt lat="44.6724167" lon="9.4048617"><ele>812.0</ele><time>2026-04-26T09:28:02.013Z</time></trkpt><trkpt lat="44.6723117" lon="9.4049667"><ele>815.0</ele><time>2026-04-26T09:28:03.014Z</time></trkpt><trkpt lat="44.6722167" lon="9.4050867"><ele>818.0</ele><time>2026-04-26T09:28:04.014Z</time></trkpt><trkpt lat="44.67218" lon="9.40524"><ele>818.0</ele><time>2026-04-26T09:28:05.013Z</time></trkpt><trkpt lat="44.6721883" lon="9.4054133"><ele>818.0</ele><time>2026-04-26T09:28:06.014Z</time></trkpt><trkpt lat="44.6722683" lon="9.4056033"><ele>818.0</ele><time>2026-04-26T09:28:07.013Z</time></trkpt><trkpt lat="44.6724083" lon="9.4058067"><ele>817.5</ele><time>2026-04-26T09:28:08.013Z</time></trkpt><trkpt lat="44.6725433" lon="9.406015"><ele>817.0</ele><time>2026-04-26T09:28:09.013Z</time></trkpt><trkpt lat="44.6727567" lon="9.4062417"><ele>823.0</ele><time>2026-04-26T09:28:10.013Z</time></trkpt><trkpt lat="44.6728933" lon="9.4064467"><ele>829.0</ele><time>2026-04-26T09:28:11.014Z</time></trkpt><trkpt lat="44.6730233" lon="9.4066517"><ele>835.0</ele><time>2026-04-26T09:28:12.013Z</time></trkpt><trkpt lat="44.6731267" lon="9.406875"><ele>835.0</ele><time>2026-04-26T09:28:13.014Z</time></trkpt><trkpt lat="44.6732267" lon="9.4070967"><ele>835.0</ele><time>2026-04-26T09:28:14.013Z</time></trkpt><trkpt lat="44.67333" lon="9.407305"><ele>835.0</ele><time>2026-04-26T09:28:15.013Z</time></trkpt><trkpt lat="44.6734267" lon="9.4074883"><ele>836.3333333333333</ele><time>2026-04-26T09:28:16.013Z</time></trkpt><trkpt lat="44.6735283" lon="9.4076883"><ele>837.6666666666667</ele><time>2026-04-26T09:28:17.013Z</time></trkpt><trkpt lat="44.6735867" lon="9.4079117"><ele>839.0</ele><time>2026-04-26T09:28:18.014Z</time></trkpt><trkpt lat="44.6736233" lon="9.4081317"><ele>839.0</ele><time>2026-04-26T09:28:19.013Z</time></trkpt><trkpt lat="44.6736717" lon="9.40834"><ele>839.0</ele><time>2026-04-26T09:28:20.014Z</time></trkpt><trkpt lat="44.67376" lon="9.4085233"><ele>839.0</ele><time>2026-04-26T09:28:21.014Z</time></trkpt><trkpt lat="44.6738633" lon="9.4086833"><ele>839.0</ele><time>2026-04-26T09:28:22.013Z</time></trkpt><trkpt lat="44.674" lon="9.4088033"><ele>839.0</ele><time>2026-04-26T09:28:23.014Z</time></trkpt><trkpt lat="44.6741367" lon="9.4089517"><ele>839.0</ele><time>2026-04-26T09:28:24.013Z</time></trkpt><trkpt lat="44.67426" lon="9.409115"><ele>835.3333333333334</ele><time>2026-04-26T09:28:25.013Z</time></trkpt><trkpt lat="44.674345" lon="9.40935"><ele>831.6666666666667</ele><time>2026-04-26T09:28:26.014Z</time></trkpt><trkpt lat="44.674425" lon="9.4096033"><ele>828.0</ele><time>2026-04-26T09:28:27.014Z</time></trkpt><trkpt lat="44.6744967" lon="9.4098433"><ele>832.6666666666667</ele><time>2026-04-26T09:28:28.013Z</time></trkpt><trkpt lat="44.6745583" lon="9.4100667"><ele>837.3333333333334</ele><time>2026-04-26T09:28:29.013Z</time></trkpt><trkpt lat="44.674615" lon="9.4102867"><ele>842.0</ele><time>2026-04-26T09:28:30.013Z</time></trkpt><trkpt lat="44.6746733" lon="9.4104917"><ele>842.0</ele><time>2026-04-26T09:28:31.013Z</time></trkpt><trkpt lat="44.67472" lon="9.41069"><ele>842.0</ele><time>2026-04-26T09:28:32.014Z</time></trkpt><trkpt lat="44.6747783" lon="9.4108767"><ele>842.0</ele><time>2026-04-26T09:28:33.014Z</time></trkpt><trkpt lat="44.67485" lon="9.41108"><ele>842.0</ele><time>2026-04-26T09:28:34.014Z</time></trkpt><trkpt lat="44.67495" lon="9.41123"><ele>842.0</ele><time>2026-04-26T09:28:35.014Z</time></trkpt><trkpt lat="44.6750783" lon="9.4113383"><ele>842.0</ele><time>2026-04-26T09:28:36.014Z</time></trkpt><trkpt lat="44.675245" lon="9.4113833"><ele>838.0</ele><time>2026-04-26T09:28:37.014Z</time></trkpt><trkpt lat="44.6754217" lon="9.4114067"><ele>834.0</ele><time>2026-04-26T09:28:38.013Z</time></trkpt><trkpt lat="44.6756317" lon="9.41142"><ele>830.0</ele><time>2026-04-26T09:28:39.014Z</time></trkpt><trkpt lat="44.6758483" lon="9.4114417"><ele>830.0</ele><time>2026-04-26T09:28:40.013Z</time></trkpt><trkpt lat="44.6760617" lon="9.4114683"><ele>830.0</ele><time>2026-04-26T09:28:41.014Z</time></trkpt><trkpt lat="44.6762467" lon="9.4115283"><ele>830.0</ele><time>2026-04-26T09:28:42.013Z</time></trkpt><trkpt lat="44.676395" lon="9.4115783"><ele>832.75</ele><time>2026-04-26T09:28:43.013Z</time></trkpt><trkpt lat="44.676535" lon="9.4116517"><ele>835.5</ele><time>2026-04-26T09:28:44.013Z</time></trkpt><trkpt lat="44.6766633" lon="9.4117533"><ele>838.25</ele><time>2026-04-26T09:28:45.013Z</time></trkpt><trkpt lat="44.6767517" lon="9.4119167"><ele>841.0</ele><time>2026-04-26T09:28:46.014Z</time></trkpt><trkpt lat="44.6768117" lon="9.41213"><ele>839.0</ele><time>2026-04-26T09:28:47.013Z</time></trkpt><trkpt lat="44.676835" lon="9.41239"><ele>837.0</ele><time>2026-04-26T09:28:48.014Z</time></trkpt><trkpt lat="44.67683" lon="9.4126483"><ele>835.0</ele><time>2026-04-26T09:28:49.014Z</time></trkpt><trkpt lat="44.6767867" lon="9.4128967"><ele>838.0</ele><time>2026-04-26T09:28:50.014Z</time></trkpt><trkpt lat="44.6767067" lon="9.4131367"><ele>841.0</ele><time>2026-04-26T09:28:51.013Z</time></trkpt><trkpt lat="44.67662" lon="9.4133467"><ele>844.0</ele><time>2026-04-26T09:28:52.013Z</time></trkpt><trkpt lat="44.6765567" lon="9.413535"><ele>844.0</ele><time>2026-04-26T09:28:53.013Z</time></trkpt><trkpt lat="44.6765067" lon="9.413705"><ele>844.0</ele><time>2026-04-26T09:28:54.014Z</time></trkpt><trkpt lat="44.67649" lon="9.4138783"><ele>844.0</ele><time>2026-04-26T09:28:55.014Z</time></trkpt><trkpt lat="44.67649" lon="9.4140383"><ele>844.0</ele><time>2026-04-26T09:28:56.013Z</time></trkpt><trkpt lat="44.6765533" lon="9.4141517"><ele>842.0</ele><time>2026-04-26T09:28:57.014Z</time></trkpt><trkpt lat="44.6766117" lon="9.4142833"><ele>840.0</ele><time>2026-04-26T09:28:58.013Z</time></trkpt><trkpt lat="44.6767517" lon="9.4143567"><ele>838.0</ele><time>2026-04-26T09:28:59.013Z</time></trkpt><trkpt lat="44.6769" lon="9.4144783"><ele>836.0</ele><time>2026-04-26T09:29:00.013Z</time></trkpt><trkpt lat="44.6770683" lon="9.4146167"><ele>838.6666666666667</ele><time>2026-04-26T09:29:01.014Z</time></trkpt><trkpt lat="44.67722" lon="9.4148133"><ele>841.3333333333333</ele><time>2026-04-26T09:29:02.013Z</time></trkpt><trkpt lat="44.67736" lon="9.4150017"><ele>844.0</ele><time>2026-04-26T09:29:03.014Z</time></trkpt><trkpt lat="44.6774833" lon="9.4151667"><ele>844.0</ele><time>2026-04-26T09:29:04.013Z</time></trkpt><trkpt lat="44.6776" lon="9.41531"><ele>844.0</ele><time>2026-04-26T09:29:05.013Z</time></trkpt><trkpt lat="44.6777133" lon="9.4154183"><ele>844.0</ele><time>2026-04-26T09:29:06.014Z</time></trkpt><trkpt lat="44.6778" lon="9.4155317"><ele>844.0</ele><time>2026-04-26T09:29:07.013Z</time></trkpt><trkpt lat="44.6778117" lon="9.4156833"><ele>847.0</ele><time>2026-04-26T09:29:08.014Z</time></trkpt><trkpt lat="44.6778" lon="9.4158433"><ele>850.0</ele><time>2026-04-26T09:29:09.014Z</time></trkpt><trkpt lat="44.6778017" lon="9.4159983"><ele>853.0</ele><time>2026-04-26T09:29:10.014Z</time></trkpt><trkpt lat="44.677835" lon="9.4161433"><ele>856.0</ele><time>2026-04-26T09:29:11.013Z</time></trkpt><trkpt lat="44.6779083" lon="9.41628"><ele>853.6666666666666</ele><time>2026-04-26T09:29:12.014Z</time></trkpt><trkpt lat="44.678015" lon="9.416415"><ele>851.3333333333333</ele><time>2026-04-26T09:29:13.014Z</time></trkpt><trkpt lat="44.6781233" lon="9.4165683"><ele>849.0</ele><time>2026-04-26T09:29:14.014Z</time></trkpt><trkpt lat="44.6782233" lon="9.4167733"><ele>849.0</ele><time>2026-04-26T09:29:15.014Z</time></trkpt><trkpt lat="44.678315" lon="9.416995"><ele>849.0</ele><time>2026-04-26T09:29:16.014Z</time></trkpt><trkpt lat="44.6783583" lon="9.417255"><ele>849.0</ele><time>2026-04-26T09:29:17.014Z</time></trkpt><trkpt lat="44.678385" lon="9.4175"><ele>848.6666666666667</ele><time>2026-04-26T09:29:18.014Z</time></trkpt><trkpt lat="44.67842" lon="9.4177433"><ele>848.3333333333334</ele><time>2026-04-26T09:29:19.014Z</time></trkpt><trkpt lat="44.6784233" lon="9.418"><ele>848.0</ele><time>2026-04-26T09:29:20.014Z</time></trkpt><trkpt lat="44.6784367" lon="9.4182767"><ele>848.0</ele><time>2026-04-26T09:29:21.013Z</time></trkpt><trkpt lat="44.6784567" lon="9.4185"><ele>848.0</ele><time>2026-04-26T09:29:22.014Z</time></trkpt><trkpt lat="44.6785167" lon="9.4186883"><ele>848.0</ele><time>2026-04-26T09:29:23.013Z</time></trkpt><trkpt lat="44.6785933" lon="9.418895"><ele>856.6666666666667</ele><time>2026-04-26T09:29:24.013Z</time></trkpt><trkpt lat="44.6786817" lon="9.4191"><ele>865.3333333333333</ele><time>2026-04-26T09:29:25.013Z</time></trkpt><trkpt lat="44.6787683" lon="9.4192883"><ele>874.0</ele><time>2026-04-26T09:29:26.014Z</time></trkpt><trkpt lat="44.6788367" lon="9.4194517"><ele>874.0</ele><time>2026-04-26T09:29:27.014Z</time></trkpt><trkpt lat="44.6788883" lon="9.41958"><ele>874.0000000000001</ele><time>2026-04-26T09:29:28.014Z</time></trkpt><trkpt lat="44.6789233" lon="9.4197133"><ele>874.0000000000001</ele><time>2026-04-26T09:29:29.013Z</time></trkpt><trkpt lat="44.67896" lon="9.4198467"><ele>874.0</ele><time>2026-04-26T09:29:30.014Z</time></trkpt><trkpt lat="44.6789917" lon="9.4199817"><ele>874.0</ele><time>2026-04-26T09:29:31.013Z</time></trkpt><trkpt lat="44.67896" lon="9.4201083"><ele>872.0</ele><time>2026-04-26T09:29:32.013Z</time></trkpt><trkpt lat="44.6788817" lon="9.4202183"><ele>870.0</ele><time>2026-04-26T09:29:33.014Z</time></trkpt><trkpt lat="44.6787717" lon="9.4202767"><ele>868.0</ele><time>2026-04-26T09:29:34.013Z</time></trkpt><trkpt lat="44.6786233" lon="9.420265"><ele>866.0</ele><time>2026-04-26T09:29:35.013Z</time></trkpt><trkpt lat="44.678465" lon="9.4202067"><ele>862.3333333333334</ele><time>2026-04-26T09:29:36.014Z</time></trkpt><trkpt lat="44.6783317" lon="9.4201233"><ele>858.6666666666667</ele><time>2026-04-26T09:29:37.013Z</time></trkpt><trkpt lat="44.678195" lon="9.4200333"><ele>855.0</ele><time>2026-04-26T09:29:38.014Z</time></trkpt><trkpt lat="44.678005" lon="9.41997"><ele>855.0</ele><time>2026-04-26T09:29:39.013Z</time></trkpt><trkpt lat="44.6778433" lon="9.4199483"><ele>855.0</ele><time>2026-04-26T09:29:40.014Z</time></trkpt><trkpt lat="44.6777033" lon="9.4199383"><ele>855.0</ele><time>2026-04-26T09:29:41.014Z</time></trkpt><trkpt lat="44.6775783" lon="9.4199567"><ele>855.0</ele><time>2026-04-26T09:29:42.014Z</time></trkpt><trkpt lat="44.6774617" lon="9.4200383"><ele>854.5</ele><time>2026-04-26T09:29:43.013Z</time></trkpt><trkpt lat="44.677375" lon="9.4201583"><ele>854.0</ele><time>2026-04-26T09:29:44.013Z</time></trkpt><trkpt lat="44.6773117" lon="9.4203167"><ele>853.5</ele><time>2026-04-26T09:29:45.013Z</time></trkpt><trkpt lat="44.67728" lon="9.4205683"><ele>853.0</ele><time>2026-04-26T09:29:46.013Z</time></trkpt><trkpt lat="44.677255" lon="9.4208333"><ele>855.3333333333333</ele><time>2026-04-26T09:29:47.013Z</time></trkpt><trkpt lat="44.67723" lon="9.4210933"><ele>857.6666666666667</ele><time>2026-04-26T09:29:48.014Z</time></trkpt><trkpt lat="44.6771833" lon="9.4213617"><ele>860.0</ele><time>2026-04-26T09:29:49.014Z</time></trkpt><trkpt lat="44.6771383" lon="9.4216067"><ele>860.0</ele><time>2026-04-26T09:29:50.014Z</time></trkpt><trkpt lat="44.6770783" lon="9.421835"><ele>860.0</ele><time>2026-04-26T09:29:51.014Z</time></trkpt><trkpt lat="44.677035" lon="9.42201"><ele>860.0</ele><time>2026-04-26T09:29:52.013Z</time></trkpt><trkpt lat="44.67695" lon="9.42217"><ele>860.0</ele><time>2026-04-26T09:29:53.014Z</time></trkpt><trkpt lat="44.6768617" lon="9.4222783"><ele>864.0</ele><time>2026-04-26T09:29:54.013Z</time></trkpt><trkpt lat="44.6767633" lon="9.422365"><ele>868.0</ele><time>2026-04-26T09:29:55.013Z</time></trkpt><trkpt lat="44.676665" lon="9.4224383"><ele>872.0</ele><time>2026-04-26T09:29:56.014Z</time></trkpt><trkpt lat="44.676555" lon="9.4224767"><ele>876.0</ele><time>2026-04-26T09:29:57.013Z</time></trkpt><trkpt lat="44.6764417" lon="9.4224467"><ele>876.0</ele><time>2026-04-26T09:29:58.013Z</time></trkpt><trkpt lat="44.67632" lon="9.42236"><ele>876.0</ele><time>2026-04-26T09:29:59.013Z</time></trkpt><trkpt lat="44.676205" lon="9.422235"><ele>876.0</ele><time>2026-04-26T09:30:00.014Z</time></trkpt><trkpt lat="44.676065" lon="9.4220367"><ele>876.0</ele><time>2026-04-26T09:30:01.013Z</time></trkpt><trkpt lat="44.6759067" lon="9.421795"><ele>876.0</ele><time>2026-04-26T09:30:02.014Z</time></trkpt><trkpt lat="44.6757483" lon="9.421575"><ele>868.0</ele><time>2026-04-26T09:30:03.013Z</time></trkpt><trkpt lat="44.6755617" lon="9.4212583"><ele>860.0</ele><time>2026-04-26T09:30:04.013Z</time></trkpt><trkpt lat="44.6754067" lon="9.4211417"><ele>865.0</ele><time>2026-04-26T09:30:05.013Z</time></trkpt><trkpt lat="44.675245" lon="9.4210567"><ele>870.0</ele><time>2026-04-26T09:30:06.013Z</time></trkpt><trkpt lat="44.6750767" lon="9.42101"><ele>875.0</ele><time>2026-04-26T09:30:07.013Z</time></trkpt><trkpt lat="44.6748933" lon="9.4209617"><ele>875.0</ele><time>2026-04-26T09:30:08.013Z</time></trkpt><trkpt lat="44.6747767" lon="9.4208317"><ele>875.0</ele><time>2026-04-26T09:30:09.013Z</time></trkpt><trkpt lat="44.6746617" lon="9.4206967"><ele>875.0</ele><time>2026-04-26T09:30:10.014Z</time></trkpt><trkpt lat="44.6745733" lon="9.4205267"><ele>875.0</ele><time>2026-04-26T09:30:11.014Z</time></trkpt><trkpt lat="44.6745117" lon="9.4203367"><ele>874.25</ele><time>2026-04-26T09:30:12.013Z</time></trkpt><trkpt lat="44.6744483" lon="9.4201683"><ele>873.5</ele><time>2026-04-26T09:30:13.013Z</time></trkpt><trkpt lat="44.674395" lon="9.4200117"><ele>872.75</ele><time>2026-04-26T09:30:14.014Z</time></trkpt><trkpt lat="44.674325" lon="9.4199083"><ele>872.0</ele><time>2026-04-26T09:30:15.014Z</time></trkpt><trkpt lat="44.6742283" lon="9.4199183"><ele>872.0</ele><time>2026-04-26T09:30:16.013Z</time></trkpt><trkpt lat="44.6741233" lon="9.4200317"><ele>872.0</ele><time>2026-04-26T09:30:17.013Z</time></trkpt><trkpt lat="44.6740533" lon="9.4201167"><ele>872.0</ele><time>2026-04-26T09:30:18.014Z</time></trkpt><trkpt lat="44.6739983" lon="9.4201867"><ele>872.0</ele><time>2026-04-26T09:30:19.013Z</time></trkpt><trkpt lat="44.6739333" lon="9.42025"><ele>872.0</ele><time>2026-04-26T09:30:20.014Z</time></trkpt><trkpt lat="44.67386" lon="9.4202917"><ele>872.0</ele><time>2026-04-26T09:30:21.013Z</time></trkpt><trkpt lat="44.67378" lon="9.4203183"><ele>872.0</ele><time>2026-04-26T09:30:22.013Z</time></trkpt><trkpt lat="44.6736917" lon="9.420325"><ele>872.0</ele><time>2026-04-26T09:30:23.014Z</time></trkpt><trkpt lat="44.6735833" lon="9.4203233"><ele>872.0</ele><time>2026-04-26T09:30:24.014Z</time></trkpt><trkpt lat="44.6734617" lon="9.4203167"><ele>872.0</ele><time>2026-04-26T09:30:25.013Z</time></trkpt><trkpt lat="44.67332" lon="9.42032"><ele>870.6666666666667</ele><time>2026-04-26T09:30:26.014Z</time></trkpt><trkpt lat="44.6731483" lon="9.420445"><ele>869.3333333333333</ele><time>2026-04-26T09:30:27.013Z</time></trkpt><trkpt lat="44.6729817" lon="9.420555"><ele>868.0</ele><time>2026-04-26T09:30:28.013Z</time></trkpt><trkpt lat="44.6728233" lon="9.42068"><ele>874.0</ele><time>2026-04-26T09:30:29.013Z</time></trkpt><trkpt lat="44.6726667" lon="9.4207833"><ele>880.0</ele><time>2026-04-26T09:30:30.014Z</time></trkpt><trkpt lat="44.6725017" lon="9.420845"><ele>886.0</ele><time>2026-04-26T09:30:31.014Z</time></trkpt><trkpt lat="44.6723367" lon="9.4208967"><ele>886.0</ele><time>2026-04-26T09:30:32.014Z</time></trkpt><trkpt lat="44.672165" lon="9.42093"><ele>886.0</ele><time>2026-04-26T09:30:33.013Z</time></trkpt><trkpt lat="44.672015" lon="9.42095"><ele>886.0</ele><time>2026-04-26T09:30:34.014Z</time></trkpt><trkpt lat="44.671885" lon="9.4209367"><ele>888.0</ele><time>2026-04-26T09:30:35.013Z</time></trkpt><trkpt lat="44.67177" lon="9.4208367"><ele>890.0</ele><time>2026-04-26T09:30:36.013Z</time></trkpt><trkpt lat="44.6716717" lon="9.4206933"><ele>892.0</ele><time>2026-04-26T09:30:37.013Z</time></trkpt><trkpt lat="44.6715867" lon="9.4205333"><ele>894.0</ele><time>2026-04-26T09:30:38.013Z</time></trkpt><trkpt lat="44.6714883" lon="9.42041"><ele>892.8000000000001</ele><time>2026-04-26T09:30:39.014Z</time></trkpt><trkpt lat="44.6713867" lon="9.4203217"><ele>891.6000000000001</ele><time>2026-04-26T09:30:40.013Z</time></trkpt><trkpt lat="44.6713" lon="9.4202683"><ele>890.4</ele><time>2026-04-26T09:30:41.014Z</time></trkpt><trkpt lat="44.6712017" lon="9.420305"><ele>889.2</ele><time>2026-04-26T09:30:42.014Z</time></trkpt><trkpt lat="44.67108" lon="9.42038"><ele>888.0</ele><time>2026-04-26T09:30:43.014Z</time></trkpt><trkpt lat="44.6709767" lon="9.4205267"><ele>888.0</ele><time>2026-04-26T09:30:44.013Z</time></trkpt><trkpt lat="44.6708967" lon="9.4207267"><ele>888.0</ele><time>2026-04-26T09:30:45.013Z</time></trkpt><trkpt lat="44.670815" lon="9.4208833"><ele>888.0</ele><time>2026-04-26T09:30:46.014Z</time></trkpt><trkpt lat="44.670725" lon="9.4210067"><ele>888.0</ele><time>2026-04-26T09:30:47.014Z</time></trkpt><trkpt lat="44.67061" lon="9.4210983"><ele>888.0</ele><time>2026-04-26T09:30:48.013Z</time></trkpt><trkpt lat="44.6704783" lon="9.4211517"><ele>888.0</ele><time>2026-04-26T09:30:49.013Z</time></trkpt><trkpt lat="44.67035" lon="9.42121"><ele>888.0</ele><time>2026-04-26T09:30:50.013Z</time></trkpt><trkpt lat="44.67024" lon="9.4212717"><ele>888.0</ele><time>2026-04-26T09:30:51.013Z</time></trkpt><trkpt lat="44.67015" lon="9.4213733"><ele>887.25</ele><time>2026-04-26T09:30:52.014Z</time></trkpt><trkpt lat="44.6700883" lon="9.42151"><ele>886.5</ele><time>2026-04-26T09:30:53.013Z</time></trkpt><trkpt lat="44.6700617" lon="9.421705"><ele>885.75</ele><time>2026-04-26T09:30:54.014Z</time></trkpt><trkpt lat="44.6700583" lon="9.42195"><ele>885.0</ele><time>2026-04-26T09:30:55.014Z</time></trkpt><trkpt lat="44.67001" lon="9.42215"><ele>885.0</ele><time>2026-04-26T09:30:56.013Z</time></trkpt><trkpt lat="44.6699917" lon="9.42238"><ele>885.0</ele><time>2026-04-26T09:30:57.014Z</time></trkpt><trkpt lat="44.67007" lon="9.4226817"><ele>885.0</ele><time>2026-04-26T09:30:58.014Z</time></trkpt><trkpt lat="44.6701167" lon="9.4229317"><ele>885.75</ele><time>2026-04-26T09:30:59.014Z</time></trkpt><trkpt lat="44.67013" lon="9.423135"><ele>886.5</ele><time>2026-04-26T09:31:00.013Z</time></trkpt><trkpt lat="44.6701833" lon="9.4233183"><ele>887.25</ele><time>2026-04-26T09:31:01.013Z</time></trkpt><trkpt lat="44.6702783" lon="9.4234917"><ele>888.0</ele><time>2026-04-26T09:31:02.013Z</time></trkpt><trkpt lat="44.67033" lon="9.4236633"><ele>889.0</ele><time>2026-04-26T09:31:03.014Z</time></trkpt><trkpt lat="44.6702933" lon="9.42385"><ele>890.0</ele><time>2026-04-26T09:31:04.014Z</time></trkpt><trkpt lat="44.6702633" lon="9.424045"><ele>891.0</ele><time>2026-04-26T09:31:05.013Z</time></trkpt><trkpt lat="44.67021" lon="9.4242383"><ele>892.0</ele><time>2026-04-26T09:31:06.014Z</time></trkpt><trkpt lat="44.6701267" lon="9.4244383"><ele>892.0</ele><time>2026-04-26T09:31:07.013Z</time></trkpt><trkpt lat="44.6700633" lon="9.424645"><ele>892.0</ele><time>2026-04-26T09:31:08.014Z</time></trkpt><trkpt lat="44.6699833" lon="9.4249017"><ele>892.0</ele><time>2026-04-26T09:31:09.013Z</time></trkpt><trkpt lat="44.66991" lon="9.42516"><ele>893.6666666666666</ele><time>2026-04-26T09:31:10.014Z</time></trkpt><trkpt lat="44.6698567" lon="9.4254233"><ele>895.3333333333333</ele><time>2026-04-26T09:31:11.013Z</time></trkpt><trkpt lat="44.6698167" lon="9.42568"><ele>897.0</ele><time>2026-04-26T09:31:12.014Z</time></trkpt><trkpt lat="44.6697767" lon="9.4259617"><ele>900.6666666666667</ele><time>2026-04-26T09:31:13.014Z</time></trkpt><trkpt lat="44.669735" lon="9.4262367"><ele>904.3333333333334</ele><time>2026-04-26T09:31:14.013Z</time></trkpt><trkpt lat="44.66968" lon="9.4264983"><ele>908.0</ele><time>2026-04-26T09:31:15.013Z</time></trkpt><trkpt lat="44.66963" lon="9.4267"><ele>910.3333333333334</ele><time>2026-04-26T09:31:16.013Z</time></trkpt><trkpt lat="44.6695733" lon="9.4269183"><ele>912.6666666666667</ele><time>2026-04-26T09:31:17.013Z</time></trkpt><trkpt lat="44.66951" lon="9.4271267"><ele>915.0</ele><time>2026-04-26T09:31:18.014Z</time></trkpt><trkpt lat="44.669445" lon="9.4273183"><ele>912.25</ele><time>2026-04-26T09:31:19.014Z</time></trkpt><trkpt lat="44.669365" lon="9.4274883"><ele>909.5</ele><time>2026-04-26T09:31:20.013Z</time></trkpt><trkpt lat="44.6692933" lon="9.42764"><ele>906.75</ele><time>2026-04-26T09:31:21.013Z</time></trkpt><trkpt lat="44.66923" lon="9.4277583"><ele>904.0</ele><time>2026-04-26T09:31:22.013Z</time></trkpt><trkpt lat="44.6691533" lon="9.42788"><ele>904.0</ele><time>2026-04-26T09:31:23.014Z</time></trkpt><trkpt lat="44.6690667" lon="9.4279483"><ele>904.0</ele><time>2026-04-26T09:31:24.014Z</time></trkpt><trkpt lat="44.668975" lon="9.42797"><ele>904.0</ele><time>2026-04-26T09:31:25.013Z</time></trkpt><trkpt lat="44.6688417" lon="9.4278033"><ele>904.0</ele><time>2026-04-26T09:31:26.013Z</time></trkpt><trkpt lat="44.6687317" lon="9.4276733"><ele>904.0</ele><time>2026-04-26T09:31:27.014Z</time></trkpt><trkpt lat="44.6686483" lon="9.4274467"><ele>904.0</ele><time>2026-04-26T09:31:28.013Z</time></trkpt><trkpt lat="44.6685967" lon="9.4272133"><ele>904.0</ele><time>2026-04-26T09:31:29.013Z</time></trkpt><trkpt lat="44.6685267" lon="9.4270333"><ele>902.5</ele><time>2026-04-26T09:31:30.014Z</time></trkpt><trkpt lat="44.6684583" lon="9.4268817"><ele>901.0</ele><time>2026-04-26T09:31:31.014Z</time></trkpt><trkpt lat="44.66838" lon="9.426765"><ele>899.5</ele><time>2026-04-26T09:31:32.014Z</time></trkpt><trkpt lat="44.6682917" lon="9.4266783"><ele>898.0</ele><time>2026-04-26T09:31:33.013Z</time></trkpt><trkpt lat="44.6682017" lon="9.426605"><ele>898.0</ele><time>2026-04-26T09:31:34.014Z</time></trkpt><trkpt lat="44.66808" lon="9.426555"><ele>898.0</ele><time>2026-04-26T09:31:35.014Z</time></trkpt><trkpt lat="44.6679433" lon="9.4265383"><ele>898.0</ele><time>2026-04-26T09:31:36.014Z</time></trkpt><trkpt lat="44.667815" lon="9.42654"><ele>898.0</ele><time>2026-04-26T09:31:37.013Z</time></trkpt><trkpt lat="44.6677" lon="9.4265617"><ele>898.9999999999999</ele><time>2026-04-26T09:31:38.013Z</time></trkpt><trkpt lat="44.6676083" lon="9.4266167"><ele>900.0</ele><time>2026-04-26T09:31:39.013Z</time></trkpt><trkpt lat="44.6675383" lon="9.4266817"><ele>901.0</ele><time>2026-04-26T09:31:40.014Z</time></trkpt><trkpt lat="44.667475" lon="9.4267567"><ele>902.0</ele><time>2026-04-26T09:31:41.013Z</time></trkpt><trkpt lat="44.6674267" lon="9.4268267"><ele>902.9999999999999</ele><time>2026-04-26T09:31:42.013Z</time></trkpt><trkpt lat="44.6673583" lon="9.4269383"><ele>904.0</ele><time>2026-04-26T09:31:44.013Z</time></trkpt><trkpt lat="44.667315" lon="9.4271133"><ele>904.75</ele><time>2026-04-26T09:31:46.013Z</time></trkpt><trkpt lat="44.6672983" lon="9.427235"><ele>905.5</ele><time>2026-04-26T09:31:47.014Z</time></trkpt><trkpt lat="44.6672817" lon="9.4273983"><ele>906.25</ele><time>2026-04-26T09:31:48.014Z</time></trkpt><trkpt lat="44.6673133" lon="9.4276183"><ele>907.0</ele><time>2026-04-26T09:31:49.014Z</time></trkpt><trkpt lat="44.66734" lon="9.4278067"><ele>907.0</ele><time>2026-04-26T09:31:50.014Z</time></trkpt><trkpt lat="44.6673667" lon="9.4279717"><ele>907.0</ele><time>2026-04-26T09:31:51.014Z</time></trkpt><trkpt lat="44.6673917" lon="9.428115"><ele>907.0</ele><time>2026-04-26T09:31:52.013Z</time></trkpt><trkpt lat="44.66742" lon="9.4282583"><ele>907.0</ele><time>2026-04-26T09:31:53.013Z</time></trkpt><trkpt lat="44.6674533" lon="9.428405"><ele>907.0</ele><time>2026-04-26T09:31:54.014Z</time></trkpt><trkpt lat="44.6674767" lon="9.4285767"><ele>908.25</ele><time>2026-04-26T09:31:55.013Z</time></trkpt><trkpt lat="44.66749" lon="9.428755"><ele>909.5</ele><time>2026-04-26T09:31:56.013Z</time></trkpt><trkpt lat="44.6674867" lon="9.4289667"><ele>910.75</ele><time>2026-04-26T09:31:57.013Z</time></trkpt><trkpt lat="44.66748" lon="9.42913"><ele>912.0</ele><time>2026-04-26T09:31:58.014Z</time></trkpt><trkpt lat="44.6674217" lon="9.429285"><ele>913.75</ele><time>2026-04-26T09:31:59.013Z</time></trkpt><trkpt lat="44.6673067" lon="9.429395"><ele>915.5</ele><time>2026-04-26T09:32:00.014Z</time></trkpt><trkpt lat="44.667175" lon="9.4294983"><ele>917.25</ele><time>2026-04-26T09:32:01.013Z</time></trkpt><trkpt lat="44.6670483" lon="9.4296283"><ele>919.0</ele><time>2026-04-26T09:32:02.013Z</time></trkpt><trkpt lat="44.666905" lon="9.4297633"><ele>919.0</ele><time>2026-04-26T09:32:03.013Z</time></trkpt><trkpt lat="44.6667717" lon="9.4299333"><ele>919.0</ele><time>2026-04-26T09:32:04.014Z</time></trkpt><trkpt lat="44.6666517" lon="9.4301567"><ele>919.0</ele><time>2026-04-26T09:32:05.013Z</time></trkpt><trkpt lat="44.6665367" lon="9.4303633"><ele>920.5</ele><time>2026-04-26T09:32:06.013Z</time></trkpt><trkpt lat="44.6664317" lon="9.4305317"><ele>922.0</ele><time>2026-04-26T09:32:07.014Z</time></trkpt><trkpt lat="44.66633" lon="9.430635"><ele>923.5</ele><time>2026-04-26T09:32:08.014Z</time></trkpt><trkpt lat="44.666215" lon="9.4307133"><ele>925.0</ele><time>2026-04-26T09:32:09.014Z</time></trkpt><trkpt lat="44.66608" lon="9.4307733"><ele>925.0</ele><time>2026-04-26T09:32:10.014Z</time></trkpt><trkpt lat="44.6659717" lon="9.4308233"><ele>925.0</ele><time>2026-04-26T09:32:11.013Z</time></trkpt><trkpt lat="44.6659017" lon="9.430885"><ele>925.0</ele><time>2026-04-26T09:32:12.014Z</time></trkpt><trkpt lat="44.6658433" lon="9.4309733"><ele>925.0</ele><time>2026-04-26T09:32:13.014Z</time></trkpt><trkpt lat="44.6658017" lon="9.431045"><ele>925.0</ele><time>2026-04-26T09:32:14.013Z</time></trkpt><trkpt lat="44.665815" lon="9.4312083"><ele>924.9999999999999</ele><time>2026-04-26T09:32:16.013Z</time></trkpt><trkpt lat="44.6658683" lon="9.4312583"><ele>925.0</ele><time>2026-04-26T09:32:17.014Z</time></trkpt><trkpt lat="44.6659533" lon="9.4313133"><ele>925.0</ele><time>2026-04-26T09:32:19.013Z</time></trkpt><trkpt lat="44.6660333" lon="9.4312917"><ele>925.0</ele><time>2026-04-26T09:32:20.013Z</time></trkpt><trkpt lat="44.6661233" lon="9.4312883"><ele>924.9999999999999</ele><time>2026-04-26T09:32:21.013Z</time></trkpt><trkpt lat="44.666215" lon="9.431295"><ele>925.0</ele><time>2026-04-26T09:32:22.013Z</time></trkpt><trkpt lat="44.66629" lon="9.431325"><ele>930.2</ele><time>2026-04-26T09:32:23.013Z</time></trkpt><trkpt lat="44.66636" lon="9.4313417"><ele>935.4</ele><time>2026-04-26T09:32:24.014Z</time></trkpt><trkpt lat="44.6664067" lon="9.431435"><ele>940.5999999999999</ele><time>2026-04-26T09:32:26.013Z</time></trkpt><trkpt lat="44.666355" lon="9.4315467"><ele>945.8</ele><time>2026-04-26T09:32:28.014Z</time></trkpt><trkpt lat="44.66628" lon="9.4316217"><ele>951.0</ele><time>2026-04-26T09:32:29.014Z</time></trkpt><trkpt lat="44.6661817" lon="9.4317033"><ele>949.6666666666667</ele><time>2026-04-26T09:32:30.013Z</time></trkpt><trkpt lat="44.6660067" lon="9.43174"><ele>948.3333333333334</ele><time>2026-04-26T09:32:31.014Z</time></trkpt><trkpt lat="44.6658217" lon="9.4317817"><ele>947.0</ele><time>2026-04-26T09:32:32.014Z</time></trkpt><trkpt lat="44.6656533" lon="9.4318167"><ele>947.0</ele><time>2026-04-26T09:32:33.014Z</time></trkpt><trkpt lat="44.6655033" lon="9.4318217"><ele>947.0</ele><time>2026-04-26T09:32:34.013Z</time></trkpt><trkpt lat="44.6653617" lon="9.4318617"><ele>947.0</ele><time>2026-04-26T09:32:35.014Z</time></trkpt><trkpt lat="44.6652167" lon="9.43193"><ele>947.0</ele><time>2026-04-26T09:32:36.014Z</time></trkpt><trkpt lat="44.6650533" lon="9.4320233"><ele>946.0</ele><time>2026-04-26T09:32:37.014Z</time></trkpt><trkpt lat="44.6649083" lon="9.4321183"><ele>945.0</ele><time>2026-04-26T09:32:38.013Z</time></trkpt><trkpt lat="44.6647733" lon="9.4321717"><ele>944.0</ele><time>2026-04-26T09:32:39.014Z</time></trkpt><trkpt lat="44.66466" lon="9.4322483"><ele>943.0</ele><time>2026-04-26T09:32:40.014Z</time></trkpt><trkpt lat="44.6645517" lon="9.4323333"><ele>945.5</ele><time>2026-04-26T09:32:41.013Z</time></trkpt><trkpt lat="44.6644467" lon="9.43244"><ele>948.0</ele><time>2026-04-26T09:32:42.013Z</time></trkpt><trkpt lat="44.66435" lon="9.43256"><ele>950.5</ele><time>2026-04-26T09:32:43.014Z</time></trkpt><trkpt lat="44.6642767" lon="9.4327183"><ele>953.0</ele><time>2026-04-26T09:32:44.014Z</time></trkpt><trkpt lat="44.664245" lon="9.4329017"><ele>954.75</ele><time>2026-04-26T09:32:45.013Z</time></trkpt><trkpt lat="44.6642" lon="9.4330783"><ele>956.5</ele><time>2026-04-26T09:32:46.013Z</time></trkpt><trkpt lat="44.6641483" lon="9.4332483"><ele>958.25</ele><time>2026-04-26T09:32:47.014Z</time></trkpt><trkpt lat="44.6640683" lon="9.4333867"><ele>960.0</ele><time>2026-04-26T09:32:48.013Z</time></trkpt><trkpt lat="44.6639883" lon="9.4335433"><ele>960.0</ele><time>2026-04-26T09:32:49.014Z</time></trkpt><trkpt lat="44.6639083" lon="9.4337033"><ele>960.0</ele><time>2026-04-26T09:32:50.013Z</time></trkpt><trkpt lat="44.6638367" lon="9.43389"><ele>960.0</ele><time>2026-04-26T09:32:51.014Z</time></trkpt><trkpt lat="44.6637617" lon="9.4340833"><ele>960.0</ele><time>2026-04-26T09:32:52.013Z</time></trkpt><trkpt lat="44.663715" lon="9.4343167"><ele>960.3333333333333</ele><time>2026-04-26T09:32:53.014Z</time></trkpt><trkpt lat="44.6636817" lon="9.43457"><ele>960.6666666666666</ele><time>2026-04-26T09:32:54.014Z</time></trkpt><trkpt lat="44.6636267" lon="9.4348267"><ele>961.0</ele><time>2026-04-26T09:32:55.013Z</time></trkpt><trkpt lat="44.6635833" lon="9.435125"><ele>961.0</ele><time>2026-04-26T09:32:56.013Z</time></trkpt><trkpt lat="44.6635267" lon="9.4353917"><ele>961.0</ele><time>2026-04-26T09:32:57.013Z</time></trkpt><trkpt lat="44.66347" lon="9.43565"><ele>961.0</ele><time>2026-04-26T09:32:58.013Z</time></trkpt><trkpt lat="44.66341" lon="9.4358933"><ele>965.0</ele><time>2026-04-26T09:32:59.013Z</time></trkpt><trkpt lat="44.6633517" lon="9.4361283"><ele>969.0</ele><time>2026-04-26T09:33:00.013Z</time></trkpt><trkpt lat="44.6632967" lon="9.4363517"><ele>973.0</ele><time>2026-04-26T09:33:01.014Z</time></trkpt><trkpt lat="44.6632567" lon="9.436585"><ele>976.3333333333333</ele><time>2026-04-26T09:33:02.013Z</time></trkpt><trkpt lat="44.663215" lon="9.436815"><ele>979.6666666666667</ele><time>2026-04-26T09:33:03.013Z</time></trkpt><trkpt lat="44.663165" lon="9.4369917"><ele>983.0</ele><time>2026-04-26T09:33:04.014Z</time></trkpt><trkpt lat="44.6631317" lon="9.4371917"><ele>983.6666666666667</ele><time>2026-04-26T09:33:05.013Z</time></trkpt><trkpt lat="44.6630983" lon="9.4373917"><ele>984.3333333333333</ele><time>2026-04-26T09:33:06.013Z</time></trkpt><trkpt lat="44.6630883" lon="9.437625"><ele>985.0</ele><time>2026-04-26T09:33:07.013Z</time></trkpt><trkpt lat="44.6631317" lon="9.437885"><ele>985.25</ele><time>2026-04-26T09:33:08.014Z</time></trkpt><trkpt lat="44.6631483" lon="9.438105"><ele>985.5</ele><time>2026-04-26T09:33:09.013Z</time></trkpt><trkpt lat="44.6631633" lon="9.4382967"><ele>985.75</ele><time>2026-04-26T09:33:10.013Z</time></trkpt><trkpt lat="44.6631983" lon="9.438455"><ele>986.0</ele><time>2026-04-26T09:33:11.013Z</time></trkpt><trkpt lat="44.66324" lon="9.43859"><ele>986.0</ele><time>2026-04-26T09:33:12.014Z</time></trkpt><trkpt lat="44.6633167" lon="9.4386883"><ele>986.0</ele><time>2026-04-26T09:33:13.013Z</time></trkpt><trkpt lat="44.6634283" lon="9.4387783"><ele>986.0</ele><time>2026-04-26T09:33:14.014Z</time></trkpt><trkpt lat="44.6635517" lon="9.4388417"><ele>986.0</ele><time>2026-04-26T09:33:15.013Z</time></trkpt><trkpt lat="44.66366" lon="9.4388983"><ele>989.4</ele><time>2026-04-26T09:33:16.014Z</time></trkpt><trkpt lat="44.6637883" lon="9.438935"><ele>992.8</ele><time>2026-04-26T09:33:17.014Z</time></trkpt><trkpt lat="44.663895" lon="9.439015"><ele>996.1999999999999</ele><time>2026-04-26T09:33:18.013Z</time></trkpt><trkpt lat="44.6639567" lon="9.4391"><ele>999.5999999999999</ele><time>2026-04-26T09:33:19.013Z</time></trkpt><trkpt lat="44.6639817" lon="9.4392133"><ele>1003.0</ele><time>2026-04-26T09:33:20.013Z</time></trkpt><trkpt lat="44.663985" lon="9.439325"><ele>1003.0</ele><time>2026-04-26T09:33:21.013Z</time></trkpt><trkpt lat="44.6639583" lon="9.43946"><ele>1003.0</ele><time>2026-04-26T09:33:22.013Z</time></trkpt><trkpt lat="44.6638533" lon="9.4396067"><ele>1003.0</ele><time>2026-04-26T09:33:23.013Z</time></trkpt><trkpt lat="44.6636983" lon="9.4397733"><ele>1003.0</ele><time>2026-04-26T09:33:24.013Z</time></trkpt><trkpt lat="44.66359" lon="9.439935"><ele>1002.75</ele><time>2026-04-26T09:33:25.013Z</time></trkpt><trkpt lat="44.6635117" lon="9.4400733"><ele>1002.5</ele><time>2026-04-26T09:33:26.014Z</time></trkpt><trkpt lat="44.6634433" lon="9.4402517"><ele>1002.25</ele><time>2026-04-26T09:33:27.014Z</time></trkpt><trkpt lat="44.6633933" lon="9.4404517"><ele>1002.0</ele><time>2026-04-26T09:33:28.013Z</time></trkpt><trkpt lat="44.663365" lon="9.4406633"><ele>1002.0</ele><time>2026-04-26T09:33:29.014Z</time></trkpt><trkpt lat="44.6633267" lon="9.4408683"><ele>1002.0</ele><time>2026-04-26T09:33:30.013Z</time></trkpt><trkpt lat="44.6632817" lon="9.4410683"><ele>1002.0</ele><time>2026-04-26T09:33:31.014Z</time></trkpt><trkpt lat="44.6632233" lon="9.4412517"><ele>1002.0</ele><time>2026-04-26T09:33:32.014Z</time></trkpt><trkpt lat="44.66318" lon="9.4414117"><ele>1001.6</ele><time>2026-04-26T09:33:33.013Z</time></trkpt><trkpt lat="44.6631117" lon="9.4415233"><ele>1001.2</ele><time>2026-04-26T09:33:34.013Z</time></trkpt><trkpt lat="44.6630067" lon="9.4415583"><ele>1000.8</ele><time>2026-04-26T09:33:35.013Z</time></trkpt><trkpt lat="44.6629067" lon="9.4415417"><ele>1000.4</ele><time>2026-04-26T09:33:36.014Z</time></trkpt><trkpt lat="44.6628033" lon="9.4414617"><ele>1000.0</ele><time>2026-04-26T09:33:37.014Z</time></trkpt><trkpt lat="44.662705" lon="9.44144"><ele>999.9999999999999</ele><time>2026-04-26T09:33:38.013Z</time></trkpt><trkpt lat="44.662635" lon="9.4414183"><ele>1000.0</ele><time>2026-04-26T09:33:39.014Z</time></trkpt><trkpt lat="44.6625567" lon="9.4414317"><ele>1000.0</ele><time>2026-04-26T09:33:40.013Z</time></trkpt><trkpt lat="44.662465" lon="9.4414817"><ele>1000.0</ele><time>2026-04-26T09:33:42.013Z</time></trkpt><trkpt lat="44.6624183" lon="9.4415567"><ele>999.9999999999999</ele><time>2026-04-26T09:33:43.013Z</time></trkpt><trkpt lat="44.6623717" lon="9.4416783"><ele>1000.0</ele><time>2026-04-26T09:33:44.013Z</time></trkpt><trkpt lat="44.6623767" lon="9.4419183"><ele>1000.0</ele><time>2026-04-26T09:33:45.013Z</time></trkpt><trkpt lat="44.6623333" lon="9.4421017"><ele>1000.0</ele><time>2026-04-26T09:33:46.013Z</time></trkpt><trkpt lat="44.6622967" lon="9.4423167"><ele>1000.0</ele><time>2026-04-26T09:33:47.013Z</time></trkpt><trkpt lat="44.6622317" lon="9.4426883"><ele>1005.3333333333333</ele><time>2026-04-26T09:33:48.013Z</time></trkpt><trkpt lat="44.6621683" lon="9.4430167"><ele>1010.6666666666667</ele><time>2026-04-26T09:33:49.013Z</time></trkpt><trkpt lat="44.66213" lon="9.4432917"><ele>1016.0</ele><time>2026-04-26T09:33:50.013Z</time></trkpt><trkpt lat="44.6621183" lon="9.4435583"><ele>1016.0</ele><time>2026-04-26T09:33:51.014Z</time></trkpt><trkpt lat="44.6621083" lon="9.4437767"><ele>1016.0</ele><time>2026-04-26T09:33:52.013Z</time></trkpt><trkpt lat="44.662115" lon="9.443985"><ele>1016.0</ele><time>2026-04-26T09:33:53.014Z</time></trkpt><trkpt lat="44.6621" lon="9.444175"><ele>1016.0</ele><time>2026-04-26T09:33:54.013Z</time></trkpt><trkpt lat="44.6620367" lon="9.4443183"><ele>1015.0</ele><time>2026-04-26T09:33:55.014Z</time></trkpt><trkpt lat="44.6619417" lon="9.44442"><ele>1013.9999999999999</ele><time>2026-04-26T09:33:56.014Z</time></trkpt><trkpt lat="44.66181" lon="9.444465"><ele>1012.9999999999999</ele><time>2026-04-26T09:33:57.013Z</time></trkpt><trkpt lat="44.6617267" lon="9.4445517"><ele>1012.0</ele><time>2026-04-26T09:33:58.013Z</time></trkpt><trkpt lat="44.6616383" lon="9.4445633"><ele>1011.0</ele><time>2026-04-26T09:33:59.014Z</time></trkpt><trkpt lat="44.6615583" lon="9.4444983"><ele>1011.0</ele><time>2026-04-26T09:34:00.013Z</time></trkpt><trkpt lat="44.66143" lon="9.4442383"><ele>1011.0</ele><time>2026-04-26T09:34:01.014Z</time></trkpt><trkpt lat="44.6613117" lon="9.4441083"><ele>1011.0</ele><time>2026-04-26T09:34:02.013Z</time></trkpt><trkpt lat="44.6612633" lon="9.443825"><ele>1008.0</ele><time>2026-04-26T09:34:03.014Z</time></trkpt><trkpt lat="44.66116" lon="9.4437317"><ele>1005.0</ele><time>2026-04-26T09:34:04.014Z</time></trkpt><trkpt lat="44.6610317" lon="9.4436433"><ele>1002.0</ele><time>2026-04-26T09:34:05.014Z</time></trkpt><trkpt lat="44.6609033" lon="9.4435917"><ele>999.0</ele><time>2026-04-26T09:34:06.013Z</time></trkpt><trkpt lat="44.6606817" lon="9.4436317"><ele>998.3333333333333</ele><time>2026-04-26T09:34:07.014Z</time></trkpt><trkpt lat="44.6605083" lon="9.443655"><ele>997.6666666666666</ele><time>2026-04-26T09:34:08.013Z</time></trkpt><trkpt lat="44.66035" lon="9.44367"><ele>997.0</ele><time>2026-04-26T09:34:09.014Z</time></trkpt><trkpt lat="44.66019" lon="9.4437583"><ele>1002.6666666666666</ele><time>2026-04-26T09:34:10.014Z</time></trkpt><trkpt lat="44.6600467" lon="9.4438317"><ele>1008.3333333333333</ele><time>2026-04-26T09:34:11.014Z</time></trkpt><trkpt lat="44.65989" lon="9.4439733"><ele>1014.0</ele><time>2026-04-26T09:34:12.014Z</time></trkpt><trkpt lat="44.6597433" lon="9.4441833"><ele>1014.0</ele><time>2026-04-26T09:34:13.013Z</time></trkpt><trkpt lat="44.6596017" lon="9.444385"><ele>1014.0</ele><time>2026-04-26T09:34:14.013Z</time></trkpt><trkpt lat="44.6594583" lon="9.4446017"><ele>1014.0</ele><time>2026-04-26T09:34:15.014Z</time></trkpt><trkpt lat="44.65932" lon="9.444805"><ele>1014.3333333333333</ele><time>2026-04-26T09:34:16.013Z</time></trkpt><trkpt lat="44.6591783" lon="9.444985"><ele>1014.6666666666666</ele><time>2026-04-26T09:34:17.013Z</time></trkpt><trkpt lat="44.6590317" lon="9.445145"><ele>1015.0</ele><time>2026-04-26T09:34:18.014Z</time></trkpt><trkpt lat="44.6588783" lon="9.4452517"><ele>1015.0</ele><time>2026-04-26T09:34:19.013Z</time></trkpt><trkpt lat="44.658715" lon="9.44531"><ele>1015.0</ele><time>2026-04-26T09:34:20.014Z</time></trkpt><trkpt lat="44.6585517" lon="9.445345"><ele>1015.0</ele><time>2026-04-26T09:34:21.013Z</time></trkpt><trkpt lat="44.6583817" lon="9.4453483"><ele>1016.3333333333333</ele><time>2026-04-26T09:34:22.014Z</time></trkpt><trkpt lat="44.65823" lon="9.4453533"><ele>1017.6666666666667</ele><time>2026-04-26T09:34:23.014Z</time></trkpt><trkpt lat="44.6580633" lon="9.4453583"><ele>1019.0</ele><time>2026-04-26T09:34:24.014Z</time></trkpt><trkpt lat="44.6578933" lon="9.44531"><ele>1020.6666666666667</ele><time>2026-04-26T09:34:25.013Z</time></trkpt><trkpt lat="44.6577383" lon="9.4452617"><ele>1022.3333333333333</ele><time>2026-04-26T09:34:26.013Z</time></trkpt><trkpt lat="44.6575717" lon="9.4452617"><ele>1024.0</ele><time>2026-04-26T09:34:27.013Z</time></trkpt><trkpt lat="44.6574033" lon="9.4452867"><ele>1024.0</ele><time>2026-04-26T09:34:28.013Z</time></trkpt><trkpt lat="44.6572417" lon="9.445315"><ele>1024.0</ele><time>2026-04-26T09:34:29.013Z</time></trkpt><trkpt lat="44.65709" lon="9.4453567"><ele>1024.0</ele><time>2026-04-26T09:34:30.013Z</time></trkpt><trkpt lat="44.656955" lon="9.44544"><ele>1028.3333333333333</ele><time>2026-04-26T09:34:31.013Z</time></trkpt><trkpt lat="44.6568067" lon="9.445535"><ele>1032.6666666666667</ele><time>2026-04-26T09:34:32.013Z</time></trkpt><trkpt lat="44.65667" lon="9.4456533"><ele>1037.0</ele><time>2026-04-26T09:34:33.013Z</time></trkpt><trkpt lat="44.6565567" lon="9.4457933"><ele>1037.0</ele><time>2026-04-26T09:34:34.013Z</time></trkpt><trkpt lat="44.6564417" lon="9.445895"><ele>1037.0</ele><time>2026-04-26T09:34:35.014Z</time></trkpt><trkpt lat="44.6563117" lon="9.4459667"><ele>1037.0</ele><time>2026-04-26T09:34:36.013Z</time></trkpt><trkpt lat="44.6561683" lon="9.4460067"><ele>1037.0</ele><time>2026-04-26T09:34:37.014Z</time></trkpt><trkpt lat="44.656035" lon="9.446035"><ele>1035.75</ele><time>2026-04-26T09:34:38.014Z</time></trkpt><trkpt lat="44.6559033" lon="9.4461133"><ele>1034.5</ele><time>2026-04-26T09:34:39.014Z</time></trkpt><trkpt lat="44.6557767" lon="9.4462067"><ele>1033.25</ele><time>2026-04-26T09:34:40.013Z</time></trkpt><trkpt lat="44.6556733" lon="9.446315"><ele>1032.0</ele><time>2026-04-26T09:34:41.014Z</time></trkpt><trkpt lat="44.6555767" lon="9.4464533"><ele>1035.0</ele><time>2026-04-26T09:34:42.013Z</time></trkpt><trkpt lat="44.6555033" lon="9.44661"><ele>1038.0</ele><time>2026-04-26T09:34:43.013Z</time></trkpt><trkpt lat="44.6554683" lon="9.4467783"><ele>1041.0</ele><time>2026-04-26T09:34:44.013Z</time></trkpt><trkpt lat="44.65547" lon="9.4469767"><ele>1044.0</ele><time>2026-04-26T09:34:45.013Z</time></trkpt><trkpt lat="44.6554883" lon="9.4471883"><ele>1045.25</ele><time>2026-04-26T09:34:46.014Z</time></trkpt><trkpt lat="44.6555483" lon="9.4474167"><ele>1046.5</ele><time>2026-04-26T09:34:47.013Z</time></trkpt><trkpt lat="44.6555617" lon="9.4476283"><ele>1047.75</ele><time>2026-04-26T09:34:48.014Z</time></trkpt><trkpt lat="44.655545" lon="9.4477983"><ele>1049.0</ele><time>2026-04-26T09:34:49.013Z</time></trkpt><trkpt lat="44.6554833" lon="9.4479333"><ele>1050.0</ele><time>2026-04-26T09:34:50.013Z</time></trkpt><trkpt lat="44.6553983" lon="9.4480233"><ele>1051.0</ele><time>2026-04-26T09:34:51.013Z</time></trkpt><trkpt lat="44.6553183" lon="9.44806"><ele>1052.0</ele><time>2026-04-26T09:34:52.014Z</time></trkpt><trkpt lat="44.6551433" lon="9.4480083"><ele>1053.0</ele><time>2026-04-26T09:34:53.014Z</time></trkpt><trkpt lat="44.6549883" lon="9.4480383"><ele>1053.0</ele><time>2026-04-26T09:34:54.014Z</time></trkpt><trkpt lat="44.6548417" lon="9.4480983"><ele>1053.0</ele><time>2026-04-26T09:34:55.014Z</time></trkpt><trkpt lat="44.6547033" lon="9.4481683"><ele>1053.0</ele><time>2026-04-26T09:34:56.013Z</time></trkpt><trkpt lat="44.654575" lon="9.4482533"><ele>1053.0</ele><time>2026-04-26T09:34:57.013Z</time></trkpt><trkpt lat="44.65446" lon="9.4483633"><ele>1053.0</ele><time>2026-04-26T09:34:58.013Z</time></trkpt><trkpt lat="44.6543617" lon="9.44851"><ele>1053.0</ele><time>2026-04-26T09:34:59.013Z</time></trkpt><trkpt lat="44.6542833" lon="9.448675"><ele>1053.0</ele><time>2026-04-26T09:35:00.014Z</time></trkpt><trkpt lat="44.6542367" lon="9.4489017"><ele>1053.0</ele><time>2026-04-26T09:35:01.014Z</time></trkpt><trkpt lat="44.6541767" lon="9.449135"><ele>1053.0</ele><time>2026-04-26T09:35:02.014Z</time></trkpt><trkpt lat="44.6541183" lon="9.449365"><ele>1053.0</ele><time>2026-04-26T09:35:03.013Z</time></trkpt><trkpt lat="44.65407" lon="9.449585"><ele>1055.25</ele><time>2026-04-26T09:35:04.013Z</time></trkpt><trkpt lat="44.6540217" lon="9.449785"><ele>1057.5</ele><time>2026-04-26T09:35:05.013Z</time></trkpt><trkpt lat="44.6539867" lon="9.44998"><ele>1059.75</ele><time>2026-04-26T09:35:06.012Z</time></trkpt><trkpt lat="44.6539633" lon="9.4501767"><ele>1062.0</ele><time>2026-04-26T09:35:07.013Z</time></trkpt><trkpt lat="44.65395" lon="9.4503533"><ele>1061.8</ele><time>2026-04-26T09:35:08.012Z</time></trkpt><trkpt lat="44.6539217" lon="9.450525"><ele>1061.6</ele><time>2026-04-26T09:35:09.012Z</time></trkpt><trkpt lat="44.65391" lon="9.4506717"><ele>1061.3999999999999</ele><time>2026-04-26T09:35:10.012Z</time></trkpt><trkpt lat="44.6539183" lon="9.4508017"><ele>1061.2</ele><time>2026-04-26T09:35:11.012Z</time></trkpt><trkpt lat="44.6539283" lon="9.4509483"><ele>1061.0</ele><time>2026-04-26T09:35:12.012Z</time></trkpt><trkpt lat="44.6539533" lon="9.4510783"><ele>1061.0</ele><time>2026-04-26T09:35:13.013Z</time></trkpt><trkpt lat="44.6539817" lon="9.4511817"><ele>1061.0</ele><time>2026-04-26T09:35:14.012Z</time></trkpt><trkpt lat="44.6540467" lon="9.4512733"><ele>1061.0</ele><time>2026-04-26T09:35:15.013Z</time></trkpt><trkpt lat="44.6541017" lon="9.4513633"><ele>1061.0</ele><time>2026-04-26T09:35:16.013Z</time></trkpt><trkpt lat="44.6541733" lon="9.45145"><ele>1061.0</ele><time>2026-04-26T09:35:17.013Z</time></trkpt><trkpt lat="44.6542417" lon="9.4515417"><ele>1061.0</ele><time>2026-04-26T09:35:18.012Z</time></trkpt><trkpt lat="44.6543133" lon="9.4516217"><ele>1059.75</ele><time>2026-04-26T09:35:19.013Z</time></trkpt><trkpt lat="44.65441" lon="9.4516617"><ele>1058.5</ele><time>2026-04-26T09:35:20.012Z</time></trkpt><trkpt lat="44.65449" lon="9.451735"><ele>1057.25</ele><time>2026-04-26T09:35:21.013Z</time></trkpt><trkpt lat="44.6546167" lon="9.45177"><ele>1056.0</ele><time>2026-04-26T09:35:22.012Z</time></trkpt><trkpt lat="44.654755" lon="9.4518267"><ele>1056.0</ele><time>2026-04-26T09:35:23.012Z</time></trkpt><trkpt lat="44.6549083" lon="9.4518883"><ele>1056.0</ele><time>2026-04-26T09:35:24.012Z</time></trkpt><trkpt lat="44.655045" lon="9.45199"><ele>1056.0</ele><time>2026-04-26T09:35:25.013Z</time></trkpt><trkpt lat="44.6552617" lon="9.452055"><ele>1056.6666666666667</ele><time>2026-04-26T09:35:26.013Z</time></trkpt><trkpt lat="44.6554367" lon="9.4521717"><ele>1057.3333333333335</ele><time>2026-04-26T09:35:27.013Z</time></trkpt><trkpt lat="44.65559" lon="9.4522833"><ele>1058.0</ele><time>2026-04-26T09:35:28.012Z</time></trkpt><trkpt lat="44.6557083" lon="9.45244"><ele>1058.0</ele><time>2026-04-26T09:35:29.012Z</time></trkpt><trkpt lat="44.6558" lon="9.45264"><ele>1058.0</ele><time>2026-04-26T09:35:30.012Z</time></trkpt><trkpt lat="44.6558617" lon="9.4528533"><ele>1058.0</ele><time>2026-04-26T09:35:31.012Z</time></trkpt><trkpt lat="44.6558933" lon="9.4531083"><ele>1055.6666666666667</ele><time>2026-04-26T09:35:32.013Z</time></trkpt><trkpt lat="44.655945" lon="9.45335"><ele>1053.3333333333333</ele><time>2026-04-26T09:35:33.013Z</time></trkpt><trkpt lat="44.6559933" lon="9.4535683"><ele>1051.0</ele><time>2026-04-26T09:35:34.013Z</time></trkpt><trkpt lat="44.6560383" lon="9.4538033"><ele>1050.3333333333333</ele><time>2026-04-26T09:35:35.012Z</time></trkpt><trkpt lat="44.656085" lon="9.4540183"><ele>1049.6666666666667</ele><time>2026-04-26T09:35:36.012Z</time></trkpt><trkpt lat="44.656135" lon="9.454225"><ele>1049.0</ele><time>2026-04-26T09:35:37.013Z</time></trkpt><trkpt lat="44.65621" lon="9.4544183"><ele>1047.75</ele><time>2026-04-26T09:35:38.012Z</time></trkpt><trkpt lat="44.6563017" lon="9.4545883"><ele>1046.5</ele><time>2026-04-26T09:35:39.012Z</time></trkpt><trkpt lat="44.6563933" lon="9.4547433"><ele>1045.25</ele><time>2026-04-26T09:35:40.013Z</time></trkpt><trkpt lat="44.6564883" lon="9.4549083"><ele>1044.0</ele><time>2026-04-26T09:35:41.013Z</time></trkpt><trkpt lat="44.6566" lon="9.4550167"><ele>1044.0</ele><time>2026-04-26T09:35:42.013Z</time></trkpt><trkpt lat="44.6567333" lon="9.4550767"><ele>1044.0</ele><time>2026-04-26T09:35:43.012Z</time></trkpt><trkpt lat="44.65688" lon="9.4550883"><ele>1044.0</ele><time>2026-04-26T09:35:44.012Z</time></trkpt><trkpt lat="44.6570017" lon="9.45507"><ele>1044.0</ele><time>2026-04-26T09:35:45.013Z</time></trkpt><trkpt lat="44.65711" lon="9.4550817"><ele>1044.4</ele><time>2026-04-26T09:35:46.012Z</time></trkpt><trkpt lat="44.6572067" lon="9.45514"><ele>1044.8000000000002</ele><time>2026-04-26T09:35:47.012Z</time></trkpt><trkpt lat="44.65727" lon="9.4552283"><ele>1045.1999999999998</ele><time>2026-04-26T09:35:48.012Z</time></trkpt><trkpt lat="44.6573283" lon="9.4553367"><ele>1045.6</ele><time>2026-04-26T09:35:49.013Z</time></trkpt><trkpt lat="44.6573683" lon="9.455475"><ele>1046.0</ele><time>2026-04-26T09:35:50.013Z</time></trkpt><trkpt lat="44.65739" lon="9.455655"><ele>1046.0</ele><time>2026-04-26T09:35:51.013Z</time></trkpt><trkpt lat="44.6574083" lon="9.455845"><ele>1046.0</ele><time>2026-04-26T09:35:52.012Z</time></trkpt><trkpt lat="44.6574233" lon="9.4560317"><ele>1046.0</ele><time>2026-04-26T09:35:53.012Z</time></trkpt><trkpt lat="44.6574533" lon="9.4561983"><ele>1046.0</ele><time>2026-04-26T09:35:54.012Z</time></trkpt><trkpt lat="44.657515" lon="9.4563583"><ele>1043.8</ele><time>2026-04-26T09:35:55.013Z</time></trkpt><trkpt lat="44.657575" lon="9.45649"><ele>1041.6</ele><time>2026-04-26T09:35:56.012Z</time></trkpt><trkpt lat="44.65764" lon="9.45659"><ele>1039.4</ele><time>2026-04-26T09:35:57.012Z</time></trkpt><trkpt lat="44.65772" lon="9.4566533"><ele>1037.2</ele><time>2026-04-26T09:35:58.013Z</time></trkpt><trkpt lat="44.657805" lon="9.45672"><ele>1035.0</ele><time>2026-04-26T09:35:59.012Z</time></trkpt><trkpt lat="44.657885" lon="9.4567783"><ele>1034.6666666666667</ele><time>2026-04-26T09:36:00.013Z</time></trkpt><trkpt lat="44.6580683" lon="9.45665"><ele>1034.3333333333335</ele><time>2026-04-26T09:36:01.013Z</time></trkpt><trkpt lat="44.6582767" lon="9.4564967"><ele>1034.0</ele><time>2026-04-26T09:36:02.013Z</time></trkpt><trkpt lat="44.6584433" lon="9.4564583"><ele>1034.0</ele><time>2026-04-26T09:36:03.012Z</time></trkpt><trkpt lat="44.6586033" lon="9.4564433"><ele>1034.0</ele><time>2026-04-26T09:36:04.013Z</time></trkpt><trkpt lat="44.6587617" lon="9.456445"><ele>1034.0</ele><time>2026-04-26T09:36:05.013Z</time></trkpt><trkpt lat="44.658925" lon="9.4564633"><ele>1034.0</ele><time>2026-04-26T09:36:06.013Z</time></trkpt><trkpt lat="44.6590667" lon="9.456485"><ele>1034.0</ele><time>2026-04-26T09:36:07.012Z</time></trkpt><trkpt lat="44.659205" lon="9.4565183"><ele>1034.0</ele><time>2026-04-26T09:36:08.013Z</time></trkpt><trkpt lat="44.659335" lon="9.45656"><ele>1034.0</ele><time>2026-04-26T09:36:09.013Z</time></trkpt><trkpt lat="44.6594567" lon="9.4566033"><ele>1033.5</ele><time>2026-04-26T09:36:10.012Z</time></trkpt><trkpt lat="44.6595867" lon="9.45665"><ele>1033.0</ele><time>2026-04-26T09:36:11.013Z</time></trkpt><trkpt lat="44.6597133" lon="9.4566883"><ele>1032.5</ele><time>2026-04-26T09:36:12.013Z</time></trkpt><trkpt lat="44.65985" lon="9.4567317"><ele>1032.0</ele><time>2026-04-26T09:36:13.012Z</time></trkpt><trkpt lat="44.659985" lon="9.45678"><ele>1032.0</ele><time>2026-04-26T09:36:14.013Z</time></trkpt><trkpt lat="44.66012" lon="9.456835"><ele>1032.0</ele><time>2026-04-26T09:36:15.013Z</time></trkpt><trkpt lat="44.6602583" lon="9.4568733"><ele>1032.0</ele><time>2026-04-26T09:36:16.013Z</time></trkpt><trkpt lat="44.6603783" lon="9.45696"><ele>1032.0</ele><time>2026-04-26T09:36:17.012Z</time></trkpt><trkpt lat="44.6604717" lon="9.457075"><ele>1029.2</ele><time>2026-04-26T09:36:18.012Z</time></trkpt><trkpt lat="44.6605567" lon="9.45719"><ele>1026.4</ele><time>2026-04-26T09:36:19.012Z</time></trkpt><trkpt lat="44.66066" lon="9.45727"><ele>1023.5999999999999</ele><time>2026-04-26T09:36:20.012Z</time></trkpt><trkpt lat="44.66075" lon="9.4572983"><ele>1020.8</ele><time>2026-04-26T09:36:21.013Z</time></trkpt><trkpt lat="44.660845" lon="9.45729"><ele>1018.0</ele><time>2026-04-26T09:36:22.013Z</time></trkpt><trkpt lat="44.660945" lon="9.457205"><ele>1019.5</ele><time>2026-04-26T09:36:23.012Z</time></trkpt><trkpt lat="44.661025" lon="9.4570983"><ele>1021.0</ele><time>2026-04-26T09:36:24.012Z</time></trkpt><trkpt lat="44.661115" lon="9.4569617"><ele>1022.5</ele><time>2026-04-26T09:36:25.012Z</time></trkpt><trkpt lat="44.66121" lon="9.4568583"><ele>1024.0</ele><time>2026-04-26T09:36:26.012Z</time></trkpt><trkpt lat="44.6613233" lon="9.4567517"><ele>1024.0</ele><time>2026-04-26T09:36:27.013Z</time></trkpt><trkpt lat="44.6614517" lon="9.4566883"><ele>1024.0</ele><time>2026-04-26T09:36:28.012Z</time></trkpt><trkpt lat="44.6615983" lon="9.4566383"><ele>1024.0</ele><time>2026-04-26T09:36:29.012Z</time></trkpt><trkpt lat="44.6617533" lon="9.4566217"><ele>1024.0</ele><time>2026-04-26T09:36:30.012Z</time></trkpt><trkpt lat="44.6618967" lon="9.45662"><ele>1023.25</ele><time>2026-04-26T09:36:31.013Z</time></trkpt><trkpt lat="44.66204" lon="9.4566383"><ele>1022.5</ele><time>2026-04-26T09:36:32.013Z</time></trkpt><trkpt lat="44.6621883" lon="9.4566617"><ele>1021.75</ele><time>2026-04-26T09:36:33.012Z</time></trkpt><trkpt lat="44.6623267" lon="9.45671"><ele>1021.0</ele><time>2026-04-26T09:36:34.013Z</time></trkpt><trkpt lat="44.6624433" lon="9.4568017"><ele>1021.0</ele><time>2026-04-26T09:36:35.013Z</time></trkpt><trkpt lat="44.6625467" lon="9.4568867"><ele>1021.0</ele><time>2026-04-26T09:36:36.012Z</time></trkpt><trkpt lat="44.662535" lon="9.457155"><ele>1021.0</ele><time>2026-04-26T09:36:37.013Z</time></trkpt><trkpt lat="44.6625483" lon="9.4573633"><ele>1019.3333333333333</ele><time>2026-04-26T09:36:38.012Z</time></trkpt><trkpt lat="44.6625133" lon="9.4576383"><ele>1017.6666666666667</ele><time>2026-04-26T09:36:39.013Z</time></trkpt><trkpt lat="44.6624933" lon="9.4578967"><ele>1016.0</ele><time>2026-04-26T09:36:40.012Z</time></trkpt><trkpt lat="44.6624783" lon="9.4581333"><ele>1016.0</ele><time>2026-04-26T09:36:41.013Z</time></trkpt><trkpt lat="44.66247" lon="9.458345"><ele>1016.0</ele><time>2026-04-26T09:36:42.012Z</time></trkpt><trkpt lat="44.662445" lon="9.4585483"><ele>1016.0</ele><time>2026-04-26T09:36:43.013Z</time></trkpt><trkpt lat="44.66241" lon="9.4587717"><ele>1014.5</ele><time>2026-04-26T09:36:44.013Z</time></trkpt><trkpt lat="44.6623783" lon="9.4589833"><ele>1013.0</ele><time>2026-04-26T09:36:45.013Z</time></trkpt><trkpt lat="44.6623567" lon="9.4591833"><ele>1011.5</ele><time>2026-04-26T09:36:46.013Z</time></trkpt><trkpt lat="44.6623433" lon="9.4593767"><ele>1010.0</ele><time>2026-04-26T09:36:47.013Z</time></trkpt><trkpt lat="44.662315" lon="9.45957"><ele>1009.5</ele><time>2026-04-26T09:36:48.012Z</time></trkpt><trkpt lat="44.6622933" lon="9.4597617"><ele>1009.0</ele><time>2026-04-26T09:36:49.012Z</time></trkpt><trkpt lat="44.662265" lon="9.45996"><ele>1008.5</ele><time>2026-04-26T09:36:50.012Z</time></trkpt><trkpt lat="44.6622267" lon="9.4601683"><ele>1008.0</ele><time>2026-04-26T09:36:51.012Z</time></trkpt><trkpt lat="44.662195" lon="9.4603817"><ele>1007.0</ele><time>2026-04-26T09:36:52.013Z</time></trkpt><trkpt lat="44.6621633" lon="9.4605817"><ele>1006.0</ele><time>2026-04-26T09:36:53.013Z</time></trkpt><trkpt lat="44.66214" lon="9.4607883"><ele>1005.0</ele><time>2026-04-26T09:36:54.012Z</time></trkpt><trkpt lat="44.662125" lon="9.4609717"><ele>1004.0</ele><time>2026-04-26T09:36:55.012Z</time></trkpt><trkpt lat="44.6621567" lon="9.4611383"><ele>1002.25</ele><time>2026-04-26T09:36:56.013Z</time></trkpt><trkpt lat="44.662225" lon="9.4612933"><ele>1000.5</ele><time>2026-04-26T09:36:57.013Z</time></trkpt><trkpt lat="44.6623083" lon="9.46142"><ele>998.75</ele><time>2026-04-26T09:36:58.013Z</time></trkpt><trkpt lat="44.6624017" lon="9.461545"><ele>997.0</ele><time>2026-04-26T09:36:59.012Z</time></trkpt><trkpt lat="44.6625033" lon="9.46166"><ele>997.0</ele><time>2026-04-26T09:37:00.012Z</time></trkpt><trkpt lat="44.6626" lon="9.46178"><ele>997.0</ele><time>2026-04-26T09:37:01.013Z</time></trkpt><trkpt lat="44.6627183" lon="9.4619083"><ele>997.0</ele><time>2026-04-26T09:37:02.012Z</time></trkpt><trkpt lat="44.6628383" lon="9.46203"><ele>997.0</ele><time>2026-04-26T09:37:03.013Z</time></trkpt><trkpt lat="44.662975" lon="9.4621183"><ele>996.25</ele><time>2026-04-26T09:37:04.012Z</time></trkpt><trkpt lat="44.663085" lon="9.46221"><ele>995.5</ele><time>2026-04-26T09:37:05.013Z</time></trkpt><trkpt lat="44.6631683" lon="9.4623233"><ele>994.75</ele><time>2026-04-26T09:37:06.012Z</time></trkpt><trkpt lat="44.6632217" lon="9.4624617"><ele>994.0</ele><time>2026-04-26T09:37:07.013Z</time></trkpt><trkpt lat="44.6632533" lon="9.4626133"><ele>994.0</ele><time>2026-04-26T09:37:08.013Z</time></trkpt><trkpt lat="44.6632717" lon="9.4627683"><ele>994.0000000000001</ele><time>2026-04-26T09:37:09.013Z</time></trkpt><trkpt lat="44.663285" lon="9.4629167"><ele>994.0000000000001</ele><time>2026-04-26T09:37:10.013Z</time></trkpt><trkpt lat="44.663305" lon="9.463075"><ele>994.0</ele><time>2026-04-26T09:37:11.012Z</time></trkpt><trkpt lat="44.6633433" lon="9.4632167"><ele>994.0</ele><time>2026-04-26T09:37:12.012Z</time></trkpt><trkpt lat="44.6634" lon="9.4633483"><ele>993.75</ele><time>2026-04-26T09:37:13.013Z</time></trkpt><trkpt lat="44.66348" lon="9.4634733"><ele>993.5</ele><time>2026-04-26T09:37:14.013Z</time></trkpt><trkpt lat="44.6635683" lon="9.4635983"><ele>993.25</ele><time>2026-04-26T09:37:15.012Z</time></trkpt><trkpt lat="44.6636683" lon="9.4637233"><ele>993.0</ele><time>2026-04-26T09:37:16.013Z</time></trkpt><trkpt lat="44.6637633" lon="9.4638517"><ele>991.0</ele><time>2026-04-26T09:37:17.012Z</time></trkpt><trkpt lat="44.6638767" lon="9.46399"><ele>989.0</ele><time>2026-04-26T09:37:18.013Z</time></trkpt><trkpt lat="44.6639867" lon="9.46411"><ele>987.0</ele><time>2026-04-26T09:37:19.012Z</time></trkpt><trkpt lat="44.6640967" lon="9.4642333"><ele>985.0</ele><time>2026-04-26T09:37:20.013Z</time></trkpt><trkpt lat="44.6641967" lon="9.464355"><ele>985.0</ele><time>2026-04-26T09:37:21.012Z</time></trkpt><trkpt lat="44.6642983" lon="9.4644683"><ele>985.0</ele><time>2026-04-26T09:37:22.012Z</time></trkpt><trkpt lat="44.6644133" lon="9.46456"><ele>985.0</ele><time>2026-04-26T09:37:23.012Z</time></trkpt><trkpt lat="44.664535" lon="9.4646083"><ele>985.0</ele><time>2026-04-26T09:37:24.013Z</time></trkpt><trkpt lat="44.6646533" lon="9.4646333"><ele>985.25</ele><time>2026-04-26T09:37:25.012Z</time></trkpt><trkpt lat="44.6647683" lon="9.4646167"><ele>985.5</ele><time>2026-04-26T09:37:26.013Z</time></trkpt><trkpt lat="44.6648967" lon="9.4646017"><ele>985.75</ele><time>2026-04-26T09:37:27.013Z</time></trkpt><trkpt lat="44.6650333" lon="9.4646183"><ele>986.0</ele><time>2026-04-26T09:37:28.013Z</time></trkpt><trkpt lat="44.6651667" lon="9.4646733"><ele>985.25</ele><time>2026-04-26T09:37:29.012Z</time></trkpt><trkpt lat="44.6652967" lon="9.4647567"><ele>984.5</ele><time>2026-04-26T09:37:30.012Z</time></trkpt><trkpt lat="44.6654233" lon="9.46487"><ele>983.75</ele><time>2026-04-26T09:37:31.013Z</time></trkpt><trkpt lat="44.6655367" lon="9.465005"><ele>983.0</ele><time>2026-04-26T09:37:32.013Z</time></trkpt><trkpt lat="44.6656433" lon="9.46514"><ele>983.0</ele><time>2026-04-26T09:37:33.013Z</time></trkpt><trkpt lat="44.66575" lon="9.465285"><ele>983.0</ele><time>2026-04-26T09:37:34.012Z</time></trkpt><trkpt lat="44.6658567" lon="9.465425"><ele>983.0</ele><time>2026-04-26T09:37:35.012Z</time></trkpt><trkpt lat="44.66596" lon="9.4655783"><ele>983.0</ele><time>2026-04-26T09:37:36.012Z</time></trkpt><trkpt lat="44.666045" lon="9.465735"><ele>982.75</ele><time>2026-04-26T09:37:37.012Z</time></trkpt><trkpt lat="44.6661067" lon="9.465905"><ele>982.5</ele><time>2026-04-26T09:37:38.013Z</time></trkpt><trkpt lat="44.66612" lon="9.4661117"><ele>982.25</ele><time>2026-04-26T09:37:39.012Z</time></trkpt><trkpt lat="44.6661217" lon="9.466325"><ele>982.0</ele><time>2026-04-26T09:37:40.012Z</time></trkpt><trkpt lat="44.6660983" lon="9.4665533"><ele>978.0</ele><time>2026-04-26T09:37:41.012Z</time></trkpt><trkpt lat="44.6660683" lon="9.4667817"><ele>974.0</ele><time>2026-04-26T09:37:42.012Z</time></trkpt><trkpt lat="44.6660283" lon="9.4670167"><ele>970.0</ele><time>2026-04-26T09:37:43.012Z</time></trkpt><trkpt lat="44.6659933" lon="9.4672467"><ele>969.0</ele><time>2026-04-26T09:37:44.012Z</time></trkpt><trkpt lat="44.6659517" lon="9.4674617"><ele>968.0</ele><time>2026-04-26T09:37:45.013Z</time></trkpt><trkpt lat="44.6659133" lon="9.4676667"><ele>967.0</ele><time>2026-04-26T09:37:46.012Z</time></trkpt><trkpt lat="44.6658667" lon="9.467875"><ele>965.75</ele><time>2026-04-26T09:37:47.012Z</time></trkpt><trkpt lat="44.6658217" lon="9.4680533"><ele>964.5</ele><time>2026-04-26T09:37:48.012Z</time></trkpt><trkpt lat="44.6657733" lon="9.4682183"><ele>963.25</ele><time>2026-04-26T09:37:49.013Z</time></trkpt><trkpt lat="44.6657083" lon="9.4683633"><ele>962.0</ele><time>2026-04-26T09:37:50.013Z</time></trkpt><trkpt lat="44.6656133" lon="9.4684767"><ele>962.0</ele><time>2026-04-26T09:37:51.012Z</time></trkpt><trkpt lat="44.6654967" lon="9.468545"><ele>962.0</ele><time>2026-04-26T09:37:52.012Z</time></trkpt><trkpt lat="44.6653817" lon="9.4685833"><ele>962.0</ele><time>2026-04-26T09:37:53.012Z</time></trkpt><trkpt lat="44.6652383" lon="9.4684717"><ele>962.0</ele><time>2026-04-26T09:37:54.012Z</time></trkpt><trkpt lat="44.6651067" lon="9.4683667"><ele>960.5</ele><time>2026-04-26T09:37:55.012Z</time></trkpt><trkpt lat="44.6649833" lon="9.4682617"><ele>959.0</ele><time>2026-04-26T09:37:56.012Z</time></trkpt><trkpt lat="44.6648533" lon="9.4681633"><ele>957.5</ele><time>2026-04-26T09:37:57.012Z</time></trkpt><trkpt lat="44.6647283" lon="9.4680717"><ele>956.0</ele><time>2026-04-26T09:37:58.012Z</time></trkpt><trkpt lat="44.6646" lon="9.4679717"><ele>955.75</ele><time>2026-04-26T09:37:59.012Z</time></trkpt><trkpt lat="44.6644733" lon="9.46789"><ele>955.5</ele><time>2026-04-26T09:38:00.012Z</time></trkpt><trkpt lat="44.664345" lon="9.4678217"><ele>955.25</ele><time>2026-04-26T09:38:01.013Z</time></trkpt><trkpt lat="44.6642217" lon="9.4677467"><ele>955.0</ele><time>2026-04-26T09:38:02.012Z</time></trkpt><trkpt lat="44.6640983" lon="9.46767"><ele>955.0</ele><time>2026-04-26T09:38:03.013Z</time></trkpt><trkpt lat="44.6639667" lon="9.4676017"><ele>955.0</ele><time>2026-04-26T09:38:04.012Z</time></trkpt><trkpt lat="44.6638583" lon="9.46753"><ele>955.0</ele><time>2026-04-26T09:38:05.012Z</time></trkpt><trkpt lat="44.663745" lon="9.4674633"><ele>955.0</ele><time>2026-04-26T09:38:06.012Z</time></trkpt><trkpt lat="44.6636417" lon="9.4673967"><ele>953.8</ele><time>2026-04-26T09:38:07.012Z</time></trkpt><trkpt lat="44.6635433" lon="9.4673367"><ele>952.6</ele><time>2026-04-26T09:38:08.012Z</time></trkpt><trkpt lat="44.6634467" lon="9.4672883"><ele>951.4000000000001</ele><time>2026-04-26T09:38:09.012Z</time></trkpt><trkpt lat="44.6633533" lon="9.4672567"><ele>950.2</ele><time>2026-04-26T09:38:10.012Z</time></trkpt><trkpt lat="44.6632767" lon="9.467265"><ele>949.0</ele><time>2026-04-26T09:38:11.013Z</time></trkpt><trkpt lat="44.6631783" lon="9.4673217"><ele>949.0</ele><time>2026-04-26T09:38:12.012Z</time></trkpt><trkpt lat="44.6631067" lon="9.4674333"><ele>949.0000000000001</ele><time>2026-04-26T09:38:13.013Z</time></trkpt><trkpt lat="44.6630883" lon="9.46756"><ele>949.0000000000001</ele><time>2026-04-26T09:38:14.013Z</time></trkpt><trkpt lat="44.66311" lon="9.46771"><ele>949.0</ele><time>2026-04-26T09:38:15.013Z</time></trkpt><trkpt lat="44.6631717" lon="9.4678733"><ele>949.0</ele><time>2026-04-26T09:38:16.013Z</time></trkpt><trkpt lat="44.663245" lon="9.468045"><ele>945.6666666666666</ele><time>2026-04-26T09:38:17.012Z</time></trkpt><trkpt lat="44.66333" lon="9.4682417"><ele>942.3333333333333</ele><time>2026-04-26T09:38:18.013Z</time></trkpt><trkpt lat="44.66343" lon="9.46845"><ele>939.0</ele><time>2026-04-26T09:38:19.013Z</time></trkpt><trkpt lat="44.663505" lon="9.4686483"><ele>938.3333333333333</ele><time>2026-04-26T09:38:20.012Z</time></trkpt><trkpt lat="44.6635883" lon="9.4688567"><ele>937.6666666666666</ele><time>2026-04-26T09:38:21.012Z</time></trkpt><trkpt lat="44.663655" lon="9.4690533"><ele>937.0</ele><time>2026-04-26T09:38:22.013Z</time></trkpt><trkpt lat="44.6637167" lon="9.46924"><ele>937.0</ele><time>2026-04-26T09:38:23.013Z</time></trkpt><trkpt lat="44.6637933" lon="9.4694367"><ele>937.0</ele><time>2026-04-26T09:38:24.012Z</time></trkpt><trkpt lat="44.6638683" lon="9.4696267"><ele>937.0</ele><time>2026-04-26T09:38:25.012Z</time></trkpt><trkpt lat="44.66394" lon="9.469795"><ele>934.5</ele><time>2026-04-26T09:38:26.012Z</time></trkpt><trkpt lat="44.6640217" lon="9.4699617"><ele>932.0</ele><time>2026-04-26T09:38:27.013Z</time></trkpt><trkpt lat="44.66411" lon="9.4701217"><ele>929.5</ele><time>2026-04-26T09:38:28.012Z</time></trkpt><trkpt lat="44.6642283" lon="9.4702533"><ele>927.0</ele><time>2026-04-26T09:38:29.012Z</time></trkpt><trkpt lat="44.6643283" lon="9.47039"><ele>926.0</ele><time>2026-04-26T09:38:30.013Z</time></trkpt><trkpt lat="44.66443" lon="9.47052"><ele>925.0</ele><time>2026-04-26T09:38:31.012Z</time></trkpt><trkpt lat="44.6645283" lon="9.47065"><ele>924.0</ele><time>2026-04-26T09:38:32.012Z</time></trkpt><trkpt lat="44.6646033" lon="9.47077"><ele>923.0</ele><time>2026-04-26T09:38:33.012Z</time></trkpt><trkpt lat="44.6646667" lon="9.4708817"><ele>923.0</ele><time>2026-04-26T09:38:34.013Z</time></trkpt><trkpt lat="44.6647083" lon="9.4709933"><ele>923.0</ele><time>2026-04-26T09:38:35.013Z</time></trkpt><trkpt lat="44.6647217" lon="9.4711183"><ele>923.0</ele><time>2026-04-26T09:38:36.012Z</time></trkpt><trkpt lat="44.664655" lon="9.4712983"><ele>923.0</ele><time>2026-04-26T09:38:38.012Z</time></trkpt><trkpt lat="44.66457" lon="9.4713667"><ele>923.0</ele><time>2026-04-26T09:38:39.012Z</time></trkpt><trkpt lat="44.6644567" lon="9.4713817"><ele>922.25</ele><time>2026-04-26T09:38:40.013Z</time></trkpt><trkpt lat="44.664365" lon="9.471385"><ele>921.5</ele><time>2026-04-26T09:38:41.013Z</time></trkpt><trkpt lat="44.6642533" lon="9.4713417"><ele>920.75</ele><time>2026-04-26T09:38:42.012Z</time></trkpt><trkpt lat="44.6640683" lon="9.471135"><ele>920.0</ele><time>2026-04-26T09:38:43.013Z</time></trkpt><trkpt lat="44.6639283" lon="9.4710433"><ele>920.0</ele><time>2026-04-26T09:38:44.012Z</time></trkpt><trkpt lat="44.6637817" lon="9.4709533"><ele>920.0</ele><time>2026-04-26T09:38:45.013Z</time></trkpt><trkpt lat="44.66364" lon="9.4708667"><ele>920.0</ele><time>2026-04-26T09:38:46.013Z</time></trkpt><trkpt lat="44.6635067" lon="9.47078"><ele>919.25</ele><time>2026-04-26T09:38:47.012Z</time></trkpt><trkpt lat="44.6634117" lon="9.470675"><ele>918.5</ele><time>2026-04-26T09:38:48.013Z</time></trkpt><trkpt lat="44.6633183" lon="9.4705633"><ele>917.75</ele><time>2026-04-26T09:38:49.013Z</time></trkpt><trkpt lat="44.6632217" lon="9.470445"><ele>917.0</ele><time>2026-04-26T09:38:50.013Z</time></trkpt><trkpt lat="44.6631283" lon="9.4703267"><ele>917.0</ele><time>2026-04-26T09:38:51.013Z</time></trkpt><trkpt lat="44.6630267" lon="9.4702083"><ele>917.0</ele><time>2026-04-26T09:38:52.012Z</time></trkpt><trkpt lat="44.6629283" lon="9.4701033"><ele>917.0</ele><time>2026-04-26T09:38:53.012Z</time></trkpt><trkpt lat="44.662825" lon="9.4700283"><ele>917.0</ele><time>2026-04-26T09:38:54.012Z</time></trkpt><trkpt lat="44.66273" lon="9.4699783"><ele>915.5000000000001</ele><time>2026-04-26T09:38:55.013Z</time></trkpt><trkpt lat="44.6626433" lon="9.4699417"><ele>914.0</ele><time>2026-04-26T09:38:56.013Z</time></trkpt><trkpt lat="44.66257" lon="9.4699517"><ele>912.5</ele><time>2026-04-26T09:38:57.012Z</time></trkpt><trkpt lat="44.6625017" lon="9.470035"><ele>911.0</ele><time>2026-04-26T09:38:58.012Z</time></trkpt><trkpt lat="44.6624817" lon="9.4701517"><ele>909.5000000000001</ele><time>2026-04-26T09:38:59.013Z</time></trkpt><trkpt lat="44.6625383" lon="9.4702683"><ele>908.0</ele><time>2026-04-26T09:39:00.012Z</time></trkpt><trkpt lat="44.662645" lon="9.470405"><ele>907.6666666666667</ele><time>2026-04-26T09:39:01.012Z</time></trkpt><trkpt lat="44.66278" lon="9.4705633"><ele>907.3333333333333</ele><time>2026-04-26T09:39:02.012Z</time></trkpt><trkpt lat="44.6629033" lon="9.4707367"><ele>907.0</ele><time>2026-04-26T09:39:03.012Z</time></trkpt><trkpt lat="44.663" lon="9.47091"><ele>907.0</ele><time>2026-04-26T09:39:04.013Z</time></trkpt><trkpt lat="44.6630633" lon="9.4710867"><ele>907.0</ele><time>2026-04-26T09:39:05.013Z</time></trkpt><trkpt lat="44.6631317" lon="9.4712567"><ele>907.0</ele><time>2026-04-26T09:39:06.012Z</time></trkpt><trkpt lat="44.6632267" lon="9.4714"><ele>907.0</ele><time>2026-04-26T09:39:07.012Z</time></trkpt><trkpt lat="44.66334" lon="9.471505"><ele>907.75</ele><time>2026-04-26T09:39:08.012Z</time></trkpt><trkpt lat="44.663445" lon="9.4715933"><ele>908.5</ele><time>2026-04-26T09:39:09.012Z</time></trkpt><trkpt lat="44.6635417" lon="9.47168"><ele>909.25</ele><time>2026-04-26T09:39:10.012Z</time></trkpt><trkpt lat="44.6636183" lon="9.4717933"><ele>910.0</ele><time>2026-04-26T09:39:11.012Z</time></trkpt><trkpt lat="44.6636817" lon="9.47194"><ele>910.0</ele><time>2026-04-26T09:39:12.013Z</time></trkpt><trkpt lat="44.663705" lon="9.4720983"><ele>910.0</ele><time>2026-04-26T09:39:13.013Z</time></trkpt><trkpt lat="44.6636817" lon="9.4722717"><ele>910.0</ele><time>2026-04-26T09:39:14.012Z</time></trkpt><trkpt lat="44.663635" lon="9.4724583"><ele>910.0</ele><time>2026-04-26T09:39:15.012Z</time></trkpt><trkpt lat="44.6635867" lon="9.472645"><ele>905.25</ele><time>2026-04-26T09:39:16.012Z</time></trkpt><trkpt lat="44.6635217" lon="9.47283"><ele>900.5</ele><time>2026-04-26T09:39:17.013Z</time></trkpt><trkpt lat="44.6634983" lon="9.4730083"><ele>895.75</ele><time>2026-04-26T09:39:18.013Z</time></trkpt><trkpt lat="44.663485" lon="9.4732083"><ele>891.0</ele><time>2026-04-26T09:39:19.013Z</time></trkpt><trkpt lat="44.6634683" lon="9.47341"><ele>890.0</ele><time>2026-04-26T09:39:20.013Z</time></trkpt><trkpt lat="44.6634767" lon="9.4736217"><ele>889.0</ele><time>2026-04-26T09:39:21.013Z</time></trkpt><trkpt lat="44.66349" lon="9.4738167"><ele>888.0</ele><time>2026-04-26T09:39:22.013Z</time></trkpt><trkpt lat="44.663515" lon="9.474015"><ele>887.0</ele><time>2026-04-26T09:39:23.013Z</time></trkpt><trkpt lat="44.66353" lon="9.47419"><ele>886.4000000000001</ele><time>2026-04-26T09:39:24.012Z</time></trkpt><trkpt lat="44.6635833" lon="9.4743467"><ele>885.8000000000001</ele><time>2026-04-26T09:39:25.012Z</time></trkpt><trkpt lat="44.6636183" lon="9.4744867"><ele>885.2</ele><time>2026-04-26T09:39:26.012Z</time></trkpt><trkpt lat="44.6636383" lon="9.474605"><ele>884.6</ele><time>2026-04-26T09:39:27.012Z</time></trkpt><trkpt lat="44.66364" lon="9.4747"><ele>884.0</ele><time>2026-04-26T09:39:28.012Z</time></trkpt><trkpt lat="44.6636083" lon="9.4747883"><ele>883.25</ele><time>2026-04-26T09:39:29.013Z</time></trkpt><trkpt lat="44.6635083" lon="9.4748733"><ele>882.5</ele><time>2026-04-26T09:39:31.012Z</time></trkpt><trkpt lat="44.663405" lon="9.4747483"><ele>881.75</ele><time>2026-04-26T09:39:32.012Z</time></trkpt><trkpt lat="44.663335" lon="9.4746233"><ele>881.0</ele><time>2026-04-26T09:39:33.012Z</time></trkpt><trkpt lat="44.6632817" lon="9.4744817"><ele>881.0</ele><time>2026-04-26T09:39:34.012Z</time></trkpt><trkpt lat="44.6632417" lon="9.474325"><ele>881.0</ele><time>2026-04-26T09:39:35.013Z</time></trkpt><trkpt lat="44.6631983" lon="9.4741717"><ele>881.0</ele><time>2026-04-26T09:39:36.013Z</time></trkpt><trkpt lat="44.6631583" lon="9.4740133"><ele>881.0</ele><time>2026-04-26T09:39:37.012Z</time></trkpt><trkpt lat="44.663115" lon="9.4738733"><ele>881.1666666666667</ele><time>2026-04-26T09:39:38.012Z</time></trkpt><trkpt lat="44.663055" lon="9.47376"><ele>881.3333333333334</ele><time>2026-04-26T09:39:39.013Z</time></trkpt><trkpt lat="44.66298" lon="9.4737067"><ele>881.5</ele><time>2026-04-26T09:39:40.013Z</time></trkpt><trkpt lat="44.662915" lon="9.4736767"><ele>881.6666666666667</ele><time>2026-04-26T09:39:41.013Z</time></trkpt><trkpt lat="44.6628417" lon="9.4736767"><ele>881.8333333333334</ele><time>2026-04-26T09:39:42.012Z</time></trkpt><trkpt lat="44.66277" lon="9.4737467"><ele>882.0</ele><time>2026-04-26T09:39:43.013Z</time></trkpt><trkpt lat="44.6627183" lon="9.4738767"><ele>882.0</ele><time>2026-04-26T09:39:44.012Z</time></trkpt><trkpt lat="44.6626667" lon="9.4739783"><ele>882.0</ele><time>2026-04-26T09:39:45.013Z</time></trkpt><trkpt lat="44.662635" lon="9.47407"><ele>882.0</ele><time>2026-04-26T09:39:46.013Z</time></trkpt><trkpt lat="44.6626383" lon="9.4741967"><ele>882.0</ele><time>2026-04-26T09:39:47.013Z</time></trkpt><trkpt lat="44.662635" lon="9.4743267"><ele>882.0</ele><time>2026-04-26T09:39:48.013Z</time></trkpt><trkpt lat="44.6626067" lon="9.4744467"><ele>882.0</ele><time>2026-04-26T09:39:49.012Z</time></trkpt><trkpt lat="44.6626067" lon="9.474625"><ele>882.0</ele><time>2026-04-26T09:39:50.012Z</time></trkpt><trkpt lat="44.662615" lon="9.4748217"><ele>882.0</ele><time>2026-04-26T09:39:51.013Z</time></trkpt><trkpt lat="44.66261" lon="9.475015"><ele>882.0</ele><time>2026-04-26T09:39:52.013Z</time></trkpt><trkpt lat="44.6626367" lon="9.47523"><ele>882.0</ele><time>2026-04-26T09:39:53.013Z</time></trkpt><trkpt lat="44.66269" lon="9.475455"><ele>882.0</ele><time>2026-04-26T09:39:54.012Z</time></trkpt><trkpt lat="44.6627433" lon="9.4756667"><ele>882.0</ele><time>2026-04-26T09:39:55.013Z</time></trkpt><trkpt lat="44.6628133" lon="9.475865"><ele>882.0</ele><time>2026-04-26T09:39:56.012Z</time></trkpt><trkpt lat="44.6628817" lon="9.4760583"><ele>878.5</ele><time>2026-04-26T09:39:57.012Z</time></trkpt><trkpt lat="44.66298" lon="9.476205"><ele>875.0</ele><time>2026-04-26T09:39:58.012Z</time></trkpt><trkpt lat="44.6631083" lon="9.4763133"><ele>871.5</ele><time>2026-04-26T09:39:59.013Z</time></trkpt><trkpt lat="44.6632367" lon="9.4763917"><ele>868.0</ele><time>2026-04-26T09:40:00.012Z</time></trkpt><trkpt lat="44.6633433" lon="9.4765"><ele>866.75</ele><time>2026-04-26T09:40:01.013Z</time></trkpt><trkpt lat="44.6634533" lon="9.4766033"><ele>865.5</ele><time>2026-04-26T09:40:02.013Z</time></trkpt><trkpt lat="44.6635267" lon="9.47674"><ele>864.25</ele><time>2026-04-26T09:40:03.013Z</time></trkpt><trkpt lat="44.6635933" lon="9.4768783"><ele>863.0</ele><time>2026-04-26T09:40:04.013Z</time></trkpt><trkpt lat="44.6636033" lon="9.4770267"><ele>868.25</ele><time>2026-04-26T09:40:05.013Z</time></trkpt><trkpt lat="44.6636717" lon="9.47715"><ele>873.5</ele><time>2026-04-26T09:40:06.012Z</time></trkpt><trkpt lat="44.66367" lon="9.4772933"><ele>878.75</ele><time>2026-04-26T09:40:07.012Z</time></trkpt><trkpt lat="44.663695" lon="9.4774567"><ele>884.0</ele><time>2026-04-26T09:40:08.012Z</time></trkpt><trkpt lat="44.663635" lon="9.4776167"><ele>884.0</ele><time>2026-04-26T09:40:09.013Z</time></trkpt><trkpt lat="44.6636183" lon="9.477795"><ele>884.0</ele><time>2026-04-26T09:40:10.012Z</time></trkpt><trkpt lat="44.66361" lon="9.477955"><ele>884.0</ele><time>2026-04-26T09:40:11.013Z</time></trkpt><trkpt lat="44.6636033" lon="9.4781167"><ele>884.0</ele><time>2026-04-26T09:40:12.012Z</time></trkpt><trkpt lat="44.6635983" lon="9.4782617"><ele>884.0</ele><time>2026-04-26T09:40:13.013Z</time></trkpt><trkpt lat="44.6636" lon="9.478405"><ele>884.0</ele><time>2026-04-26T09:40:14.012Z</time></trkpt><trkpt lat="44.6636167" lon="9.4785667"><ele>884.0</ele><time>2026-04-26T09:40:15.013Z</time></trkpt><trkpt lat="44.6636367" lon="9.4787333"><ele>884.0</ele><time>2026-04-26T09:40:16.012Z</time></trkpt><trkpt lat="44.6636367" lon="9.4788983"><ele>883.0</ele><time>2026-04-26T09:40:17.013Z</time></trkpt><trkpt lat="44.6636183" lon="9.479055"><ele>882.0000000000001</ele><time>2026-04-26T09:40:18.013Z</time></trkpt><trkpt lat="44.6635817" lon="9.4791967"><ele>881.0000000000001</ele><time>2026-04-26T09:40:19.012Z</time></trkpt><trkpt lat="44.66357" lon="9.479365"><ele>880.0</ele><time>2026-04-26T09:40:20.013Z</time></trkpt><trkpt lat="44.6635583" lon="9.4795117"><ele>879.0</ele><time>2026-04-26T09:40:21.012Z</time></trkpt><trkpt lat="44.66356" lon="9.47965"><ele>876.5</ele><time>2026-04-26T09:40:22.012Z</time></trkpt><trkpt lat="44.6635833" lon="9.4797833"><ele>874.0</ele><time>2026-04-26T09:40:23.013Z</time></trkpt><trkpt lat="44.6636267" lon="9.479925"><ele>871.5</ele><time>2026-04-26T09:40:24.012Z</time></trkpt><trkpt lat="44.663765" lon="9.4800917"><ele>869.0</ele><time>2026-04-26T09:40:25.013Z</time></trkpt><trkpt lat="44.6638717" lon="9.4802833"><ele>867.75</ele><time>2026-04-26T09:40:26.012Z</time></trkpt><trkpt lat="44.66396" lon="9.4804833"><ele>866.5</ele><time>2026-04-26T09:40:27.012Z</time></trkpt><trkpt lat="44.6640383" lon="9.480665"><ele>865.25</ele><time>2026-04-26T09:40:28.013Z</time></trkpt><trkpt lat="44.664095" lon="9.4808217"><ele>864.0</ele><time>2026-04-26T09:40:29.013Z</time></trkpt><trkpt lat="44.664135" lon="9.480965"><ele>864.0</ele><time>2026-04-26T09:40:30.013Z</time></trkpt><trkpt lat="44.6641433" lon="9.4811083"><ele>864.0</ele><time>2026-04-26T09:40:31.012Z</time></trkpt><trkpt lat="44.6640733" lon="9.4812667"><ele>864.0</ele><time>2026-04-26T09:40:32.012Z</time></trkpt><trkpt lat="44.6640083" lon="9.4813967"><ele>864.0</ele><time>2026-04-26T09:40:33.012Z</time></trkpt><trkpt lat="44.6638717" lon="9.4814733"><ele>866.25</ele><time>2026-04-26T09:40:34.012Z</time></trkpt><trkpt lat="44.66374" lon="9.481535"><ele>868.5</ele><time>2026-04-26T09:40:35.012Z</time></trkpt><trkpt lat="44.6635933" lon="9.4815967"><ele>870.75</ele><time>2026-04-26T09:40:36.013Z</time></trkpt><trkpt lat="44.6634667" lon="9.4816867"><ele>873.0</ele><time>2026-04-26T09:40:37.013Z</time></trkpt><trkpt lat="44.663355" lon="9.4818217"><ele>870.0</ele><time>2026-04-26T09:40:38.013Z</time></trkpt><trkpt lat="44.6632117" lon="9.4820283"><ele>867.0</ele><time>2026-04-26T09:40:39.013Z</time></trkpt><trkpt lat="44.66306" lon="9.48227"><ele>864.0</ele><time>2026-04-26T09:40:40.012Z</time></trkpt><trkpt lat="44.6628983" lon="9.4825283"><ele>856.5</ele><time>2026-04-26T09:40:41.013Z</time></trkpt><trkpt lat="44.66273" lon="9.4827917"><ele>849.0</ele><time>2026-04-26T09:40:42.012Z</time></trkpt><trkpt lat="44.66257" lon="9.4830033"><ele>849.0</ele><time>2026-04-26T09:40:43.012Z</time></trkpt><trkpt lat="44.6624217" lon="9.4832133"><ele>849.0</ele><time>2026-04-26T09:40:44.013Z</time></trkpt><trkpt lat="44.6622617" lon="9.4834167"><ele>849.0</ele><time>2026-04-26T09:40:45.012Z</time></trkpt><trkpt lat="44.6620933" lon="9.483605"><ele>847.0</ele><time>2026-04-26T09:40:46.013Z</time></trkpt><trkpt lat="44.661915" lon="9.4837767"><ele>845.0</ele><time>2026-04-26T09:40:47.012Z</time></trkpt><trkpt lat="44.6616917" lon="9.483855"><ele>843.0</ele><time>2026-04-26T09:40:48.012Z</time></trkpt><trkpt lat="44.66145" lon="9.483955"><ele>843.0</ele><time>2026-04-26T09:40:49.013Z</time></trkpt><trkpt lat="44.6612233" lon="9.4840217"><ele>843.0</ele><time>2026-04-26T09:40:50.013Z</time></trkpt><trkpt lat="44.6609933" lon="9.4840783"><ele>840.0</ele><time>2026-04-26T09:40:51.013Z</time></trkpt><trkpt lat="44.6607683" lon="9.484095"><ele>837.0</ele><time>2026-04-26T09:40:52.012Z</time></trkpt><trkpt lat="44.660555" lon="9.4840933"><ele>834.0</ele><time>2026-04-26T09:40:53.013Z</time></trkpt><trkpt lat="44.66035" lon="9.4840833"><ele>831.6666666666667</ele><time>2026-04-26T09:40:54.012Z</time></trkpt><trkpt lat="44.6601467" lon="9.4840467"><ele>829.3333333333334</ele><time>2026-04-26T09:40:55.012Z</time></trkpt><trkpt lat="44.65997" lon="9.48401"><ele>827.0</ele><time>2026-04-26T09:40:56.013Z</time></trkpt><trkpt lat="44.6598083" lon="9.48401"><ele>827.0</ele><time>2026-04-26T09:40:57.013Z</time></trkpt><trkpt lat="44.6596333" lon="9.48405"><ele>827.0</ele><time>2026-04-26T09:40:58.013Z</time></trkpt><trkpt lat="44.6594783" lon="9.484175"><ele>827.0</ele><time>2026-04-26T09:40:59.012Z</time></trkpt><trkpt lat="44.6593317" lon="9.48434"><ele>824.3333333333334</ele><time>2026-04-26T09:41:00.013Z</time></trkpt><trkpt lat="44.6591817" lon="9.48453"><ele>821.6666666666667</ele><time>2026-04-26T09:41:01.012Z</time></trkpt><trkpt lat="44.659075" lon="9.4847467"><ele>819.0</ele><time>2026-04-26T09:41:02.013Z</time></trkpt><trkpt lat="44.6590267" lon="9.4850033"><ele>819.0</ele><time>2026-04-26T09:41:03.012Z</time></trkpt><trkpt lat="44.65893" lon="9.4852133"><ele>819.0</ele><time>2026-04-26T09:41:04.012Z</time></trkpt><trkpt lat="44.65889" lon="9.4854767"><ele>819.0</ele><time>2026-04-26T09:41:05.013Z</time></trkpt><trkpt lat="44.658965" lon="9.485795"><ele>819.3333333333333</ele><time>2026-04-26T09:41:06.012Z</time></trkpt><trkpt lat="44.65894" lon="9.486005"><ele>819.6666666666666</ele><time>2026-04-26T09:41:07.013Z</time></trkpt><trkpt lat="44.6588883" lon="9.48622"><ele>820.0</ele><time>2026-04-26T09:41:08.012Z</time></trkpt><trkpt lat="44.658815" lon="9.4863833"><ele>819.3333333333333</ele><time>2026-04-26T09:41:09.013Z</time></trkpt><trkpt lat="44.658655" lon="9.48643"><ele>818.6666666666667</ele><time>2026-04-26T09:41:10.012Z</time></trkpt><trkpt lat="44.6585" lon="9.4865133"><ele>818.0</ele><time>2026-04-26T09:41:11.013Z</time></trkpt><trkpt lat="44.65831" lon="9.4865767"><ele>818.0</ele><time>2026-04-26T09:41:12.012Z</time></trkpt><trkpt lat="44.65813" lon="9.486645"><ele>818.0</ele><time>2026-04-26T09:41:13.013Z</time></trkpt><trkpt lat="44.6579733" lon="9.48672"><ele>818.0</ele><time>2026-04-26T09:41:14.012Z</time></trkpt><trkpt lat="44.6578217" lon="9.4868283"><ele>816.6666666666667</ele><time>2026-04-26T09:41:15.013Z</time></trkpt><trkpt lat="44.65768" lon="9.4869567"><ele>815.3333333333333</ele><time>2026-04-26T09:41:16.012Z</time></trkpt><trkpt lat="44.6575417" lon="9.48713"><ele>814.0</ele><time>2026-04-26T09:41:17.013Z</time></trkpt><trkpt lat="44.6574017" lon="9.4873283"><ele>814.0</ele><time>2026-04-26T09:41:18.012Z</time></trkpt><trkpt lat="44.65726" lon="9.487525"><ele>814.0</ele><time>2026-04-26T09:41:19.013Z</time></trkpt><trkpt lat="44.6571" lon="9.48769"><ele>814.0</ele><time>2026-04-26T09:41:20.012Z</time></trkpt><trkpt lat="44.6569567" lon="9.4878067"><ele>814.6666666666666</ele><time>2026-04-26T09:41:21.013Z</time></trkpt><trkpt lat="44.6568117" lon="9.4878917"><ele>815.3333333333333</ele><time>2026-04-26T09:41:22.013Z</time></trkpt><trkpt lat="44.6566633" lon="9.487925"><ele>816.0</ele><time>2026-04-26T09:41:23.012Z</time></trkpt><trkpt lat="44.6565067" lon="9.4879333"><ele>816.0</ele><time>2026-04-26T09:41:24.012Z</time></trkpt><trkpt lat="44.65635" lon="9.487945"><ele>816.0</ele><time>2026-04-26T09:41:25.012Z</time></trkpt><trkpt lat="44.6561667" lon="9.48802"><ele>816.0</ele><time>2026-04-26T09:41:26.012Z</time></trkpt><trkpt lat="44.6559717" lon="9.4881217"><ele>810.0</ele><time>2026-04-26T09:41:27.012Z</time></trkpt><trkpt lat="44.6557867" lon="9.48823"><ele>804.0</ele><time>2026-04-26T09:41:28.012Z</time></trkpt><trkpt lat="44.6556367" lon="9.48831"><ele>798.0</ele><time>2026-04-26T09:41:29.012Z</time></trkpt><trkpt lat="44.6554767" lon="9.488435"><ele>798.0</ele><time>2026-04-26T09:41:30.012Z</time></trkpt><trkpt lat="44.6553317" lon="9.48853"><ele>798.0</ele><time>2026-04-26T09:41:31.013Z</time></trkpt><trkpt lat="44.6552017" lon="9.488555"><ele>798.0</ele><time>2026-04-26T09:41:32.013Z</time></trkpt><trkpt lat="44.65509" lon="9.4884833"><ele>798.0</ele><time>2026-04-26T09:41:33.012Z</time></trkpt><trkpt lat="44.6549783" lon="9.4883417"><ele>796.5</ele><time>2026-04-26T09:41:34.012Z</time></trkpt><trkpt lat="44.6548617" lon="9.4881983"><ele>795.0</ele><time>2026-04-26T09:41:35.013Z</time></trkpt><trkpt lat="44.6547467" lon="9.4881133"><ele>793.5</ele><time>2026-04-26T09:41:36.012Z</time></trkpt><trkpt lat="44.65464" lon="9.48804"><ele>792.0</ele><time>2026-04-26T09:41:37.012Z</time></trkpt><trkpt lat="44.6545417" lon="9.4879983"><ele>788.75</ele><time>2026-04-26T09:41:38.012Z</time></trkpt><trkpt lat="44.6544483" lon="9.4879883"><ele>785.5</ele><time>2026-04-26T09:41:39.012Z</time></trkpt><trkpt lat="44.6543333" lon="9.4880667"><ele>782.25</ele><time>2026-04-26T09:41:40.013Z</time></trkpt><trkpt lat="44.6541967" lon="9.48818"><ele>779.0</ele><time>2026-04-26T09:41:41.012Z</time></trkpt><trkpt lat="44.6540517" lon="9.4882917"><ele>779.0</ele><time>2026-04-26T09:41:42.013Z</time></trkpt><trkpt lat="44.6538883" lon="9.48836"><ele>779.0</ele><time>2026-04-26T09:41:43.013Z</time></trkpt><trkpt lat="44.6537517" lon="9.4884317"><ele>779.0</ele><time>2026-04-26T09:41:44.012Z</time></trkpt><trkpt lat="44.6536267" lon="9.488535"><ele>776.3333333333334</ele><time>2026-04-26T09:41:45.012Z</time></trkpt><trkpt lat="44.6535017" lon="9.4887117"><ele>773.6666666666667</ele><time>2026-04-26T09:41:46.012Z</time></trkpt><trkpt lat="44.653405" lon="9.488875"><ele>771.0</ele><time>2026-04-26T09:41:47.012Z</time></trkpt><trkpt lat="44.6533017" lon="9.4890183"><ele>771.0</ele><time>2026-04-26T09:41:48.013Z</time></trkpt><trkpt lat="44.653195" lon="9.4891633"><ele>771.0</ele><time>2026-04-26T09:41:49.013Z</time></trkpt><trkpt lat="44.6531067" lon="9.4892817"><ele>771.0</ele><time>2026-04-26T09:41:50.013Z</time></trkpt><trkpt lat="44.6530067" lon="9.4894283"><ele>771.0</ele><time>2026-04-26T09:41:51.012Z</time></trkpt><trkpt lat="44.652935" lon="9.4896067"><ele>774.6666666666667</ele><time>2026-04-26T09:41:52.012Z</time></trkpt><trkpt lat="44.652845" lon="9.4897883"><ele>778.3333333333334</ele><time>2026-04-26T09:41:53.013Z</time></trkpt><trkpt lat="44.6527483" lon="9.4899867"><ele>782.0</ele><time>2026-04-26T09:41:54.012Z</time></trkpt><trkpt lat="44.65264" lon="9.4901783"><ele>776.3333333333334</ele><time>2026-04-26T09:41:55.013Z</time></trkpt><trkpt lat="44.65252" lon="9.4903517"><ele>770.6666666666667</ele><time>2026-04-26T09:41:56.012Z</time></trkpt><trkpt lat="44.652405" lon="9.4905083"><ele>765.0</ele><time>2026-04-26T09:41:57.013Z</time></trkpt><trkpt lat="44.6523283" lon="9.490675"><ele>765.0</ele><time>2026-04-26T09:41:58.013Z</time></trkpt><trkpt lat="44.65227" lon="9.49085"><ele>765.0</ele><time>2026-04-26T09:41:59.013Z</time></trkpt><trkpt lat="44.652235" lon="9.4910267"><ele>765.0</ele><time>2026-04-26T09:42:00.013Z</time></trkpt><trkpt lat="44.6522583" lon="9.4912233"><ele>765.0</ele><time>2026-04-26T09:42:01.013Z</time></trkpt><trkpt lat="44.652325" lon="9.4913967"><ele>763.0</ele><time>2026-04-26T09:42:02.012Z</time></trkpt><trkpt lat="44.6524117" lon="9.4915533"><ele>761.0</ele><time>2026-04-26T09:42:03.013Z</time></trkpt><trkpt lat="44.6526867" lon="9.49169"><ele>759.0</ele><time>2026-04-26T09:42:04.012Z</time></trkpt><trkpt lat="44.6528283" lon="9.4918567"><ele>762.25</ele><time>2026-04-26T09:42:05.012Z</time></trkpt><trkpt lat="44.652935" lon="9.4920067"><ele>765.5</ele><time>2026-04-26T09:42:06.012Z</time></trkpt><trkpt lat="44.6529817" lon="9.4921767"><ele>768.75</ele><time>2026-04-26T09:42:07.013Z</time></trkpt><trkpt lat="44.652985" lon="9.49236"><ele>772.0</ele><time>2026-04-26T09:42:08.013Z</time></trkpt><trkpt lat="44.6528933" lon="9.4925717"><ele>767.0</ele><time>2026-04-26T09:42:09.013Z</time></trkpt><trkpt lat="44.652775" lon="9.4927783"><ele>762.0</ele><time>2026-04-26T09:42:10.012Z</time></trkpt><trkpt lat="44.652605" lon="9.4929817"><ele>757.0</ele><time>2026-04-26T09:42:11.013Z</time></trkpt><trkpt lat="44.652455" lon="9.4931817"><ele>757.0</ele><time>2026-04-26T09:42:12.013Z</time></trkpt><trkpt lat="44.65234" lon="9.4933583"><ele>757.0</ele><time>2026-04-26T09:42:13.012Z</time></trkpt><trkpt lat="44.6522117" lon="9.4935133"><ele>757.0</ele><time>2026-04-26T09:42:14.012Z</time></trkpt><trkpt lat="44.6521133" lon="9.49366"><ele>756.75</ele><time>2026-04-26T09:42:15.012Z</time></trkpt><trkpt lat="44.6520417" lon="9.4938333"><ele>756.5</ele><time>2026-04-26T09:42:16.012Z</time></trkpt><trkpt lat="44.6520133" lon="9.4940417"><ele>756.25</ele><time>2026-04-26T09:42:17.013Z</time></trkpt><trkpt lat="44.652025" lon="9.49425"><ele>756.0</ele><time>2026-04-26T09:42:18.012Z</time></trkpt><trkpt lat="44.6521" lon="9.49452"><ele>755.6666666666666</ele><time>2026-04-26T09:42:19.013Z</time></trkpt><trkpt lat="44.65215" lon="9.4947917"><ele>755.3333333333333</ele><time>2026-04-26T09:42:20.012Z</time></trkpt><trkpt lat="44.652175" lon="9.4951017"><ele>755.0</ele><time>2026-04-26T09:42:21.012Z</time></trkpt><trkpt lat="44.6521933" lon="9.4954167"><ele>753.6666666666666</ele><time>2026-04-26T09:42:22.013Z</time></trkpt><trkpt lat="44.6522283" lon="9.4957167"><ele>752.3333333333334</ele><time>2026-04-26T09:42:23.012Z</time></trkpt><trkpt lat="44.65225" lon="9.4959817"><ele>751.0</ele><time>2026-04-26T09:42:24.013Z</time></trkpt><trkpt lat="44.6522617" lon="9.4962167"><ele>751.1999999999999</ele><time>2026-04-26T09:42:25.013Z</time></trkpt><trkpt lat="44.6522733" lon="9.4964383"><ele>751.4</ele><time>2026-04-26T09:42:26.012Z</time></trkpt><trkpt lat="44.65225" lon="9.4966067"><ele>751.6</ele><time>2026-04-26T09:42:27.013Z</time></trkpt><trkpt lat="44.652195" lon="9.4966933"><ele>751.8</ele><time>2026-04-26T09:42:28.012Z</time></trkpt><trkpt lat="44.6521317" lon="9.496775"><ele>752.0</ele><time>2026-04-26T09:42:29.012Z</time></trkpt><trkpt lat="44.6520417" lon="9.4968283"><ele>749.2</ele><time>2026-04-26T09:42:30.012Z</time></trkpt><trkpt lat="44.6519567" lon="9.496855"><ele>746.4000000000001</ele><time>2026-04-26T09:42:31.011Z</time></trkpt><trkpt lat="44.651865" lon="9.4968617"><ele>743.5999999999999</ele><time>2026-04-26T09:42:32.011Z</time></trkpt><trkpt lat="44.651775" lon="9.4968317"><ele>740.8</ele><time>2026-04-26T09:42:33.012Z</time></trkpt><trkpt lat="44.6517033" lon="9.496775"><ele>738.0</ele><time>2026-04-26T09:42:34.011Z</time></trkpt><trkpt lat="44.6516317" lon="9.4966833"><ele>738.0</ele><time>2026-04-26T09:42:35.011Z</time></trkpt><trkpt lat="44.6515933" lon="9.496565"><ele>738.0</ele><time>2026-04-26T09:42:36.012Z</time></trkpt><trkpt lat="44.65157" lon="9.49637"><ele>738.0</ele><time>2026-04-26T09:42:37.011Z</time></trkpt><trkpt lat="44.6515567" lon="9.496115"><ele>738.0</ele><time>2026-04-26T09:42:38.011Z</time></trkpt><trkpt lat="44.6515567" lon="9.4958"><ele>735.5</ele><time>2026-04-26T09:42:39.012Z</time></trkpt><trkpt lat="44.6515133" lon="9.4954367"><ele>733.0</ele><time>2026-04-26T09:42:40.011Z</time></trkpt><trkpt lat="44.6514717" lon="9.4949467"><ele>732.6666666666667</ele><time>2026-04-26T09:42:41.012Z</time></trkpt><trkpt lat="44.6513983" lon="9.4946633"><ele>732.3333333333334</ele><time>2026-04-26T09:42:42.011Z</time></trkpt><trkpt lat="44.6513067" lon="9.494425"><ele>732.0</ele><time>2026-04-26T09:42:43.012Z</time></trkpt><trkpt lat="44.651215" lon="9.4942317"><ele>732.5</ele><time>2026-04-26T09:42:44.011Z</time></trkpt><trkpt lat="44.6511483" lon="9.4940283"><ele>733.0</ele><time>2026-04-26T09:42:45.011Z</time></trkpt><trkpt lat="44.6511" lon="9.4938383"><ele>733.5</ele><time>2026-04-26T09:42:46.011Z</time></trkpt><trkpt lat="44.6510633" lon="9.4936417"><ele>734.0</ele><time>2026-04-26T09:42:47.012Z</time></trkpt><trkpt lat="44.6510567" lon="9.4934217"><ele>729.25</ele><time>2026-04-26T09:42:48.012Z</time></trkpt><trkpt lat="44.651065" lon="9.493215"><ele>724.5</ele><time>2026-04-26T09:42:49.011Z</time></trkpt><trkpt lat="44.6510933" lon="9.4930133"><ele>719.75</ele><time>2026-04-26T09:42:50.012Z</time></trkpt><trkpt lat="44.6510967" lon="9.49285"><ele>715.0</ele><time>2026-04-26T09:42:51.011Z</time></trkpt><trkpt lat="44.65107" lon="9.4926933"><ele>715.0</ele><time>2026-04-26T09:42:52.012Z</time></trkpt><trkpt lat="44.65102" lon="9.4925683"><ele>715.0</ele><time>2026-04-26T09:42:53.012Z</time></trkpt><trkpt lat="44.65096" lon="9.4924567"><ele>715.0</ele><time>2026-04-26T09:42:54.012Z</time></trkpt><trkpt lat="44.6508717" lon="9.4924167"><ele>715.0</ele><time>2026-04-26T09:42:55.012Z</time></trkpt><trkpt lat="44.6507883" lon="9.4924467"><ele>715.0</ele><time>2026-04-26T09:42:56.011Z</time></trkpt><trkpt lat="44.6507083" lon="9.4925617"><ele>715.0</ele><time>2026-04-26T09:42:57.012Z</time></trkpt><trkpt lat="44.650645" lon="9.4927583"><ele>715.0</ele><time>2026-04-26T09:42:58.011Z</time></trkpt><trkpt lat="44.6505783" lon="9.4929117"><ele>715.0</ele><time>2026-04-26T09:42:59.012Z</time></trkpt><trkpt lat="44.6505033" lon="9.493235"><ele>715.0</ele><time>2026-04-26T09:43:00.012Z</time></trkpt><trkpt lat="44.6503833" lon="9.493555"><ele>715.0</ele><time>2026-04-26T09:43:01.011Z</time></trkpt><trkpt lat="44.6502433" lon="9.4938517"><ele>711.6666666666667</ele><time>2026-04-26T09:43:02.011Z</time></trkpt><trkpt lat="44.6500717" lon="9.4940817"><ele>708.3333333333334</ele><time>2026-04-26T09:43:03.012Z</time></trkpt><trkpt lat="44.64991" lon="9.4942667"><ele>705.0</ele><time>2026-04-26T09:43:04.012Z</time></trkpt><trkpt lat="44.6497183" lon="9.4943717"><ele>705.0</ele><time>2026-04-26T09:43:05.011Z</time></trkpt><trkpt lat="44.64956" lon="9.494495"><ele>705.0</ele><time>2026-04-26T09:43:06.012Z</time></trkpt><trkpt lat="44.6494267" lon="9.4946217"><ele>705.0</ele><time>2026-04-26T09:43:07.011Z</time></trkpt><trkpt lat="44.649305" lon="9.4947583"><ele>703.0</ele><time>2026-04-26T09:43:08.011Z</time></trkpt><trkpt lat="44.6492283" lon="9.4949167"><ele>701.0</ele><time>2026-04-26T09:43:09.011Z</time></trkpt><trkpt lat="44.6491733" lon="9.49507"><ele>699.0</ele><time>2026-04-26T09:43:10.011Z</time></trkpt><trkpt lat="44.649135" lon="9.495235"><ele>697.0</ele><time>2026-04-26T09:43:11.011Z</time></trkpt><trkpt lat="44.6491467" lon="9.4954"><ele>695.75</ele><time>2026-04-26T09:43:12.012Z</time></trkpt><trkpt lat="44.64926" lon="9.4955917"><ele>694.5</ele><time>2026-04-26T09:43:13.012Z</time></trkpt><trkpt lat="44.64931" lon="9.4957117"><ele>693.25</ele><time>2026-04-26T09:43:14.011Z</time></trkpt><trkpt lat="44.6492867" lon="9.4958717"><ele>692.0</ele><time>2026-04-26T09:43:15.011Z</time></trkpt><trkpt lat="44.6492283" lon="9.49604"><ele>692.0</ele><time>2026-04-26T09:43:16.012Z</time></trkpt><trkpt lat="44.6491683" lon="9.4961733"><ele>692.0</ele><time>2026-04-26T09:43:17.011Z</time></trkpt><trkpt lat="44.6490967" lon="9.4963217"><ele>692.0</ele><time>2026-04-26T09:43:18.012Z</time></trkpt><trkpt lat="44.649025" lon="9.496485"><ele>692.0</ele><time>2026-04-26T09:43:19.011Z</time></trkpt><trkpt lat="44.6489733" lon="9.4966617"><ele>691.5</ele><time>2026-04-26T09:43:20.011Z</time></trkpt><trkpt lat="44.6489517" lon="9.4968267"><ele>691.0</ele><time>2026-04-26T09:43:21.011Z</time></trkpt><trkpt lat="44.6489733" lon="9.497"><ele>690.5</ele><time>2026-04-26T09:43:22.011Z</time></trkpt><trkpt lat="44.6490433" lon="9.4971567"><ele>690.0</ele><time>2026-04-26T09:43:23.011Z</time></trkpt><trkpt lat="44.6491317" lon="9.4972867"><ele>688.75</ele><time>2026-04-26T09:43:24.012Z</time></trkpt><trkpt lat="44.6492333" lon="9.497415"><ele>687.5</ele><time>2026-04-26T09:43:25.011Z</time></trkpt><trkpt lat="44.6493367" lon="9.4975533"><ele>686.25</ele><time>2026-04-26T09:43:26.012Z</time></trkpt><trkpt lat="44.649405" lon="9.4977033"><ele>685.0</ele><time>2026-04-26T09:43:27.012Z</time></trkpt><trkpt lat="44.6494717" lon="9.4978917"><ele>682.3333333333334</ele><time>2026-04-26T09:43:28.012Z</time></trkpt><trkpt lat="44.649465" lon="9.4981283"><ele>679.6666666666666</ele><time>2026-04-26T09:43:29.012Z</time></trkpt><trkpt lat="44.6494617" lon="9.4984"><ele>677.0</ele><time>2026-04-26T09:43:30.012Z</time></trkpt><trkpt lat="44.649455" lon="9.4986483"><ele>675.75</ele><time>2026-04-26T09:43:31.011Z</time></trkpt><trkpt lat="44.6494567" lon="9.4988867"><ele>674.5</ele><time>2026-04-26T09:43:32.012Z</time></trkpt><trkpt lat="44.6494633" lon="9.4990833"><ele>673.25</ele><time>2026-04-26T09:43:33.012Z</time></trkpt><trkpt lat="44.6494733" lon="9.499255"><ele>672.0</ele><time>2026-04-26T09:43:34.011Z</time></trkpt><trkpt lat="44.649495" lon="9.4994017"><ele>672.0</ele><time>2026-04-26T09:43:35.012Z</time></trkpt><trkpt lat="44.649505" lon="9.49952"><ele>672.0</ele><time>2026-04-26T09:43:36.011Z</time></trkpt><trkpt lat="44.6495117" lon="9.4996683"><ele>672.0</ele><time>2026-04-26T09:43:38.011Z</time></trkpt><trkpt lat="44.64943" lon="9.4996667"><ele>672.0</ele><time>2026-04-26T09:43:40.012Z</time></trkpt><trkpt lat="44.6493867" lon="9.4995883"><ele>672.0</ele><time>2026-04-26T09:43:41.012Z</time></trkpt><trkpt lat="44.649325" lon="9.4994567"><ele>672.0</ele><time>2026-04-26T09:43:42.011Z</time></trkpt><trkpt lat="44.6492367" lon="9.499255"><ele>672.0</ele><time>2026-04-26T09:43:43.012Z</time></trkpt><trkpt lat="44.6491483" lon="9.499075"><ele>672.0</ele><time>2026-04-26T09:43:44.011Z</time></trkpt><trkpt lat="44.6490217" lon="9.4989067"><ele>672.0</ele><time>2026-04-26T09:43:45.012Z</time></trkpt><trkpt lat="44.648895" lon="9.4987667"><ele>672.0</ele><time>2026-04-26T09:43:46.011Z</time></trkpt><trkpt lat="44.6487633" lon="9.498665"><ele>672.0</ele><time>2026-04-26T09:43:47.011Z</time></trkpt><trkpt lat="44.648575" lon="9.4985917"><ele>670.25</ele><time>2026-04-26T09:43:48.011Z</time></trkpt><trkpt lat="44.6484217" lon="9.4985717"><ele>668.5</ele><time>2026-04-26T09:43:49.011Z</time></trkpt><trkpt lat="44.6482883" lon="9.4985"><ele>666.75</ele><time>2026-04-26T09:43:50.011Z</time></trkpt><trkpt lat="44.6481517" lon="9.498405"><ele>665.0</ele><time>2026-04-26T09:43:51.011Z</time></trkpt><trkpt lat="44.64806" lon="9.4982767"><ele>665.0</ele><time>2026-04-26T09:43:52.012Z</time></trkpt><trkpt lat="44.647975" lon="9.4981233"><ele>665.0</ele><time>2026-04-26T09:43:53.012Z</time></trkpt><trkpt lat="44.6479167" lon="9.49792"><ele>665.0</ele><time>2026-04-26T09:43:54.011Z</time></trkpt><trkpt lat="44.6478467" lon="9.497695"><ele>664.5</ele><time>2026-04-26T09:43:55.011Z</time></trkpt><trkpt lat="44.647785" lon="9.4974933"><ele>664.0</ele><time>2026-04-26T09:43:56.011Z</time></trkpt><trkpt lat="44.6477333" lon="9.4973017"><ele>663.5</ele><time>2026-04-26T09:43:57.011Z</time></trkpt><trkpt lat="44.6476667" lon="9.4971383"><ele>663.0</ele><time>2026-04-26T09:43:58.011Z</time></trkpt><trkpt lat="44.6476067" lon="9.496995"><ele>663.0</ele><time>2026-04-26T09:43:59.011Z</time></trkpt><trkpt lat="44.6475333" lon="9.4968767"><ele>663.0</ele><time>2026-04-26T09:44:00.011Z</time></trkpt><trkpt lat="44.6474383" lon="9.496805"><ele>663.0</ele><time>2026-04-26T09:44:01.011Z</time></trkpt><trkpt lat="44.6473617" lon="9.4967"><ele>663.0</ele><time>2026-04-26T09:44:02.011Z</time></trkpt><trkpt lat="44.647235" lon="9.4967167"><ele>663.0</ele><time>2026-04-26T09:44:03.012Z</time></trkpt><trkpt lat="44.6471267" lon="9.496705"><ele>663.0</ele><time>2026-04-26T09:44:04.011Z</time></trkpt><trkpt lat="44.64701" lon="9.4967933"><ele>663.0</ele><time>2026-04-26T09:44:05.012Z</time></trkpt><trkpt lat="44.6469367" lon="9.4968"><ele>663.0</ele><time>2026-04-26T09:44:06.011Z</time></trkpt><trkpt lat="44.646865" lon="9.4968433"><ele>663.0</ele><time>2026-04-26T09:44:07.011Z</time></trkpt><trkpt lat="44.6467967" lon="9.4968217"><ele>664.0</ele><time>2026-04-26T09:44:08.012Z</time></trkpt><trkpt lat="44.6468617" lon="9.49664"><ele>665.0</ele><time>2026-04-26T09:44:11.012Z</time></trkpt><trkpt lat="44.6469317" lon="9.4964983"><ele>666.0</ele><time>2026-04-26T09:44:12.012Z</time></trkpt><trkpt lat="44.6470567" lon="9.496215"><ele>666.0</ele><time>2026-04-26T09:44:13.012Z</time></trkpt><trkpt lat="44.6471667" lon="9.49603"><ele>666.0</ele><time>2026-04-26T09:44:14.012Z</time></trkpt><trkpt lat="44.6472017" lon="9.4958483"><ele>666.0</ele><time>2026-04-26T09:44:15.012Z</time></trkpt><trkpt lat="44.6472167" lon="9.4956867"><ele>666.0</ele><time>2026-04-26T09:44:16.011Z</time></trkpt><trkpt lat="44.6472" lon="9.4954933"><ele>664.75</ele><time>2026-04-26T09:44:17.012Z</time></trkpt><trkpt lat="44.6472067" lon="9.4953217"><ele>663.5</ele><time>2026-04-26T09:44:18.012Z</time></trkpt><trkpt lat="44.6472333" lon="9.4951417"><ele>662.25</ele><time>2026-04-26T09:44:19.011Z</time></trkpt><trkpt lat="44.6472567" lon="9.4949717"><ele>661.0</ele><time>2026-04-26T09:44:20.011Z</time></trkpt><trkpt lat="44.647285" lon="9.494825"><ele>661.0</ele><time>2026-04-26T09:44:21.012Z</time></trkpt><trkpt lat="44.6472783" lon="9.4946817"><ele>661.0</ele><time>2026-04-26T09:44:22.012Z</time></trkpt><trkpt lat="44.64728" lon="9.4945717"><ele>661.0</ele><time>2026-04-26T09:44:23.011Z</time></trkpt><trkpt lat="44.6471967" lon="9.4946617"><ele>661.0</ele><time>2026-04-26T09:44:25.012Z</time></trkpt><trkpt lat="44.6471533" lon="9.4947367"><ele>661.0</ele><time>2026-04-26T09:44:26.012Z</time></trkpt><trkpt lat="44.6471333" lon="9.4948417"><ele>661.0</ele><time>2026-04-26T09:44:27.012Z</time></trkpt><trkpt lat="44.6470983" lon="9.4949883"><ele>661.0</ele><time>2026-04-26T09:44:28.012Z</time></trkpt><trkpt lat="44.6470633" lon="9.49517"><ele>661.0</ele><time>2026-04-26T09:44:29.011Z</time></trkpt><trkpt lat="44.6470267" lon="9.4953683"><ele>661.0</ele><time>2026-04-26T09:44:30.012Z</time></trkpt><trkpt lat="44.646965" lon="9.4955917"><ele>653.3333333333334</ele><time>2026-04-26T09:44:31.011Z</time></trkpt><trkpt lat="44.6468483" lon="9.4957833"><ele>645.6666666666666</ele><time>2026-04-26T09:44:32.011Z</time></trkpt><trkpt lat="44.6467217" lon="9.4959333"><ele>638.0</ele><time>2026-04-26T09:44:33.011Z</time></trkpt><trkpt lat="44.6465867" lon="9.4960433"><ele>638.0</ele><time>2026-04-26T09:44:34.011Z</time></trkpt><trkpt lat="44.6464733" lon="9.4961633"><ele>638.0</ele><time>2026-04-26T09:44:35.011Z</time></trkpt><trkpt lat="44.64638" lon="9.496295"><ele>638.0</ele><time>2026-04-26T09:44:36.012Z</time></trkpt><trkpt lat="44.6463" lon="9.4964317"><ele>638.0</ele><time>2026-04-26T09:44:37.011Z</time></trkpt><trkpt lat="44.64622" lon="9.4965583"><ele>638.4</ele><time>2026-04-26T09:44:38.011Z</time></trkpt><trkpt lat="44.64616" lon="9.4966783"><ele>638.8</ele><time>2026-04-26T09:44:39.012Z</time></trkpt><trkpt lat="44.6461467" lon="9.4968133"><ele>639.2</ele><time>2026-04-26T09:44:40.011Z</time></trkpt><trkpt lat="44.6461367" lon="9.4969567"><ele>639.6</ele><time>2026-04-26T09:44:41.012Z</time></trkpt><trkpt lat="44.64612" lon="9.497075"><ele>640.0</ele><time>2026-04-26T09:44:42.011Z</time></trkpt><trkpt lat="44.6461283" lon="9.4971783"><ele>637.4</ele><time>2026-04-26T09:44:43.012Z</time></trkpt><trkpt lat="44.6461167" lon="9.49731"><ele>634.8</ele><time>2026-04-26T09:44:45.011Z</time></trkpt><trkpt lat="44.646035" lon="9.497375"><ele>632.2</ele><time>2026-04-26T09:44:47.012Z</time></trkpt><trkpt lat="44.6459367" lon="9.4974317"><ele>629.6</ele><time>2026-04-26T09:44:49.012Z</time></trkpt><trkpt lat="44.64584" lon="9.4974817"><ele>627.0</ele><time>2026-04-26T09:44:51.012Z</time></trkpt><trkpt lat="44.6457183" lon="9.497555"><ele>627.0</ele><time>2026-04-26T09:44:53.012Z</time></trkpt><trkpt lat="44.6456483" lon="9.49759"><ele>627.0</ele><time>2026-04-26T09:44:54.012Z</time></trkpt><trkpt lat="44.64558" lon="9.4976133"><ele>627.0</ele><time>2026-04-26T09:44:55.012Z</time></trkpt><trkpt lat="44.6454867" lon="9.4976617"><ele>627.0</ele><time>2026-04-26T09:44:57.012Z</time></trkpt><trkpt lat="44.6454333" lon="9.49771"><ele>627.0</ele><time>2026-04-26T09:45:00.012Z</time></trkpt><trkpt lat="44.6453867" lon="9.4977767"><ele>627.0</ele><time>2026-04-26T09:45:15.011Z</time></trkpt><trkpt lat="44.6453067" lon="9.4978417"><ele>627.0</ele><time>2026-04-26T09:45:17.012Z</time></trkpt><trkpt lat="44.6452383" lon="9.49787"><ele>627.0</ele><time>2026-04-26T09:45:18.011Z</time></trkpt><trkpt lat="44.645175" lon="9.4979067"><ele>627.0</ele><time>2026-04-26T09:45:19.012Z</time></trkpt><trkpt lat="44.645085" lon="9.4979033"><ele>627.0</ele><time>2026-04-26T09:45:20.012Z</time></trkpt><trkpt lat="44.64501" lon="9.4979333"><ele>627.0</ele><time>2026-04-26T09:45:21.012Z</time></trkpt><trkpt lat="44.6448917" lon="9.49797"><ele>627.0</ele><time>2026-04-26T09:45:23.011Z</time></trkpt><trkpt lat="44.6448283" lon="9.4979983"><ele>627.0</ele><time>2026-04-26T09:45:24.012Z</time></trkpt><trkpt lat="44.6447633" lon="9.498035"><ele>627.0</ele><time>2026-04-26T09:45:25.011Z</time></trkpt><trkpt lat="44.6446433" lon="9.4980717"><ele>627.0</ele><time>2026-04-26T09:45:27.012Z</time></trkpt><trkpt lat="44.64453" lon="9.4980217"><ele>627.0</ele><time>2026-04-26T09:45:29.011Z</time></trkpt><trkpt lat="44.6444583" lon="9.4980317"><ele>627.0</ele><time>2026-04-26T09:45:30.012Z</time></trkpt><trkpt lat="44.6443417" lon="9.4979967"><ele>626.6666666666666</ele><time>2026-04-26T09:45:32.012Z</time></trkpt><trkpt lat="44.6442183" lon="9.49792"><ele>626.3333333333334</ele><time>2026-04-26T09:45:34.012Z</time></trkpt><trkpt lat="44.64415" lon="9.4978767"><ele>626.0</ele><time>2026-04-26T09:45:35.011Z</time></trkpt><trkpt lat="44.64408" lon="9.4978833"><ele>625.6666666666667</ele><time>2026-04-26T09:45:36.011Z</time></trkpt><trkpt lat="44.6439933" lon="9.4978717"><ele>625.3333333333334</ele><time>2026-04-26T09:45:37.011Z</time></trkpt><trkpt lat="44.6439233" lon="9.4978917"><ele>625.0</ele><time>2026-04-26T09:45:38.012Z</time></trkpt><trkpt lat="44.6438967" lon="9.4980017"><ele>625.0</ele><time>2026-04-26T09:45:39.012Z</time></trkpt><trkpt lat="44.6438867" lon="9.4981883"><ele>625.0</ele><time>2026-04-26T09:45:41.012Z</time></trkpt><trkpt lat="44.643855" lon="9.498295"><ele>625.0</ele><time>2026-04-26T09:45:42.012Z</time></trkpt><trkpt lat="44.6438017" lon="9.4984217"><ele>625.0</ele><time>2026-04-26T09:45:43.012Z</time></trkpt><trkpt lat="44.6437333" lon="9.4985583"><ele>625.0</ele><time>2026-04-26T09:45:44.011Z</time></trkpt><trkpt lat="44.6436633" lon="9.4987167"><ele>625.0</ele><time>2026-04-26T09:45:45.012Z</time></trkpt><trkpt lat="44.6436067" lon="9.4988467"><ele>625.0</ele><time>2026-04-26T09:45:46.011Z</time></trkpt><trkpt lat="44.6435617" lon="9.4989717"><ele>625.0</ele><time>2026-04-26T09:45:47.012Z</time></trkpt><trkpt lat="44.6435183" lon="9.499085"><ele>625.0</ele><time>2026-04-26T09:45:48.011Z</time></trkpt><trkpt lat="44.6434817" lon="9.4992033"><ele>625.0</ele><time>2026-04-26T09:45:49.012Z</time></trkpt><trkpt lat="44.64346" lon="9.4993383"><ele>625.0</ele><time>2026-04-26T09:45:50.011Z</time></trkpt><trkpt lat="44.6434717" lon="9.4994583"><ele>625.0</ele><time>2026-04-26T09:45:51.012Z</time></trkpt><trkpt lat="44.64352" lon="9.4995867"><ele>625.0</ele><time>2026-04-26T09:45:52.011Z</time></trkpt><trkpt lat="44.6435817" lon="9.4997083"><ele>625.0</ele><time>2026-04-26T09:45:53.011Z</time></trkpt><trkpt lat="44.6436383" lon="9.4997983"><ele>625.0</ele><time>2026-04-26T09:45:54.012Z</time></trkpt><trkpt lat="44.6437167" lon="9.499885"><ele>626.0</ele><time>2026-04-26T09:45:55.011Z</time></trkpt><trkpt lat="44.6438117" lon="9.49997"><ele>627.0</ele><time>2026-04-26T09:45:56.012Z</time></trkpt><trkpt lat="44.6439317" lon="9.5000517"><ele>628.0</ele><time>2026-04-26T09:45:57.011Z</time></trkpt><trkpt lat="44.6440667" lon="9.5001417"><ele>629.0</ele><time>2026-04-26T09:45:58.011Z</time></trkpt><trkpt lat="44.6441917" lon="9.5002317"><ele>629.0</ele><time>2026-04-26T09:45:59.012Z</time></trkpt><trkpt lat="44.6443217" lon="9.5003267"><ele>629.0</ele><time>2026-04-26T09:46:00.011Z</time></trkpt><trkpt lat="44.644445" lon="9.5004183"><ele>629.0</ele><time>2026-04-26T09:46:01.012Z</time></trkpt><trkpt lat="44.644575" lon="9.5005133"><ele>629.0</ele><time>2026-04-26T09:46:02.012Z</time></trkpt><trkpt lat="44.644695" lon="9.5006167"><ele>629.75</ele><time>2026-04-26T09:46:03.011Z</time></trkpt><trkpt lat="44.6448117" lon="9.500715"><ele>630.5</ele><time>2026-04-26T09:46:04.012Z</time></trkpt><trkpt lat="44.6449333" lon="9.5007933"><ele>631.25</ele><time>2026-04-26T09:46:05.011Z</time></trkpt><trkpt lat="44.6450433" lon="9.5008933"><ele>632.0</ele><time>2026-04-26T09:46:06.012Z</time></trkpt><trkpt lat="44.64513" lon="9.5010183"><ele>632.0</ele><time>2026-04-26T09:46:07.011Z</time></trkpt><trkpt lat="44.6452017" lon="9.5011783"><ele>632.0</ele><time>2026-04-26T09:46:08.011Z</time></trkpt><trkpt lat="44.6452383" lon="9.5014267"><ele>632.0</ele><time>2026-04-26T09:46:09.012Z</time></trkpt><trkpt lat="44.6453067" lon="9.50166"><ele>632.0</ele><time>2026-04-26T09:46:10.011Z</time></trkpt><trkpt lat="44.6453917" lon="9.5019133"><ele>632.0</ele><time>2026-04-26T09:46:11.011Z</time></trkpt><trkpt lat="44.6454683" lon="9.5021483"><ele>632.0</ele><time>2026-04-26T09:46:12.012Z</time></trkpt><trkpt lat="44.6455433" lon="9.50237"><ele>632.0</ele><time>2026-04-26T09:46:13.012Z</time></trkpt><trkpt lat="44.6456283" lon="9.5025933"><ele>632.0</ele><time>2026-04-26T09:46:14.012Z</time></trkpt><trkpt lat="44.64572" lon="9.5028383"><ele>632.0</ele><time>2026-04-26T09:46:15.011Z</time></trkpt><trkpt lat="44.6458017" lon="9.5030983"><ele>635.3333333333333</ele><time>2026-04-26T09:46:16.012Z</time></trkpt><trkpt lat="44.6458633" lon="9.5033733"><ele>638.6666666666666</ele><time>2026-04-26T09:46:17.011Z</time></trkpt><trkpt lat="44.6459267" lon="9.5036317"><ele>642.0</ele><time>2026-04-26T09:46:18.011Z</time></trkpt><trkpt lat="44.6459967" lon="9.5038617"><ele>645.3333333333334</ele><time>2026-04-26T09:46:19.012Z</time></trkpt><trkpt lat="44.6460867" lon="9.5040767"><ele>648.6666666666667</ele><time>2026-04-26T09:46:20.012Z</time></trkpt><trkpt lat="44.6461733" lon="9.5043133"><ele>652.0</ele><time>2026-04-26T09:46:21.011Z</time></trkpt><trkpt lat="44.6462383" lon="9.50454"><ele>642.0</ele><time>2026-04-26T09:46:22.011Z</time></trkpt><trkpt lat="44.646265" lon="9.50477"><ele>632.0</ele><time>2026-04-26T09:46:23.011Z</time></trkpt><trkpt lat="44.64628" lon="9.505005"><ele>622.0</ele><time>2026-04-26T09:46:24.011Z</time></trkpt><trkpt lat="44.6463033" lon="9.5052333"><ele>626.3333333333334</ele><time>2026-04-26T09:46:25.012Z</time></trkpt><trkpt lat="44.646295" lon="9.505455"><ele>630.6666666666666</ele><time>2026-04-26T09:46:26.011Z</time></trkpt><trkpt lat="44.64633" lon="9.505665"><ele>635.0</ele><time>2026-04-26T09:46:27.011Z</time></trkpt><trkpt lat="44.6463733" lon="9.5058583"><ele>635.0</ele><time>2026-04-26T09:46:28.011Z</time></trkpt><trkpt lat="44.6464233" lon="9.5060433"><ele>635.0</ele><time>2026-04-26T09:46:29.012Z</time></trkpt><trkpt lat="44.6465533" lon="9.5062233"><ele>635.0</ele><time>2026-04-26T09:46:30.011Z</time></trkpt><trkpt lat="44.6466667" lon="9.5064117"><ele>630.0</ele><time>2026-04-26T09:46:31.012Z</time></trkpt><trkpt lat="44.6467867" lon="9.5065967"><ele>625.0</ele><time>2026-04-26T09:46:32.011Z</time></trkpt><trkpt lat="44.6469083" lon="9.5067633"><ele>620.0</ele><time>2026-04-26T09:46:33.011Z</time></trkpt><trkpt lat="44.6470433" lon="9.50693"><ele>625.6666666666666</ele><time>2026-04-26T09:46:34.012Z</time></trkpt><trkpt lat="44.647155" lon="9.5070933"><ele>631.3333333333334</ele><time>2026-04-26T09:46:35.012Z</time></trkpt><trkpt lat="44.64726" lon="9.50725"><ele>637.0</ele><time>2026-04-26T09:46:36.011Z</time></trkpt><trkpt lat="44.6473583" lon="9.5074217"><ele>637.0</ele><time>2026-04-26T09:46:37.012Z</time></trkpt><trkpt lat="44.64744" lon="9.5076217"><ele>637.0</ele><time>2026-04-26T09:46:38.011Z</time></trkpt><trkpt lat="44.6475133" lon="9.5078233"><ele>637.0</ele><time>2026-04-26T09:46:39.012Z</time></trkpt><trkpt lat="44.64757" lon="9.5079983"><ele>636.75</ele><time>2026-04-26T09:46:40.012Z</time></trkpt><trkpt lat="44.6476367" lon="9.5081783"><ele>636.5</ele><time>2026-04-26T09:46:41.012Z</time></trkpt><trkpt lat="44.6477217" lon="9.5083383"><ele>636.25</ele><time>2026-04-26T09:46:42.012Z</time></trkpt><trkpt lat="44.6478333" lon="9.50847"><ele>636.0</ele><time>2026-04-26T09:46:43.012Z</time></trkpt><trkpt lat="44.648005" lon="9.5084683"><ele>636.0</ele><time>2026-04-26T09:46:44.011Z</time></trkpt><trkpt lat="44.6481467" lon="9.5084833"><ele>636.0</ele><time>2026-04-26T09:46:45.011Z</time></trkpt><trkpt lat="44.6482617" lon="9.50853"><ele>636.0</ele><time>2026-04-26T09:46:46.012Z</time></trkpt><trkpt lat="44.64837" lon="9.5085967"><ele>636.0</ele><time>2026-04-26T09:46:47.012Z</time></trkpt><trkpt lat="44.6484617" lon="9.50876"><ele>631.75</ele><time>2026-04-26T09:46:48.011Z</time></trkpt><trkpt lat="44.6485517" lon="9.5089067"><ele>627.5</ele><time>2026-04-26T09:46:49.011Z</time></trkpt><trkpt lat="44.6486533" lon="9.5090483"><ele>623.25</ele><time>2026-04-26T09:46:50.012Z</time></trkpt><trkpt lat="44.6487467" lon="9.5092067"><ele>619.0</ele><time>2026-04-26T09:46:51.012Z</time></trkpt><trkpt lat="44.6488333" lon="9.5093917"><ele>621.6666666666667</ele><time>2026-04-26T09:46:52.012Z</time></trkpt><trkpt lat="44.6489167" lon="9.5095833"><ele>624.3333333333334</ele><time>2026-04-26T09:46:53.012Z</time></trkpt><trkpt lat="44.6490017" lon="9.5097817"><ele>627.0</ele><time>2026-04-26T09:46:54.011Z</time></trkpt><trkpt lat="44.6490633" lon="9.5099867"><ele>627.0</ele><time>2026-04-26T09:46:55.012Z</time></trkpt><trkpt lat="44.649125" lon="9.5102"><ele>627.0</ele><time>2026-04-26T09:46:56.012Z</time></trkpt><trkpt lat="44.6491883" lon="9.51041"><ele>627.0</ele><time>2026-04-26T09:46:57.011Z</time></trkpt><trkpt lat="44.6492233" lon="9.51062"><ele>628.5</ele><time>2026-04-26T09:46:58.012Z</time></trkpt><trkpt lat="44.6492617" lon="9.51082"><ele>630.0</ele><time>2026-04-26T09:46:59.012Z</time></trkpt><trkpt lat="44.649305" lon="9.5110083"><ele>631.5</ele><time>2026-04-26T09:47:00.012Z</time></trkpt><trkpt lat="44.649385" lon="9.511205"><ele>633.0</ele><time>2026-04-26T09:47:01.011Z</time></trkpt><trkpt lat="44.64944" lon="9.511385"><ele>634.1999999999999</ele><time>2026-04-26T09:47:02.011Z</time></trkpt><trkpt lat="44.6494767" lon="9.5115417"><ele>635.4</ele><time>2026-04-26T09:47:03.011Z</time></trkpt><trkpt lat="44.6495283" lon="9.5117233"><ele>636.5999999999999</ele><time>2026-04-26T09:47:04.011Z</time></trkpt><trkpt lat="44.649475" lon="9.5118267"><ele>637.8</ele><time>2026-04-26T09:47:05.011Z</time></trkpt><trkpt lat="44.6494567" lon="9.5119667"><ele>639.0</ele><time>2026-04-26T09:47:06.012Z</time></trkpt><trkpt lat="44.649445" lon="9.5121017"><ele>640.2</ele><time>2026-04-26T09:47:07.012Z</time></trkpt><trkpt lat="44.6494567" lon="9.5122533"><ele>641.4</ele><time>2026-04-26T09:47:08.011Z</time></trkpt><trkpt lat="44.6494683" lon="9.5123817"><ele>642.6</ele><time>2026-04-26T09:47:09.011Z</time></trkpt><trkpt lat="44.6495167" lon="9.5125117"><ele>643.8</ele><time>2026-04-26T09:47:10.011Z</time></trkpt><trkpt lat="44.64956" lon="9.51265"><ele>645.0</ele><time>2026-04-26T09:47:11.012Z</time></trkpt><trkpt lat="44.649615" lon="9.512765"><ele>640.8</ele><time>2026-04-26T09:47:12.012Z</time></trkpt><trkpt lat="44.6496667" lon="9.5128883"><ele>636.6</ele><time>2026-04-26T09:47:13.011Z</time></trkpt><trkpt lat="44.6496983" lon="9.5129983"><ele>632.4</ele><time>2026-04-26T09:47:14.012Z</time></trkpt><trkpt lat="44.6497233" lon="9.5131383"><ele>628.2</ele><time>2026-04-26T09:47:15.012Z</time></trkpt><trkpt lat="44.6497033" lon="9.5132533"><ele>624.0</ele><time>2026-04-26T09:47:16.011Z</time></trkpt><trkpt lat="44.6496967" lon="9.51338"><ele>624.0</ele><time>2026-04-26T09:47:17.012Z</time></trkpt><trkpt lat="44.6496433" lon="9.5134883"><ele>624.0</ele><time>2026-04-26T09:47:18.011Z</time></trkpt><trkpt lat="44.6496067" lon="9.5136267"><ele>624.0</ele><time>2026-04-26T09:47:19.011Z</time></trkpt><trkpt lat="44.649565" lon="9.5137617"><ele>624.0</ele><time>2026-04-26T09:47:20.011Z</time></trkpt><trkpt lat="44.649515" lon="9.5138833"><ele>624.0</ele><time>2026-04-26T09:47:21.012Z</time></trkpt><trkpt lat="44.649485" lon="9.5140133"><ele>624.0</ele><time>2026-04-26T09:47:22.011Z</time></trkpt><trkpt lat="44.6494783" lon="9.5141433"><ele>624.0</ele><time>2026-04-26T09:47:23.012Z</time></trkpt><trkpt lat="44.6494767" lon="9.514265"><ele>624.0</ele><time>2026-04-26T09:47:24.012Z</time></trkpt><trkpt lat="44.64953" lon="9.5143933"><ele>624.0</ele><time>2026-04-26T09:47:25.012Z</time></trkpt><trkpt lat="44.64958" lon="9.514485"><ele>624.0</ele><time>2026-04-26T09:47:26.012Z</time></trkpt><trkpt lat="44.6496333" lon="9.51457"><ele>624.0</ele><time>2026-04-26T09:47:27.011Z</time></trkpt><trkpt lat="44.64972" lon="9.5146283"><ele>624.4</ele><time>2026-04-26T09:47:28.012Z</time></trkpt><trkpt lat="44.6498133" lon="9.51469"><ele>624.8</ele><time>2026-04-26T09:47:29.011Z</time></trkpt><trkpt lat="44.6498933" lon="9.5147383"><ele>625.2</ele><time>2026-04-26T09:47:30.012Z</time></trkpt><trkpt lat="44.6499683" lon="9.514815"><ele>625.6</ele><time>2026-04-26T09:47:31.012Z</time></trkpt><trkpt lat="44.6500267" lon="9.5149117"><ele>626.0</ele><time>2026-04-26T09:47:32.012Z</time></trkpt><trkpt lat="44.6500533" lon="9.5150283"><ele>626.0</ele><time>2026-04-26T09:47:33.012Z</time></trkpt><trkpt lat="44.6500933" lon="9.5151683"><ele>626.0</ele><time>2026-04-26T09:47:34.012Z</time></trkpt><trkpt lat="44.6501033" lon="9.5153217"><ele>626.0</ele><time>2026-04-26T09:47:35.012Z</time></trkpt><trkpt lat="44.6500433" lon="9.5155033"><ele>626.0</ele><time>2026-04-26T09:47:36.012Z</time></trkpt><trkpt lat="44.6500083" lon="9.515675"><ele>626.25</ele><time>2026-04-26T09:47:37.011Z</time></trkpt><trkpt lat="44.6499733" lon="9.515835"><ele>626.5</ele><time>2026-04-26T09:47:38.011Z</time></trkpt><trkpt lat="44.6499417" lon="9.5159817"><ele>626.75</ele><time>2026-04-26T09:47:39.011Z</time></trkpt><trkpt lat="44.64995" lon="9.5161433"><ele>627.0</ele><time>2026-04-26T09:47:40.011Z</time></trkpt><trkpt lat="44.6499867" lon="9.5163317"><ele>627.0</ele><time>2026-04-26T09:47:41.011Z</time></trkpt><trkpt lat="44.6500417" lon="9.51654"><ele>627.0</ele><time>2026-04-26T09:47:42.012Z</time></trkpt><trkpt lat="44.6500983" lon="9.5167783"><ele>627.0</ele><time>2026-04-26T09:47:43.011Z</time></trkpt><trkpt lat="44.6501433" lon="9.5170767"><ele>628.3333333333334</ele><time>2026-04-26T09:47:44.011Z</time></trkpt><trkpt lat="44.65019" lon="9.5173183"><ele>629.6666666666667</ele><time>2026-04-26T09:47:45.011Z</time></trkpt><trkpt lat="44.650235" lon="9.5175533"><ele>631.0</ele><time>2026-04-26T09:47:46.011Z</time></trkpt><trkpt lat="44.6502917" lon="9.517825"><ele>621.0</ele><time>2026-04-26T09:47:47.011Z</time></trkpt><trkpt lat="44.6503333" lon="9.5180533"><ele>611.0</ele><time>2026-04-26T09:47:48.011Z</time></trkpt><trkpt lat="44.6503883" lon="9.5183167"><ele>601.0</ele><time>2026-04-26T09:47:49.012Z</time></trkpt><trkpt lat="44.6504" lon="9.5185617"><ele>601.3333333333334</ele><time>2026-04-26T09:47:50.012Z</time></trkpt><trkpt lat="44.6504133" lon="9.5188317"><ele>601.6666666666666</ele><time>2026-04-26T09:47:51.011Z</time></trkpt><trkpt lat="44.650435" lon="9.51912"><ele>602.0</ele><time>2026-04-26T09:47:52.011Z</time></trkpt><trkpt lat="44.6504683" lon="9.519395"><ele>602.0</ele><time>2026-04-26T09:47:53.012Z</time></trkpt><trkpt lat="44.6505133" lon="9.519655"><ele>602.0</ele><time>2026-04-26T09:47:54.011Z</time></trkpt><trkpt lat="44.650575" lon="9.519915"><ele>602.0</ele><time>2026-04-26T09:47:55.011Z</time></trkpt><trkpt lat="44.650635" lon="9.520175"><ele>604.3333333333333</ele><time>2026-04-26T09:47:56.011Z</time></trkpt><trkpt lat="44.650685" lon="9.5204183"><ele>606.6666666666666</ele><time>2026-04-26T09:47:57.011Z</time></trkpt><trkpt lat="44.6507417" lon="9.5206467"><ele>609.0</ele><time>2026-04-26T09:47:58.011Z</time></trkpt><trkpt lat="44.6508167" lon="9.5208867"><ele>609.0</ele><time>2026-04-26T09:47:59.011Z</time></trkpt><trkpt lat="44.6508933" lon="9.5211083"><ele>609.0</ele><time>2026-04-26T09:48:00.011Z</time></trkpt><trkpt lat="44.6509933" lon="9.5213283"><ele>609.0</ele><time>2026-04-26T09:48:01.012Z</time></trkpt><trkpt lat="44.6510833" lon="9.52154"><ele>599.0</ele><time>2026-04-26T09:48:02.011Z</time></trkpt><trkpt lat="44.6511633" lon="9.5217533"><ele>589.0</ele><time>2026-04-26T09:48:03.011Z</time></trkpt><trkpt lat="44.6512317" lon="9.5219667"><ele>579.0</ele><time>2026-04-26T09:48:04.012Z</time></trkpt><trkpt lat="44.6512833" lon="9.522185"><ele>579.0</ele><time>2026-04-26T09:48:05.011Z</time></trkpt><trkpt lat="44.65129" lon="9.5224217"><ele>579.0</ele><time>2026-04-26T09:48:06.012Z</time></trkpt><trkpt lat="44.6513033" lon="9.5226517"><ele>579.0</ele><time>2026-04-26T09:48:07.011Z</time></trkpt><trkpt lat="44.6513083" lon="9.5228883"><ele>581.3333333333334</ele><time>2026-04-26T09:48:08.011Z</time></trkpt><trkpt lat="44.6513367" lon="9.5231417"><ele>583.6666666666667</ele><time>2026-04-26T09:48:09.011Z</time></trkpt><trkpt lat="44.6513783" lon="9.5234"><ele>586.0</ele><time>2026-04-26T09:48:10.012Z</time></trkpt><trkpt lat="44.6514217" lon="9.5236433"><ele>589.3333333333334</ele><time>2026-04-26T09:48:11.012Z</time></trkpt><trkpt lat="44.6515017" lon="9.5238817"><ele>592.6666666666666</ele><time>2026-04-26T09:48:12.012Z</time></trkpt><trkpt lat="44.6515367" lon="9.5240767"><ele>596.0</ele><time>2026-04-26T09:48:13.011Z</time></trkpt><trkpt lat="44.651575" lon="9.5242917"><ele>596.0</ele><time>2026-04-26T09:48:14.012Z</time></trkpt><trkpt lat="44.6516067" lon="9.5244917"><ele>596.0</ele><time>2026-04-26T09:48:15.012Z</time></trkpt><trkpt lat="44.6516367" lon="9.524685"><ele>596.0</ele><time>2026-04-26T09:48:16.011Z</time></trkpt><trkpt lat="44.651705" lon="9.5248683"><ele>596.0</ele><time>2026-04-26T09:48:17.012Z</time></trkpt><trkpt lat="44.6517617" lon="9.5250383"><ele>596.0</ele><time>2026-04-26T09:48:18.011Z</time></trkpt><trkpt lat="44.6518367" lon="9.52516"><ele>596.0</ele><time>2026-04-26T09:48:19.011Z</time></trkpt><trkpt lat="44.6519583" lon="9.5252017"><ele>596.0</ele><time>2026-04-26T09:48:20.012Z</time></trkpt><trkpt lat="44.65205" lon="9.525295"><ele>596.0</ele><time>2026-04-26T09:48:21.012Z</time></trkpt><trkpt lat="44.6521383" lon="9.5254117"><ele>596.0</ele><time>2026-04-26T09:48:22.012Z</time></trkpt><trkpt lat="44.6522567" lon="9.52555"><ele>596.0</ele><time>2026-04-26T09:48:23.012Z</time></trkpt><trkpt lat="44.652345" lon="9.5257533"><ele>596.0</ele><time>2026-04-26T09:48:24.012Z</time></trkpt><trkpt lat="44.6524783" lon="9.5259167"><ele>596.0</ele><time>2026-04-26T09:48:25.012Z</time></trkpt><trkpt lat="44.6526233" lon="9.5260933"><ele>596.0</ele><time>2026-04-26T09:48:26.011Z</time></trkpt><trkpt lat="44.6527283" lon="9.52626"><ele>596.0</ele><time>2026-04-26T09:48:27.011Z</time></trkpt><trkpt lat="44.6528283" lon="9.52641"><ele>590.5</ele><time>2026-04-26T09:48:28.011Z</time></trkpt><trkpt lat="44.6529283" lon="9.52657"><ele>585.0</ele><time>2026-04-26T09:48:29.011Z</time></trkpt><trkpt lat="44.6529767" lon="9.52674"><ele>579.5</ele><time>2026-04-26T09:48:30.011Z</time></trkpt><trkpt lat="44.6530083" lon="9.5269233"><ele>574.0</ele><time>2026-04-26T09:48:31.011Z</time></trkpt><trkpt lat="44.6530383" lon="9.5271133"><ele>574.0</ele><time>2026-04-26T09:48:32.011Z</time></trkpt><trkpt lat="44.6528683" lon="9.5272483"><ele>574.0</ele><time>2026-04-26T09:48:33.012Z</time></trkpt><trkpt lat="44.6527633" lon="9.52741"><ele>574.0</ele><time>2026-04-26T09:48:34.012Z</time></trkpt><trkpt lat="44.65271" lon="9.5275717"><ele>579.25</ele><time>2026-04-26T09:48:35.011Z</time></trkpt><trkpt lat="44.6526683" lon="9.52774"><ele>584.5</ele><time>2026-04-26T09:48:36.012Z</time></trkpt><trkpt lat="44.6526717" lon="9.5279233"><ele>589.75</ele><time>2026-04-26T09:48:37.011Z</time></trkpt><trkpt lat="44.6526983" lon="9.52812"><ele>595.0</ele><time>2026-04-26T09:48:38.011Z</time></trkpt><trkpt lat="44.6527617" lon="9.5283283"><ele>591.3333333333334</ele><time>2026-04-26T09:48:39.011Z</time></trkpt><trkpt lat="44.6528417" lon="9.528565"><ele>587.6666666666666</ele><time>2026-04-26T09:48:40.012Z</time></trkpt><trkpt lat="44.6529167" lon="9.5287783"><ele>584.0</ele><time>2026-04-26T09:48:41.012Z</time></trkpt><trkpt lat="44.6531367" lon="9.528965"><ele>584.0</ele><time>2026-04-26T09:48:42.011Z</time></trkpt><trkpt lat="44.6532483" lon="9.5291433"><ele>584.0</ele><time>2026-04-26T09:48:43.011Z</time></trkpt><trkpt lat="44.6533917" lon="9.5293033"><ele>584.0</ele><time>2026-04-26T09:48:44.012Z</time></trkpt><trkpt lat="44.6535517" lon="9.5294517"><ele>581.6666666666666</ele><time>2026-04-26T09:48:45.011Z</time></trkpt><trkpt lat="44.6537017" lon="9.5295783"><ele>579.3333333333334</ele><time>2026-04-26T09:48:46.012Z</time></trkpt><trkpt lat="44.6538067" lon="9.5297517"><ele>577.0</ele><time>2026-04-26T09:48:47.012Z</time></trkpt><trkpt lat="44.653905" lon="9.529925"><ele>577.0</ele><time>2026-04-26T09:48:48.011Z</time></trkpt><trkpt lat="44.6539567" lon="9.5301167"><ele>577.0</ele><time>2026-04-26T09:48:49.011Z</time></trkpt><trkpt lat="44.6539417" lon="9.530345"><ele>577.0</ele><time>2026-04-26T09:48:50.011Z</time></trkpt><trkpt lat="44.65393" lon="9.53059"><ele>576.6666666666667</ele><time>2026-04-26T09:48:51.011Z</time></trkpt><trkpt lat="44.6539383" lon="9.5308333"><ele>576.3333333333334</ele><time>2026-04-26T09:48:52.011Z</time></trkpt><trkpt lat="44.6539317" lon="9.53108"><ele>576.0</ele><time>2026-04-26T09:48:53.011Z</time></trkpt><trkpt lat="44.6539783" lon="9.5313367"><ele>575.6666666666666</ele><time>2026-04-26T09:48:54.011Z</time></trkpt><trkpt lat="44.6540167" lon="9.5316083"><ele>575.3333333333333</ele><time>2026-04-26T09:48:55.011Z</time></trkpt><trkpt lat="44.654055" lon="9.5318767"><ele>575.0</ele><time>2026-04-26T09:48:56.011Z</time></trkpt><trkpt lat="44.6540967" lon="9.5321517"><ele>575.0</ele><time>2026-04-26T09:48:57.011Z</time></trkpt><trkpt lat="44.6541767" lon="9.532425"><ele>575.0</ele><time>2026-04-26T09:48:58.012Z</time></trkpt><trkpt lat="44.6542583" lon="9.5327017"><ele>575.0</ele><time>2026-04-26T09:48:59.012Z</time></trkpt><trkpt lat="44.6543533" lon="9.5329633"><ele>574.3333333333333</ele><time>2026-04-26T09:49:00.011Z</time></trkpt><trkpt lat="44.65445" lon="9.5332183"><ele>573.6666666666666</ele><time>2026-04-26T09:49:01.011Z</time></trkpt><trkpt lat="44.6545567" lon="9.5334367"><ele>573.0</ele><time>2026-04-26T09:49:02.012Z</time></trkpt><trkpt lat="44.6547833" lon="9.5334367"><ele>573.0</ele><time>2026-04-26T09:49:03.011Z</time></trkpt><trkpt lat="44.6549383" lon="9.5335367"><ele>573.0</ele><time>2026-04-26T09:49:04.012Z</time></trkpt><trkpt lat="44.6550883" lon="9.533645"><ele>573.0</ele><time>2026-04-26T09:49:05.012Z</time></trkpt><trkpt lat="44.6551867" lon="9.5337617"><ele>568.25</ele><time>2026-04-26T09:49:06.011Z</time></trkpt><trkpt lat="44.6552983" lon="9.5339083"><ele>563.5</ele><time>2026-04-26T09:49:07.012Z</time></trkpt><trkpt lat="44.6553917" lon="9.5340433"><ele>558.75</ele><time>2026-04-26T09:49:08.011Z</time></trkpt><trkpt lat="44.6554533" lon="9.53421"><ele>554.0</ele><time>2026-04-26T09:49:09.01Z</time></trkpt><trkpt lat="44.6554617" lon="9.5343967"><ele>555.6666666666666</ele><time>2026-04-26T09:49:10.011Z</time></trkpt><trkpt lat="44.65545" lon="9.5345933"><ele>557.3333333333334</ele><time>2026-04-26T09:49:11.01Z</time></trkpt><trkpt lat="44.655345" lon="9.5348917"><ele>559.0</ele><time>2026-04-26T09:49:12.011Z</time></trkpt><trkpt lat="44.655285" lon="9.5351683"><ele>562.3333333333334</ele><time>2026-04-26T09:49:13.011Z</time></trkpt><trkpt lat="44.6552733" lon="9.5354033"><ele>565.6666666666666</ele><time>2026-04-26T09:49:14.011Z</time></trkpt><trkpt lat="44.655305" lon="9.5356283"><ele>569.0</ele><time>2026-04-26T09:49:15.011Z</time></trkpt><trkpt lat="44.6554333" lon="9.5358133"><ele>569.0</ele><time>2026-04-26T09:49:16.011Z</time></trkpt><trkpt lat="44.655545" lon="9.53599"><ele>569.0</ele><time>2026-04-26T09:49:17.011Z</time></trkpt><trkpt lat="44.6556517" lon="9.5361617"><ele>569.0</ele><time>2026-04-26T09:49:18.01Z</time></trkpt><trkpt lat="44.65576" lon="9.5363417"><ele>572.6666666666666</ele><time>2026-04-26T09:49:19.01Z</time></trkpt><trkpt lat="44.65585" lon="9.5365517"><ele>576.3333333333334</ele><time>2026-04-26T09:49:20.01Z</time></trkpt><trkpt lat="44.65594" lon="9.5367633"><ele>580.0</ele><time>2026-04-26T09:49:21.01Z</time></trkpt><trkpt lat="44.656045" lon="9.5369867"><ele>576.6666666666667</ele><time>2026-04-26T09:49:22.01Z</time></trkpt><trkpt lat="44.65616" lon="9.537205"><ele>573.3333333333334</ele><time>2026-04-26T09:49:23.01Z</time></trkpt><trkpt lat="44.65629" lon="9.5374333"><ele>570.0</ele><time>2026-04-26T09:49:24.011Z</time></trkpt><trkpt lat="44.65645" lon="9.537635"><ele>570.0</ele><time>2026-04-26T09:49:25.011Z</time></trkpt><trkpt lat="44.6565883" lon="9.537805"><ele>570.0</ele><time>2026-04-26T09:49:26.01Z</time></trkpt><trkpt lat="44.6567583" lon="9.5379133"><ele>570.0</ele><time>2026-04-26T09:49:27.01Z</time></trkpt><trkpt lat="44.6569267" lon="9.538"><ele>572.6666666666666</ele><time>2026-04-26T09:49:28.011Z</time></trkpt><trkpt lat="44.6570883" lon="9.538065"><ele>575.3333333333333</ele><time>2026-04-26T09:49:29.011Z</time></trkpt><trkpt lat="44.6572633" lon="9.5381083"><ele>578.0</ele><time>2026-04-26T09:49:30.011Z</time></trkpt><trkpt lat="44.6574267" lon="9.5381583"><ele>578.0</ele><time>2026-04-26T09:49:31.01Z</time></trkpt><trkpt lat="44.6575783" lon="9.538195"><ele>578.0</ele><time>2026-04-26T09:49:32.011Z</time></trkpt><trkpt lat="44.6577233" lon="9.5382667"><ele>578.0</ele><time>2026-04-26T09:49:33.01Z</time></trkpt><trkpt lat="44.6578617" lon="9.5383567"><ele>574.0</ele><time>2026-04-26T09:49:34.01Z</time></trkpt><trkpt lat="44.6579867" lon="9.5384483"><ele>570.0</ele><time>2026-04-26T09:49:35.01Z</time></trkpt><trkpt lat="44.6581" lon="9.5385567"><ele>566.0</ele><time>2026-04-26T09:49:36.01Z</time></trkpt><trkpt lat="44.65822" lon="9.5387233"><ele>562.0</ele><time>2026-04-26T09:49:37.01Z</time></trkpt><trkpt lat="44.65833" lon="9.538905"><ele>562.0</ele><time>2026-04-26T09:49:38.011Z</time></trkpt><trkpt lat="44.6584533" lon="9.539035"><ele>562.0</ele><time>2026-04-26T09:49:39.011Z</time></trkpt><trkpt lat="44.65854" lon="9.5392633"><ele>562.0</ele><time>2026-04-26T09:49:40.01Z</time></trkpt><trkpt lat="44.658595" lon="9.539505"><ele>562.3333333333334</ele><time>2026-04-26T09:49:41.01Z</time></trkpt><trkpt lat="44.658615" lon="9.5397667"><ele>562.6666666666666</ele><time>2026-04-26T09:49:42.011Z</time></trkpt><trkpt lat="44.6585367" lon="9.540035"><ele>563.0</ele><time>2026-04-26T09:49:43.01Z</time></trkpt><trkpt lat="44.6585017" lon="9.5403033"><ele>565.6666666666666</ele><time>2026-04-26T09:49:44.011Z</time></trkpt><trkpt lat="44.6585067" lon="9.5405317"><ele>568.3333333333334</ele><time>2026-04-26T09:49:45.01Z</time></trkpt><trkpt lat="44.6585167" lon="9.540755"><ele>571.0</ele><time>2026-04-26T09:49:46.01Z</time></trkpt><trkpt lat="44.6586267" lon="9.540935"><ele>569.3333333333334</ele><time>2026-04-26T09:49:47.011Z</time></trkpt><trkpt lat="44.6587567" lon="9.5410733"><ele>567.6666666666666</ele><time>2026-04-26T09:49:48.01Z</time></trkpt><trkpt lat="44.6589083" lon="9.5411783"><ele>566.0</ele><time>2026-04-26T09:49:49.01Z</time></trkpt><trkpt lat="44.6590633" lon="9.5412917"><ele>566.0</ele><time>2026-04-26T09:49:50.011Z</time></trkpt><trkpt lat="44.65926" lon="9.5413667"><ele>566.0</ele><time>2026-04-26T09:49:51.01Z</time></trkpt><trkpt lat="44.659455" lon="9.5414667"><ele>566.0</ele><time>2026-04-26T09:49:52.011Z</time></trkpt><trkpt lat="44.6596133" lon="9.5416133"><ele>561.0</ele><time>2026-04-26T09:49:53.011Z</time></trkpt><trkpt lat="44.6597833" lon="9.5417467"><ele>556.0</ele><time>2026-04-26T09:49:54.011Z</time></trkpt><trkpt lat="44.6599417" lon="9.5418933"><ele>551.0</ele><time>2026-04-26T09:49:55.01Z</time></trkpt><trkpt lat="44.6600867" lon="9.542045"><ele>549.0</ele><time>2026-04-26T09:49:56.01Z</time></trkpt><trkpt lat="44.66023" lon="9.542185"><ele>547.0</ele><time>2026-04-26T09:49:57.011Z</time></trkpt><trkpt lat="44.6603667" lon="9.5423217"><ele>545.0</ele><time>2026-04-26T09:49:58.011Z</time></trkpt><trkpt lat="44.66049" lon="9.5423933"><ele>545.0</ele><time>2026-04-26T09:49:59.011Z</time></trkpt><trkpt lat="44.660625" lon="9.5425367"><ele>545.0</ele><time>2026-04-26T09:50:00.01Z</time></trkpt><trkpt lat="44.66075" lon="9.5426833"><ele>545.0</ele><time>2026-04-26T09:50:01.011Z</time></trkpt><trkpt lat="44.6608617" lon="9.542855"><ele>545.6666666666666</ele><time>2026-04-26T09:50:02.011Z</time></trkpt><trkpt lat="44.660945" lon="9.543065"><ele>546.3333333333334</ele><time>2026-04-26T09:50:03.011Z</time></trkpt><trkpt lat="44.660985" lon="9.5433533"><ele>547.0</ele><time>2026-04-26T09:50:04.01Z</time></trkpt><trkpt lat="44.6609567" lon="9.5437117"><ele>547.0</ele><time>2026-04-26T09:50:05.011Z</time></trkpt><trkpt lat="44.6609933" lon="9.5440183"><ele>547.0</ele><time>2026-04-26T09:50:06.01Z</time></trkpt><trkpt lat="44.660985" lon="9.544395"><ele>545.5</ele><time>2026-04-26T09:50:07.01Z</time></trkpt><trkpt lat="44.6609617" lon="9.5447617"><ele>544.0</ele><time>2026-04-26T09:50:08.011Z</time></trkpt><trkpt lat="44.660945" lon="9.5451117"><ele>543.0</ele><time>2026-04-26T09:50:09.01Z</time></trkpt><trkpt lat="44.66092" lon="9.5454033"><ele>542.0</ele><time>2026-04-26T09:50:10.01Z</time></trkpt><trkpt lat="44.660905" lon="9.5457017"><ele>541.0</ele><time>2026-04-26T09:50:11.01Z</time></trkpt><trkpt lat="44.66091" lon="9.5459117"><ele>541.0</ele><time>2026-04-26T09:50:12.011Z</time></trkpt><trkpt lat="44.6609317" lon="9.5460933"><ele>541.0</ele><time>2026-04-26T09:50:13.01Z</time></trkpt><trkpt lat="44.66097" lon="9.5463267"><ele>541.0</ele><time>2026-04-26T09:50:14.01Z</time></trkpt><trkpt lat="44.6610333" lon="9.5465333"><ele>537.3333333333334</ele><time>2026-04-26T09:50:15.01Z</time></trkpt><trkpt lat="44.6611183" lon="9.5467017"><ele>533.6666666666666</ele><time>2026-04-26T09:50:16.011Z</time></trkpt><trkpt lat="44.661295" lon="9.5467367"><ele>530.0</ele><time>2026-04-26T09:50:17.01Z</time></trkpt><trkpt lat="44.6614517" lon="9.5467583"><ele>530.0</ele><time>2026-04-26T09:50:18.01Z</time></trkpt><trkpt lat="44.6616333" lon="9.5466933"><ele>530.0</ele><time>2026-04-26T09:50:19.011Z</time></trkpt><trkpt lat="44.6618533" lon="9.54654"><ele>530.0</ele><time>2026-04-26T09:50:20.011Z</time></trkpt><trkpt lat="44.6620383" lon="9.5464683"><ele>528.0</ele><time>2026-04-26T09:50:21.01Z</time></trkpt><trkpt lat="44.662225" lon="9.5464"><ele>526.0</ele><time>2026-04-26T09:50:22.011Z</time></trkpt><trkpt lat="44.6623933" lon="9.5463517"><ele>524.0</ele><time>2026-04-26T09:50:23.01Z</time></trkpt><trkpt lat="44.6625483" lon="9.5462917"><ele>524.0</ele><time>2026-04-26T09:50:24.01Z</time></trkpt><trkpt lat="44.6627017" lon="9.5462317"><ele>524.0</ele><time>2026-04-26T09:50:25.011Z</time></trkpt><trkpt lat="44.6628417" lon="9.5461867"><ele>524.0</ele><time>2026-04-26T09:50:26.01Z</time></trkpt><trkpt lat="44.6629867" lon="9.5461517"><ele>527.5</ele><time>2026-04-26T09:50:27.011Z</time></trkpt><trkpt lat="44.663115" lon="9.5461333"><ele>531.0</ele><time>2026-04-26T09:50:28.011Z</time></trkpt><trkpt lat="44.6632417" lon="9.5461417"><ele>534.5</ele><time>2026-04-26T09:50:29.011Z</time></trkpt><trkpt lat="44.6633483" lon="9.5461833"><ele>538.0</ele><time>2026-04-26T09:50:30.01Z</time></trkpt><trkpt lat="44.66341" lon="9.5462883"><ele>538.0</ele><time>2026-04-26T09:50:31.01Z</time></trkpt><trkpt lat="44.663435" lon="9.5464683"><ele>538.0</ele><time>2026-04-26T09:50:32.01Z</time></trkpt><trkpt lat="44.6634417" lon="9.5466433"><ele>538.0</ele><time>2026-04-26T09:50:33.01Z</time></trkpt><trkpt lat="44.6634117" lon="9.5468117"><ele>538.0</ele><time>2026-04-26T09:50:34.01Z</time></trkpt><trkpt lat="44.6633533" lon="9.5470033"><ele>538.3333333333334</ele><time>2026-04-26T09:50:35.011Z</time></trkpt><trkpt lat="44.663295" lon="9.5471967"><ele>538.6666666666666</ele><time>2026-04-26T09:50:36.01Z</time></trkpt><trkpt lat="44.6632533" lon="9.5473917"><ele>539.0</ele><time>2026-04-26T09:50:37.01Z</time></trkpt><trkpt lat="44.6633233" lon="9.5476017"><ele>539.0</ele><time>2026-04-26T09:50:38.01Z</time></trkpt><trkpt lat="44.6633917" lon="9.5478217"><ele>539.0</ele><time>2026-04-26T09:50:39.01Z</time></trkpt><trkpt lat="44.6634883" lon="9.54803"><ele>539.0</ele><time>2026-04-26T09:50:40.01Z</time></trkpt><trkpt lat="44.6635917" lon="9.5482733"><ele>542.3333333333333</ele><time>2026-04-26T09:50:41.01Z</time></trkpt><trkpt lat="44.6637083" lon="9.5485117"><ele>545.6666666666666</ele><time>2026-04-26T09:50:42.01Z</time></trkpt><trkpt lat="44.6638217" lon="9.548745"><ele>549.0</ele><time>2026-04-26T09:50:43.011Z</time></trkpt><trkpt lat="44.6639333" lon="9.54898"><ele>549.0</ele><time>2026-04-26T09:50:44.01Z</time></trkpt><trkpt lat="44.6640333" lon="9.5492233"><ele>549.0</ele><time>2026-04-26T09:50:45.01Z</time></trkpt><trkpt lat="44.6641133" lon="9.5494917"><ele>549.0</ele><time>2026-04-26T09:50:46.011Z</time></trkpt><trkpt lat="44.664205" lon="9.5497633"><ele>548.0</ele><time>2026-04-26T09:50:47.011Z</time></trkpt><trkpt lat="44.6643033" lon="9.5500133"><ele>547.0</ele><time>2026-04-26T09:50:48.01Z</time></trkpt><trkpt lat="44.664405" lon="9.5502717"><ele>546.0</ele><time>2026-04-26T09:50:49.011Z</time></trkpt><trkpt lat="44.66451" lon="9.5505183"><ele>546.0</ele><time>2026-04-26T09:50:50.011Z</time></trkpt><trkpt lat="44.6645933" lon="9.5507467"><ele>546.0</ele><time>2026-04-26T09:50:51.01Z</time></trkpt><trkpt lat="44.664675" lon="9.5509633"><ele>546.0</ele><time>2026-04-26T09:50:52.01Z</time></trkpt><trkpt lat="44.664755" lon="9.5511583"><ele>545.5</ele><time>2026-04-26T09:50:53.011Z</time></trkpt><trkpt lat="44.66483" lon="9.5513783"><ele>545.0</ele><time>2026-04-26T09:50:54.01Z</time></trkpt><trkpt lat="44.6648767" lon="9.55156"><ele>544.5</ele><time>2026-04-26T09:50:55.011Z</time></trkpt><trkpt lat="44.6649167" lon="9.551725"><ele>544.0</ele><time>2026-04-26T09:50:56.01Z</time></trkpt><trkpt lat="44.6649317" lon="9.5519017"><ele>544.0</ele><time>2026-04-26T09:50:57.011Z</time></trkpt><trkpt lat="44.6649017" lon="9.55208"><ele>544.0</ele><time>2026-04-26T09:50:58.01Z</time></trkpt><trkpt lat="44.6648733" lon="9.5523017"><ele>544.0</ele><time>2026-04-26T09:50:59.011Z</time></trkpt><trkpt lat="44.6648283" lon="9.5525583"><ele>544.0</ele><time>2026-04-26T09:51:00.01Z</time></trkpt><trkpt lat="44.66476" lon="9.5527883"><ele>544.0</ele><time>2026-04-26T09:51:01.011Z</time></trkpt><trkpt lat="44.6647617" lon="9.5530083"><ele>544.0</ele><time>2026-04-26T09:51:02.011Z</time></trkpt><trkpt lat="44.6648117" lon="9.5532283"><ele>543.3333333333334</ele><time>2026-04-26T09:51:03.011Z</time></trkpt><trkpt lat="44.6648633" lon="9.55345"><ele>542.6666666666666</ele><time>2026-04-26T09:51:04.01Z</time></trkpt><trkpt lat="44.6649183" lon="9.553675"><ele>542.0</ele><time>2026-04-26T09:51:05.011Z</time></trkpt><trkpt lat="44.6649883" lon="9.5539217"><ele>539.6666666666666</ele><time>2026-04-26T09:51:06.011Z</time></trkpt><trkpt lat="44.6650667" lon="9.554175"><ele>537.3333333333334</ele><time>2026-04-26T09:51:07.01Z</time></trkpt><trkpt lat="44.665115" lon="9.5544167"><ele>535.0</ele><time>2026-04-26T09:51:08.01Z</time></trkpt><trkpt lat="44.66517" lon="9.5546633"><ele>530.6666666666667</ele><time>2026-04-26T09:51:09.011Z</time></trkpt><trkpt lat="44.6652217" lon="9.554915"><ele>526.3333333333334</ele><time>2026-04-26T09:51:10.011Z</time></trkpt><trkpt lat="44.6652833" lon="9.5551733"><ele>522.0</ele><time>2026-04-26T09:51:11.01Z</time></trkpt><trkpt lat="44.6653583" lon="9.55544"><ele>526.3333333333334</ele><time>2026-04-26T09:51:12.01Z</time></trkpt><trkpt lat="44.665435" lon="9.5557067"><ele>530.6666666666667</ele><time>2026-04-26T09:51:13.011Z</time></trkpt><trkpt lat="44.6654967" lon="9.5559683"><ele>535.0</ele><time>2026-04-26T09:51:14.011Z</time></trkpt><trkpt lat="44.66556" lon="9.5562433"><ele>535.0</ele><time>2026-04-26T09:51:15.011Z</time></trkpt><trkpt lat="44.6656083" lon="9.5565117"><ele>535.0</ele><time>2026-04-26T09:51:16.011Z</time></trkpt><trkpt lat="44.6656483" lon="9.5567933"><ele>535.0</ele><time>2026-04-26T09:51:17.011Z</time></trkpt><trkpt lat="44.66568" lon="9.55707"><ele>531.6666666666667</ele><time>2026-04-26T09:51:18.01Z</time></trkpt><trkpt lat="44.665715" lon="9.5573467"><ele>528.3333333333334</ele><time>2026-04-26T09:51:19.01Z</time></trkpt><trkpt lat="44.665755" lon="9.5576267"><ele>525.0</ele><time>2026-04-26T09:51:20.011Z</time></trkpt><trkpt lat="44.6658017" lon="9.5579033"><ele>523.3333333333334</ele><time>2026-04-26T09:51:21.01Z</time></trkpt><trkpt lat="44.66587" lon="9.5581633"><ele>521.6666666666667</ele><time>2026-04-26T09:51:22.011Z</time></trkpt><trkpt lat="44.6659383" lon="9.5584133"><ele>520.0</ele><time>2026-04-26T09:51:23.011Z</time></trkpt><trkpt lat="44.66601" lon="9.5586617"><ele>518.6666666666667</ele><time>2026-04-26T09:51:24.011Z</time></trkpt><trkpt lat="44.6660733" lon="9.55889"><ele>517.3333333333334</ele><time>2026-04-26T09:51:25.011Z</time></trkpt><trkpt lat="44.6661367" lon="9.5591033"><ele>516.0</ele><time>2026-04-26T09:51:26.01Z</time></trkpt><trkpt lat="44.6661967" lon="9.559305"><ele>520.0</ele><time>2026-04-26T09:51:27.01Z</time></trkpt><trkpt lat="44.6662533" lon="9.5595017"><ele>524.0</ele><time>2026-04-26T09:51:28.011Z</time></trkpt><trkpt lat="44.6662933" lon="9.5596817"><ele>528.0</ele><time>2026-04-26T09:51:29.01Z</time></trkpt><trkpt lat="44.6663433" lon="9.559855"><ele>532.0</ele><time>2026-04-26T09:51:30.01Z</time></trkpt><trkpt lat="44.66637" lon="9.5600083"><ele>532.0</ele><time>2026-04-26T09:51:31.01Z</time></trkpt><trkpt lat="44.666375" lon="9.5601633"><ele>532.0</ele><time>2026-04-26T09:51:32.011Z</time></trkpt><trkpt lat="44.6663683" lon="9.5603367"><ele>532.0</ele><time>2026-04-26T09:51:33.01Z</time></trkpt><trkpt lat="44.6662883" lon="9.560515"><ele>532.0</ele><time>2026-04-26T09:51:34.01Z</time></trkpt><trkpt lat="44.6662267" lon="9.5606817"><ele>532.2</ele><time>2026-04-26T09:51:35.011Z</time></trkpt><trkpt lat="44.6661667" lon="9.5608433"><ele>532.4000000000001</ele><time>2026-04-26T09:51:36.011Z</time></trkpt><trkpt lat="44.6661217" lon="9.5609517"><ele>532.5999999999999</ele><time>2026-04-26T09:51:37.011Z</time></trkpt><trkpt lat="44.66609" lon="9.56103"><ele>532.8</ele><time>2026-04-26T09:51:38.011Z</time></trkpt><trkpt lat="44.6660517" lon="9.561145"><ele>533.0</ele><time>2026-04-26T09:51:39.01Z</time></trkpt><trkpt lat="44.6660333" lon="9.5612667"><ele>531.0</ele><time>2026-04-26T09:51:40.011Z</time></trkpt><trkpt lat="44.666035" lon="9.56138"><ele>529.0</ele><time>2026-04-26T09:51:41.011Z</time></trkpt><trkpt lat="44.666075" lon="9.561495"><ele>527.0</ele><time>2026-04-26T09:51:42.01Z</time></trkpt><trkpt lat="44.6661067" lon="9.561615"><ele>525.0</ele><time>2026-04-26T09:51:43.011Z</time></trkpt><trkpt lat="44.6662217" lon="9.5617033"><ele>523.0</ele><time>2026-04-26T09:51:44.011Z</time></trkpt><trkpt lat="44.66629" lon="9.5617817"><ele>523.0</ele><time>2026-04-26T09:51:45.01Z</time></trkpt><trkpt lat="44.6663533" lon="9.5618617"><ele>523.0</ele><time>2026-04-26T09:51:46.01Z</time></trkpt><trkpt lat="44.6664183" lon="9.5619317"><ele>523.0</ele><time>2026-04-26T09:51:47.01Z</time></trkpt><trkpt lat="44.6665117" lon="9.56199"><ele>523.0</ele><time>2026-04-26T09:51:48.011Z</time></trkpt><trkpt lat="44.6666217" lon="9.5620417"><ele>523.0</ele><time>2026-04-26T09:51:49.01Z</time></trkpt><trkpt lat="44.666715" lon="9.5621"><ele>524.5</ele><time>2026-04-26T09:51:50.011Z</time></trkpt><trkpt lat="44.666815" lon="9.562165"><ele>526.0</ele><time>2026-04-26T09:51:51.011Z</time></trkpt><trkpt lat="44.6669267" lon="9.5622633"><ele>527.5</ele><time>2026-04-26T09:51:52.011Z</time></trkpt><trkpt lat="44.6670183" lon="9.5623517"><ele>529.0</ele><time>2026-04-26T09:51:53.011Z</time></trkpt><trkpt lat="44.6670967" lon="9.5624633"><ele>529.0</ele><time>2026-04-26T09:51:54.01Z</time></trkpt><trkpt lat="44.6671683" lon="9.5625883"><ele>529.0</ele><time>2026-04-26T09:51:55.011Z</time></trkpt><trkpt lat="44.66722" lon="9.5627183"><ele>529.0</ele><time>2026-04-26T09:51:56.011Z</time></trkpt><trkpt lat="44.6672767" lon="9.5628567"><ele>529.0</ele><time>2026-04-26T09:51:57.011Z</time></trkpt><trkpt lat="44.667325" lon="9.5630033"><ele>529.0</ele><time>2026-04-26T09:51:58.01Z</time></trkpt><trkpt lat="44.66737" lon="9.5631283"><ele>526.75</ele><time>2026-04-26T09:51:59.011Z</time></trkpt><trkpt lat="44.6674167" lon="9.5632733"><ele>524.5</ele><time>2026-04-26T09:52:00.011Z</time></trkpt><trkpt lat="44.6674417" lon="9.5634233"><ele>522.25</ele><time>2026-04-26T09:52:01.01Z</time></trkpt><trkpt lat="44.6674717" lon="9.563605"><ele>520.0</ele><time>2026-04-26T09:52:02.011Z</time></trkpt><trkpt lat="44.6675" lon="9.5638033"><ele>518.0</ele><time>2026-04-26T09:52:03.01Z</time></trkpt><trkpt lat="44.667545" lon="9.5640167"><ele>516.0</ele><time>2026-04-26T09:52:04.01Z</time></trkpt><trkpt lat="44.66759" lon="9.5642117"><ele>514.0</ele><time>2026-04-26T09:52:05.011Z</time></trkpt><trkpt lat="44.667635" lon="9.56439"><ele>512.0</ele><time>2026-04-26T09:52:06.011Z</time></trkpt><trkpt lat="44.667685" lon="9.5645717"><ele>513.0</ele><time>2026-04-26T09:52:07.01Z</time></trkpt><trkpt lat="44.667745" lon="9.5647467"><ele>514.0</ele><time>2026-04-26T09:52:08.01Z</time></trkpt><trkpt lat="44.6678083" lon="9.5649217"><ele>515.0</ele><time>2026-04-26T09:52:09.01Z</time></trkpt><trkpt lat="44.6678983" lon="9.5650733"><ele>516.0</ele><time>2026-04-26T09:52:10.01Z</time></trkpt><trkpt lat="44.6679917" lon="9.5651767"><ele>516.0</ele><time>2026-04-26T09:52:11.01Z</time></trkpt><trkpt lat="44.6680917" lon="9.5652683"><ele>516.0</ele><time>2026-04-26T09:52:12.011Z</time></trkpt><trkpt lat="44.6682" lon="9.5653733"><ele>516.0</ele><time>2026-04-26T09:52:13.01Z</time></trkpt><trkpt lat="44.668315" lon="9.565445"><ele>516.0</ele><time>2026-04-26T09:52:14.011Z</time></trkpt><trkpt lat="44.6684133" lon="9.5655517"><ele>514.0</ele><time>2026-04-26T09:52:15.011Z</time></trkpt><trkpt lat="44.6685167" lon="9.5656667"><ele>512.0</ele><time>2026-04-26T09:52:16.01Z</time></trkpt><trkpt lat="44.6686083" lon="9.565775"><ele>510.0</ele><time>2026-04-26T09:52:17.01Z</time></trkpt><trkpt lat="44.6686967" lon="9.5658833"><ele>508.0</ele><time>2026-04-26T09:52:18.011Z</time></trkpt><trkpt lat="44.6687833" lon="9.5659983"><ele>510.0</ele><time>2026-04-26T09:52:19.011Z</time></trkpt><trkpt lat="44.6688633" lon="9.5661367"><ele>512.0</ele><time>2026-04-26T09:52:20.01Z</time></trkpt><trkpt lat="44.66892" lon="9.566275"><ele>514.0</ele><time>2026-04-26T09:52:21.011Z</time></trkpt><trkpt lat="44.668965" lon="9.56642"><ele>516.0</ele><time>2026-04-26T09:52:22.01Z</time></trkpt><trkpt lat="44.669025" lon="9.56657"><ele>516.0</ele><time>2026-04-26T09:52:23.01Z</time></trkpt><trkpt lat="44.66908" lon="9.5667017"><ele>516.0</ele><time>2026-04-26T09:52:24.01Z</time></trkpt><trkpt lat="44.66913" lon="9.5668183"><ele>516.0</ele><time>2026-04-26T09:52:25.011Z</time></trkpt><trkpt lat="44.66918" lon="9.5669317"><ele>516.0</ele><time>2026-04-26T09:52:26.011Z</time></trkpt><trkpt lat="44.6692533" lon="9.5670233"><ele>516.0</ele><time>2026-04-26T09:52:27.011Z</time></trkpt><trkpt lat="44.6693783" lon="9.5670683"><ele>511.66666666666663</ele><time>2026-04-26T09:52:28.01Z</time></trkpt><trkpt lat="44.66955" lon="9.567075"><ele>507.3333333333333</ele><time>2026-04-26T09:52:29.01Z</time></trkpt><trkpt lat="44.6697283" lon="9.5671267"><ele>503.0</ele><time>2026-04-26T09:52:30.01Z</time></trkpt><trkpt lat="44.6699217" lon="9.5672017"><ele>503.0</ele><time>2026-04-26T09:52:31.01Z</time></trkpt><trkpt lat="44.6701133" lon="9.5673117"><ele>503.0</ele><time>2026-04-26T09:52:32.01Z</time></trkpt><trkpt lat="44.6702917" lon="9.5674317"><ele>503.0</ele><time>2026-04-26T09:52:33.011Z</time></trkpt><trkpt lat="44.670455" lon="9.5675083"><ele>503.66666666666663</ele><time>2026-04-26T09:52:34.01Z</time></trkpt><trkpt lat="44.6706317" lon="9.5675333"><ele>504.33333333333337</ele><time>2026-04-26T09:52:35.011Z</time></trkpt><trkpt lat="44.6708" lon="9.5675267"><ele>505.0</ele><time>2026-04-26T09:52:36.01Z</time></trkpt><trkpt lat="44.670955" lon="9.56753"><ele>506.33333333333337</ele><time>2026-04-26T09:52:37.011Z</time></trkpt><trkpt lat="44.671125" lon="9.5675733"><ele>507.66666666666663</ele><time>2026-04-26T09:52:38.01Z</time></trkpt><trkpt lat="44.6713067" lon="9.5676783"><ele>509.0</ele><time>2026-04-26T09:52:39.01Z</time></trkpt><trkpt lat="44.6715383" lon="9.5678433"><ele>506.3333333333333</ele><time>2026-04-26T09:52:40.011Z</time></trkpt><trkpt lat="44.671725" lon="9.5680167"><ele>503.66666666666663</ele><time>2026-04-26T09:52:41.011Z</time></trkpt><trkpt lat="44.6718983" lon="9.5681333"><ele>501.0</ele><time>2026-04-26T09:52:42.011Z</time></trkpt><trkpt lat="44.6720717" lon="9.5682317"><ele>501.0</ele><time>2026-04-26T09:52:43.01Z</time></trkpt><trkpt lat="44.672285" lon="9.5682983"><ele>501.0</ele><time>2026-04-26T09:52:44.011Z</time></trkpt><trkpt lat="44.67248" lon="9.5683617"><ele>501.0</ele><time>2026-04-26T09:52:45.01Z</time></trkpt><trkpt lat="44.6727333" lon="9.5683317"><ele>495.5</ele><time>2026-04-26T09:52:46.01Z</time></trkpt><trkpt lat="44.6729583" lon="9.5682383"><ele>490.0</ele><time>2026-04-26T09:52:47.01Z</time></trkpt><trkpt lat="44.6731817" lon="9.5681917"><ele>490.0</ele><time>2026-04-26T09:52:48.011Z</time></trkpt><trkpt lat="44.6733983" lon="9.56813"><ele>490.0</ele><time>2026-04-26T09:52:49.01Z</time></trkpt><trkpt lat="44.673595" lon="9.5680517"><ele>490.0</ele><time>2026-04-26T09:52:50.01Z</time></trkpt><trkpt lat="44.67376" lon="9.5679483"><ele>491.6666666666667</ele><time>2026-04-26T09:52:51.01Z</time></trkpt><trkpt lat="44.673905" lon="9.5677983"><ele>493.33333333333337</ele><time>2026-04-26T09:52:52.01Z</time></trkpt><trkpt lat="44.6740883" lon="9.5676117"><ele>495.0</ele><time>2026-04-26T09:52:53.01Z</time></trkpt><trkpt lat="44.6742867" lon="9.567455"><ele>489.5</ele><time>2026-04-26T09:52:54.011Z</time></trkpt><trkpt lat="44.6744983" lon="9.5673217"><ele>484.0</ele><time>2026-04-26T09:52:55.011Z</time></trkpt><trkpt lat="44.67473" lon="9.5671867"><ele>484.0</ele><time>2026-04-26T09:52:56.01Z</time></trkpt><trkpt lat="44.674965" lon="9.5670833"><ele>484.0</ele><time>2026-04-26T09:52:57.01Z</time></trkpt><trkpt lat="44.6751933" lon="9.5669883"><ele>486.33333333333337</ele><time>2026-04-26T09:52:58.01Z</time></trkpt><trkpt lat="44.6754083" lon="9.5669083"><ele>488.66666666666663</ele><time>2026-04-26T09:52:59.011Z</time></trkpt><trkpt lat="44.6755967" lon="9.56685"><ele>491.0</ele><time>2026-04-26T09:53:00.011Z</time></trkpt><trkpt lat="44.6757717" lon="9.5668183"><ele>491.0</ele><time>2026-04-26T09:53:01.01Z</time></trkpt><trkpt lat="44.6759483" lon="9.5668"><ele>491.0</ele><time>2026-04-26T09:53:02.01Z</time></trkpt><trkpt lat="44.6761167" lon="9.5667983"><ele>491.0</ele><time>2026-04-26T09:53:03.01Z</time></trkpt><trkpt lat="44.6762933" lon="9.5668083"><ele>490.5</ele><time>2026-04-26T09:53:04.01Z</time></trkpt><trkpt lat="44.6764517" lon="9.56682"><ele>490.0</ele><time>2026-04-26T09:53:05.01Z</time></trkpt><trkpt lat="44.676595" lon="9.56681"><ele>489.5</ele><time>2026-04-26T09:53:06.01Z</time></trkpt><trkpt lat="44.6767367" lon="9.56679"><ele>489.0</ele><time>2026-04-26T09:53:07.011Z</time></trkpt><trkpt lat="44.67687" lon="9.566735"><ele>486.25</ele><time>2026-04-26T09:53:08.011Z</time></trkpt><trkpt lat="44.6769917" lon="9.566665"><ele>483.5</ele><time>2026-04-26T09:53:09.01Z</time></trkpt><trkpt lat="44.6770983" lon="9.5666"><ele>480.75</ele><time>2026-04-26T09:53:10.01Z</time></trkpt><trkpt lat="44.6772067" lon="9.56658"><ele>478.0</ele><time>2026-04-26T09:53:11.01Z</time></trkpt><trkpt lat="44.6773067" lon="9.5665967"><ele>478.0</ele><time>2026-04-26T09:53:12.01Z</time></trkpt><trkpt lat="44.6773933" lon="9.5666817"><ele>478.0</ele><time>2026-04-26T09:53:13.011Z</time></trkpt><trkpt lat="44.6774667" lon="9.5668167"><ele>478.0</ele><time>2026-04-26T09:53:14.01Z</time></trkpt><trkpt lat="44.6775433" lon="9.5669667"><ele>478.0</ele><time>2026-04-26T09:53:15.01Z</time></trkpt><trkpt lat="44.6775983" lon="9.56714"><ele>477.0</ele><time>2026-04-26T09:53:16.011Z</time></trkpt><trkpt lat="44.6776517" lon="9.56733"><ele>476.0</ele><time>2026-04-26T09:53:17.011Z</time></trkpt><trkpt lat="44.6777383" lon="9.56753"><ele>475.0</ele><time>2026-04-26T09:53:18.01Z</time></trkpt><trkpt lat="44.6778167" lon="9.5676967"><ele>478.0</ele><time>2026-04-26T09:53:19.011Z</time></trkpt><trkpt lat="44.6779017" lon="9.567865"><ele>481.0</ele><time>2026-04-26T09:53:20.01Z</time></trkpt><trkpt lat="44.6779833" lon="9.568025"><ele>484.0</ele><time>2026-04-26T09:53:21.011Z</time></trkpt><trkpt lat="44.6780717" lon="9.5681833"><ele>487.0</ele><time>2026-04-26T09:53:22.01Z</time></trkpt><trkpt lat="44.67815" lon="9.568325"><ele>487.0</ele><time>2026-04-26T09:53:23.01Z</time></trkpt><trkpt lat="44.678225" lon="9.56845"><ele>487.00000000000006</ele><time>2026-04-26T09:53:24.011Z</time></trkpt><trkpt lat="44.6782667" lon="9.568555"><ele>487.00000000000006</ele><time>2026-04-26T09:53:25.01Z</time></trkpt><trkpt lat="44.67825" lon="9.568655"><ele>487.0</ele><time>2026-04-26T09:53:26.01Z</time></trkpt><trkpt lat="44.6782217" lon="9.5687667"><ele>487.0</ele><time>2026-04-26T09:53:27.011Z</time></trkpt><trkpt lat="44.6781783" lon="9.568905"><ele>486.25</ele><time>2026-04-26T09:53:28.011Z</time></trkpt><trkpt lat="44.6780733" lon="9.5690217"><ele>485.5</ele><time>2026-04-26T09:53:29.01Z</time></trkpt><trkpt lat="44.6779733" lon="9.5691467"><ele>484.75</ele><time>2026-04-26T09:53:30.011Z</time></trkpt><trkpt lat="44.6778667" lon="9.5692733"><ele>484.0</ele><time>2026-04-26T09:53:31.01Z</time></trkpt><trkpt lat="44.6777483" lon="9.5694067"><ele>487.5</ele><time>2026-04-26T09:53:32.011Z</time></trkpt><trkpt lat="44.6776083" lon="9.5695267"><ele>491.0</ele><time>2026-04-26T09:53:33.01Z</time></trkpt><trkpt lat="44.6775017" lon="9.5696483"><ele>494.5</ele><time>2026-04-26T09:53:34.011Z</time></trkpt><trkpt lat="44.67741" lon="9.5697517"><ele>498.0</ele><time>2026-04-26T09:53:35.01Z</time></trkpt><trkpt lat="44.67732" lon="9.569875"><ele>498.0</ele><time>2026-04-26T09:53:36.01Z</time></trkpt><trkpt lat="44.6772633" lon="9.5700067"><ele>498.0</ele><time>2026-04-26T09:53:37.01Z</time></trkpt><trkpt lat="44.6772533" lon="9.5701733"><ele>498.0</ele><time>2026-04-26T09:53:38.011Z</time></trkpt><trkpt lat="44.6772683" lon="9.57036"><ele>498.0</ele><time>2026-04-26T09:53:39.011Z</time></trkpt><trkpt lat="44.67729" lon="9.5705717"><ele>499.75</ele><time>2026-04-26T09:53:40.011Z</time></trkpt><trkpt lat="44.67728" lon="9.5707517"><ele>501.5</ele><time>2026-04-26T09:53:41.01Z</time></trkpt><trkpt lat="44.6772417" lon="9.57092"><ele>503.25</ele><time>2026-04-26T09:53:42.01Z</time></trkpt><trkpt lat="44.6771833" lon="9.5710667"><ele>505.0</ele><time>2026-04-26T09:53:43.011Z</time></trkpt><trkpt lat="44.6771033" lon="9.57118"><ele>503.25</ele><time>2026-04-26T09:53:44.01Z</time></trkpt><trkpt lat="44.67698" lon="9.5712483"><ele>501.5</ele><time>2026-04-26T09:53:45.01Z</time></trkpt><trkpt lat="44.6768417" lon="9.57124"><ele>499.75</ele><time>2026-04-26T09:53:46.011Z</time></trkpt><trkpt lat="44.6767067" lon="9.57118"><ele>498.0</ele><time>2026-04-26T09:53:47.01Z</time></trkpt><trkpt lat="44.6765783" lon="9.5710967"><ele>498.0</ele><time>2026-04-26T09:53:48.011Z</time></trkpt><trkpt lat="44.6764517" lon="9.57095"><ele>498.0</ele><time>2026-04-26T09:53:49.01Z</time></trkpt><trkpt lat="44.6762983" lon="9.57081"><ele>498.0</ele><time>2026-04-26T09:53:50.01Z</time></trkpt><trkpt lat="44.6761483" lon="9.5707183"><ele>498.66666666666663</ele><time>2026-04-26T09:53:51.011Z</time></trkpt><trkpt lat="44.6759967" lon="9.5706717"><ele>499.3333333333333</ele><time>2026-04-26T09:53:52.011Z</time></trkpt><trkpt lat="44.6758367" lon="9.570655"><ele>500.0</ele><time>2026-04-26T09:53:53.01Z</time></trkpt><trkpt lat="44.67566" lon="9.5706783"><ele>500.0</ele><time>2026-04-26T09:53:54.011Z</time></trkpt><trkpt lat="44.6754817" lon="9.5707183"><ele>500.0</ele><time>2026-04-26T09:53:55.01Z</time></trkpt><trkpt lat="44.675315" lon="9.570745"><ele>500.0</ele><time>2026-04-26T09:53:56.011Z</time></trkpt><trkpt lat="44.6751633" lon="9.57081"><ele>501.3333333333333</ele><time>2026-04-26T09:53:57.01Z</time></trkpt><trkpt lat="44.675035" lon="9.570945"><ele>502.66666666666663</ele><time>2026-04-26T09:53:58.011Z</time></trkpt><trkpt lat="44.674935" lon="9.5711133"><ele>504.0</ele><time>2026-04-26T09:53:59.01Z</time></trkpt><trkpt lat="44.6748367" lon="9.5712967"><ele>504.0</ele><time>2026-04-26T09:54:00.011Z</time></trkpt><trkpt lat="44.6747283" lon="9.571445"><ele>504.0</ele><time>2026-04-26T09:54:01.01Z</time></trkpt><trkpt lat="44.674625" lon="9.57157"><ele>504.0</ele><time>2026-04-26T09:54:02.01Z</time></trkpt><trkpt lat="44.6745233" lon="9.571655"><ele>504.0</ele><time>2026-04-26T09:54:03.011Z</time></trkpt><trkpt lat="44.674395" lon="9.5716867"><ele>502.75</ele><time>2026-04-26T09:54:04.01Z</time></trkpt><trkpt lat="44.674275" lon="9.571745"><ele>501.5</ele><time>2026-04-26T09:54:05.01Z</time></trkpt><trkpt lat="44.6741583" lon="9.57183"><ele>500.25</ele><time>2026-04-26T09:54:06.011Z</time></trkpt><trkpt lat="44.674045" lon="9.5719567"><ele>499.0</ele><time>2026-04-26T09:54:07.011Z</time></trkpt><trkpt lat="44.6739267" lon="9.5721417"><ele>503.0</ele><time>2026-04-26T09:54:08.01Z</time></trkpt><trkpt lat="44.6738317" lon="9.5723383"><ele>507.0</ele><time>2026-04-26T09:54:09.01Z</time></trkpt><trkpt lat="44.6737617" lon="9.57255"><ele>511.0</ele><time>2026-04-26T09:54:10.01Z</time></trkpt><trkpt lat="44.6737317" lon="9.5727933"><ele>512.6666666666667</ele><time>2026-04-26T09:54:11.01Z</time></trkpt><trkpt lat="44.67371" lon="9.5730383"><ele>514.3333333333334</ele><time>2026-04-26T09:54:12.01Z</time></trkpt><trkpt lat="44.67368" lon="9.5732867"><ele>516.0</ele><time>2026-04-26T09:54:13.011Z</time></trkpt><trkpt lat="44.6736567" lon="9.573485"><ele>516.0</ele><time>2026-04-26T09:54:14.01Z</time></trkpt><trkpt lat="44.6736083" lon="9.57366"><ele>516.0</ele><time>2026-04-26T09:54:15.01Z</time></trkpt><trkpt lat="44.6735233" lon="9.5738117"><ele>516.0</ele><time>2026-04-26T09:54:16.01Z</time></trkpt><trkpt lat="44.6733833" lon="9.5739167"><ele>516.0</ele><time>2026-04-26T09:54:17.01Z</time></trkpt><trkpt lat="44.6732833" lon="9.57408"><ele>512.0</ele><time>2026-04-26T09:54:18.01Z</time></trkpt><trkpt lat="44.6731933" lon="9.5742533"><ele>508.0</ele><time>2026-04-26T09:54:19.011Z</time></trkpt><trkpt lat="44.6731133" lon="9.5744533"><ele>504.0</ele><time>2026-04-26T09:54:20.011Z</time></trkpt><trkpt lat="44.6730717" lon="9.5747017"><ele>504.0</ele><time>2026-04-26T09:54:21.01Z</time></trkpt><trkpt lat="44.6730667" lon="9.5749767"><ele>504.0</ele><time>2026-04-26T09:54:22.01Z</time></trkpt><trkpt lat="44.67309" lon="9.5752483"><ele>504.0</ele><time>2026-04-26T09:54:23.01Z</time></trkpt><trkpt lat="44.6731233" lon="9.5755033"><ele>505.33333333333337</ele><time>2026-04-26T09:54:24.011Z</time></trkpt><trkpt lat="44.67315" lon="9.5757433"><ele>506.6666666666667</ele><time>2026-04-26T09:54:25.01Z</time></trkpt><trkpt lat="44.6731617" lon="9.5759517"><ele>508.0</ele><time>2026-04-26T09:54:26.011Z</time></trkpt><trkpt lat="44.673145" lon="9.5761567"><ele>509.0</ele><time>2026-04-26T09:54:27.01Z</time></trkpt><trkpt lat="44.6731083" lon="9.576355"><ele>510.0</ele><time>2026-04-26T09:54:28.011Z</time></trkpt><trkpt lat="44.6730083" lon="9.57651"><ele>511.0</ele><time>2026-04-26T09:54:29.011Z</time></trkpt><trkpt lat="44.6729" lon="9.5766533"><ele>512.0</ele><time>2026-04-26T09:54:30.01Z</time></trkpt><trkpt lat="44.6727883" lon="9.576795"><ele>508.5</ele><time>2026-04-26T09:54:31.01Z</time></trkpt><trkpt lat="44.6726833" lon="9.576905"><ele>505.0</ele><time>2026-04-26T09:54:32.011Z</time></trkpt><trkpt lat="44.672565" lon="9.5770133"><ele>501.5</ele><time>2026-04-26T09:54:33.01Z</time></trkpt><trkpt lat="44.67244" lon="9.5770517"><ele>498.0</ele><time>2026-04-26T09:54:34.01Z</time></trkpt><trkpt lat="44.67231" lon="9.577035"><ele>497.0</ele><time>2026-04-26T09:54:35.01Z</time></trkpt><trkpt lat="44.6721817" lon="9.5769833"><ele>496.0</ele><time>2026-04-26T09:54:36.011Z</time></trkpt><trkpt lat="44.672025" lon="9.576915"><ele>495.0</ele><time>2026-04-26T09:54:37.011Z</time></trkpt><trkpt lat="44.67187" lon="9.5768617"><ele>494.66666666666663</ele><time>2026-04-26T09:54:38.011Z</time></trkpt><trkpt lat="44.6717117" lon="9.57681"><ele>494.3333333333333</ele><time>2026-04-26T09:54:39.011Z</time></trkpt><trkpt lat="44.6715617" lon="9.5767667"><ele>494.0</ele><time>2026-04-26T09:54:40.01Z</time></trkpt><trkpt lat="44.6714183" lon="9.5767183"><ele>494.0</ele><time>2026-04-26T09:54:41.011Z</time></trkpt><trkpt lat="44.6712933" lon="9.5766717"><ele>494.0</ele><time>2026-04-26T09:54:42.01Z</time></trkpt><trkpt lat="44.6711833" lon="9.5765933"><ele>494.0</ele><time>2026-04-26T09:54:43.011Z</time></trkpt><trkpt lat="44.6710783" lon="9.57648"><ele>494.0</ele><time>2026-04-26T09:54:44.011Z</time></trkpt><trkpt lat="44.6710083" lon="9.576335"><ele>498.75</ele><time>2026-04-26T09:54:45.011Z</time></trkpt><trkpt lat="44.6709433" lon="9.5761933"><ele>503.5</ele><time>2026-04-26T09:54:46.011Z</time></trkpt><trkpt lat="44.6708717" lon="9.5760317"><ele>508.25</ele><time>2026-04-26T09:54:47.011Z</time></trkpt><trkpt lat="44.6708483" lon="9.57579"><ele>513.0</ele><time>2026-04-26T09:54:48.01Z</time></trkpt><trkpt lat="44.6708217" lon="9.5755433"><ele>512.3333333333334</ele><time>2026-04-26T09:54:49.01Z</time></trkpt><trkpt lat="44.6707933" lon="9.5752633"><ele>511.6666666666667</ele><time>2026-04-26T09:54:50.01Z</time></trkpt><trkpt lat="44.67075" lon="9.5749883"><ele>511.0</ele><time>2026-04-26T09:54:51.01Z</time></trkpt><trkpt lat="44.6706933" lon="9.5747"><ele>510.0</ele><time>2026-04-26T09:54:52.01Z</time></trkpt><trkpt lat="44.6706367" lon="9.5744183"><ele>509.0</ele><time>2026-04-26T09:54:53.01Z</time></trkpt><trkpt lat="44.670585" lon="9.574175"><ele>508.0</ele><time>2026-04-26T09:54:54.01Z</time></trkpt><trkpt lat="44.6705417" lon="9.5739667"><ele>508.0</ele><time>2026-04-26T09:54:55.01Z</time></trkpt><trkpt lat="44.670495" lon="9.5737717"><ele>508.0</ele><time>2026-04-26T09:54:56.01Z</time></trkpt><trkpt lat="44.670455" lon="9.5735983"><ele>508.0</ele><time>2026-04-26T09:54:57.01Z</time></trkpt><trkpt lat="44.6704417" lon="9.5734233"><ele>508.0</ele><time>2026-04-26T09:54:58.01Z</time></trkpt><trkpt lat="44.6704383" lon="9.573235"><ele>507.5</ele><time>2026-04-26T09:54:59.011Z</time></trkpt><trkpt lat="44.6704567" lon="9.5730633"><ele>507.0</ele><time>2026-04-26T09:55:00.01Z</time></trkpt><trkpt lat="44.6704617" lon="9.5728933"><ele>506.5</ele><time>2026-04-26T09:55:01.01Z</time></trkpt><trkpt lat="44.6704667" lon="9.5727283"><ele>506.0</ele><time>2026-04-26T09:55:02.01Z</time></trkpt><trkpt lat="44.670455" lon="9.5725867"><ele>505.99999999999994</ele><time>2026-04-26T09:55:03.011Z</time></trkpt><trkpt lat="44.6703883" lon="9.5725067"><ele>506.0</ele><time>2026-04-26T09:55:04.011Z</time></trkpt><trkpt lat="44.6703167" lon="9.57245"><ele>506.0</ele><time>2026-04-26T09:55:05.011Z</time></trkpt><trkpt lat="44.6702133" lon="9.5724233"><ele>506.0</ele><time>2026-04-26T09:55:06.01Z</time></trkpt><trkpt lat="44.6701333" lon="9.5723717"><ele>505.99999999999994</ele><time>2026-04-26T09:55:07.011Z</time></trkpt><trkpt lat="44.6700567" lon="9.572375"><ele>506.0</ele><time>2026-04-26T09:55:08.011Z</time></trkpt><trkpt lat="44.6699733" lon="9.5724167"><ele>508.0</ele><time>2026-04-26T09:55:09.01Z</time></trkpt><trkpt lat="44.66988" lon="9.5725317"><ele>510.0</ele><time>2026-04-26T09:55:10.01Z</time></trkpt><trkpt lat="44.6697867" lon="9.572745"><ele>512.0</ele><time>2026-04-26T09:55:11.011Z</time></trkpt><trkpt lat="44.669715" lon="9.573075"><ele>515.5</ele><time>2026-04-26T09:55:12.01Z</time></trkpt><trkpt lat="44.6696517" lon="9.5734233"><ele>519.0</ele><time>2026-04-26T09:55:13.01Z</time></trkpt><trkpt lat="44.6695783" lon="9.5737567"><ele>517.3333333333334</ele><time>2026-04-26T09:55:14.01Z</time></trkpt><trkpt lat="44.6694817" lon="9.5740583"><ele>515.6666666666667</ele><time>2026-04-26T09:55:15.01Z</time></trkpt><trkpt lat="44.6693717" lon="9.5742833"><ele>514.0</ele><time>2026-04-26T09:55:16.01Z</time></trkpt><trkpt lat="44.6692567" lon="9.57446"><ele>518.6666666666667</ele><time>2026-04-26T09:55:17.011Z</time></trkpt><trkpt lat="44.6691233" lon="9.5746233"><ele>523.3333333333334</ele><time>2026-04-26T09:55:18.01Z</time></trkpt><trkpt lat="44.6690017" lon="9.5747883"><ele>528.0</ele><time>2026-04-26T09:55:19.01Z</time></trkpt><trkpt lat="44.6688833" lon="9.574985"><ele>528.0</ele><time>2026-04-26T09:55:20.011Z</time></trkpt><trkpt lat="44.6687767" lon="9.5751383"><ele>528.0</ele><time>2026-04-26T09:55:21.011Z</time></trkpt><trkpt lat="44.66869" lon="9.5752883"><ele>528.0</ele><time>2026-04-26T09:55:22.01Z</time></trkpt><trkpt lat="44.6685883" lon="9.5753833"><ele>528.0</ele><time>2026-04-26T09:55:23.01Z</time></trkpt><trkpt lat="44.668465" lon="9.5754217"><ele>528.75</ele><time>2026-04-26T09:55:24.011Z</time></trkpt><trkpt lat="44.668325" lon="9.5754417"><ele>529.5</ele><time>2026-04-26T09:55:25.01Z</time></trkpt><trkpt lat="44.6682033" lon="9.57549"><ele>530.25</ele><time>2026-04-26T09:55:26.01Z</time></trkpt><trkpt lat="44.6680883" lon="9.5755367"><ele>531.0</ele><time>2026-04-26T09:55:27.011Z</time></trkpt><trkpt lat="44.668" lon="9.5756283"><ele>531.0</ele><time>2026-04-26T09:55:28.01Z</time></trkpt><trkpt lat="44.6679417" lon="9.57573"><ele>531.0</ele><time>2026-04-26T09:55:29.011Z</time></trkpt><trkpt lat="44.667905" lon="9.5758717"><ele>531.0</ele><time>2026-04-26T09:55:30.01Z</time></trkpt><trkpt lat="44.6679033" lon="9.5760417"><ele>531.0</ele><time>2026-04-26T09:55:31.01Z</time></trkpt><trkpt lat="44.6679817" lon="9.5762867"><ele>531.5</ele><time>2026-04-26T09:55:32.011Z</time></trkpt><trkpt lat="44.668005" lon="9.5764867"><ele>532.0</ele><time>2026-04-26T09:55:33.011Z</time></trkpt><trkpt lat="44.6679917" lon="9.5766867"><ele>532.5</ele><time>2026-04-26T09:55:34.011Z</time></trkpt><trkpt lat="44.6679467" lon="9.5768867"><ele>533.0</ele><time>2026-04-26T09:55:35.011Z</time></trkpt><trkpt lat="44.667845" lon="9.5770817"><ele>530.3333333333333</ele><time>2026-04-26T09:55:36.01Z</time></trkpt><trkpt lat="44.6677433" lon="9.5772817"><ele>527.6666666666666</ele><time>2026-04-26T09:55:37.011Z</time></trkpt><trkpt lat="44.66763" lon="9.57749"><ele>525.0</ele><time>2026-04-26T09:55:38.01Z</time></trkpt><trkpt lat="44.667515" lon="9.577715"><ele>528.0</ele><time>2026-04-26T09:55:39.011Z</time></trkpt><trkpt lat="44.6673983" lon="9.57793"><ele>531.0</ele><time>2026-04-26T09:55:40.01Z</time></trkpt><trkpt lat="44.66728" lon="9.578115"><ele>534.0</ele><time>2026-04-26T09:55:41.01Z</time></trkpt><trkpt lat="44.6671617" lon="9.57826"><ele>534.0</ele><time>2026-04-26T09:55:42.011Z</time></trkpt><trkpt lat="44.66703" lon="9.5783783"><ele>534.0</ele><time>2026-04-26T09:55:43.01Z</time></trkpt><trkpt lat="44.6668783" lon="9.5784517"><ele>534.0</ele><time>2026-04-26T09:55:44.01Z</time></trkpt><trkpt lat="44.666695" lon="9.5784867"><ele>532.3333333333334</ele><time>2026-04-26T09:55:45.011Z</time></trkpt><trkpt lat="44.666515" lon="9.5785517"><ele>530.6666666666667</ele><time>2026-04-26T09:55:46.01Z</time></trkpt><trkpt lat="44.666325" lon="9.5786067"><ele>529.0</ele><time>2026-04-26T09:55:47.011Z</time></trkpt><trkpt lat="44.6661467" lon="9.5786867"><ele>532.3333333333334</ele><time>2026-04-26T09:55:48.01Z</time></trkpt><trkpt lat="44.6659667" lon="9.57878"><ele>535.6666666666666</ele><time>2026-04-26T09:55:49.01Z</time></trkpt><trkpt lat="44.6657833" lon="9.5788717"><ele>539.0</ele><time>2026-04-26T09:55:50.011Z</time></trkpt><trkpt lat="44.6655933" lon="9.5789817"><ele>539.0</ele><time>2026-04-26T09:55:51.01Z</time></trkpt><trkpt lat="44.66539" lon="9.57912"><ele>539.0</ele><time>2026-04-26T09:55:52.01Z</time></trkpt><trkpt lat="44.6652033" lon="9.57922"><ele>539.0</ele><time>2026-04-26T09:55:53.011Z</time></trkpt><trkpt lat="44.6650233" lon="9.5792883"><ele>537.3333333333333</ele><time>2026-04-26T09:55:54.009Z</time></trkpt><trkpt lat="44.664845" lon="9.5793617"><ele>535.6666666666666</ele><time>2026-04-26T09:55:55.009Z</time></trkpt><trkpt lat="44.6646717" lon="9.5794167"><ele>534.0</ele><time>2026-04-26T09:55:56.009Z</time></trkpt><trkpt lat="44.6645217" lon="9.5794583"><ele>532.5</ele><time>2026-04-26T09:55:57.009Z</time></trkpt><trkpt lat="44.6643983" lon="9.5795033"><ele>531.0</ele><time>2026-04-26T09:55:58.009Z</time></trkpt><trkpt lat="44.6642917" lon="9.5795633"><ele>529.5</ele><time>2026-04-26T09:55:59.009Z</time></trkpt><trkpt lat="44.6641933" lon="9.5796633"><ele>528.0</ele><time>2026-04-26T09:56:00.009Z</time></trkpt><trkpt lat="44.6641283" lon="9.5797833"><ele>532.0</ele><time>2026-04-26T09:56:01.01Z</time></trkpt><trkpt lat="44.6640933" lon="9.579965"><ele>536.0</ele><time>2026-04-26T09:56:02.01Z</time></trkpt><trkpt lat="44.6640083" lon="9.58012"><ele>540.0</ele><time>2026-04-26T09:56:03.009Z</time></trkpt><trkpt lat="44.6638967" lon="9.5803267"><ele>539.3333333333334</ele><time>2026-04-26T09:56:04.009Z</time></trkpt><trkpt lat="44.6637683" lon="9.5805067"><ele>538.6666666666667</ele><time>2026-04-26T09:56:05.01Z</time></trkpt><trkpt lat="44.6636333" lon="9.58067"><ele>538.0</ele><time>2026-04-26T09:56:06.009Z</time></trkpt><trkpt lat="44.6634883" lon="9.5808067"><ele>538.0</ele><time>2026-04-26T09:56:07.009Z</time></trkpt><trkpt lat="44.66335" lon="9.5809333"><ele>538.0</ele><time>2026-04-26T09:56:08.01Z</time></trkpt><trkpt lat="44.6631817" lon="9.5810067"><ele>538.0</ele><time>2026-04-26T09:56:09.009Z</time></trkpt><trkpt lat="44.6630267" lon="9.5810733"><ele>538.0</ele><time>2026-04-26T09:56:10.01Z</time></trkpt><trkpt lat="44.6628867" lon="9.5811167"><ele>538.0</ele><time>2026-04-26T09:56:11.009Z</time></trkpt><trkpt lat="44.6627783" lon="9.5811083"><ele>538.0</ele><time>2026-04-26T09:56:12.01Z</time></trkpt><trkpt lat="44.6626667" lon="9.581045"><ele>538.0</ele><time>2026-04-26T09:56:13.009Z</time></trkpt><trkpt lat="44.6625567" lon="9.58093"><ele>538.6</ele><time>2026-04-26T09:56:14.009Z</time></trkpt><trkpt lat="44.6624633" lon="9.5808333"><ele>539.1999999999999</ele><time>2026-04-26T09:56:15.01Z</time></trkpt><trkpt lat="44.6623617" lon="9.5807933"><ele>539.8</ele><time>2026-04-26T09:56:16.009Z</time></trkpt><trkpt lat="44.6622667" lon="9.58081"><ele>540.4</ele><time>2026-04-26T09:56:17.01Z</time></trkpt><trkpt lat="44.6621867" lon="9.5808717"><ele>541.0</ele><time>2026-04-26T09:56:18.01Z</time></trkpt><trkpt lat="44.6621067" lon="9.5809217"><ele>541.0</ele><time>2026-04-26T09:56:19.01Z</time></trkpt><trkpt lat="44.6620417" lon="9.5810717"><ele>541.0</ele><time>2026-04-26T09:56:20.01Z</time></trkpt><trkpt lat="44.6619367" lon="9.5813217"><ele>541.0</ele><time>2026-04-26T09:56:21.01Z</time></trkpt><trkpt lat="44.6618283" lon="9.581525"><ele>541.0</ele><time>2026-04-26T09:56:22.01Z</time></trkpt><trkpt lat="44.6617283" lon="9.5817367"><ele>541.0</ele><time>2026-04-26T09:56:23.009Z</time></trkpt><trkpt lat="44.6616267" lon="9.58195"><ele>541.0</ele><time>2026-04-26T09:56:24.009Z</time></trkpt><trkpt lat="44.6615233" lon="9.5821333"><ele>542.0</ele><time>2026-04-26T09:56:25.01Z</time></trkpt><trkpt lat="44.661425" lon="9.58229"><ele>543.0</ele><time>2026-04-26T09:56:26.009Z</time></trkpt><trkpt lat="44.66127" lon="9.58228"><ele>544.0</ele><time>2026-04-26T09:56:27.01Z</time></trkpt><trkpt lat="44.6610883" lon="9.5822333"><ele>544.0</ele><time>2026-04-26T09:56:28.009Z</time></trkpt><trkpt lat="44.6609083" lon="9.5822067"><ele>544.0</ele><time>2026-04-26T09:56:29.01Z</time></trkpt><trkpt lat="44.6607333" lon="9.58219"><ele>544.0</ele><time>2026-04-26T09:56:30.009Z</time></trkpt><trkpt lat="44.6605417" lon="9.5822"><ele>544.0</ele><time>2026-04-26T09:56:31.01Z</time></trkpt><trkpt lat="44.6603717" lon="9.5822517"><ele>544.0</ele><time>2026-04-26T09:56:32.01Z</time></trkpt><trkpt lat="44.6602333" lon="9.5823317"><ele>544.0</ele><time>2026-04-26T09:56:33.01Z</time></trkpt><trkpt lat="44.6601083" lon="9.5823617"><ele>542.5</ele><time>2026-04-26T09:56:34.01Z</time></trkpt><trkpt lat="44.6600133" lon="9.5824633"><ele>541.0</ele><time>2026-04-26T09:56:35.009Z</time></trkpt><trkpt lat="44.6599183" lon="9.5825567"><ele>539.5</ele><time>2026-04-26T09:56:36.01Z</time></trkpt><trkpt lat="44.6598583" lon="9.5826883"><ele>538.0</ele><time>2026-04-26T09:56:37.009Z</time></trkpt><trkpt lat="44.6598183" lon="9.5828383"><ele>538.8</ele><time>2026-04-26T09:56:38.009Z</time></trkpt><trkpt lat="44.6598167" lon="9.5830133"><ele>539.5999999999999</ele><time>2026-04-26T09:56:39.01Z</time></trkpt><trkpt lat="44.6598117" lon="9.58317"><ele>540.4000000000001</ele><time>2026-04-26T09:56:40.009Z</time></trkpt><trkpt lat="44.6597517" lon="9.58327"><ele>541.2</ele><time>2026-04-26T09:56:41.009Z</time></trkpt><trkpt lat="44.659715" lon="9.5833633"><ele>542.0</ele><time>2026-04-26T09:56:42.009Z</time></trkpt><trkpt lat="44.6596383" lon="9.5833517"><ele>542.0</ele><time>2026-04-26T09:56:43.01Z</time></trkpt><trkpt lat="44.6595517" lon="9.58334"><ele>542.0</ele><time>2026-04-26T09:56:44.009Z</time></trkpt><trkpt lat="44.659445" lon="9.58331"><ele>542.0</ele><time>2026-04-26T09:56:45.01Z</time></trkpt><trkpt lat="44.6593683" lon="9.5833217"><ele>542.0</ele><time>2026-04-26T09:56:46.01Z</time></trkpt><trkpt lat="44.65927" lon="9.5833117"><ele>542.0</ele><time>2026-04-26T09:56:47.01Z</time></trkpt><trkpt lat="44.65915" lon="9.5832933"><ele>542.6666666666666</ele><time>2026-04-26T09:56:48.009Z</time></trkpt><trkpt lat="44.6590233" lon="9.5832567"><ele>543.3333333333334</ele><time>2026-04-26T09:56:49.009Z</time></trkpt><trkpt lat="44.6588883" lon="9.58323"><ele>544.0</ele><time>2026-04-26T09:56:50.01Z</time></trkpt><trkpt lat="44.65867" lon="9.5832083"><ele>544.3333333333334</ele><time>2026-04-26T09:56:51.009Z</time></trkpt><trkpt lat="44.6584883" lon="9.58319"><ele>544.6666666666666</ele><time>2026-04-26T09:56:52.01Z</time></trkpt><trkpt lat="44.658315" lon="9.583195"><ele>545.0</ele><time>2026-04-26T09:56:53.009Z</time></trkpt><trkpt lat="44.6581233" lon="9.5832433"><ele>545.0</ele><time>2026-04-26T09:56:54.01Z</time></trkpt><trkpt lat="44.657955" lon="9.5832817"><ele>545.0</ele><time>2026-04-26T09:56:55.01Z</time></trkpt><trkpt lat="44.6577983" lon="9.58332"><ele>545.0</ele><time>2026-04-26T09:56:56.009Z</time></trkpt><trkpt lat="44.6576617" lon="9.5833983"><ele>544.0</ele><time>2026-04-26T09:56:57.01Z</time></trkpt><trkpt lat="44.6575467" lon="9.5834983"><ele>543.0</ele><time>2026-04-26T09:56:58.009Z</time></trkpt><trkpt lat="44.657475" lon="9.5836283"><ele>542.0</ele><time>2026-04-26T09:56:59.009Z</time></trkpt><trkpt lat="44.6573917" lon="9.5837217"><ele>541.0</ele><time>2026-04-26T09:57:00.009Z</time></trkpt><trkpt lat="44.6572967" lon="9.5838017"><ele>543.75</ele><time>2026-04-26T09:57:01.009Z</time></trkpt><trkpt lat="44.6572083" lon="9.5838533"><ele>546.5</ele><time>2026-04-26T09:57:02.009Z</time></trkpt><trkpt lat="44.6571117" lon="9.5838867"><ele>549.25</ele><time>2026-04-26T09:57:03.009Z</time></trkpt><trkpt lat="44.6569767" lon="9.5839117"><ele>552.0</ele><time>2026-04-26T09:57:04.009Z</time></trkpt><trkpt lat="44.6568567" lon="9.5839633"><ele>552.0</ele><time>2026-04-26T09:57:05.009Z</time></trkpt><trkpt lat="44.6567417" lon="9.5840067"><ele>552.0</ele><time>2026-04-26T09:57:06.01Z</time></trkpt><trkpt lat="44.6566267" lon="9.5841267"><ele>552.0</ele><time>2026-04-26T09:57:07.009Z</time></trkpt><trkpt lat="44.656505" lon="9.5842817"><ele>552.0</ele><time>2026-04-26T09:57:08.009Z</time></trkpt><trkpt lat="44.6563983" lon="9.58445"><ele>554.6666666666666</ele><time>2026-04-26T09:57:09.01Z</time></trkpt><trkpt lat="44.6563067" lon="9.5846433"><ele>557.3333333333333</ele><time>2026-04-26T09:57:10.01Z</time></trkpt><trkpt lat="44.6562067" lon="9.584855"><ele>560.0</ele><time>2026-04-26T09:57:11.009Z</time></trkpt><trkpt lat="44.6561267" lon="9.5850867"><ele>560.3333333333333</ele><time>2026-04-26T09:57:12.009Z</time></trkpt><trkpt lat="44.6560667" lon="9.5853083"><ele>560.6666666666666</ele><time>2026-04-26T09:57:13.009Z</time></trkpt><trkpt lat="44.65602" lon="9.5855117"><ele>561.0</ele><time>2026-04-26T09:57:14.009Z</time></trkpt><trkpt lat="44.65596" lon="9.58571"><ele>561.0</ele><time>2026-04-26T09:57:15.01Z</time></trkpt><trkpt lat="44.6558783" lon="9.58589"><ele>561.0</ele><time>2026-04-26T09:57:16.009Z</time></trkpt><trkpt lat="44.6557767" lon="9.5860633"><ele>561.0</ele><time>2026-04-26T09:57:17.009Z</time></trkpt><trkpt lat="44.65568" lon="9.5862483"><ele>563.3333333333334</ele><time>2026-04-26T09:57:18.01Z</time></trkpt><trkpt lat="44.6555883" lon="9.5864433"><ele>565.6666666666667</ele><time>2026-04-26T09:57:19.009Z</time></trkpt><trkpt lat="44.6555033" lon="9.5866183"><ele>568.0</ele><time>2026-04-26T09:57:20.009Z</time></trkpt><trkpt lat="44.6554167" lon="9.5867917"><ele>568.0</ele><time>2026-04-26T09:57:21.009Z</time></trkpt><trkpt lat="44.655315" lon="9.5869667"><ele>568.0</ele><time>2026-04-26T09:57:22.009Z</time></trkpt><trkpt lat="44.6552283" lon="9.5871433"><ele>568.0</ele><time>2026-04-26T09:57:23.01Z</time></trkpt><trkpt lat="44.6551433" lon="9.587325"><ele>566.6666666666667</ele><time>2026-04-26T09:57:24.01Z</time></trkpt><trkpt lat="44.6550517" lon="9.5874933"><ele>565.3333333333334</ele><time>2026-04-26T09:57:25.01Z</time></trkpt><trkpt lat="44.65494" lon="9.587655"><ele>564.0</ele><time>2026-04-26T09:57:26.009Z</time></trkpt><trkpt lat="44.654835" lon="9.587835"><ele>565.5</ele><time>2026-04-26T09:57:27.01Z</time></trkpt><trkpt lat="44.6547433" lon="9.5879933"><ele>567.0</ele><time>2026-04-26T09:57:28.009Z</time></trkpt><trkpt lat="44.654655" lon="9.5881683"><ele>568.5</ele><time>2026-04-26T09:57:29.009Z</time></trkpt><trkpt lat="44.6545667" lon="9.58834"><ele>570.0</ele><time>2026-04-26T09:57:30.009Z</time></trkpt><trkpt lat="44.654485" lon="9.5885283"><ele>569.6666666666666</ele><time>2026-04-26T09:57:31.009Z</time></trkpt><trkpt lat="44.6544067" lon="9.58872"><ele>569.3333333333333</ele><time>2026-04-26T09:57:32.01Z</time></trkpt><trkpt lat="44.6543283" lon="9.5889133"><ele>569.0</ele><time>2026-04-26T09:57:33.01Z</time></trkpt><trkpt lat="44.6542583" lon="9.589115"><ele>569.0</ele><time>2026-04-26T09:57:34.009Z</time></trkpt><trkpt lat="44.654175" lon="9.5893083"><ele>569.0</ele><time>2026-04-26T09:57:35.01Z</time></trkpt><trkpt lat="44.6540983" lon="9.5895033"><ele>569.0</ele><time>2026-04-26T09:57:36.01Z</time></trkpt><trkpt lat="44.6540267" lon="9.5896967"><ele>572.3333333333333</ele><time>2026-04-26T09:57:37.009Z</time></trkpt><trkpt lat="44.6539517" lon="9.5898833"><ele>575.6666666666666</ele><time>2026-04-26T09:57:38.01Z</time></trkpt><trkpt lat="44.6538767" lon="9.5900783"><ele>579.0</ele><time>2026-04-26T09:57:39.009Z</time></trkpt><trkpt lat="44.6538217" lon="9.5902717"><ele>581.0</ele><time>2026-04-26T09:57:40.01Z</time></trkpt><trkpt lat="44.65378" lon="9.5904883"><ele>583.0</ele><time>2026-04-26T09:57:41.01Z</time></trkpt><trkpt lat="44.6537517" lon="9.5907067"><ele>585.0</ele><time>2026-04-26T09:57:42.009Z</time></trkpt><trkpt lat="44.65372" lon="9.5909233"><ele>585.0</ele><time>2026-04-26T09:57:43.009Z</time></trkpt><trkpt lat="44.6536667" lon="9.5911267"><ele>585.0</ele><time>2026-04-26T09:57:44.01Z</time></trkpt><trkpt lat="44.6536067" lon="9.5913317"><ele>585.0</ele><time>2026-04-26T09:57:45.01Z</time></trkpt><trkpt lat="44.653545" lon="9.5915383"><ele>584.3333333333334</ele><time>2026-04-26T09:57:46.009Z</time></trkpt><trkpt lat="44.6534633" lon="9.591755"><ele>583.6666666666667</ele><time>2026-04-26T09:57:47.01Z</time></trkpt><trkpt lat="44.6533783" lon="9.5920083"><ele>583.0</ele><time>2026-04-26T09:57:48.009Z</time></trkpt><trkpt lat="44.653295" lon="9.5922433"><ele>586.6666666666667</ele><time>2026-04-26T09:57:49.009Z</time></trkpt><trkpt lat="44.6531983" lon="9.5924533"><ele>590.3333333333334</ele><time>2026-04-26T09:57:50.009Z</time></trkpt><trkpt lat="44.6530717" lon="9.59265"><ele>594.0</ele><time>2026-04-26T09:57:51.009Z</time></trkpt><trkpt lat="44.6529333" lon="9.5928233"><ele>593.6666666666666</ele><time>2026-04-26T09:57:52.009Z</time></trkpt><trkpt lat="44.652805" lon="9.592985"><ele>593.3333333333333</ele><time>2026-04-26T09:57:53.01Z</time></trkpt><trkpt lat="44.6526867" lon="9.5931583"><ele>593.0</ele><time>2026-04-26T09:57:54.009Z</time></trkpt><trkpt lat="44.6525783" lon="9.59333"><ele>593.0</ele><time>2026-04-26T09:57:55.01Z</time></trkpt><trkpt lat="44.6524783" lon="9.5935"><ele>593.0</ele><time>2026-04-26T09:57:56.01Z</time></trkpt><trkpt lat="44.6523967" lon="9.5936583"><ele>593.0</ele><time>2026-04-26T09:57:57.009Z</time></trkpt><trkpt lat="44.6523333" lon="9.59382"><ele>593.0</ele><time>2026-04-26T09:57:58.009Z</time></trkpt><trkpt lat="44.6522733" lon="9.59399"><ele>594.5</ele><time>2026-04-26T09:57:59.009Z</time></trkpt><trkpt lat="44.652235" lon="9.5941767"><ele>596.0</ele><time>2026-04-26T09:58:00.009Z</time></trkpt><trkpt lat="44.6522183" lon="9.5943667"><ele>597.5</ele><time>2026-04-26T09:58:01.009Z</time></trkpt><trkpt lat="44.6522483" lon="9.594535"><ele>599.0</ele><time>2026-04-26T09:58:02.01Z</time></trkpt><trkpt lat="44.6522533" lon="9.5947133"><ele>599.2</ele><time>2026-04-26T09:58:03.01Z</time></trkpt><trkpt lat="44.6521917" lon="9.5948383"><ele>599.4</ele><time>2026-04-26T09:58:04.009Z</time></trkpt><trkpt lat="44.65212" lon="9.5948983"><ele>599.6</ele><time>2026-04-26T09:58:05.01Z</time></trkpt><trkpt lat="44.6520183" lon="9.5948933"><ele>599.8</ele><time>2026-04-26T09:58:06.009Z</time></trkpt><trkpt lat="44.6519233" lon="9.5949"><ele>600.0</ele><time>2026-04-26T09:58:07.01Z</time></trkpt><trkpt lat="44.6518033" lon="9.5948267"><ele>599.75</ele><time>2026-04-26T09:58:08.009Z</time></trkpt><trkpt lat="44.6516883" lon="9.59472"><ele>599.5</ele><time>2026-04-26T09:58:09.009Z</time></trkpt><trkpt lat="44.6515683" lon="9.5946167"><ele>599.25</ele><time>2026-04-26T09:58:10.01Z</time></trkpt><trkpt lat="44.651425" lon="9.5945"><ele>599.0</ele><time>2026-04-26T09:58:11.01Z</time></trkpt><trkpt lat="44.6512683" lon="9.5943917"><ele>602.3333333333333</ele><time>2026-04-26T09:58:12.009Z</time></trkpt><trkpt lat="44.6511067" lon="9.59429"><ele>605.6666666666666</ele><time>2026-04-26T09:58:13.009Z</time></trkpt><trkpt lat="44.6509333" lon="9.5942083"><ele>609.0</ele><time>2026-04-26T09:58:14.009Z</time></trkpt><trkpt lat="44.6507583" lon="9.5941167"><ele>609.0</ele><time>2026-04-26T09:58:15.009Z</time></trkpt><trkpt lat="44.6505867" lon="9.5940483"><ele>609.0</ele><time>2026-04-26T09:58:16.01Z</time></trkpt><trkpt lat="44.650425" lon="9.593985"><ele>609.0</ele><time>2026-04-26T09:58:17.009Z</time></trkpt><trkpt lat="44.65028" lon="9.593935"><ele>611.5</ele><time>2026-04-26T09:58:18.009Z</time></trkpt><trkpt lat="44.6501517" lon="9.593905"><ele>614.0</ele><time>2026-04-26T09:58:19.01Z</time></trkpt><trkpt lat="44.6500317" lon="9.5939033"><ele>616.5</ele><time>2026-04-26T09:58:20.01Z</time></trkpt><trkpt lat="44.6499183" lon="9.59394"><ele>619.0</ele><time>2026-04-26T09:58:21.009Z</time></trkpt><trkpt lat="44.6498017" lon="9.594025"><ele>619.0</ele><time>2026-04-26T09:58:22.01Z</time></trkpt><trkpt lat="44.64969" lon="9.5941367"><ele>619.0</ele><time>2026-04-26T09:58:23.009Z</time></trkpt><trkpt lat="44.64961" lon="9.5943017"><ele>619.0</ele><time>2026-04-26T09:58:24.01Z</time></trkpt><trkpt lat="44.6495383" lon="9.5945133"><ele>619.0</ele><time>2026-04-26T09:58:25.009Z</time></trkpt><trkpt lat="44.6494667" lon="9.594745"><ele>622.6666666666667</ele><time>2026-04-26T09:58:26.009Z</time></trkpt><trkpt lat="44.6493917" lon="9.5949467"><ele>626.3333333333334</ele><time>2026-04-26T09:58:27.01Z</time></trkpt><trkpt lat="44.649335" lon="9.5951367"><ele>630.0</ele><time>2026-04-26T09:58:28.009Z</time></trkpt><trkpt lat="44.6492933" lon="9.5953283"><ele>631.5</ele><time>2026-04-26T09:58:29.01Z</time></trkpt><trkpt lat="44.6492883" lon="9.5955167"><ele>633.0</ele><time>2026-04-26T09:58:30.009Z</time></trkpt><trkpt lat="44.64931" lon="9.5956933"><ele>634.5</ele><time>2026-04-26T09:58:31.009Z</time></trkpt><trkpt lat="44.6494533" lon="9.59586"><ele>636.0</ele><time>2026-04-26T09:58:32.009Z</time></trkpt><trkpt lat="44.649515" lon="9.5960383"><ele>637.0</ele><time>2026-04-26T09:58:33.009Z</time></trkpt><trkpt lat="44.64952" lon="9.59619"><ele>638.0</ele><time>2026-04-26T09:58:34.009Z</time></trkpt><trkpt lat="44.649495" lon="9.596355"><ele>639.0</ele><time>2026-04-26T09:58:35.01Z</time></trkpt><trkpt lat="44.6494633" lon="9.5965433"><ele>640.0</ele><time>2026-04-26T09:58:36.009Z</time></trkpt><trkpt lat="44.6494583" lon="9.5967233"><ele>639.0</ele><time>2026-04-26T09:58:37.009Z</time></trkpt><trkpt lat="44.6494717" lon="9.5968967"><ele>638.0</ele><time>2026-04-26T09:58:38.01Z</time></trkpt><trkpt lat="44.6495033" lon="9.5970683"><ele>637.0</ele><time>2026-04-26T09:58:39.01Z</time></trkpt><trkpt lat="44.6496" lon="9.59728"><ele>636.0</ele><time>2026-04-26T09:58:40.01Z</time></trkpt><trkpt lat="44.6496733" lon="9.5974633"><ele>636.0</ele><time>2026-04-26T09:58:41.009Z</time></trkpt><trkpt lat="44.6497533" lon="9.5976283"><ele>636.0</ele><time>2026-04-26T09:58:42.01Z</time></trkpt><trkpt lat="44.6498033" lon="9.59777"><ele>636.0</ele><time>2026-04-26T09:58:43.009Z</time></trkpt><trkpt lat="44.649825" lon="9.5979067"><ele>636.0</ele><time>2026-04-26T09:58:44.009Z</time></trkpt><trkpt lat="44.649775" lon="9.5980717"><ele>637.2</ele><time>2026-04-26T09:58:45.01Z</time></trkpt><trkpt lat="44.6497017" lon="9.5982117"><ele>638.4000000000001</ele><time>2026-04-26T09:58:46.01Z</time></trkpt><trkpt lat="44.6496383" lon="9.598335"><ele>639.6</ele><time>2026-04-26T09:58:47.01Z</time></trkpt><trkpt lat="44.64959" lon="9.59845"><ele>640.8000000000001</ele><time>2026-04-26T09:58:48.009Z</time></trkpt><trkpt lat="44.6495717" lon="9.5985517"><ele>642.0</ele><time>2026-04-26T09:58:49.01Z</time></trkpt><trkpt lat="44.6495783" lon="9.59868"><ele>644.2</ele><time>2026-04-26T09:58:50.01Z</time></trkpt><trkpt lat="44.649625" lon="9.5988017"><ele>646.4000000000001</ele><time>2026-04-26T09:58:51.009Z</time></trkpt><trkpt lat="44.649665" lon="9.5988983"><ele>648.5999999999999</ele><time>2026-04-26T09:58:52.01Z</time></trkpt><trkpt lat="44.649755" lon="9.5988933"><ele>650.8</ele><time>2026-04-26T09:58:53.009Z</time></trkpt><trkpt lat="44.6499167" lon="9.59878"><ele>653.0</ele><time>2026-04-26T09:58:54.01Z</time></trkpt><trkpt lat="44.6500017" lon="9.5987717"><ele>653.0</ele><time>2026-04-26T09:58:55.01Z</time></trkpt><trkpt lat="44.6501367" lon="9.5986817"><ele>653.0</ele><time>2026-04-26T09:58:56.009Z</time></trkpt><trkpt lat="44.6503433" lon="9.5984717"><ele>653.0</ele><time>2026-04-26T09:58:57.01Z</time></trkpt><trkpt lat="44.65047" lon="9.5984133"><ele>651.5</ele><time>2026-04-26T09:58:58.009Z</time></trkpt><trkpt lat="44.6506" lon="9.5983567"><ele>650.0</ele><time>2026-04-26T09:58:59.01Z</time></trkpt><trkpt lat="44.6507367" lon="9.5983183"><ele>648.5</ele><time>2026-04-26T09:59:00.009Z</time></trkpt><trkpt lat="44.6508833" lon="9.598305"><ele>647.0</ele><time>2026-04-26T09:59:01.01Z</time></trkpt><trkpt lat="44.6509967" lon="9.5983617"><ele>647.0</ele><time>2026-04-26T09:59:02.01Z</time></trkpt><trkpt lat="44.6511117" lon="9.5984483"><ele>647.0</ele><time>2026-04-26T09:59:03.01Z</time></trkpt><trkpt lat="44.6511483" lon="9.5985867"><ele>647.0</ele><time>2026-04-26T09:59:04.01Z</time></trkpt><trkpt lat="44.6511433" lon="9.5987583"><ele>647.0</ele><time>2026-04-26T09:59:05.01Z</time></trkpt><trkpt lat="44.6511183" lon="9.5989717"><ele>649.0</ele><time>2026-04-26T09:59:06.009Z</time></trkpt><trkpt lat="44.6510917" lon="9.5991517"><ele>651.0</ele><time>2026-04-26T09:59:07.009Z</time></trkpt><trkpt lat="44.6510133" lon="9.5993733"><ele>653.0</ele><time>2026-04-26T09:59:08.01Z</time></trkpt><trkpt lat="44.650955" lon="9.5995867"><ele>653.0</ele><time>2026-04-26T09:59:09.009Z</time></trkpt><trkpt lat="44.650915" lon="9.5998233"><ele>653.0</ele><time>2026-04-26T09:59:10.01Z</time></trkpt><trkpt lat="44.65089" lon="9.6000533"><ele>653.0</ele><time>2026-04-26T09:59:11.009Z</time></trkpt><trkpt lat="44.6508833" lon="9.6002733"><ele>653.5999999999999</ele><time>2026-04-26T09:59:12.009Z</time></trkpt><trkpt lat="44.6509067" lon="9.6004467"><ele>654.1999999999999</ele><time>2026-04-26T09:59:13.01Z</time></trkpt><trkpt lat="44.6509317" lon="9.6006117"><ele>654.8</ele><time>2026-04-26T09:59:14.009Z</time></trkpt><trkpt lat="44.65094" lon="9.6007583"><ele>655.4</ele><time>2026-04-26T09:59:15.009Z</time></trkpt><trkpt lat="44.6509333" lon="9.600865"><ele>656.0</ele><time>2026-04-26T09:59:16.009Z</time></trkpt><trkpt lat="44.6508683" lon="9.6009883"><ele>656.0</ele><time>2026-04-26T09:59:17.01Z</time></trkpt><trkpt lat="44.6507933" lon="9.601065"><ele>656.0</ele><time>2026-04-26T09:59:18.009Z</time></trkpt><trkpt lat="44.6507267" lon="9.60112"><ele>656.0</ele><time>2026-04-26T09:59:19.009Z</time></trkpt><trkpt lat="44.65065" lon="9.601145"><ele>656.0</ele><time>2026-04-26T09:59:20.009Z</time></trkpt><trkpt lat="44.6505617" lon="9.60111"><ele>656.0</ele><time>2026-04-26T09:59:21.01Z</time></trkpt><trkpt lat="44.6505" lon="9.60101"><ele>656.0</ele><time>2026-04-26T09:59:22.01Z</time></trkpt><trkpt lat="44.6504767" lon="9.6008117"><ele>656.0</ele><time>2026-04-26T09:59:23.01Z</time></trkpt><trkpt lat="44.6504783" lon="9.60058"><ele>656.0</ele><time>2026-04-26T09:59:24.01Z</time></trkpt><trkpt lat="44.65047" lon="9.6003667"><ele>656.0</ele><time>2026-04-26T09:59:25.01Z</time></trkpt><trkpt lat="44.6504517" lon="9.6000917"><ele>655.4</ele><time>2026-04-26T09:59:26.009Z</time></trkpt><trkpt lat="44.6503983" lon="9.5999183"><ele>654.8</ele><time>2026-04-26T09:59:27.01Z</time></trkpt><trkpt lat="44.650335" lon="9.59979"><ele>654.1999999999999</ele><time>2026-04-26T09:59:28.01Z</time></trkpt><trkpt lat="44.6502683" lon="9.599685"><ele>653.5999999999999</ele><time>2026-04-26T09:59:29.009Z</time></trkpt><trkpt lat="44.6501817" lon="9.599625"><ele>653.0</ele><time>2026-04-26T09:59:30.01Z</time></trkpt><trkpt lat="44.6500833" lon="9.5996283"><ele>657.6666666666666</ele><time>2026-04-26T09:59:31.01Z</time></trkpt><trkpt lat="44.649955" lon="9.599725"><ele>662.3333333333334</ele><time>2026-04-26T09:59:32.01Z</time></trkpt><trkpt lat="44.649825" lon="9.5999233"><ele>667.0</ele><time>2026-04-26T09:59:33.009Z</time></trkpt><trkpt lat="44.6497033" lon="9.6000583"><ele>667.0</ele><time>2026-04-26T09:59:34.01Z</time></trkpt><trkpt lat="44.6495817" lon="9.6001633"><ele>667.0</ele><time>2026-04-26T09:59:35.009Z</time></trkpt><trkpt lat="44.649455" lon="9.60025"><ele>667.0</ele><time>2026-04-26T09:59:36.01Z</time></trkpt><trkpt lat="44.649315" lon="9.600315"><ele>667.0</ele><time>2026-04-26T09:59:37.009Z</time></trkpt><trkpt lat="44.6491733" lon="9.6003667"><ele>669.75</ele><time>2026-04-26T09:59:38.01Z</time></trkpt><trkpt lat="44.6490283" lon="9.600415"><ele>672.5</ele><time>2026-04-26T09:59:39.01Z</time></trkpt><trkpt lat="44.6488883" lon="9.60047"><ele>675.25</ele><time>2026-04-26T09:59:40.009Z</time></trkpt><trkpt lat="44.6487467" lon="9.600545"><ele>678.0</ele><time>2026-04-26T09:59:41.009Z</time></trkpt><trkpt lat="44.6486067" lon="9.600605"><ele>678.0</ele><time>2026-04-26T09:59:42.009Z</time></trkpt><trkpt lat="44.6484917" lon="9.6006583"><ele>678.0</ele><time>2026-04-26T09:59:43.01Z</time></trkpt><trkpt lat="44.648375" lon="9.6007283"><ele>678.0</ele><time>2026-04-26T09:59:44.009Z</time></trkpt><trkpt lat="44.648275" lon="9.6008267"><ele>678.0</ele><time>2026-04-26T09:59:45.009Z</time></trkpt><trkpt lat="44.6482133" lon="9.6009383"><ele>678.0</ele><time>2026-04-26T09:59:46.009Z</time></trkpt><trkpt lat="44.6481883" lon="9.6010633"><ele>678.0</ele><time>2026-04-26T09:59:47.01Z</time></trkpt><trkpt lat="44.6481933" lon="9.60121"><ele>678.0</ele><time>2026-04-26T09:59:48.009Z</time></trkpt><trkpt lat="44.6482683" lon="9.6013433"><ele>678.0</ele><time>2026-04-26T09:59:49.01Z</time></trkpt><trkpt lat="44.6483317" lon="9.60144"><ele>678.0</ele><time>2026-04-26T09:59:50.01Z</time></trkpt><trkpt lat="44.6483967" lon="9.601525"><ele>679.8</ele><time>2026-04-26T09:59:51.009Z</time></trkpt><trkpt lat="44.6484683" lon="9.6015833"><ele>681.5999999999999</ele><time>2026-04-26T09:59:52.01Z</time></trkpt><trkpt lat="44.64854" lon="9.6016017"><ele>683.4000000000001</ele><time>2026-04-26T09:59:53.009Z</time></trkpt><trkpt lat="44.6486267" lon="9.6015783"><ele>685.2</ele><time>2026-04-26T09:59:54.01Z</time></trkpt><trkpt lat="44.6487283" lon="9.6015233"><ele>687.0</ele><time>2026-04-26T09:59:55.009Z</time></trkpt><trkpt lat="44.648855" lon="9.6014583"><ele>687.6666666666666</ele><time>2026-04-26T09:59:56.01Z</time></trkpt><trkpt lat="44.6490033" lon="9.601415"><ele>688.3333333333333</ele><time>2026-04-26T09:59:57.01Z</time></trkpt><trkpt lat="44.6491533" lon="9.6013883"><ele>689.0</ele><time>2026-04-26T09:59:58.009Z</time></trkpt><trkpt lat="44.6493133" lon="9.6014133"><ele>689.0</ele><time>2026-04-26T09:59:59.01Z</time></trkpt><trkpt lat="44.64944" lon="9.60143"><ele>689.0</ele><time>2026-04-26T10:00:00.01Z</time></trkpt><trkpt lat="44.649535" lon="9.60153"><ele>689.0</ele><time>2026-04-26T10:00:01.009Z</time></trkpt><trkpt lat="44.64961" lon="9.6016783"><ele>689.0</ele><time>2026-04-26T10:00:02.01Z</time></trkpt><trkpt lat="44.64969" lon="9.6018483"><ele>687.5</ele><time>2026-04-26T10:00:03.01Z</time></trkpt><trkpt lat="44.6497533" lon="9.6020283"><ele>686.0</ele><time>2026-04-26T10:00:04.01Z</time></trkpt><trkpt lat="44.6498033" lon="9.6022167"><ele>684.5</ele><time>2026-04-26T10:00:05.01Z</time></trkpt><trkpt lat="44.6498383" lon="9.6024117"><ele>683.0</ele><time>2026-04-26T10:00:06.009Z</time></trkpt><trkpt lat="44.64983" lon="9.60271"><ele>684.0</ele><time>2026-04-26T10:00:07.009Z</time></trkpt><trkpt lat="44.6498433" lon="9.6029583"><ele>685.0</ele><time>2026-04-26T10:00:08.009Z</time></trkpt><trkpt lat="44.6498133" lon="9.6032233"><ele>686.0</ele><time>2026-04-26T10:00:09.01Z</time></trkpt><trkpt lat="44.6497967" lon="9.6034833"><ele>686.0</ele><time>2026-04-26T10:00:10.009Z</time></trkpt><trkpt lat="44.6497833" lon="9.6036967"><ele>686.0</ele><time>2026-04-26T10:00:11.009Z</time></trkpt><trkpt lat="44.649715" lon="9.6039017"><ele>686.0</ele><time>2026-04-26T10:00:12.01Z</time></trkpt><trkpt lat="44.649615" lon="9.6040667"><ele>686.0</ele><time>2026-04-26T10:00:13.01Z</time></trkpt><trkpt lat="44.6495233" lon="9.60424"><ele>686.0</ele><time>2026-04-26T10:00:14.009Z</time></trkpt><trkpt lat="44.6494217" lon="9.6044417"><ele>686.0</ele><time>2026-04-26T10:00:15.009Z</time></trkpt><trkpt lat="44.6493467" lon="9.6046617"><ele>692.0</ele><time>2026-04-26T10:00:16.009Z</time></trkpt><trkpt lat="44.6492617" lon="9.6048583"><ele>698.0</ele><time>2026-04-26T10:00:17.009Z</time></trkpt><trkpt lat="44.64919" lon="9.6050467"><ele>704.0</ele><time>2026-04-26T10:00:18.009Z</time></trkpt><trkpt lat="44.64914" lon="9.6052267"><ele>704.75</ele><time>2026-04-26T10:00:19.009Z</time></trkpt><trkpt lat="44.6491333" lon="9.6053883"><ele>705.5</ele><time>2026-04-26T10:00:20.009Z</time></trkpt><trkpt lat="44.649135" lon="9.6055783"><ele>706.25</ele><time>2026-04-26T10:00:21.01Z</time></trkpt><trkpt lat="44.649155" lon="9.6057533"><ele>707.0</ele><time>2026-04-26T10:00:22.01Z</time></trkpt><trkpt lat="44.6492183" lon="9.6059033"><ele>707.0</ele><time>2026-04-26T10:00:23.009Z</time></trkpt><trkpt lat="44.6493233" lon="9.6060583"><ele>707.0</ele><time>2026-04-26T10:00:24.009Z</time></trkpt><trkpt lat="44.6494217" lon="9.6062267"><ele>707.0</ele><time>2026-04-26T10:00:25.01Z</time></trkpt><trkpt lat="44.649545" lon="9.6063833"><ele>706.75</ele><time>2026-04-26T10:00:26.009Z</time></trkpt><trkpt lat="44.649645" lon="9.6065067"><ele>706.5</ele><time>2026-04-26T10:00:27.01Z</time></trkpt><trkpt lat="44.6497483" lon="9.606635"><ele>706.25</ele><time>2026-04-26T10:00:28.01Z</time></trkpt><trkpt lat="44.64985" lon="9.6066967"><ele>706.0</ele><time>2026-04-26T10:00:29.01Z</time></trkpt><trkpt lat="44.64995" lon="9.6067583"><ele>706.0</ele><time>2026-04-26T10:00:30.009Z</time></trkpt><trkpt lat="44.6500133" lon="9.60678"><ele>706.0</ele><time>2026-04-26T10:00:31.01Z</time></trkpt><trkpt lat="44.6501067" lon="9.6067483"><ele>706.0</ele><time>2026-04-26T10:00:33.01Z</time></trkpt><trkpt lat="44.6501683" lon="9.606645"><ele>706.0</ele><time>2026-04-26T10:00:35.009Z</time></trkpt><trkpt lat="44.6502567" lon="9.6065633"><ele>706.0</ele><time>2026-04-26T10:00:36.01Z</time></trkpt><trkpt lat="44.6503567" lon="9.6064783"><ele>706.25</ele><time>2026-04-26T10:00:37.009Z</time></trkpt><trkpt lat="44.6504667" lon="9.6063717"><ele>706.5</ele><time>2026-04-26T10:00:38.009Z</time></trkpt><trkpt lat="44.650575" lon="9.6062633"><ele>706.75</ele><time>2026-04-26T10:00:39.009Z</time></trkpt><trkpt lat="44.6506867" lon="9.6061617"><ele>707.0</ele><time>2026-04-26T10:00:40.009Z</time></trkpt><trkpt lat="44.65083" lon="9.6060267"><ele>707.0</ele><time>2026-04-26T10:00:41.01Z</time></trkpt><trkpt lat="44.6509583" lon="9.6058917"><ele>707.0</ele><time>2026-04-26T10:00:42.01Z</time></trkpt><trkpt lat="44.6510983" lon="9.60575"><ele>707.0</ele><time>2026-04-26T10:00:43.01Z</time></trkpt><trkpt lat="44.65123" lon="9.6056217"><ele>707.0</ele><time>2026-04-26T10:00:44.01Z</time></trkpt><trkpt lat="44.6513583" lon="9.6055067"><ele>707.0</ele><time>2026-04-26T10:00:45.009Z</time></trkpt><trkpt lat="44.65148" lon="9.6053967"><ele>707.0</ele><time>2026-04-26T10:00:46.01Z</time></trkpt><trkpt lat="44.6515883" lon="9.6052983"><ele>707.0</ele><time>2026-04-26T10:00:47.009Z</time></trkpt><trkpt lat="44.651695" lon="9.605205"><ele>708.2</ele><time>2026-04-26T10:00:48.01Z</time></trkpt><trkpt lat="44.6518033" lon="9.6050983"><ele>709.4000000000001</ele><time>2026-04-26T10:00:49.01Z</time></trkpt><trkpt lat="44.6518917" lon="9.605005"><ele>710.5999999999999</ele><time>2026-04-26T10:00:50.01Z</time></trkpt><trkpt lat="44.651955" lon="9.6049067"><ele>711.8</ele><time>2026-04-26T10:00:51.009Z</time></trkpt><trkpt lat="44.6520183" lon="9.60481"><ele>713.0</ele><time>2026-04-26T10:00:52.009Z</time></trkpt><trkpt lat="44.6520717" lon="9.6047017"><ele>713.0</ele><time>2026-04-26T10:00:53.009Z</time></trkpt><trkpt lat="44.65211" lon="9.6046017"><ele>713.0</ele><time>2026-04-26T10:00:54.01Z</time></trkpt><trkpt lat="44.652135" lon="9.6044883"><ele>713.0</ele><time>2026-04-26T10:00:55.01Z</time></trkpt><trkpt lat="44.652155" lon="9.6043783"><ele>713.0</ele><time>2026-04-26T10:00:56.01Z</time></trkpt><trkpt lat="44.6521733" lon="9.6042867"><ele>713.0</ele><time>2026-04-26T10:00:57.01Z</time></trkpt><trkpt lat="44.65226" lon="9.6041933"><ele>713.0</ele><time>2026-04-26T10:00:59.009Z</time></trkpt><trkpt lat="44.6523733" lon="9.6041233"><ele>709.5</ele><time>2026-04-26T10:01:01.009Z</time></trkpt><trkpt lat="44.6524383" lon="9.6040683"><ele>706.0</ele><time>2026-04-26T10:01:02.009Z</time></trkpt><trkpt lat="44.6525033" lon="9.604005"><ele>702.5</ele><time>2026-04-26T10:01:03.01Z</time></trkpt><trkpt lat="44.6525683" lon="9.6039433"><ele>699.0</ele><time>2026-04-26T10:01:04.009Z</time></trkpt><trkpt lat="44.6526333" lon="9.603885"><ele>695.5</ele><time>2026-04-26T10:01:05.01Z</time></trkpt><trkpt lat="44.6527083" lon="9.603825"><ele>692.0</ele><time>2026-04-26T10:01:06.009Z</time></trkpt><trkpt lat="44.6527767" lon="9.6037717"><ele>691.8333333333333</ele><time>2026-04-26T10:01:07.009Z</time></trkpt><trkpt lat="44.65284" lon="9.603715"><ele>691.6666666666666</ele><time>2026-04-26T10:01:08.009Z</time></trkpt><trkpt lat="44.652915" lon="9.6036217"><ele>691.5</ele><time>2026-04-26T10:01:10.009Z</time></trkpt><trkpt lat="44.6529633" lon="9.6035383"><ele>691.3333333333334</ele><time>2026-04-26T10:01:12.01Z</time></trkpt><trkpt lat="44.6530167" lon="9.6034783"><ele>691.1666666666667</ele><time>2026-04-26T10:01:14.009Z</time></trkpt><trkpt lat="44.6530933" lon="9.6034"><ele>691.0</ele><time>2026-04-26T10:01:17.01Z</time></trkpt><trkpt lat="44.6531567" lon="9.6033017"><ele>691.0</ele><time>2026-04-26T10:01:19.009Z</time></trkpt><trkpt lat="44.65328" lon="9.6032183"><ele>691.0</ele><time>2026-04-26T10:01:21.009Z</time></trkpt><trkpt lat="44.6533617" lon="9.603185"><ele>691.0</ele><time>2026-04-26T10:01:22.009Z</time></trkpt><trkpt lat="44.6534633" lon="9.6031283"><ele>691.0</ele><time>2026-04-26T10:01:23.009Z</time></trkpt><trkpt lat="44.6535633" lon="9.6030833"><ele>691.0</ele><time>2026-04-26T10:01:24.009Z</time></trkpt><trkpt lat="44.6536683" lon="9.6030467"><ele>693.4</ele><time>2026-04-26T10:01:25.01Z</time></trkpt><trkpt lat="44.6537617" lon="9.6030333"><ele>695.8</ele><time>2026-04-26T10:01:26.009Z</time></trkpt><trkpt lat="44.6538633" lon="9.6030417"><ele>698.1999999999999</ele><time>2026-04-26T10:01:27.009Z</time></trkpt><trkpt lat="44.653975" lon="9.6030683"><ele>700.5999999999999</ele><time>2026-04-26T10:01:28.01Z</time></trkpt><trkpt lat="44.6540833" lon="9.603085"><ele>703.0</ele><time>2026-04-26T10:01:29.009Z</time></trkpt><trkpt lat="44.654205" lon="9.6031317"><ele>703.0</ele><time>2026-04-26T10:01:30.01Z</time></trkpt><trkpt lat="44.6543283" lon="9.603205"><ele>703.0</ele><time>2026-04-26T10:01:31.009Z</time></trkpt><trkpt lat="44.6544583" lon="9.6032867"><ele>703.0</ele><time>2026-04-26T10:01:32.009Z</time></trkpt><trkpt lat="44.65457" lon="9.60334"><ele>703.0</ele><time>2026-04-26T10:01:33.009Z</time></trkpt><trkpt lat="44.6546683" lon="9.6033717"><ele>705.0</ele><time>2026-04-26T10:01:34.01Z</time></trkpt><trkpt lat="44.6547717" lon="9.60337"><ele>707.0</ele><time>2026-04-26T10:01:35.01Z</time></trkpt><trkpt lat="44.654875" lon="9.6033317"><ele>709.0</ele><time>2026-04-26T10:01:36.01Z</time></trkpt><trkpt lat="44.6549683" lon="9.6032667"><ele>711.0</ele><time>2026-04-26T10:01:37.008Z</time></trkpt><trkpt lat="44.655045" lon="9.6031633"><ele>713.0</ele><time>2026-04-26T10:01:38.009Z</time></trkpt><trkpt lat="44.6551117" lon="9.6030317"><ele>713.0</ele><time>2026-04-26T10:01:39.008Z</time></trkpt><trkpt lat="44.6551733" lon="9.602885"><ele>713.0</ele><time>2026-04-26T10:01:40.008Z</time></trkpt><trkpt lat="44.6552183" lon="9.6027333"><ele>713.0</ele><time>2026-04-26T10:01:41.008Z</time></trkpt><trkpt lat="44.6552817" lon="9.6026033"><ele>713.0</ele><time>2026-04-26T10:01:42.009Z</time></trkpt><trkpt lat="44.655345" lon="9.6024683"><ele>713.5</ele><time>2026-04-26T10:01:43.008Z</time></trkpt><trkpt lat="44.655395" lon="9.602345"><ele>714.0</ele><time>2026-04-26T10:01:44.009Z</time></trkpt><trkpt lat="44.655445" lon="9.60223"><ele>714.5</ele><time>2026-04-26T10:01:45.008Z</time></trkpt><trkpt lat="44.6555017" lon="9.60215"><ele>715.0</ele><time>2026-04-26T10:01:46.009Z</time></trkpt><trkpt lat="44.6555533" lon="9.6020783"><ele>715.5</ele><time>2026-04-26T10:01:47.009Z</time></trkpt><trkpt lat="44.655605" lon="9.6020183"><ele>716.0</ele><time>2026-04-26T10:01:48.008Z</time></trkpt><trkpt lat="44.6557233" lon="9.601955"><ele>716.0</ele><time>2026-04-26T10:01:50.009Z</time></trkpt><trkpt lat="44.655855" lon="9.6019917"><ele>716.0</ele><time>2026-04-26T10:01:52.008Z</time></trkpt><trkpt lat="44.65594" lon="9.6020083"><ele>716.0</ele><time>2026-04-26T10:01:53.009Z</time></trkpt><trkpt lat="44.6560117" lon="9.601995"><ele>716.0</ele><time>2026-04-26T10:01:54.008Z</time></trkpt><trkpt lat="44.6561133" lon="9.6018983"><ele>716.0</ele><time>2026-04-26T10:01:56.008Z</time></trkpt><trkpt lat="44.65617" lon="9.6018217"><ele>717.5</ele><time>2026-04-26T10:01:57.008Z</time></trkpt><trkpt lat="44.6562217" lon="9.6017133"><ele>719.0</ele><time>2026-04-26T10:01:58.008Z</time></trkpt><trkpt lat="44.656275" lon="9.601625"><ele>720.5</ele><time>2026-04-26T10:01:59.008Z</time></trkpt><trkpt lat="44.6563233" lon="9.6015267"><ele>722.0</ele><time>2026-04-26T10:02:00.008Z</time></trkpt><trkpt lat="44.6563767" lon="9.6014283"><ele>723.5</ele><time>2026-04-26T10:02:01.009Z</time></trkpt><trkpt lat="44.6564367" lon="9.6013267"><ele>725.0</ele><time>2026-04-26T10:02:02.009Z</time></trkpt><trkpt lat="44.6565083" lon="9.6012317"><ele>725.8</ele><time>2026-04-26T10:02:03.009Z</time></trkpt><trkpt lat="44.656595" lon="9.60115"><ele>726.6</ele><time>2026-04-26T10:02:04.009Z</time></trkpt><trkpt lat="44.6566783" lon="9.6010733"><ele>727.4000000000001</ele><time>2026-04-26T10:02:05.009Z</time></trkpt><trkpt lat="44.6567733" lon="9.6010283"><ele>728.2</ele><time>2026-04-26T10:02:06.009Z</time></trkpt><trkpt lat="44.65688" lon="9.6010183"><ele>729.0</ele><time>2026-04-26T10:02:07.009Z</time></trkpt><trkpt lat="44.65698" lon="9.6009967"><ele>729.0</ele><time>2026-04-26T10:02:08.009Z</time></trkpt><trkpt lat="44.6570817" lon="9.6009333"><ele>729.0</ele><time>2026-04-26T10:02:09.009Z</time></trkpt><trkpt lat="44.65719" lon="9.6008467"><ele>729.0</ele><time>2026-04-26T10:02:10.009Z</time></trkpt><trkpt lat="44.6572883" lon="9.6007567"><ele>729.0</ele><time>2026-04-26T10:02:11.009Z</time></trkpt><trkpt lat="44.657375" lon="9.6006717"><ele>729.0</ele><time>2026-04-26T10:02:12.008Z</time></trkpt><trkpt lat="44.65747" lon="9.6006133"><ele>729.0</ele><time>2026-04-26T10:02:13.009Z</time></trkpt><trkpt lat="44.6575667" lon="9.60054"><ele>729.0</ele><time>2026-04-26T10:02:14.009Z</time></trkpt><trkpt lat="44.657675" lon="9.60054"><ele>729.0</ele><time>2026-04-26T10:02:15.009Z</time></trkpt><trkpt lat="44.6577967" lon="9.60056"><ele>729.0</ele><time>2026-04-26T10:02:16.009Z</time></trkpt><trkpt lat="44.6579167" lon="9.6005767"><ele>732.5</ele><time>2026-04-26T10:02:17.009Z</time></trkpt><trkpt lat="44.658025" lon="9.6005633"><ele>736.0</ele><time>2026-04-26T10:02:18.008Z</time></trkpt><trkpt lat="44.6581183" lon="9.600485"><ele>739.5</ele><time>2026-04-26T10:02:19.008Z</time></trkpt><trkpt lat="44.6581933" lon="9.6003617"><ele>743.0</ele><time>2026-04-26T10:02:20.008Z</time></trkpt><trkpt lat="44.6582533" lon="9.6002167"><ele>743.0</ele><time>2026-04-26T10:02:21.008Z</time></trkpt><trkpt lat="44.6583" lon="9.600035"><ele>743.0</ele><time>2026-04-26T10:02:22.008Z</time></trkpt><trkpt lat="44.65835" lon="9.5998617"><ele>743.0</ele><time>2026-04-26T10:02:23.008Z</time></trkpt><trkpt lat="44.658345" lon="9.599625"><ele>743.0</ele><time>2026-04-26T10:02:24.009Z</time></trkpt><trkpt lat="44.6583817" lon="9.5994583"><ele>740.5</ele><time>2026-04-26T10:02:25.008Z</time></trkpt><trkpt lat="44.658445" lon="9.59931"><ele>738.0</ele><time>2026-04-26T10:02:26.008Z</time></trkpt><trkpt lat="44.6585117" lon="9.5991417"><ele>735.5</ele><time>2026-04-26T10:02:27.009Z</time></trkpt><trkpt lat="44.6585767" lon="9.5989517"><ele>733.0</ele><time>2026-04-26T10:02:28.008Z</time></trkpt><trkpt lat="44.6586433" lon="9.59876"><ele>742.0</ele><time>2026-04-26T10:02:29.008Z</time></trkpt><trkpt lat="44.6587017" lon="9.59856"><ele>751.0</ele><time>2026-04-26T10:02:30.008Z</time></trkpt><trkpt lat="44.6587367" lon="9.59836"><ele>760.0</ele><time>2026-04-26T10:02:31.009Z</time></trkpt><trkpt lat="44.6587367" lon="9.598155"><ele>769.0</ele><time>2026-04-26T10:02:32.008Z</time></trkpt><trkpt lat="44.6587517" lon="9.597955"><ele>765.75</ele><time>2026-04-26T10:02:33.008Z</time></trkpt><trkpt lat="44.6588" lon="9.5977717"><ele>762.5</ele><time>2026-04-26T10:02:34.008Z</time></trkpt><trkpt lat="44.6588717" lon="9.597615"><ele>759.25</ele><time>2026-04-26T10:02:35.008Z</time></trkpt><trkpt lat="44.6589333" lon="9.5974433"><ele>756.0</ele><time>2026-04-26T10:02:36.009Z</time></trkpt><trkpt lat="44.6589817" lon="9.597265"><ele>756.0</ele><time>2026-04-26T10:02:37.008Z</time></trkpt><trkpt lat="44.6590467" lon="9.5971083"><ele>756.0</ele><time>2026-04-26T10:02:38.009Z</time></trkpt><trkpt lat="44.6590967" lon="9.5970083"><ele>756.0</ele><time>2026-04-26T10:02:39.008Z</time></trkpt><trkpt lat="44.6591583" lon="9.5969017"><ele>756.0</ele><time>2026-04-26T10:02:40.008Z</time></trkpt><trkpt lat="44.6592517" lon="9.5968233"><ele>756.0</ele><time>2026-04-26T10:02:41.009Z</time></trkpt><trkpt lat="44.6593583" lon="9.5967517"><ele>753.4</ele><time>2026-04-26T10:02:42.008Z</time></trkpt><trkpt lat="44.6594717" lon="9.5966933"><ele>750.8</ele><time>2026-04-26T10:02:43.008Z</time></trkpt><trkpt lat="44.6595783" lon="9.5966467"><ele>748.1999999999999</ele><time>2026-04-26T10:02:44.009Z</time></trkpt><trkpt lat="44.6596783" lon="9.5966217"><ele>745.5999999999999</ele><time>2026-04-26T10:02:45.008Z</time></trkpt><trkpt lat="44.6597817" lon="9.5966317"><ele>743.0</ele><time>2026-04-26T10:02:46.009Z</time></trkpt><trkpt lat="44.65988" lon="9.5966617"><ele>743.0</ele><time>2026-04-26T10:02:47.009Z</time></trkpt><trkpt lat="44.660005" lon="9.596745"><ele>743.0</ele><time>2026-04-26T10:02:48.009Z</time></trkpt><trkpt lat="44.6600983" lon="9.5968533"><ele>743.0</ele><time>2026-04-26T10:02:49.008Z</time></trkpt><trkpt lat="44.6601917" lon="9.5970033"><ele>743.0</ele><time>2026-04-26T10:02:50.009Z</time></trkpt><trkpt lat="44.66029" lon="9.5971683"><ele>745.6666666666666</ele><time>2026-04-26T10:02:51.008Z</time></trkpt><trkpt lat="44.6604033" lon="9.5973317"><ele>748.3333333333334</ele><time>2026-04-26T10:02:52.008Z</time></trkpt><trkpt lat="44.6605283" lon="9.5974833"><ele>751.0</ele><time>2026-04-26T10:02:53.008Z</time></trkpt><trkpt lat="44.6606383" lon="9.59761"><ele>751.0</ele><time>2026-04-26T10:02:54.008Z</time></trkpt><trkpt lat="44.6607217" lon="9.5977317"><ele>751.0</ele><time>2026-04-26T10:02:55.009Z</time></trkpt><trkpt lat="44.6608167" lon="9.5978417"><ele>751.0</ele><time>2026-04-26T10:02:56.008Z</time></trkpt><trkpt lat="44.660885" lon="9.5979383"><ele>751.0</ele><time>2026-04-26T10:02:57.009Z</time></trkpt><trkpt lat="44.6609633" lon="9.5980183"><ele>751.0</ele><time>2026-04-26T10:02:58.008Z</time></trkpt><trkpt lat="44.6610517" lon="9.5981067"><ele>750.8</ele><time>2026-04-26T10:02:59.009Z</time></trkpt><trkpt lat="44.66111" lon="9.5981883"><ele>750.5999999999999</ele><time>2026-04-26T10:03:00.008Z</time></trkpt><trkpt lat="44.6611633" lon="9.598265"><ele>750.4</ele><time>2026-04-26T10:03:01.008Z</time></trkpt><trkpt lat="44.6612217" lon="9.598355"><ele>750.2</ele><time>2026-04-26T10:03:02.008Z</time></trkpt><trkpt lat="44.6612833" lon="9.5984567"><ele>750.0</ele><time>2026-04-26T10:03:03.009Z</time></trkpt><trkpt lat="44.6613683" lon="9.5985833"><ele>752.6666666666666</ele><time>2026-04-26T10:03:04.009Z</time></trkpt><trkpt lat="44.6614833" lon="9.5987517"><ele>755.3333333333333</ele><time>2026-04-26T10:03:05.008Z</time></trkpt><trkpt lat="44.6615867" lon="9.5989083"><ele>758.0</ele><time>2026-04-26T10:03:06.009Z</time></trkpt><trkpt lat="44.6616717" lon="9.5990567"><ele>758.0</ele><time>2026-04-26T10:03:07.009Z</time></trkpt><trkpt lat="44.6617617" lon="9.5991967"><ele>758.0</ele><time>2026-04-26T10:03:08.009Z</time></trkpt><trkpt lat="44.66185" lon="9.5993583"><ele>758.0</ele><time>2026-04-26T10:03:09.009Z</time></trkpt><trkpt lat="44.6619517" lon="9.5995283"><ele>758.0</ele><time>2026-04-26T10:03:10.009Z</time></trkpt><trkpt lat="44.6620533" lon="9.5997"><ele>757.6666666666666</ele><time>2026-04-26T10:03:11.008Z</time></trkpt><trkpt lat="44.662155" lon="9.5998817"><ele>757.3333333333334</ele><time>2026-04-26T10:03:12.008Z</time></trkpt><trkpt lat="44.66226" lon="9.6000567"><ele>757.0</ele><time>2026-04-26T10:03:13.008Z</time></trkpt><trkpt lat="44.6623583" lon="9.600225"><ele>759.5</ele><time>2026-04-26T10:03:14.008Z</time></trkpt><trkpt lat="44.6624383" lon="9.6003817"><ele>762.0</ele><time>2026-04-26T10:03:15.009Z</time></trkpt><trkpt lat="44.6625217" lon="9.6005317"><ele>764.5</ele><time>2026-04-26T10:03:16.008Z</time></trkpt><trkpt lat="44.662605" lon="9.6006617"><ele>767.0</ele><time>2026-04-26T10:03:17.008Z</time></trkpt><trkpt lat="44.6626767" lon="9.6007883"><ele>767.0</ele><time>2026-04-26T10:03:18.009Z</time></trkpt><trkpt lat="44.662725" lon="9.600885"><ele>767.0</ele><time>2026-04-26T10:03:19.008Z</time></trkpt><trkpt lat="44.6627783" lon="9.60097"><ele>767.0</ele><time>2026-04-26T10:03:20.009Z</time></trkpt><trkpt lat="44.6628283" lon="9.601055"><ele>767.0</ele><time>2026-04-26T10:03:21.008Z</time></trkpt><trkpt lat="44.6628683" lon="9.6011333"><ele>767.0</ele><time>2026-04-26T10:03:22.009Z</time></trkpt><trkpt lat="44.6629133" lon="9.601225"><ele>767.0</ele><time>2026-04-26T10:03:23.008Z</time></trkpt><trkpt lat="44.6629617" lon="9.6013333"><ele>766.6</ele><time>2026-04-26T10:03:24.009Z</time></trkpt><trkpt lat="44.6630033" lon="9.6014533"><ele>766.2</ele><time>2026-04-26T10:03:25.009Z</time></trkpt><trkpt lat="44.6630317" lon="9.60158"><ele>765.8</ele><time>2026-04-26T10:03:26.008Z</time></trkpt><trkpt lat="44.66303" lon="9.6017483"><ele>765.4</ele><time>2026-04-26T10:03:27.009Z</time></trkpt><trkpt lat="44.663045" lon="9.60193"><ele>765.0</ele><time>2026-04-26T10:03:28.008Z</time></trkpt><trkpt lat="44.6630483" lon="9.6021117"><ele>765.0</ele><time>2026-04-26T10:03:29.009Z</time></trkpt><trkpt lat="44.6630333" lon="9.6023217"><ele>765.0</ele><time>2026-04-26T10:03:30.008Z</time></trkpt><trkpt lat="44.66301" lon="9.60253"><ele>765.0</ele><time>2026-04-26T10:03:31.008Z</time></trkpt><trkpt lat="44.6629983" lon="9.6027183"><ele>765.0</ele><time>2026-04-26T10:03:32.009Z</time></trkpt><trkpt lat="44.6629933" lon="9.60289"><ele>764.75</ele><time>2026-04-26T10:03:33.009Z</time></trkpt><trkpt lat="44.6629867" lon="9.60306"><ele>764.5</ele><time>2026-04-26T10:03:34.009Z</time></trkpt><trkpt lat="44.66298" lon="9.6032317"><ele>764.25</ele><time>2026-04-26T10:03:35.009Z</time></trkpt><trkpt lat="44.6629783" lon="9.603425"><ele>764.0</ele><time>2026-04-26T10:03:36.008Z</time></trkpt><trkpt lat="44.662975" lon="9.6036233"><ele>764.0</ele><time>2026-04-26T10:03:37.008Z</time></trkpt><trkpt lat="44.6629667" lon="9.6038267"><ele>764.0</ele><time>2026-04-26T10:03:38.008Z</time></trkpt><trkpt lat="44.6629583" lon="9.6040433"><ele>764.0</ele><time>2026-04-26T10:03:39.008Z</time></trkpt><trkpt lat="44.6629683" lon="9.6042533"><ele>764.0</ele><time>2026-04-26T10:03:40.009Z</time></trkpt><trkpt lat="44.6629783" lon="9.6044517"><ele>764.75</ele><time>2026-04-26T10:03:41.009Z</time></trkpt><trkpt lat="44.66297" lon="9.6046533"><ele>765.5</ele><time>2026-04-26T10:03:42.009Z</time></trkpt><trkpt lat="44.6629917" lon="9.60483"><ele>766.25</ele><time>2026-04-26T10:03:43.009Z</time></trkpt><trkpt lat="44.6630083" lon="9.6050083"><ele>767.0</ele><time>2026-04-26T10:03:44.008Z</time></trkpt><trkpt lat="44.6630117" lon="9.6051883"><ele>770.0</ele><time>2026-04-26T10:03:45.008Z</time></trkpt><trkpt lat="44.6630267" lon="9.6053633"><ele>773.0</ele><time>2026-04-26T10:03:46.009Z</time></trkpt><trkpt lat="44.66306" lon="9.605515"><ele>776.0</ele><time>2026-04-26T10:03:47.008Z</time></trkpt><trkpt lat="44.66312" lon="9.60568"><ele>779.0</ele><time>2026-04-26T10:03:48.008Z</time></trkpt><trkpt lat="44.6632133" lon="9.605785"><ele>779.0</ele><time>2026-04-26T10:03:49.008Z</time></trkpt><trkpt lat="44.663305" lon="9.605875"><ele>779.0</ele><time>2026-04-26T10:03:50.009Z</time></trkpt><trkpt lat="44.663415" lon="9.6059333"><ele>779.0</ele><time>2026-04-26T10:03:51.009Z</time></trkpt><trkpt lat="44.663525" lon="9.6059717"><ele>779.0</ele><time>2026-04-26T10:03:52.009Z</time></trkpt><trkpt lat="44.6636267" lon="9.606015"><ele>779.0</ele><time>2026-04-26T10:03:53.009Z</time></trkpt><trkpt lat="44.6637183" lon="9.6060633"><ele>776.0</ele><time>2026-04-26T10:03:54.008Z</time></trkpt><trkpt lat="44.6637783" lon="9.6061783"><ele>773.0</ele><time>2026-04-26T10:03:55.008Z</time></trkpt><trkpt lat="44.6638183" lon="9.606315"><ele>770.0</ele><time>2026-04-26T10:03:56.008Z</time></trkpt><trkpt lat="44.663835" lon="9.6064817"><ele>767.0</ele><time>2026-04-26T10:03:57.008Z</time></trkpt><trkpt lat="44.66384" lon="9.6066767"><ele>767.0</ele><time>2026-04-26T10:03:58.008Z</time></trkpt><trkpt lat="44.663865" lon="9.6068483"><ele>767.0</ele><time>2026-04-26T10:03:59.009Z</time></trkpt><trkpt lat="44.663915" lon="9.607"><ele>767.0</ele><time>2026-04-26T10:04:00.009Z</time></trkpt><trkpt lat="44.6639617" lon="9.60714"><ele>767.0</ele><time>2026-04-26T10:04:01.009Z</time></trkpt><trkpt lat="44.66404" lon="9.6072567"><ele>768.0</ele><time>2026-04-26T10:04:02.008Z</time></trkpt><trkpt lat="44.66412" lon="9.60735"><ele>769.0</ele><time>2026-04-26T10:04:03.009Z</time></trkpt><trkpt lat="44.6642467" lon="9.6073467"><ele>770.0</ele><time>2026-04-26T10:04:04.009Z</time></trkpt><trkpt lat="44.6643817" lon="9.6073383"><ele>771.0</ele><time>2026-04-26T10:04:05.008Z</time></trkpt><trkpt lat="44.6645117" lon="9.6073267"><ele>771.0</ele><time>2026-04-26T10:04:06.008Z</time></trkpt><trkpt lat="44.6646267" lon="9.6073367"><ele>771.0</ele><time>2026-04-26T10:04:07.009Z</time></trkpt><trkpt lat="44.66472" lon="9.6074117"><ele>771.0</ele><time>2026-04-26T10:04:08.008Z</time></trkpt><trkpt lat="44.6648" lon="9.60747"><ele>771.0</ele><time>2026-04-26T10:04:09.009Z</time></trkpt><trkpt lat="44.6648833" lon="9.6075833"><ele>771.0</ele><time>2026-04-26T10:04:10.009Z</time></trkpt><trkpt lat="44.6649717" lon="9.6077283"><ele>774.25</ele><time>2026-04-26T10:04:11.008Z</time></trkpt><trkpt lat="44.6650483" lon="9.607855"><ele>777.5</ele><time>2026-04-26T10:04:12.009Z</time></trkpt><trkpt lat="44.6651183" lon="9.607995"><ele>780.75</ele><time>2026-04-26T10:04:13.009Z</time></trkpt><trkpt lat="44.6651733" lon="9.608125"><ele>784.0</ele><time>2026-04-26T10:04:14.009Z</time></trkpt><trkpt lat="44.6651117" lon="9.6082617"><ele>784.0</ele><time>2026-04-26T10:04:15.009Z</time></trkpt><trkpt lat="44.6650683" lon="9.6084133"><ele>784.0</ele><time>2026-04-26T10:04:16.008Z</time></trkpt><trkpt lat="44.6650033" lon="9.60856"><ele>784.0</ele><time>2026-04-26T10:04:17.009Z</time></trkpt><trkpt lat="44.6649633" lon="9.60869"><ele>784.0</ele><time>2026-04-26T10:04:18.009Z</time></trkpt><trkpt lat="44.664945" lon="9.608825"><ele>784.0</ele><time>2026-04-26T10:04:19.008Z</time></trkpt><trkpt lat="44.6649583" lon="9.6089517"><ele>785.5</ele><time>2026-04-26T10:04:20.008Z</time></trkpt><trkpt lat="44.6650017" lon="9.609065"><ele>787.0</ele><time>2026-04-26T10:04:21.008Z</time></trkpt><trkpt lat="44.66515" lon="9.609145"><ele>788.5</ele><time>2026-04-26T10:04:22.009Z</time></trkpt><trkpt lat="44.6652483" lon="9.6092417"><ele>790.0</ele><time>2026-04-26T10:04:23.008Z</time></trkpt><trkpt lat="44.66533" lon="9.6093317"><ele>785.4</ele><time>2026-04-26T10:04:24.009Z</time></trkpt><trkpt lat="44.6653967" lon="9.6094417"><ele>780.8</ele><time>2026-04-26T10:04:25.008Z</time></trkpt><trkpt lat="44.6654333" lon="9.60955"><ele>776.2</ele><time>2026-04-26T10:04:26.009Z</time></trkpt><trkpt lat="44.665445" lon="9.6096817"><ele>771.6</ele><time>2026-04-26T10:04:27.008Z</time></trkpt><trkpt lat="44.665435" lon="9.6098433"><ele>767.0</ele><time>2026-04-26T10:04:28.009Z</time></trkpt><trkpt lat="44.6654017" lon="9.61001"><ele>764.3333333333333</ele><time>2026-04-26T10:04:29.009Z</time></trkpt><trkpt lat="44.665325" lon="9.6102117"><ele>761.6666666666666</ele><time>2026-04-26T10:04:30.009Z</time></trkpt><trkpt lat="44.66524" lon="9.610435"><ele>759.0</ele><time>2026-04-26T10:04:31.009Z</time></trkpt><trkpt lat="44.6651633" lon="9.6106333"><ele>763.75</ele><time>2026-04-26T10:04:32.009Z</time></trkpt><trkpt lat="44.6650967" lon="9.6108183"><ele>768.5</ele><time>2026-04-26T10:04:33.008Z</time></trkpt><trkpt lat="44.6650217" lon="9.6109833"><ele>773.25</ele><time>2026-04-26T10:04:34.008Z</time></trkpt><trkpt lat="44.6649467" lon="9.6111183"><ele>778.0</ele><time>2026-04-26T10:04:35.008Z</time></trkpt><trkpt lat="44.66488" lon="9.6112483"><ele>777.9999999999999</ele><time>2026-04-26T10:04:36.008Z</time></trkpt><trkpt lat="44.6648183" lon="9.611365"><ele>778.0</ele><time>2026-04-26T10:04:37.008Z</time></trkpt><trkpt lat="44.6647583" lon="9.6114567"><ele>778.0</ele><time>2026-04-26T10:04:38.009Z</time></trkpt><trkpt lat="44.664705" lon="9.6115117"><ele>778.0</ele><time>2026-04-26T10:04:39.009Z</time></trkpt><trkpt lat="44.6646333" lon="9.61153"><ele>777.9999999999999</ele><time>2026-04-26T10:04:41.009Z</time></trkpt><trkpt lat="44.6645733" lon="9.61146"><ele>778.0</ele><time>2026-04-26T10:04:44.008Z</time></trkpt><trkpt lat="44.6644833" lon="9.6114483"><ele>782.4</ele><time>2026-04-26T10:04:46.009Z</time></trkpt><trkpt lat="44.6643533" lon="9.6114833"><ele>786.8</ele><time>2026-04-26T10:04:48.009Z</time></trkpt><trkpt lat="44.6642733" lon="9.6115017"><ele>791.2</ele><time>2026-04-26T10:04:49.008Z</time></trkpt><trkpt lat="44.664185" lon="9.6115483"><ele>795.6</ele><time>2026-04-26T10:04:50.008Z</time></trkpt><trkpt lat="44.6640967" lon="9.6116217"><ele>800.0</ele><time>2026-04-26T10:04:51.009Z</time></trkpt><trkpt lat="44.6640217" lon="9.6117183"><ele>800.0</ele><time>2026-04-26T10:04:52.009Z</time></trkpt><trkpt lat="44.6639867" lon="9.611855"><ele>800.0</ele><time>2026-04-26T10:04:53.008Z</time></trkpt><trkpt lat="44.6639483" lon="9.61202"><ele>800.0</ele><time>2026-04-26T10:04:54.008Z</time></trkpt><trkpt lat="44.6638783" lon="9.6121467"><ele>800.0</ele><time>2026-04-26T10:04:55.009Z</time></trkpt><trkpt lat="44.6638017" lon="9.612265"><ele>797.0</ele><time>2026-04-26T10:04:56.008Z</time></trkpt><trkpt lat="44.6637583" lon="9.6124133"><ele>794.0</ele><time>2026-04-26T10:04:57.008Z</time></trkpt><trkpt lat="44.663725" lon="9.6125617"><ele>791.0</ele><time>2026-04-26T10:04:58.008Z</time></trkpt><trkpt lat="44.6637133" lon="9.6127383"><ele>788.0</ele><time>2026-04-26T10:04:59.008Z</time></trkpt><trkpt lat="44.6637183" lon="9.6129183"><ele>786.25</ele><time>2026-04-26T10:05:00.009Z</time></trkpt><trkpt lat="44.663705" lon="9.6131067"><ele>784.5</ele><time>2026-04-26T10:05:01.008Z</time></trkpt><trkpt lat="44.66368" lon="9.6132917"><ele>782.75</ele><time>2026-04-26T10:05:02.008Z</time></trkpt><trkpt lat="44.6636383" lon="9.6134933"><ele>781.0</ele><time>2026-04-26T10:05:03.009Z</time></trkpt><trkpt lat="44.6636033" lon="9.6136717"><ele>790.25</ele><time>2026-04-26T10:05:04.008Z</time></trkpt><trkpt lat="44.6635617" lon="9.6138367"><ele>799.5</ele><time>2026-04-26T10:05:05.008Z</time></trkpt><trkpt lat="44.6635383" lon="9.6139933"><ele>808.75</ele><time>2026-04-26T10:05:06.008Z</time></trkpt><trkpt lat="44.6635317" lon="9.6141533"><ele>818.0</ele><time>2026-04-26T10:05:07.008Z</time></trkpt><trkpt lat="44.66356" lon="9.6143167"><ele>818.0</ele><time>2026-04-26T10:05:08.008Z</time></trkpt><trkpt lat="44.6636" lon="9.6144633"><ele>818.0</ele><time>2026-04-26T10:05:09.009Z</time></trkpt><trkpt lat="44.6636667" lon="9.6145917"><ele>818.0</ele><time>2026-04-26T10:05:10.008Z</time></trkpt><trkpt lat="44.6638217" lon="9.614695"><ele>818.0</ele><time>2026-04-26T10:05:11.008Z</time></trkpt><trkpt lat="44.66394" lon="9.6148117"><ele>810.3333333333334</ele><time>2026-04-26T10:05:12.008Z</time></trkpt><trkpt lat="44.6640617" lon="9.6149233"><ele>802.6666666666667</ele><time>2026-04-26T10:05:13.008Z</time></trkpt><trkpt lat="44.664185" lon="9.6150383"><ele>795.0</ele><time>2026-04-26T10:05:14.009Z</time></trkpt><trkpt lat="44.664315" lon="9.61517"><ele>795.0</ele><time>2026-04-26T10:05:15.009Z</time></trkpt><trkpt lat="44.6644217" lon="9.6152933"><ele>795.0</ele><time>2026-04-26T10:05:16.008Z</time></trkpt><trkpt lat="44.66452" lon="9.6154483"><ele>795.0</ele><time>2026-04-26T10:05:17.009Z</time></trkpt><trkpt lat="44.6646033" lon="9.6156083"><ele>795.0</ele><time>2026-04-26T10:05:18.009Z</time></trkpt><trkpt lat="44.6646917" lon="9.6157633"><ele>794.0</ele><time>2026-04-26T10:05:19.009Z</time></trkpt><trkpt lat="44.6647833" lon="9.61593"><ele>793.0</ele><time>2026-04-26T10:05:20.009Z</time></trkpt><trkpt lat="44.6648833" lon="9.616075"><ele>792.0</ele><time>2026-04-26T10:05:21.008Z</time></trkpt><trkpt lat="44.66497" lon="9.6162167"><ele>791.0</ele><time>2026-04-26T10:05:22.008Z</time></trkpt><trkpt lat="44.6650483" lon="9.616355"><ele>793.0</ele><time>2026-04-26T10:05:23.009Z</time></trkpt><trkpt lat="44.6651217" lon="9.616515"><ele>795.0</ele><time>2026-04-26T10:05:24.008Z</time></trkpt><trkpt lat="44.6651783" lon="9.6166667"><ele>797.0</ele><time>2026-04-26T10:05:25.008Z</time></trkpt><trkpt lat="44.66523" lon="9.6168267"><ele>799.0</ele><time>2026-04-26T10:05:26.008Z</time></trkpt><trkpt lat="44.6652333" lon="9.6170167"><ele>800.0</ele><time>2026-04-26T10:05:27.009Z</time></trkpt><trkpt lat="44.665255" lon="9.617175"><ele>801.0</ele><time>2026-04-26T10:05:28.008Z</time></trkpt><trkpt lat="44.665265" lon="9.6173283"><ele>802.0</ele><time>2026-04-26T10:05:29.008Z</time></trkpt><trkpt lat="44.6652833" lon="9.6174633"><ele>803.0</ele><time>2026-04-26T10:05:30.008Z</time></trkpt><trkpt lat="44.6653017" lon="9.6175733"><ele>804.0</ele><time>2026-04-26T10:05:31.009Z</time></trkpt><trkpt lat="44.6653233" lon="9.6176567"><ele>800.8000000000001</ele><time>2026-04-26T10:05:32.008Z</time></trkpt><trkpt lat="44.66535" lon="9.6177483"><ele>797.6</ele><time>2026-04-26T10:05:34.008Z</time></trkpt><trkpt lat="44.6652967" lon="9.6176467"><ele>794.4</ele><time>2026-04-26T10:05:38.008Z</time></trkpt><trkpt lat="44.6653583" lon="9.6175467"><ele>791.2</ele><time>2026-04-26T10:11:42.008Z</time></trkpt><trkpt lat="44.6654317" lon="9.6176"><ele>788.0</ele><time>2026-04-26T10:12:31.007Z</time></trkpt><trkpt lat="44.6655367" lon="9.6177"><ele>788.0</ele><time>2026-04-26T10:12:33.007Z</time></trkpt><trkpt lat="44.6656" lon="9.6177517"><ele>788.0</ele><time>2026-04-26T10:12:34.007Z</time></trkpt><trkpt lat="44.6656733" lon="9.6178183"><ele>788.0</ele><time>2026-04-26T10:12:35.007Z</time></trkpt><trkpt lat="44.6657583" lon="9.61791"><ele>788.0</ele><time>2026-04-26T10:12:36.008Z</time></trkpt><trkpt lat="44.665835" lon="9.6180167"><ele>788.0</ele><time>2026-04-26T10:12:37.008Z</time></trkpt><trkpt lat="44.6659167" lon="9.6181167"><ele>787.5</ele><time>2026-04-26T10:12:38.008Z</time></trkpt><trkpt lat="44.6659967" lon="9.6182283"><ele>787.0</ele><time>2026-04-26T10:12:39.008Z</time></trkpt><trkpt lat="44.6661033" lon="9.6183533"><ele>786.5</ele><time>2026-04-26T10:12:40.007Z</time></trkpt><trkpt lat="44.666225" lon="9.618475"><ele>786.0</ele><time>2026-04-26T10:12:41.008Z</time></trkpt><trkpt lat="44.6663583" lon="9.6186"><ele>790.0</ele><time>2026-04-26T10:12:42.007Z</time></trkpt><trkpt lat="44.6665217" lon="9.6187383"><ele>794.0</ele><time>2026-04-26T10:12:43.007Z</time></trkpt><trkpt lat="44.6666733" lon="9.61886"><ele>798.0</ele><time>2026-04-26T10:12:44.007Z</time></trkpt><trkpt lat="44.6668317" lon="9.6189517"><ele>797.5</ele><time>2026-04-26T10:12:45.007Z</time></trkpt><trkpt lat="44.666975" lon="9.6190217"><ele>797.0</ele><time>2026-04-26T10:12:46.007Z</time></trkpt><trkpt lat="44.667125" lon="9.619055"><ele>796.5</ele><time>2026-04-26T10:12:47.007Z</time></trkpt><trkpt lat="44.6672683" lon="9.61908"><ele>796.0</ele><time>2026-04-26T10:12:48.006Z</time></trkpt><trkpt lat="44.6674217" lon="9.6190817"><ele>796.0</ele><time>2026-04-26T10:12:49.006Z</time></trkpt><trkpt lat="44.667575" lon="9.61909"><ele>796.0</ele><time>2026-04-26T10:12:50.007Z</time></trkpt><trkpt lat="44.6677367" lon="9.6191167"><ele>796.0</ele><time>2026-04-26T10:12:51.006Z</time></trkpt><trkpt lat="44.6678983" lon="9.61912"><ele>796.3333333333333</ele><time>2026-04-26T10:12:52.007Z</time></trkpt><trkpt lat="44.66806" lon="9.6190983"><ele>796.6666666666667</ele><time>2026-04-26T10:12:53.007Z</time></trkpt><trkpt lat="44.6682233" lon="9.6190583"><ele>797.0</ele><time>2026-04-26T10:12:54.006Z</time></trkpt><trkpt lat="44.6683767" lon="9.61901"><ele>797.0</ele><time>2026-04-26T10:12:55.007Z</time></trkpt><trkpt lat="44.6685233" lon="9.6189583"><ele>797.0</ele><time>2026-04-26T10:12:56.007Z</time></trkpt><trkpt lat="44.66868" lon="9.6189383"><ele>797.0</ele><time>2026-04-26T10:12:57.006Z</time></trkpt><trkpt lat="44.6688383" lon="9.6189217"><ele>797.6666666666667</ele><time>2026-04-26T10:12:58.006Z</time></trkpt><trkpt lat="44.669" lon="9.6189317"><ele>798.3333333333333</ele><time>2026-04-26T10:12:59.006Z</time></trkpt><trkpt lat="44.6691667" lon="9.6189417"><ele>799.0</ele><time>2026-04-26T10:13:00.007Z</time></trkpt><trkpt lat="44.6693383" lon="9.6189483"><ele>794.0</ele><time>2026-04-26T10:13:01.007Z</time></trkpt><trkpt lat="44.6694967" lon="9.6189633"><ele>789.0</ele><time>2026-04-26T10:13:02.007Z</time></trkpt><trkpt lat="44.66967" lon="9.6189967"><ele>784.0</ele><time>2026-04-26T10:13:03.006Z</time></trkpt><trkpt lat="44.6698167" lon="9.619045"><ele>784.0</ele><time>2026-04-26T10:13:04.007Z</time></trkpt><trkpt lat="44.6699567" lon="9.61913"><ele>784.0</ele><time>2026-04-26T10:13:05.006Z</time></trkpt><trkpt lat="44.6700583" lon="9.6192517"><ele>784.0</ele><time>2026-04-26T10:13:06.006Z</time></trkpt><trkpt lat="44.670185" lon="9.6194217"><ele>783.6666666666666</ele><time>2026-04-26T10:13:07.007Z</time></trkpt><trkpt lat="44.6702967" lon="9.619615"><ele>783.3333333333333</ele><time>2026-04-26T10:13:08.007Z</time></trkpt><trkpt lat="44.6703883" lon="9.61979"><ele>783.0</ele><time>2026-04-26T10:13:09.007Z</time></trkpt><trkpt lat="44.670455" lon="9.62004"><ele>783.0</ele><time>2026-04-26T10:13:10.006Z</time></trkpt><trkpt lat="44.6705317" lon="9.6202867"><ele>783.0</ele><time>2026-04-26T10:13:11.006Z</time></trkpt><trkpt lat="44.6706067" lon="9.6205167"><ele>783.0</ele><time>2026-04-26T10:13:12.006Z</time></trkpt><trkpt lat="44.6706983" lon="9.62076"><ele>783.6666666666667</ele><time>2026-04-26T10:13:13.006Z</time></trkpt><trkpt lat="44.67079" lon="9.6209933"><ele>784.3333333333334</ele><time>2026-04-26T10:13:14.007Z</time></trkpt><trkpt lat="44.6708667" lon="9.6212017"><ele>785.0</ele><time>2026-04-26T10:13:15.007Z</time></trkpt><trkpt lat="44.6709267" lon="9.6213933"><ele>786.0</ele><time>2026-04-26T10:13:16.007Z</time></trkpt><trkpt lat="44.67098" lon="9.6215833"><ele>787.0</ele><time>2026-04-26T10:13:17.007Z</time></trkpt><trkpt lat="44.6710383" lon="9.6217483"><ele>788.0</ele><time>2026-04-26T10:13:18.006Z</time></trkpt><trkpt lat="44.6710867" lon="9.62192"><ele>789.0</ele><time>2026-04-26T10:13:19.006Z</time></trkpt><trkpt lat="44.6711233" lon="9.62208"><ele>788.2</ele><time>2026-04-26T10:13:20.007Z</time></trkpt><trkpt lat="44.6711183" lon="9.622205"><ele>787.4000000000001</ele><time>2026-04-26T10:13:21.006Z</time></trkpt><trkpt lat="44.6710883" lon="9.6223183"><ele>786.6</ele><time>2026-04-26T10:13:22.007Z</time></trkpt><trkpt lat="44.67102" lon="9.622445"><ele>785.8</ele><time>2026-04-26T10:13:23.007Z</time></trkpt><trkpt lat="44.6709333" lon="9.6225467"><ele>785.0</ele><time>2026-04-26T10:13:24.007Z</time></trkpt><trkpt lat="44.6708183" lon="9.6226317"><ele>785.0</ele><time>2026-04-26T10:13:25.006Z</time></trkpt><trkpt lat="44.6707267" lon="9.622755"><ele>785.0</ele><time>2026-04-26T10:13:26.006Z</time></trkpt><trkpt lat="44.6707" lon="9.6229383"><ele>785.0</ele><time>2026-04-26T10:13:27.007Z</time></trkpt><trkpt lat="44.6706783" lon="9.6231217"><ele>785.0</ele><time>2026-04-26T10:13:28.007Z</time></trkpt><trkpt lat="44.6706683" lon="9.6233067"><ele>784.0</ele><time>2026-04-26T10:13:29.007Z</time></trkpt><trkpt lat="44.6706733" lon="9.623505"><ele>783.0</ele><time>2026-04-26T10:13:30.007Z</time></trkpt><trkpt lat="44.6706933" lon="9.6237167"><ele>782.0</ele><time>2026-04-26T10:13:31.007Z</time></trkpt><trkpt lat="44.67072" lon="9.6239383"><ele>782.0</ele><time>2026-04-26T10:13:32.006Z</time></trkpt><trkpt lat="44.6707417" lon="9.6241767"><ele>782.0</ele><time>2026-04-26T10:13:33.007Z</time></trkpt><trkpt lat="44.6707683" lon="9.6244"><ele>782.0</ele><time>2026-04-26T10:13:34.006Z</time></trkpt><trkpt lat="44.670805" lon="9.6246033"><ele>784.6666666666667</ele><time>2026-04-26T10:13:35.006Z</time></trkpt><trkpt lat="44.67084" lon="9.624815"><ele>787.3333333333333</ele><time>2026-04-26T10:13:36.006Z</time></trkpt><trkpt lat="44.6708817" lon="9.625025"><ele>790.0</ele><time>2026-04-26T10:13:37.006Z</time></trkpt><trkpt lat="44.6709333" lon="9.62524"><ele>792.3333333333333</ele><time>2026-04-26T10:13:38.007Z</time></trkpt><trkpt lat="44.6709967" lon="9.6254533"><ele>794.6666666666667</ele><time>2026-04-26T10:13:39.007Z</time></trkpt><trkpt lat="44.6710933" lon="9.6256833"><ele>797.0</ele><time>2026-04-26T10:13:40.006Z</time></trkpt><trkpt lat="44.67117" lon="9.6258933"><ele>791.3333333333334</ele><time>2026-04-26T10:13:41.007Z</time></trkpt><trkpt lat="44.6712217" lon="9.62611"><ele>785.6666666666667</ele><time>2026-04-26T10:13:42.006Z</time></trkpt><trkpt lat="44.6712467" lon="9.6263033"><ele>780.0</ele><time>2026-04-26T10:13:43.007Z</time></trkpt><trkpt lat="44.6712383" lon="9.6265217"><ele>780.0</ele><time>2026-04-26T10:13:44.007Z</time></trkpt><trkpt lat="44.6712283" lon="9.62671"><ele>780.0</ele><time>2026-04-26T10:13:45.006Z</time></trkpt><trkpt lat="44.6712267" lon="9.6268733"><ele>780.0</ele><time>2026-04-26T10:13:46.006Z</time></trkpt><trkpt lat="44.6712367" lon="9.6270267"><ele>780.0</ele><time>2026-04-26T10:13:47.006Z</time></trkpt><trkpt lat="44.6712633" lon="9.6271617"><ele>783.25</ele><time>2026-04-26T10:13:48.007Z</time></trkpt><trkpt lat="44.671325" lon="9.6272867"><ele>786.5</ele><time>2026-04-26T10:13:49.007Z</time></trkpt><trkpt lat="44.671485" lon="9.6273367"><ele>789.75</ele><time>2026-04-26T10:13:50.006Z</time></trkpt><trkpt lat="44.6716533" lon="9.6274133"><ele>793.0</ele><time>2026-04-26T10:13:51.007Z</time></trkpt><trkpt lat="44.67181" lon="9.6274833"><ele>793.0</ele><time>2026-04-26T10:13:52.006Z</time></trkpt><trkpt lat="44.67194" lon="9.627585"><ele>793.0</ele><time>2026-04-26T10:13:53.007Z</time></trkpt><trkpt lat="44.6720533" lon="9.627705"><ele>793.0</ele><time>2026-04-26T10:13:54.007Z</time></trkpt><trkpt lat="44.6721467" lon="9.6278317"><ele>793.0</ele><time>2026-04-26T10:13:55.006Z</time></trkpt><trkpt lat="44.672235" lon="9.6280133"><ele>794.0</ele><time>2026-04-26T10:13:56.006Z</time></trkpt><trkpt lat="44.67233" lon="9.6282233"><ele>795.0</ele><time>2026-04-26T10:13:57.007Z</time></trkpt><trkpt lat="44.6724117" lon="9.6284183"><ele>796.0</ele><time>2026-04-26T10:13:58.007Z</time></trkpt><trkpt lat="44.6725" lon="9.6285967"><ele>798.0</ele><time>2026-04-26T10:13:59.007Z</time></trkpt><trkpt lat="44.6725817" lon="9.62879"><ele>800.0</ele><time>2026-04-26T10:14:00.007Z</time></trkpt><trkpt lat="44.6726283" lon="9.6289767"><ele>802.0</ele><time>2026-04-26T10:14:01.006Z</time></trkpt><trkpt lat="44.67266" lon="9.62919"><ele>802.0</ele><time>2026-04-26T10:14:02.006Z</time></trkpt><trkpt lat="44.672675" lon="9.6294"><ele>802.0</ele><time>2026-04-26T10:14:03.006Z</time></trkpt><trkpt lat="44.67268" lon="9.6296433"><ele>802.0</ele><time>2026-04-26T10:14:04.006Z</time></trkpt><trkpt lat="44.6726817" lon="9.6298933"><ele>802.3333333333333</ele><time>2026-04-26T10:14:05.006Z</time></trkpt><trkpt lat="44.6726833" lon="9.6301317"><ele>802.6666666666667</ele><time>2026-04-26T10:14:06.007Z</time></trkpt><trkpt lat="44.67269" lon="9.6303733"><ele>803.0</ele><time>2026-04-26T10:14:07.006Z</time></trkpt><trkpt lat="44.6726917" lon="9.6306133"><ele>803.6666666666667</ele><time>2026-04-26T10:14:08.006Z</time></trkpt><trkpt lat="44.6727" lon="9.6308433"><ele>804.3333333333333</ele><time>2026-04-26T10:14:09.006Z</time></trkpt><trkpt lat="44.6727017" lon="9.6310633"><ele>805.0</ele><time>2026-04-26T10:14:10.006Z</time></trkpt><trkpt lat="44.6726967" lon="9.631265"><ele>806.0</ele><time>2026-04-26T10:14:11.006Z</time></trkpt><trkpt lat="44.672685" lon="9.6314783"><ele>807.0</ele><time>2026-04-26T10:14:12.007Z</time></trkpt><trkpt lat="44.6726633" lon="9.6316933"><ele>808.0</ele><time>2026-04-26T10:14:13.006Z</time></trkpt><trkpt lat="44.672645" lon="9.6318883"><ele>809.0</ele><time>2026-04-26T10:14:14.006Z</time></trkpt><trkpt lat="44.6726217" lon="9.632075"><ele>809.0</ele><time>2026-04-26T10:14:15.006Z</time></trkpt><trkpt lat="44.672595" lon="9.6322517"><ele>809.0</ele><time>2026-04-26T10:14:16.007Z</time></trkpt><trkpt lat="44.6725483" lon="9.6324133"><ele>809.0</ele><time>2026-04-26T10:14:17.006Z</time></trkpt><trkpt lat="44.6724883" lon="9.6325667"><ele>809.0</ele><time>2026-04-26T10:14:18.007Z</time></trkpt><trkpt lat="44.672385" lon="9.632705"><ele>807.75</ele><time>2026-04-26T10:14:19.006Z</time></trkpt><trkpt lat="44.6722783" lon="9.63284"><ele>806.5</ele><time>2026-04-26T10:14:20.006Z</time></trkpt><trkpt lat="44.6721567" lon="9.6329717"><ele>805.25</ele><time>2026-04-26T10:14:21.007Z</time></trkpt><trkpt lat="44.6720567" lon="9.6331233"><ele>804.0</ele><time>2026-04-26T10:14:22.007Z</time></trkpt><trkpt lat="44.6719617" lon="9.6332883"><ele>808.0</ele><time>2026-04-26T10:14:23.006Z</time></trkpt><trkpt lat="44.67187" lon="9.6334967"><ele>812.0</ele><time>2026-04-26T10:14:24.006Z</time></trkpt><trkpt lat="44.67176" lon="9.6336667"><ele>816.0</ele><time>2026-04-26T10:14:25.006Z</time></trkpt><trkpt lat="44.6716783" lon="9.6338417"><ele>816.0</ele><time>2026-04-26T10:14:26.007Z</time></trkpt><trkpt lat="44.67161" lon="9.6340217"><ele>816.0</ele><time>2026-04-26T10:14:27.007Z</time></trkpt><trkpt lat="44.6715483" lon="9.6341983"><ele>816.0</ele><time>2026-04-26T10:14:28.006Z</time></trkpt><trkpt lat="44.6714733" lon="9.6343717"><ele>816.0</ele><time>2026-04-26T10:14:29.006Z</time></trkpt><trkpt lat="44.6713933" lon="9.6345417"><ele>816.6666666666667</ele><time>2026-04-26T10:14:30.007Z</time></trkpt><trkpt lat="44.6712967" lon="9.6347133"><ele>817.3333333333334</ele><time>2026-04-26T10:14:31.006Z</time></trkpt><trkpt lat="44.6712017" lon="9.63488"><ele>818.0</ele><time>2026-04-26T10:14:32.007Z</time></trkpt><trkpt lat="44.6711117" lon="9.6350567"><ele>821.5</ele><time>2026-04-26T10:14:33.006Z</time></trkpt><trkpt lat="44.6710433" lon="9.6352267"><ele>825.0</ele><time>2026-04-26T10:14:34.006Z</time></trkpt><trkpt lat="44.6709967" lon="9.6353833"><ele>828.5</ele><time>2026-04-26T10:14:35.007Z</time></trkpt><trkpt lat="44.6709883" lon="9.6355433"><ele>832.0</ele><time>2026-04-26T10:14:36.007Z</time></trkpt><trkpt lat="44.6710133" lon="9.6356917"><ele>832.0</ele><time>2026-04-26T10:14:37.007Z</time></trkpt><trkpt lat="44.6710817" lon="9.6358483"><ele>832.0</ele><time>2026-04-26T10:14:38.007Z</time></trkpt><trkpt lat="44.6711667" lon="9.636005"><ele>832.0</ele><time>2026-04-26T10:14:39.007Z</time></trkpt><trkpt lat="44.671255" lon="9.6361967"><ele>832.0</ele><time>2026-04-26T10:14:40.007Z</time></trkpt><trkpt lat="44.671355" lon="9.6364183"><ele>830.3333333333333</ele><time>2026-04-26T10:14:41.006Z</time></trkpt><trkpt lat="44.6714067" lon="9.6366533"><ele>828.6666666666667</ele><time>2026-04-26T10:14:42.006Z</time></trkpt><trkpt lat="44.67143" lon="9.63689"><ele>827.0</ele><time>2026-04-26T10:14:43.006Z</time></trkpt><trkpt lat="44.6714317" lon="9.6371267"><ele>827.0</ele><time>2026-04-26T10:14:44.007Z</time></trkpt><trkpt lat="44.6714083" lon="9.63737"><ele>827.0</ele><time>2026-04-26T10:14:45.007Z</time></trkpt><trkpt lat="44.6713683" lon="9.6375883"><ele>827.0</ele><time>2026-04-26T10:14:46.006Z</time></trkpt><trkpt lat="44.671335" lon="9.6378083"><ele>827.0</ele><time>2026-04-26T10:14:47.006Z</time></trkpt><trkpt lat="44.6712817" lon="9.6380217"><ele>827.0</ele><time>2026-04-26T10:14:48.006Z</time></trkpt><trkpt lat="44.6712183" lon="9.63823"><ele>827.0</ele><time>2026-04-26T10:14:49.006Z</time></trkpt><trkpt lat="44.6711567" lon="9.6384183"><ele>827.0</ele><time>2026-04-26T10:14:50.006Z</time></trkpt><trkpt lat="44.6711117" lon="9.6385883"><ele>827.0</ele><time>2026-04-26T10:14:51.007Z</time></trkpt><trkpt lat="44.6710983" lon="9.6387933"><ele>827.0</ele><time>2026-04-26T10:14:52.007Z</time></trkpt><trkpt lat="44.6711417" lon="9.639025"><ele>827.0</ele><time>2026-04-26T10:14:53.006Z</time></trkpt><trkpt lat="44.671185" lon="9.63927"><ele>829.0</ele><time>2026-04-26T10:14:54.007Z</time></trkpt><trkpt lat="44.6712183" lon="9.6395"><ele>831.0</ele><time>2026-04-26T10:14:55.006Z</time></trkpt><trkpt lat="44.67125" lon="9.639715"><ele>833.0</ele><time>2026-04-26T10:14:56.006Z</time></trkpt><trkpt lat="44.671275" lon="9.6399117"><ele>833.0</ele><time>2026-04-26T10:14:57.006Z</time></trkpt><trkpt lat="44.67129" lon="9.640085"><ele>833.0</ele><time>2026-04-26T10:14:58.006Z</time></trkpt><trkpt lat="44.6712633" lon="9.6402333"><ele>833.0</ele><time>2026-04-26T10:14:59.006Z</time></trkpt><trkpt lat="44.67121" lon="9.6404133"><ele>833.0</ele><time>2026-04-26T10:15:00.006Z</time></trkpt><trkpt lat="44.67114" lon="9.6406167"><ele>840.3333333333334</ele><time>2026-04-26T10:15:01.006Z</time></trkpt><trkpt lat="44.6710783" lon="9.6408317"><ele>847.6666666666667</ele><time>2026-04-26T10:15:02.006Z</time></trkpt><trkpt lat="44.671015" lon="9.6410467"><ele>855.0</ele><time>2026-04-26T10:15:03.006Z</time></trkpt><trkpt lat="44.6709483" lon="9.6412467"><ele>855.0</ele><time>2026-04-26T10:15:04.007Z</time></trkpt><trkpt lat="44.6708817" lon="9.6414317"><ele>855.0</ele><time>2026-04-26T10:15:05.007Z</time></trkpt><trkpt lat="44.6708083" lon="9.6416017"><ele>855.0</ele><time>2026-04-26T10:15:06.007Z</time></trkpt><trkpt lat="44.6707433" lon="9.6417583"><ele>855.0</ele><time>2026-04-26T10:15:07.006Z</time></trkpt><trkpt lat="44.6707" lon="9.6419033"><ele>855.75</ele><time>2026-04-26T10:15:08.007Z</time></trkpt><trkpt lat="44.670665" lon="9.6420383"><ele>856.5</ele><time>2026-04-26T10:15:09.006Z</time></trkpt><trkpt lat="44.670655" lon="9.6421917"><ele>857.25</ele><time>2026-04-26T10:15:10.007Z</time></trkpt><trkpt lat="44.67068" lon="9.6423567"><ele>858.0</ele><time>2026-04-26T10:15:11.006Z</time></trkpt><trkpt lat="44.6707733" lon="9.6424933"><ele>858.0</ele><time>2026-04-26T10:15:12.006Z</time></trkpt><trkpt lat="44.670875" lon="9.6425967"><ele>858.0</ele><time>2026-04-26T10:15:13.006Z</time></trkpt><trkpt lat="44.671" lon="9.6426783"><ele>858.0</ele><time>2026-04-26T10:15:14.007Z</time></trkpt><trkpt lat="44.67115" lon="9.6427583"><ele>858.0</ele><time>2026-04-26T10:15:15.006Z</time></trkpt><trkpt lat="44.6713067" lon="9.642855"><ele>861.0</ele><time>2026-04-26T10:15:16.006Z</time></trkpt><trkpt lat="44.6714517" lon="9.64294"><ele>864.0</ele><time>2026-04-26T10:15:17.007Z</time></trkpt><trkpt lat="44.6715933" lon="9.6430317"><ele>867.0</ele><time>2026-04-26T10:15:18.007Z</time></trkpt><trkpt lat="44.671725" lon="9.6431217"><ele>867.0</ele><time>2026-04-26T10:15:19.006Z</time></trkpt><trkpt lat="44.6718417" lon="9.6431867"><ele>867.0</ele><time>2026-04-26T10:15:20.006Z</time></trkpt><trkpt lat="44.6719233" lon="9.6432467"><ele>867.0</ele><time>2026-04-26T10:15:21.006Z</time></trkpt><trkpt lat="44.67205" lon="9.6433883"><ele>867.0</ele><time>2026-04-26T10:15:22.006Z</time></trkpt><trkpt lat="44.6721667" lon="9.6436017"><ele>867.0</ele><time>2026-04-26T10:15:23.007Z</time></trkpt><trkpt lat="44.6722833" lon="9.64381"><ele>867.0</ele><time>2026-04-26T10:15:24.006Z</time></trkpt><trkpt lat="44.672365" lon="9.6440317"><ele>867.0</ele><time>2026-04-26T10:15:25.006Z</time></trkpt><trkpt lat="44.672425" lon="9.6442333"><ele>867.0</ele><time>2026-04-26T10:15:26.007Z</time></trkpt><trkpt lat="44.6724933" lon="9.6444483"><ele>867.0</ele><time>2026-04-26T10:15:27.006Z</time></trkpt><trkpt lat="44.6725517" lon="9.64465"><ele>867.0</ele><time>2026-04-26T10:15:28.006Z</time></trkpt><trkpt lat="44.67261" lon="9.6448433"><ele>870.0</ele><time>2026-04-26T10:15:29.007Z</time></trkpt><trkpt lat="44.67267" lon="9.6450317"><ele>873.0</ele><time>2026-04-26T10:15:30.007Z</time></trkpt><trkpt lat="44.6727367" lon="9.645205"><ele>876.0</ele><time>2026-04-26T10:15:31.007Z</time></trkpt><trkpt lat="44.6728583" lon="9.64533"><ele>879.0</ele><time>2026-04-26T10:15:32.006Z</time></trkpt><trkpt lat="44.6729983" lon="9.645425"><ele>880.3333333333333</ele><time>2026-04-26T10:15:33.007Z</time></trkpt><trkpt lat="44.6731283" lon="9.6455117"><ele>881.6666666666666</ele><time>2026-04-26T10:15:34.006Z</time></trkpt><trkpt lat="44.6733167" lon="9.6455183"><ele>883.0</ele><time>2026-04-26T10:15:35.007Z</time></trkpt><trkpt lat="44.6734867" lon="9.645565"><ele>883.6666666666666</ele><time>2026-04-26T10:15:36.007Z</time></trkpt><trkpt lat="44.673645" lon="9.6456567"><ele>884.3333333333333</ele><time>2026-04-26T10:15:37.006Z</time></trkpt><trkpt lat="44.6737967" lon="9.6457483"><ele>885.0</ele><time>2026-04-26T10:15:38.006Z</time></trkpt><trkpt lat="44.6739467" lon="9.6458383"><ele>885.0</ele><time>2026-04-26T10:15:39.006Z</time></trkpt><trkpt lat="44.67408" lon="9.6459183"><ele>885.0</ele><time>2026-04-26T10:15:40.006Z</time></trkpt><trkpt lat="44.6742017" lon="9.64598"><ele>885.0</ele><time>2026-04-26T10:15:41.007Z</time></trkpt><trkpt lat="44.67432" lon="9.6459967"><ele>885.0</ele><time>2026-04-26T10:15:42.007Z</time></trkpt><trkpt lat="44.6744367" lon="9.646005"><ele>886.25</ele><time>2026-04-26T10:15:43.006Z</time></trkpt><trkpt lat="44.6745683" lon="9.6460067"><ele>887.5</ele><time>2026-04-26T10:15:44.006Z</time></trkpt><trkpt lat="44.67471" lon="9.6460017"><ele>888.75</ele><time>2026-04-26T10:15:45.007Z</time></trkpt><trkpt lat="44.6748583" lon="9.645995"><ele>890.0</ele><time>2026-04-26T10:15:46.007Z</time></trkpt><trkpt lat="44.67501" lon="9.6459833"><ele>890.0</ele><time>2026-04-26T10:15:47.006Z</time></trkpt><trkpt lat="44.6751667" lon="9.64598"><ele>890.0</ele><time>2026-04-26T10:15:48.006Z</time></trkpt><trkpt lat="44.6753233" lon="9.6460033"><ele>890.0</ele><time>2026-04-26T10:15:49.007Z</time></trkpt><trkpt lat="44.6754683" lon="9.64604"><ele>890.75</ele><time>2026-04-26T10:15:50.006Z</time></trkpt><trkpt lat="44.67561" lon="9.6460783"><ele>891.5</ele><time>2026-04-26T10:15:51.006Z</time></trkpt><trkpt lat="44.6757267" lon="9.6460917"><ele>892.25</ele><time>2026-04-26T10:15:52.006Z</time></trkpt><trkpt lat="44.675835" lon="9.6460733"><ele>893.0</ele><time>2026-04-26T10:15:53.007Z</time></trkpt><trkpt lat="44.67597" lon="9.6460133"><ele>893.0</ele><time>2026-04-26T10:15:54.006Z</time></trkpt><trkpt lat="44.6760967" lon="9.6459583"><ele>893.0</ele><time>2026-04-26T10:15:55.006Z</time></trkpt><trkpt lat="44.67621" lon="9.6459033"><ele>893.0</ele><time>2026-04-26T10:15:56.006Z</time></trkpt><trkpt lat="44.6763283" lon="9.6458933"><ele>893.0</ele><time>2026-04-26T10:15:57.007Z</time></trkpt><trkpt lat="44.676425" lon="9.6458833"><ele>894.2</ele><time>2026-04-26T10:15:58.006Z</time></trkpt><trkpt lat="44.6765217" lon="9.6458917"><ele>895.4</ele><time>2026-04-26T10:15:59.007Z</time></trkpt><trkpt lat="44.676615" lon="9.6458967"><ele>896.6000000000001</ele><time>2026-04-26T10:16:00.006Z</time></trkpt><trkpt lat="44.67673" lon="9.645895"><ele>897.8000000000001</ele><time>2026-04-26T10:16:01.006Z</time></trkpt><trkpt lat="44.6768467" lon="9.645885"><ele>899.0</ele><time>2026-04-26T10:16:02.006Z</time></trkpt><trkpt lat="44.6769617" lon="9.64589"><ele>901.5</ele><time>2026-04-26T10:16:03.007Z</time></trkpt><trkpt lat="44.677075" lon="9.6458933"><ele>904.0</ele><time>2026-04-26T10:16:04.007Z</time></trkpt><trkpt lat="44.6771783" lon="9.6458417"><ele>906.5</ele><time>2026-04-26T10:16:05.006Z</time></trkpt><trkpt lat="44.677255" lon="9.6457233"><ele>909.0</ele><time>2026-04-26T10:16:06.006Z</time></trkpt><trkpt lat="44.6773233" lon="9.6455883"><ele>909.0</ele><time>2026-04-26T10:16:07.006Z</time></trkpt><trkpt lat="44.6773967" lon="9.6454517"><ele>909.0000000000001</ele><time>2026-04-26T10:16:08.006Z</time></trkpt><trkpt lat="44.6774483" lon="9.6453133"><ele>909.0000000000001</ele><time>2026-04-26T10:16:09.006Z</time></trkpt><trkpt lat="44.6775017" lon="9.6452033"><ele>909.0</ele><time>2026-04-26T10:16:10.007Z</time></trkpt><trkpt lat="44.6775633" lon="9.6451183"><ele>909.0</ele><time>2026-04-26T10:16:12.006Z</time></trkpt><trkpt lat="44.6775917" lon="9.6452533"><ele>909.0</ele><time>2026-04-26T10:16:14.007Z</time></trkpt><trkpt lat="44.6776017" lon="9.64535"><ele>909.0000000000001</ele><time>2026-04-26T10:16:15.006Z</time></trkpt><trkpt lat="44.6775967" lon="9.6454767"><ele>909.0000000000001</ele><time>2026-04-26T10:16:16.006Z</time></trkpt><trkpt lat="44.6775817" lon="9.645605"><ele>909.0</ele><time>2026-04-26T10:16:17.006Z</time></trkpt><trkpt lat="44.6775517" lon="9.645765"><ele>909.0</ele><time>2026-04-26T10:16:18.006Z</time></trkpt><trkpt lat="44.6775233" lon="9.645915"><ele>909.0</ele><time>2026-04-26T10:16:19.007Z</time></trkpt><trkpt lat="44.6774933" lon="9.6460417"><ele>909.0</ele><time>2026-04-26T10:16:20.007Z</time></trkpt><trkpt lat="44.6774467" lon="9.64616"><ele>909.0</ele><time>2026-04-26T10:16:21.006Z</time></trkpt><trkpt lat="44.677385" lon="9.6462583"><ele>909.0</ele><time>2026-04-26T10:16:22.006Z</time></trkpt><trkpt lat="44.6773317" lon="9.6463117"><ele>909.0</ele><time>2026-04-26T10:16:23.006Z</time></trkpt><trkpt lat="44.6772567" lon="9.646325"><ele>909.0</ele><time>2026-04-26T10:16:24.007Z</time></trkpt><trkpt lat="44.6772033" lon="9.6464"><ele>912.25</ele><time>2026-04-26T10:16:25.006Z</time></trkpt><trkpt lat="44.677085" lon="9.64639"><ele>915.5</ele><time>2026-04-26T10:16:26.006Z</time></trkpt><trkpt lat="44.6769467" lon="9.6463867"><ele>918.75</ele><time>2026-04-26T10:16:27.007Z</time></trkpt><trkpt lat="44.6767967" lon="9.646405"><ele>922.0</ele><time>2026-04-26T10:16:28.007Z</time></trkpt><trkpt lat="44.67663" lon="9.6464483"><ele>922.3333333333333</ele><time>2026-04-26T10:16:29.007Z</time></trkpt><trkpt lat="44.676465" lon="9.6464983"><ele>922.6666666666667</ele><time>2026-04-26T10:16:30.007Z</time></trkpt><trkpt lat="44.6762917" lon="9.6465633"><ele>923.0</ele><time>2026-04-26T10:16:31.006Z</time></trkpt><trkpt lat="44.676145" lon="9.6466217"><ele>920.5</ele><time>2026-04-26T10:16:32.006Z</time></trkpt><trkpt lat="44.6760167" lon="9.6466967"><ele>918.0</ele><time>2026-04-26T10:16:33.006Z</time></trkpt><trkpt lat="44.6759033" lon="9.646765"><ele>915.5</ele><time>2026-04-26T10:16:34.006Z</time></trkpt><trkpt lat="44.6757817" lon="9.6467867"><ele>913.0</ele><time>2026-04-26T10:16:35.006Z</time></trkpt><trkpt lat="44.6756683" lon="9.6467817"><ele>913.0</ele><time>2026-04-26T10:16:36.007Z</time></trkpt><trkpt lat="44.6755867" lon="9.646815"><ele>913.0</ele><time>2026-04-26T10:16:37.006Z</time></trkpt><trkpt lat="44.6754917" lon="9.6468617"><ele>913.0</ele><time>2026-04-26T10:16:38.006Z</time></trkpt><trkpt lat="44.6753867" lon="9.646935"><ele>913.0</ele><time>2026-04-26T10:16:39.006Z</time></trkpt><trkpt lat="44.6752783" lon="9.6470133"><ele>913.0</ele><time>2026-04-26T10:16:40.006Z</time></trkpt><trkpt lat="44.6751617" lon="9.6470733"><ele>916.75</ele><time>2026-04-26T10:16:41.007Z</time></trkpt><trkpt lat="44.6750217" lon="9.6471183"><ele>920.5</ele><time>2026-04-26T10:16:42.007Z</time></trkpt><trkpt lat="44.6748833" lon="9.6471467"><ele>924.25</ele><time>2026-04-26T10:16:43.007Z</time></trkpt><trkpt lat="44.674755" lon="9.6471883"><ele>928.0</ele><time>2026-04-26T10:16:44.006Z</time></trkpt><trkpt lat="44.674615" lon="9.6472283"><ele>928.0</ele><time>2026-04-26T10:16:45.006Z</time></trkpt><trkpt lat="44.6744867" lon="9.6472967"><ele>928.0</ele><time>2026-04-26T10:16:46.006Z</time></trkpt><trkpt lat="44.6743667" lon="9.64738"><ele>928.0</ele><time>2026-04-26T10:16:47.006Z</time></trkpt><trkpt lat="44.6742383" lon="9.6474767"><ele>928.0</ele><time>2026-04-26T10:16:48.006Z</time></trkpt><trkpt lat="44.6741133" lon="9.647605"><ele>928.3333333333333</ele><time>2026-04-26T10:16:49.007Z</time></trkpt><trkpt lat="44.673985" lon="9.6477567"><ele>928.6666666666667</ele><time>2026-04-26T10:16:50.006Z</time></trkpt><trkpt lat="44.673855" lon="9.647915"><ele>929.0</ele><time>2026-04-26T10:16:51.007Z</time></trkpt><trkpt lat="44.6737417" lon="9.6480833"><ele>929.0</ele><time>2026-04-26T10:16:52.007Z</time></trkpt><trkpt lat="44.673635" lon="9.6482567"><ele>929.0</ele><time>2026-04-26T10:16:53.007Z</time></trkpt><trkpt lat="44.67354" lon="9.648405"><ele>929.0</ele><time>2026-04-26T10:16:54.006Z</time></trkpt><trkpt lat="44.6734433" lon="9.64854"><ele>929.0</ele><time>2026-04-26T10:16:55.007Z</time></trkpt><trkpt lat="44.673345" lon="9.6486633"><ele>930.0</ele><time>2026-04-26T10:16:56.006Z</time></trkpt><trkpt lat="44.6732567" lon="9.6487667"><ele>931.0</ele><time>2026-04-26T10:16:57.006Z</time></trkpt><trkpt lat="44.6731533" lon="9.64884"><ele>932.0</ele><time>2026-04-26T10:16:58.006Z</time></trkpt><trkpt lat="44.6730233" lon="9.6489"><ele>933.0</ele><time>2026-04-26T10:16:59.006Z</time></trkpt><trkpt lat="44.6728867" lon="9.6489817"><ele>932.5</ele><time>2026-04-26T10:17:00.007Z</time></trkpt><trkpt lat="44.6727283" lon="9.6490417"><ele>932.0</ele><time>2026-04-26T10:17:01.007Z</time></trkpt><trkpt lat="44.6725833" lon="9.6490783"><ele>931.5</ele><time>2026-04-26T10:17:02.006Z</time></trkpt><trkpt lat="44.6724517" lon="9.64908"><ele>931.0</ele><time>2026-04-26T10:17:03.007Z</time></trkpt><trkpt lat="44.6723167" lon="9.6490783"><ele>931.0</ele><time>2026-04-26T10:17:04.006Z</time></trkpt><trkpt lat="44.672165" lon="9.6490433"><ele>931.0</ele><time>2026-04-26T10:17:05.006Z</time></trkpt><trkpt lat="44.672035" lon="9.6490283"><ele>931.0</ele><time>2026-04-26T10:17:06.007Z</time></trkpt><trkpt lat="44.6719083" lon="9.6490283"><ele>931.0</ele><time>2026-04-26T10:17:07.007Z</time></trkpt><trkpt lat="44.6718283" lon="9.6489733"><ele>930.3333333333333</ele><time>2026-04-26T10:17:08.007Z</time></trkpt><trkpt lat="44.6717267" lon="9.6488483"><ele>929.6666666666666</ele><time>2026-04-26T10:17:10.006Z</time></trkpt><trkpt lat="44.6716583" lon="9.6487917"><ele>929.0</ele><time>2026-04-26T10:17:11.006Z</time></trkpt><trkpt lat="44.671615" lon="9.6487083"><ele>928.3333333333333</ele><time>2026-04-26T10:17:12.006Z</time></trkpt><trkpt lat="44.6715833" lon="9.64861"><ele>927.6666666666666</ele><time>2026-04-26T10:17:13.007Z</time></trkpt><trkpt lat="44.6715333" lon="9.6485383"><ele>927.0</ele><time>2026-04-26T10:17:14.006Z</time></trkpt><trkpt lat="44.6714467" lon="9.6484467"><ele>927.0</ele><time>2026-04-26T10:17:16.006Z</time></trkpt><trkpt lat="44.6713733" lon="9.64839"><ele>927.0</ele><time>2026-04-26T10:17:17.006Z</time></trkpt><trkpt lat="44.67127" lon="9.6482633"><ele>927.0</ele><time>2026-04-26T10:17:18.006Z</time></trkpt><trkpt lat="44.6711633" lon="9.64822"><ele>927.0</ele><time>2026-04-26T10:17:19.007Z</time></trkpt><trkpt lat="44.67105" lon="9.6481717"><ele>927.4000000000001</ele><time>2026-04-26T10:17:20.007Z</time></trkpt><trkpt lat="44.6709767" lon="9.6481233"><ele>927.8000000000001</ele><time>2026-04-26T10:17:21.007Z</time></trkpt><trkpt lat="44.6708967" lon="9.6480867"><ele>928.2</ele><time>2026-04-26T10:17:22.006Z</time></trkpt><trkpt lat="44.670805" lon="9.647975"><ele>928.6</ele><time>2026-04-26T10:17:23.006Z</time></trkpt><trkpt lat="44.6707617" lon="9.6478767"><ele>929.0</ele><time>2026-04-26T10:17:24.006Z</time></trkpt><trkpt lat="44.6707483" lon="9.6477633"><ele>929.0</ele><time>2026-04-26T10:17:25.007Z</time></trkpt><trkpt lat="44.670755" lon="9.6476033"><ele>929.0000000000001</ele><time>2026-04-26T10:17:26.007Z</time></trkpt><trkpt lat="44.67077" lon="9.6474717"><ele>929.0000000000001</ele><time>2026-04-26T10:17:27.007Z</time></trkpt><trkpt lat="44.6707683" lon="9.647365"><ele>929.0</ele><time>2026-04-26T10:17:28.006Z</time></trkpt><trkpt lat="44.6707083" lon="9.647245"><ele>929.0</ele><time>2026-04-26T10:17:29.006Z</time></trkpt><trkpt lat="44.6705933" lon="9.6472633"><ele>929.0</ele><time>2026-04-26T10:17:30.006Z</time></trkpt><trkpt lat="44.6705" lon="9.6472633"><ele>929.0000000000001</ele><time>2026-04-26T10:17:31.006Z</time></trkpt><trkpt lat="44.6704067" lon="9.64737"><ele>929.0000000000001</ele><time>2026-04-26T10:17:32.007Z</time></trkpt><trkpt lat="44.67033" lon="9.6474783"><ele>929.0</ele><time>2026-04-26T10:17:33.006Z</time></trkpt><trkpt lat="44.67024" lon="9.6475717"><ele>929.0</ele><time>2026-04-26T10:17:34.006Z</time></trkpt><trkpt lat="44.67014" lon="9.6476667"><ele>930.0</ele><time>2026-04-26T10:17:35.007Z</time></trkpt><trkpt lat="44.6700183" lon="9.6477433"><ele>931.0</ele><time>2026-04-26T10:17:36.007Z</time></trkpt><trkpt lat="44.6698617" lon="9.6477667"><ele>932.0</ele><time>2026-04-26T10:17:37.006Z</time></trkpt><trkpt lat="44.669695" lon="9.6477917"><ele>932.0</ele><time>2026-04-26T10:17:38.007Z</time></trkpt><trkpt lat="44.6695717" lon="9.6478417"><ele>932.0</ele><time>2026-04-26T10:17:39.006Z</time></trkpt><trkpt lat="44.66943" lon="9.6479233"><ele>932.0</ele><time>2026-04-26T10:17:40.007Z</time></trkpt><trkpt lat="44.6692983" lon="9.6480133"><ele>932.0</ele><time>2026-04-26T10:17:41.006Z</time></trkpt><trkpt lat="44.669195" lon="9.6480983"><ele>932.0000000000001</ele><time>2026-04-26T10:17:42.006Z</time></trkpt><trkpt lat="44.6691217" lon="9.6481933"><ele>932.0</ele><time>2026-04-26T10:17:43.006Z</time></trkpt><trkpt lat="44.6690683" lon="9.648285"><ele>932.0</ele><time>2026-04-26T10:17:44.006Z</time></trkpt><trkpt lat="44.6691183" lon="9.64838"><ele>932.0</ele><time>2026-04-26T10:17:47.007Z</time></trkpt><trkpt lat="44.6691883" lon="9.6484917"><ele>932.0000000000001</ele><time>2026-04-26T10:17:58.007Z</time></trkpt><trkpt lat="44.6692017" lon="9.64859"><ele>932.0</ele><time>2026-04-26T10:18:00.006Z</time></trkpt><trkpt lat="44.6692283" lon="9.648685"><ele>932.6</ele><time>2026-04-26T10:18:01.007Z</time></trkpt><trkpt lat="44.6692567" lon="9.648795"><ele>933.2</ele><time>2026-04-26T10:18:02.006Z</time></trkpt><trkpt lat="44.6692833" lon="9.6489267"><ele>933.8</ele><time>2026-04-26T10:18:03.006Z</time></trkpt><trkpt lat="44.6693083" lon="9.6490683"><ele>934.4</ele><time>2026-04-26T10:18:04.007Z</time></trkpt><trkpt lat="44.669345" lon="9.64924"><ele>935.0</ele><time>2026-04-26T10:18:05.006Z</time></trkpt><trkpt lat="44.6693667" lon="9.649405"><ele>935.25</ele><time>2026-04-26T10:18:06.007Z</time></trkpt><trkpt lat="44.6693967" lon="9.64959"><ele>935.5</ele><time>2026-04-26T10:18:07.006Z</time></trkpt><trkpt lat="44.6694217" lon="9.6497667"><ele>935.75</ele><time>2026-04-26T10:18:08.006Z</time></trkpt><trkpt lat="44.66945" lon="9.649935"><ele>936.0</ele><time>2026-04-26T10:18:09.006Z</time></trkpt><trkpt lat="44.6694767" lon="9.6501217"><ele>940.0</ele><time>2026-04-26T10:18:10.006Z</time></trkpt><trkpt lat="44.669505" lon="9.6503033"><ele>944.0</ele><time>2026-04-26T10:18:11.007Z</time></trkpt><trkpt lat="44.6695217" lon="9.6504767"><ele>948.0</ele><time>2026-04-26T10:18:12.007Z</time></trkpt><trkpt lat="44.6695383" lon="9.65065"><ele>952.0</ele><time>2026-04-26T10:18:13.006Z</time></trkpt><trkpt lat="44.6695517" lon="9.6508083"><ele>952.0</ele><time>2026-04-26T10:18:14.007Z</time></trkpt><trkpt lat="44.6695367" lon="9.6509433"><ele>952.0</ele><time>2026-04-26T10:18:15.006Z</time></trkpt><trkpt lat="44.66952" lon="9.6511033"><ele>952.0</ele><time>2026-04-26T10:18:16.006Z</time></trkpt><trkpt lat="44.6694983" lon="9.6512683"><ele>952.0</ele><time>2026-04-26T10:18:17.007Z</time></trkpt><trkpt lat="44.6694817" lon="9.651435"><ele>953.75</ele><time>2026-04-26T10:18:18.006Z</time></trkpt><trkpt lat="44.6694683" lon="9.6516117"><ele>955.5</ele><time>2026-04-26T10:18:19.006Z</time></trkpt><trkpt lat="44.6694717" lon="9.6518033"><ele>957.25</ele><time>2026-04-26T10:18:20.006Z</time></trkpt><trkpt lat="44.6694867" lon="9.6519883"><ele>959.0</ele><time>2026-04-26T10:18:21.006Z</time></trkpt><trkpt lat="44.6695133" lon="9.65218"><ele>959.25</ele><time>2026-04-26T10:18:22.007Z</time></trkpt><trkpt lat="44.6695717" lon="9.65237"><ele>959.5</ele><time>2026-04-26T10:18:23.007Z</time></trkpt><trkpt lat="44.6696283" lon="9.6525367"><ele>959.75</ele><time>2026-04-26T10:18:24.006Z</time></trkpt><trkpt lat="44.6696817" lon="9.6526967"><ele>960.0</ele><time>2026-04-26T10:18:25.007Z</time></trkpt><trkpt lat="44.6697483" lon="9.652845"><ele>957.25</ele><time>2026-04-26T10:18:26.006Z</time></trkpt><trkpt lat="44.6698267" lon="9.6529733"><ele>954.5</ele><time>2026-04-26T10:18:27.006Z</time></trkpt><trkpt lat="44.6699183" lon="9.653065"><ele>951.75</ele><time>2026-04-26T10:18:28.006Z</time></trkpt><trkpt lat="44.6700267" lon="9.6531517"><ele>949.0</ele><time>2026-04-26T10:18:29.007Z</time></trkpt><trkpt lat="44.6701533" lon="9.653215"><ele>949.0</ele><time>2026-04-26T10:18:30.006Z</time></trkpt><trkpt lat="44.6702717" lon="9.6532917"><ele>949.0</ele><time>2026-04-26T10:18:31.007Z</time></trkpt><trkpt lat="44.6703867" lon="9.6533883"><ele>949.0</ele><time>2026-04-26T10:18:32.007Z</time></trkpt><trkpt lat="44.670505" lon="9.6534983"><ele>949.0</ele><time>2026-04-26T10:18:33.006Z</time></trkpt><trkpt lat="44.6706117" lon="9.65364"><ele>954.0</ele><time>2026-04-26T10:18:34.006Z</time></trkpt><trkpt lat="44.6707083" lon="9.6538033"><ele>959.0</ele><time>2026-04-26T10:18:35.007Z</time></trkpt><trkpt lat="44.6707783" lon="9.6539967"><ele>964.0</ele><time>2026-04-26T10:18:36.007Z</time></trkpt><trkpt lat="44.6708533" lon="9.6541983"><ele>964.0</ele><time>2026-04-26T10:18:37.006Z</time></trkpt><trkpt lat="44.670945" lon="9.6543767"><ele>964.0</ele><time>2026-04-26T10:18:38.007Z</time></trkpt><trkpt lat="44.671035" lon="9.65458"><ele>964.0</ele><time>2026-04-26T10:18:39.006Z</time></trkpt><trkpt lat="44.6711383" lon="9.654775"><ele>965.6666666666666</ele><time>2026-04-26T10:18:40.006Z</time></trkpt><trkpt lat="44.671245" lon="9.65497"><ele>967.3333333333333</ele><time>2026-04-26T10:18:41.006Z</time></trkpt><trkpt lat="44.6713383" lon="9.6551683"><ele>969.0</ele><time>2026-04-26T10:18:42.007Z</time></trkpt><trkpt lat="44.6714367" lon="9.6553517"><ele>964.0</ele><time>2026-04-26T10:18:43.005Z</time></trkpt><trkpt lat="44.6715417" lon="9.6555233"><ele>959.0</ele><time>2026-04-26T10:18:44.005Z</time></trkpt><trkpt lat="44.6716483" lon="9.6556717"><ele>954.0</ele><time>2026-04-26T10:18:45.006Z</time></trkpt><trkpt lat="44.67174" lon="9.6558217"><ele>954.0</ele><time>2026-04-26T10:18:46.005Z</time></trkpt><trkpt lat="44.6718133" lon="9.6559683"><ele>954.0</ele><time>2026-04-26T10:18:47.006Z</time></trkpt><trkpt lat="44.671885" lon="9.656105"><ele>954.0</ele><time>2026-04-26T10:18:48.005Z</time></trkpt><trkpt lat="44.67191" lon="9.656245"><ele>954.0</ele><time>2026-04-26T10:18:49.005Z</time></trkpt><trkpt lat="44.67192" lon="9.656405"><ele>954.3333333333333</ele><time>2026-04-26T10:18:50.005Z</time></trkpt><trkpt lat="44.6719" lon="9.6565733"><ele>954.6666666666666</ele><time>2026-04-26T10:18:51.005Z</time></trkpt><trkpt lat="44.6718733" lon="9.6567617"><ele>955.0</ele><time>2026-04-26T10:18:52.005Z</time></trkpt><trkpt lat="44.6717967" lon="9.6570167"><ele>955.0</ele><time>2026-04-26T10:18:53.005Z</time></trkpt><trkpt lat="44.671745" lon="9.657225"><ele>955.0</ele><time>2026-04-26T10:18:54.006Z</time></trkpt><trkpt lat="44.6716967" lon="9.657405"><ele>955.0</ele><time>2026-04-26T10:18:55.005Z</time></trkpt><trkpt lat="44.6716117" lon="9.6575967"><ele>957.3333333333333</ele><time>2026-04-26T10:18:56.006Z</time></trkpt><trkpt lat="44.6715" lon="9.657795"><ele>959.6666666666667</ele><time>2026-04-26T10:18:57.006Z</time></trkpt><trkpt lat="44.6713783" lon="9.657985"><ele>962.0</ele><time>2026-04-26T10:18:58.006Z</time></trkpt><trkpt lat="44.671265" lon="9.65813"><ele>962.0</ele><time>2026-04-26T10:18:59.005Z</time></trkpt><trkpt lat="44.6711367" lon="9.6582833"><ele>962.0</ele><time>2026-04-26T10:19:00.006Z</time></trkpt><trkpt lat="44.6709867" lon="9.6584233"><ele>962.0</ele><time>2026-04-26T10:19:01.006Z</time></trkpt><trkpt lat="44.6708483" lon="9.6585417"><ele>959.3333333333334</ele><time>2026-04-26T10:19:02.005Z</time></trkpt><trkpt lat="44.6706783" lon="9.6586367"><ele>956.6666666666667</ele><time>2026-04-26T10:19:03.005Z</time></trkpt><trkpt lat="44.670485" lon="9.65868"><ele>954.0</ele><time>2026-04-26T10:19:04.005Z</time></trkpt><trkpt lat="44.6702967" lon="9.658715"><ele>949.6666666666667</ele><time>2026-04-26T10:19:05.005Z</time></trkpt><trkpt lat="44.6701217" lon="9.6587183"><ele>945.3333333333334</ele><time>2026-04-26T10:19:06.005Z</time></trkpt><trkpt lat="44.66997" lon="9.65876"><ele>941.0</ele><time>2026-04-26T10:19:07.006Z</time></trkpt><trkpt lat="44.6698283" lon="9.6588067"><ele>941.0</ele><time>2026-04-26T10:19:08.005Z</time></trkpt><trkpt lat="44.6697167" lon="9.658895"><ele>941.0</ele><time>2026-04-26T10:19:09.006Z</time></trkpt><trkpt lat="44.6696267" lon="9.659005"><ele>941.0</ele><time>2026-04-26T10:19:10.006Z</time></trkpt><trkpt lat="44.6695567" lon="9.6591367"><ele>941.0</ele><time>2026-04-26T10:19:11.006Z</time></trkpt><trkpt lat="44.6695117" lon="9.659315"><ele>940.0</ele><time>2026-04-26T10:19:12.006Z</time></trkpt><trkpt lat="44.6694767" lon="9.659515"><ele>939.0</ele><time>2026-04-26T10:19:13.006Z</time></trkpt><trkpt lat="44.66945" lon="9.6597283"><ele>938.0</ele><time>2026-04-26T10:19:14.005Z</time></trkpt><trkpt lat="44.6694283" lon="9.6599533"><ele>931.6666666666667</ele><time>2026-04-26T10:19:15.005Z</time></trkpt><trkpt lat="44.6694033" lon="9.6602067"><ele>925.3333333333333</ele><time>2026-04-26T10:19:16.006Z</time></trkpt><trkpt lat="44.6693783" lon="9.660455"><ele>919.0</ele><time>2026-04-26T10:19:17.006Z</time></trkpt><trkpt lat="44.6693517" lon="9.6607167"><ele>919.0</ele><time>2026-04-26T10:19:18.005Z</time></trkpt><trkpt lat="44.6693317" lon="9.6609733"><ele>919.0</ele><time>2026-04-26T10:19:19.005Z</time></trkpt><trkpt lat="44.6693117" lon="9.6612233"><ele>919.0</ele><time>2026-04-26T10:19:20.005Z</time></trkpt><trkpt lat="44.6692883" lon="9.6614533"><ele>918.3333333333333</ele><time>2026-04-26T10:19:21.006Z</time></trkpt><trkpt lat="44.6692667" lon="9.6616717"><ele>917.6666666666667</ele><time>2026-04-26T10:19:22.005Z</time></trkpt><trkpt lat="44.6692433" lon="9.6618917"><ele>917.0</ele><time>2026-04-26T10:19:23.006Z</time></trkpt><trkpt lat="44.6692267" lon="9.6621017"><ele>916.5</ele><time>2026-04-26T10:19:24.006Z</time></trkpt><trkpt lat="44.669215" lon="9.6623"><ele>916.0</ele><time>2026-04-26T10:19:25.005Z</time></trkpt><trkpt lat="44.6692033" lon="9.6624817"><ele>915.5</ele><time>2026-04-26T10:19:26.005Z</time></trkpt><trkpt lat="44.6691983" lon="9.6626317"><ele>915.0</ele><time>2026-04-26T10:19:27.005Z</time></trkpt><trkpt lat="44.6691933" lon="9.6628067"><ele>912.5</ele><time>2026-04-26T10:19:28.006Z</time></trkpt><trkpt lat="44.66921" lon="9.6629683"><ele>910.0</ele><time>2026-04-26T10:19:29.005Z</time></trkpt><trkpt lat="44.6692567" lon="9.66315"><ele>907.5</ele><time>2026-04-26T10:19:30.005Z</time></trkpt><trkpt lat="44.6693517" lon="9.66335"><ele>905.0</ele><time>2026-04-26T10:19:31.006Z</time></trkpt><trkpt lat="44.669475" lon="9.6635633"><ele>910.6666666666667</ele><time>2026-04-26T10:19:32.005Z</time></trkpt><trkpt lat="44.6695883" lon="9.66377"><ele>916.3333333333333</ele><time>2026-04-26T10:19:33.006Z</time></trkpt><trkpt lat="44.6696783" lon="9.6639683"><ele>922.0</ele><time>2026-04-26T10:19:34.006Z</time></trkpt><trkpt lat="44.6697533" lon="9.66416"><ele>922.0</ele><time>2026-04-26T10:19:35.006Z</time></trkpt><trkpt lat="44.669795" lon="9.6643483"><ele>922.0</ele><time>2026-04-26T10:19:36.005Z</time></trkpt><trkpt lat="44.669825" lon="9.6645467"><ele>922.0</ele><time>2026-04-26T10:19:37.005Z</time></trkpt><trkpt lat="44.6698283" lon="9.66473"><ele>922.0</ele><time>2026-04-26T10:19:38.006Z</time></trkpt><trkpt lat="44.6698283" lon="9.6649217"><ele>920.75</ele><time>2026-04-26T10:19:39.006Z</time></trkpt><trkpt lat="44.66982" lon="9.6651067"><ele>919.5</ele><time>2026-04-26T10:19:40.005Z</time></trkpt><trkpt lat="44.6698167" lon="9.665295"><ele>918.25</ele><time>2026-04-26T10:19:41.005Z</time></trkpt><trkpt lat="44.66982" lon="9.6655017"><ele>917.0</ele><time>2026-04-26T10:19:42.006Z</time></trkpt><trkpt lat="44.6698517" lon="9.6657017"><ele>915.5</ele><time>2026-04-26T10:19:43.006Z</time></trkpt><trkpt lat="44.6699" lon="9.66589"><ele>914.0</ele><time>2026-04-26T10:19:44.005Z</time></trkpt><trkpt lat="44.6699567" lon="9.6660767"><ele>912.5</ele><time>2026-04-26T10:19:45.005Z</time></trkpt><trkpt lat="44.6700283" lon="9.6662617"><ele>911.0</ele><time>2026-04-26T10:19:46.006Z</time></trkpt><trkpt lat="44.67008" lon="9.6664617"><ele>909.25</ele><time>2026-04-26T10:19:47.005Z</time></trkpt><trkpt lat="44.670115" lon="9.6666667"><ele>907.5</ele><time>2026-04-26T10:19:48.006Z</time></trkpt><trkpt lat="44.6701517" lon="9.6668783"><ele>905.75</ele><time>2026-04-26T10:19:49.005Z</time></trkpt><trkpt lat="44.67018" lon="9.6670717"><ele>904.0</ele><time>2026-04-26T10:19:50.005Z</time></trkpt><trkpt lat="44.6702033" lon="9.6672583"><ele>905.0</ele><time>2026-04-26T10:19:51.006Z</time></trkpt><trkpt lat="44.6702117" lon="9.6674433"><ele>906.0</ele><time>2026-04-26T10:19:52.006Z</time></trkpt><trkpt lat="44.67021" lon="9.6676283"><ele>907.0</ele><time>2026-04-26T10:19:53.005Z</time></trkpt><trkpt lat="44.670195" lon="9.66781"><ele>908.0</ele><time>2026-04-26T10:19:54.005Z</time></trkpt><trkpt lat="44.67016" lon="9.66799"><ele>908.0</ele><time>2026-04-26T10:19:55.005Z</time></trkpt><trkpt lat="44.6701167" lon="9.6681283"><ele>908.0</ele><time>2026-04-26T10:19:56.006Z</time></trkpt><trkpt lat="44.6700617" lon="9.6682533"><ele>908.0</ele><time>2026-04-26T10:19:57.006Z</time></trkpt><trkpt lat="44.6700067" lon="9.6683567"><ele>908.0</ele><time>2026-04-26T10:19:58.006Z</time></trkpt><trkpt lat="44.66987" lon="9.6683433"><ele>908.0</ele><time>2026-04-26T10:19:59.005Z</time></trkpt><trkpt lat="44.66974" lon="9.6683367"><ele>908.0</ele><time>2026-04-26T10:20:00.005Z</time></trkpt><trkpt lat="44.6695983" lon="9.6683167"><ele>908.0</ele><time>2026-04-26T10:20:01.006Z</time></trkpt><trkpt lat="44.6694367" lon="9.6682767"><ele>908.0</ele><time>2026-04-26T10:20:02.006Z</time></trkpt><trkpt lat="44.6692967" lon="9.6682533"><ele>908.0</ele><time>2026-04-26T10:20:03.006Z</time></trkpt><trkpt lat="44.669165" lon="9.66825"><ele>906.75</ele><time>2026-04-26T10:20:04.006Z</time></trkpt><trkpt lat="44.6690367" lon="9.6682683"><ele>905.5</ele><time>2026-04-26T10:20:05.006Z</time></trkpt><trkpt lat="44.668915" lon="9.6683117"><ele>904.25</ele><time>2026-04-26T10:20:06.005Z</time></trkpt><trkpt lat="44.6688067" lon="9.6683833"><ele>903.0</ele><time>2026-04-26T10:20:07.005Z</time></trkpt><trkpt lat="44.6687" lon="9.66849"><ele>901.25</ele><time>2026-04-26T10:20:08.006Z</time></trkpt><trkpt lat="44.6686167" lon="9.66864"><ele>899.5</ele><time>2026-04-26T10:20:09.006Z</time></trkpt><trkpt lat="44.6685433" lon="9.6688017"><ele>897.75</ele><time>2026-04-26T10:20:10.006Z</time></trkpt><trkpt lat="44.6684817" lon="9.6689967"><ele>896.0</ele><time>2026-04-26T10:20:11.005Z</time></trkpt><trkpt lat="44.6684167" lon="9.6692067"><ele>896.0</ele><time>2026-04-26T10:20:12.005Z</time></trkpt><trkpt lat="44.6683417" lon="9.6694067"><ele>896.0</ele><time>2026-04-26T10:20:13.005Z</time></trkpt><trkpt lat="44.6682583" lon="9.66958"><ele>896.0</ele><time>2026-04-26T10:20:14.005Z</time></trkpt><trkpt lat="44.6681533" lon="9.6697267"><ele>899.25</ele><time>2026-04-26T10:20:15.005Z</time></trkpt><trkpt lat="44.6680583" lon="9.66986"><ele>902.5</ele><time>2026-04-26T10:20:16.005Z</time></trkpt><trkpt lat="44.6679767" lon="9.6699883"><ele>905.75</ele><time>2026-04-26T10:20:17.005Z</time></trkpt><trkpt lat="44.66791" lon="9.6701283"><ele>909.0</ele><time>2026-04-26T10:20:18.005Z</time></trkpt><trkpt lat="44.6678583" lon="9.6702933"><ele>910.75</ele><time>2026-04-26T10:20:19.005Z</time></trkpt><trkpt lat="44.6678267" lon="9.6704833"><ele>912.5</ele><time>2026-04-26T10:20:20.005Z</time></trkpt><trkpt lat="44.66781" lon="9.6707067"><ele>914.25</ele><time>2026-04-26T10:20:21.005Z</time></trkpt><trkpt lat="44.6677767" lon="9.67091"><ele>916.0</ele><time>2026-04-26T10:20:22.006Z</time></trkpt><trkpt lat="44.6677317" lon="9.6710917"><ele>912.75</ele><time>2026-04-26T10:20:23.006Z</time></trkpt><trkpt lat="44.667675" lon="9.6712083"><ele>909.5</ele><time>2026-04-26T10:20:24.005Z</time></trkpt><trkpt lat="44.6675567" lon="9.67129"><ele>906.25</ele><time>2026-04-26T10:20:25.005Z</time></trkpt><trkpt lat="44.6674367" lon="9.6713833"><ele>903.0</ele><time>2026-04-26T10:20:26.006Z</time></trkpt><trkpt lat="44.6673233" lon="9.6714767"><ele>903.0</ele><time>2026-04-26T10:20:27.005Z</time></trkpt><trkpt lat="44.667205" lon="9.671565"><ele>903.0</ele><time>2026-04-26T10:20:28.005Z</time></trkpt><trkpt lat="44.667095" lon="9.671625"><ele>903.0</ele><time>2026-04-26T10:20:29.006Z</time></trkpt><trkpt lat="44.66698" lon="9.6716567"><ele>903.0</ele><time>2026-04-26T10:20:30.005Z</time></trkpt><trkpt lat="44.666855" lon="9.67161"><ele>903.2</ele><time>2026-04-26T10:20:31.006Z</time></trkpt><trkpt lat="44.6667467" lon="9.6716067"><ele>903.4</ele><time>2026-04-26T10:20:32.005Z</time></trkpt><trkpt lat="44.6666517" lon="9.6715617"><ele>903.6000000000001</ele><time>2026-04-26T10:20:33.006Z</time></trkpt><trkpt lat="44.6665583" lon="9.6714567"><ele>903.8000000000001</ele><time>2026-04-26T10:20:34.006Z</time></trkpt><trkpt lat="44.6664617" lon="9.671395"><ele>904.0</ele><time>2026-04-26T10:20:35.006Z</time></trkpt><trkpt lat="44.6663617" lon="9.6713467"><ele>904.0</ele><time>2026-04-26T10:20:36.005Z</time></trkpt><trkpt lat="44.6662517" lon="9.6713167"><ele>904.0</ele><time>2026-04-26T10:20:37.006Z</time></trkpt><trkpt lat="44.6661117" lon="9.6713433"><ele>904.0</ele><time>2026-04-26T10:20:38.005Z</time></trkpt><trkpt lat="44.66597" lon="9.671375"><ele>904.0</ele><time>2026-04-26T10:20:39.005Z</time></trkpt><trkpt lat="44.6658083" lon="9.6714383"><ele>903.0</ele><time>2026-04-26T10:20:40.005Z</time></trkpt><trkpt lat="44.6656567" lon="9.6714467"><ele>902.0</ele><time>2026-04-26T10:20:41.006Z</time></trkpt><trkpt lat="44.6655083" lon="9.671455"><ele>901.0</ele><time>2026-04-26T10:20:42.005Z</time></trkpt><trkpt lat="44.665355" lon="9.6714567"><ele>900.75</ele><time>2026-04-26T10:20:43.006Z</time></trkpt><trkpt lat="44.6652383" lon="9.6714167"><ele>900.5</ele><time>2026-04-26T10:20:44.005Z</time></trkpt><trkpt lat="44.6651267" lon="9.6713383"><ele>900.25</ele><time>2026-04-26T10:20:45.005Z</time></trkpt><trkpt lat="44.6650267" lon="9.6712567"><ele>900.0</ele><time>2026-04-26T10:20:46.005Z</time></trkpt><trkpt lat="44.6649533" lon="9.67103"><ele>898.5</ele><time>2026-04-26T10:20:47.006Z</time></trkpt><trkpt lat="44.6648917" lon="9.6708717"><ele>897.0</ele><time>2026-04-26T10:20:48.006Z</time></trkpt><trkpt lat="44.6648067" lon="9.670755"><ele>895.5</ele><time>2026-04-26T10:20:49.005Z</time></trkpt><trkpt lat="44.6647133" lon="9.670645"><ele>894.0</ele><time>2026-04-26T10:20:50.006Z</time></trkpt><trkpt lat="44.664605" lon="9.6705617"><ele>894.0</ele><time>2026-04-26T10:20:51.005Z</time></trkpt><trkpt lat="44.6644783" lon="9.670495"><ele>894.0</ele><time>2026-04-26T10:20:52.005Z</time></trkpt><trkpt lat="44.6643467" lon="9.67045"><ele>894.0</ele><time>2026-04-26T10:20:53.005Z</time></trkpt><trkpt lat="44.6642217" lon="9.6704117"><ele>894.0</ele><time>2026-04-26T10:20:54.006Z</time></trkpt><trkpt lat="44.664115" lon="9.6703817"><ele>895.5</ele><time>2026-04-26T10:20:55.005Z</time></trkpt><trkpt lat="44.6640267" lon="9.6702867"><ele>897.0</ele><time>2026-04-26T10:20:56.006Z</time></trkpt><trkpt lat="44.6639267" lon="9.6701333"><ele>898.5</ele><time>2026-04-26T10:20:57.005Z</time></trkpt><trkpt lat="44.663855" lon="9.6699467"><ele>900.0</ele><time>2026-04-26T10:20:58.006Z</time></trkpt><trkpt lat="44.663765" lon="9.6696783"><ele>895.3333333333333</ele><time>2026-04-26T10:20:59.005Z</time></trkpt><trkpt lat="44.6636633" lon="9.6694667"><ele>890.6666666666666</ele><time>2026-04-26T10:21:00.006Z</time></trkpt><trkpt lat="44.6635717" lon="9.6692383"><ele>886.0</ele><time>2026-04-26T10:21:01.006Z</time></trkpt><trkpt lat="44.663485" lon="9.6690117"><ele>886.0</ele><time>2026-04-26T10:21:02.006Z</time></trkpt><trkpt lat="44.6633967" lon="9.6688"><ele>886.0</ele><time>2026-04-26T10:21:03.005Z</time></trkpt><trkpt lat="44.66333" lon="9.6685917"><ele>886.0</ele><time>2026-04-26T10:21:04.005Z</time></trkpt><trkpt lat="44.663265" lon="9.6684"><ele>882.75</ele><time>2026-04-26T10:21:05.005Z</time></trkpt><trkpt lat="44.6631983" lon="9.6682183"><ele>879.5</ele><time>2026-04-26T10:21:06.005Z</time></trkpt><trkpt lat="44.6631283" lon="9.668055"><ele>876.25</ele><time>2026-04-26T10:21:07.005Z</time></trkpt><trkpt lat="44.6630417" lon="9.6679117"><ele>873.0</ele><time>2026-04-26T10:21:08.005Z</time></trkpt><trkpt lat="44.6629717" lon="9.6677867"><ele>871.0</ele><time>2026-04-26T10:21:09.005Z</time></trkpt><trkpt lat="44.66288" lon="9.6676767"><ele>869.0</ele><time>2026-04-26T10:21:10.006Z</time></trkpt><trkpt lat="44.66279" lon="9.667585"><ele>867.0</ele><time>2026-04-26T10:21:11.005Z</time></trkpt><trkpt lat="44.662655" lon="9.66755"><ele>865.0</ele><time>2026-04-26T10:21:12.006Z</time></trkpt><trkpt lat="44.6625267" lon="9.66754"><ele>865.0</ele><time>2026-04-26T10:21:13.005Z</time></trkpt><trkpt lat="44.6624283" lon="9.6675833"><ele>865.0</ele><time>2026-04-26T10:21:14.006Z</time></trkpt><trkpt lat="44.6623683" lon="9.6676867"><ele>865.0</ele><time>2026-04-26T10:21:15.006Z</time></trkpt><trkpt lat="44.662325" lon="9.667855"><ele>865.0</ele><time>2026-04-26T10:21:16.006Z</time></trkpt><trkpt lat="44.662295" lon="9.6680267"><ele>867.0</ele><time>2026-04-26T10:21:17.006Z</time></trkpt><trkpt lat="44.6622783" lon="9.6682117"><ele>869.0</ele><time>2026-04-26T10:21:18.005Z</time></trkpt><trkpt lat="44.66224" lon="9.6684183"><ele>871.0</ele><time>2026-04-26T10:21:19.005Z</time></trkpt><trkpt lat="44.66221" lon="9.6686083"><ele>873.0</ele><time>2026-04-26T10:21:20.005Z</time></trkpt><trkpt lat="44.662145" lon="9.668775"><ele>873.25</ele><time>2026-04-26T10:21:21.005Z</time></trkpt><trkpt lat="44.66207" lon="9.6689333"><ele>873.5</ele><time>2026-04-26T10:21:22.006Z</time></trkpt><trkpt lat="44.6619867" lon="9.6690817"><ele>873.75</ele><time>2026-04-26T10:21:23.006Z</time></trkpt><trkpt lat="44.6619083" lon="9.6692117"><ele>874.0</ele><time>2026-04-26T10:21:24.005Z</time></trkpt><trkpt lat="44.6618367" lon="9.6693567"><ele>874.0</ele><time>2026-04-26T10:21:25.006Z</time></trkpt><trkpt lat="44.6617517" lon="9.6693683"><ele>874.0000000000001</ele><time>2026-04-26T10:21:26.006Z</time></trkpt><trkpt lat="44.6616483" lon="9.66932"><ele>874.0000000000001</ele><time>2026-04-26T10:21:27.005Z</time></trkpt><trkpt lat="44.6615317" lon="9.6692533"><ele>874.0</ele><time>2026-04-26T10:21:28.006Z</time></trkpt><trkpt lat="44.6614333" lon="9.669195"><ele>874.0</ele><time>2026-04-26T10:21:29.005Z</time></trkpt><trkpt lat="44.6613433" lon="9.6691367"><ele>874.0</ele><time>2026-04-26T10:21:30.005Z</time></trkpt><trkpt lat="44.6612383" lon="9.6690417"><ele>874.0</ele><time>2026-04-26T10:21:31.006Z</time></trkpt><trkpt lat="44.6611233" lon="9.668905"><ele>874.0</ele><time>2026-04-26T10:21:32.005Z</time></trkpt><trkpt lat="44.661015" lon="9.66878"><ele>874.0</ele><time>2026-04-26T10:21:33.005Z</time></trkpt><trkpt lat="44.6608883" lon="9.6686583"><ele>870.6666666666666</ele><time>2026-04-26T10:21:34.005Z</time></trkpt><trkpt lat="44.6607467" lon="9.668515"><ele>867.3333333333333</ele><time>2026-04-26T10:21:35.005Z</time></trkpt><trkpt lat="44.66059" lon="9.6683783"><ele>864.0</ele><time>2026-04-26T10:21:36.005Z</time></trkpt><trkpt lat="44.6604283" lon="9.66826"><ele>866.6666666666667</ele><time>2026-04-26T10:21:37.005Z</time></trkpt><trkpt lat="44.660255" lon="9.6681583"><ele>869.3333333333334</ele><time>2026-04-26T10:21:38.005Z</time></trkpt><trkpt lat="44.6600667" lon="9.6680533"><ele>872.0</ele><time>2026-04-26T10:21:39.005Z</time></trkpt><trkpt lat="44.6598867" lon="9.6679483"><ele>872.0</ele><time>2026-04-26T10:21:40.005Z</time></trkpt><trkpt lat="44.6597017" lon="9.6678383"><ele>872.0</ele><time>2026-04-26T10:21:41.006Z</time></trkpt><trkpt lat="44.6595033" lon="9.66769"><ele>872.0</ele><time>2026-04-26T10:21:42.005Z</time></trkpt><trkpt lat="44.659335" lon="9.66759"><ele>869.25</ele><time>2026-04-26T10:21:43.006Z</time></trkpt><trkpt lat="44.659175" lon="9.6675117"><ele>866.5</ele><time>2026-04-26T10:21:44.006Z</time></trkpt><trkpt lat="44.6590433" lon="9.6675"><ele>863.75</ele><time>2026-04-26T10:21:45.005Z</time></trkpt><trkpt lat="44.6588983" lon="9.6674767"><ele>861.0</ele><time>2026-04-26T10:21:46.005Z</time></trkpt><trkpt lat="44.6587567" lon="9.6675033"><ele>860.6666666666667</ele><time>2026-04-26T10:21:47.005Z</time></trkpt><trkpt lat="44.6586033" lon="9.6675383"><ele>860.3333333333334</ele><time>2026-04-26T10:21:48.005Z</time></trkpt><trkpt lat="44.6584567" lon="9.6675967"><ele>860.0</ele><time>2026-04-26T10:21:49.005Z</time></trkpt><trkpt lat="44.6583133" lon="9.6676467"><ele>860.0</ele><time>2026-04-26T10:21:50.005Z</time></trkpt><trkpt lat="44.6581517" lon="9.6676383"><ele>860.0</ele><time>2026-04-26T10:21:51.005Z</time></trkpt><trkpt lat="44.6580033" lon="9.6676367"><ele>860.0</ele><time>2026-04-26T10:21:52.005Z</time></trkpt><trkpt lat="44.6578567" lon="9.6675967"><ele>860.75</ele><time>2026-04-26T10:21:53.005Z</time></trkpt><trkpt lat="44.6577117" lon="9.6675233"><ele>861.5</ele><time>2026-04-26T10:21:54.005Z</time></trkpt><trkpt lat="44.65758" lon="9.6674883"><ele>862.25</ele><time>2026-04-26T10:21:55.005Z</time></trkpt><trkpt lat="44.6574383" lon="9.667475"><ele>863.0</ele><time>2026-04-26T10:21:56.005Z</time></trkpt><trkpt lat="44.6572883" lon="9.667495"><ele>863.0</ele><time>2026-04-26T10:21:57.006Z</time></trkpt><trkpt lat="44.6571267" lon="9.6675017"><ele>863.0</ele><time>2026-04-26T10:21:58.006Z</time></trkpt><trkpt lat="44.65696" lon="9.6674767"><ele>863.0</ele><time>2026-04-26T10:21:59.005Z</time></trkpt><trkpt lat="44.6568083" lon="9.6674367"><ele>861.75</ele><time>2026-04-26T10:22:00.005Z</time></trkpt><trkpt lat="44.656665" lon="9.6674"><ele>860.5</ele><time>2026-04-26T10:22:01.006Z</time></trkpt><trkpt lat="44.6565217" lon="9.6674167"><ele>859.25</ele><time>2026-04-26T10:22:02.006Z</time></trkpt><trkpt lat="44.6563683" lon="9.6674533"><ele>858.0</ele><time>2026-04-26T10:22:03.005Z</time></trkpt><trkpt lat="44.656225" lon="9.6675317"><ele>856.0</ele><time>2026-04-26T10:22:04.006Z</time></trkpt><trkpt lat="44.656075" lon="9.66762"><ele>854.0</ele><time>2026-04-26T10:22:05.005Z</time></trkpt><trkpt lat="44.6559267" lon="9.66769"><ele>852.0</ele><time>2026-04-26T10:22:06.006Z</time></trkpt><trkpt lat="44.65577" lon="9.6677333"><ele>852.0</ele><time>2026-04-26T10:22:07.005Z</time></trkpt><trkpt lat="44.6556017" lon="9.6677567"><ele>852.0</ele><time>2026-04-26T10:22:08.005Z</time></trkpt><trkpt lat="44.6554283" lon="9.667775"><ele>852.0</ele><time>2026-04-26T10:22:09.005Z</time></trkpt><trkpt lat="44.6552483" lon="9.6677917"><ele>855.6666666666667</ele><time>2026-04-26T10:22:10.006Z</time></trkpt><trkpt lat="44.65507" lon="9.6678033"><ele>859.3333333333334</ele><time>2026-04-26T10:22:11.005Z</time></trkpt><trkpt lat="44.6548917" lon="9.6678017"><ele>863.0</ele><time>2026-04-26T10:22:12.005Z</time></trkpt><trkpt lat="44.6547317" lon="9.6678017"><ele>863.0</ele><time>2026-04-26T10:22:13.005Z</time></trkpt><trkpt lat="44.6545883" lon="9.66779"><ele>863.0</ele><time>2026-04-26T10:22:14.005Z</time></trkpt><trkpt lat="44.6544567" lon="9.667765"><ele>863.0</ele><time>2026-04-26T10:22:15.006Z</time></trkpt><trkpt lat="44.6543333" lon="9.6677467"><ele>863.0</ele><time>2026-04-26T10:22:16.006Z</time></trkpt><trkpt lat="44.65424" lon="9.6677683"><ele>861.0</ele><time>2026-04-26T10:22:17.005Z</time></trkpt><trkpt lat="44.65416" lon="9.6678317"><ele>859.0</ele><time>2026-04-26T10:22:18.005Z</time></trkpt><trkpt lat="44.6540817" lon="9.6678883"><ele>857.0</ele><time>2026-04-26T10:22:19.005Z</time></trkpt><trkpt lat="44.6540333" lon="9.667995"><ele>855.0</ele><time>2026-04-26T10:22:20.006Z</time></trkpt><trkpt lat="44.654" lon="9.6681433"><ele>853.0</ele><time>2026-04-26T10:22:21.006Z</time></trkpt><trkpt lat="44.6539867" lon="9.6683383"><ele>853.0</ele><time>2026-04-26T10:22:22.005Z</time></trkpt><trkpt lat="44.6539733" lon="9.668545"><ele>853.0</ele><time>2026-04-26T10:22:23.005Z</time></trkpt><trkpt lat="44.6539367" lon="9.6687283"><ele>853.0</ele><time>2026-04-26T10:22:24.006Z</time></trkpt><trkpt lat="44.6538817" lon="9.6688883"><ele>853.0</ele><time>2026-04-26T10:22:25.005Z</time></trkpt><trkpt lat="44.6538" lon="9.6690267"><ele>852.25</ele><time>2026-04-26T10:22:26.006Z</time></trkpt><trkpt lat="44.6536917" lon="9.6691167"><ele>851.5</ele><time>2026-04-26T10:22:27.006Z</time></trkpt><trkpt lat="44.6535517" lon="9.6691367"><ele>850.75</ele><time>2026-04-26T10:22:28.006Z</time></trkpt><trkpt lat="44.6534183" lon="9.669115"><ele>850.0</ele><time>2026-04-26T10:22:29.005Z</time></trkpt><trkpt lat="44.653315" lon="9.6691117"><ele>850.0</ele><time>2026-04-26T10:22:30.005Z</time></trkpt><trkpt lat="44.6531883" lon="9.6690183"><ele>850.0</ele><time>2026-04-26T10:22:31.006Z</time></trkpt><trkpt lat="44.653085" lon="9.6689033"><ele>850.0</ele><time>2026-04-26T10:22:32.005Z</time></trkpt><trkpt lat="44.652985" lon="9.6688567"><ele>850.0</ele><time>2026-04-26T10:22:33.005Z</time></trkpt><trkpt lat="44.6528833" lon="9.6688567"><ele>847.75</ele><time>2026-04-26T10:22:34.005Z</time></trkpt><trkpt lat="44.65278" lon="9.6688783"><ele>845.5</ele><time>2026-04-26T10:22:35.005Z</time></trkpt><trkpt lat="44.65267" lon="9.668955"><ele>843.25</ele><time>2026-04-26T10:22:36.005Z</time></trkpt><trkpt lat="44.6525683" lon="9.669075"><ele>841.0</ele><time>2026-04-26T10:22:37.005Z</time></trkpt><trkpt lat="44.65249" lon="9.6692483"><ele>841.3333333333333</ele><time>2026-04-26T10:22:38.006Z</time></trkpt><trkpt lat="44.6524633" lon="9.6695133"><ele>841.6666666666667</ele><time>2026-04-26T10:22:39.005Z</time></trkpt><trkpt lat="44.6524117" lon="9.6697417"><ele>842.0</ele><time>2026-04-26T10:22:40.005Z</time></trkpt><trkpt lat="44.6523367" lon="9.669945"><ele>842.0</ele><time>2026-04-26T10:22:41.006Z</time></trkpt><trkpt lat="44.6522617" lon="9.6701167"><ele>842.0</ele><time>2026-04-26T10:22:42.005Z</time></trkpt><trkpt lat="44.6522083" lon="9.670305"><ele>842.0</ele><time>2026-04-26T10:22:43.005Z</time></trkpt><trkpt lat="44.6521833" lon="9.6704983"><ele>842.0</ele><time>2026-04-26T10:22:44.005Z</time></trkpt><trkpt lat="44.65217" lon="9.6707183"><ele>844.0</ele><time>2026-04-26T10:22:45.005Z</time></trkpt><trkpt lat="44.6521417" lon="9.670945"><ele>846.0</ele><time>2026-04-26T10:22:46.005Z</time></trkpt><trkpt lat="44.6521" lon="9.67117"><ele>848.0</ele><time>2026-04-26T10:22:47.005Z</time></trkpt><trkpt lat="44.65204" lon="9.6713733"><ele>847.3333333333334</ele><time>2026-04-26T10:22:48.006Z</time></trkpt><trkpt lat="44.6519783" lon="9.6715633"><ele>846.6666666666667</ele><time>2026-04-26T10:22:49.005Z</time></trkpt><trkpt lat="44.6518533" lon="9.6717033"><ele>846.0</ele><time>2026-04-26T10:22:50.005Z</time></trkpt><trkpt lat="44.65172" lon="9.67179"><ele>846.0</ele><time>2026-04-26T10:22:51.005Z</time></trkpt><trkpt lat="44.6515817" lon="9.671845"><ele>846.0</ele><time>2026-04-26T10:22:52.005Z</time></trkpt><trkpt lat="44.6514233" lon="9.671855"><ele>846.0</ele><time>2026-04-26T10:22:53.006Z</time></trkpt><trkpt lat="44.65125" lon="9.671825"><ele>846.6666666666667</ele><time>2026-04-26T10:22:54.006Z</time></trkpt><trkpt lat="44.651055" lon="9.6717567"><ele>847.3333333333334</ele><time>2026-04-26T10:22:55.006Z</time></trkpt><trkpt lat="44.6508967" lon="9.6717333"><ele>848.0</ele><time>2026-04-26T10:22:56.006Z</time></trkpt><trkpt lat="44.6507417" lon="9.6717183"><ele>848.0</ele><time>2026-04-26T10:22:57.006Z</time></trkpt><trkpt lat="44.6505933" lon="9.6716683"><ele>848.0</ele><time>2026-04-26T10:22:58.006Z</time></trkpt><trkpt lat="44.6504533" lon="9.6714983"><ele>848.0</ele><time>2026-04-26T10:22:59.005Z</time></trkpt><trkpt lat="44.6503917" lon="9.6713467"><ele>848.0</ele><time>2026-04-26T10:23:00.005Z</time></trkpt><trkpt lat="44.650295" lon="9.6712233"><ele>848.0</ele><time>2026-04-26T10:23:01.005Z</time></trkpt><trkpt lat="44.65019" lon="9.6711233"><ele>848.0</ele><time>2026-04-26T10:23:02.005Z</time></trkpt><trkpt lat="44.65007" lon="9.6710633"><ele>848.0</ele><time>2026-04-26T10:23:03.006Z</time></trkpt><trkpt lat="44.64993" lon="9.6710467"><ele>849.3333333333334</ele><time>2026-04-26T10:23:04.006Z</time></trkpt><trkpt lat="44.6497767" lon="9.6710967"><ele>850.6666666666667</ele><time>2026-04-26T10:23:05.005Z</time></trkpt><trkpt lat="44.6496183" lon="9.6712067"><ele>852.0</ele><time>2026-04-26T10:23:06.006Z</time></trkpt><trkpt lat="44.6494433" lon="9.6713233"><ele>852.0</ele><time>2026-04-26T10:23:07.005Z</time></trkpt><trkpt lat="44.64927" lon="9.67142"><ele>852.0</ele><time>2026-04-26T10:23:08.006Z</time></trkpt><trkpt lat="44.6490633" lon="9.6714567"><ele>852.0</ele><time>2026-04-26T10:23:09.006Z</time></trkpt><trkpt lat="44.6488933" lon="9.67147"><ele>852.0</ele><time>2026-04-26T10:23:10.006Z</time></trkpt><trkpt lat="44.6487267" lon="9.6714533"><ele>852.0</ele><time>2026-04-26T10:23:11.006Z</time></trkpt><trkpt lat="44.648565" lon="9.6714067"><ele>852.0</ele><time>2026-04-26T10:23:12.006Z</time></trkpt><trkpt lat="44.6484033" lon="9.6713633"><ele>852.0</ele><time>2026-04-26T10:23:13.005Z</time></trkpt><trkpt lat="44.6482533" lon="9.6713283"><ele>852.0</ele><time>2026-04-26T10:23:14.006Z</time></trkpt><trkpt lat="44.6481117" lon="9.6712883"><ele>852.0</ele><time>2026-04-26T10:23:15.005Z</time></trkpt><trkpt lat="44.6479717" lon="9.67123"><ele>852.0</ele><time>2026-04-26T10:23:16.005Z</time></trkpt><trkpt lat="44.64784" lon="9.6711333"><ele>852.0</ele><time>2026-04-26T10:23:17.005Z</time></trkpt><trkpt lat="44.647725" lon="9.670985"><ele>852.0</ele><time>2026-04-26T10:23:18.006Z</time></trkpt><trkpt lat="44.6476633" lon="9.67069"><ele>852.0</ele><time>2026-04-26T10:23:19.006Z</time></trkpt><trkpt lat="44.6476" lon="9.6704883"><ele>852.0</ele><time>2026-04-26T10:23:20.005Z</time></trkpt><trkpt lat="44.6475217" lon="9.670365"><ele>852.0</ele><time>2026-04-26T10:23:21.006Z</time></trkpt><trkpt lat="44.64744" lon="9.670275"><ele>852.0</ele><time>2026-04-26T10:23:22.005Z</time></trkpt><trkpt lat="44.6473433" lon="9.67022"><ele>852.0</ele><time>2026-04-26T10:23:23.006Z</time></trkpt><trkpt lat="44.64725" lon="9.6702683"><ele>852.0</ele><time>2026-04-26T10:23:24.006Z</time></trkpt><trkpt lat="44.647165" lon="9.670385"><ele>852.0</ele><time>2026-04-26T10:23:25.006Z</time></trkpt><trkpt lat="44.6470633" lon="9.6705633"><ele>852.0</ele><time>2026-04-26T10:23:26.005Z</time></trkpt><trkpt lat="44.6469433" lon="9.6707533"><ele>852.0</ele><time>2026-04-26T10:23:27.006Z</time></trkpt><trkpt lat="44.6468333" lon="9.6709217"><ele>849.6666666666667</ele><time>2026-04-26T10:23:28.006Z</time></trkpt><trkpt lat="44.6467267" lon="9.6710533"><ele>847.3333333333334</ele><time>2026-04-26T10:23:29.006Z</time></trkpt><trkpt lat="44.64665" lon="9.6712583"><ele>845.0</ele><time>2026-04-26T10:23:30.005Z</time></trkpt><trkpt lat="44.6465967" lon="9.671475"><ele>845.0</ele><time>2026-04-26T10:23:31.006Z</time></trkpt><trkpt lat="44.6465433" lon="9.6716817"><ele>845.0</ele><time>2026-04-26T10:23:32.005Z</time></trkpt><trkpt lat="44.6464817" lon="9.6718633"><ele>845.0</ele><time>2026-04-26T10:23:33.005Z</time></trkpt><trkpt lat="44.6464267" lon="9.67203"><ele>845.0</ele><time>2026-04-26T10:23:34.006Z</time></trkpt><trkpt lat="44.64641" lon="9.67221"><ele>842.6666666666667</ele><time>2026-04-26T10:23:35.006Z</time></trkpt><trkpt lat="44.6464417" lon="9.6723733"><ele>840.3333333333333</ele><time>2026-04-26T10:23:36.005Z</time></trkpt><trkpt lat="44.6466133" lon="9.6725533"><ele>838.0</ele><time>2026-04-26T10:23:37.005Z</time></trkpt><trkpt lat="44.6467783" lon="9.67271"><ele>835.3333333333333</ele><time>2026-04-26T10:23:38.006Z</time></trkpt><trkpt lat="44.646935" lon="9.6729017"><ele>832.6666666666667</ele><time>2026-04-26T10:23:39.005Z</time></trkpt><trkpt lat="44.6470367" lon="9.6730967"><ele>830.0</ele><time>2026-04-26T10:23:40.006Z</time></trkpt><trkpt lat="44.6471117" lon="9.6733117"><ele>840.0</ele><time>2026-04-26T10:23:41.006Z</time></trkpt><trkpt lat="44.6471583" lon="9.67354"><ele>850.0</ele><time>2026-04-26T10:23:42.005Z</time></trkpt><trkpt lat="44.6471717" lon="9.673795"><ele>860.0</ele><time>2026-04-26T10:23:43.006Z</time></trkpt><trkpt lat="44.647155" lon="9.6740417"><ele>860.6666666666667</ele><time>2026-04-26T10:23:44.005Z</time></trkpt><trkpt lat="44.647115" lon="9.6742483"><ele>861.3333333333333</ele><time>2026-04-26T10:23:45.005Z</time></trkpt><trkpt lat="44.64701" lon="9.6745067"><ele>862.0</ele><time>2026-04-26T10:23:46.006Z</time></trkpt><trkpt lat="44.6469267" lon="9.6747383"><ele>854.0</ele><time>2026-04-26T10:23:47.006Z</time></trkpt><trkpt lat="44.646855" lon="9.6749633"><ele>846.0</ele><time>2026-04-26T10:23:48.006Z</time></trkpt><trkpt lat="44.6467967" lon="9.6752067"><ele>838.0</ele><time>2026-04-26T10:23:49.006Z</time></trkpt><trkpt lat="44.6467617" lon="9.6754433"><ele>838.0</ele><time>2026-04-26T10:23:50.005Z</time></trkpt><trkpt lat="44.6467517" lon="9.6756867"><ele>838.0</ele><time>2026-04-26T10:23:51.006Z</time></trkpt><trkpt lat="44.64673" lon="9.6759017"><ele>838.0</ele><time>2026-04-26T10:23:52.005Z</time></trkpt><trkpt lat="44.646695" lon="9.6760983"><ele>839.3333333333333</ele><time>2026-04-26T10:23:53.006Z</time></trkpt><trkpt lat="44.6466217" lon="9.6762933"><ele>840.6666666666667</ele><time>2026-04-26T10:23:54.005Z</time></trkpt><trkpt lat="44.646525" lon="9.6764783"><ele>842.0</ele><time>2026-04-26T10:23:55.006Z</time></trkpt><trkpt lat="44.646405" lon="9.6766533"><ele>842.0</ele><time>2026-04-26T10:23:56.005Z</time></trkpt><trkpt lat="44.6463" lon="9.6768533"><ele>842.0</ele><time>2026-04-26T10:23:57.005Z</time></trkpt><trkpt lat="44.6462033" lon="9.6770517"><ele>842.0</ele><time>2026-04-26T10:23:58.005Z</time></trkpt><trkpt lat="44.6461017" lon="9.67725"><ele>840.0</ele><time>2026-04-26T10:23:59.006Z</time></trkpt><trkpt lat="44.645985" lon="9.6774267"><ele>838.0</ele><time>2026-04-26T10:24:00.006Z</time></trkpt><trkpt lat="44.6458567" lon="9.6776017"><ele>836.0</ele><time>2026-04-26T10:24:01.005Z</time></trkpt><trkpt lat="44.6457083" lon="9.6777467"><ele>838.6666666666667</ele><time>2026-04-26T10:24:02.005Z</time></trkpt><trkpt lat="44.6455567" lon="9.6778717"><ele>841.3333333333333</ele><time>2026-04-26T10:24:03.006Z</time></trkpt><trkpt lat="44.6453967" lon="9.6779683"><ele>844.0</ele><time>2026-04-26T10:24:04.005Z</time></trkpt><trkpt lat="44.64523" lon="9.6780467"><ele>844.0</ele><time>2026-04-26T10:24:05.006Z</time></trkpt><trkpt lat="44.6450467" lon="9.6780717"><ele>844.0</ele><time>2026-04-26T10:24:06.005Z</time></trkpt><trkpt lat="44.6448436" lon="9.6779815"><ele>844.0</ele><time>2026-04-26T10:24:07.005Z</time></trkpt><trkpt lat="44.6446663" lon="9.6779564"><ele>844.0</ele><time>2026-04-26T10:24:08.005Z</time></trkpt><trkpt lat="44.6445043" lon="9.6779687"><ele>844.0</ele><time>2026-04-26T10:24:09.005Z</time></trkpt><trkpt lat="44.6443651" lon="9.6780105"><ele>844.0</ele><time>2026-04-26T10:24:10.006Z</time></trkpt><trkpt lat="44.6442409" lon="9.6780776"><ele>844.0</ele><time>2026-04-26T10:24:11.006Z</time></trkpt><trkpt lat="44.6441456" lon="9.6781585"><ele>842.0</ele><time>2026-04-26T10:24:12.005Z</time></trkpt><trkpt lat="44.6440766" lon="9.6782639"><ele>840.0</ele><time>2026-04-26T10:24:13.006Z</time></trkpt><trkpt lat="44.644045" lon="9.6783876"><ele>838.0</ele><time>2026-04-26T10:24:14.005Z</time></trkpt><trkpt lat="44.6440678" lon="9.6785128"><ele>836.0</ele><time>2026-04-26T10:24:15.005Z</time></trkpt><trkpt lat="44.6441416" lon="9.6786478"><ele>834.0</ele><time>2026-04-26T10:24:16.005Z</time></trkpt><trkpt lat="44.6442645" lon="9.6787914"><ele>837.0</ele><time>2026-04-26T10:24:17.005Z</time></trkpt><trkpt lat="44.644423" lon="9.6789414"><ele>840.0</ele><time>2026-04-26T10:24:18.006Z</time></trkpt><trkpt lat="44.6445964" lon="9.6790963"><ele>843.0</ele><time>2026-04-26T10:24:19.006Z</time></trkpt><trkpt lat="44.6447586" lon="9.6792465"><ele>843.0</ele><time>2026-04-26T10:24:20.006Z</time></trkpt><trkpt lat="44.6448975" lon="9.6793771"><ele>843.0</ele><time>2026-04-26T10:24:21.006Z</time></trkpt><trkpt lat="44.6450203" lon="9.6795074"><ele>843.0</ele><time>2026-04-26T10:24:22.005Z</time></trkpt><trkpt lat="44.6451127" lon="9.6796334"><ele>842.25</ele><time>2026-04-26T10:24:23.005Z</time></trkpt><trkpt lat="44.645153" lon="9.67981"><ele>841.5</ele><time>2026-04-26T10:24:24.005Z</time></trkpt><trkpt lat="44.6451708" lon="9.6799995"><ele>840.75</ele><time>2026-04-26T10:24:25.005Z</time></trkpt><trkpt lat="44.6451741" lon="9.6801902"><ele>840.0</ele><time>2026-04-26T10:24:26.005Z</time></trkpt><trkpt lat="44.6451428" lon="9.6804065"><ele>840.0</ele><time>2026-04-26T10:24:27.005Z</time></trkpt><trkpt lat="44.6450787" lon="9.6806114"><ele>840.0</ele><time>2026-04-26T10:24:28.005Z</time></trkpt><trkpt lat="44.6449877" lon="9.6808075"><ele>840.0</ele><time>2026-04-26T10:24:29.005Z</time></trkpt><trkpt lat="44.6448645" lon="9.680979"><ele>841.3333333333333</ele><time>2026-04-26T10:24:30.005Z</time></trkpt><trkpt lat="44.6446916" lon="9.6811282"><ele>842.6666666666666</ele><time>2026-04-26T10:24:31.005Z</time></trkpt><trkpt lat="44.6444948" lon="9.6812583"><ele>844.0</ele><time>2026-04-26T10:24:32.006Z</time></trkpt><trkpt lat="44.6443118" lon="9.6813563"><ele>844.0</ele><time>2026-04-26T10:24:33.006Z</time></trkpt><trkpt lat="44.6441509" lon="9.6814442"><ele>844.0</ele><time>2026-04-26T10:24:34.006Z</time></trkpt><trkpt lat="44.6440248" lon="9.6815303"><ele>844.0</ele><time>2026-04-26T10:24:35.005Z</time></trkpt><trkpt lat="44.6438777" lon="9.6815777"><ele>844.0</ele><time>2026-04-26T10:24:36.005Z</time></trkpt><trkpt lat="44.6437428" lon="9.6816251"><ele>844.0</ele><time>2026-04-26T10:24:37.005Z</time></trkpt><trkpt lat="44.6436219" lon="9.6816549"><ele>844.0</ele><time>2026-04-26T10:24:38.006Z</time></trkpt><trkpt lat="44.6434945" lon="9.681643"><ele>844.0</ele><time>2026-04-26T10:24:39.006Z</time></trkpt><trkpt lat="44.6433488" lon="9.6816068"><ele>842.3333333333333</ele><time>2026-04-26T10:24:40.005Z</time></trkpt><trkpt lat="44.6432004" lon="9.6815504"><ele>840.6666666666667</ele><time>2026-04-26T10:24:41.006Z</time></trkpt><trkpt lat="44.6429988" lon="9.6814116"><ele>839.0</ele><time>2026-04-26T10:24:42.006Z</time></trkpt><trkpt lat="44.6428025" lon="9.6813312"><ele>836.0</ele><time>2026-04-26T10:24:43.006Z</time></trkpt><trkpt lat="44.6426321" lon="9.6813072"><ele>833.0</ele><time>2026-04-26T10:24:44.006Z</time></trkpt><trkpt lat="44.6424664" lon="9.6813091"><ele>830.0</ele><time>2026-04-26T10:24:45.006Z</time></trkpt><trkpt lat="44.6423093" lon="9.6813632"><ele>830.0</ele><time>2026-04-26T10:24:46.006Z</time></trkpt><trkpt lat="44.6421676" lon="9.6814732"><ele>830.0</ele><time>2026-04-26T10:24:47.005Z</time></trkpt><trkpt lat="44.6420368" lon="9.6816136"><ele>830.0</ele><time>2026-04-26T10:24:48.006Z</time></trkpt><trkpt lat="44.6419218" lon="9.681794"><ele>827.3333333333334</ele><time>2026-04-26T10:24:49.005Z</time></trkpt><trkpt lat="44.641807" lon="9.6819732"><ele>824.6666666666667</ele><time>2026-04-26T10:24:50.005Z</time></trkpt><trkpt lat="44.6416878" lon="9.6821409"><ele>822.0</ele><time>2026-04-26T10:24:51.005Z</time></trkpt><trkpt lat="44.6415677" lon="9.682283"><ele>822.0</ele><time>2026-04-26T10:24:52.005Z</time></trkpt><trkpt lat="44.6414531" lon="9.6823967"><ele>822.0</ele><time>2026-04-26T10:24:53.005Z</time></trkpt><trkpt lat="44.64133" lon="9.6824705"><ele>822.0</ele><time>2026-04-26T10:24:54.006Z</time></trkpt><trkpt lat="44.641191" lon="9.6825242"><ele>822.0</ele><time>2026-04-26T10:24:55.006Z</time></trkpt><trkpt lat="44.6410293" lon="9.6825934"><ele>821.3333333333333</ele><time>2026-04-26T10:24:56.006Z</time></trkpt><trkpt lat="44.6408615" lon="9.6826839"><ele>820.6666666666666</ele><time>2026-04-26T10:24:57.006Z</time></trkpt><trkpt lat="44.6407001" lon="9.6827741"><ele>820.0</ele><time>2026-04-26T10:24:58.005Z</time></trkpt><trkpt lat="44.6405442" lon="9.6828497"><ele>820.0</ele><time>2026-04-26T10:24:59.004Z</time></trkpt><trkpt lat="44.6404023" lon="9.6829248"><ele>820.0</ele><time>2026-04-26T10:25:00.004Z</time></trkpt><trkpt lat="44.6402643" lon="9.6829796"><ele>820.0</ele><time>2026-04-26T10:25:01.004Z</time></trkpt><trkpt lat="44.6401314" lon="9.6830176"><ele>820.0</ele><time>2026-04-26T10:25:02.005Z</time></trkpt><trkpt lat="44.6399887" lon="9.683039"><ele>816.25</ele><time>2026-04-26T10:25:03.005Z</time></trkpt><trkpt lat="44.639861" lon="9.6830767"><ele>812.5</ele><time>2026-04-26T10:25:04.005Z</time></trkpt><trkpt lat="44.6397321" lon="9.683128"><ele>808.75</ele><time>2026-04-26T10:25:05.005Z</time></trkpt><trkpt lat="44.6396203" lon="9.6832001"><ele>805.0</ele><time>2026-04-26T10:25:06.005Z</time></trkpt><trkpt lat="44.6395382" lon="9.6833028"><ele>805.0</ele><time>2026-04-26T10:25:07.004Z</time></trkpt><trkpt lat="44.6394843" lon="9.6834216"><ele>805.0</ele><time>2026-04-26T10:25:08.004Z</time></trkpt><trkpt lat="44.6394624" lon="9.6835548"><ele>805.0</ele><time>2026-04-26T10:25:09.004Z</time></trkpt><trkpt lat="44.6394325" lon="9.6837038"><ele>805.0</ele><time>2026-04-26T10:25:10.005Z</time></trkpt><trkpt lat="44.6394032" lon="9.6838796"><ele>805.0</ele><time>2026-04-26T10:25:11.005Z</time></trkpt><trkpt lat="44.6393696" lon="9.6840576"><ele>804.0</ele><time>2026-04-26T10:25:12.004Z</time></trkpt><trkpt lat="44.6393333" lon="9.6842655"><ele>803.0</ele><time>2026-04-26T10:25:13.005Z</time></trkpt><trkpt lat="44.6392964" lon="9.684462"><ele>802.0</ele><time>2026-04-26T10:25:14.005Z</time></trkpt><trkpt lat="44.6392568" lon="9.6846467"><ele>801.0</ele><time>2026-04-26T10:25:15.004Z</time></trkpt><trkpt lat="44.6392103" lon="9.684814"><ele>801.0</ele><time>2026-04-26T10:25:16.004Z</time></trkpt><trkpt lat="44.6391271" lon="9.6849291"><ele>801.0</ele><time>2026-04-26T10:25:17.004Z</time></trkpt><trkpt lat="44.6389995" lon="9.6848926"><ele>801.0</ele><time>2026-04-26T10:25:18.005Z</time></trkpt><trkpt lat="44.6388537" lon="9.6848298"><ele>801.0</ele><time>2026-04-26T10:25:19.005Z</time></trkpt><trkpt lat="44.6387349" lon="9.6848441"><ele>800.25</ele><time>2026-04-26T10:25:20.004Z</time></trkpt><trkpt lat="44.6385989" lon="9.6848671"><ele>799.5</ele><time>2026-04-26T10:25:21.005Z</time></trkpt><trkpt lat="44.6384523" lon="9.6848883"><ele>798.75</ele><time>2026-04-26T10:25:22.005Z</time></trkpt><trkpt lat="44.6383018" lon="9.6849098"><ele>798.0</ele><time>2026-04-26T10:25:23.005Z</time></trkpt><trkpt lat="44.6381533" lon="9.6849397"><ele>798.0</ele><time>2026-04-26T10:25:24.004Z</time></trkpt><trkpt lat="44.6379949" lon="9.6849357"><ele>798.0</ele><time>2026-04-26T10:25:25.005Z</time></trkpt><trkpt lat="44.6378309" lon="9.6848938"><ele>798.0</ele><time>2026-04-26T10:25:26.004Z</time></trkpt><trkpt lat="44.6376839" lon="9.6848697"><ele>797.0</ele><time>2026-04-26T10:25:27.004Z</time></trkpt><trkpt lat="44.6375444" lon="9.6848476"><ele>796.0</ele><time>2026-04-26T10:25:28.005Z</time></trkpt><trkpt lat="44.6374044" lon="9.6848477"><ele>795.0</ele><time>2026-04-26T10:25:29.005Z</time></trkpt><trkpt lat="44.6372681" lon="9.6848758"><ele>794.0</ele><time>2026-04-26T10:25:30.005Z</time></trkpt><trkpt lat="44.6371379" lon="9.6849219"><ele>794.0</ele><time>2026-04-26T10:25:31.004Z</time></trkpt><trkpt lat="44.6370107" lon="9.6850294"><ele>794.0</ele><time>2026-04-26T10:25:32.005Z</time></trkpt><trkpt lat="44.6368905" lon="9.6851752"><ele>794.0</ele><time>2026-04-26T10:25:33.004Z</time></trkpt><trkpt lat="44.6367709" lon="9.6853476"><ele>792.0</ele><time>2026-04-26T10:25:34.005Z</time></trkpt><trkpt lat="44.6366552" lon="9.6855134"><ele>790.0</ele><time>2026-04-26T10:25:35.005Z</time></trkpt><trkpt lat="44.636577" lon="9.685704"><ele>788.0</ele><time>2026-04-26T10:25:36.004Z</time></trkpt><trkpt lat="44.6364771" lon="9.6858283"><ele>788.0</ele><time>2026-04-26T10:25:37.005Z</time></trkpt><trkpt lat="44.6363834" lon="9.6859353"><ele>788.0</ele><time>2026-04-26T10:25:38.005Z</time></trkpt><trkpt lat="44.6363034" lon="9.6860338"><ele>788.0</ele><time>2026-04-26T10:25:39.004Z</time></trkpt><trkpt lat="44.6362495" lon="9.6861461"><ele>788.0</ele><time>2026-04-26T10:25:40.004Z</time></trkpt><trkpt lat="44.6362915" lon="9.6863096"><ele>788.0</ele><time>2026-04-26T10:25:41.005Z</time></trkpt><trkpt lat="44.6363876" lon="9.6864721"><ele>786.25</ele><time>2026-04-26T10:25:42.005Z</time></trkpt><trkpt lat="44.6364752" lon="9.6866289"><ele>784.5</ele><time>2026-04-26T10:25:43.005Z</time></trkpt><trkpt lat="44.6365667" lon="9.6867718"><ele>782.75</ele><time>2026-04-26T10:25:44.004Z</time></trkpt><trkpt lat="44.6366734" lon="9.6868768"><ele>781.0</ele><time>2026-04-26T10:25:45.005Z</time></trkpt><trkpt lat="44.6368105" lon="9.6869569"><ele>781.0</ele><time>2026-04-26T10:25:46.005Z</time></trkpt><trkpt lat="44.6369489" lon="9.6870433"><ele>781.0</ele><time>2026-04-26T10:25:47.005Z</time></trkpt><trkpt lat="44.6370766" lon="9.6871398"><ele>781.0</ele><time>2026-04-26T10:25:48.005Z</time></trkpt><trkpt lat="44.6371833" lon="9.6872451"><ele>781.0</ele><time>2026-04-26T10:25:49.004Z</time></trkpt><trkpt lat="44.6372548" lon="9.6873866"><ele>781.0</ele><time>2026-04-26T10:25:50.005Z</time></trkpt><trkpt lat="44.6373087" lon="9.6875498"><ele>781.0</ele><time>2026-04-26T10:25:51.005Z</time></trkpt><trkpt lat="44.6373717" lon="9.6877063"><ele>781.0</ele><time>2026-04-26T10:25:52.005Z</time></trkpt><trkpt lat="44.6374536" lon="9.6878583"><ele>781.0</ele><time>2026-04-26T10:25:53.004Z</time></trkpt><trkpt lat="44.6375557" lon="9.6880163"><ele>780.0</ele><time>2026-04-26T10:25:54.004Z</time></trkpt><trkpt lat="44.6376318" lon="9.6881676"><ele>779.0</ele><time>2026-04-26T10:25:55.004Z</time></trkpt><trkpt lat="44.6376732" lon="9.6883232"><ele>778.0</ele><time>2026-04-26T10:25:56.004Z</time></trkpt><trkpt lat="44.6376951" lon="9.688473"><ele>777.0</ele><time>2026-04-26T10:25:57.005Z</time></trkpt><trkpt lat="44.6376731" lon="9.6886459"><ele>777.0</ele><time>2026-04-26T10:25:58.005Z</time></trkpt><trkpt lat="44.6376224" lon="9.6888168"><ele>777.0</ele><time>2026-04-26T10:25:59.005Z</time></trkpt><trkpt lat="44.6375515" lon="9.6889964"><ele>777.0</ele><time>2026-04-26T10:26:00.005Z</time></trkpt><trkpt lat="44.6374752" lon="9.6891695"><ele>777.0</ele><time>2026-04-26T10:26:01.005Z</time></trkpt><trkpt lat="44.6373944" lon="9.6893448"><ele>776.5</ele><time>2026-04-26T10:26:02.004Z</time></trkpt><trkpt lat="44.6373031" lon="9.6894936"><ele>776.0</ele><time>2026-04-26T10:26:03.004Z</time></trkpt><trkpt lat="44.6372095" lon="9.6896217"><ele>775.5</ele><time>2026-04-26T10:26:04.005Z</time></trkpt><trkpt lat="44.6371292" lon="9.6897374"><ele>775.0</ele><time>2026-04-26T10:26:05.004Z</time></trkpt><trkpt lat="44.6370725" lon="9.6898669"><ele>775.0</ele><time>2026-04-26T10:26:06.004Z</time></trkpt><trkpt lat="44.6370411" lon="9.6900035"><ele>775.0</ele><time>2026-04-26T10:26:07.004Z</time></trkpt><trkpt lat="44.637048" lon="9.6901423"><ele>775.0</ele><time>2026-04-26T10:26:08.005Z</time></trkpt><trkpt lat="44.6371131" lon="9.6902805"><ele>775.0</ele><time>2026-04-26T10:26:09.004Z</time></trkpt><trkpt lat="44.6372638" lon="9.6904217"><ele>771.75</ele><time>2026-04-26T10:26:10.004Z</time></trkpt><trkpt lat="44.6373912" lon="9.6905682"><ele>768.5</ele><time>2026-04-26T10:26:11.004Z</time></trkpt><trkpt lat="44.6374851" lon="9.6907146"><ele>765.25</ele><time>2026-04-26T10:26:12.004Z</time></trkpt><trkpt lat="44.6375612" lon="9.6908617"><ele>762.0</ele><time>2026-04-26T10:26:13.004Z</time></trkpt><trkpt lat="44.6376025" lon="9.6910505"><ele>760.0</ele><time>2026-04-26T10:26:14.005Z</time></trkpt><trkpt lat="44.6376198" lon="9.6912613"><ele>758.0</ele><time>2026-04-26T10:26:15.005Z</time></trkpt><trkpt lat="44.6376024" lon="9.6914948"><ele>756.0</ele><time>2026-04-26T10:26:16.004Z</time></trkpt><trkpt lat="44.637598" lon="9.6916758"><ele>754.0</ele><time>2026-04-26T10:26:17.004Z</time></trkpt><trkpt lat="44.6376113" lon="9.6918464"><ele>752.6</ele><time>2026-04-26T10:26:18.004Z</time></trkpt><trkpt lat="44.6376516" lon="9.6920064"><ele>751.2</ele><time>2026-04-26T10:26:19.005Z</time></trkpt><trkpt lat="44.6376998" lon="9.6921447"><ele>749.8000000000001</ele><time>2026-04-26T10:26:20.004Z</time></trkpt><trkpt lat="44.6377354" lon="9.6922672"><ele>748.4000000000001</ele><time>2026-04-26T10:26:21.004Z</time></trkpt><trkpt lat="44.6377555" lon="9.6923736"><ele>747.0</ele><time>2026-04-26T10:26:22.004Z</time></trkpt><trkpt lat="44.6377724" lon="9.6924796"><ele>747.0</ele><time>2026-04-26T10:26:23.004Z</time></trkpt><trkpt lat="44.6377673" lon="9.6925919"><ele>747.0</ele><time>2026-04-26T10:26:24.004Z</time></trkpt><trkpt lat="44.6376596" lon="9.6926633"><ele>747.0</ele><time>2026-04-26T10:26:25.005Z</time></trkpt><trkpt lat="44.6375643" lon="9.6927334"><ele>747.0</ele><time>2026-04-26T10:26:26.004Z</time></trkpt><trkpt lat="44.6374815" lon="9.6927934"><ele>747.0</ele><time>2026-04-26T10:26:27.005Z</time></trkpt><trkpt lat="44.6372964" lon="9.6927184"><ele>747.0</ele><time>2026-04-26T10:26:28.005Z</time></trkpt><trkpt lat="44.6371252" lon="9.6926536"><ele>747.0</ele><time>2026-04-26T10:26:29.005Z</time></trkpt><trkpt lat="44.6369973" lon="9.6926494"><ele>747.0</ele><time>2026-04-26T10:26:30.005Z</time></trkpt><trkpt lat="44.6368908" lon="9.6926929"><ele>747.0</ele><time>2026-04-26T10:26:31.005Z</time></trkpt><trkpt lat="44.6367931" lon="9.6927709"><ele>743.75</ele><time>2026-04-26T10:26:32.005Z</time></trkpt><trkpt lat="44.6367033" lon="9.6928973"><ele>740.5</ele><time>2026-04-26T10:26:33.005Z</time></trkpt><trkpt lat="44.6366238" lon="9.6930809"><ele>737.25</ele><time>2026-04-26T10:26:34.004Z</time></trkpt><trkpt lat="44.6365589" lon="9.6932673"><ele>734.0</ele><time>2026-04-26T10:26:35.005Z</time></trkpt><trkpt lat="44.6365048" lon="9.6934579"><ele>733.5</ele><time>2026-04-26T10:26:36.005Z</time></trkpt><trkpt lat="44.636472" lon="9.6936436"><ele>733.0</ele><time>2026-04-26T10:26:37.005Z</time></trkpt><trkpt lat="44.6364631" lon="9.6938156"><ele>732.5</ele><time>2026-04-26T10:26:38.005Z</time></trkpt><trkpt lat="44.6364693" lon="9.693984"><ele>732.0</ele><time>2026-04-26T10:26:39.005Z</time></trkpt><trkpt lat="44.6364963" lon="9.6941598"><ele>732.0</ele><time>2026-04-26T10:26:40.005Z</time></trkpt><trkpt lat="44.6365468" lon="9.6943428"><ele>732.0</ele><time>2026-04-26T10:26:41.005Z</time></trkpt><trkpt lat="44.6366086" lon="9.694522"><ele>732.0</ele><time>2026-04-26T10:26:42.005Z</time></trkpt><trkpt lat="44.6366681" lon="9.694697"><ele>732.0</ele><time>2026-04-26T10:26:43.004Z</time></trkpt><trkpt lat="44.6367309" lon="9.6948646"><ele>731.0</ele><time>2026-04-26T10:26:44.004Z</time></trkpt><trkpt lat="44.6367691" lon="9.6950226"><ele>730.0</ele><time>2026-04-26T10:26:45.004Z</time></trkpt><trkpt lat="44.6367764" lon="9.6951716"><ele>729.0</ele><time>2026-04-26T10:26:46.005Z</time></trkpt><trkpt lat="44.6367423" lon="9.6952907"><ele>728.0</ele><time>2026-04-26T10:26:47.005Z</time></trkpt><trkpt lat="44.6366676" lon="9.6953751"><ele>727.0</ele><time>2026-04-26T10:26:48.005Z</time></trkpt><trkpt lat="44.6365516" lon="9.6954283"><ele>726.75</ele><time>2026-04-26T10:26:49.004Z</time></trkpt><trkpt lat="44.6364176" lon="9.6954327"><ele>726.5</ele><time>2026-04-26T10:26:50.004Z</time></trkpt><trkpt lat="44.6362889" lon="9.6954237"><ele>726.25</ele><time>2026-04-26T10:26:51.005Z</time></trkpt><trkpt lat="44.6361819" lon="9.6954624"><ele>726.0</ele><time>2026-04-26T10:26:52.005Z</time></trkpt><trkpt lat="44.6360983" lon="9.6955333"><ele>724.5999999999999</ele><time>2026-04-26T10:26:53.004Z</time></trkpt><trkpt lat="44.6360382" lon="9.6956344"><ele>723.2</ele><time>2026-04-26T10:26:54.004Z</time></trkpt><trkpt lat="44.6360011" lon="9.6957677"><ele>721.8</ele><time>2026-04-26T10:26:55.004Z</time></trkpt><trkpt lat="44.6359779" lon="9.6959305"><ele>720.4000000000001</ele><time>2026-04-26T10:26:56.005Z</time></trkpt><trkpt lat="44.6359625" lon="9.6961136"><ele>719.0</ele><time>2026-04-26T10:26:57.005Z</time></trkpt><trkpt lat="44.6359517" lon="9.6962846"><ele>719.0</ele><time>2026-04-26T10:26:58.005Z</time></trkpt><trkpt lat="44.6359284" lon="9.6964383"><ele>719.0</ele><time>2026-04-26T10:26:59.004Z</time></trkpt><trkpt lat="44.635892" lon="9.6965783"><ele>719.0</ele><time>2026-04-26T10:27:00.004Z</time></trkpt><trkpt lat="44.6358405" lon="9.6966956"><ele>719.0</ele><time>2026-04-26T10:27:01.005Z</time></trkpt><trkpt lat="44.6357799" lon="9.6968108"><ele>719.0</ele><time>2026-04-26T10:27:02.005Z</time></trkpt><trkpt lat="44.6357139" lon="9.6969297"><ele>720.75</ele><time>2026-04-26T10:27:03.004Z</time></trkpt><trkpt lat="44.63564" lon="9.6970376"><ele>722.5</ele><time>2026-04-26T10:27:04.004Z</time></trkpt><trkpt lat="44.6355592" lon="9.6971581"><ele>724.25</ele><time>2026-04-26T10:27:05.005Z</time></trkpt><trkpt lat="44.6354682" lon="9.6972716"><ele>726.0</ele><time>2026-04-26T10:27:06.005Z</time></trkpt><trkpt lat="44.635377" lon="9.6973829"><ele>723.4</ele><time>2026-04-26T10:27:07.004Z</time></trkpt><trkpt lat="44.6352876" lon="9.697495"><ele>720.8</ele><time>2026-04-26T10:27:08.004Z</time></trkpt><trkpt lat="44.6352073" lon="9.6976063"><ele>718.1999999999999</ele><time>2026-04-26T10:27:09.004Z</time></trkpt><trkpt lat="44.6351359" lon="9.6977189"><ele>715.5999999999999</ele><time>2026-04-26T10:27:10.004Z</time></trkpt><trkpt lat="44.6350657" lon="9.6978368"><ele>713.0</ele><time>2026-04-26T10:27:11.004Z</time></trkpt><trkpt lat="44.6350298" lon="9.697977"><ele>713.0</ele><time>2026-04-26T10:27:12.005Z</time></trkpt><trkpt lat="44.6349997" lon="9.6981268"><ele>713.0</ele><time>2026-04-26T10:27:13.005Z</time></trkpt><trkpt lat="44.6349643" lon="9.6982848"><ele>713.0</ele><time>2026-04-26T10:27:14.004Z</time></trkpt><trkpt lat="44.6349154" lon="9.698438"><ele>713.0</ele><time>2026-04-26T10:27:15.004Z</time></trkpt><trkpt lat="44.6348624" lon="9.6985808"><ele>712.75</ele><time>2026-04-26T10:27:16.005Z</time></trkpt><trkpt lat="44.6348021" lon="9.6987255"><ele>712.5</ele><time>2026-04-26T10:27:17.004Z</time></trkpt><trkpt lat="44.6347342" lon="9.6988572"><ele>712.25</ele><time>2026-04-26T10:27:18.005Z</time></trkpt><trkpt lat="44.63467" lon="9.699"><ele>712.0</ele><time>2026-04-26T10:27:19.004Z</time></trkpt><trkpt lat="44.6346211" lon="9.6991481"><ele>712.0</ele><time>2026-04-26T10:27:20.005Z</time></trkpt><trkpt lat="44.6346004" lon="9.6992914"><ele>712.0</ele><time>2026-04-26T10:27:21.004Z</time></trkpt><trkpt lat="44.634602" lon="9.6994446"><ele>712.0</ele><time>2026-04-26T10:27:22.004Z</time></trkpt><trkpt lat="44.6346236" lon="9.6996076"><ele>712.0</ele><time>2026-04-26T10:27:23.004Z</time></trkpt><trkpt lat="44.6346672" lon="9.6997877"><ele>712.25</ele><time>2026-04-26T10:27:24.005Z</time></trkpt><trkpt lat="44.6347103" lon="9.6999802"><ele>712.5</ele><time>2026-04-26T10:27:25.005Z</time></trkpt><trkpt lat="44.6347353" lon="9.7001722"><ele>712.75</ele><time>2026-04-26T10:27:26.004Z</time></trkpt><trkpt lat="44.6347459" lon="9.7003558"><ele>713.0</ele><time>2026-04-26T10:27:27.005Z</time></trkpt><trkpt lat="44.634735" lon="9.7005213"><ele>713.0</ele><time>2026-04-26T10:27:28.005Z</time></trkpt><trkpt lat="44.634698" lon="9.7006668"><ele>713.0</ele><time>2026-04-26T10:27:29.005Z</time></trkpt><trkpt lat="44.6346421" lon="9.7008139"><ele>713.0</ele><time>2026-04-26T10:27:30.004Z</time></trkpt><trkpt lat="44.6345876" lon="9.7009645"><ele>713.0</ele><time>2026-04-26T10:27:31.004Z</time></trkpt><trkpt lat="44.6345304" lon="9.7011189"><ele>713.5</ele><time>2026-04-26T10:27:32.004Z</time></trkpt><trkpt lat="44.6344862" lon="9.7012968"><ele>714.0</ele><time>2026-04-26T10:27:33.004Z</time></trkpt><trkpt lat="44.6344441" lon="9.7014746"><ele>714.5</ele><time>2026-04-26T10:27:34.005Z</time></trkpt><trkpt lat="44.6344071" lon="9.7016397"><ele>715.0</ele><time>2026-04-26T10:27:35.004Z</time></trkpt><trkpt lat="44.6343795" lon="9.7017946"><ele>713.8</ele><time>2026-04-26T10:27:36.005Z</time></trkpt><trkpt lat="44.6343678" lon="9.7019432"><ele>712.6</ele><time>2026-04-26T10:27:37.005Z</time></trkpt><trkpt lat="44.6343851" lon="9.7020692"><ele>711.4000000000001</ele><time>2026-04-26T10:27:38.004Z</time></trkpt><trkpt lat="44.6344236" lon="9.7021733"><ele>710.2</ele><time>2026-04-26T10:27:39.005Z</time></trkpt><trkpt lat="44.6344988" lon="9.7022526"><ele>709.0</ele><time>2026-04-26T10:27:40.005Z</time></trkpt><trkpt lat="44.6346195" lon="9.7023055"><ele>709.0</ele><time>2026-04-26T10:27:41.004Z</time></trkpt><trkpt lat="44.6347694" lon="9.7023375"><ele>709.0</ele><time>2026-04-26T10:27:42.004Z</time></trkpt><trkpt lat="44.6349307" lon="9.70236"><ele>709.0</ele><time>2026-04-26T10:27:43.005Z</time></trkpt><trkpt lat="44.6351009" lon="9.7023902"><ele>709.0</ele><time>2026-04-26T10:27:44.004Z</time></trkpt><trkpt lat="44.6352552" lon="9.7024413"><ele>709.0</ele><time>2026-04-26T10:27:45.004Z</time></trkpt><trkpt lat="44.6353894" lon="9.7025104"><ele>709.0</ele><time>2026-04-26T10:27:46.005Z</time></trkpt><trkpt lat="44.6355102" lon="9.7026031"><ele>709.0</ele><time>2026-04-26T10:27:47.004Z</time></trkpt><trkpt lat="44.6355932" lon="9.7027504"><ele>710.75</ele><time>2026-04-26T10:27:48.005Z</time></trkpt><trkpt lat="44.6356568" lon="9.7029122"><ele>712.5</ele><time>2026-04-26T10:27:49.004Z</time></trkpt><trkpt lat="44.635707" lon="9.7030968"><ele>714.25</ele><time>2026-04-26T10:27:50.005Z</time></trkpt><trkpt lat="44.6357502" lon="9.7033024"><ele>716.0</ele><time>2026-04-26T10:27:51.005Z</time></trkpt><trkpt lat="44.6357913" lon="9.7035461"><ele>714.6666666666666</ele><time>2026-04-26T10:27:52.004Z</time></trkpt><trkpt lat="44.6358249" lon="9.7038156"><ele>713.3333333333334</ele><time>2026-04-26T10:27:53.005Z</time></trkpt><trkpt lat="44.6358555" lon="9.7040908"><ele>712.0</ele><time>2026-04-26T10:27:54.005Z</time></trkpt><trkpt lat="44.6358856" lon="9.7043519"><ele>712.6666666666667</ele><time>2026-04-26T10:27:55.005Z</time></trkpt><trkpt lat="44.6359017" lon="9.7045959"><ele>713.3333333333334</ele><time>2026-04-26T10:27:56.004Z</time></trkpt><trkpt lat="44.6359142" lon="9.7048117"><ele>714.0</ele><time>2026-04-26T10:27:57.004Z</time></trkpt><trkpt lat="44.6359113" lon="9.7050095"><ele>714.0</ele><time>2026-04-26T10:27:58.004Z</time></trkpt><trkpt lat="44.6358534" lon="9.7051451"><ele>714.0</ele><time>2026-04-26T10:27:59.004Z</time></trkpt><trkpt lat="44.6357671" lon="9.7052795"><ele>714.0</ele><time>2026-04-26T10:28:00.004Z</time></trkpt><trkpt lat="44.6356756" lon="9.7054152"><ele>714.0</ele><time>2026-04-26T10:28:01.004Z</time></trkpt><trkpt lat="44.6355946" lon="9.7055715"><ele>714.5</ele><time>2026-04-26T10:28:02.005Z</time></trkpt><trkpt lat="44.6355337" lon="9.7057526"><ele>715.0</ele><time>2026-04-26T10:28:03.004Z</time></trkpt><trkpt lat="44.6354975" lon="9.7059471"><ele>715.5</ele><time>2026-04-26T10:28:04.004Z</time></trkpt><trkpt lat="44.635479" lon="9.7061519"><ele>716.0</ele><time>2026-04-26T10:28:05.004Z</time></trkpt><trkpt lat="44.6354807" lon="9.7063484"><ele>716.0</ele><time>2026-04-26T10:28:06.004Z</time></trkpt><trkpt lat="44.6354921" lon="9.7065458"><ele>716.0</ele><time>2026-04-26T10:28:07.005Z</time></trkpt><trkpt lat="44.6355062" lon="9.706736"><ele>716.0</ele><time>2026-04-26T10:28:08.005Z</time></trkpt><trkpt lat="44.6355331" lon="9.7069326"><ele>716.0</ele><time>2026-04-26T10:28:09.004Z</time></trkpt><trkpt lat="44.6355712" lon="9.7071345"><ele>714.25</ele><time>2026-04-26T10:28:10.005Z</time></trkpt><trkpt lat="44.6356347" lon="9.7073057"><ele>712.5</ele><time>2026-04-26T10:28:11.005Z</time></trkpt><trkpt lat="44.6357154" lon="9.707464"><ele>710.75</ele><time>2026-04-26T10:28:12.005Z</time></trkpt><trkpt lat="44.6358637" lon="9.7075264"><ele>709.0</ele><time>2026-04-26T10:28:13.004Z</time></trkpt><trkpt lat="44.6359998" lon="9.7075921"><ele>709.0</ele><time>2026-04-26T10:28:14.004Z</time></trkpt><trkpt lat="44.6361166" lon="9.7076729"><ele>709.0</ele><time>2026-04-26T10:28:15.004Z</time></trkpt><trkpt lat="44.6361876" lon="9.7077576"><ele>709.0</ele><time>2026-04-26T10:28:16.005Z</time></trkpt><trkpt lat="44.6362353" lon="9.7078674"><ele>709.0</ele><time>2026-04-26T10:28:17.005Z</time></trkpt><trkpt lat="44.6362548" lon="9.7079808"><ele>709.0</ele><time>2026-04-26T10:28:18.005Z</time></trkpt><trkpt lat="44.6362312" lon="9.7080977"><ele>710.25</ele><time>2026-04-26T10:28:19.004Z</time></trkpt><trkpt lat="44.6361551" lon="9.7081945"><ele>711.5</ele><time>2026-04-26T10:28:20.004Z</time></trkpt><trkpt lat="44.6360432" lon="9.7083069"><ele>712.75</ele><time>2026-04-26T10:28:21.004Z</time></trkpt><trkpt lat="44.6359326" lon="9.7084397"><ele>714.0</ele><time>2026-04-26T10:28:22.005Z</time></trkpt><trkpt lat="44.6358396" lon="9.7085965"><ele>716.3333333333334</ele><time>2026-04-26T10:28:23.004Z</time></trkpt><trkpt lat="44.6357638" lon="9.7087792"><ele>718.6666666666667</ele><time>2026-04-26T10:28:24.004Z</time></trkpt><trkpt lat="44.6357022" lon="9.7089892"><ele>721.0</ele><time>2026-04-26T10:28:25.005Z</time></trkpt><trkpt lat="44.6356538" lon="9.7092107"><ele>725.3333333333334</ele><time>2026-04-26T10:28:26.004Z</time></trkpt><trkpt lat="44.6356119" lon="9.7094289"><ele>729.6666666666666</ele><time>2026-04-26T10:28:27.005Z</time></trkpt><trkpt lat="44.6355688" lon="9.7096444"><ele>734.0</ele><time>2026-04-26T10:28:28.005Z</time></trkpt><trkpt lat="44.6355166" lon="9.7098507"><ele>734.0</ele><time>2026-04-26T10:28:29.005Z</time></trkpt><trkpt lat="44.6354657" lon="9.7100344"><ele>734.0</ele><time>2026-04-26T10:28:30.004Z</time></trkpt><trkpt lat="44.6354015" lon="9.7102041"><ele>734.0</ele><time>2026-04-26T10:28:31.005Z</time></trkpt><trkpt lat="44.6353435" lon="9.7103871"><ele>734.0</ele><time>2026-04-26T10:28:32.004Z</time></trkpt><trkpt lat="44.6352511" lon="9.7105299"><ele>730.6666666666666</ele><time>2026-04-26T10:28:33.004Z</time></trkpt><trkpt lat="44.6350464" lon="9.7104411"><ele>727.3333333333334</ele><time>2026-04-26T10:28:34.005Z</time></trkpt><trkpt lat="44.6348515" lon="9.7103381"><ele>724.0</ele><time>2026-04-26T10:28:35.005Z</time></trkpt><trkpt lat="44.6346679" lon="9.7102322"><ele>719.6666666666667</ele><time>2026-04-26T10:28:36.005Z</time></trkpt><trkpt lat="44.6344977" lon="9.7101656"><ele>715.3333333333334</ele><time>2026-04-26T10:28:37.005Z</time></trkpt><trkpt lat="44.6343432" lon="9.7101411"><ele>711.0</ele><time>2026-04-26T10:28:38.004Z</time></trkpt><trkpt lat="44.6341986" lon="9.7101502"><ele>710.75</ele><time>2026-04-26T10:28:39.005Z</time></trkpt><trkpt lat="44.6340606" lon="9.7101919"><ele>710.5</ele><time>2026-04-26T10:28:40.005Z</time></trkpt><trkpt lat="44.6339283" lon="9.7102657"><ele>710.25</ele><time>2026-04-26T10:28:41.004Z</time></trkpt><trkpt lat="44.6338327" lon="9.7104138"><ele>710.0</ele><time>2026-04-26T10:28:42.005Z</time></trkpt><trkpt lat="44.6337476" lon="9.7105608"><ele>710.8</ele><time>2026-04-26T10:28:43.005Z</time></trkpt><trkpt lat="44.6337002" lon="9.7107346"><ele>711.6</ele><time>2026-04-26T10:28:44.004Z</time></trkpt><trkpt lat="44.6336739" lon="9.7108734"><ele>712.4000000000001</ele><time>2026-04-26T10:28:45.004Z</time></trkpt><trkpt lat="44.6336445" lon="9.7109856"><ele>713.2</ele><time>2026-04-26T10:28:46.004Z</time></trkpt><trkpt lat="44.6336486" lon="9.7110887"><ele>714.0</ele><time>2026-04-26T10:28:47.004Z</time></trkpt><trkpt lat="44.6337476" lon="9.7112216"><ele>710.6666666666666</ele><time>2026-04-26T10:28:48.005Z</time></trkpt><trkpt lat="44.6338765" lon="9.7113743"><ele>707.3333333333333</ele><time>2026-04-26T10:28:49.004Z</time></trkpt><trkpt lat="44.6340115" lon="9.7115705"><ele>704.0</ele><time>2026-04-26T10:28:50.005Z</time></trkpt><trkpt lat="44.6341179" lon="9.7118392"><ele>706.0</ele><time>2026-04-26T10:28:51.005Z</time></trkpt><trkpt lat="44.6341846" lon="9.7120991"><ele>708.0</ele><time>2026-04-26T10:28:52.005Z</time></trkpt><trkpt lat="44.6342112" lon="9.712342"><ele>710.0</ele><time>2026-04-26T10:28:53.004Z</time></trkpt><trkpt lat="44.6342117" lon="9.7125519"><ele>712.6666666666666</ele><time>2026-04-26T10:28:54.005Z</time></trkpt><trkpt lat="44.6341875" lon="9.712756"><ele>715.3333333333334</ele><time>2026-04-26T10:28:55.004Z</time></trkpt><trkpt lat="44.6340416" lon="9.7128439"><ele>718.0</ele><time>2026-04-26T10:28:56.005Z</time></trkpt><trkpt lat="44.6338958" lon="9.712933"><ele>718.0</ele><time>2026-04-26T10:28:57.004Z</time></trkpt><trkpt lat="44.6337718" lon="9.7130499"><ele>718.0</ele><time>2026-04-26T10:28:58.005Z</time></trkpt><trkpt lat="44.633653" lon="9.7131859"><ele>718.0</ele><time>2026-04-26T10:28:59.005Z</time></trkpt><trkpt lat="44.6335577" lon="9.7133383"><ele>718.0</ele><time>2026-04-26T10:29:00.004Z</time></trkpt><trkpt lat="44.6334813" lon="9.7134823"><ele>710.75</ele><time>2026-04-26T10:29:01.004Z</time></trkpt><trkpt lat="44.6334375" lon="9.7136469"><ele>703.5</ele><time>2026-04-26T10:29:02.004Z</time></trkpt><trkpt lat="44.633431" lon="9.7138307"><ele>696.25</ele><time>2026-04-26T10:29:03.004Z</time></trkpt><trkpt lat="44.6334391" lon="9.7140343"><ele>689.0</ele><time>2026-04-26T10:29:04.004Z</time></trkpt><trkpt lat="44.6334286" lon="9.7142138"><ele>689.3333333333333</ele><time>2026-04-26T10:29:05.004Z</time></trkpt><trkpt lat="44.6333984" lon="9.7144182"><ele>689.6666666666666</ele><time>2026-04-26T10:29:06.004Z</time></trkpt><trkpt lat="44.6333337" lon="9.7146005"><ele>690.0</ele><time>2026-04-26T10:29:07.004Z</time></trkpt><trkpt lat="44.6332324" lon="9.7147774"><ele>690.0</ele><time>2026-04-26T10:29:08.004Z</time></trkpt><trkpt lat="44.6331122" lon="9.7149627"><ele>690.0</ele><time>2026-04-26T10:29:09.005Z</time></trkpt><trkpt lat="44.6329927" lon="9.7151453"><ele>690.0</ele><time>2026-04-26T10:29:10.005Z</time></trkpt><trkpt lat="44.6328833" lon="9.7153224"><ele>688.3333333333334</ele><time>2026-04-26T10:29:11.005Z</time></trkpt><trkpt lat="44.632786" lon="9.7155027"><ele>686.6666666666667</ele><time>2026-04-26T10:29:12.005Z</time></trkpt><trkpt lat="44.6326828" lon="9.7156712"><ele>685.0</ele><time>2026-04-26T10:29:13.004Z</time></trkpt><trkpt lat="44.632594" lon="9.715832"><ele>685.0</ele><time>2026-04-26T10:29:14.005Z</time></trkpt><trkpt lat="44.632493" lon="9.7159836"><ele>685.0</ele><time>2026-04-26T10:29:15.004Z</time></trkpt><trkpt lat="44.6323925" lon="9.7161297"><ele>685.0</ele><time>2026-04-26T10:29:16.005Z</time></trkpt><trkpt lat="44.6322834" lon="9.716237"><ele>685.0</ele><time>2026-04-26T10:29:17.004Z</time></trkpt><trkpt lat="44.6321425" lon="9.7163204"><ele>687.25</ele><time>2026-04-26T10:29:18.004Z</time></trkpt><trkpt lat="44.632023" lon="9.7164155"><ele>689.5</ele><time>2026-04-26T10:29:19.004Z</time></trkpt><trkpt lat="44.6318938" lon="9.7165052"><ele>691.75</ele><time>2026-04-26T10:29:20.004Z</time></trkpt><trkpt lat="44.6317728" lon="9.7165911"><ele>694.0</ele><time>2026-04-26T10:29:21.004Z</time></trkpt><trkpt lat="44.63166" lon="9.7166703"><ele>690.4000000000001</ele><time>2026-04-26T10:29:22.005Z</time></trkpt><trkpt lat="44.6315658" lon="9.71675"><ele>686.8</ele><time>2026-04-26T10:29:23.005Z</time></trkpt><trkpt lat="44.6314837" lon="9.7168241"><ele>683.2</ele><time>2026-04-26T10:29:24.004Z</time></trkpt><trkpt lat="44.6314292" lon="9.7169264"><ele>679.5999999999999</ele><time>2026-04-26T10:29:25.005Z</time></trkpt><trkpt lat="44.6314213" lon="9.7170559"><ele>676.0</ele><time>2026-04-26T10:29:26.004Z</time></trkpt><trkpt lat="44.6314514" lon="9.7171821"><ele>674.5</ele><time>2026-04-26T10:29:27.005Z</time></trkpt><trkpt lat="44.6314796" lon="9.7172899"><ele>673.0</ele><time>2026-04-26T10:29:28.005Z</time></trkpt><trkpt lat="44.6315392" lon="9.7173775"><ele>671.5</ele><time>2026-04-26T10:29:29.005Z</time></trkpt><trkpt lat="44.6316423" lon="9.7174415"><ele>670.0</ele><time>2026-04-26T10:29:30.005Z</time></trkpt><trkpt lat="44.6318033" lon="9.7175203"><ele>677.5</ele><time>2026-04-26T10:29:31.004Z</time></trkpt><trkpt lat="44.632057" lon="9.7176102"><ele>685.0</ele><time>2026-04-26T10:29:32.004Z</time></trkpt><trkpt lat="44.6322489" lon="9.7177316"><ele>685.25</ele><time>2026-04-26T10:29:33.004Z</time></trkpt><trkpt lat="44.6323733" lon="9.7178336"><ele>685.5</ele><time>2026-04-26T10:29:34.004Z</time></trkpt><trkpt lat="44.6324388" lon="9.7179752"><ele>685.75</ele><time>2026-04-26T10:29:35.004Z</time></trkpt><trkpt lat="44.6324886" lon="9.7181143"><ele>686.0</ele><time>2026-04-26T10:29:36.005Z</time></trkpt><trkpt lat="44.6325041" lon="9.718265"><ele>686.0</ele><time>2026-04-26T10:29:37.004Z</time></trkpt><trkpt lat="44.6324659" lon="9.7184403"><ele>686.0</ele><time>2026-04-26T10:29:38.004Z</time></trkpt><trkpt lat="44.6323701" lon="9.7186238"><ele>686.0</ele><time>2026-04-26T10:29:39.005Z</time></trkpt><trkpt lat="44.6322255" lon="9.7188133"><ele>682.3333333333333</ele><time>2026-04-26T10:29:40.004Z</time></trkpt><trkpt lat="44.6320505" lon="9.7189877"><ele>678.6666666666666</ele><time>2026-04-26T10:29:41.005Z</time></trkpt><trkpt lat="44.6318616" lon="9.7191563"><ele>675.0</ele><time>2026-04-26T10:29:42.004Z</time></trkpt><trkpt lat="44.6316008" lon="9.7192972"><ele>674.3333333333334</ele><time>2026-04-26T10:29:43.004Z</time></trkpt><trkpt lat="44.631393" lon="9.7194541"><ele>673.6666666666667</ele><time>2026-04-26T10:29:44.004Z</time></trkpt><trkpt lat="44.6312391" lon="9.7196109"><ele>673.0</ele><time>2026-04-26T10:29:45.005Z</time></trkpt><trkpt lat="44.6310908" lon="9.7197507"><ele>673.0</ele><time>2026-04-26T10:29:46.005Z</time></trkpt><trkpt lat="44.6309458" lon="9.7198452"><ele>673.0</ele><time>2026-04-26T10:29:47.004Z</time></trkpt><trkpt lat="44.6307983" lon="9.7199039"><ele>673.0</ele><time>2026-04-26T10:29:48.005Z</time></trkpt><trkpt lat="44.6306606" lon="9.7199572"><ele>673.0</ele><time>2026-04-26T10:29:49.005Z</time></trkpt><trkpt lat="44.6305331" lon="9.719979"><ele>673.0</ele><time>2026-04-26T10:29:50.005Z</time></trkpt><trkpt lat="44.6304051" lon="9.719995"><ele>673.0</ele><time>2026-04-26T10:29:51.005Z</time></trkpt><trkpt lat="44.6302956" lon="9.7199948"><ele>673.0</ele><time>2026-04-26T10:29:52.004Z</time></trkpt><trkpt lat="44.6302044" lon="9.7200164"><ele>670.5999999999999</ele><time>2026-04-26T10:29:53.005Z</time></trkpt><trkpt lat="44.6301325" lon="9.7200746"><ele>668.1999999999999</ele><time>2026-04-26T10:29:54.004Z</time></trkpt><trkpt lat="44.6300847" lon="9.7201617"><ele>665.8</ele><time>2026-04-26T10:29:55.004Z</time></trkpt><trkpt lat="44.6300741" lon="9.7202807"><ele>663.4</ele><time>2026-04-26T10:29:56.004Z</time></trkpt><trkpt lat="44.6300942" lon="9.7204186"><ele>661.0</ele><time>2026-04-26T10:29:57.005Z</time></trkpt><trkpt lat="44.6301568" lon="9.7205868"><ele>658.0</ele><time>2026-04-26T10:29:58.004Z</time></trkpt><trkpt lat="44.6302269" lon="9.7207752"><ele>655.0</ele><time>2026-04-26T10:29:59.004Z</time></trkpt><trkpt lat="44.6303091" lon="9.7209771"><ele>652.0</ele><time>2026-04-26T10:30:00.004Z</time></trkpt><trkpt lat="44.6303894" lon="9.7211636"><ele>652.0</ele><time>2026-04-26T10:30:01.004Z</time></trkpt><trkpt lat="44.6304716" lon="9.7213277"><ele>652.0</ele><time>2026-04-26T10:30:02.005Z</time></trkpt><trkpt lat="44.6305768" lon="9.7214812"><ele>652.0</ele><time>2026-04-26T10:30:03.005Z</time></trkpt><trkpt lat="44.630734" lon="9.721604"><ele>652.0</ele><time>2026-04-26T10:30:04.004Z</time></trkpt><trkpt lat="44.6309208" lon="9.721707"><ele>652.0</ele><time>2026-04-26T10:30:05.004Z</time></trkpt><trkpt lat="44.6311022" lon="9.7217878"><ele>652.0</ele><time>2026-04-26T10:30:06.004Z</time></trkpt><trkpt lat="44.6312721" lon="9.7218608"><ele>649.0</ele><time>2026-04-26T10:30:07.005Z</time></trkpt><trkpt lat="44.6314425" lon="9.7219371"><ele>646.0</ele><time>2026-04-26T10:30:08.004Z</time></trkpt><trkpt lat="44.6316061" lon="9.7220374"><ele>643.0</ele><time>2026-04-26T10:30:09.005Z</time></trkpt><trkpt lat="44.6317645" lon="9.7221467"><ele>643.0</ele><time>2026-04-26T10:30:10.005Z</time></trkpt><trkpt lat="44.6319088" lon="9.722245"><ele>643.0</ele><time>2026-04-26T10:30:11.005Z</time></trkpt><trkpt lat="44.6320217" lon="9.7223652"><ele>643.0</ele><time>2026-04-26T10:30:12.004Z</time></trkpt><trkpt lat="44.6320963" lon="9.7225215"><ele>643.0</ele><time>2026-04-26T10:30:13.004Z</time></trkpt><trkpt lat="44.6321365" lon="9.7226928"><ele>641.5</ele><time>2026-04-26T10:30:14.005Z</time></trkpt><trkpt lat="44.632132" lon="9.7228735"><ele>640.0</ele><time>2026-04-26T10:30:15.004Z</time></trkpt><trkpt lat="44.6320525" lon="9.723032"><ele>638.5</ele><time>2026-04-26T10:30:16.005Z</time></trkpt><trkpt lat="44.6319472" lon="9.7232082"><ele>637.0</ele><time>2026-04-26T10:30:17.005Z</time></trkpt><trkpt lat="44.631846" lon="9.7233969"><ele>636.0</ele><time>2026-04-26T10:30:18.005Z</time></trkpt><trkpt lat="44.6317518" lon="9.7235906"><ele>635.0</ele><time>2026-04-26T10:30:19.005Z</time></trkpt><trkpt lat="44.6316738" lon="9.7237771"><ele>634.0</ele><time>2026-04-26T10:30:20.005Z</time></trkpt><trkpt lat="44.6316042" lon="9.7239598"><ele>634.0</ele><time>2026-04-26T10:30:21.005Z</time></trkpt><trkpt lat="44.6315457" lon="9.7241413"><ele>634.0</ele><time>2026-04-26T10:30:22.005Z</time></trkpt><trkpt lat="44.6315056" lon="9.7243252"><ele>634.0</ele><time>2026-04-26T10:30:23.004Z</time></trkpt><trkpt lat="44.6314766" lon="9.7245009"><ele>634.0</ele><time>2026-04-26T10:30:24.004Z</time></trkpt><trkpt lat="44.6314642" lon="9.7246488"><ele>631.5</ele><time>2026-04-26T10:30:25.004Z</time></trkpt><trkpt lat="44.6314724" lon="9.7247985"><ele>629.0</ele><time>2026-04-26T10:30:26.004Z</time></trkpt><trkpt lat="44.6315009" lon="9.7249499"><ele>626.5</ele><time>2026-04-26T10:30:27.005Z</time></trkpt><trkpt lat="44.6315723" lon="9.7250906"><ele>624.0</ele><time>2026-04-26T10:30:28.004Z</time></trkpt><trkpt lat="44.631641" lon="9.7252287"><ele>622.5</ele><time>2026-04-26T10:30:29.003Z</time></trkpt><trkpt lat="44.63172" lon="9.7253616"><ele>621.0</ele><time>2026-04-26T10:30:30.003Z</time></trkpt><trkpt lat="44.631812" lon="9.72547"><ele>619.5</ele><time>2026-04-26T10:30:31.003Z</time></trkpt><trkpt lat="44.6319047" lon="9.725574"><ele>618.0</ele><time>2026-04-26T10:30:32.003Z</time></trkpt><trkpt lat="44.6319718" lon="9.7256724"><ele>620.0</ele><time>2026-04-26T10:30:33.003Z</time></trkpt><trkpt lat="44.6320224" lon="9.7257732"><ele>622.0</ele><time>2026-04-26T10:30:34.004Z</time></trkpt><trkpt lat="44.6320661" lon="9.7258644"><ele>624.0</ele><time>2026-04-26T10:30:35.004Z</time></trkpt><trkpt lat="44.632006" lon="9.7259738"><ele>626.0</ele><time>2026-04-26T10:30:36.004Z</time></trkpt><trkpt lat="44.6318723" lon="9.726074"><ele>628.0</ele><time>2026-04-26T10:30:37.004Z</time></trkpt><trkpt lat="44.6317383" lon="9.7261702"><ele>628.0</ele><time>2026-04-26T10:30:38.004Z</time></trkpt><trkpt lat="44.6316253" lon="9.7262708"><ele>628.0</ele><time>2026-04-26T10:30:39.003Z</time></trkpt><trkpt lat="44.6315109" lon="9.7263705"><ele>628.0</ele><time>2026-04-26T10:30:40.003Z</time></trkpt><trkpt lat="44.6314036" lon="9.7264751"><ele>628.0</ele><time>2026-04-26T10:30:41.003Z</time></trkpt><trkpt lat="44.6313136" lon="9.7265823"><ele>628.0</ele><time>2026-04-26T10:30:42.004Z</time></trkpt><trkpt lat="44.6312452" lon="9.7267102"><ele>628.0</ele><time>2026-04-26T10:30:43.003Z</time></trkpt><trkpt lat="44.6311935" lon="9.7268557"><ele>628.0</ele><time>2026-04-26T10:30:44.004Z</time></trkpt><trkpt lat="44.6311572" lon="9.7270338"><ele>628.0</ele><time>2026-04-26T10:30:45.003Z</time></trkpt><trkpt lat="44.6311352" lon="9.7272198"><ele>623.0</ele><time>2026-04-26T10:30:46.004Z</time></trkpt><trkpt lat="44.6311142" lon="9.7273837"><ele>618.0</ele><time>2026-04-26T10:30:47.003Z</time></trkpt><trkpt lat="44.6310916" lon="9.7275196"><ele>613.0</ele><time>2026-04-26T10:30:48.003Z</time></trkpt><trkpt lat="44.6310735" lon="9.7276684"><ele>608.0</ele><time>2026-04-26T10:30:49.003Z</time></trkpt><trkpt lat="44.6310678" lon="9.7278262"><ele>603.0</ele><time>2026-04-26T10:30:50.004Z</time></trkpt><trkpt lat="44.6310617" lon="9.7279912"><ele>602.4</ele><time>2026-04-26T10:30:51.003Z</time></trkpt><trkpt lat="44.6310578" lon="9.7281625"><ele>601.8</ele><time>2026-04-26T10:30:52.003Z</time></trkpt><trkpt lat="44.6310648" lon="9.7283099"><ele>601.2</ele><time>2026-04-26T10:30:53.003Z</time></trkpt><trkpt lat="44.6310804" lon="9.7284436"><ele>600.6</ele><time>2026-04-26T10:30:54.004Z</time></trkpt><trkpt lat="44.6311128" lon="9.7285437"><ele>600.0</ele><time>2026-04-26T10:30:55.003Z</time></trkpt><trkpt lat="44.6311651" lon="9.7286487"><ele>602.0</ele><time>2026-04-26T10:30:56.003Z</time></trkpt><trkpt lat="44.6312224" lon="9.7287647"><ele>604.0</ele><time>2026-04-26T10:30:57.004Z</time></trkpt><trkpt lat="44.6312812" lon="9.7288688"><ele>606.0</ele><time>2026-04-26T10:30:58.003Z</time></trkpt><trkpt lat="44.631359" lon="9.7289847"><ele>608.0</ele><time>2026-04-26T10:30:59.003Z</time></trkpt><trkpt lat="44.6314327" lon="9.7290976"><ele>610.0</ele><time>2026-04-26T10:31:00.003Z</time></trkpt><trkpt lat="44.6314985" lon="9.7292026"><ele>610.0</ele><time>2026-04-26T10:31:01.004Z</time></trkpt><trkpt lat="44.6315516" lon="9.7292921"><ele>610.0</ele><time>2026-04-26T10:31:02.003Z</time></trkpt><trkpt lat="44.6315845" lon="9.7293684"><ele>610.0</ele><time>2026-04-26T10:31:03.003Z</time></trkpt><trkpt lat="44.6316288" lon="9.7294861"><ele>610.0</ele><time>2026-04-26T10:31:05.003Z</time></trkpt><trkpt lat="44.6317029" lon="9.7296156"><ele>610.0</ele><time>2026-04-26T10:31:07.003Z</time></trkpt><trkpt lat="44.6317473" lon="9.7296934"><ele>610.0</ele><time>2026-04-26T10:31:08.004Z</time></trkpt><trkpt lat="44.6317989" lon="9.7297756"><ele>610.4</ele><time>2026-04-26T10:31:09.004Z</time></trkpt><trkpt lat="44.6318475" lon="9.7298707"><ele>610.8</ele><time>2026-04-26T10:31:10.004Z</time></trkpt><trkpt lat="44.6319075" lon="9.729984"><ele>611.2</ele><time>2026-04-26T10:31:11.004Z</time></trkpt><trkpt lat="44.6319746" lon="9.7300883"><ele>611.6</ele><time>2026-04-26T10:31:12.004Z</time></trkpt><trkpt lat="44.6320379" lon="9.7302108"><ele>612.0</ele><time>2026-04-26T10:31:13.003Z</time></trkpt><trkpt lat="44.6320789" lon="9.7303255"><ele>612.0</ele><time>2026-04-26T10:31:14.004Z</time></trkpt><trkpt lat="44.6321131" lon="9.7304322"><ele>612.0</ele><time>2026-04-26T10:31:15.003Z</time></trkpt><trkpt lat="44.6321393" lon="9.7305364"><ele>612.0</ele><time>2026-04-26T10:31:16.003Z</time></trkpt><trkpt lat="44.6321605" lon="9.730621"><ele>612.0</ele><time>2026-04-26T10:31:17.003Z</time></trkpt><trkpt lat="44.6321551" lon="9.7307701"><ele>612.0</ele><time>2026-04-26T10:31:19.003Z</time></trkpt><trkpt lat="44.6320945" lon="9.7309162"><ele>612.0</ele><time>2026-04-26T10:31:21.003Z</time></trkpt><trkpt lat="44.6320698" lon="9.730998"><ele>612.0</ele><time>2026-04-26T10:31:22.003Z</time></trkpt><trkpt lat="44.6320364" lon="9.7311458"><ele>612.0</ele><time>2026-04-26T10:31:24.004Z</time></trkpt><trkpt lat="44.632023" lon="9.7312586"><ele>612.0</ele><time>2026-04-26T10:31:26.004Z</time></trkpt><trkpt lat="44.63206" lon="9.731365"><ele>612.0</ele><time>2026-04-26T10:31:30.003Z</time></trkpt><trkpt lat="44.6321283" lon="9.7314133"><ele>612.0</ele><time>2026-04-26T10:31:33.003Z</time></trkpt><trkpt lat="44.6321933" lon="9.7314533"><ele>609.0</ele><time>2026-04-26T10:31:35.004Z</time></trkpt><trkpt lat="44.6323033" lon="9.73152"><ele>609.0</ele><time>2026-04-26T10:31:37.003Z</time></trkpt><trkpt lat="44.632405" lon="9.7315867"><ele>609.0</ele><time>2026-04-26T10:31:39.003Z</time></trkpt><trkpt lat="44.6324833" lon="9.7316317"><ele>609.0</ele><time>2026-04-26T10:31:41.003Z</time></trkpt><trkpt lat="44.6325533" lon="9.731685"><ele>609.0</ele><time>2026-04-26T10:31:44.004Z</time></trkpt></trkseg></trk></gpx>